<?xml version="1.0" encoding="UTF-8"?><gpx xmlns="http://www.topografix.com/GPX/1/1" version="1.1" creator="iOrient"><trk><name>GreatWalk. Извилистая река</name><trkseg><trkpt lat="55.9164567" lon="49.1735717"><time>2023-06-03T05:41:05.347</time></trkpt><trkpt lat="55.9164550" lon="49.1735717"><time>2023-06-03T05:41:07.213</time></trkpt><trkpt lat="55.9165017" lon="49.1735233"><time>2023-06-03T05:41:18.493</time></trkpt><trkpt lat="55.9165033" lon="49.1734317"><time>2023-06-03T05:41:24.310</time></trkpt><trkpt lat="55.9164450" lon="49.1733417"><time>2023-06-03T05:41:27.307</time></trkpt><trkpt lat="55.9163917" lon="49.1733283"><time>2023-06-03T05:41:28.303</time></trkpt><trkpt lat="55.9163417" lon="49.1733117"><time>2023-06-03T05:41:29.307</time></trkpt><trkpt lat="55.9162967" lon="49.1732767"><time>2023-06-03T05:41:30.307</time></trkpt><trkpt lat="55.9162400" lon="49.1732250"><time>2023-06-03T05:41:31.310</time></trkpt><trkpt lat="55.9161783" lon="49.1731600"><time>2023-06-03T05:41:32.307</time></trkpt><trkpt lat="55.9161417" lon="49.1730900"><time>2023-06-03T05:41:33.307</time></trkpt><trkpt lat="55.9161100" lon="49.1730067"><time>2023-06-03T05:41:34.293</time></trkpt><trkpt lat="55.9160800" lon="49.1729133"><time>2023-06-03T05:41:35.327</time></trkpt><trkpt lat="55.9160750" lon="49.1728900"><time>2023-06-03T05:41:36.713</time></trkpt><trkpt lat="55.9160400" lon="49.1727817"><time>2023-06-03T05:41:38.310</time></trkpt><trkpt lat="55.9159917" lon="49.1726750"><time>2023-06-03T05:41:39.310</time></trkpt><trkpt lat="55.9159583" lon="49.1726000"><time>2023-06-03T05:41:40.307</time></trkpt><trkpt lat="55.9159317" lon="49.1725183"><time>2023-06-03T05:41:41.307</time></trkpt><trkpt lat="55.9159033" lon="49.1724433"><time>2023-06-03T05:41:42.300</time></trkpt><trkpt lat="55.9158767" lon="49.1723533"><time>2023-06-03T05:41:43.297</time></trkpt><trkpt lat="55.9158500" lon="49.1722683"><time>2023-06-03T05:41:44.320</time></trkpt><trkpt lat="55.9158350" lon="49.1722300"><time>2023-06-03T05:41:46.243</time></trkpt><trkpt lat="55.9158033" lon="49.1721367"><time>2023-06-03T05:41:46.733</time></trkpt><trkpt lat="55.9157617" lon="49.1720317"><time>2023-06-03T05:41:47.810</time></trkpt><trkpt lat="55.9157033" lon="49.1718917"><time>2023-06-03T05:41:49.307</time></trkpt><trkpt lat="55.9156350" lon="49.1717517"><time>2023-06-03T05:41:50.310</time></trkpt><trkpt lat="55.9155717" lon="49.1716350"><time>2023-06-03T05:41:51.307</time></trkpt><trkpt lat="55.9155250" lon="49.1715567"><time>2023-06-03T05:41:52.307</time></trkpt><trkpt lat="55.9154717" lon="49.1714900"><time>2023-06-03T05:41:53.307</time></trkpt><trkpt lat="55.9154033" lon="49.1713950"><time>2023-06-03T05:41:54.297</time></trkpt><trkpt lat="55.9153550" lon="49.1713167"><time>2023-06-03T05:41:55.307</time></trkpt><trkpt lat="55.9152917" lon="49.1712150"><time>2023-06-03T05:41:56.310</time></trkpt><trkpt lat="55.9152267" lon="49.1711133"><time>2023-06-03T05:41:57.330</time></trkpt><trkpt lat="55.9148600" lon="49.1706283"><time>2023-06-03T05:41:59.807</time></trkpt><trkpt lat="55.9147850" lon="49.1706067"><time>2023-06-03T05:42:00.293</time></trkpt><trkpt lat="55.9147550" lon="49.1704967"><time>2023-06-03T05:42:02.307</time></trkpt><trkpt lat="55.9147417" lon="49.1704133"><time>2023-06-03T05:42:03.307</time></trkpt><trkpt lat="55.9147100" lon="49.1702500"><time>2023-06-03T05:42:05.307</time></trkpt><trkpt lat="55.9146967" lon="49.1701417"><time>2023-06-03T05:42:06.310</time></trkpt><trkpt lat="55.9147017" lon="49.1700267"><time>2023-06-03T05:42:07.307</time></trkpt><trkpt lat="55.9146967" lon="49.1699233"><time>2023-06-03T05:42:08.307</time></trkpt><trkpt lat="55.9147117" lon="49.1698400"><time>2023-06-03T05:42:09.310</time></trkpt><trkpt lat="55.9146983" lon="49.1696917"><time>2023-06-03T05:42:10.307</time></trkpt><trkpt lat="55.9147000" lon="49.1695650"><time>2023-06-03T05:42:11.303</time></trkpt><trkpt lat="55.9147017" lon="49.1694433"><time>2023-06-03T05:42:12.303</time></trkpt><trkpt lat="55.9147000" lon="49.1693300"><time>2023-06-03T05:42:13.307</time></trkpt><trkpt lat="55.9147017" lon="49.1692167"><time>2023-06-03T05:42:14.303</time></trkpt><trkpt lat="55.9146950" lon="49.1691017"><time>2023-06-03T05:42:15.277</time></trkpt><trkpt lat="55.9147017" lon="49.1690067"><time>2023-06-03T05:42:16.303</time></trkpt><trkpt lat="55.9146950" lon="49.1689217"><time>2023-06-03T05:42:17.303</time></trkpt><trkpt lat="55.9146750" lon="49.1688350"><time>2023-06-03T05:42:18.300</time></trkpt><trkpt lat="55.9146517" lon="49.1687367"><time>2023-06-03T05:42:19.317</time></trkpt><trkpt lat="55.9146483" lon="49.1687333"><time>2023-06-03T05:42:21.710</time></trkpt><trkpt lat="55.9146067" lon="49.1686467"><time>2023-06-03T05:42:23.313</time></trkpt><trkpt lat="55.9145667" lon="49.1685633"><time>2023-06-03T05:42:25.310</time></trkpt><trkpt lat="55.9145367" lon="49.1685033"><time>2023-06-03T05:42:26.310</time></trkpt><trkpt lat="55.9144967" lon="49.1684067"><time>2023-06-03T05:42:28.303</time></trkpt><trkpt lat="55.9144717" lon="49.1683317"><time>2023-06-03T05:42:29.307</time></trkpt><trkpt lat="55.9144183" lon="49.1682017"><time>2023-06-03T05:42:31.310</time></trkpt><trkpt lat="55.9143633" lon="49.1680517"><time>2023-06-03T05:42:33.307</time></trkpt><trkpt lat="55.9143250" lon="49.1679667"><time>2023-06-03T05:42:34.313</time></trkpt><trkpt lat="55.9142733" lon="49.1678700"><time>2023-06-03T05:42:35.307</time></trkpt><trkpt lat="55.9142317" lon="49.1678083"><time>2023-06-03T05:42:36.310</time></trkpt><trkpt lat="55.9141700" lon="49.1677150"><time>2023-06-03T05:42:37.307</time></trkpt><trkpt lat="55.9141250" lon="49.1676283"><time>2023-06-03T05:42:38.310</time></trkpt><trkpt lat="55.9140583" lon="49.1675433"><time>2023-06-03T05:42:39.310</time></trkpt><trkpt lat="55.9139817" lon="49.1674483"><time>2023-06-03T05:42:40.310</time></trkpt><trkpt lat="55.9139117" lon="49.1673350"><time>2023-06-03T05:42:41.310</time></trkpt><trkpt lat="55.9138433" lon="49.1672317"><time>2023-06-03T05:42:42.310</time></trkpt><trkpt lat="55.9137900" lon="49.1671367"><time>2023-06-03T05:42:43.310</time></trkpt><trkpt lat="55.9137317" lon="49.1670283"><time>2023-06-03T05:42:44.323</time></trkpt><trkpt lat="55.9136683" lon="49.1669367"><time>2023-06-03T05:42:45.310</time></trkpt><trkpt lat="55.9136183" lon="49.1668650"><time>2023-06-03T05:42:46.310</time></trkpt><trkpt lat="55.9135650" lon="49.1667900"><time>2023-06-03T05:42:47.310</time></trkpt><trkpt lat="55.9135100" lon="49.1667033"><time>2023-06-03T05:42:48.310</time></trkpt><trkpt lat="55.9134350" lon="49.1665550"><time>2023-06-03T05:42:49.290</time></trkpt><trkpt lat="55.9133800" lon="49.1664500"><time>2023-06-03T05:42:50.307</time></trkpt><trkpt lat="55.9132867" lon="49.1662933"><time>2023-06-03T05:42:51.307</time></trkpt><trkpt lat="55.9132050" lon="49.1661533"><time>2023-06-03T05:42:52.317</time></trkpt><trkpt lat="55.9131333" lon="49.1660450"><time>2023-06-03T05:42:53.320</time></trkpt><trkpt lat="55.9130817" lon="49.1659450"><time>2023-06-03T05:42:54.320</time></trkpt><trkpt lat="55.9130350" lon="49.1658517"><time>2023-06-03T05:42:55.317</time></trkpt><trkpt lat="55.9129950" lon="49.1657550"><time>2023-06-03T05:42:56.340</time></trkpt><trkpt lat="55.9130183" lon="49.1653150"><time>2023-06-03T05:42:58.753</time></trkpt><trkpt lat="55.9129817" lon="49.1653167"><time>2023-06-03T05:43:00.670</time></trkpt><trkpt lat="55.9129550" lon="49.1652683"><time>2023-06-03T05:43:03.560</time></trkpt><trkpt lat="55.9128583" lon="49.1651633"><time>2023-06-03T05:43:04.037</time></trkpt><trkpt lat="55.9128183" lon="49.1650217"><time>2023-06-03T05:43:06.307</time></trkpt><trkpt lat="55.9127667" lon="49.1649383"><time>2023-06-03T05:43:07.293</time></trkpt><trkpt lat="55.9127133" lon="49.1648067"><time>2023-06-03T05:43:09.307</time></trkpt><trkpt lat="55.9126517" lon="49.1647050"><time>2023-06-03T05:43:10.310</time></trkpt><trkpt lat="55.9125950" lon="49.1646467"><time>2023-06-03T05:43:11.313</time></trkpt><trkpt lat="55.9125550" lon="49.1645300"><time>2023-06-03T05:43:13.313</time></trkpt><trkpt lat="55.9125217" lon="49.1644100"><time>2023-06-03T05:43:15.307</time></trkpt><trkpt lat="55.9124900" lon="49.1643083"><time>2023-06-03T05:43:17.303</time></trkpt><trkpt lat="55.9124750" lon="49.1641833"><time>2023-06-03T05:43:19.313</time></trkpt><trkpt lat="55.9124717" lon="49.1640550"><time>2023-06-03T05:43:21.313</time></trkpt><trkpt lat="55.9124717" lon="49.1639433"><time>2023-06-03T05:43:23.313</time></trkpt><trkpt lat="55.9124933" lon="49.1637850"><time>2023-06-03T05:43:25.307</time></trkpt><trkpt lat="55.9125100" lon="49.1636750"><time>2023-06-03T05:43:27.287</time></trkpt><trkpt lat="55.9125067" lon="49.1635750"><time>2023-06-03T05:43:29.310</time></trkpt><trkpt lat="55.9125200" lon="49.1634933"><time>2023-06-03T05:43:32.303</time></trkpt><trkpt lat="55.9125467" lon="49.1634067"><time>2023-06-03T05:43:35.280</time></trkpt><trkpt lat="55.9125567" lon="49.1633233"><time>2023-06-03T05:43:37.277</time></trkpt><trkpt lat="55.9125700" lon="49.1632433"><time>2023-06-03T05:43:40.273</time></trkpt><trkpt lat="55.9126083" lon="49.1631967"><time>2023-06-03T05:43:45.320</time></trkpt><trkpt lat="55.9126450" lon="49.1631400"><time>2023-06-03T05:43:49.317</time></trkpt><trkpt lat="55.9126833" lon="49.1630667"><time>2023-06-03T05:43:53.320</time></trkpt><trkpt lat="55.9127317" lon="49.1630233"><time>2023-06-03T05:43:59.313</time></trkpt><trkpt lat="55.9127750" lon="49.1629583"><time>2023-06-03T05:44:03.317</time></trkpt><trkpt lat="55.9128217" lon="49.1629067"><time>2023-06-03T05:44:07.320</time></trkpt><trkpt lat="55.9128717" lon="49.1628950"><time>2023-06-03T05:44:12.320</time></trkpt><trkpt lat="55.9128800" lon="49.1629867"><time>2023-06-03T05:44:18.280</time></trkpt><trkpt lat="55.9128617" lon="49.1630700"><time>2023-06-03T05:44:20.317</time></trkpt><trkpt lat="55.9128117" lon="49.1631683"><time>2023-06-03T05:44:22.310</time></trkpt><trkpt lat="55.9127550" lon="49.1632550"><time>2023-06-03T05:44:24.320</time></trkpt><trkpt lat="55.9127167" lon="49.1633017"><time>2023-06-03T05:44:26.323</time></trkpt><trkpt lat="55.9126983" lon="49.1633817"><time>2023-06-03T05:44:31.317</time></trkpt><trkpt lat="55.9126500" lon="49.1634283"><time>2023-06-03T05:44:46.320</time></trkpt><trkpt lat="55.9126217" lon="49.1634917"><time>2023-06-03T05:44:48.297</time></trkpt><trkpt lat="55.9125767" lon="49.1635933"><time>2023-06-03T05:44:50.317</time></trkpt><trkpt lat="55.9125183" lon="49.1637133"><time>2023-06-03T05:44:52.320</time></trkpt><trkpt lat="55.9124833" lon="49.1637850"><time>2023-06-03T05:44:53.320</time></trkpt><trkpt lat="55.9124467" lon="49.1638617"><time>2023-06-03T05:44:54.320</time></trkpt><trkpt lat="55.9124083" lon="49.1639417"><time>2023-06-03T05:44:55.323</time></trkpt><trkpt lat="55.9123717" lon="49.1640150"><time>2023-06-03T05:44:56.323</time></trkpt><trkpt lat="55.9123350" lon="49.1640900"><time>2023-06-03T05:44:57.320</time></trkpt><trkpt lat="55.9122950" lon="49.1641683"><time>2023-06-03T05:44:58.297</time></trkpt><trkpt lat="55.9122567" lon="49.1642450"><time>2023-06-03T05:44:59.320</time></trkpt><trkpt lat="55.9122200" lon="49.1643200"><time>2023-06-03T05:45:00.317</time></trkpt><trkpt lat="55.9121817" lon="49.1644033"><time>2023-06-03T05:45:01.320</time></trkpt><trkpt lat="55.9121417" lon="49.1644850"><time>2023-06-03T05:45:02.310</time></trkpt><trkpt lat="55.9121083" lon="49.1645867"><time>2023-06-03T05:45:03.310</time></trkpt><trkpt lat="55.9120650" lon="49.1646733"><time>2023-06-03T05:45:04.320</time></trkpt><trkpt lat="55.9120233" lon="49.1647567"><time>2023-06-03T05:45:05.300</time></trkpt><trkpt lat="55.9119817" lon="49.1648400"><time>2023-06-03T05:45:06.313</time></trkpt><trkpt lat="55.9119400" lon="49.1649233"><time>2023-06-03T05:45:07.317</time></trkpt><trkpt lat="55.9118950" lon="49.1650100"><time>2023-06-03T05:45:08.317</time></trkpt><trkpt lat="55.9118550" lon="49.1650917"><time>2023-06-03T05:45:09.320</time></trkpt><trkpt lat="55.9118117" lon="49.1651700"><time>2023-06-03T05:45:10.323</time></trkpt><trkpt lat="55.9117750" lon="49.1652583"><time>2023-06-03T05:45:11.323</time></trkpt><trkpt lat="55.9117333" lon="49.1653433"><time>2023-06-03T05:45:12.320</time></trkpt><trkpt lat="55.9116933" lon="49.1654283"><time>2023-06-03T05:45:13.323</time></trkpt><trkpt lat="55.9116517" lon="49.1655183"><time>2023-06-03T05:45:14.323</time></trkpt><trkpt lat="55.9116083" lon="49.1656200"><time>2023-06-03T05:45:15.323</time></trkpt><trkpt lat="55.9115500" lon="49.1657000"><time>2023-06-03T05:45:16.320</time></trkpt><trkpt lat="55.9115000" lon="49.1657883"><time>2023-06-03T05:45:17.320</time></trkpt><trkpt lat="55.9114583" lon="49.1658767"><time>2023-06-03T05:45:18.307</time></trkpt><trkpt lat="55.9114200" lon="49.1659667"><time>2023-06-03T05:45:19.323</time></trkpt><trkpt lat="55.9113717" lon="49.1660633"><time>2023-06-03T05:45:20.327</time></trkpt><trkpt lat="55.9113267" lon="49.1661517"><time>2023-06-03T05:45:21.323</time></trkpt><trkpt lat="55.9112800" lon="49.1662450"><time>2023-06-03T05:45:22.313</time></trkpt><trkpt lat="55.9112400" lon="49.1663300"><time>2023-06-03T05:45:23.320</time></trkpt><trkpt lat="55.9112000" lon="49.1664167"><time>2023-06-03T05:45:24.320</time></trkpt><trkpt lat="55.9111650" lon="49.1664883"><time>2023-06-03T05:45:25.323</time></trkpt><trkpt lat="55.9111250" lon="49.1665700"><time>2023-06-03T05:45:26.307</time></trkpt><trkpt lat="55.9110817" lon="49.1666550"><time>2023-06-03T05:45:27.317</time></trkpt><trkpt lat="55.9110383" lon="49.1667400"><time>2023-06-03T05:45:28.320</time></trkpt><trkpt lat="55.9109983" lon="49.1668167"><time>2023-06-03T05:45:29.323</time></trkpt><trkpt lat="55.9109533" lon="49.1668933"><time>2023-06-03T05:45:30.323</time></trkpt><trkpt lat="55.9109150" lon="49.1669683"><time>2023-06-03T05:45:31.320</time></trkpt><trkpt lat="55.9108750" lon="49.1670400"><time>2023-06-03T05:45:32.323</time></trkpt><trkpt lat="55.9108383" lon="49.1671117"><time>2023-06-03T05:45:33.320</time></trkpt><trkpt lat="55.9108033" lon="49.1671783"><time>2023-06-03T05:45:34.323</time></trkpt><trkpt lat="55.9107717" lon="49.1672483"><time>2023-06-03T05:45:35.317</time></trkpt><trkpt lat="55.9107350" lon="49.1673150"><time>2023-06-03T05:45:36.307</time></trkpt><trkpt lat="55.9107017" lon="49.1673833"><time>2023-06-03T05:45:37.323</time></trkpt><trkpt lat="55.9106667" lon="49.1674483"><time>2023-06-03T05:45:38.323</time></trkpt><trkpt lat="55.9106283" lon="49.1675217"><time>2023-06-03T05:45:39.320</time></trkpt><trkpt lat="55.9105917" lon="49.1675950"><time>2023-06-03T05:45:40.320</time></trkpt><trkpt lat="55.9105583" lon="49.1676683"><time>2023-06-03T05:45:41.317</time></trkpt><trkpt lat="55.9105233" lon="49.1677417"><time>2023-06-03T05:45:42.313</time></trkpt><trkpt lat="55.9104817" lon="49.1678150"><time>2023-06-03T05:45:43.320</time></trkpt><trkpt lat="55.9104400" lon="49.1678867"><time>2023-06-03T05:45:44.323</time></trkpt><trkpt lat="55.9104083" lon="49.1679450"><time>2023-06-03T05:45:45.320</time></trkpt><trkpt lat="55.9103733" lon="49.1680050"><time>2023-06-03T05:45:49.327</time></trkpt><trkpt lat="55.9103417" lon="49.1680683"><time>2023-06-03T05:45:55.317</time></trkpt><trkpt lat="55.9102850" lon="49.1681583"><time>2023-06-03T05:46:00.287</time></trkpt><trkpt lat="55.9102283" lon="49.1682667"><time>2023-06-03T05:46:02.287</time></trkpt><trkpt lat="55.9101733" lon="49.1683700"><time>2023-06-03T05:46:04.310</time></trkpt><trkpt lat="55.9101317" lon="49.1684517"><time>2023-06-03T05:46:06.287</time></trkpt><trkpt lat="55.9100750" lon="49.1685433"><time>2023-06-03T05:46:08.283</time></trkpt><trkpt lat="55.9100033" lon="49.1686883"><time>2023-06-03T05:46:19.287</time></trkpt><trkpt lat="55.9099533" lon="49.1687750"><time>2023-06-03T05:46:21.300</time></trkpt><trkpt lat="55.9098967" lon="49.1688750"><time>2023-06-03T05:46:23.313</time></trkpt><trkpt lat="55.9098500" lon="49.1689867"><time>2023-06-03T05:46:25.300</time></trkpt><trkpt lat="55.9098000" lon="49.1690917"><time>2023-06-03T05:46:27.297</time></trkpt><trkpt lat="55.9097467" lon="49.1691967"><time>2023-06-03T05:46:29.297</time></trkpt><trkpt lat="55.9097017" lon="49.1693183"><time>2023-06-03T05:46:31.287</time></trkpt><trkpt lat="55.9096700" lon="49.1693767"><time>2023-06-03T05:46:32.300</time></trkpt><trkpt lat="55.9096167" lon="49.1694683"><time>2023-06-03T05:46:34.313</time></trkpt><trkpt lat="55.9095850" lon="49.1695333"><time>2023-06-03T05:46:36.303</time></trkpt><trkpt lat="55.9095383" lon="49.1696250"><time>2023-06-03T05:46:38.310</time></trkpt><trkpt lat="55.9094883" lon="49.1697267"><time>2023-06-03T05:46:40.293</time></trkpt><trkpt lat="55.9094417" lon="49.1698083"><time>2023-06-03T05:46:42.297</time></trkpt><trkpt lat="55.9093900" lon="49.1698550"><time>2023-06-03T05:46:44.310</time></trkpt><trkpt lat="55.9093283" lon="49.1698583"><time>2023-06-03T05:46:46.303</time></trkpt><trkpt lat="55.9092733" lon="49.1698683"><time>2023-06-03T05:46:48.303</time></trkpt><trkpt lat="55.9092550" lon="49.1699550"><time>2023-06-03T05:46:50.300</time></trkpt><trkpt lat="55.9092650" lon="49.1700750"><time>2023-06-03T05:46:52.300</time></trkpt><trkpt lat="55.9092500" lon="49.1702183"><time>2023-06-03T05:46:54.300</time></trkpt><trkpt lat="55.9092200" lon="49.1702883"><time>2023-06-03T05:46:55.303</time></trkpt><trkpt lat="55.9091933" lon="49.1703567"><time>2023-06-03T05:46:56.303</time></trkpt><trkpt lat="55.9091683" lon="49.1704333"><time>2023-06-03T05:46:57.307</time></trkpt><trkpt lat="55.9091367" lon="49.1705183"><time>2023-06-03T05:46:58.300</time></trkpt><trkpt lat="55.9091000" lon="49.1705850"><time>2023-06-03T05:46:59.307</time></trkpt><trkpt lat="55.9090633" lon="49.1706517"><time>2023-06-03T05:47:00.283</time></trkpt><trkpt lat="55.9090217" lon="49.1707133"><time>2023-06-03T05:47:01.293</time></trkpt><trkpt lat="55.9089850" lon="49.1707617"><time>2023-06-03T05:47:02.300</time></trkpt><trkpt lat="55.9089450" lon="49.1708183"><time>2023-06-03T05:47:03.290</time></trkpt><trkpt lat="55.9089017" lon="49.1708900"><time>2023-06-03T05:47:04.297</time></trkpt><trkpt lat="55.9088617" lon="49.1709700"><time>2023-06-03T05:47:05.297</time></trkpt><trkpt lat="55.9088200" lon="49.1710583"><time>2023-06-03T05:47:06.300</time></trkpt><trkpt lat="55.9087817" lon="49.1711450"><time>2023-06-03T05:47:07.320</time></trkpt><trkpt lat="55.9087433" lon="49.1712317"><time>2023-06-03T05:47:08.290</time></trkpt><trkpt lat="55.9087017" lon="49.1713217"><time>2023-06-03T05:47:09.300</time></trkpt><trkpt lat="55.9086650" lon="49.1714133"><time>2023-06-03T05:47:10.297</time></trkpt><trkpt lat="55.9086233" lon="49.1714917"><time>2023-06-03T05:47:11.307</time></trkpt><trkpt lat="55.9085850" lon="49.1715817"><time>2023-06-03T05:47:12.297</time></trkpt><trkpt lat="55.9085450" lon="49.1716783"><time>2023-06-03T05:47:13.300</time></trkpt><trkpt lat="55.9085050" lon="49.1717633"><time>2023-06-03T05:47:14.303</time></trkpt><trkpt lat="55.9084633" lon="49.1718367"><time>2023-06-03T05:47:15.293</time></trkpt><trkpt lat="55.9084167" lon="49.1719217"><time>2023-06-03T05:47:16.287</time></trkpt><trkpt lat="55.9083783" lon="49.1720100"><time>2023-06-03T05:47:17.293</time></trkpt><trkpt lat="55.9083417" lon="49.1721050"><time>2023-06-03T05:47:18.297</time></trkpt><trkpt lat="55.9083017" lon="49.1721900"><time>2023-06-03T05:47:19.297</time></trkpt><trkpt lat="55.9082600" lon="49.1722667"><time>2023-06-03T05:47:20.307</time></trkpt><trkpt lat="55.9082250" lon="49.1723500"><time>2023-06-03T05:47:21.307</time></trkpt><trkpt lat="55.9081917" lon="49.1724217"><time>2023-06-03T05:47:22.303</time></trkpt><trkpt lat="55.9081500" lon="49.1725033"><time>2023-06-03T05:47:23.307</time></trkpt><trkpt lat="55.9081050" lon="49.1725917"><time>2023-06-03T05:47:24.300</time></trkpt><trkpt lat="55.9080617" lon="49.1726883"><time>2023-06-03T05:47:25.300</time></trkpt><trkpt lat="55.9080167" lon="49.1727950"><time>2023-06-03T05:47:26.300</time></trkpt><trkpt lat="55.9079750" lon="49.1728917"><time>2023-06-03T05:47:27.313</time></trkpt><trkpt lat="55.9079267" lon="49.1729933"><time>2023-06-03T05:47:28.307</time></trkpt><trkpt lat="55.9078817" lon="49.1731033"><time>2023-06-03T05:47:29.300</time></trkpt><trkpt lat="55.9078333" lon="49.1732133"><time>2023-06-03T05:47:30.300</time></trkpt><trkpt lat="55.9077933" lon="49.1733067"><time>2023-06-03T05:47:31.300</time></trkpt><trkpt lat="55.9077467" lon="49.1734067"><time>2023-06-03T05:47:32.313</time></trkpt><trkpt lat="55.9076983" lon="49.1735083"><time>2023-06-03T05:47:33.303</time></trkpt><trkpt lat="55.9076500" lon="49.1735983"><time>2023-06-03T05:47:34.303</time></trkpt><trkpt lat="55.9076033" lon="49.1736900"><time>2023-06-03T05:47:35.300</time></trkpt><trkpt lat="55.9075600" lon="49.1737717"><time>2023-06-03T05:47:36.300</time></trkpt><trkpt lat="55.9075217" lon="49.1738633"><time>2023-06-03T05:47:37.303</time></trkpt><trkpt lat="55.9074750" lon="49.1739700"><time>2023-06-03T05:47:38.300</time></trkpt><trkpt lat="55.9074283" lon="49.1740700"><time>2023-06-03T05:47:39.293</time></trkpt><trkpt lat="55.9073817" lon="49.1741717"><time>2023-06-03T05:47:40.303</time></trkpt><trkpt lat="55.9073317" lon="49.1742633"><time>2023-06-03T05:47:41.307</time></trkpt><trkpt lat="55.9072850" lon="49.1743500"><time>2023-06-03T05:47:42.297</time></trkpt><trkpt lat="55.9072433" lon="49.1744433"><time>2023-06-03T05:47:43.303</time></trkpt><trkpt lat="55.9072033" lon="49.1745350"><time>2023-06-03T05:47:44.307</time></trkpt><trkpt lat="55.9071583" lon="49.1746317"><time>2023-06-03T05:47:45.317</time></trkpt><trkpt lat="55.9071167" lon="49.1747317"><time>2023-06-03T05:47:46.297</time></trkpt><trkpt lat="55.9070750" lon="49.1748250"><time>2023-06-03T05:47:47.310</time></trkpt><trkpt lat="55.9070317" lon="49.1749250"><time>2023-06-03T05:47:48.300</time></trkpt><trkpt lat="55.9069867" lon="49.1750233"><time>2023-06-03T05:47:49.303</time></trkpt><trkpt lat="55.9069383" lon="49.1751217"><time>2023-06-03T05:47:50.297</time></trkpt><trkpt lat="55.9068967" lon="49.1752217"><time>2023-06-03T05:47:51.297</time></trkpt><trkpt lat="55.9068533" lon="49.1753300"><time>2023-06-03T05:47:52.300</time></trkpt><trkpt lat="55.9068167" lon="49.1754483"><time>2023-06-03T05:47:53.317</time></trkpt><trkpt lat="55.9067733" lon="49.1755367"><time>2023-06-03T05:47:54.307</time></trkpt><trkpt lat="55.9067300" lon="49.1756367"><time>2023-06-03T05:47:55.307</time></trkpt><trkpt lat="55.9066917" lon="49.1757500"><time>2023-06-03T05:47:56.310</time></trkpt><trkpt lat="55.9066550" lon="49.1758633"><time>2023-06-03T05:47:57.303</time></trkpt><trkpt lat="55.9066150" lon="49.1759750"><time>2023-06-03T05:47:58.300</time></trkpt><trkpt lat="55.9065783" lon="49.1761033"><time>2023-06-03T05:47:59.297</time></trkpt><trkpt lat="55.9065350" lon="49.1762150"><time>2023-06-03T05:48:00.303</time></trkpt><trkpt lat="55.9064967" lon="49.1763267"><time>2023-06-03T05:48:01.307</time></trkpt><trkpt lat="55.9064617" lon="49.1764467"><time>2023-06-03T05:48:02.297</time></trkpt><trkpt lat="55.9064267" lon="49.1765417"><time>2023-06-03T05:48:03.290</time></trkpt><trkpt lat="55.9063900" lon="49.1766567"><time>2023-06-03T05:48:04.300</time></trkpt><trkpt lat="55.9063517" lon="49.1767717"><time>2023-06-03T05:48:05.317</time></trkpt><trkpt lat="55.9063150" lon="49.1768833"><time>2023-06-03T05:48:06.297</time></trkpt><trkpt lat="55.9062850" lon="49.1769950"><time>2023-06-03T05:48:07.300</time></trkpt><trkpt lat="55.9062517" lon="49.1771183"><time>2023-06-03T05:48:08.313</time></trkpt><trkpt lat="55.9062150" lon="49.1772400"><time>2023-06-03T05:48:09.300</time></trkpt><trkpt lat="55.9061817" lon="49.1773500"><time>2023-06-03T05:48:10.300</time></trkpt><trkpt lat="55.9061483" lon="49.1774550"><time>2023-06-03T05:48:11.300</time></trkpt><trkpt lat="55.9061150" lon="49.1775700"><time>2023-06-03T05:48:12.307</time></trkpt><trkpt lat="55.9060867" lon="49.1776967"><time>2023-06-03T05:48:13.300</time></trkpt><trkpt lat="55.9060517" lon="49.1778200"><time>2023-06-03T05:48:14.317</time></trkpt><trkpt lat="55.9060233" lon="49.1779333"><time>2023-06-03T05:48:15.307</time></trkpt><trkpt lat="55.9060000" lon="49.1780500"><time>2023-06-03T05:48:16.303</time></trkpt><trkpt lat="55.9059667" lon="49.1781583"><time>2023-06-03T05:48:17.310</time></trkpt><trkpt lat="55.9059350" lon="49.1782733"><time>2023-06-03T05:48:18.317</time></trkpt><trkpt lat="55.9059100" lon="49.1783783"><time>2023-06-03T05:48:19.303</time></trkpt><trkpt lat="55.9058833" lon="49.1784883"><time>2023-06-03T05:48:20.303</time></trkpt><trkpt lat="55.9058500" lon="49.1786000"><time>2023-06-03T05:48:21.303</time></trkpt><trkpt lat="55.9058200" lon="49.1787183"><time>2023-06-03T05:48:22.303</time></trkpt><trkpt lat="55.9057933" lon="49.1788250"><time>2023-06-03T05:48:23.310</time></trkpt><trkpt lat="55.9057650" lon="49.1789450"><time>2023-06-03T05:48:24.303</time></trkpt><trkpt lat="55.9057350" lon="49.1790633"><time>2023-06-03T05:48:25.307</time></trkpt><trkpt lat="55.9057017" lon="49.1791750"><time>2023-06-03T05:48:26.300</time></trkpt><trkpt lat="55.9056700" lon="49.1792967"><time>2023-06-03T05:48:27.287</time></trkpt><trkpt lat="55.9056367" lon="49.1794150"><time>2023-06-03T05:48:28.300</time></trkpt><trkpt lat="55.9056017" lon="49.1795350"><time>2023-06-03T05:48:29.300</time></trkpt><trkpt lat="55.9055700" lon="49.1796417"><time>2023-06-03T05:48:30.307</time></trkpt><trkpt lat="55.9055367" lon="49.1797550"><time>2023-06-03T05:48:31.307</time></trkpt><trkpt lat="55.9055100" lon="49.1798567"><time>2023-06-03T05:48:32.293</time></trkpt><trkpt lat="55.9054850" lon="49.1799700"><time>2023-06-03T05:48:33.297</time></trkpt><trkpt lat="55.9054550" lon="49.1800850"><time>2023-06-03T05:48:34.303</time></trkpt><trkpt lat="55.9054283" lon="49.1802033"><time>2023-06-03T05:48:35.307</time></trkpt><trkpt lat="55.9054017" lon="49.1803167"><time>2023-06-03T05:48:36.317</time></trkpt><trkpt lat="55.9053733" lon="49.1804367"><time>2023-06-03T05:48:37.303</time></trkpt><trkpt lat="55.9053383" lon="49.1805500"><time>2023-06-03T05:48:38.320</time></trkpt><trkpt lat="55.9053133" lon="49.1806600"><time>2023-06-03T05:48:39.297</time></trkpt><trkpt lat="55.9052833" lon="49.1807783"><time>2023-06-03T05:48:40.297</time></trkpt><trkpt lat="55.9052533" lon="49.1808950"><time>2023-06-03T05:48:41.307</time></trkpt><trkpt lat="55.9052233" lon="49.1810167"><time>2023-06-03T05:48:42.307</time></trkpt><trkpt lat="55.9051983" lon="49.1811317"><time>2023-06-03T05:48:43.303</time></trkpt><trkpt lat="55.9051717" lon="49.1812367"><time>2023-06-03T05:48:44.333</time></trkpt><trkpt lat="55.9050133" lon="49.1814033"><time>2023-06-03T05:48:45.270</time></trkpt><trkpt lat="55.9050717" lon="49.1814450"><time>2023-06-03T05:48:45.760</time></trkpt><trkpt lat="55.9050833" lon="49.1815267"><time>2023-06-03T05:48:46.793</time></trkpt><trkpt lat="55.9050633" lon="49.1816317"><time>2023-06-03T05:48:48.293</time></trkpt><trkpt lat="55.9050317" lon="49.1817150"><time>2023-06-03T05:48:49.303</time></trkpt><trkpt lat="55.9049950" lon="49.1818250"><time>2023-06-03T05:48:50.293</time></trkpt><trkpt lat="55.9049617" lon="49.1819300"><time>2023-06-03T05:48:51.293</time></trkpt><trkpt lat="55.9049350" lon="49.1820350"><time>2023-06-03T05:48:52.293</time></trkpt><trkpt lat="55.9049067" lon="49.1821650"><time>2023-06-03T05:48:53.297</time></trkpt><trkpt lat="55.9048833" lon="49.1822833"><time>2023-06-03T05:48:54.293</time></trkpt><trkpt lat="55.9048633" lon="49.1824100"><time>2023-06-03T05:48:55.277</time></trkpt><trkpt lat="55.9048383" lon="49.1825300"><time>2023-06-03T05:48:56.300</time></trkpt><trkpt lat="55.9048117" lon="49.1826517"><time>2023-06-03T05:48:57.300</time></trkpt><trkpt lat="55.9047900" lon="49.1827633"><time>2023-06-03T05:48:58.293</time></trkpt><trkpt lat="55.9047633" lon="49.1828717"><time>2023-06-03T05:48:59.303</time></trkpt><trkpt lat="55.9047383" lon="49.1829817"><time>2023-06-03T05:49:00.293</time></trkpt><trkpt lat="55.9047167" lon="49.1830983"><time>2023-06-03T05:49:01.297</time></trkpt><trkpt lat="55.9046900" lon="49.1832183"><time>2023-06-03T05:49:02.297</time></trkpt><trkpt lat="55.9046633" lon="49.1833200"><time>2023-06-03T05:49:03.287</time></trkpt><trkpt lat="55.9046267" lon="49.1835833"><time>2023-06-03T05:49:04.173</time></trkpt><trkpt lat="55.9046517" lon="49.1836983"><time>2023-06-03T05:49:04.663</time></trkpt><trkpt lat="55.9045850" lon="49.1837533"><time>2023-06-03T05:49:05.803</time></trkpt><trkpt lat="55.9045500" lon="49.1838100"><time>2023-06-03T05:49:06.790</time></trkpt><trkpt lat="55.9045067" lon="49.1838967"><time>2023-06-03T05:49:08.297</time></trkpt><trkpt lat="55.9044783" lon="49.1839767"><time>2023-06-03T05:49:09.300</time></trkpt><trkpt lat="55.9044550" lon="49.1840833"><time>2023-06-03T05:49:10.303</time></trkpt><trkpt lat="55.9044300" lon="49.1841917"><time>2023-06-03T05:49:11.297</time></trkpt><trkpt lat="55.9044050" lon="49.1842933"><time>2023-06-03T05:49:12.297</time></trkpt><trkpt lat="55.9043833" lon="49.1844083"><time>2023-06-03T05:49:13.313</time></trkpt><trkpt lat="55.9043650" lon="49.1846733"><time>2023-06-03T05:49:14.227</time></trkpt><trkpt lat="55.9043583" lon="49.1847717"><time>2023-06-03T05:49:16.793</time></trkpt><trkpt lat="55.9043083" lon="49.1849283"><time>2023-06-03T05:49:18.300</time></trkpt><trkpt lat="55.9042683" lon="49.1850533"><time>2023-06-03T05:49:19.290</time></trkpt><trkpt lat="55.9042383" lon="49.1851617"><time>2023-06-03T05:49:20.297</time></trkpt><trkpt lat="55.9042117" lon="49.1852933"><time>2023-06-03T05:49:21.297</time></trkpt><trkpt lat="55.9041850" lon="49.1854117"><time>2023-06-03T05:49:22.303</time></trkpt><trkpt lat="55.9041533" lon="49.1855200"><time>2023-06-03T05:49:23.300</time></trkpt><trkpt lat="55.9041283" lon="49.1856367"><time>2023-06-03T05:49:24.307</time></trkpt><trkpt lat="55.9041017" lon="49.1857467"><time>2023-06-03T05:49:25.300</time></trkpt><trkpt lat="55.9040733" lon="49.1858483"><time>2023-06-03T05:49:26.297</time></trkpt><trkpt lat="55.9040450" lon="49.1859500"><time>2023-06-03T05:49:27.293</time></trkpt><trkpt lat="55.9040183" lon="49.1860533"><time>2023-06-03T05:49:28.293</time></trkpt><trkpt lat="55.9039900" lon="49.1861583"><time>2023-06-03T05:49:29.300</time></trkpt><trkpt lat="55.9039617" lon="49.1862667"><time>2023-06-03T05:49:30.297</time></trkpt><trkpt lat="55.9039350" lon="49.1863683"><time>2023-06-03T05:49:31.290</time></trkpt><trkpt lat="55.9039083" lon="49.1864767"><time>2023-06-03T05:49:32.317</time></trkpt><trkpt lat="55.9036350" lon="49.1866367"><time>2023-06-03T05:49:33.723</time></trkpt><trkpt lat="55.9037383" lon="49.1867517"><time>2023-06-03T05:49:34.293</time></trkpt><trkpt lat="55.9037550" lon="49.1868267"><time>2023-06-03T05:49:34.793</time></trkpt><trkpt lat="55.9038033" lon="49.1869017"><time>2023-06-03T05:49:36.297</time></trkpt><trkpt lat="55.9037933" lon="49.1869900"><time>2023-06-03T05:49:37.297</time></trkpt><trkpt lat="55.9037633" lon="49.1870867"><time>2023-06-03T05:49:38.297</time></trkpt><trkpt lat="55.9037367" lon="49.1871917"><time>2023-06-03T05:49:39.297</time></trkpt><trkpt lat="55.9037200" lon="49.1873017"><time>2023-06-03T05:49:40.297</time></trkpt><trkpt lat="55.9036950" lon="49.1874083"><time>2023-06-03T05:49:41.293</time></trkpt><trkpt lat="55.9036700" lon="49.1875117"><time>2023-06-03T05:49:42.300</time></trkpt><trkpt lat="55.9036400" lon="49.1876333"><time>2023-06-03T05:49:43.297</time></trkpt><trkpt lat="55.9036133" lon="49.1877517"><time>2023-06-03T05:49:44.297</time></trkpt><trkpt lat="55.9035867" lon="49.1878583"><time>2023-06-03T05:49:45.290</time></trkpt><trkpt lat="55.9035650" lon="49.1879700"><time>2023-06-03T05:49:46.307</time></trkpt><trkpt lat="55.9035433" lon="49.1880800"><time>2023-06-03T05:49:47.290</time></trkpt><trkpt lat="55.9035183" lon="49.1881883"><time>2023-06-03T05:49:48.297</time></trkpt><trkpt lat="55.9035000" lon="49.1883467"><time>2023-06-03T05:49:49.310</time></trkpt><trkpt lat="55.9034850" lon="49.1884767"><time>2023-06-03T05:49:50.297</time></trkpt><trkpt lat="55.9034633" lon="49.1886050"><time>2023-06-03T05:49:51.270</time></trkpt><trkpt lat="55.9034483" lon="49.1887150"><time>2023-06-03T05:49:52.270</time></trkpt><trkpt lat="55.9034217" lon="49.1888200"><time>2023-06-03T05:49:53.283</time></trkpt><trkpt lat="55.9033983" lon="49.1889083"><time>2023-06-03T05:49:54.293</time></trkpt><trkpt lat="55.9033600" lon="49.1890000"><time>2023-06-03T05:49:55.297</time></trkpt><trkpt lat="55.9033283" lon="49.1891117"><time>2023-06-03T05:49:56.307</time></trkpt><trkpt lat="55.9032933" lon="49.1892117"><time>2023-06-03T05:49:57.287</time></trkpt><trkpt lat="55.9032700" lon="49.1893183"><time>2023-06-03T05:49:58.293</time></trkpt><trkpt lat="55.9032517" lon="49.1894133"><time>2023-06-03T05:49:59.297</time></trkpt><trkpt lat="55.9032317" lon="49.1895017"><time>2023-06-03T05:50:00.300</time></trkpt><trkpt lat="55.9032017" lon="49.1895950"><time>2023-06-03T05:50:01.307</time></trkpt><trkpt lat="55.9031700" lon="49.1896933"><time>2023-06-03T05:50:02.307</time></trkpt><trkpt lat="55.9031367" lon="49.1898133"><time>2023-06-03T05:50:03.310</time></trkpt><trkpt lat="55.9031050" lon="49.1899267"><time>2023-06-03T05:50:04.310</time></trkpt><trkpt lat="55.9030717" lon="49.1900383"><time>2023-06-03T05:50:05.303</time></trkpt><trkpt lat="55.9030417" lon="49.1901517"><time>2023-06-03T05:50:06.313</time></trkpt><trkpt lat="55.9030100" lon="49.1902683"><time>2023-06-03T05:50:07.307</time></trkpt><trkpt lat="55.9029800" lon="49.1903850"><time>2023-06-03T05:50:08.303</time></trkpt><trkpt lat="55.9029550" lon="49.1904883"><time>2023-06-03T05:50:09.307</time></trkpt><trkpt lat="55.9029267" lon="49.1905950"><time>2023-06-03T05:50:10.310</time></trkpt><trkpt lat="55.9029000" lon="49.1906900"><time>2023-06-03T05:50:11.307</time></trkpt><trkpt lat="55.9028717" lon="49.1907933"><time>2023-06-03T05:50:12.300</time></trkpt><trkpt lat="55.9028433" lon="49.1908933"><time>2023-06-03T05:50:13.313</time></trkpt><trkpt lat="55.9028150" lon="49.1909917"><time>2023-06-03T05:50:14.307</time></trkpt><trkpt lat="55.9027850" lon="49.1910883"><time>2023-06-03T05:50:15.300</time></trkpt><trkpt lat="55.9027533" lon="49.1911917"><time>2023-06-03T05:50:16.300</time></trkpt><trkpt lat="55.9027217" lon="49.1912967"><time>2023-06-03T05:50:17.307</time></trkpt><trkpt lat="55.9026917" lon="49.1914033"><time>2023-06-03T05:50:18.307</time></trkpt><trkpt lat="55.9026633" lon="49.1914983"><time>2023-06-03T05:50:19.300</time></trkpt><trkpt lat="55.9026350" lon="49.1916017"><time>2023-06-03T05:50:20.300</time></trkpt><trkpt lat="55.9026083" lon="49.1917000"><time>2023-06-03T05:50:21.307</time></trkpt><trkpt lat="55.9025833" lon="49.1917850"><time>2023-06-03T05:50:22.310</time></trkpt><trkpt lat="55.9025633" lon="49.1918767"><time>2023-06-03T05:50:23.303</time></trkpt><trkpt lat="55.9025367" lon="49.1919733"><time>2023-06-03T05:50:24.310</time></trkpt><trkpt lat="55.9025133" lon="49.1920750"><time>2023-06-03T05:50:25.300</time></trkpt><trkpt lat="55.9024883" lon="49.1921633"><time>2023-06-03T05:50:26.303</time></trkpt><trkpt lat="55.9024617" lon="49.1922517"><time>2023-06-03T05:50:27.297</time></trkpt><trkpt lat="55.9024300" lon="49.1923350"><time>2023-06-03T05:50:28.287</time></trkpt><trkpt lat="55.9023983" lon="49.1924300"><time>2023-06-03T05:50:29.307</time></trkpt><trkpt lat="55.9023633" lon="49.1925350"><time>2023-06-03T05:50:30.303</time></trkpt><trkpt lat="55.9023317" lon="49.1926350"><time>2023-06-03T05:50:31.300</time></trkpt><trkpt lat="55.9022983" lon="49.1927267"><time>2023-06-03T05:50:32.303</time></trkpt><trkpt lat="55.9022683" lon="49.1928333"><time>2023-06-03T05:50:33.310</time></trkpt><trkpt lat="55.9022450" lon="49.1929517"><time>2023-06-03T05:50:34.280</time></trkpt><trkpt lat="55.9022217" lon="49.1930633"><time>2023-06-03T05:50:35.297</time></trkpt><trkpt lat="55.9021900" lon="49.1931517"><time>2023-06-03T05:50:36.303</time></trkpt><trkpt lat="55.9021583" lon="49.1932350"><time>2023-06-03T05:50:37.303</time></trkpt><trkpt lat="55.9021283" lon="49.1933467"><time>2023-06-03T05:50:38.297</time></trkpt><trkpt lat="55.9021033" lon="49.1934667"><time>2023-06-03T05:50:39.300</time></trkpt><trkpt lat="55.9020767" lon="49.1935867"><time>2023-06-03T05:50:40.303</time></trkpt><trkpt lat="55.9020483" lon="49.1936983"><time>2023-06-03T05:50:41.310</time></trkpt><trkpt lat="55.9020200" lon="49.1938300"><time>2023-06-03T05:50:42.303</time></trkpt><trkpt lat="55.9019967" lon="49.1939417"><time>2023-06-03T05:50:43.303</time></trkpt><trkpt lat="55.9019633" lon="49.1940400"><time>2023-06-03T05:50:44.307</time></trkpt><trkpt lat="55.9019217" lon="49.1941350"><time>2023-06-03T05:50:45.300</time></trkpt><trkpt lat="55.9018783" lon="49.1942417"><time>2023-06-03T05:50:46.307</time></trkpt><trkpt lat="55.9018467" lon="49.1943500"><time>2023-06-03T05:50:47.303</time></trkpt><trkpt lat="55.9018200" lon="49.1944517"><time>2023-06-03T05:50:48.303</time></trkpt><trkpt lat="55.9017983" lon="49.1945700"><time>2023-06-03T05:50:49.303</time></trkpt><trkpt lat="55.9017633" lon="49.1946650"><time>2023-06-03T05:50:50.307</time></trkpt><trkpt lat="55.9017383" lon="49.1947667"><time>2023-06-03T05:50:51.297</time></trkpt><trkpt lat="55.9017067" lon="49.1948633"><time>2023-06-03T05:50:52.300</time></trkpt><trkpt lat="55.9016783" lon="49.1949650"><time>2023-06-03T05:50:53.300</time></trkpt><trkpt lat="55.9016467" lon="49.1950767"><time>2023-06-03T05:50:54.313</time></trkpt><trkpt lat="55.9016250" lon="49.1952033"><time>2023-06-03T05:50:55.323</time></trkpt><trkpt lat="55.9016017" lon="49.1953267"><time>2023-06-03T05:50:56.300</time></trkpt><trkpt lat="55.9015817" lon="49.1954400"><time>2023-06-03T05:50:57.310</time></trkpt><trkpt lat="55.9015583" lon="49.1955517"><time>2023-06-03T05:50:58.303</time></trkpt><trkpt lat="55.9015317" lon="49.1956600"><time>2023-06-03T05:50:59.303</time></trkpt><trkpt lat="55.9015033" lon="49.1957583"><time>2023-06-03T05:51:00.300</time></trkpt><trkpt lat="55.9014733" lon="49.1958500"><time>2023-06-03T05:51:01.300</time></trkpt><trkpt lat="55.9014433" lon="49.1959533"><time>2023-06-03T05:51:02.300</time></trkpt><trkpt lat="55.9014100" lon="49.1960467"><time>2023-06-03T05:51:03.297</time></trkpt><trkpt lat="55.9013800" lon="49.1961550"><time>2023-06-03T05:51:04.297</time></trkpt><trkpt lat="55.9013467" lon="49.1962500"><time>2023-06-03T05:51:05.300</time></trkpt><trkpt lat="55.9013167" lon="49.1963467"><time>2023-06-03T05:51:06.300</time></trkpt><trkpt lat="55.9012800" lon="49.1964550"><time>2023-06-03T05:51:07.310</time></trkpt><trkpt lat="55.9012467" lon="49.1965650"><time>2023-06-03T05:51:08.303</time></trkpt><trkpt lat="55.9012150" lon="49.1966783"><time>2023-06-03T05:51:09.297</time></trkpt><trkpt lat="55.9011867" lon="49.1968000"><time>2023-06-03T05:51:10.303</time></trkpt><trkpt lat="55.9011583" lon="49.1969100"><time>2023-06-03T05:51:11.313</time></trkpt><trkpt lat="55.9011250" lon="49.1970200"><time>2023-06-03T05:51:12.293</time></trkpt><trkpt lat="55.9010950" lon="49.1971250"><time>2023-06-03T05:51:13.300</time></trkpt><trkpt lat="55.9010600" lon="49.1972167"><time>2023-06-03T05:51:14.303</time></trkpt><trkpt lat="55.9010333" lon="49.1973050"><time>2023-06-03T05:51:15.307</time></trkpt><trkpt lat="55.9010100" lon="49.1974000"><time>2023-06-03T05:51:16.300</time></trkpt><trkpt lat="55.9009900" lon="49.1974950"><time>2023-06-03T05:51:17.303</time></trkpt><trkpt lat="55.9009617" lon="49.1975950"><time>2023-06-03T05:51:18.300</time></trkpt><trkpt lat="55.9009283" lon="49.1977033"><time>2023-06-03T05:51:19.297</time></trkpt><trkpt lat="55.9009017" lon="49.1978050"><time>2023-06-03T05:51:20.303</time></trkpt><trkpt lat="55.9008700" lon="49.1979000"><time>2023-06-03T05:51:21.307</time></trkpt><trkpt lat="55.9008367" lon="49.1980000"><time>2023-06-03T05:51:22.297</time></trkpt><trkpt lat="55.9008033" lon="49.1981083"><time>2023-06-03T05:51:23.307</time></trkpt><trkpt lat="55.9007700" lon="49.1982083"><time>2023-06-03T05:51:24.297</time></trkpt><trkpt lat="55.9007433" lon="49.1983217"><time>2023-06-03T05:51:25.297</time></trkpt><trkpt lat="55.9007133" lon="49.1984317"><time>2023-06-03T05:51:26.307</time></trkpt><trkpt lat="55.9006833" lon="49.1985550"><time>2023-06-03T05:51:27.307</time></trkpt><trkpt lat="55.9006517" lon="49.1986750"><time>2023-06-03T05:51:28.303</time></trkpt><trkpt lat="55.9006233" lon="49.1987800"><time>2023-06-03T05:51:29.313</time></trkpt><trkpt lat="55.9005950" lon="49.1988833"><time>2023-06-03T05:51:30.300</time></trkpt><trkpt lat="55.9005667" lon="49.1989917"><time>2023-06-03T05:51:31.300</time></trkpt><trkpt lat="55.9005383" lon="49.1990933"><time>2023-06-03T05:51:32.307</time></trkpt><trkpt lat="55.9005067" lon="49.1991917"><time>2023-06-03T05:51:33.300</time></trkpt><trkpt lat="55.9004783" lon="49.1992850"><time>2023-06-03T05:51:34.320</time></trkpt><trkpt lat="55.9004517" lon="49.1993850"><time>2023-06-03T05:51:35.313</time></trkpt><trkpt lat="55.9004233" lon="49.1994883"><time>2023-06-03T05:51:36.300</time></trkpt><trkpt lat="55.9003950" lon="49.1995967"><time>2023-06-03T05:51:37.307</time></trkpt><trkpt lat="55.9003683" lon="49.1996950"><time>2023-06-03T05:51:38.290</time></trkpt><trkpt lat="55.9003383" lon="49.1997900"><time>2023-06-03T05:51:39.307</time></trkpt><trkpt lat="55.9003050" lon="49.1998767"><time>2023-06-03T05:51:40.300</time></trkpt><trkpt lat="55.9002783" lon="49.1999667"><time>2023-06-03T05:51:41.300</time></trkpt><trkpt lat="55.9002433" lon="49.2000617"><time>2023-06-03T05:51:42.313</time></trkpt><trkpt lat="55.9002133" lon="49.2001650"><time>2023-06-03T05:51:43.303</time></trkpt><trkpt lat="55.9001817" lon="49.2002833"><time>2023-06-03T05:51:44.300</time></trkpt><trkpt lat="55.9001500" lon="49.2003900"><time>2023-06-03T05:51:45.300</time></trkpt><trkpt lat="55.9001167" lon="49.2005017"><time>2023-06-03T05:51:46.303</time></trkpt><trkpt lat="55.9000900" lon="49.2006100"><time>2023-06-03T05:51:47.300</time></trkpt><trkpt lat="55.9000533" lon="49.2007100"><time>2023-06-03T05:51:48.300</time></trkpt><trkpt lat="55.9000200" lon="49.2008033"><time>2023-06-03T05:51:49.297</time></trkpt><trkpt lat="55.8999850" lon="49.2008983"><time>2023-06-03T05:51:50.290</time></trkpt><trkpt lat="55.8999517" lon="49.2010117"><time>2023-06-03T05:51:51.300</time></trkpt><trkpt lat="55.8999167" lon="49.2011250"><time>2023-06-03T05:51:52.303</time></trkpt><trkpt lat="55.8998817" lon="49.2012367"><time>2023-06-03T05:51:53.307</time></trkpt><trkpt lat="55.8998483" lon="49.2013350"><time>2023-06-03T05:51:54.310</time></trkpt><trkpt lat="55.8998150" lon="49.2014383"><time>2023-06-03T05:51:55.297</time></trkpt><trkpt lat="55.8997800" lon="49.2015483"><time>2023-06-03T05:51:56.307</time></trkpt><trkpt lat="55.8997483" lon="49.2016617"><time>2023-06-03T05:51:57.303</time></trkpt><trkpt lat="55.8997100" lon="49.2017750"><time>2023-06-03T05:51:58.307</time></trkpt><trkpt lat="55.8996767" lon="49.2018833"><time>2023-06-03T05:51:59.300</time></trkpt><trkpt lat="55.8996450" lon="49.2019917"><time>2023-06-03T05:52:00.297</time></trkpt><trkpt lat="55.8996100" lon="49.2020883"><time>2023-06-03T05:52:01.300</time></trkpt><trkpt lat="55.8995750" lon="49.2021850"><time>2023-06-03T05:52:02.297</time></trkpt><trkpt lat="55.8995400" lon="49.2023000"><time>2023-06-03T05:52:03.300</time></trkpt><trkpt lat="55.8995050" lon="49.2024083"><time>2023-06-03T05:52:04.300</time></trkpt><trkpt lat="55.8994683" lon="49.2025017"><time>2023-06-03T05:52:05.300</time></trkpt><trkpt lat="55.8994417" lon="49.2025933"><time>2023-06-03T05:52:06.300</time></trkpt><trkpt lat="55.8994083" lon="49.2026817"><time>2023-06-03T05:52:07.303</time></trkpt><trkpt lat="55.8993733" lon="49.2027667"><time>2023-06-03T05:52:08.303</time></trkpt><trkpt lat="55.8993467" lon="49.2028400"><time>2023-06-03T05:52:09.310</time></trkpt><trkpt lat="55.8993167" lon="49.2029167"><time>2023-06-03T05:52:10.277</time></trkpt><trkpt lat="55.8992950" lon="49.2029900"><time>2023-06-03T05:52:11.280</time></trkpt><trkpt lat="55.8992700" lon="49.2030850"><time>2023-06-03T05:52:12.277</time></trkpt><trkpt lat="55.8992450" lon="49.2031683"><time>2023-06-03T05:52:13.287</time></trkpt><trkpt lat="55.8992233" lon="49.2032500"><time>2023-06-03T05:52:14.287</time></trkpt><trkpt lat="55.8992000" lon="49.2033250"><time>2023-06-03T05:52:15.290</time></trkpt><trkpt lat="55.8991500" lon="49.2034017"><time>2023-06-03T05:52:17.297</time></trkpt><trkpt lat="55.8990850" lon="49.2033900"><time>2023-06-03T05:52:19.293</time></trkpt><trkpt lat="55.8990100" lon="49.2033550"><time>2023-06-03T05:52:21.300</time></trkpt><trkpt lat="55.8989367" lon="49.2032883"><time>2023-06-03T05:52:23.303</time></trkpt><trkpt lat="55.8988717" lon="49.2031883"><time>2023-06-03T05:52:25.307</time></trkpt><trkpt lat="55.8988233" lon="49.2030700"><time>2023-06-03T05:52:27.303</time></trkpt><trkpt lat="55.8987917" lon="49.2029583"><time>2023-06-03T05:52:29.303</time></trkpt><trkpt lat="55.8987683" lon="49.2028283"><time>2023-06-03T05:52:31.300</time></trkpt><trkpt lat="55.8987500" lon="49.2027017"><time>2023-06-03T05:52:33.303</time></trkpt><trkpt lat="55.8987450" lon="49.2025967"><time>2023-06-03T05:52:56.320</time></trkpt><trkpt lat="55.8987250" lon="49.2025133"><time>2023-06-03T05:52:59.297</time></trkpt><trkpt lat="55.8987000" lon="49.2024083"><time>2023-06-03T05:53:01.273</time></trkpt><trkpt lat="55.8987033" lon="49.2023267"><time>2023-06-03T05:53:04.313</time></trkpt><trkpt lat="55.8987217" lon="49.2022183"><time>2023-06-03T05:53:07.317</time></trkpt><trkpt lat="55.8987383" lon="49.2021133"><time>2023-06-03T05:53:09.320</time></trkpt><trkpt lat="55.8987450" lon="49.2019933"><time>2023-06-03T05:53:11.317</time></trkpt><trkpt lat="55.8987450" lon="49.2018583"><time>2023-06-03T05:53:13.317</time></trkpt><trkpt lat="55.8987433" lon="49.2017100"><time>2023-06-03T05:53:15.317</time></trkpt><trkpt lat="55.8987383" lon="49.2015650"><time>2023-06-03T05:53:17.327</time></trkpt><trkpt lat="55.8987283" lon="49.2014850"><time>2023-06-03T05:53:18.317</time></trkpt><trkpt lat="55.8987067" lon="49.2013333"><time>2023-06-03T05:53:20.317</time></trkpt><trkpt lat="55.8987133" lon="49.2012233"><time>2023-06-03T05:53:22.323</time></trkpt><trkpt lat="55.8987117" lon="49.2011017"><time>2023-06-03T05:53:25.323</time></trkpt><trkpt lat="55.8987050" lon="49.2009883"><time>2023-06-03T05:53:27.307</time></trkpt><trkpt lat="55.8986983" lon="49.2008633"><time>2023-06-03T05:53:29.317</time></trkpt><trkpt lat="55.8986850" lon="49.2007267"><time>2023-06-03T05:53:31.317</time></trkpt><trkpt lat="55.8986700" lon="49.2006050"><time>2023-06-03T05:53:33.320</time></trkpt><trkpt lat="55.8986483" lon="49.2004667"><time>2023-06-03T05:53:35.323</time></trkpt><trkpt lat="55.8986283" lon="49.2003250"><time>2023-06-03T05:53:37.317</time></trkpt><trkpt lat="55.8986033" lon="49.2002067"><time>2023-06-03T05:53:39.310</time></trkpt><trkpt lat="55.8985867" lon="49.2000883"><time>2023-06-03T05:53:41.287</time></trkpt><trkpt lat="55.8985683" lon="49.1999383"><time>2023-06-03T05:53:43.320</time></trkpt><trkpt lat="55.8985567" lon="49.1998533"><time>2023-06-03T05:53:44.323</time></trkpt><trkpt lat="55.8985483" lon="49.1997267"><time>2023-06-03T05:53:46.317</time></trkpt><trkpt lat="55.8985467" lon="49.1996150"><time>2023-06-03T05:53:48.297</time></trkpt><trkpt lat="55.8985333" lon="49.1994883"><time>2023-06-03T05:53:50.313</time></trkpt><trkpt lat="55.8985217" lon="49.1993417"><time>2023-06-03T05:53:52.320</time></trkpt><trkpt lat="55.8985083" lon="49.1991967"><time>2023-06-03T05:53:54.323</time></trkpt><trkpt lat="55.8984950" lon="49.1990683"><time>2023-06-03T05:53:56.310</time></trkpt><trkpt lat="55.8984867" lon="49.1989417"><time>2023-06-03T05:53:58.317</time></trkpt><trkpt lat="55.8984733" lon="49.1988217"><time>2023-06-03T05:54:00.317</time></trkpt><trkpt lat="55.8984517" lon="49.1987000"><time>2023-06-03T05:54:02.323</time></trkpt><trkpt lat="55.8984433" lon="49.1985883"><time>2023-06-03T05:54:04.320</time></trkpt><trkpt lat="55.8984233" lon="49.1984950"><time>2023-06-03T05:54:10.327</time></trkpt><trkpt lat="55.8984017" lon="49.1984017"><time>2023-06-03T05:54:15.317</time></trkpt><trkpt lat="55.8983850" lon="49.1982333"><time>2023-06-03T05:54:31.317</time></trkpt><trkpt lat="55.8983733" lon="49.1981467"><time>2023-06-03T05:54:39.323</time></trkpt><trkpt lat="55.8983583" lon="49.1980600"><time>2023-06-03T05:54:43.320</time></trkpt><trkpt lat="55.8983467" lon="49.1979517"><time>2023-06-03T05:54:52.320</time></trkpt><trkpt lat="55.8983383" lon="49.1978683"><time>2023-06-03T05:54:54.320</time></trkpt><trkpt lat="55.8983250" lon="49.1977650"><time>2023-06-03T05:54:56.323</time></trkpt><trkpt lat="55.8983117" lon="49.1976800"><time>2023-06-03T05:54:58.317</time></trkpt><trkpt lat="55.8983067" lon="49.1975917"><time>2023-06-03T05:55:00.323</time></trkpt><trkpt lat="55.8983000" lon="49.1975017"><time>2023-06-03T05:55:03.350</time></trkpt><trkpt lat="55.8985283" lon="49.1975133"><time>2023-06-03T05:55:04.363</time></trkpt><trkpt lat="55.8984417" lon="49.1975250"><time>2023-06-03T05:55:04.843</time></trkpt><trkpt lat="55.8982967" lon="49.1973667"><time>2023-06-03T05:55:05.807</time></trkpt><trkpt lat="55.8982650" lon="49.1974283"><time>2023-06-03T05:55:06.313</time></trkpt><trkpt lat="55.8982867" lon="49.1973217"><time>2023-06-03T05:55:10.310</time></trkpt><trkpt lat="55.8982650" lon="49.1972450"><time>2023-06-03T05:55:12.310</time></trkpt><trkpt lat="55.8982317" lon="49.1971417"><time>2023-06-03T05:55:15.310</time></trkpt><trkpt lat="55.8982233" lon="49.1970483"><time>2023-06-03T05:55:17.310</time></trkpt><trkpt lat="55.8982167" lon="49.1969400"><time>2023-06-03T05:55:19.310</time></trkpt><trkpt lat="55.8982167" lon="49.1968483"><time>2023-06-03T05:55:21.313</time></trkpt><trkpt lat="55.8982117" lon="49.1967633"><time>2023-06-03T05:55:23.310</time></trkpt><trkpt lat="55.8982383" lon="49.1966983"><time>2023-06-03T05:55:25.310</time></trkpt><trkpt lat="55.8982800" lon="49.1966633"><time>2023-06-03T05:55:27.313</time></trkpt><trkpt lat="55.8983433" lon="49.1966000"><time>2023-06-03T05:55:29.310</time></trkpt><trkpt lat="55.8984150" lon="49.1965500"><time>2023-06-03T05:55:31.313</time></trkpt><trkpt lat="55.8984950" lon="49.1965417"><time>2023-06-03T05:55:33.317</time></trkpt><trkpt lat="55.8985633" lon="49.1965600"><time>2023-06-03T05:55:35.323</time></trkpt><trkpt lat="55.8986083" lon="49.1965100"><time>2023-06-03T05:55:38.317</time></trkpt><trkpt lat="55.8986167" lon="49.1963967"><time>2023-06-03T05:55:41.313</time></trkpt><trkpt lat="55.8986183" lon="49.1962950"><time>2023-06-03T05:55:43.320</time></trkpt><trkpt lat="55.8986200" lon="49.1961767"><time>2023-06-03T05:55:45.313</time></trkpt><trkpt lat="55.8986433" lon="49.1960667"><time>2023-06-03T05:55:47.317</time></trkpt><trkpt lat="55.8986667" lon="49.1959783"><time>2023-06-03T05:55:49.333</time></trkpt><trkpt lat="55.8986667" lon="49.1959783"><time>2023-06-03T05:55:50.313</time></trkpt><trkpt lat="55.8986950" lon="49.1959100"><time>2023-06-03T05:55:55.307</time></trkpt><trkpt lat="55.8986883" lon="49.1958000"><time>2023-06-03T05:56:00.317</time></trkpt><trkpt lat="55.8986917" lon="49.1957050"><time>2023-06-03T05:56:02.313</time></trkpt><trkpt lat="55.8986883" lon="49.1955833"><time>2023-06-03T05:56:04.317</time></trkpt><trkpt lat="55.8987050" lon="49.1954550"><time>2023-06-03T05:56:06.313</time></trkpt><trkpt lat="55.8987400" lon="49.1953283"><time>2023-06-03T05:56:08.317</time></trkpt><trkpt lat="55.8987600" lon="49.1952133"><time>2023-06-03T05:56:10.310</time></trkpt><trkpt lat="55.8987683" lon="49.1951083"><time>2023-06-03T05:56:12.313</time></trkpt><trkpt lat="55.8987717" lon="49.1949883"><time>2023-06-03T05:56:14.317</time></trkpt><trkpt lat="55.8987767" lon="49.1948617"><time>2023-06-03T05:56:16.330</time></trkpt><trkpt lat="55.8987783" lon="49.1948600"><time>2023-06-03T05:56:17.320</time></trkpt><trkpt lat="55.8988100" lon="49.1947800"><time>2023-06-03T05:56:19.310</time></trkpt><trkpt lat="55.8988483" lon="49.1947100"><time>2023-06-03T05:56:20.310</time></trkpt><trkpt lat="55.8988867" lon="49.1946683"><time>2023-06-03T05:56:21.310</time></trkpt><trkpt lat="55.8989383" lon="49.1945900"><time>2023-06-03T05:56:23.310</time></trkpt><trkpt lat="55.8989933" lon="49.1945017"><time>2023-06-03T05:56:25.313</time></trkpt><trkpt lat="55.8990333" lon="49.1944317"><time>2023-06-03T05:56:27.310</time></trkpt><trkpt lat="55.8990617" lon="49.1943583"><time>2023-06-03T05:56:29.313</time></trkpt><trkpt lat="55.8990850" lon="49.1942667"><time>2023-06-03T05:56:31.313</time></trkpt><trkpt lat="55.8991250" lon="49.1941717"><time>2023-06-03T05:56:33.310</time></trkpt><trkpt lat="55.8991683" lon="49.1941033"><time>2023-06-03T05:56:35.310</time></trkpt><trkpt lat="55.8992050" lon="49.1940183"><time>2023-06-03T05:56:38.310</time></trkpt><trkpt lat="55.8992317" lon="49.1939367"><time>2023-06-03T05:56:42.323</time></trkpt><trkpt lat="55.8992333" lon="49.1939367"><time>2023-06-03T05:56:43.293</time></trkpt><trkpt lat="55.8992783" lon="49.1939533"><time>2023-06-03T05:56:49.313</time></trkpt><trkpt lat="55.8993317" lon="49.1939300"><time>2023-06-03T05:56:52.307</time></trkpt><trkpt lat="55.8993767" lon="49.1939367"><time>2023-06-03T05:56:56.313</time></trkpt><trkpt lat="55.8994233" lon="49.1939900"><time>2023-06-03T05:57:01.313</time></trkpt><trkpt lat="55.8994683" lon="49.1940350"><time>2023-06-03T05:57:05.303</time></trkpt><trkpt lat="55.8995167" lon="49.1940950"><time>2023-06-03T05:57:09.317</time></trkpt><trkpt lat="55.8995633" lon="49.1941383"><time>2023-06-03T05:57:13.307</time></trkpt><trkpt lat="55.8996150" lon="49.1941533"><time>2023-06-03T05:57:17.323</time></trkpt><trkpt lat="55.8995817" lon="49.1940700"><time>2023-06-03T05:57:28.307</time></trkpt><trkpt lat="55.8995283" lon="49.1940383"><time>2023-06-03T05:57:32.327</time></trkpt><trkpt lat="55.8994833" lon="49.1940033"><time>2023-06-03T05:57:35.323</time></trkpt><trkpt lat="55.8994233" lon="49.1939783"><time>2023-06-03T05:57:38.323</time></trkpt><trkpt lat="55.8993800" lon="49.1939400"><time>2023-06-03T05:57:41.323</time></trkpt><trkpt lat="55.8994283" lon="49.1939783"><time>2023-06-03T05:57:53.323</time></trkpt><trkpt lat="55.8994733" lon="49.1940267"><time>2023-06-03T05:57:57.320</time></trkpt><trkpt lat="55.8995217" lon="49.1940567"><time>2023-06-03T05:58:01.317</time></trkpt><trkpt lat="55.8995583" lon="49.1941100"><time>2023-06-03T05:58:04.320</time></trkpt><trkpt lat="55.8995833" lon="49.1941800"><time>2023-06-03T05:58:07.320</time></trkpt><trkpt lat="55.8996150" lon="49.1942583"><time>2023-06-03T05:58:12.320</time></trkpt><trkpt lat="55.8996083" lon="49.1943583"><time>2023-06-03T05:58:23.323</time></trkpt><trkpt lat="55.8995900" lon="49.1944483"><time>2023-06-03T05:58:25.333</time></trkpt><trkpt lat="55.8995883" lon="49.1944500"><time>2023-06-03T05:58:26.810</time></trkpt><trkpt lat="55.8995400" lon="49.1945000"><time>2023-06-03T05:58:31.307</time></trkpt><trkpt lat="55.8995050" lon="49.1945767"><time>2023-06-03T05:58:34.310</time></trkpt><trkpt lat="55.8994833" lon="49.1946667"><time>2023-06-03T05:58:38.307</time></trkpt><trkpt lat="55.8994350" lon="49.1946917"><time>2023-06-03T05:58:44.307</time></trkpt><trkpt lat="55.8993883" lon="49.1947200"><time>2023-06-03T05:58:49.267</time></trkpt><trkpt lat="55.8993267" lon="49.1947417"><time>2023-06-03T05:58:51.297</time></trkpt><trkpt lat="55.8993267" lon="49.1947417"><time>2023-06-03T05:58:51.403</time></trkpt><trkpt lat="55.8992700" lon="49.1947583"><time>2023-06-03T05:58:52.363</time></trkpt><trkpt lat="55.8992450" lon="49.1946383"><time>2023-06-03T05:59:01.407</time></trkpt><trkpt lat="55.8991867" lon="49.1946500"><time>2023-06-03T05:59:06.277</time></trkpt><trkpt lat="55.8992283" lon="49.1947167"><time>2023-06-03T05:59:08.273</time></trkpt><trkpt lat="55.8992117" lon="49.1948300"><time>2023-06-03T05:59:09.300</time></trkpt><trkpt lat="55.8992533" lon="49.1948917"><time>2023-06-03T05:59:11.307</time></trkpt><trkpt lat="55.8993133" lon="49.1947967"><time>2023-06-03T05:59:12.313</time></trkpt><trkpt lat="55.8994400" lon="49.1948083"><time>2023-06-03T05:59:13.313</time></trkpt><trkpt lat="55.8994883" lon="49.1947567"><time>2023-06-03T05:59:14.313</time></trkpt><trkpt lat="55.8995333" lon="49.1947300"><time>2023-06-03T05:59:15.317</time></trkpt><trkpt lat="55.8995867" lon="49.1947817"><time>2023-06-03T05:59:16.313</time></trkpt><trkpt lat="55.8996417" lon="49.1947383"><time>2023-06-03T05:59:18.280</time></trkpt><trkpt lat="55.8996567" lon="49.1946350"><time>2023-06-03T05:59:21.313</time></trkpt><trkpt lat="55.8996633" lon="49.1944950"><time>2023-06-03T05:59:23.310</time></trkpt><trkpt lat="55.8996733" lon="49.1943983"><time>2023-06-03T05:59:24.313</time></trkpt><trkpt lat="55.8997017" lon="49.1942417"><time>2023-06-03T05:59:26.303</time></trkpt><trkpt lat="55.8997600" lon="49.1941400"><time>2023-06-03T05:59:28.307</time></trkpt><trkpt lat="55.8998233" lon="49.1940617"><time>2023-06-03T05:59:30.310</time></trkpt><trkpt lat="55.8998783" lon="49.1939883"><time>2023-06-03T05:59:32.303</time></trkpt><trkpt lat="55.8999217" lon="49.1938700"><time>2023-06-03T05:59:34.317</time></trkpt><trkpt lat="55.8999817" lon="49.1938133"><time>2023-06-03T05:59:36.313</time></trkpt><trkpt lat="55.9000533" lon="49.1936283"><time>2023-06-03T05:59:38.317</time></trkpt><trkpt lat="55.9000833" lon="49.1934867"><time>2023-06-03T05:59:39.313</time></trkpt><trkpt lat="55.9000967" lon="49.1933433"><time>2023-06-03T05:59:40.320</time></trkpt><trkpt lat="55.9001100" lon="49.1932433"><time>2023-06-03T05:59:41.323</time></trkpt><trkpt lat="55.9001200" lon="49.1931617"><time>2023-06-03T05:59:42.320</time></trkpt><trkpt lat="55.9001317" lon="49.1930183"><time>2023-06-03T05:59:44.323</time></trkpt><trkpt lat="55.9001417" lon="49.1929167"><time>2023-06-03T05:59:46.323</time></trkpt><trkpt lat="55.9001433" lon="49.1928250"><time>2023-06-03T05:59:48.320</time></trkpt><trkpt lat="55.9001183" lon="49.1927567"><time>2023-06-03T05:59:54.323</time></trkpt><trkpt lat="55.9000883" lon="49.1928467"><time>2023-06-03T05:59:59.323</time></trkpt><trkpt lat="55.9000133" lon="49.1928733"><time>2023-06-03T06:00:01.317</time></trkpt><trkpt lat="55.8999550" lon="49.1929033"><time>2023-06-03T06:00:03.317</time></trkpt><trkpt lat="55.8998883" lon="49.1929567"><time>2023-06-03T06:00:05.320</time></trkpt><trkpt lat="55.8998367" lon="49.1930133"><time>2023-06-03T06:00:07.323</time></trkpt><trkpt lat="55.8997900" lon="49.1930583"><time>2023-06-03T06:00:08.320</time></trkpt><trkpt lat="55.8997500" lon="49.1931000"><time>2023-06-03T06:00:09.320</time></trkpt><trkpt lat="55.8997033" lon="49.1931417"><time>2023-06-03T06:00:10.320</time></trkpt><trkpt lat="55.8996617" lon="49.1931800"><time>2023-06-03T06:00:11.323</time></trkpt><trkpt lat="55.8995867" lon="49.1932133"><time>2023-06-03T06:00:13.320</time></trkpt><trkpt lat="55.8995183" lon="49.1931600"><time>2023-06-03T06:00:15.317</time></trkpt><trkpt lat="55.8994750" lon="49.1930883"><time>2023-06-03T06:00:17.320</time></trkpt><trkpt lat="55.8994417" lon="49.1930117"><time>2023-06-03T06:00:18.320</time></trkpt><trkpt lat="55.8994250" lon="49.1929317"><time>2023-06-03T06:00:19.320</time></trkpt><trkpt lat="55.8994367" lon="49.1927917"><time>2023-06-03T06:00:21.317</time></trkpt><trkpt lat="55.8994750" lon="49.1926533"><time>2023-06-03T06:00:23.320</time></trkpt><trkpt lat="55.8994950" lon="49.1925800"><time>2023-06-03T06:00:24.307</time></trkpt><trkpt lat="55.8995250" lon="49.1925183"><time>2023-06-03T06:00:25.303</time></trkpt><trkpt lat="55.8995483" lon="49.1924333"><time>2023-06-03T06:00:26.320</time></trkpt><trkpt lat="55.8995667" lon="49.1923600"><time>2023-06-03T06:00:27.313</time></trkpt><trkpt lat="55.8996100" lon="49.1922517"><time>2023-06-03T06:00:29.317</time></trkpt><trkpt lat="55.8996483" lon="49.1921683"><time>2023-06-03T06:00:31.320</time></trkpt><trkpt lat="55.8996800" lon="49.1920517"><time>2023-06-03T06:00:33.317</time></trkpt><trkpt lat="55.8997133" lon="49.1919167"><time>2023-06-03T06:00:35.300</time></trkpt><trkpt lat="55.8997467" lon="49.1917700"><time>2023-06-03T06:00:37.317</time></trkpt><trkpt lat="55.8997650" lon="49.1916883"><time>2023-06-03T06:00:38.317</time></trkpt><trkpt lat="55.8997833" lon="49.1915950"><time>2023-06-03T06:00:39.323</time></trkpt><trkpt lat="55.8998000" lon="49.1915067"><time>2023-06-03T06:00:40.320</time></trkpt><trkpt lat="55.8998150" lon="49.1914283"><time>2023-06-03T06:00:41.323</time></trkpt><trkpt lat="55.8998317" lon="49.1913333"><time>2023-06-03T06:00:42.323</time></trkpt><trkpt lat="55.8998483" lon="49.1912383"><time>2023-06-03T06:00:43.320</time></trkpt><trkpt lat="55.8998700" lon="49.1911450"><time>2023-06-03T06:00:44.317</time></trkpt><trkpt lat="55.8998950" lon="49.1910550"><time>2023-06-03T06:00:45.317</time></trkpt><trkpt lat="55.8999300" lon="49.1909667"><time>2023-06-03T06:00:46.317</time></trkpt><trkpt lat="55.8999717" lon="49.1908917"><time>2023-06-03T06:00:47.293</time></trkpt><trkpt lat="55.9000167" lon="49.1908250"><time>2023-06-03T06:00:48.313</time></trkpt><trkpt lat="55.9000667" lon="49.1907717"><time>2023-06-03T06:00:49.323</time></trkpt><trkpt lat="55.9001200" lon="49.1907167"><time>2023-06-03T06:00:50.323</time></trkpt><trkpt lat="55.9001650" lon="49.1906567"><time>2023-06-03T06:00:51.323</time></trkpt><trkpt lat="55.9002050" lon="49.1905900"><time>2023-06-03T06:00:52.323</time></trkpt><trkpt lat="55.9002400" lon="49.1905150"><time>2023-06-03T06:00:53.323</time></trkpt><trkpt lat="55.9002700" lon="49.1904283"><time>2023-06-03T06:00:54.317</time></trkpt><trkpt lat="55.9002917" lon="49.1903433"><time>2023-06-03T06:00:55.323</time></trkpt><trkpt lat="55.9003150" lon="49.1902633"><time>2023-06-03T06:00:56.320</time></trkpt><trkpt lat="55.9003383" lon="49.1901833"><time>2023-06-03T06:00:57.323</time></trkpt><trkpt lat="55.9003633" lon="49.1901133"><time>2023-06-03T06:00:58.320</time></trkpt><trkpt lat="55.9003850" lon="49.1900383"><time>2023-06-03T06:00:59.310</time></trkpt><trkpt lat="55.9004100" lon="49.1899617"><time>2023-06-03T06:01:00.323</time></trkpt><trkpt lat="55.9004333" lon="49.1898867"><time>2023-06-03T06:01:01.317</time></trkpt><trkpt lat="55.9004550" lon="49.1898100"><time>2023-06-03T06:01:02.317</time></trkpt><trkpt lat="55.9004767" lon="49.1897350"><time>2023-06-03T06:01:03.310</time></trkpt><trkpt lat="55.9005017" lon="49.1896633"><time>2023-06-03T06:01:04.320</time></trkpt><trkpt lat="55.9005500" lon="49.1895417"><time>2023-06-03T06:01:06.323</time></trkpt><trkpt lat="55.9006200" lon="49.1894350"><time>2023-06-03T06:01:08.323</time></trkpt><trkpt lat="55.9006900" lon="49.1893650"><time>2023-06-03T06:01:10.323</time></trkpt><trkpt lat="55.9007517" lon="49.1893017"><time>2023-06-03T06:01:12.323</time></trkpt><trkpt lat="55.9008000" lon="49.1892067"><time>2023-06-03T06:01:14.320</time></trkpt><trkpt lat="55.9008400" lon="49.1890950"><time>2023-06-03T06:01:16.323</time></trkpt><trkpt lat="55.9008783" lon="49.1889617"><time>2023-06-03T06:01:18.320</time></trkpt><trkpt lat="55.9009100" lon="49.1888117"><time>2023-06-03T06:01:20.323</time></trkpt><trkpt lat="55.9009217" lon="49.1887317"><time>2023-06-03T06:01:21.320</time></trkpt><trkpt lat="55.9009550" lon="49.1885900"><time>2023-06-03T06:01:23.323</time></trkpt><trkpt lat="55.9010000" lon="49.1884417"><time>2023-06-03T06:01:25.323</time></trkpt><trkpt lat="55.9010267" lon="49.1883650"><time>2023-06-03T06:01:26.323</time></trkpt><trkpt lat="55.9010550" lon="49.1882917"><time>2023-06-03T06:01:27.320</time></trkpt><trkpt lat="55.9010900" lon="49.1882300"><time>2023-06-03T06:01:28.323</time></trkpt><trkpt lat="55.9011283" lon="49.1881633"><time>2023-06-03T06:01:29.323</time></trkpt><trkpt lat="55.9011650" lon="49.1881083"><time>2023-06-03T06:01:30.327</time></trkpt><trkpt lat="55.9011983" lon="49.1880333"><time>2023-06-03T06:01:31.323</time></trkpt><trkpt lat="55.9012267" lon="49.1879583"><time>2023-06-03T06:01:32.320</time></trkpt><trkpt lat="55.9012533" lon="49.1878767"><time>2023-06-03T06:01:33.320</time></trkpt><trkpt lat="55.9012800" lon="49.1877967"><time>2023-06-03T06:01:34.320</time></trkpt><trkpt lat="55.9013050" lon="49.1876550"><time>2023-06-03T06:01:36.323</time></trkpt><trkpt lat="55.9013100" lon="49.1875717"><time>2023-06-03T06:01:37.320</time></trkpt><trkpt lat="55.9013317" lon="49.1874400"><time>2023-06-03T06:01:39.323</time></trkpt><trkpt lat="55.9013683" lon="49.1873267"><time>2023-06-03T06:01:41.323</time></trkpt><trkpt lat="55.9014400" lon="49.1872433"><time>2023-06-03T06:01:43.320</time></trkpt><trkpt lat="55.9015200" lon="49.1871767"><time>2023-06-03T06:01:45.320</time></trkpt><trkpt lat="55.9015800" lon="49.1871150"><time>2023-06-03T06:01:47.320</time></trkpt><trkpt lat="55.9016067" lon="49.1870467"><time>2023-06-03T06:01:49.320</time></trkpt><trkpt lat="55.9015583" lon="49.1870250"><time>2023-06-03T06:02:06.323</time></trkpt><trkpt lat="55.9015100" lon="49.1869933"><time>2023-06-03T06:02:32.283</time></trkpt><trkpt lat="55.9014600" lon="49.1869150"><time>2023-06-03T06:02:35.320</time></trkpt><trkpt lat="55.9014217" lon="49.1868417"><time>2023-06-03T06:02:37.307</time></trkpt><trkpt lat="55.9013617" lon="49.1867617"><time>2023-06-03T06:02:39.323</time></trkpt><trkpt lat="55.9013067" lon="49.1866817"><time>2023-06-03T06:02:41.323</time></trkpt><trkpt lat="55.9012550" lon="49.1866100"><time>2023-06-03T06:02:43.327</time></trkpt><trkpt lat="55.9012017" lon="49.1865450"><time>2023-06-03T06:02:45.323</time></trkpt><trkpt lat="55.9011500" lon="49.1864650"><time>2023-06-03T06:02:47.327</time></trkpt><trkpt lat="55.9010917" lon="49.1863850"><time>2023-06-03T06:02:49.323</time></trkpt><trkpt lat="55.9010283" lon="49.1863033"><time>2023-06-03T06:02:51.320</time></trkpt><trkpt lat="55.9009633" lon="49.1862150"><time>2023-06-03T06:02:53.317</time></trkpt><trkpt lat="55.9009017" lon="49.1861417"><time>2023-06-03T06:02:55.320</time></trkpt><trkpt lat="55.9008333" lon="49.1860633"><time>2023-06-03T06:02:57.320</time></trkpt><trkpt lat="55.9007550" lon="49.1859867"><time>2023-06-03T06:02:59.310</time></trkpt><trkpt lat="55.9006883" lon="49.1859183"><time>2023-06-03T06:03:01.320</time></trkpt><trkpt lat="55.9006250" lon="49.1858517"><time>2023-06-03T06:03:03.320</time></trkpt><trkpt lat="55.9005450" lon="49.1857683"><time>2023-06-03T06:03:05.323</time></trkpt><trkpt lat="55.9005050" lon="49.1857283"><time>2023-06-03T06:03:06.323</time></trkpt><trkpt lat="55.9004350" lon="49.1856567"><time>2023-06-03T06:03:08.323</time></trkpt><trkpt lat="55.9003717" lon="49.1855967"><time>2023-06-03T06:03:10.323</time></trkpt><trkpt lat="55.9002900" lon="49.1855083"><time>2023-06-03T06:03:12.327</time></trkpt><trkpt lat="55.9002167" lon="49.1854300"><time>2023-06-03T06:03:14.320</time></trkpt><trkpt lat="55.9001533" lon="49.1853650"><time>2023-06-03T06:03:16.320</time></trkpt><trkpt lat="55.9001000" lon="49.1853133"><time>2023-06-03T06:03:18.323</time></trkpt><trkpt lat="55.9000367" lon="49.1852417"><time>2023-06-03T06:03:20.317</time></trkpt><trkpt lat="55.8999883" lon="49.1851817"><time>2023-06-03T06:03:22.303</time></trkpt><trkpt lat="55.8999267" lon="49.1851100"><time>2023-06-03T06:03:24.320</time></trkpt><trkpt lat="55.8998617" lon="49.1850367"><time>2023-06-03T06:03:26.317</time></trkpt><trkpt lat="55.8997883" lon="49.1849617"><time>2023-06-03T06:03:28.320</time></trkpt><trkpt lat="55.8997467" lon="49.1849217"><time>2023-06-03T06:03:29.320</time></trkpt><trkpt lat="55.8996717" lon="49.1848400"><time>2023-06-03T06:03:31.310</time></trkpt><trkpt lat="55.8996050" lon="49.1847517"><time>2023-06-03T06:03:33.320</time></trkpt><trkpt lat="55.8995633" lon="49.1846750"><time>2023-06-03T06:03:35.320</time></trkpt><trkpt lat="55.8995367" lon="49.1846050"><time>2023-06-03T06:03:37.293</time></trkpt><trkpt lat="55.8995017" lon="49.1845483"><time>2023-06-03T06:03:41.323</time></trkpt><trkpt lat="55.8994717" lon="49.1844517"><time>2023-06-03T06:03:44.323</time></trkpt><trkpt lat="55.8994567" lon="49.1843167"><time>2023-06-03T06:03:46.323</time></trkpt><trkpt lat="55.8994550" lon="49.1841683"><time>2023-06-03T06:03:48.323</time></trkpt><trkpt lat="55.8994550" lon="49.1840833"><time>2023-06-03T06:03:49.323</time></trkpt><trkpt lat="55.8994550" lon="49.1840017"><time>2023-06-03T06:03:50.323</time></trkpt><trkpt lat="55.8994833" lon="49.1838800"><time>2023-06-03T06:03:52.317</time></trkpt><trkpt lat="55.8995067" lon="49.1837450"><time>2023-06-03T06:03:54.327</time></trkpt><trkpt lat="55.8995267" lon="49.1836483"><time>2023-06-03T06:03:56.323</time></trkpt><trkpt lat="55.8995500" lon="49.1835500"><time>2023-06-03T06:03:58.323</time></trkpt><trkpt lat="55.8995683" lon="49.1834200"><time>2023-06-03T06:04:00.310</time></trkpt><trkpt lat="55.8995583" lon="49.1833267"><time>2023-06-03T06:04:01.323</time></trkpt><trkpt lat="55.8995500" lon="49.1831850"><time>2023-06-03T06:04:03.323</time></trkpt><trkpt lat="55.8995467" lon="49.1830517"><time>2023-06-03T06:04:05.323</time></trkpt><trkpt lat="55.8995483" lon="49.1829417"><time>2023-06-03T06:04:07.327</time></trkpt><trkpt lat="55.8995500" lon="49.1828050"><time>2023-06-03T06:04:09.327</time></trkpt><trkpt lat="55.8995567" lon="49.1826783"><time>2023-06-03T06:04:11.323</time></trkpt><trkpt lat="55.8995617" lon="49.1825683"><time>2023-06-03T06:04:13.323</time></trkpt><trkpt lat="55.8995717" lon="49.1824517"><time>2023-06-03T06:04:15.323</time></trkpt><trkpt lat="55.8995800" lon="49.1823300"><time>2023-06-03T06:04:17.323</time></trkpt><trkpt lat="55.8995883" lon="49.1821950"><time>2023-06-03T06:04:19.323</time></trkpt><trkpt lat="55.8995883" lon="49.1820683"><time>2023-06-03T06:04:21.323</time></trkpt><trkpt lat="55.8995783" lon="49.1819350"><time>2023-06-03T06:04:23.323</time></trkpt><trkpt lat="55.8995517" lon="49.1818100"><time>2023-06-03T06:04:25.327</time></trkpt><trkpt lat="55.8995117" lon="49.1816850"><time>2023-06-03T06:04:27.310</time></trkpt><trkpt lat="55.8994550" lon="49.1815817"><time>2023-06-03T06:04:29.317</time></trkpt><trkpt lat="55.8993967" lon="49.1814983"><time>2023-06-03T06:04:31.327</time></trkpt><trkpt lat="55.8993400" lon="49.1814033"><time>2023-06-03T06:04:33.323</time></trkpt><trkpt lat="55.8993067" lon="49.1813467"><time>2023-06-03T06:04:34.327</time></trkpt><trkpt lat="55.8992650" lon="49.1812400"><time>2023-06-03T06:04:36.317</time></trkpt><trkpt lat="55.8992350" lon="49.1811150"><time>2023-06-03T06:04:38.320</time></trkpt><trkpt lat="55.8991950" lon="49.1809833"><time>2023-06-03T06:04:40.327</time></trkpt><trkpt lat="55.8991800" lon="49.1808983"><time>2023-06-03T06:04:42.327</time></trkpt><trkpt lat="55.8991383" lon="49.1808517"><time>2023-06-03T06:04:57.323</time></trkpt><trkpt lat="55.8990733" lon="49.1808767"><time>2023-06-03T06:05:00.303</time></trkpt><trkpt lat="55.8990083" lon="49.1808967"><time>2023-06-03T06:05:02.323</time></trkpt><trkpt lat="55.8989367" lon="49.1809467"><time>2023-06-03T06:05:04.323</time></trkpt><trkpt lat="55.8988900" lon="49.1809550"><time>2023-06-03T06:05:05.327</time></trkpt><trkpt lat="55.8988433" lon="49.1809950"><time>2023-06-03T06:05:06.323</time></trkpt><trkpt lat="55.8987983" lon="49.1810383"><time>2023-06-03T06:05:07.323</time></trkpt><trkpt lat="55.8987217" lon="49.1811033"><time>2023-06-03T06:05:09.323</time></trkpt><trkpt lat="55.8986383" lon="49.1811267"><time>2023-06-03T06:05:11.323</time></trkpt><trkpt lat="55.8985650" lon="49.1811350"><time>2023-06-03T06:05:13.323</time></trkpt><trkpt lat="55.8985067" lon="49.1811383"><time>2023-06-03T06:05:15.323</time></trkpt><trkpt lat="55.8984417" lon="49.1811467"><time>2023-06-03T06:05:17.343</time></trkpt><trkpt lat="55.8984400" lon="49.1811467"><time>2023-06-03T06:05:18.310</time></trkpt><trkpt lat="55.8983850" lon="49.1811167"><time>2023-06-03T06:05:20.297</time></trkpt><trkpt lat="55.8983100" lon="49.1811383"><time>2023-06-03T06:05:20.810</time></trkpt><trkpt lat="55.8982117" lon="49.1812033"><time>2023-06-03T06:05:22.307</time></trkpt><trkpt lat="55.8981617" lon="49.1812050"><time>2023-06-03T06:05:23.310</time></trkpt><trkpt lat="55.8980917" lon="49.1811533"><time>2023-06-03T06:05:25.310</time></trkpt><trkpt lat="55.8980167" lon="49.1811150"><time>2023-06-03T06:05:27.313</time></trkpt><trkpt lat="55.8979250" lon="49.1810717"><time>2023-06-03T06:05:29.307</time></trkpt><trkpt lat="55.8978700" lon="49.1810483"><time>2023-06-03T06:05:30.307</time></trkpt><trkpt lat="55.8977900" lon="49.1810200"><time>2023-06-03T06:05:32.307</time></trkpt><trkpt lat="55.8977317" lon="49.1809533"><time>2023-06-03T06:05:34.310</time></trkpt><trkpt lat="55.8976850" lon="49.1808850"><time>2023-06-03T06:05:36.317</time></trkpt><trkpt lat="55.8976283" lon="49.1808083"><time>2023-06-03T06:05:38.303</time></trkpt><trkpt lat="55.8975767" lon="49.1807550"><time>2023-06-03T06:05:40.330</time></trkpt><trkpt lat="55.8975767" lon="49.1807550"><time>2023-06-03T06:05:41.310</time></trkpt><trkpt lat="55.8975400" lon="49.1807017"><time>2023-06-03T06:05:43.313</time></trkpt><trkpt lat="55.8974833" lon="49.1806083"><time>2023-06-03T06:05:45.317</time></trkpt><trkpt lat="55.8974167" lon="49.1805217"><time>2023-06-03T06:05:47.300</time></trkpt><trkpt lat="55.8973300" lon="49.1804667"><time>2023-06-03T06:05:49.313</time></trkpt><trkpt lat="55.8972750" lon="49.1804533"><time>2023-06-03T06:05:50.307</time></trkpt><trkpt lat="55.8972267" lon="49.1804600"><time>2023-06-03T06:05:51.313</time></trkpt><trkpt lat="55.8971517" lon="49.1804850"><time>2023-06-03T06:05:53.313</time></trkpt><trkpt lat="55.8970800" lon="49.1805183"><time>2023-06-03T06:05:55.330</time></trkpt><trkpt lat="55.8970767" lon="49.1805183"><time>2023-06-03T06:05:56.810</time></trkpt><trkpt lat="55.8970300" lon="49.1805917"><time>2023-06-03T06:05:58.810</time></trkpt><trkpt lat="55.8969950" lon="49.1806483"><time>2023-06-03T06:05:59.307</time></trkpt><trkpt lat="55.8969567" lon="49.1806950"><time>2023-06-03T06:06:00.313</time></trkpt><trkpt lat="55.8968967" lon="49.1807683"><time>2023-06-03T06:06:02.310</time></trkpt><trkpt lat="55.8968467" lon="49.1808000"><time>2023-06-03T06:06:04.313</time></trkpt><trkpt lat="55.8967900" lon="49.1808183"><time>2023-06-03T06:06:06.337</time></trkpt><trkpt lat="55.8967900" lon="49.1808183"><time>2023-06-03T06:06:06.420</time></trkpt><trkpt lat="55.8967450" lon="49.1808367"><time>2023-06-03T06:06:11.327</time></trkpt><trkpt lat="55.8967450" lon="49.1808350"><time>2023-06-03T06:06:12.810</time></trkpt><trkpt lat="55.8967983" lon="49.1808133"><time>2023-06-03T06:06:15.317</time></trkpt><trkpt lat="55.8968483" lon="49.1808150"><time>2023-06-03T06:06:18.310</time></trkpt><trkpt lat="55.8968967" lon="49.1807783"><time>2023-06-03T06:06:22.317</time></trkpt><trkpt lat="55.8969433" lon="49.1807350"><time>2023-06-03T06:06:26.313</time></trkpt><trkpt lat="55.8969850" lon="49.1806567"><time>2023-06-03T06:06:28.310</time></trkpt><trkpt lat="55.8970283" lon="49.1805933"><time>2023-06-03T06:06:30.313</time></trkpt><trkpt lat="55.8970867" lon="49.1805267"><time>2023-06-03T06:06:32.313</time></trkpt><trkpt lat="55.8971433" lon="49.1804650"><time>2023-06-03T06:06:34.310</time></trkpt><trkpt lat="55.8971983" lon="49.1804000"><time>2023-06-03T06:06:36.313</time></trkpt><trkpt lat="55.8972533" lon="49.1803283"><time>2023-06-03T06:06:38.313</time></trkpt><trkpt lat="55.8973150" lon="49.1802583"><time>2023-06-03T06:06:40.317</time></trkpt><trkpt lat="55.8973750" lon="49.1801900"><time>2023-06-03T06:06:42.320</time></trkpt><trkpt lat="55.8974233" lon="49.1801233"><time>2023-06-03T06:06:44.317</time></trkpt><trkpt lat="55.8974600" lon="49.1800667"><time>2023-06-03T06:06:46.320</time></trkpt><trkpt lat="55.8974900" lon="49.1799850"><time>2023-06-03T06:06:54.320</time></trkpt><trkpt lat="55.8975350" lon="49.1799217"><time>2023-06-03T06:06:56.320</time></trkpt><trkpt lat="55.8975883" lon="49.1798600"><time>2023-06-03T06:06:58.323</time></trkpt><trkpt lat="55.8976350" lon="49.1797817"><time>2023-06-03T06:07:00.320</time></trkpt><trkpt lat="55.8976700" lon="49.1796800"><time>2023-06-03T06:07:02.317</time></trkpt><trkpt lat="55.8977100" lon="49.1795817"><time>2023-06-03T06:07:04.283</time></trkpt><trkpt lat="55.8977600" lon="49.1794967"><time>2023-06-03T06:07:06.323</time></trkpt><trkpt lat="55.8978033" lon="49.1793867"><time>2023-06-03T06:07:08.323</time></trkpt><trkpt lat="55.8978517" lon="49.1792800"><time>2023-06-03T06:07:10.323</time></trkpt><trkpt lat="55.8979000" lon="49.1791783"><time>2023-06-03T06:07:12.323</time></trkpt><trkpt lat="55.8979467" lon="49.1790850"><time>2023-06-03T06:07:14.323</time></trkpt><trkpt lat="55.8979933" lon="49.1789967"><time>2023-06-03T06:07:16.323</time></trkpt><trkpt lat="55.8980050" lon="49.1789000"><time>2023-06-03T06:07:19.313</time></trkpt><trkpt lat="55.8979883" lon="49.1788050"><time>2023-06-03T06:07:23.317</time></trkpt><trkpt lat="55.8979950" lon="49.1787183"><time>2023-06-03T06:07:26.320</time></trkpt><trkpt lat="55.8980117" lon="49.1786400"><time>2023-06-03T06:07:29.320</time></trkpt><trkpt lat="55.8980317" lon="49.1785550"><time>2023-06-03T06:07:33.323</time></trkpt><trkpt lat="55.8980483" lon="49.1784767"><time>2023-06-03T06:07:37.323</time></trkpt><trkpt lat="55.8980600" lon="49.1783967"><time>2023-06-03T06:07:41.317</time></trkpt><trkpt lat="55.8980950" lon="49.1783400"><time>2023-06-03T06:07:44.317</time></trkpt><trkpt lat="55.8981250" lon="49.1782717"><time>2023-06-03T06:07:49.310</time></trkpt><trkpt lat="55.8981467" lon="49.1781917"><time>2023-06-03T06:07:58.313</time></trkpt><trkpt lat="55.8981717" lon="49.1781050"><time>2023-06-03T06:08:03.317</time></trkpt><trkpt lat="55.8981800" lon="49.1780217"><time>2023-06-03T06:08:08.300</time></trkpt><trkpt lat="55.8982217" lon="49.1779383"><time>2023-06-03T06:08:13.300</time></trkpt><trkpt lat="55.8982583" lon="49.1778733"><time>2023-06-03T06:08:18.317</time></trkpt><trkpt lat="55.8982933" lon="49.1778183"><time>2023-06-03T06:08:23.317</time></trkpt><trkpt lat="55.8983417" lon="49.1777750"><time>2023-06-03T06:08:28.320</time></trkpt><trkpt lat="55.8983833" lon="49.1777167"><time>2023-06-03T06:08:32.320</time></trkpt><trkpt lat="55.8984217" lon="49.1776733"><time>2023-06-03T06:08:36.317</time></trkpt><trkpt lat="55.8984617" lon="49.1776133"><time>2023-06-03T06:08:42.323</time></trkpt><trkpt lat="55.8985033" lon="49.1775633"><time>2023-06-03T06:08:47.317</time></trkpt><trkpt lat="55.8985383" lon="49.1774950"><time>2023-06-03T06:08:51.320</time></trkpt><trkpt lat="55.8985767" lon="49.1774467"><time>2023-06-03T06:08:55.317</time></trkpt><trkpt lat="55.8986150" lon="49.1773900"><time>2023-06-03T06:08:59.320</time></trkpt><trkpt lat="55.8986667" lon="49.1773600"><time>2023-06-03T06:09:03.317</time></trkpt><trkpt lat="55.8987033" lon="49.1773100"><time>2023-06-03T06:09:07.323</time></trkpt><trkpt lat="55.8987450" lon="49.1772733"><time>2023-06-03T06:09:11.323</time></trkpt><trkpt lat="55.8987683" lon="49.1772050"><time>2023-06-03T06:09:21.320</time></trkpt><trkpt lat="55.8987583" lon="49.1771083"><time>2023-06-03T06:09:24.297</time></trkpt><trkpt lat="55.8987533" lon="49.1770117"><time>2023-06-03T06:09:26.320</time></trkpt><trkpt lat="55.8987417" lon="49.1768850"><time>2023-06-03T06:09:28.317</time></trkpt><trkpt lat="55.8987183" lon="49.1767500"><time>2023-06-03T06:09:30.317</time></trkpt><trkpt lat="55.8986900" lon="49.1766133"><time>2023-06-03T06:09:32.313</time></trkpt><trkpt lat="55.8986567" lon="49.1765033"><time>2023-06-03T06:09:34.323</time></trkpt><trkpt lat="55.8986250" lon="49.1763750"><time>2023-06-03T06:09:36.323</time></trkpt><trkpt lat="55.8985950" lon="49.1762417"><time>2023-06-03T06:09:38.320</time></trkpt><trkpt lat="55.8985667" lon="49.1761150"><time>2023-06-03T06:09:40.320</time></trkpt><trkpt lat="55.8985433" lon="49.1759883"><time>2023-06-03T06:09:42.320</time></trkpt><trkpt lat="55.8985217" lon="49.1758550"><time>2023-06-03T06:09:44.320</time></trkpt><trkpt lat="55.8985017" lon="49.1757217"><time>2023-06-03T06:09:46.320</time></trkpt><trkpt lat="55.8984733" lon="49.1756167"><time>2023-06-03T06:09:48.323</time></trkpt><trkpt lat="55.8984383" lon="49.1755100"><time>2023-06-03T06:09:50.323</time></trkpt><trkpt lat="55.8983900" lon="49.1754117"><time>2023-06-03T06:09:52.310</time></trkpt><trkpt lat="55.8983517" lon="49.1753350"><time>2023-06-03T06:09:54.317</time></trkpt><trkpt lat="55.8983067" lon="49.1752417"><time>2023-06-03T06:09:56.317</time></trkpt><trkpt lat="55.8982583" lon="49.1751100"><time>2023-06-03T06:09:58.317</time></trkpt><trkpt lat="55.8982117" lon="49.1749783"><time>2023-06-03T06:10:00.303</time></trkpt><trkpt lat="55.8981867" lon="49.1749033"><time>2023-06-03T06:10:01.317</time></trkpt><trkpt lat="55.8981717" lon="49.1747583"><time>2023-06-03T06:10:03.313</time></trkpt><trkpt lat="55.8981650" lon="49.1746767"><time>2023-06-03T06:10:04.307</time></trkpt><trkpt lat="55.8981517" lon="49.1745367"><time>2023-06-03T06:10:06.317</time></trkpt><trkpt lat="55.8981333" lon="49.1743933"><time>2023-06-03T06:10:08.320</time></trkpt><trkpt lat="55.8981133" lon="49.1742417"><time>2023-06-03T06:10:10.317</time></trkpt><trkpt lat="55.8981050" lon="49.1741583"><time>2023-06-03T06:10:11.317</time></trkpt><trkpt lat="55.8980950" lon="49.1740733"><time>2023-06-03T06:10:12.320</time></trkpt><trkpt lat="55.8980817" lon="49.1739917"><time>2023-06-03T06:10:13.320</time></trkpt><trkpt lat="55.8980650" lon="49.1739083"><time>2023-06-03T06:10:14.317</time></trkpt><trkpt lat="55.8980483" lon="49.1738200"><time>2023-06-03T06:10:15.320</time></trkpt><trkpt lat="55.8980317" lon="49.1737317"><time>2023-06-03T06:10:16.320</time></trkpt><trkpt lat="55.8980167" lon="49.1736417"><time>2023-06-03T06:10:17.317</time></trkpt><trkpt lat="55.8980017" lon="49.1735517"><time>2023-06-03T06:10:18.310</time></trkpt><trkpt lat="55.8979867" lon="49.1734567"><time>2023-06-03T06:10:19.307</time></trkpt><trkpt lat="55.8979700" lon="49.1733600"><time>2023-06-03T06:10:20.317</time></trkpt><trkpt lat="55.8979550" lon="49.1732667"><time>2023-06-03T06:10:21.317</time></trkpt><trkpt lat="55.8979400" lon="49.1731683"><time>2023-06-03T06:10:22.317</time></trkpt><trkpt lat="55.8979217" lon="49.1730717"><time>2023-06-03T06:10:23.320</time></trkpt><trkpt lat="55.8979050" lon="49.1729733"><time>2023-06-03T06:10:24.317</time></trkpt><trkpt lat="55.8978917" lon="49.1728733"><time>2023-06-03T06:10:25.310</time></trkpt><trkpt lat="55.8978767" lon="49.1727767"><time>2023-06-03T06:10:26.313</time></trkpt><trkpt lat="55.8978617" lon="49.1726800"><time>2023-06-03T06:10:27.317</time></trkpt><trkpt lat="55.8978450" lon="49.1725850"><time>2023-06-03T06:10:28.317</time></trkpt><trkpt lat="55.8978267" lon="49.1724917"><time>2023-06-03T06:10:29.317</time></trkpt><trkpt lat="55.8978133" lon="49.1723983"><time>2023-06-03T06:10:30.320</time></trkpt><trkpt lat="55.8977983" lon="49.1723000"><time>2023-06-03T06:10:31.320</time></trkpt><trkpt lat="55.8977817" lon="49.1722050"><time>2023-06-03T06:10:32.320</time></trkpt><trkpt lat="55.8977683" lon="49.1721050"><time>2023-06-03T06:10:33.320</time></trkpt><trkpt lat="55.8977533" lon="49.1720133"><time>2023-06-03T06:10:34.297</time></trkpt><trkpt lat="55.8977383" lon="49.1719183"><time>2023-06-03T06:10:35.287</time></trkpt><trkpt lat="55.8977200" lon="49.1718200"><time>2023-06-03T06:10:36.317</time></trkpt><trkpt lat="55.8977033" lon="49.1717200"><time>2023-06-03T06:10:37.320</time></trkpt><trkpt lat="55.8976850" lon="49.1716250"><time>2023-06-03T06:10:38.323</time></trkpt><trkpt lat="55.8976667" lon="49.1715300"><time>2023-06-03T06:10:39.323</time></trkpt><trkpt lat="55.8976550" lon="49.1714450"><time>2023-06-03T06:10:40.320</time></trkpt><trkpt lat="55.8976350" lon="49.1713433"><time>2023-06-03T06:10:41.320</time></trkpt><trkpt lat="55.8976167" lon="49.1712467"><time>2023-06-03T06:10:42.320</time></trkpt><trkpt lat="55.8975967" lon="49.1711500"><time>2023-06-03T06:10:43.323</time></trkpt><trkpt lat="55.8975783" lon="49.1710517"><time>2023-06-03T06:10:44.317</time></trkpt><trkpt lat="55.8975650" lon="49.1709617"><time>2023-06-03T06:10:45.320</time></trkpt><trkpt lat="55.8975467" lon="49.1708633"><time>2023-06-03T06:10:46.317</time></trkpt><trkpt lat="55.8975267" lon="49.1707700"><time>2023-06-03T06:10:47.317</time></trkpt><trkpt lat="55.8975033" lon="49.1706667"><time>2023-06-03T06:10:48.323</time></trkpt><trkpt lat="55.8974817" lon="49.1705700"><time>2023-06-03T06:10:49.317</time></trkpt><trkpt lat="55.8974583" lon="49.1704600"><time>2023-06-03T06:10:50.320</time></trkpt><trkpt lat="55.8974433" lon="49.1703567"><time>2023-06-03T06:10:51.320</time></trkpt><trkpt lat="55.8974233" lon="49.1702533"><time>2023-06-03T06:10:52.300</time></trkpt><trkpt lat="55.8974050" lon="49.1701567"><time>2023-06-03T06:10:53.323</time></trkpt><trkpt lat="55.8973867" lon="49.1700567"><time>2023-06-03T06:10:54.317</time></trkpt><trkpt lat="55.8973700" lon="49.1699517"><time>2023-06-03T06:10:55.320</time></trkpt><trkpt lat="55.8973517" lon="49.1698483"><time>2023-06-03T06:10:56.323</time></trkpt><trkpt lat="55.8973350" lon="49.1697450"><time>2023-06-03T06:10:57.320</time></trkpt><trkpt lat="55.8973217" lon="49.1696383"><time>2023-06-03T06:10:58.320</time></trkpt><trkpt lat="55.8973083" lon="49.1695333"><time>2023-06-03T06:10:59.320</time></trkpt><trkpt lat="55.8972933" lon="49.1694317"><time>2023-06-03T06:11:00.317</time></trkpt><trkpt lat="55.8972767" lon="49.1693300"><time>2023-06-03T06:11:01.320</time></trkpt><trkpt lat="55.8972617" lon="49.1692333"><time>2023-06-03T06:11:02.320</time></trkpt><trkpt lat="55.8972450" lon="49.1691367"><time>2023-06-03T06:11:03.317</time></trkpt><trkpt lat="55.8972267" lon="49.1690350"><time>2023-06-03T06:11:04.317</time></trkpt><trkpt lat="55.8972100" lon="49.1689367"><time>2023-06-03T06:11:05.317</time></trkpt><trkpt lat="55.8971950" lon="49.1688417"><time>2023-06-03T06:11:06.320</time></trkpt><trkpt lat="55.8971750" lon="49.1687450"><time>2023-06-03T06:11:07.323</time></trkpt><trkpt lat="55.8971583" lon="49.1686533"><time>2023-06-03T06:11:08.320</time></trkpt><trkpt lat="55.8971383" lon="49.1685617"><time>2023-06-03T06:11:09.320</time></trkpt><trkpt lat="55.8971167" lon="49.1684683"><time>2023-06-03T06:11:10.320</time></trkpt><trkpt lat="55.8970917" lon="49.1683800"><time>2023-06-03T06:11:11.320</time></trkpt><trkpt lat="55.8970700" lon="49.1682950"><time>2023-06-03T06:11:12.323</time></trkpt><trkpt lat="55.8970467" lon="49.1682067"><time>2023-06-03T06:11:13.323</time></trkpt><trkpt lat="55.8970317" lon="49.1681200"><time>2023-06-03T06:11:14.320</time></trkpt><trkpt lat="55.8970150" lon="49.1680317"><time>2023-06-03T06:11:15.323</time></trkpt><trkpt lat="55.8970000" lon="49.1679433"><time>2023-06-03T06:11:16.323</time></trkpt><trkpt lat="55.8969867" lon="49.1678533"><time>2023-06-03T06:11:17.320</time></trkpt><trkpt lat="55.8969717" lon="49.1677667"><time>2023-06-03T06:11:18.320</time></trkpt><trkpt lat="55.8969583" lon="49.1676800"><time>2023-06-03T06:11:19.320</time></trkpt><trkpt lat="55.8969417" lon="49.1675900"><time>2023-06-03T06:11:20.300</time></trkpt><trkpt lat="55.8969283" lon="49.1675000"><time>2023-06-03T06:11:21.307</time></trkpt><trkpt lat="55.8969200" lon="49.1674167"><time>2023-06-03T06:11:22.317</time></trkpt><trkpt lat="55.8969033" lon="49.1673267"><time>2023-06-03T06:11:23.317</time></trkpt><trkpt lat="55.8968917" lon="49.1672300"><time>2023-06-03T06:11:24.320</time></trkpt><trkpt lat="55.8968783" lon="49.1671333"><time>2023-06-03T06:11:25.320</time></trkpt><trkpt lat="55.8968667" lon="49.1670400"><time>2023-06-03T06:11:26.323</time></trkpt><trkpt lat="55.8968533" lon="49.1669483"><time>2023-06-03T06:11:27.323</time></trkpt><trkpt lat="55.8968400" lon="49.1668517"><time>2023-06-03T06:11:28.320</time></trkpt><trkpt lat="55.8968250" lon="49.1667550"><time>2023-06-03T06:11:29.317</time></trkpt><trkpt lat="55.8968117" lon="49.1666583"><time>2023-06-03T06:11:30.317</time></trkpt><trkpt lat="55.8968000" lon="49.1665633"><time>2023-06-03T06:11:31.320</time></trkpt><trkpt lat="55.8967900" lon="49.1664683"><time>2023-06-03T06:11:32.320</time></trkpt><trkpt lat="55.8967850" lon="49.1663883"><time>2023-06-03T06:11:33.323</time></trkpt><trkpt lat="55.8967750" lon="49.1663017"><time>2023-06-03T06:11:34.320</time></trkpt><trkpt lat="55.8967667" lon="49.1662133"><time>2023-06-03T06:11:35.323</time></trkpt><trkpt lat="55.8967550" lon="49.1661250"><time>2023-06-03T06:11:36.323</time></trkpt><trkpt lat="55.8967433" lon="49.1660317"><time>2023-06-03T06:11:37.300</time></trkpt><trkpt lat="55.8967300" lon="49.1659383"><time>2023-06-03T06:11:38.317</time></trkpt><trkpt lat="55.8967167" lon="49.1658450"><time>2023-06-03T06:11:39.317</time></trkpt><trkpt lat="55.8967033" lon="49.1657500"><time>2023-06-03T06:11:40.317</time></trkpt><trkpt lat="55.8966883" lon="49.1656583"><time>2023-06-03T06:11:41.320</time></trkpt><trkpt lat="55.8966783" lon="49.1655717"><time>2023-06-03T06:11:42.317</time></trkpt><trkpt lat="55.8966700" lon="49.1654767"><time>2023-06-03T06:11:43.320</time></trkpt><trkpt lat="55.8966633" lon="49.1653817"><time>2023-06-03T06:11:44.320</time></trkpt><trkpt lat="55.8966533" lon="49.1652817"><time>2023-06-03T06:11:45.323</time></trkpt><trkpt lat="55.8966450" lon="49.1651817"><time>2023-06-03T06:11:46.320</time></trkpt><trkpt lat="55.8966383" lon="49.1650850"><time>2023-06-03T06:11:47.307</time></trkpt><trkpt lat="55.8966333" lon="49.1649883"><time>2023-06-03T06:11:48.323</time></trkpt><trkpt lat="55.8966300" lon="49.1648967"><time>2023-06-03T06:11:49.320</time></trkpt><trkpt lat="55.8966250" lon="49.1648033"><time>2023-06-03T06:11:50.323</time></trkpt><trkpt lat="55.8966200" lon="49.1647167"><time>2023-06-03T06:11:51.320</time></trkpt><trkpt lat="55.8966133" lon="49.1646200"><time>2023-06-03T06:11:52.317</time></trkpt><trkpt lat="55.8966067" lon="49.1645233"><time>2023-06-03T06:11:53.323</time></trkpt><trkpt lat="55.8966000" lon="49.1644250"><time>2023-06-03T06:11:54.320</time></trkpt><trkpt lat="55.8965933" lon="49.1643267"><time>2023-06-03T06:11:55.320</time></trkpt><trkpt lat="55.8965850" lon="49.1642250"><time>2023-06-03T06:11:56.320</time></trkpt><trkpt lat="55.8965750" lon="49.1641233"><time>2023-06-03T06:11:57.323</time></trkpt><trkpt lat="55.8965633" lon="49.1640283"><time>2023-06-03T06:11:58.320</time></trkpt><trkpt lat="55.8965567" lon="49.1639350"><time>2023-06-03T06:11:59.323</time></trkpt><trkpt lat="55.8965500" lon="49.1638417"><time>2023-06-03T06:12:00.327</time></trkpt><trkpt lat="55.8965467" lon="49.1637467"><time>2023-06-03T06:12:01.323</time></trkpt><trkpt lat="55.8965383" lon="49.1636483"><time>2023-06-03T06:12:02.323</time></trkpt><trkpt lat="55.8965300" lon="49.1635450"><time>2023-06-03T06:12:03.320</time></trkpt><trkpt lat="55.8965217" lon="49.1634417"><time>2023-06-03T06:12:04.320</time></trkpt><trkpt lat="55.8965133" lon="49.1633333"><time>2023-06-03T06:12:05.323</time></trkpt><trkpt lat="55.8965050" lon="49.1632250"><time>2023-06-03T06:12:06.320</time></trkpt><trkpt lat="55.8964967" lon="49.1631200"><time>2023-06-03T06:12:07.320</time></trkpt><trkpt lat="55.8964883" lon="49.1630133"><time>2023-06-03T06:12:08.320</time></trkpt><trkpt lat="55.8964750" lon="49.1629100"><time>2023-06-03T06:12:09.327</time></trkpt><trkpt lat="55.8964617" lon="49.1628050"><time>2023-06-03T06:12:10.317</time></trkpt><trkpt lat="55.8964467" lon="49.1626950"><time>2023-06-03T06:12:11.320</time></trkpt><trkpt lat="55.8964317" lon="49.1625917"><time>2023-06-03T06:12:12.317</time></trkpt><trkpt lat="55.8964167" lon="49.1624933"><time>2023-06-03T06:12:13.323</time></trkpt><trkpt lat="55.8964017" lon="49.1624017"><time>2023-06-03T06:12:14.320</time></trkpt><trkpt lat="55.8963867" lon="49.1623083"><time>2023-06-03T06:12:15.323</time></trkpt><trkpt lat="55.8963700" lon="49.1622150"><time>2023-06-03T06:12:16.317</time></trkpt><trkpt lat="55.8963567" lon="49.1621233"><time>2023-06-03T06:12:17.317</time></trkpt><trkpt lat="55.8963417" lon="49.1620267"><time>2023-06-03T06:12:18.317</time></trkpt><trkpt lat="55.8963250" lon="49.1619333"><time>2023-06-03T06:12:19.317</time></trkpt><trkpt lat="55.8963100" lon="49.1618383"><time>2023-06-03T06:12:20.313</time></trkpt><trkpt lat="55.8962967" lon="49.1617467"><time>2023-06-03T06:12:21.320</time></trkpt><trkpt lat="55.8962817" lon="49.1616533"><time>2023-06-03T06:12:22.320</time></trkpt><trkpt lat="55.8962650" lon="49.1615617"><time>2023-06-03T06:12:23.320</time></trkpt><trkpt lat="55.8962450" lon="49.1614717"><time>2023-06-03T06:12:24.323</time></trkpt><trkpt lat="55.8962267" lon="49.1613867"><time>2023-06-03T06:12:25.323</time></trkpt><trkpt lat="55.8962067" lon="49.1613017"><time>2023-06-03T06:12:26.323</time></trkpt><trkpt lat="55.8961833" lon="49.1612200"><time>2023-06-03T06:12:27.320</time></trkpt><trkpt lat="55.8961583" lon="49.1611417"><time>2023-06-03T06:12:28.320</time></trkpt><trkpt lat="55.8961283" lon="49.1610683"><time>2023-06-03T06:12:29.323</time></trkpt><trkpt lat="55.8960983" lon="49.1610017"><time>2023-06-03T06:12:30.320</time></trkpt><trkpt lat="55.8960683" lon="49.1609400"><time>2023-06-03T06:12:31.303</time></trkpt><trkpt lat="55.8960367" lon="49.1608800"><time>2023-06-03T06:12:32.323</time></trkpt><trkpt lat="55.8959700" lon="49.1607883"><time>2023-06-03T06:12:34.320</time></trkpt><trkpt lat="55.8958933" lon="49.1607000"><time>2023-06-03T06:12:36.320</time></trkpt><trkpt lat="55.8958533" lon="49.1606583"><time>2023-06-03T06:12:37.320</time></trkpt><trkpt lat="55.8957850" lon="49.1605950"><time>2023-06-03T06:12:39.317</time></trkpt><trkpt lat="55.8957183" lon="49.1605467"><time>2023-06-03T06:12:41.320</time></trkpt><trkpt lat="55.8956667" lon="49.1605217"><time>2023-06-03T06:12:43.320</time></trkpt><trkpt lat="55.8956483" lon="49.1604350"><time>2023-06-03T06:12:46.277</time></trkpt><trkpt lat="55.8957117" lon="49.1603467"><time>2023-06-03T06:12:48.277</time></trkpt><trkpt lat="55.8957767" lon="49.1602417"><time>2023-06-03T06:12:50.273</time></trkpt><trkpt lat="55.8958167" lon="49.1601717"><time>2023-06-03T06:12:51.307</time></trkpt><trkpt lat="55.8958567" lon="49.1601017"><time>2023-06-03T06:12:52.287</time></trkpt><trkpt lat="55.8958983" lon="49.1600317"><time>2023-06-03T06:12:53.307</time></trkpt><trkpt lat="55.8959367" lon="49.1599617"><time>2023-06-03T06:12:54.313</time></trkpt><trkpt lat="55.8959667" lon="49.1598783"><time>2023-06-03T06:12:55.303</time></trkpt><trkpt lat="55.8959950" lon="49.1597933"><time>2023-06-03T06:12:56.310</time></trkpt><trkpt lat="55.8960217" lon="49.1597133"><time>2023-06-03T06:12:57.317</time></trkpt><trkpt lat="55.8960483" lon="49.1596383"><time>2023-06-03T06:12:58.310</time></trkpt><trkpt lat="55.8960717" lon="49.1595683"><time>2023-06-03T06:12:59.313</time></trkpt><trkpt lat="55.8960917" lon="49.1594917"><time>2023-06-03T06:13:00.320</time></trkpt><trkpt lat="55.8961067" lon="49.1594150"><time>2023-06-03T06:13:01.317</time></trkpt><trkpt lat="55.8961283" lon="49.1592600"><time>2023-06-03T06:13:03.317</time></trkpt><trkpt lat="55.8961367" lon="49.1591800"><time>2023-06-03T06:13:04.287</time></trkpt><trkpt lat="55.8961433" lon="49.1590917"><time>2023-06-03T06:13:05.280</time></trkpt><trkpt lat="55.8961500" lon="49.1590017"><time>2023-06-03T06:13:06.310</time></trkpt><trkpt lat="55.8961550" lon="49.1589117"><time>2023-06-03T06:13:07.317</time></trkpt><trkpt lat="55.8961617" lon="49.1588250"><time>2023-06-03T06:13:08.317</time></trkpt><trkpt lat="55.8961650" lon="49.1587400"><time>2023-06-03T06:13:09.317</time></trkpt><trkpt lat="55.8961717" lon="49.1586517"><time>2023-06-03T06:13:10.313</time></trkpt><trkpt lat="55.8961767" lon="49.1585617"><time>2023-06-03T06:13:11.313</time></trkpt><trkpt lat="55.8961800" lon="49.1584733"><time>2023-06-03T06:13:12.317</time></trkpt><trkpt lat="55.8961833" lon="49.1583883"><time>2023-06-03T06:13:13.303</time></trkpt><trkpt lat="55.8961900" lon="49.1583017"><time>2023-06-03T06:13:14.317</time></trkpt><trkpt lat="55.8961950" lon="49.1582117"><time>2023-06-03T06:13:15.310</time></trkpt><trkpt lat="55.8961967" lon="49.1581250"><time>2023-06-03T06:13:16.313</time></trkpt><trkpt lat="55.8961967" lon="49.1580383"><time>2023-06-03T06:13:17.317</time></trkpt><trkpt lat="55.8961983" lon="49.1579550"><time>2023-06-03T06:13:18.313</time></trkpt><trkpt lat="55.8962000" lon="49.1578750"><time>2023-06-03T06:13:19.317</time></trkpt><trkpt lat="55.8962017" lon="49.1577317"><time>2023-06-03T06:13:21.313</time></trkpt><trkpt lat="55.8962017" lon="49.1575950"><time>2023-06-03T06:13:23.307</time></trkpt><trkpt lat="55.8961983" lon="49.1575150"><time>2023-06-03T06:13:25.317</time></trkpt><trkpt lat="55.8962550" lon="49.1575133"><time>2023-06-03T06:13:45.310</time></trkpt><trkpt lat="55.8963033" lon="49.1574967"><time>2023-06-03T06:13:47.320</time></trkpt><trkpt lat="55.8963633" lon="49.1574517"><time>2023-06-03T06:13:49.320</time></trkpt><trkpt lat="55.8964217" lon="49.1574033"><time>2023-06-03T06:13:51.320</time></trkpt><trkpt lat="55.8964783" lon="49.1573417"><time>2023-06-03T06:13:53.317</time></trkpt><trkpt lat="55.8965433" lon="49.1572767"><time>2023-06-03T06:13:55.320</time></trkpt><trkpt lat="55.8966117" lon="49.1572000"><time>2023-06-03T06:13:57.317</time></trkpt><trkpt lat="55.8966783" lon="49.1571267"><time>2023-06-03T06:13:59.317</time></trkpt><trkpt lat="55.8967200" lon="49.1570967"><time>2023-06-03T06:14:00.320</time></trkpt><trkpt lat="55.8967633" lon="49.1570733"><time>2023-06-03T06:14:01.317</time></trkpt><trkpt lat="55.8968117" lon="49.1570600"><time>2023-06-03T06:14:02.320</time></trkpt><trkpt lat="55.8968583" lon="49.1570467"><time>2023-06-03T06:14:03.320</time></trkpt><trkpt lat="55.8969033" lon="49.1570383"><time>2023-06-03T06:14:04.320</time></trkpt><trkpt lat="55.8969533" lon="49.1570333"><time>2023-06-03T06:14:05.320</time></trkpt><trkpt lat="55.8970050" lon="49.1570333"><time>2023-06-03T06:14:06.320</time></trkpt><trkpt lat="55.8970550" lon="49.1570283"><time>2023-06-03T06:14:07.310</time></trkpt><trkpt lat="55.8971067" lon="49.1570183"><time>2023-06-03T06:14:08.317</time></trkpt><trkpt lat="55.8971617" lon="49.1570133"><time>2023-06-03T06:14:09.317</time></trkpt><trkpt lat="55.8972117" lon="49.1570000"><time>2023-06-03T06:14:10.317</time></trkpt><trkpt lat="55.8972650" lon="49.1569800"><time>2023-06-03T06:14:11.317</time></trkpt><trkpt lat="55.8973167" lon="49.1569583"><time>2023-06-03T06:14:12.313</time></trkpt><trkpt lat="55.8973667" lon="49.1569400"><time>2023-06-03T06:14:13.317</time></trkpt><trkpt lat="55.8974167" lon="49.1569200"><time>2023-06-03T06:14:14.320</time></trkpt><trkpt lat="55.8974700" lon="49.1569067"><time>2023-06-03T06:14:15.320</time></trkpt><trkpt lat="55.8975217" lon="49.1568967"><time>2023-06-03T06:14:16.317</time></trkpt><trkpt lat="55.8975733" lon="49.1568800"><time>2023-06-03T06:14:17.337</time></trkpt><trkpt lat="55.8976267" lon="49.1568633"><time>2023-06-03T06:14:18.313</time></trkpt><trkpt lat="55.8976800" lon="49.1568517"><time>2023-06-03T06:14:19.320</time></trkpt><trkpt lat="55.8977333" lon="49.1568433"><time>2023-06-03T06:14:20.320</time></trkpt><trkpt lat="55.8977867" lon="49.1568350"><time>2023-06-03T06:14:21.317</time></trkpt><trkpt lat="55.8978383" lon="49.1568267"><time>2023-06-03T06:14:22.317</time></trkpt><trkpt lat="55.8978900" lon="49.1568217"><time>2023-06-03T06:14:23.323</time></trkpt><trkpt lat="55.8979400" lon="49.1568167"><time>2023-06-03T06:14:24.313</time></trkpt><trkpt lat="55.8979933" lon="49.1568083"><time>2023-06-03T06:14:25.317</time></trkpt><trkpt lat="55.8980433" lon="49.1567983"><time>2023-06-03T06:14:26.317</time></trkpt><trkpt lat="55.8980917" lon="49.1567833"><time>2023-06-03T06:14:27.317</time></trkpt><trkpt lat="55.8981417" lon="49.1567700"><time>2023-06-03T06:14:28.320</time></trkpt><trkpt lat="55.8981917" lon="49.1567550"><time>2023-06-03T06:14:29.313</time></trkpt><trkpt lat="55.8982400" lon="49.1567400"><time>2023-06-03T06:14:30.337</time></trkpt><trkpt lat="55.8982883" lon="49.1567250"><time>2023-06-03T06:14:31.320</time></trkpt><trkpt lat="55.8983333" lon="49.1567017"><time>2023-06-03T06:14:32.327</time></trkpt><trkpt lat="55.8983767" lon="49.1566733"><time>2023-06-03T06:14:33.323</time></trkpt><trkpt lat="55.8984183" lon="49.1566417"><time>2023-06-03T06:14:34.323</time></trkpt><trkpt lat="55.8984633" lon="49.1566117"><time>2023-06-03T06:14:35.320</time></trkpt><trkpt lat="55.8985467" lon="49.1565633"><time>2023-06-03T06:14:37.323</time></trkpt><trkpt lat="55.8985900" lon="49.1565333"><time>2023-06-03T06:14:38.323</time></trkpt><trkpt lat="55.8986733" lon="49.1564817"><time>2023-06-03T06:14:40.320</time></trkpt><trkpt lat="55.8987600" lon="49.1564633"><time>2023-06-03T06:14:42.323</time></trkpt><trkpt lat="55.8988100" lon="49.1564617"><time>2023-06-03T06:14:43.323</time></trkpt><trkpt lat="55.8988600" lon="49.1564550"><time>2023-06-03T06:14:44.323</time></trkpt><trkpt lat="55.8989467" lon="49.1564300"><time>2023-06-03T06:14:46.320</time></trkpt><trkpt lat="55.8990317" lon="49.1563983"><time>2023-06-03T06:14:48.323</time></trkpt><trkpt lat="55.8991150" lon="49.1564200"><time>2023-06-03T06:14:50.340</time></trkpt><trkpt lat="55.8991583" lon="49.1564433"><time>2023-06-03T06:14:51.323</time></trkpt><trkpt lat="55.8992033" lon="49.1564667"><time>2023-06-03T06:14:52.320</time></trkpt><trkpt lat="55.8992500" lon="49.1564967"><time>2023-06-03T06:14:53.320</time></trkpt><trkpt lat="55.8993400" lon="49.1565283"><time>2023-06-03T06:14:55.320</time></trkpt><trkpt lat="55.8993883" lon="49.1565583"><time>2023-06-03T06:14:56.323</time></trkpt><trkpt lat="55.8994400" lon="49.1565867"><time>2023-06-03T06:14:57.287</time></trkpt><trkpt lat="55.8994933" lon="49.1566250"><time>2023-06-03T06:14:58.310</time></trkpt><trkpt lat="55.8995483" lon="49.1566733"><time>2023-06-03T06:14:59.327</time></trkpt><trkpt lat="55.8995917" lon="49.1567150"><time>2023-06-03T06:15:00.307</time></trkpt><trkpt lat="55.8996383" lon="49.1567483"><time>2023-06-03T06:15:01.320</time></trkpt><trkpt lat="55.8996800" lon="49.1567867"><time>2023-06-03T06:15:02.323</time></trkpt><trkpt lat="55.8997250" lon="49.1568283"><time>2023-06-03T06:15:03.323</time></trkpt><trkpt lat="55.8997933" lon="49.1568767"><time>2023-06-03T06:15:05.327</time></trkpt><trkpt lat="55.8998467" lon="49.1568483"><time>2023-06-03T06:15:08.323</time></trkpt><trkpt lat="55.8998467" lon="49.1568483"><time>2023-06-03T06:15:08.370</time></trkpt><trkpt lat="55.8997917" lon="49.1568550"><time>2023-06-03T06:15:20.317</time></trkpt><trkpt lat="55.8997717" lon="49.1568433"><time>2023-06-03T06:15:21.320</time></trkpt><trkpt lat="55.8997267" lon="49.1568117"><time>2023-06-03T06:15:23.320</time></trkpt><trkpt lat="55.8996767" lon="49.1567650"><time>2023-06-03T06:15:25.297</time></trkpt><trkpt lat="55.8996183" lon="49.1567000"><time>2023-06-03T06:15:27.307</time></trkpt><trkpt lat="55.8995617" lon="49.1566017"><time>2023-06-03T06:15:29.320</time></trkpt><trkpt lat="55.8994883" lon="49.1565217"><time>2023-06-03T06:15:31.317</time></trkpt><trkpt lat="55.8994433" lon="49.1564883"><time>2023-06-03T06:15:32.307</time></trkpt><trkpt lat="55.8993950" lon="49.1564583"><time>2023-06-03T06:15:33.297</time></trkpt><trkpt lat="55.8993283" lon="49.1564433"><time>2023-06-03T06:15:34.310</time></trkpt><trkpt lat="55.8992667" lon="49.1564417"><time>2023-06-03T06:15:35.323</time></trkpt><trkpt lat="55.8992217" lon="49.1564000"><time>2023-06-03T06:15:36.320</time></trkpt><trkpt lat="55.8991700" lon="49.1563700"><time>2023-06-03T06:15:37.297</time></trkpt><trkpt lat="55.8991183" lon="49.1563417"><time>2023-06-03T06:15:38.283</time></trkpt><trkpt lat="55.8990633" lon="49.1563200"><time>2023-06-03T06:15:39.310</time></trkpt><trkpt lat="55.8990067" lon="49.1563167"><time>2023-06-03T06:15:40.323</time></trkpt><trkpt lat="55.8989500" lon="49.1563133"><time>2023-06-03T06:15:41.327</time></trkpt><trkpt lat="55.8988933" lon="49.1563267"><time>2023-06-03T06:15:42.323</time></trkpt><trkpt lat="55.8988350" lon="49.1563433"><time>2023-06-03T06:15:43.323</time></trkpt><trkpt lat="55.8987800" lon="49.1563533"><time>2023-06-03T06:15:44.320</time></trkpt><trkpt lat="55.8987200" lon="49.1563667"><time>2023-06-03T06:15:45.310</time></trkpt><trkpt lat="55.8986667" lon="49.1563950"><time>2023-06-03T06:15:46.323</time></trkpt><trkpt lat="55.8986167" lon="49.1564267"><time>2023-06-03T06:15:47.323</time></trkpt><trkpt lat="55.8985650" lon="49.1564600"><time>2023-06-03T06:15:48.323</time></trkpt><trkpt lat="55.8985133" lon="49.1565150"><time>2023-06-03T06:15:49.317</time></trkpt><trkpt lat="55.8984567" lon="49.1565750"><time>2023-06-03T06:15:50.323</time></trkpt><trkpt lat="55.8983967" lon="49.1566350"><time>2023-06-03T06:15:51.323</time></trkpt><trkpt lat="55.8983383" lon="49.1566900"><time>2023-06-03T06:15:52.327</time></trkpt><trkpt lat="55.8982750" lon="49.1567333"><time>2023-06-03T06:15:53.327</time></trkpt><trkpt lat="55.8982150" lon="49.1567700"><time>2023-06-03T06:15:54.323</time></trkpt><trkpt lat="55.8981600" lon="49.1567983"><time>2023-06-03T06:15:55.323</time></trkpt><trkpt lat="55.8981067" lon="49.1568167"><time>2023-06-03T06:15:56.327</time></trkpt><trkpt lat="55.8980567" lon="49.1568317"><time>2023-06-03T06:15:57.327</time></trkpt><trkpt lat="55.8980017" lon="49.1568433"><time>2023-06-03T06:15:58.323</time></trkpt><trkpt lat="55.8979517" lon="49.1568483"><time>2023-06-03T06:15:59.327</time></trkpt><trkpt lat="55.8978950" lon="49.1568650"><time>2023-06-03T06:16:00.327</time></trkpt><trkpt lat="55.8978433" lon="49.1568733"><time>2023-06-03T06:16:01.327</time></trkpt><trkpt lat="55.8977900" lon="49.1568800"><time>2023-06-03T06:16:02.327</time></trkpt><trkpt lat="55.8977317" lon="49.1568900"><time>2023-06-03T06:16:03.320</time></trkpt><trkpt lat="55.8976750" lon="49.1569083"><time>2023-06-03T06:16:04.323</time></trkpt><trkpt lat="55.8976200" lon="49.1569333"><time>2023-06-03T06:16:05.343</time></trkpt><trkpt lat="55.8975667" lon="49.1569533"><time>2023-06-03T06:16:06.327</time></trkpt><trkpt lat="55.8975150" lon="49.1569733"><time>2023-06-03T06:16:07.323</time></trkpt><trkpt lat="55.8974667" lon="49.1569933"><time>2023-06-03T06:16:08.323</time></trkpt><trkpt lat="55.8974183" lon="49.1570083"><time>2023-06-03T06:16:09.323</time></trkpt><trkpt lat="55.8973717" lon="49.1570250"><time>2023-06-03T06:16:10.323</time></trkpt><trkpt lat="55.8973233" lon="49.1570433"><time>2023-06-03T06:16:11.323</time></trkpt><trkpt lat="55.8972717" lon="49.1570617"><time>2023-06-03T06:16:12.323</time></trkpt><trkpt lat="55.8972200" lon="49.1570767"><time>2023-06-03T06:16:13.323</time></trkpt><trkpt lat="55.8971700" lon="49.1570783"><time>2023-06-03T06:16:14.327</time></trkpt><trkpt lat="55.8971233" lon="49.1570750"><time>2023-06-03T06:16:15.323</time></trkpt><trkpt lat="55.8970750" lon="49.1570767"><time>2023-06-03T06:16:16.323</time></trkpt><trkpt lat="55.8970250" lon="49.1570767"><time>2023-06-03T06:16:17.323</time></trkpt><trkpt lat="55.8969733" lon="49.1570783"><time>2023-06-03T06:16:18.323</time></trkpt><trkpt lat="55.8969217" lon="49.1570817"><time>2023-06-03T06:16:19.323</time></trkpt><trkpt lat="55.8968700" lon="49.1570933"><time>2023-06-03T06:16:20.323</time></trkpt><trkpt lat="55.8968200" lon="49.1571050"><time>2023-06-03T06:16:21.320</time></trkpt><trkpt lat="55.8967683" lon="49.1571233"><time>2023-06-03T06:16:22.323</time></trkpt><trkpt lat="55.8966733" lon="49.1571550"><time>2023-06-03T06:16:24.327</time></trkpt><trkpt lat="55.8966283" lon="49.1571933"><time>2023-06-03T06:16:25.323</time></trkpt><trkpt lat="55.8965800" lon="49.1572550"><time>2023-06-03T06:16:26.323</time></trkpt><trkpt lat="55.8965283" lon="49.1572983"><time>2023-06-03T06:16:27.323</time></trkpt><trkpt lat="55.8964767" lon="49.1573433"><time>2023-06-03T06:16:28.323</time></trkpt><trkpt lat="55.8964267" lon="49.1574017"><time>2023-06-03T06:16:29.323</time></trkpt><trkpt lat="55.8963733" lon="49.1574583"><time>2023-06-03T06:16:30.323</time></trkpt><trkpt lat="55.8963183" lon="49.1575050"><time>2023-06-03T06:16:31.297</time></trkpt><trkpt lat="55.8962700" lon="49.1575667"><time>2023-06-03T06:16:32.327</time></trkpt><trkpt lat="55.8962233" lon="49.1576583"><time>2023-06-03T06:16:33.323</time></trkpt><trkpt lat="55.8961950" lon="49.1577383"><time>2023-06-03T06:16:34.323</time></trkpt><trkpt lat="55.8961867" lon="49.1578917"><time>2023-06-03T06:16:36.323</time></trkpt><trkpt lat="55.8961850" lon="49.1579883"><time>2023-06-03T06:16:37.327</time></trkpt><trkpt lat="55.8961833" lon="49.1580900"><time>2023-06-03T06:16:38.327</time></trkpt><trkpt lat="55.8961800" lon="49.1581917"><time>2023-06-03T06:16:39.323</time></trkpt><trkpt lat="55.8961767" lon="49.1582967"><time>2023-06-03T06:16:40.323</time></trkpt><trkpt lat="55.8961733" lon="49.1584017"><time>2023-06-03T06:16:41.320</time></trkpt><trkpt lat="55.8961683" lon="49.1585067"><time>2023-06-03T06:16:42.327</time></trkpt><trkpt lat="55.8961617" lon="49.1586100"><time>2023-06-03T06:16:43.327</time></trkpt><trkpt lat="55.8961550" lon="49.1587117"><time>2023-06-03T06:16:44.320</time></trkpt><trkpt lat="55.8961467" lon="49.1588133"><time>2023-06-03T06:16:45.313</time></trkpt><trkpt lat="55.8961400" lon="49.1589117"><time>2023-06-03T06:16:46.323</time></trkpt><trkpt lat="55.8961367" lon="49.1590083"><time>2023-06-03T06:16:47.317</time></trkpt><trkpt lat="55.8961333" lon="49.1591033"><time>2023-06-03T06:16:48.327</time></trkpt><trkpt lat="55.8961267" lon="49.1591917"><time>2023-06-03T06:16:49.323</time></trkpt><trkpt lat="55.8961067" lon="49.1593350"><time>2023-06-03T06:16:51.327</time></trkpt><trkpt lat="55.8960800" lon="49.1594750"><time>2023-06-03T06:16:53.320</time></trkpt><trkpt lat="55.8960333" lon="49.1596100"><time>2023-06-03T06:16:55.323</time></trkpt><trkpt lat="55.8960050" lon="49.1596833"><time>2023-06-03T06:16:56.323</time></trkpt><trkpt lat="55.8959800" lon="49.1597550"><time>2023-06-03T06:16:57.327</time></trkpt><trkpt lat="55.8959533" lon="49.1598933"><time>2023-06-03T06:16:59.327</time></trkpt><trkpt lat="55.8959050" lon="49.1600033"><time>2023-06-03T06:17:01.320</time></trkpt><trkpt lat="55.8958767" lon="49.1600667"><time>2023-06-03T06:17:02.323</time></trkpt><trkpt lat="55.8958433" lon="49.1601267"><time>2023-06-03T06:17:03.320</time></trkpt><trkpt lat="55.8958100" lon="49.1601867"><time>2023-06-03T06:17:04.297</time></trkpt><trkpt lat="55.8957500" lon="49.1602833"><time>2023-06-03T06:17:06.327</time></trkpt><trkpt lat="55.8957033" lon="49.1603600"><time>2023-06-03T06:17:08.323</time></trkpt><trkpt lat="55.8956700" lon="49.1604217"><time>2023-06-03T06:17:10.327</time></trkpt><trkpt lat="55.8956500" lon="49.1604933"><time>2023-06-03T06:17:13.327</time></trkpt><trkpt lat="55.8956050" lon="49.1605750"><time>2023-06-03T06:17:16.320</time></trkpt><trkpt lat="55.8955667" lon="49.1606383"><time>2023-06-03T06:17:18.323</time></trkpt><trkpt lat="55.8955367" lon="49.1607267"><time>2023-06-03T06:17:20.307</time></trkpt><trkpt lat="55.8955033" lon="49.1608217"><time>2023-06-03T06:17:22.320</time></trkpt><trkpt lat="55.8954533" lon="49.1609200"><time>2023-06-03T06:17:24.323</time></trkpt><trkpt lat="55.8953917" lon="49.1610050"><time>2023-06-03T06:17:26.323</time></trkpt><trkpt lat="55.8953350" lon="49.1611117"><time>2023-06-03T06:17:28.327</time></trkpt><trkpt lat="55.8952833" lon="49.1612333"><time>2023-06-03T06:17:30.320</time></trkpt><trkpt lat="55.8952300" lon="49.1613450"><time>2023-06-03T06:17:32.310</time></trkpt><trkpt lat="55.8951983" lon="49.1614033"><time>2023-06-03T06:17:33.327</time></trkpt><trkpt lat="55.8951650" lon="49.1614600"><time>2023-06-03T06:17:34.327</time></trkpt><trkpt lat="55.8951050" lon="49.1615767"><time>2023-06-03T06:17:36.327</time></trkpt><trkpt lat="55.8950767" lon="49.1616400"><time>2023-06-03T06:17:37.333</time></trkpt><trkpt lat="55.8950467" lon="49.1617067"><time>2023-06-03T06:17:38.320</time></trkpt><trkpt lat="55.8950183" lon="49.1617700"><time>2023-06-03T06:17:39.323</time></trkpt><trkpt lat="55.8949850" lon="49.1618367"><time>2023-06-03T06:17:40.320</time></trkpt><trkpt lat="55.8949533" lon="49.1619017"><time>2023-06-03T06:17:41.327</time></trkpt><trkpt lat="55.8949183" lon="49.1619717"><time>2023-06-03T06:17:42.327</time></trkpt><trkpt lat="55.8948867" lon="49.1620433"><time>2023-06-03T06:17:43.323</time></trkpt><trkpt lat="55.8948583" lon="49.1621183"><time>2023-06-03T06:17:44.327</time></trkpt><trkpt lat="55.8948350" lon="49.1622000"><time>2023-06-03T06:17:45.320</time></trkpt><trkpt lat="55.8948183" lon="49.1622867"><time>2023-06-03T06:17:46.323</time></trkpt><trkpt lat="55.8947983" lon="49.1623750"><time>2023-06-03T06:17:47.320</time></trkpt><trkpt lat="55.8947717" lon="49.1624617"><time>2023-06-03T06:17:48.323</time></trkpt><trkpt lat="55.8947400" lon="49.1625367"><time>2023-06-03T06:17:49.320</time></trkpt><trkpt lat="55.8947050" lon="49.1625933"><time>2023-06-03T06:17:50.327</time></trkpt><trkpt lat="55.8946567" lon="49.1626317"><time>2023-06-03T06:17:51.327</time></trkpt><trkpt lat="55.8946067" lon="49.1626583"><time>2023-06-03T06:17:52.323</time></trkpt><trkpt lat="55.8945567" lon="49.1626900"><time>2023-06-03T06:17:53.327</time></trkpt><trkpt lat="55.8945083" lon="49.1627300"><time>2023-06-03T06:17:54.323</time></trkpt><trkpt lat="55.8944650" lon="49.1627800"><time>2023-06-03T06:17:55.320</time></trkpt><trkpt lat="55.8944250" lon="49.1628333"><time>2023-06-03T06:17:56.307</time></trkpt><trkpt lat="55.8943850" lon="49.1628867"><time>2023-06-03T06:17:57.323</time></trkpt><trkpt lat="55.8943433" lon="49.1629350"><time>2023-06-03T06:17:58.327</time></trkpt><trkpt lat="55.8943033" lon="49.1629883"><time>2023-06-03T06:17:59.323</time></trkpt><trkpt lat="55.8942667" lon="49.1630483"><time>2023-06-03T06:18:00.327</time></trkpt><trkpt lat="55.8942350" lon="49.1631183"><time>2023-06-03T06:18:01.327</time></trkpt><trkpt lat="55.8942083" lon="49.1631967"><time>2023-06-03T06:18:02.327</time></trkpt><trkpt lat="55.8941883" lon="49.1632800"><time>2023-06-03T06:18:03.320</time></trkpt><trkpt lat="55.8941683" lon="49.1633700"><time>2023-06-03T06:18:04.320</time></trkpt><trkpt lat="55.8941500" lon="49.1634567"><time>2023-06-03T06:18:05.320</time></trkpt><trkpt lat="55.8941300" lon="49.1635450"><time>2023-06-03T06:18:06.323</time></trkpt><trkpt lat="55.8941117" lon="49.1636350"><time>2023-06-03T06:18:07.327</time></trkpt><trkpt lat="55.8940933" lon="49.1637317"><time>2023-06-03T06:18:08.327</time></trkpt><trkpt lat="55.8940750" lon="49.1638300"><time>2023-06-03T06:18:09.327</time></trkpt><trkpt lat="55.8940533" lon="49.1639317"><time>2023-06-03T06:18:10.323</time></trkpt><trkpt lat="55.8940317" lon="49.1640317"><time>2023-06-03T06:18:11.323</time></trkpt><trkpt lat="55.8940050" lon="49.1641250"><time>2023-06-03T06:18:12.323</time></trkpt><trkpt lat="55.8939717" lon="49.1642167"><time>2023-06-03T06:18:13.317</time></trkpt><trkpt lat="55.8939400" lon="49.1643050"><time>2023-06-03T06:18:14.320</time></trkpt><trkpt lat="55.8939150" lon="49.1643967"><time>2023-06-03T06:18:15.317</time></trkpt><trkpt lat="55.8938917" lon="49.1644850"><time>2023-06-03T06:18:16.323</time></trkpt><trkpt lat="55.8938733" lon="49.1645800"><time>2023-06-03T06:18:17.323</time></trkpt><trkpt lat="55.8938583" lon="49.1646783"><time>2023-06-03T06:18:18.323</time></trkpt><trkpt lat="55.8938467" lon="49.1647733"><time>2023-06-03T06:18:19.323</time></trkpt><trkpt lat="55.8938367" lon="49.1648683"><time>2023-06-03T06:18:20.303</time></trkpt><trkpt lat="55.8938283" lon="49.1649600"><time>2023-06-03T06:18:21.320</time></trkpt><trkpt lat="55.8938233" lon="49.1650533"><time>2023-06-03T06:18:22.313</time></trkpt><trkpt lat="55.8938200" lon="49.1651467"><time>2023-06-03T06:18:23.320</time></trkpt><trkpt lat="55.8938150" lon="49.1652400"><time>2023-06-03T06:18:24.327</time></trkpt><trkpt lat="55.8938100" lon="49.1653300"><time>2023-06-03T06:18:25.327</time></trkpt><trkpt lat="55.8938033" lon="49.1654133"><time>2023-06-03T06:18:26.323</time></trkpt><trkpt lat="55.8937983" lon="49.1655000"><time>2023-06-03T06:18:27.313</time></trkpt><trkpt lat="55.8937900" lon="49.1655883"><time>2023-06-03T06:18:28.323</time></trkpt><trkpt lat="55.8937817" lon="49.1656733"><time>2023-06-03T06:18:29.310</time></trkpt><trkpt lat="55.8937750" lon="49.1657600"><time>2023-06-03T06:18:30.327</time></trkpt><trkpt lat="55.8937683" lon="49.1658483"><time>2023-06-03T06:18:31.327</time></trkpt><trkpt lat="55.8937617" lon="49.1659400"><time>2023-06-03T06:18:32.327</time></trkpt><trkpt lat="55.8937533" lon="49.1660317"><time>2023-06-03T06:18:33.327</time></trkpt><trkpt lat="55.8937417" lon="49.1661250"><time>2023-06-03T06:18:34.323</time></trkpt><trkpt lat="55.8937283" lon="49.1662150"><time>2023-06-03T06:18:35.323</time></trkpt><trkpt lat="55.8937117" lon="49.1663083"><time>2023-06-03T06:18:36.320</time></trkpt><trkpt lat="55.8936950" lon="49.1664000"><time>2023-06-03T06:18:37.320</time></trkpt><trkpt lat="55.8936733" lon="49.1664850"><time>2023-06-03T06:18:38.327</time></trkpt><trkpt lat="55.8936483" lon="49.1665717"><time>2023-06-03T06:18:39.323</time></trkpt><trkpt lat="55.8936200" lon="49.1666533"><time>2023-06-03T06:18:40.323</time></trkpt><trkpt lat="55.8935883" lon="49.1667333"><time>2023-06-03T06:18:41.330</time></trkpt><trkpt lat="55.8935550" lon="49.1668150"><time>2023-06-03T06:18:42.323</time></trkpt><trkpt lat="55.8935200" lon="49.1668933"><time>2023-06-03T06:18:43.320</time></trkpt><trkpt lat="55.8934850" lon="49.1669717"><time>2023-06-03T06:18:44.320</time></trkpt><trkpt lat="55.8934483" lon="49.1670450"><time>2023-06-03T06:18:45.320</time></trkpt><trkpt lat="55.8934083" lon="49.1671183"><time>2023-06-03T06:18:46.323</time></trkpt><trkpt lat="55.8933700" lon="49.1671933"><time>2023-06-03T06:18:47.327</time></trkpt><trkpt lat="55.8933317" lon="49.1672650"><time>2023-06-03T06:18:48.327</time></trkpt><trkpt lat="55.8932933" lon="49.1673367"><time>2023-06-03T06:18:49.323</time></trkpt><trkpt lat="55.8932517" lon="49.1674067"><time>2023-06-03T06:18:50.327</time></trkpt><trkpt lat="55.8932050" lon="49.1674750"><time>2023-06-03T06:18:51.323</time></trkpt><trkpt lat="55.8931617" lon="49.1675317"><time>2023-06-03T06:18:52.307</time></trkpt><trkpt lat="55.8931183" lon="49.1675817"><time>2023-06-03T06:18:53.323</time></trkpt><trkpt lat="55.8930783" lon="49.1676267"><time>2023-06-03T06:18:54.323</time></trkpt><trkpt lat="55.8930267" lon="49.1677067"><time>2023-06-03T06:18:55.303</time></trkpt><trkpt lat="55.8929817" lon="49.1677583"><time>2023-06-03T06:18:56.307</time></trkpt><trkpt lat="55.8929333" lon="49.1678083"><time>2023-06-03T06:18:57.317</time></trkpt><trkpt lat="55.8928750" lon="49.1678567"><time>2023-06-03T06:18:58.320</time></trkpt><trkpt lat="55.8928100" lon="49.1678950"><time>2023-06-03T06:18:59.317</time></trkpt><trkpt lat="55.8927483" lon="49.1679350"><time>2023-06-03T06:19:00.317</time></trkpt><trkpt lat="55.8926850" lon="49.1679833"><time>2023-06-03T06:19:01.320</time></trkpt><trkpt lat="55.8926300" lon="49.1680250"><time>2023-06-03T06:19:02.320</time></trkpt><trkpt lat="55.8925767" lon="49.1680733"><time>2023-06-03T06:19:03.320</time></trkpt><trkpt lat="55.8925217" lon="49.1681167"><time>2023-06-03T06:19:04.323</time></trkpt><trkpt lat="55.8924733" lon="49.1681433"><time>2023-06-03T06:19:05.323</time></trkpt><trkpt lat="55.8924250" lon="49.1681617"><time>2023-06-03T06:19:06.327</time></trkpt><trkpt lat="55.8923667" lon="49.1681650"><time>2023-06-03T06:19:07.313</time></trkpt><trkpt lat="55.8923083" lon="49.1681783"><time>2023-06-03T06:19:08.323</time></trkpt><trkpt lat="55.8922517" lon="49.1682033"><time>2023-06-03T06:19:09.320</time></trkpt><trkpt lat="55.8921917" lon="49.1682233"><time>2023-06-03T06:19:10.320</time></trkpt><trkpt lat="55.8921383" lon="49.1682300"><time>2023-06-03T06:19:11.317</time></trkpt><trkpt lat="55.8920883" lon="49.1682217"><time>2023-06-03T06:19:12.323</time></trkpt><trkpt lat="55.8920367" lon="49.1682150"><time>2023-06-03T06:19:13.323</time></trkpt><trkpt lat="55.8919800" lon="49.1682033"><time>2023-06-03T06:19:14.327</time></trkpt><trkpt lat="55.8919267" lon="49.1681983"><time>2023-06-03T06:19:15.320</time></trkpt><trkpt lat="55.8918683" lon="49.1681867"><time>2023-06-03T06:19:16.323</time></trkpt><trkpt lat="55.8918083" lon="49.1681750"><time>2023-06-03T06:19:17.317</time></trkpt><trkpt lat="55.8917517" lon="49.1681633"><time>2023-06-03T06:19:18.320</time></trkpt><trkpt lat="55.8917000" lon="49.1681450"><time>2023-06-03T06:19:19.320</time></trkpt><trkpt lat="55.8916400" lon="49.1681400"><time>2023-06-03T06:19:20.323</time></trkpt><trkpt lat="55.8915817" lon="49.1681333"><time>2023-06-03T06:19:21.323</time></trkpt><trkpt lat="55.8915333" lon="49.1681217"><time>2023-06-03T06:19:22.323</time></trkpt><trkpt lat="55.8914817" lon="49.1681033"><time>2023-06-03T06:19:23.327</time></trkpt><trkpt lat="55.8914283" lon="49.1680883"><time>2023-06-03T06:19:24.327</time></trkpt><trkpt lat="55.8913783" lon="49.1680767"><time>2023-06-03T06:19:25.327</time></trkpt><trkpt lat="55.8913200" lon="49.1680617"><time>2023-06-03T06:19:26.320</time></trkpt><trkpt lat="55.8912633" lon="49.1680483"><time>2023-06-03T06:19:27.320</time></trkpt><trkpt lat="55.8912050" lon="49.1680333"><time>2023-06-03T06:19:28.320</time></trkpt><trkpt lat="55.8911417" lon="49.1680067"><time>2023-06-03T06:19:29.303</time></trkpt><trkpt lat="55.8910767" lon="49.1679700"><time>2023-06-03T06:19:30.317</time></trkpt><trkpt lat="55.8910150" lon="49.1679267"><time>2023-06-03T06:19:31.327</time></trkpt><trkpt lat="55.8909567" lon="49.1678750"><time>2023-06-03T06:19:32.330</time></trkpt><trkpt lat="55.8909000" lon="49.1678283"><time>2023-06-03T06:19:33.327</time></trkpt><trkpt lat="55.8908517" lon="49.1677867"><time>2023-06-03T06:19:34.313</time></trkpt><trkpt lat="55.8908100" lon="49.1677450"><time>2023-06-03T06:19:35.320</time></trkpt><trkpt lat="55.8907717" lon="49.1676983"><time>2023-06-03T06:19:36.313</time></trkpt><trkpt lat="55.8907283" lon="49.1676550"><time>2023-06-03T06:19:37.320</time></trkpt><trkpt lat="55.8906883" lon="49.1675983"><time>2023-06-03T06:19:38.327</time></trkpt><trkpt lat="55.8906550" lon="49.1675383"><time>2023-06-03T06:19:39.327</time></trkpt><trkpt lat="55.8906233" lon="49.1674767"><time>2023-06-03T06:19:40.323</time></trkpt><trkpt lat="55.8905683" lon="49.1673633"><time>2023-06-03T06:19:42.313</time></trkpt><trkpt lat="55.8905183" lon="49.1672283"><time>2023-06-03T06:19:44.323</time></trkpt><trkpt lat="55.8904967" lon="49.1671417"><time>2023-06-03T06:19:45.317</time></trkpt><trkpt lat="55.8904817" lon="49.1670517"><time>2023-06-03T06:19:46.313</time></trkpt><trkpt lat="55.8904700" lon="49.1669583"><time>2023-06-03T06:19:47.310</time></trkpt><trkpt lat="55.8904600" lon="49.1668633"><time>2023-06-03T06:19:48.317</time></trkpt><trkpt lat="55.8904450" lon="49.1667733"><time>2023-06-03T06:19:49.327</time></trkpt><trkpt lat="55.8904350" lon="49.1666700"><time>2023-06-03T06:19:50.323</time></trkpt><trkpt lat="55.8904217" lon="49.1665733"><time>2023-06-03T06:19:51.300</time></trkpt><trkpt lat="55.8904083" lon="49.1664817"><time>2023-06-03T06:19:52.317</time></trkpt><trkpt lat="55.8903967" lon="49.1663800"><time>2023-06-03T06:19:53.317</time></trkpt><trkpt lat="55.8903867" lon="49.1662800"><time>2023-06-03T06:19:54.320</time></trkpt><trkpt lat="55.8903733" lon="49.1661900"><time>2023-06-03T06:19:55.320</time></trkpt><trkpt lat="55.8903533" lon="49.1661017"><time>2023-06-03T06:19:56.323</time></trkpt><trkpt lat="55.8903317" lon="49.1660100"><time>2023-06-03T06:19:57.317</time></trkpt><trkpt lat="55.8903133" lon="49.1659233"><time>2023-06-03T06:19:58.323</time></trkpt><trkpt lat="55.8902933" lon="49.1658333"><time>2023-06-03T06:19:59.323</time></trkpt><trkpt lat="55.8902700" lon="49.1657450"><time>2023-06-03T06:20:00.320</time></trkpt><trkpt lat="55.8902517" lon="49.1656500"><time>2023-06-03T06:20:01.327</time></trkpt><trkpt lat="55.8902367" lon="49.1655517"><time>2023-06-03T06:20:02.320</time></trkpt><trkpt lat="55.8902250" lon="49.1654583"><time>2023-06-03T06:20:03.320</time></trkpt><trkpt lat="55.8902083" lon="49.1653667"><time>2023-06-03T06:20:04.323</time></trkpt><trkpt lat="55.8901933" lon="49.1652800"><time>2023-06-03T06:20:05.320</time></trkpt><trkpt lat="55.8901783" lon="49.1651933"><time>2023-06-03T06:20:06.320</time></trkpt><trkpt lat="55.8901650" lon="49.1651050"><time>2023-06-03T06:20:07.310</time></trkpt><trkpt lat="55.8901467" lon="49.1650233"><time>2023-06-03T06:20:08.323</time></trkpt><trkpt lat="55.8901333" lon="49.1649433"><time>2023-06-03T06:20:09.320</time></trkpt><trkpt lat="55.8901217" lon="49.1648650"><time>2023-06-03T06:20:10.317</time></trkpt><trkpt lat="55.8901067" lon="49.1647850"><time>2023-06-03T06:20:11.317</time></trkpt><trkpt lat="55.8900800" lon="49.1646533"><time>2023-06-03T06:20:13.323</time></trkpt><trkpt lat="55.8900450" lon="49.1645133"><time>2023-06-03T06:20:15.320</time></trkpt><trkpt lat="55.8900200" lon="49.1644450"><time>2023-06-03T06:20:16.320</time></trkpt><trkpt lat="55.8899883" lon="49.1643683"><time>2023-06-03T06:20:18.320</time></trkpt><trkpt lat="55.8899567" lon="49.1642783"><time>2023-06-03T06:20:28.320</time></trkpt><trkpt lat="55.8899317" lon="49.1642117"><time>2023-06-03T06:20:30.307</time></trkpt><trkpt lat="55.8899067" lon="49.1641300"><time>2023-06-03T06:20:32.320</time></trkpt><trkpt lat="55.8898683" lon="49.1640383"><time>2023-06-03T06:20:34.280</time></trkpt><trkpt lat="55.8898317" lon="49.1639433"><time>2023-06-03T06:20:36.320</time></trkpt><trkpt lat="55.8898283" lon="49.1638300"><time>2023-06-03T06:20:39.320</time></trkpt><trkpt lat="55.8898183" lon="49.1637500"><time>2023-06-03T06:20:41.317</time></trkpt><trkpt lat="55.8897917" lon="49.1636367"><time>2023-06-03T06:20:44.283</time></trkpt><trkpt lat="55.8897500" lon="49.1635450"><time>2023-06-03T06:20:47.317</time></trkpt><trkpt lat="55.8897167" lon="49.1634817"><time>2023-06-03T06:20:50.313</time></trkpt><trkpt lat="55.8896883" lon="49.1634183"><time>2023-06-03T06:20:53.313</time></trkpt><trkpt lat="55.8895767" lon="49.1632933"><time>2023-06-03T06:21:24.320</time></trkpt><trkpt lat="55.8895250" lon="49.1633000"><time>2023-06-03T06:21:27.320</time></trkpt><trkpt lat="55.8894283" lon="49.1632650"><time>2023-06-03T06:21:39.307</time></trkpt><trkpt lat="55.8893383" lon="49.1632667"><time>2023-06-03T06:21:57.317</time></trkpt><trkpt lat="55.8892150" lon="49.1633033"><time>2023-06-03T06:22:12.310</time></trkpt><trkpt lat="55.8891550" lon="49.1633483"><time>2023-06-03T06:22:15.310</time></trkpt><trkpt lat="55.8891200" lon="49.1634050"><time>2023-06-03T06:22:18.310</time></trkpt><trkpt lat="55.8890950" lon="49.1634800"><time>2023-06-03T06:22:23.283</time></trkpt><trkpt lat="55.8890967" lon="49.1635700"><time>2023-06-03T06:22:39.307</time></trkpt><trkpt lat="55.8891467" lon="49.1636150"><time>2023-06-03T06:22:42.313</time></trkpt><trkpt lat="55.8891967" lon="49.1636667"><time>2023-06-03T06:22:44.307</time></trkpt><trkpt lat="55.8892517" lon="49.1637367"><time>2023-06-03T06:22:46.280</time></trkpt><trkpt lat="55.8893033" lon="49.1638067"><time>2023-06-03T06:22:48.303</time></trkpt><trkpt lat="55.8893517" lon="49.1638450"><time>2023-06-03T06:22:50.307</time></trkpt><trkpt lat="55.8893950" lon="49.1638833"><time>2023-06-03T06:22:53.310</time></trkpt><trkpt lat="55.8894550" lon="49.1639050"><time>2023-06-03T06:22:57.313</time></trkpt><trkpt lat="55.8895100" lon="49.1639417"><time>2023-06-03T06:23:01.280</time></trkpt><trkpt lat="55.8895633" lon="49.1639700"><time>2023-06-03T06:23:04.310</time></trkpt><trkpt lat="55.8896133" lon="49.1639367"><time>2023-06-03T06:23:08.313</time></trkpt><trkpt lat="55.8896350" lon="49.1638500"><time>2023-06-03T06:23:12.313</time></trkpt><trkpt lat="55.8896417" lon="49.1637550"><time>2023-06-03T06:23:15.307</time></trkpt><trkpt lat="55.8896317" lon="49.1636617"><time>2023-06-03T06:23:18.310</time></trkpt><trkpt lat="55.8896450" lon="49.1635567"><time>2023-06-03T06:23:22.307</time></trkpt><trkpt lat="55.8896567" lon="49.1634783"><time>2023-06-03T06:23:25.307</time></trkpt><trkpt lat="55.8896500" lon="49.1633917"><time>2023-06-03T06:23:29.310</time></trkpt><trkpt lat="55.8896950" lon="49.1634250"><time>2023-06-03T06:23:52.313</time></trkpt><trkpt lat="55.8897233" lon="49.1634917"><time>2023-06-03T06:23:56.313</time></trkpt><trkpt lat="55.8897600" lon="49.1635533"><time>2023-06-03T06:23:58.313</time></trkpt><trkpt lat="55.8897833" lon="49.1636267"><time>2023-06-03T06:24:00.303</time></trkpt><trkpt lat="55.8898033" lon="49.1637383"><time>2023-06-03T06:24:02.307</time></trkpt><trkpt lat="55.8898267" lon="49.1638383"><time>2023-06-03T06:24:04.307</time></trkpt><trkpt lat="55.8898083" lon="49.1639183"><time>2023-06-03T06:24:06.313</time></trkpt><trkpt lat="55.8897567" lon="49.1639500"><time>2023-06-03T06:24:08.303</time></trkpt><trkpt lat="55.8897117" lon="49.1640100"><time>2023-06-03T06:24:10.310</time></trkpt><trkpt lat="55.8896517" lon="49.1640400"><time>2023-06-03T06:24:13.307</time></trkpt><trkpt lat="55.8896067" lon="49.1640117"><time>2023-06-03T06:24:15.297</time></trkpt><trkpt lat="55.8895483" lon="49.1639767"><time>2023-06-03T06:24:17.307</time></trkpt><trkpt lat="55.8894850" lon="49.1639333"><time>2023-06-03T06:24:19.393</time></trkpt><trkpt lat="55.8894300" lon="49.1639017"><time>2023-06-03T06:24:21.293</time></trkpt><trkpt lat="55.8893700" lon="49.1638583"><time>2023-06-03T06:24:23.267</time></trkpt><trkpt lat="55.8893083" lon="49.1638350"><time>2023-06-03T06:24:25.310</time></trkpt><trkpt lat="55.8892683" lon="49.1637733"><time>2023-06-03T06:24:27.307</time></trkpt><trkpt lat="55.8892050" lon="49.1637233"><time>2023-06-03T06:24:29.317</time></trkpt><trkpt lat="55.8891600" lon="49.1636567"><time>2023-06-03T06:24:31.320</time></trkpt><trkpt lat="55.8891183" lon="49.1635900"><time>2023-06-03T06:24:34.323</time></trkpt><trkpt lat="55.8890517" lon="49.1635617"><time>2023-06-03T06:24:37.323</time></trkpt><trkpt lat="55.8889750" lon="49.1635200"><time>2023-06-03T06:24:39.300</time></trkpt><trkpt lat="55.8888983" lon="49.1635050"><time>2023-06-03T06:24:41.317</time></trkpt><trkpt lat="55.8888500" lon="49.1634933"><time>2023-06-03T06:24:43.363</time></trkpt><trkpt lat="55.8887933" lon="49.1634767"><time>2023-06-03T06:24:45.297</time></trkpt><trkpt lat="55.8887550" lon="49.1635300"><time>2023-06-03T06:24:46.323</time></trkpt><trkpt lat="55.8886333" lon="49.1636000"><time>2023-06-03T06:24:47.827</time></trkpt><trkpt lat="55.8885933" lon="49.1637067"><time>2023-06-03T06:24:48.313</time></trkpt><trkpt lat="55.8885733" lon="49.1636317"><time>2023-06-03T06:24:50.797</time></trkpt><trkpt lat="55.8885083" lon="49.1636383"><time>2023-06-03T06:24:53.317</time></trkpt><trkpt lat="55.8884350" lon="49.1636467"><time>2023-06-03T06:24:55.317</time></trkpt><trkpt lat="55.8883683" lon="49.1636483"><time>2023-06-03T06:24:57.313</time></trkpt><trkpt lat="55.8883050" lon="49.1636500"><time>2023-06-03T06:24:59.313</time></trkpt><trkpt lat="55.8882383" lon="49.1636983"><time>2023-06-03T06:25:01.307</time></trkpt><trkpt lat="55.8881783" lon="49.1637550"><time>2023-06-03T06:25:03.357</time></trkpt><trkpt lat="55.8881283" lon="49.1638200"><time>2023-06-03T06:25:05.307</time></trkpt><trkpt lat="55.8880850" lon="49.1638883"><time>2023-06-03T06:25:07.317</time></trkpt><trkpt lat="55.8880433" lon="49.1639333"><time>2023-06-03T06:25:09.317</time></trkpt><trkpt lat="55.8880000" lon="49.1639717"><time>2023-06-03T06:25:11.317</time></trkpt><trkpt lat="55.8879483" lon="49.1640217"><time>2023-06-03T06:25:13.297</time></trkpt><trkpt lat="55.8878917" lon="49.1640783"><time>2023-06-03T06:25:15.330</time></trkpt><trkpt lat="55.8878900" lon="49.1640783"><time>2023-06-03T06:25:16.253</time></trkpt><trkpt lat="55.8878383" lon="49.1641133"><time>2023-06-03T06:25:17.773</time></trkpt><trkpt lat="55.8877933" lon="49.1641417"><time>2023-06-03T06:25:18.803</time></trkpt><trkpt lat="55.8877367" lon="49.1641750"><time>2023-06-03T06:25:20.310</time></trkpt><trkpt lat="55.8876900" lon="49.1642117"><time>2023-06-03T06:25:22.277</time></trkpt><trkpt lat="55.8876283" lon="49.1642767"><time>2023-06-03T06:25:24.300</time></trkpt><trkpt lat="55.8875883" lon="49.1643200"><time>2023-06-03T06:25:29.310</time></trkpt><trkpt lat="55.8875317" lon="49.1643000"><time>2023-06-03T06:25:33.307</time></trkpt><trkpt lat="55.8874817" lon="49.1642883"><time>2023-06-03T06:25:36.327</time></trkpt><trkpt lat="55.8874817" lon="49.1642883"><time>2023-06-03T06:25:37.293</time></trkpt><trkpt lat="55.8874333" lon="49.1643183"><time>2023-06-03T06:25:40.307</time></trkpt><trkpt lat="55.8873917" lon="49.1643600"><time>2023-06-03T06:25:46.307</time></trkpt><trkpt lat="55.8873833" lon="49.1644633"><time>2023-06-03T06:25:54.293</time></trkpt><trkpt lat="55.8872967" lon="49.1645917"><time>2023-06-03T06:25:56.290</time></trkpt><trkpt lat="55.8871717" lon="49.1646667"><time>2023-06-03T06:25:57.283</time></trkpt><trkpt lat="55.8871717" lon="49.1646667"><time>2023-06-03T06:25:57.350</time></trkpt><trkpt lat="55.8872533" lon="49.1646283"><time>2023-06-03T06:25:59.327</time></trkpt><trkpt lat="55.8872600" lon="49.1646300"><time>2023-06-03T06:26:00.393</time></trkpt><trkpt lat="55.8873133" lon="49.1646150"><time>2023-06-03T06:26:01.807</time></trkpt><trkpt lat="55.8873783" lon="49.1646050"><time>2023-06-03T06:26:02.807</time></trkpt><trkpt lat="55.8874417" lon="49.1646067"><time>2023-06-03T06:26:03.807</time></trkpt><trkpt lat="55.8874983" lon="49.1646233"><time>2023-06-03T06:26:05.310</time></trkpt><trkpt lat="55.8875150" lon="49.1645400"><time>2023-06-03T06:26:11.307</time></trkpt><trkpt lat="55.8875467" lon="49.1644650"><time>2023-06-03T06:26:14.310</time></trkpt><trkpt lat="55.8875800" lon="49.1643983"><time>2023-06-03T06:26:17.317</time></trkpt><trkpt lat="55.8876100" lon="49.1643300"><time>2023-06-03T06:26:20.313</time></trkpt><trkpt lat="55.8876483" lon="49.1642883"><time>2023-06-03T06:26:34.323</time></trkpt><trkpt lat="55.8876900" lon="49.1642383"><time>2023-06-03T06:26:36.323</time></trkpt><trkpt lat="55.8877483" lon="49.1641833"><time>2023-06-03T06:26:38.320</time></trkpt><trkpt lat="55.8878050" lon="49.1641200"><time>2023-06-03T06:26:40.297</time></trkpt><trkpt lat="55.8878683" lon="49.1640600"><time>2023-06-03T06:26:42.320</time></trkpt><trkpt lat="55.8879367" lon="49.1639917"><time>2023-06-03T06:26:44.323</time></trkpt><trkpt lat="55.8880083" lon="49.1639217"><time>2023-06-03T06:26:46.320</time></trkpt><trkpt lat="55.8880817" lon="49.1638467"><time>2023-06-03T06:26:48.323</time></trkpt><trkpt lat="55.8881433" lon="49.1637767"><time>2023-06-03T06:26:50.310</time></trkpt><trkpt lat="55.8882067" lon="49.1637150"><time>2023-06-03T06:26:52.317</time></trkpt><trkpt lat="55.8882783" lon="49.1636600"><time>2023-06-03T06:26:54.307</time></trkpt><trkpt lat="55.8883617" lon="49.1636183"><time>2023-06-03T06:26:56.307</time></trkpt><trkpt lat="55.8884067" lon="49.1636067"><time>2023-06-03T06:26:57.330</time></trkpt><trkpt lat="55.8884883" lon="49.1636100"><time>2023-06-03T06:26:59.283</time></trkpt><trkpt lat="55.8885617" lon="49.1636217"><time>2023-06-03T06:27:01.270</time></trkpt><trkpt lat="55.8886450" lon="49.1636017"><time>2023-06-03T06:27:03.303</time></trkpt><trkpt lat="55.8887200" lon="49.1635950"><time>2023-06-03T06:27:05.283</time></trkpt><trkpt lat="55.8887917" lon="49.1635667"><time>2023-06-03T06:27:07.313</time></trkpt><trkpt lat="55.8888600" lon="49.1635400"><time>2023-06-03T06:27:09.313</time></trkpt><trkpt lat="55.8889333" lon="49.1635567"><time>2023-06-03T06:27:11.290</time></trkpt><trkpt lat="55.8890000" lon="49.1635967"><time>2023-06-03T06:27:13.287</time></trkpt><trkpt lat="55.8890650" lon="49.1635250"><time>2023-06-03T06:27:16.283</time></trkpt><trkpt lat="55.8891250" lon="49.1635833"><time>2023-06-03T06:27:18.317</time></trkpt><trkpt lat="55.8891600" lon="49.1636450"><time>2023-06-03T06:27:20.323</time></trkpt><trkpt lat="55.8892033" lon="49.1636800"><time>2023-06-03T06:27:22.320</time></trkpt><trkpt lat="55.8892633" lon="49.1637417"><time>2023-06-03T06:27:24.320</time></trkpt><trkpt lat="55.8893233" lon="49.1638033"><time>2023-06-03T06:27:26.320</time></trkpt><trkpt lat="55.8893950" lon="49.1638767"><time>2023-06-03T06:27:28.317</time></trkpt><trkpt lat="55.8894583" lon="49.1639250"><time>2023-06-03T06:27:30.313</time></trkpt><trkpt lat="55.8895200" lon="49.1639633"><time>2023-06-03T06:27:32.287</time></trkpt><trkpt lat="55.8895867" lon="49.1640183"><time>2023-06-03T06:27:34.320</time></trkpt><trkpt lat="55.8896550" lon="49.1640750"><time>2023-06-03T06:27:36.313</time></trkpt><trkpt lat="55.8897017" lon="49.1640950"><time>2023-06-03T06:27:37.307</time></trkpt><trkpt lat="55.8897783" lon="49.1641533"><time>2023-06-03T06:27:39.303</time></trkpt><trkpt lat="55.8898550" lon="49.1642100"><time>2023-06-03T06:27:41.300</time></trkpt><trkpt lat="55.8899150" lon="49.1642850"><time>2023-06-03T06:27:43.307</time></trkpt><trkpt lat="55.8899617" lon="49.1643900"><time>2023-06-03T06:27:45.307</time></trkpt><trkpt lat="55.8899883" lon="49.1644567"><time>2023-06-03T06:27:46.313</time></trkpt><trkpt lat="55.8900250" lon="49.1645750"><time>2023-06-03T06:27:48.307</time></trkpt><trkpt lat="55.8900633" lon="49.1646983"><time>2023-06-03T06:27:50.317</time></trkpt><trkpt lat="55.8900950" lon="49.1648317"><time>2023-06-03T06:27:52.320</time></trkpt><trkpt lat="55.8901167" lon="49.1649650"><time>2023-06-03T06:27:54.323</time></trkpt><trkpt lat="55.8901417" lon="49.1651083"><time>2023-06-03T06:27:56.327</time></trkpt><trkpt lat="55.8901683" lon="49.1652450"><time>2023-06-03T06:27:58.300</time></trkpt><trkpt lat="55.8901933" lon="49.1653917"><time>2023-06-03T06:28:00.317</time></trkpt><trkpt lat="55.8902033" lon="49.1654700"><time>2023-06-03T06:28:01.317</time></trkpt><trkpt lat="55.8902167" lon="49.1655467"><time>2023-06-03T06:28:02.317</time></trkpt><trkpt lat="55.8902300" lon="49.1656233"><time>2023-06-03T06:28:03.300</time></trkpt><trkpt lat="55.8902467" lon="49.1657017"><time>2023-06-03T06:28:04.307</time></trkpt><trkpt lat="55.8902683" lon="49.1658317"><time>2023-06-03T06:28:06.320</time></trkpt><trkpt lat="55.8903017" lon="49.1659683"><time>2023-06-03T06:28:08.323</time></trkpt><trkpt lat="55.8903300" lon="49.1661200"><time>2023-06-03T06:28:10.313</time></trkpt><trkpt lat="55.8903600" lon="49.1662617"><time>2023-06-03T06:28:12.320</time></trkpt><trkpt lat="55.8903833" lon="49.1664117"><time>2023-06-03T06:28:14.323</time></trkpt><trkpt lat="55.8904067" lon="49.1665650"><time>2023-06-03T06:28:16.317</time></trkpt><trkpt lat="55.8904283" lon="49.1667100"><time>2023-06-03T06:28:18.323</time></trkpt><trkpt lat="55.8904433" lon="49.1667900"><time>2023-06-03T06:28:19.297</time></trkpt><trkpt lat="55.8904783" lon="49.1669333"><time>2023-06-03T06:28:21.310</time></trkpt><trkpt lat="55.8905017" lon="49.1670767"><time>2023-06-03T06:28:23.317</time></trkpt><trkpt lat="55.8905350" lon="49.1672167"><time>2023-06-03T06:28:25.317</time></trkpt><trkpt lat="55.8905717" lon="49.1673433"><time>2023-06-03T06:28:27.303</time></trkpt><trkpt lat="55.8906217" lon="49.1674483"><time>2023-06-03T06:28:29.317</time></trkpt><trkpt lat="55.8906667" lon="49.1675717"><time>2023-06-03T06:28:31.320</time></trkpt><trkpt lat="55.8906967" lon="49.1677033"><time>2023-06-03T06:28:33.317</time></trkpt><trkpt lat="55.8907167" lon="49.1678333"><time>2023-06-03T06:28:35.287</time></trkpt><trkpt lat="55.8907300" lon="49.1679533"><time>2023-06-03T06:28:37.320</time></trkpt><trkpt lat="55.8907400" lon="49.1680800"><time>2023-06-03T06:28:39.320</time></trkpt><trkpt lat="55.8907450" lon="49.1681917"><time>2023-06-03T06:28:41.323</time></trkpt><trkpt lat="55.8907567" lon="49.1682833"><time>2023-06-03T06:28:43.320</time></trkpt><trkpt lat="55.8907483" lon="49.1683650"><time>2023-06-03T06:28:45.320</time></trkpt><trkpt lat="55.8907083" lon="49.1684433"><time>2023-06-03T06:28:48.323</time></trkpt><trkpt lat="55.8906517" lon="49.1685233"><time>2023-06-03T06:28:51.317</time></trkpt><trkpt lat="55.8906033" lon="49.1685883"><time>2023-06-03T06:28:53.323</time></trkpt><trkpt lat="55.8905483" lon="49.1686517"><time>2023-06-03T06:28:55.320</time></trkpt><trkpt lat="55.8904950" lon="49.1687167"><time>2023-06-03T06:28:57.317</time></trkpt><trkpt lat="55.8904317" lon="49.1687867"><time>2023-06-03T06:28:59.323</time></trkpt><trkpt lat="55.8903633" lon="49.1688667"><time>2023-06-03T06:29:01.317</time></trkpt><trkpt lat="55.8902933" lon="49.1689583"><time>2023-06-03T06:29:03.320</time></trkpt><trkpt lat="55.8902183" lon="49.1690517"><time>2023-06-03T06:29:05.320</time></trkpt><trkpt lat="55.8901500" lon="49.1691383"><time>2023-06-03T06:29:07.320</time></trkpt><trkpt lat="55.8900867" lon="49.1692133"><time>2023-06-03T06:29:09.323</time></trkpt><trkpt lat="55.8900233" lon="49.1692833"><time>2023-06-03T06:29:11.320</time></trkpt><trkpt lat="55.8899633" lon="49.1693617"><time>2023-06-03T06:29:13.307</time></trkpt><trkpt lat="55.8899000" lon="49.1694567"><time>2023-06-03T06:29:15.317</time></trkpt><trkpt lat="55.8898350" lon="49.1695467"><time>2023-06-03T06:29:17.317</time></trkpt><trkpt lat="55.8897750" lon="49.1696417"><time>2023-06-03T06:29:19.323</time></trkpt><trkpt lat="55.8897200" lon="49.1697367"><time>2023-06-03T06:29:21.323</time></trkpt><trkpt lat="55.8896700" lon="49.1698317"><time>2023-06-03T06:29:23.327</time></trkpt><trkpt lat="55.8896167" lon="49.1699250"><time>2023-06-03T06:29:25.323</time></trkpt><trkpt lat="55.8895583" lon="49.1700167"><time>2023-06-03T06:29:27.323</time></trkpt><trkpt lat="55.8895000" lon="49.1701100"><time>2023-06-03T06:29:29.323</time></trkpt><trkpt lat="55.8894450" lon="49.1702050"><time>2023-06-03T06:29:31.317</time></trkpt><trkpt lat="55.8893933" lon="49.1703167"><time>2023-06-03T06:29:33.317</time></trkpt><trkpt lat="55.8893683" lon="49.1704367"><time>2023-06-03T06:29:35.287</time></trkpt><trkpt lat="55.8893650" lon="49.1705200"><time>2023-06-03T06:29:36.267</time></trkpt><trkpt lat="55.8893483" lon="49.1706467"><time>2023-06-03T06:29:38.273</time></trkpt><trkpt lat="55.8893633" lon="49.1707633"><time>2023-06-03T06:29:40.307</time></trkpt><trkpt lat="55.8893967" lon="49.1708817"><time>2023-06-03T06:29:42.327</time></trkpt><trkpt lat="55.8894383" lon="49.1709883"><time>2023-06-03T06:29:44.307</time></trkpt><trkpt lat="55.8894950" lon="49.1710950"><time>2023-06-03T06:29:46.290</time></trkpt><trkpt lat="55.8895617" lon="49.1711883"><time>2023-06-03T06:29:48.317</time></trkpt><trkpt lat="55.8896233" lon="49.1712883"><time>2023-06-03T06:29:50.317</time></trkpt><trkpt lat="55.8896783" lon="49.1714067"><time>2023-06-03T06:29:52.283</time></trkpt><trkpt lat="55.8897333" lon="49.1715267"><time>2023-06-03T06:29:54.317</time></trkpt><trkpt lat="55.8897617" lon="49.1715900"><time>2023-06-03T06:29:55.313</time></trkpt><trkpt lat="55.8897883" lon="49.1716550"><time>2023-06-03T06:29:56.317</time></trkpt><trkpt lat="55.8898417" lon="49.1717817"><time>2023-06-03T06:29:58.300</time></trkpt><trkpt lat="55.8898700" lon="49.1718467"><time>2023-06-03T06:29:59.307</time></trkpt><trkpt lat="55.8898983" lon="49.1719150"><time>2023-06-03T06:30:00.320</time></trkpt><trkpt lat="55.8899250" lon="49.1719800"><time>2023-06-03T06:30:01.320</time></trkpt><trkpt lat="55.8899700" lon="49.1721200"><time>2023-06-03T06:30:03.320</time></trkpt><trkpt lat="55.8899900" lon="49.1721983"><time>2023-06-03T06:30:04.320</time></trkpt><trkpt lat="55.8900133" lon="49.1722750"><time>2023-06-03T06:30:05.323</time></trkpt><trkpt lat="55.8900317" lon="49.1723567"><time>2023-06-03T06:30:06.323</time></trkpt><trkpt lat="55.8900483" lon="49.1724350"><time>2023-06-03T06:30:07.320</time></trkpt><trkpt lat="55.8900650" lon="49.1725200"><time>2023-06-03T06:30:08.323</time></trkpt><trkpt lat="55.8900817" lon="49.1726050"><time>2023-06-03T06:30:09.320</time></trkpt><trkpt lat="55.8900967" lon="49.1726917"><time>2023-06-03T06:30:10.320</time></trkpt><trkpt lat="55.8901083" lon="49.1727800"><time>2023-06-03T06:30:11.323</time></trkpt><trkpt lat="55.8901200" lon="49.1728733"><time>2023-06-03T06:30:12.320</time></trkpt><trkpt lat="55.8901333" lon="49.1729733"><time>2023-06-03T06:30:13.320</time></trkpt><trkpt lat="55.8901433" lon="49.1730733"><time>2023-06-03T06:30:14.320</time></trkpt><trkpt lat="55.8901517" lon="49.1731700"><time>2023-06-03T06:30:15.283</time></trkpt><trkpt lat="55.8901583" lon="49.1732733"><time>2023-06-03T06:30:16.307</time></trkpt><trkpt lat="55.8901600" lon="49.1733767"><time>2023-06-03T06:30:17.317</time></trkpt><trkpt lat="55.8901583" lon="49.1734767"><time>2023-06-03T06:30:18.317</time></trkpt><trkpt lat="55.8901583" lon="49.1735700"><time>2023-06-03T06:30:19.317</time></trkpt><trkpt lat="55.8901633" lon="49.1736533"><time>2023-06-03T06:30:20.280</time></trkpt><trkpt lat="55.8901700" lon="49.1738033"><time>2023-06-03T06:30:22.300</time></trkpt><trkpt lat="55.8901833" lon="49.1739583"><time>2023-06-03T06:30:24.307</time></trkpt><trkpt lat="55.8901917" lon="49.1740383"><time>2023-06-03T06:30:25.317</time></trkpt><trkpt lat="55.8902000" lon="49.1741967"><time>2023-06-03T06:30:27.317</time></trkpt><trkpt lat="55.8902000" lon="49.1742800"><time>2023-06-03T06:30:28.323</time></trkpt><trkpt lat="55.8901983" lon="49.1743700"><time>2023-06-03T06:30:29.323</time></trkpt><trkpt lat="55.8901967" lon="49.1744567"><time>2023-06-03T06:30:30.323</time></trkpt><trkpt lat="55.8901917" lon="49.1745433"><time>2023-06-03T06:30:31.323</time></trkpt><trkpt lat="55.8901867" lon="49.1746250"><time>2023-06-03T06:30:32.303</time></trkpt><trkpt lat="55.8901800" lon="49.1747083"><time>2023-06-03T06:30:33.313</time></trkpt><trkpt lat="55.8901700" lon="49.1747983"><time>2023-06-03T06:30:34.287</time></trkpt><trkpt lat="55.8901667" lon="49.1748917"><time>2023-06-03T06:30:35.307</time></trkpt><trkpt lat="55.8901567" lon="49.1749917"><time>2023-06-03T06:30:36.323</time></trkpt><trkpt lat="55.8901417" lon="49.1750883"><time>2023-06-03T06:30:37.317</time></trkpt><trkpt lat="55.8901250" lon="49.1751817"><time>2023-06-03T06:30:38.323</time></trkpt><trkpt lat="55.8901083" lon="49.1752717"><time>2023-06-03T06:30:39.323</time></trkpt><trkpt lat="55.8900917" lon="49.1753617"><time>2023-06-03T06:30:40.323</time></trkpt><trkpt lat="55.8900783" lon="49.1754517"><time>2023-06-03T06:30:41.323</time></trkpt><trkpt lat="55.8900633" lon="49.1755433"><time>2023-06-03T06:30:42.323</time></trkpt><trkpt lat="55.8900483" lon="49.1756417"><time>2023-06-03T06:30:43.323</time></trkpt><trkpt lat="55.8900317" lon="49.1757417"><time>2023-06-03T06:30:44.323</time></trkpt><trkpt lat="55.8900117" lon="49.1758417"><time>2023-06-03T06:30:45.327</time></trkpt><trkpt lat="55.8899900" lon="49.1759333"><time>2023-06-03T06:30:46.323</time></trkpt><trkpt lat="55.8899633" lon="49.1760183"><time>2023-06-03T06:30:47.323</time></trkpt><trkpt lat="55.8899350" lon="49.1761017"><time>2023-06-03T06:30:48.327</time></trkpt><trkpt lat="55.8899033" lon="49.1761850"><time>2023-06-03T06:30:49.323</time></trkpt><trkpt lat="55.8898667" lon="49.1762633"><time>2023-06-03T06:30:50.323</time></trkpt><trkpt lat="55.8898283" lon="49.1763317"><time>2023-06-03T06:30:51.310</time></trkpt><trkpt lat="55.8897900" lon="49.1764017"><time>2023-06-03T06:30:52.317</time></trkpt><trkpt lat="55.8897500" lon="49.1764650"><time>2023-06-03T06:30:53.300</time></trkpt><trkpt lat="55.8897100" lon="49.1765250"><time>2023-06-03T06:30:54.317</time></trkpt><trkpt lat="55.8896667" lon="49.1765917"><time>2023-06-03T06:30:55.323</time></trkpt><trkpt lat="55.8896267" lon="49.1766633"><time>2023-06-03T06:30:56.320</time></trkpt><trkpt lat="55.8895900" lon="49.1767500"><time>2023-06-03T06:30:57.323</time></trkpt><trkpt lat="55.8895583" lon="49.1768450"><time>2023-06-03T06:30:58.320</time></trkpt><trkpt lat="55.8895317" lon="49.1769433"><time>2023-06-03T06:30:59.323</time></trkpt><trkpt lat="55.8895117" lon="49.1770450"><time>2023-06-03T06:31:00.320</time></trkpt><trkpt lat="55.8894983" lon="49.1771467"><time>2023-06-03T06:31:01.320</time></trkpt><trkpt lat="55.8894850" lon="49.1772483"><time>2023-06-03T06:31:02.317</time></trkpt><trkpt lat="55.8894850" lon="49.1773650"><time>2023-06-03T06:31:03.317</time></trkpt><trkpt lat="55.8894733" lon="49.1774717"><time>2023-06-03T06:31:04.323</time></trkpt><trkpt lat="55.8894700" lon="49.1775667"><time>2023-06-03T06:31:05.323</time></trkpt><trkpt lat="55.8894617" lon="49.1776733"><time>2023-06-03T06:31:06.323</time></trkpt><trkpt lat="55.8894617" lon="49.1777650"><time>2023-06-03T06:31:07.323</time></trkpt><trkpt lat="55.8894650" lon="49.1778567"><time>2023-06-03T06:31:08.317</time></trkpt><trkpt lat="55.8894683" lon="49.1779500"><time>2023-06-03T06:31:09.323</time></trkpt><trkpt lat="55.8894783" lon="49.1780417"><time>2023-06-03T06:31:10.320</time></trkpt><trkpt lat="55.8894900" lon="49.1781350"><time>2023-06-03T06:31:11.320</time></trkpt><trkpt lat="55.8895050" lon="49.1782200"><time>2023-06-03T06:31:12.317</time></trkpt><trkpt lat="55.8895233" lon="49.1783067"><time>2023-06-03T06:31:13.323</time></trkpt><trkpt lat="55.8895433" lon="49.1784067"><time>2023-06-03T06:31:14.323</time></trkpt><trkpt lat="55.8895633" lon="49.1785000"><time>2023-06-03T06:31:15.323</time></trkpt><trkpt lat="55.8895817" lon="49.1785883"><time>2023-06-03T06:31:16.320</time></trkpt><trkpt lat="55.8896017" lon="49.1786717"><time>2023-06-03T06:31:17.323</time></trkpt><trkpt lat="55.8896150" lon="49.1787517"><time>2023-06-03T06:31:18.327</time></trkpt><trkpt lat="55.8896300" lon="49.1788400"><time>2023-06-03T06:31:19.320</time></trkpt><trkpt lat="55.8896467" lon="49.1789250"><time>2023-06-03T06:31:20.323</time></trkpt><trkpt lat="55.8896650" lon="49.1790150"><time>2023-06-03T06:31:21.323</time></trkpt><trkpt lat="55.8896783" lon="49.1791083"><time>2023-06-03T06:31:22.323</time></trkpt><trkpt lat="55.8896917" lon="49.1792000"><time>2023-06-03T06:31:23.323</time></trkpt><trkpt lat="55.8897050" lon="49.1792883"><time>2023-06-03T06:31:24.320</time></trkpt><trkpt lat="55.8897100" lon="49.1793733"><time>2023-06-03T06:31:25.323</time></trkpt><trkpt lat="55.8897167" lon="49.1794583"><time>2023-06-03T06:31:26.323</time></trkpt><trkpt lat="55.8897283" lon="49.1795500"><time>2023-06-03T06:31:27.320</time></trkpt><trkpt lat="55.8897400" lon="49.1796400"><time>2023-06-03T06:31:28.323</time></trkpt><trkpt lat="55.8897550" lon="49.1797317"><time>2023-06-03T06:31:29.323</time></trkpt><trkpt lat="55.8897733" lon="49.1798217"><time>2023-06-03T06:31:30.323</time></trkpt><trkpt lat="55.8897850" lon="49.1799133"><time>2023-06-03T06:31:31.320</time></trkpt><trkpt lat="55.8897967" lon="49.1800067"><time>2023-06-03T06:31:32.327</time></trkpt><trkpt lat="55.8898100" lon="49.1800900"><time>2023-06-03T06:31:33.327</time></trkpt><trkpt lat="55.8898200" lon="49.1801783"><time>2023-06-03T06:31:34.320</time></trkpt><trkpt lat="55.8898350" lon="49.1802617"><time>2023-06-03T06:31:35.323</time></trkpt><trkpt lat="55.8898433" lon="49.1803450"><time>2023-06-03T06:31:36.327</time></trkpt><trkpt lat="55.8898500" lon="49.1804267"><time>2023-06-03T06:31:37.320</time></trkpt><trkpt lat="55.8898567" lon="49.1805167"><time>2023-06-03T06:31:38.323</time></trkpt><trkpt lat="55.8898633" lon="49.1806017"><time>2023-06-03T06:31:39.323</time></trkpt><trkpt lat="55.8898700" lon="49.1806833"><time>2023-06-03T06:31:40.323</time></trkpt><trkpt lat="55.8898800" lon="49.1807700"><time>2023-06-03T06:31:41.323</time></trkpt><trkpt lat="55.8898867" lon="49.1808533"><time>2023-06-03T06:31:42.323</time></trkpt><trkpt lat="55.8898950" lon="49.1809400"><time>2023-06-03T06:31:43.327</time></trkpt><trkpt lat="55.8899050" lon="49.1810333"><time>2023-06-03T06:31:44.323</time></trkpt><trkpt lat="55.8899133" lon="49.1811333"><time>2023-06-03T06:31:45.323</time></trkpt><trkpt lat="55.8899233" lon="49.1812267"><time>2023-06-03T06:31:46.327</time></trkpt><trkpt lat="55.8899333" lon="49.1813267"><time>2023-06-03T06:31:47.327</time></trkpt><trkpt lat="55.8899400" lon="49.1814233"><time>2023-06-03T06:31:48.323</time></trkpt><trkpt lat="55.8899500" lon="49.1815217"><time>2023-06-03T06:31:49.320</time></trkpt><trkpt lat="55.8899600" lon="49.1816233"><time>2023-06-03T06:31:50.327</time></trkpt><trkpt lat="55.8899683" lon="49.1817217"><time>2023-06-03T06:31:51.327</time></trkpt><trkpt lat="55.8899767" lon="49.1818267"><time>2023-06-03T06:31:52.320</time></trkpt><trkpt lat="55.8899867" lon="49.1819317"><time>2023-06-03T06:31:53.323</time></trkpt><trkpt lat="55.8899917" lon="49.1820333"><time>2023-06-03T06:31:54.323</time></trkpt><trkpt lat="55.8899883" lon="49.1821367"><time>2023-06-03T06:31:55.320</time></trkpt><trkpt lat="55.8899833" lon="49.1822350"><time>2023-06-03T06:31:56.320</time></trkpt><trkpt lat="55.8899850" lon="49.1823283"><time>2023-06-03T06:31:57.320</time></trkpt><trkpt lat="55.8899833" lon="49.1824250"><time>2023-06-03T06:31:58.323</time></trkpt><trkpt lat="55.8899833" lon="49.1825117"><time>2023-06-03T06:31:59.320</time></trkpt><trkpt lat="55.8899867" lon="49.1826083"><time>2023-06-03T06:32:00.323</time></trkpt><trkpt lat="55.8899900" lon="49.1827050"><time>2023-06-03T06:32:01.323</time></trkpt><trkpt lat="55.8899917" lon="49.1827967"><time>2023-06-03T06:32:02.303</time></trkpt><trkpt lat="55.8899967" lon="49.1828883"><time>2023-06-03T06:32:03.310</time></trkpt><trkpt lat="55.8900017" lon="49.1829833"><time>2023-06-03T06:32:04.320</time></trkpt><trkpt lat="55.8900033" lon="49.1830750"><time>2023-06-03T06:32:05.320</time></trkpt><trkpt lat="55.8900050" lon="49.1831733"><time>2023-06-03T06:32:06.323</time></trkpt><trkpt lat="55.8900033" lon="49.1832700"><time>2023-06-03T06:32:07.323</time></trkpt><trkpt lat="55.8900050" lon="49.1833733"><time>2023-06-03T06:32:08.323</time></trkpt><trkpt lat="55.8900100" lon="49.1834767"><time>2023-06-03T06:32:09.320</time></trkpt><trkpt lat="55.8900183" lon="49.1835700"><time>2023-06-03T06:32:10.310</time></trkpt><trkpt lat="55.8900233" lon="49.1836650"><time>2023-06-03T06:32:11.320</time></trkpt><trkpt lat="55.8900333" lon="49.1837667"><time>2023-06-03T06:32:12.323</time></trkpt><trkpt lat="55.8900367" lon="49.1838700"><time>2023-06-03T06:32:13.323</time></trkpt><trkpt lat="55.8900450" lon="49.1839783"><time>2023-06-03T06:32:14.327</time></trkpt><trkpt lat="55.8900533" lon="49.1840900"><time>2023-06-03T06:32:15.283</time></trkpt><trkpt lat="55.8900600" lon="49.1841950"><time>2023-06-03T06:32:16.313</time></trkpt><trkpt lat="55.8900600" lon="49.1842867"><time>2023-06-03T06:32:17.317</time></trkpt><trkpt lat="55.8900567" lon="49.1843683"><time>2023-06-03T06:32:18.323</time></trkpt><trkpt lat="55.8900517" lon="49.1844583"><time>2023-06-03T06:32:19.323</time></trkpt><trkpt lat="55.8900350" lon="49.1846150"><time>2023-06-03T06:32:21.323</time></trkpt><trkpt lat="55.8900233" lon="49.1846950"><time>2023-06-03T06:32:22.327</time></trkpt><trkpt lat="55.8899917" lon="49.1848333"><time>2023-06-03T06:32:24.317</time></trkpt><trkpt lat="55.8899833" lon="49.1849833"><time>2023-06-03T06:32:26.320</time></trkpt><trkpt lat="55.8900050" lon="49.1851333"><time>2023-06-03T06:32:28.323</time></trkpt><trkpt lat="55.8900300" lon="49.1852200"><time>2023-06-03T06:32:29.323</time></trkpt><trkpt lat="55.8900600" lon="49.1853100"><time>2023-06-03T06:32:30.320</time></trkpt><trkpt lat="55.8900867" lon="49.1853767"><time>2023-06-03T06:32:31.320</time></trkpt><trkpt lat="55.8901233" lon="49.1854333"><time>2023-06-03T06:32:32.323</time></trkpt><trkpt lat="55.8901967" lon="49.1855383"><time>2023-06-03T06:32:34.317</time></trkpt><trkpt lat="55.8902333" lon="49.1855983"><time>2023-06-03T06:32:35.323</time></trkpt><trkpt lat="55.8902600" lon="49.1856717"><time>2023-06-03T06:32:36.323</time></trkpt><trkpt lat="55.8902917" lon="49.1857433"><time>2023-06-03T06:32:37.323</time></trkpt><trkpt lat="55.8903267" lon="49.1858183"><time>2023-06-03T06:32:38.323</time></trkpt><trkpt lat="55.8903567" lon="49.1858967"><time>2023-06-03T06:32:39.323</time></trkpt><trkpt lat="55.8903867" lon="49.1859717"><time>2023-06-03T06:32:40.323</time></trkpt><trkpt lat="55.8904217" lon="49.1860517"><time>2023-06-03T06:32:41.323</time></trkpt><trkpt lat="55.8904617" lon="49.1861267"><time>2023-06-03T06:32:42.323</time></trkpt><trkpt lat="55.8904933" lon="49.1862017"><time>2023-06-03T06:32:43.323</time></trkpt><trkpt lat="55.8905200" lon="49.1862700"><time>2023-06-03T06:32:44.323</time></trkpt><trkpt lat="55.8905517" lon="49.1864083"><time>2023-06-03T06:32:46.307</time></trkpt><trkpt lat="55.8905717" lon="49.1865267"><time>2023-06-03T06:32:48.317</time></trkpt><trkpt lat="55.8906083" lon="49.1866367"><time>2023-06-03T06:32:51.313</time></trkpt><trkpt lat="55.8906400" lon="49.1867233"><time>2023-06-03T06:32:53.323</time></trkpt><trkpt lat="55.8906850" lon="49.1868050"><time>2023-06-03T06:32:56.317</time></trkpt><trkpt lat="55.8907467" lon="49.1868700"><time>2023-06-03T06:32:59.327</time></trkpt><trkpt lat="55.8907783" lon="49.1869483"><time>2023-06-03T06:33:01.293</time></trkpt><trkpt lat="55.8908117" lon="49.1870517"><time>2023-06-03T06:33:04.303</time></trkpt><trkpt lat="55.8908533" lon="49.1871250"><time>2023-06-03T06:33:06.323</time></trkpt><trkpt lat="55.8909017" lon="49.1872383"><time>2023-06-03T06:33:08.320</time></trkpt><trkpt lat="55.8909433" lon="49.1873533"><time>2023-06-03T06:33:10.317</time></trkpt><trkpt lat="55.8909783" lon="49.1874950"><time>2023-06-03T06:33:12.323</time></trkpt><trkpt lat="55.8909917" lon="49.1875767"><time>2023-06-03T06:33:13.323</time></trkpt><trkpt lat="55.8910050" lon="49.1876567"><time>2023-06-03T06:33:14.320</time></trkpt><trkpt lat="55.8910250" lon="49.1877400"><time>2023-06-03T06:33:15.323</time></trkpt><trkpt lat="55.8910400" lon="49.1878200"><time>2023-06-03T06:33:16.323</time></trkpt><trkpt lat="55.8910700" lon="49.1879633"><time>2023-06-03T06:33:18.320</time></trkpt><trkpt lat="55.8911017" lon="49.1881033"><time>2023-06-03T06:33:20.323</time></trkpt><trkpt lat="55.8911433" lon="49.1882383"><time>2023-06-03T06:33:22.323</time></trkpt><trkpt lat="55.8911683" lon="49.1883067"><time>2023-06-03T06:33:23.323</time></trkpt><trkpt lat="55.8911933" lon="49.1883750"><time>2023-06-03T06:33:24.323</time></trkpt><trkpt lat="55.8912200" lon="49.1884450"><time>2023-06-03T06:33:25.323</time></trkpt><trkpt lat="55.8912083" lon="49.1885800"><time>2023-06-03T06:33:27.327</time></trkpt><trkpt lat="55.8911567" lon="49.1887083"><time>2023-06-03T06:33:29.323</time></trkpt><trkpt lat="55.8911217" lon="49.1888317"><time>2023-06-03T06:33:31.323</time></trkpt><trkpt lat="55.8911000" lon="49.1889550"><time>2023-06-03T06:33:33.323</time></trkpt><trkpt lat="55.8910883" lon="49.1890617"><time>2023-06-03T06:33:35.323</time></trkpt><trkpt lat="55.8910783" lon="49.1891417"><time>2023-06-03T06:33:37.323</time></trkpt><trkpt lat="55.8910767" lon="49.1892400"><time>2023-06-03T06:33:39.283</time></trkpt><trkpt lat="55.8910883" lon="49.1893667"><time>2023-06-03T06:33:41.297</time></trkpt><trkpt lat="55.8910733" lon="49.1894467"><time>2023-06-03T06:33:43.307</time></trkpt><trkpt lat="55.8910717" lon="49.1895417"><time>2023-06-03T06:33:45.307</time></trkpt><trkpt lat="55.8910667" lon="49.1896633"><time>2023-06-03T06:33:47.317</time></trkpt><trkpt lat="55.8910600" lon="49.1898067"><time>2023-06-03T06:33:49.310</time></trkpt><trkpt lat="55.8910467" lon="49.1899017"><time>2023-06-03T06:33:51.307</time></trkpt><trkpt lat="55.8910367" lon="49.1900067"><time>2023-06-03T06:34:07.313</time></trkpt><trkpt lat="55.8910200" lon="49.1900817"><time>2023-06-03T06:34:09.307</time></trkpt><trkpt lat="55.8910033" lon="49.1901817"><time>2023-06-03T06:34:11.320</time></trkpt><trkpt lat="55.8909633" lon="49.1902717"><time>2023-06-03T06:34:13.310</time></trkpt><trkpt lat="55.8909233" lon="49.1903717"><time>2023-06-03T06:34:15.317</time></trkpt><trkpt lat="55.8908833" lon="49.1904867"><time>2023-06-03T06:34:17.320</time></trkpt><trkpt lat="55.8908283" lon="49.1905983"><time>2023-06-03T06:34:19.320</time></trkpt><trkpt lat="55.8907600" lon="49.1906733"><time>2023-06-03T06:34:21.320</time></trkpt><trkpt lat="55.8906750" lon="49.1907450"><time>2023-06-03T06:34:23.320</time></trkpt><trkpt lat="55.8906267" lon="49.1907817"><time>2023-06-03T06:34:24.323</time></trkpt><trkpt lat="55.8905767" lon="49.1908050"><time>2023-06-03T06:34:25.320</time></trkpt><trkpt lat="55.8905217" lon="49.1908417"><time>2023-06-03T06:34:26.323</time></trkpt><trkpt lat="55.8904667" lon="49.1908850"><time>2023-06-03T06:34:27.313</time></trkpt><trkpt lat="55.8904200" lon="49.1909300"><time>2023-06-03T06:34:28.317</time></trkpt><trkpt lat="55.8903767" lon="49.1909750"><time>2023-06-03T06:34:29.323</time></trkpt><trkpt lat="55.8903350" lon="49.1910133"><time>2023-06-03T06:34:30.323</time></trkpt><trkpt lat="55.8902667" lon="49.1911117"><time>2023-06-03T06:34:32.320</time></trkpt><trkpt lat="55.8902283" lon="49.1911583"><time>2023-06-03T06:34:33.310</time></trkpt><trkpt lat="55.8901583" lon="49.1912333"><time>2023-06-03T06:34:35.323</time></trkpt><trkpt lat="55.8900833" lon="49.1912967"><time>2023-06-03T06:34:37.320</time></trkpt><trkpt lat="55.8900133" lon="49.1913383"><time>2023-06-03T06:34:39.320</time></trkpt><trkpt lat="55.8899517" lon="49.1913850"><time>2023-06-03T06:34:41.323</time></trkpt><trkpt lat="55.8898850" lon="49.1914417"><time>2023-06-03T06:34:43.320</time></trkpt><trkpt lat="55.8898283" lon="49.1915033"><time>2023-06-03T06:34:45.320</time></trkpt><trkpt lat="55.8897833" lon="49.1915717"><time>2023-06-03T06:34:47.320</time></trkpt><trkpt lat="55.8897517" lon="49.1916700"><time>2023-06-03T06:34:49.320</time></trkpt><trkpt lat="55.8897283" lon="49.1918050"><time>2023-06-03T06:34:51.313</time></trkpt><trkpt lat="55.8897267" lon="49.1919483"><time>2023-06-03T06:34:53.313</time></trkpt><trkpt lat="55.8897350" lon="49.1920850"><time>2023-06-03T06:34:55.323</time></trkpt><trkpt lat="55.8897450" lon="49.1922100"><time>2023-06-03T06:34:57.320</time></trkpt><trkpt lat="55.8897617" lon="49.1923017"><time>2023-06-03T06:34:59.323</time></trkpt><trkpt lat="55.8897800" lon="49.1923867"><time>2023-06-03T06:35:01.317</time></trkpt><trkpt lat="55.8898133" lon="49.1924850"><time>2023-06-03T06:35:03.323</time></trkpt><trkpt lat="55.8898450" lon="49.1926300"><time>2023-06-03T06:35:05.320</time></trkpt><trkpt lat="55.8898500" lon="49.1927783"><time>2023-06-03T06:35:07.320</time></trkpt><trkpt lat="55.8898700" lon="49.1929183"><time>2023-06-03T06:35:09.317</time></trkpt><trkpt lat="55.8898883" lon="49.1929967"><time>2023-06-03T06:35:10.317</time></trkpt><trkpt lat="55.8899067" lon="49.1931383"><time>2023-06-03T06:35:12.320</time></trkpt><trkpt lat="55.8899167" lon="49.1932617"><time>2023-06-03T06:35:14.323</time></trkpt><trkpt lat="55.8899500" lon="49.1933767"><time>2023-06-03T06:35:16.317</time></trkpt><trkpt lat="55.8899800" lon="49.1934767"><time>2023-06-03T06:35:18.317</time></trkpt><trkpt lat="55.8900283" lon="49.1936033"><time>2023-06-03T06:35:20.320</time></trkpt><trkpt lat="55.8900683" lon="49.1937300"><time>2023-06-03T06:35:22.320</time></trkpt><trkpt lat="55.8901067" lon="49.1938783"><time>2023-06-03T06:35:24.323</time></trkpt><trkpt lat="55.8901300" lon="49.1940017"><time>2023-06-03T06:35:26.320</time></trkpt><trkpt lat="55.8901267" lon="49.1941183"><time>2023-06-03T06:35:28.317</time></trkpt><trkpt lat="55.8901200" lon="49.1942417"><time>2023-06-03T06:35:30.320</time></trkpt><trkpt lat="55.8901550" lon="49.1943683"><time>2023-06-03T06:35:32.323</time></trkpt><trkpt lat="55.8901783" lon="49.1944933"><time>2023-06-03T06:35:34.320</time></trkpt><trkpt lat="55.8901917" lon="49.1946217"><time>2023-06-03T06:35:36.320</time></trkpt><trkpt lat="55.8902000" lon="49.1947333"><time>2023-06-03T06:35:38.317</time></trkpt><trkpt lat="55.8902117" lon="49.1948533"><time>2023-06-03T06:35:40.320</time></trkpt><trkpt lat="55.8902017" lon="49.1949583"><time>2023-06-03T06:35:42.320</time></trkpt><trkpt lat="55.8901883" lon="49.1950467"><time>2023-06-03T06:35:44.320</time></trkpt><trkpt lat="55.8901950" lon="49.1951417"><time>2023-06-03T06:35:47.323</time></trkpt><trkpt lat="55.8901800" lon="49.1952250"><time>2023-06-03T06:35:50.320</time></trkpt><trkpt lat="55.8901233" lon="49.1952017"><time>2023-06-03T06:35:53.320</time></trkpt><trkpt lat="55.8900683" lon="49.1951733"><time>2023-06-03T06:35:55.320</time></trkpt><trkpt lat="55.8900167" lon="49.1951550"><time>2023-06-03T06:35:57.320</time></trkpt><trkpt lat="55.8899717" lon="49.1951300"><time>2023-06-03T06:35:59.317</time></trkpt><trkpt lat="55.8899300" lon="49.1950850"><time>2023-06-03T06:36:01.320</time></trkpt><trkpt lat="55.8898867" lon="49.1950500"><time>2023-06-03T06:36:03.317</time></trkpt><trkpt lat="55.8898217" lon="49.1949983"><time>2023-06-03T06:36:05.327</time></trkpt><trkpt lat="55.8897767" lon="49.1949533"><time>2023-06-03T06:36:07.320</time></trkpt><trkpt lat="55.8897300" lon="49.1949333"><time>2023-06-03T06:36:09.320</time></trkpt><trkpt lat="55.8896867" lon="49.1948800"><time>2023-06-03T06:36:12.320</time></trkpt><trkpt lat="55.8896533" lon="49.1947967"><time>2023-06-03T06:36:14.317</time></trkpt><trkpt lat="55.8896283" lon="49.1946950"><time>2023-06-03T06:36:17.320</time></trkpt><trkpt lat="55.8896133" lon="49.1946067"><time>2023-06-03T06:36:19.323</time></trkpt><trkpt lat="55.8896000" lon="49.1945100"><time>2023-06-03T06:36:21.320</time></trkpt><trkpt lat="55.8895883" lon="49.1944200"><time>2023-06-03T06:36:23.317</time></trkpt><trkpt lat="55.8895817" lon="49.1943283"><time>2023-06-03T06:36:25.317</time></trkpt><trkpt lat="55.8895733" lon="49.1942283"><time>2023-06-03T06:36:27.320</time></trkpt><trkpt lat="55.8895567" lon="49.1941417"><time>2023-06-03T06:36:29.307</time></trkpt><trkpt lat="55.8895417" lon="49.1942567"><time>2023-06-03T06:37:05.310</time></trkpt><trkpt lat="55.8895433" lon="49.1943583"><time>2023-06-03T06:37:07.320</time></trkpt><trkpt lat="55.8895417" lon="49.1944433"><time>2023-06-03T06:37:09.310</time></trkpt><trkpt lat="55.8895467" lon="49.1945233"><time>2023-06-03T06:37:11.327</time></trkpt><trkpt lat="55.8895567" lon="49.1946317"><time>2023-06-03T06:37:14.327</time></trkpt><trkpt lat="55.8895700" lon="49.1947250"><time>2023-06-03T06:37:16.323</time></trkpt><trkpt lat="55.8895933" lon="49.1948183"><time>2023-06-03T06:37:18.323</time></trkpt><trkpt lat="55.8896183" lon="49.1948867"><time>2023-06-03T06:37:20.320</time></trkpt><trkpt lat="55.8896700" lon="49.1949617"><time>2023-06-03T06:37:23.323</time></trkpt><trkpt lat="55.8897133" lon="49.1949867"><time>2023-06-03T06:37:25.323</time></trkpt><trkpt lat="55.8897717" lon="49.1950100"><time>2023-06-03T06:37:28.323</time></trkpt><trkpt lat="55.8898183" lon="49.1950317"><time>2023-06-03T06:37:30.323</time></trkpt><trkpt lat="55.8898700" lon="49.1950600"><time>2023-06-03T06:37:32.323</time></trkpt><trkpt lat="55.8899167" lon="49.1950933"><time>2023-06-03T06:37:34.323</time></trkpt><trkpt lat="55.8899633" lon="49.1951350"><time>2023-06-03T06:37:36.323</time></trkpt><trkpt lat="55.8900067" lon="49.1951667"><time>2023-06-03T06:37:38.323</time></trkpt><trkpt lat="55.8900600" lon="49.1951683"><time>2023-06-03T06:37:41.313</time></trkpt><trkpt lat="55.8901117" lon="49.1951900"><time>2023-06-03T06:38:00.317</time></trkpt><trkpt lat="55.8901733" lon="49.1952333"><time>2023-06-03T06:38:03.317</time></trkpt><trkpt lat="55.8902283" lon="49.1953050"><time>2023-06-03T06:38:05.320</time></trkpt><trkpt lat="55.8902783" lon="49.1953817"><time>2023-06-03T06:38:07.320</time></trkpt><trkpt lat="55.8903233" lon="49.1954583"><time>2023-06-03T06:38:09.323</time></trkpt><trkpt lat="55.8903650" lon="49.1955550"><time>2023-06-03T06:38:11.323</time></trkpt><trkpt lat="55.8903917" lon="49.1956467"><time>2023-06-03T06:38:13.323</time></trkpt><trkpt lat="55.8904050" lon="49.1957483"><time>2023-06-03T06:38:15.323</time></trkpt><trkpt lat="55.8904267" lon="49.1958517"><time>2023-06-03T06:38:17.320</time></trkpt><trkpt lat="55.8904533" lon="49.1959483"><time>2023-06-03T06:38:19.323</time></trkpt><trkpt lat="55.8904583" lon="49.1960550"><time>2023-06-03T06:38:21.320</time></trkpt><trkpt lat="55.8904650" lon="49.1961483"><time>2023-06-03T06:38:23.310</time></trkpt><trkpt lat="55.8904700" lon="49.1962317"><time>2023-06-03T06:38:25.320</time></trkpt><trkpt lat="55.8904817" lon="49.1963150"><time>2023-06-03T06:38:27.323</time></trkpt><trkpt lat="55.8904850" lon="49.1964000"><time>2023-06-03T06:38:29.320</time></trkpt><trkpt lat="55.8904883" lon="49.1964950"><time>2023-06-03T06:38:31.323</time></trkpt><trkpt lat="55.8904817" lon="49.1966083"><time>2023-06-03T06:38:33.313</time></trkpt><trkpt lat="55.8904783" lon="49.1967417"><time>2023-06-03T06:38:35.327</time></trkpt><trkpt lat="55.8904767" lon="49.1968633"><time>2023-06-03T06:38:37.320</time></trkpt><trkpt lat="55.8904783" lon="49.1969833"><time>2023-06-03T06:38:39.307</time></trkpt><trkpt lat="55.8904867" lon="49.1971233"><time>2023-06-03T06:38:41.323</time></trkpt><trkpt lat="55.8904850" lon="49.1972467"><time>2023-06-03T06:38:43.320</time></trkpt><trkpt lat="55.8904800" lon="49.1973750"><time>2023-06-03T06:38:45.327</time></trkpt><trkpt lat="55.8904633" lon="49.1974733"><time>2023-06-03T06:38:47.320</time></trkpt><trkpt lat="55.8904267" lon="49.1975300"><time>2023-06-03T06:38:49.320</time></trkpt><trkpt lat="55.8903750" lon="49.1975383"><time>2023-06-03T06:38:52.320</time></trkpt><trkpt lat="55.8903233" lon="49.1975500"><time>2023-06-03T06:38:55.323</time></trkpt><trkpt lat="55.8902433" lon="49.1975067"><time>2023-06-03T06:39:36.320</time></trkpt><trkpt lat="55.8901833" lon="49.1975117"><time>2023-06-03T06:39:38.320</time></trkpt><trkpt lat="55.8901150" lon="49.1975333"><time>2023-06-03T06:39:40.320</time></trkpt><trkpt lat="55.8900450" lon="49.1975450"><time>2023-06-03T06:39:42.320</time></trkpt><trkpt lat="55.8899817" lon="49.1975417"><time>2023-06-03T06:39:44.323</time></trkpt><trkpt lat="55.8899233" lon="49.1975250"><time>2023-06-03T06:39:46.320</time></trkpt><trkpt lat="55.8898683" lon="49.1975167"><time>2023-06-03T06:39:48.310</time></trkpt><trkpt lat="55.8898067" lon="49.1975267"><time>2023-06-03T06:39:50.320</time></trkpt><trkpt lat="55.8897467" lon="49.1975183"><time>2023-06-03T06:39:52.317</time></trkpt><trkpt lat="55.8896933" lon="49.1975050"><time>2023-06-03T06:39:54.307</time></trkpt><trkpt lat="55.8896233" lon="49.1975017"><time>2023-06-03T06:40:19.323</time></trkpt><trkpt lat="55.8895900" lon="49.1974350"><time>2023-06-03T06:40:22.323</time></trkpt><trkpt lat="55.8895400" lon="49.1974117"><time>2023-06-03T06:40:25.320</time></trkpt><trkpt lat="55.8894967" lon="49.1973800"><time>2023-06-03T06:40:27.323</time></trkpt><trkpt lat="55.8894550" lon="49.1973300"><time>2023-06-03T06:40:29.323</time></trkpt><trkpt lat="55.8894200" lon="49.1972533"><time>2023-06-03T06:40:31.320</time></trkpt><trkpt lat="55.8893833" lon="49.1971983"><time>2023-06-03T06:40:33.283</time></trkpt><trkpt lat="55.8893417" lon="49.1971450"><time>2023-06-03T06:40:35.317</time></trkpt><trkpt lat="55.8892983" lon="49.1970667"><time>2023-06-03T06:40:37.307</time></trkpt><trkpt lat="55.8892567" lon="49.1969683"><time>2023-06-03T06:40:39.290</time></trkpt><trkpt lat="55.8892100" lon="49.1968350"><time>2023-06-03T06:40:41.317</time></trkpt><trkpt lat="55.8891867" lon="49.1967633"><time>2023-06-03T06:40:42.317</time></trkpt><trkpt lat="55.8891617" lon="49.1966967"><time>2023-06-03T06:40:43.317</time></trkpt><trkpt lat="55.8891383" lon="49.1966267"><time>2023-06-03T06:40:44.317</time></trkpt><trkpt lat="55.8890850" lon="49.1965083"><time>2023-06-03T06:40:46.317</time></trkpt><trkpt lat="55.8890250" lon="49.1964000"><time>2023-06-03T06:40:48.317</time></trkpt><trkpt lat="55.8889700" lon="49.1962933"><time>2023-06-03T06:40:50.320</time></trkpt><trkpt lat="55.8889183" lon="49.1961850"><time>2023-06-03T06:40:52.317</time></trkpt><trkpt lat="55.8888633" lon="49.1960900"><time>2023-06-03T06:40:54.320</time></trkpt><trkpt lat="55.8888117" lon="49.1960200"><time>2023-06-03T06:40:56.323</time></trkpt><trkpt lat="55.8887600" lon="49.1959483"><time>2023-06-03T06:40:58.323</time></trkpt><trkpt lat="55.8887017" lon="49.1958600"><time>2023-06-03T06:41:00.310</time></trkpt><trkpt lat="55.8886517" lon="49.1957400"><time>2023-06-03T06:41:02.313</time></trkpt><trkpt lat="55.8886033" lon="49.1956267"><time>2023-06-03T06:41:04.317</time></trkpt><trkpt lat="55.8885483" lon="49.1955250"><time>2023-06-03T06:41:06.323</time></trkpt><trkpt lat="55.8884850" lon="49.1954167"><time>2023-06-03T06:41:08.323</time></trkpt><trkpt lat="55.8884600" lon="49.1953483"><time>2023-06-03T06:41:09.323</time></trkpt><trkpt lat="55.8884100" lon="49.1952283"><time>2023-06-03T06:41:11.323</time></trkpt><trkpt lat="55.8883733" lon="49.1951800"><time>2023-06-03T06:41:12.300</time></trkpt><trkpt lat="55.8883433" lon="49.1951167"><time>2023-06-03T06:41:13.310</time></trkpt><trkpt lat="55.8882850" lon="49.1950017"><time>2023-06-03T06:41:15.317</time></trkpt><trkpt lat="55.8882350" lon="49.1948817"><time>2023-06-03T06:41:17.327</time></trkpt><trkpt lat="55.8881700" lon="49.1947667"><time>2023-06-03T06:41:19.323</time></trkpt><trkpt lat="55.8881350" lon="49.1947150"><time>2023-06-03T06:41:20.323</time></trkpt><trkpt lat="55.8880733" lon="49.1946250"><time>2023-06-03T06:41:22.320</time></trkpt><trkpt lat="55.8880167" lon="49.1945167"><time>2023-06-03T06:41:24.327</time></trkpt><trkpt lat="55.8879883" lon="49.1944517"><time>2023-06-03T06:41:25.327</time></trkpt><trkpt lat="55.8879617" lon="49.1943383"><time>2023-06-03T06:41:27.323</time></trkpt><trkpt lat="55.8879467" lon="49.1942450"><time>2023-06-03T06:41:30.327</time></trkpt><trkpt lat="55.8879150" lon="49.1943450"><time>2023-06-03T06:41:55.320</time></trkpt><trkpt lat="55.8878750" lon="49.1944483"><time>2023-06-03T06:41:57.320</time></trkpt><trkpt lat="55.8878150" lon="49.1945183"><time>2023-06-03T06:41:59.317</time></trkpt><trkpt lat="55.8877783" lon="49.1945767"><time>2023-06-03T06:42:00.317</time></trkpt><trkpt lat="55.8877467" lon="49.1946400"><time>2023-06-03T06:42:01.320</time></trkpt><trkpt lat="55.8877117" lon="49.1947000"><time>2023-06-03T06:42:02.317</time></trkpt><trkpt lat="55.8876483" lon="49.1948100"><time>2023-06-03T06:42:04.323</time></trkpt><trkpt lat="55.8876150" lon="49.1948783"><time>2023-06-03T06:42:05.320</time></trkpt><trkpt lat="55.8875817" lon="49.1949417"><time>2023-06-03T06:42:06.317</time></trkpt><trkpt lat="55.8875533" lon="49.1950183"><time>2023-06-03T06:42:07.323</time></trkpt><trkpt lat="55.8875217" lon="49.1950850"><time>2023-06-03T06:42:08.323</time></trkpt><trkpt lat="55.8874950" lon="49.1951533"><time>2023-06-03T06:42:09.323</time></trkpt><trkpt lat="55.8874583" lon="49.1952167"><time>2023-06-03T06:42:10.320</time></trkpt><trkpt lat="55.8874233" lon="49.1952800"><time>2023-06-03T06:42:11.320</time></trkpt><trkpt lat="55.8873850" lon="49.1953417"><time>2023-06-03T06:42:12.323</time></trkpt><trkpt lat="55.8873533" lon="49.1954067"><time>2023-06-03T06:42:13.320</time></trkpt><trkpt lat="55.8873183" lon="49.1954767"><time>2023-06-03T06:42:14.323</time></trkpt><trkpt lat="55.8872867" lon="49.1955433"><time>2023-06-03T06:42:15.320</time></trkpt><trkpt lat="55.8872517" lon="49.1956083"><time>2023-06-03T06:42:16.310</time></trkpt><trkpt lat="55.8871983" lon="49.1957150"><time>2023-06-03T06:42:18.320</time></trkpt><trkpt lat="55.8871350" lon="49.1958083"><time>2023-06-03T06:42:20.323</time></trkpt><trkpt lat="55.8870683" lon="49.1959033"><time>2023-06-03T06:42:22.320</time></trkpt><trkpt lat="55.8870117" lon="49.1960133"><time>2023-06-03T06:42:24.323</time></trkpt><trkpt lat="55.8869550" lon="49.1960900"><time>2023-06-03T06:42:26.323</time></trkpt><trkpt lat="55.8869267" lon="49.1961733"><time>2023-06-03T06:42:28.323</time></trkpt><trkpt lat="55.8869500" lon="49.1962483"><time>2023-06-03T06:42:30.320</time></trkpt><trkpt lat="55.8869983" lon="49.1962950"><time>2023-06-03T06:42:32.323</time></trkpt><trkpt lat="55.8870367" lon="49.1963583"><time>2023-06-03T06:42:34.323</time></trkpt><trkpt lat="55.8870883" lon="49.1964383"><time>2023-06-03T06:42:36.320</time></trkpt><trkpt lat="55.8871500" lon="49.1965200"><time>2023-06-03T06:42:38.310</time></trkpt><trkpt lat="55.8872183" lon="49.1966233"><time>2023-06-03T06:42:40.320</time></trkpt><trkpt lat="55.8872567" lon="49.1966683"><time>2023-06-03T06:42:41.320</time></trkpt><trkpt lat="55.8873033" lon="49.1967033"><time>2023-06-03T06:42:42.313</time></trkpt><trkpt lat="55.8873467" lon="49.1967550"><time>2023-06-03T06:42:43.320</time></trkpt><trkpt lat="55.8874017" lon="49.1968467"><time>2023-06-03T06:42:45.323</time></trkpt><trkpt lat="55.8874617" lon="49.1969433"><time>2023-06-03T06:42:47.320</time></trkpt><trkpt lat="55.8875083" lon="49.1969933"><time>2023-06-03T06:42:48.320</time></trkpt><trkpt lat="55.8875583" lon="49.1970350"><time>2023-06-03T06:42:49.317</time></trkpt><trkpt lat="55.8876067" lon="49.1970633"><time>2023-06-03T06:42:50.323</time></trkpt><trkpt lat="55.8876550" lon="49.1971017"><time>2023-06-03T06:42:51.303</time></trkpt><trkpt lat="55.8877083" lon="49.1971450"><time>2023-06-03T06:42:52.310</time></trkpt><trkpt lat="55.8877483" lon="49.1971967"><time>2023-06-03T06:42:53.320</time></trkpt><trkpt lat="55.8877850" lon="49.1972433"><time>2023-06-03T06:42:54.317</time></trkpt><trkpt lat="55.8878517" lon="49.1973150"><time>2023-06-03T06:42:56.323</time></trkpt><trkpt lat="55.8879217" lon="49.1974283"><time>2023-06-03T06:42:58.323</time></trkpt><trkpt lat="55.8879667" lon="49.1974917"><time>2023-06-03T06:42:59.323</time></trkpt><trkpt lat="55.8880167" lon="49.1975600"><time>2023-06-03T06:43:00.317</time></trkpt><trkpt lat="55.8880650" lon="49.1976250"><time>2023-06-03T06:43:01.320</time></trkpt><trkpt lat="55.8881033" lon="49.1976867"><time>2023-06-03T06:43:02.317</time></trkpt><trkpt lat="55.8881383" lon="49.1977467"><time>2023-06-03T06:43:03.320</time></trkpt><trkpt lat="55.8881817" lon="49.1977983"><time>2023-06-03T06:43:04.320</time></trkpt><trkpt lat="55.8882250" lon="49.1978483"><time>2023-06-03T06:43:05.323</time></trkpt><trkpt lat="55.8882600" lon="49.1979017"><time>2023-06-03T06:43:06.323</time></trkpt><trkpt lat="55.8882917" lon="49.1979617"><time>2023-06-03T06:43:07.320</time></trkpt><trkpt lat="55.8883283" lon="49.1980150"><time>2023-06-03T06:43:08.317</time></trkpt><trkpt lat="55.8883717" lon="49.1980667"><time>2023-06-03T06:43:09.317</time></trkpt><trkpt lat="55.8884100" lon="49.1981117"><time>2023-06-03T06:43:10.317</time></trkpt><trkpt lat="55.8884467" lon="49.1981600"><time>2023-06-03T06:43:11.317</time></trkpt><trkpt lat="55.8885100" lon="49.1982600"><time>2023-06-03T06:43:13.320</time></trkpt><trkpt lat="55.8885700" lon="49.1983550"><time>2023-06-03T06:43:15.323</time></trkpt><trkpt lat="55.8886267" lon="49.1984650"><time>2023-06-03T06:43:17.320</time></trkpt><trkpt lat="55.8886917" lon="49.1985650"><time>2023-06-03T06:43:19.320</time></trkpt><trkpt lat="55.8887500" lon="49.1986700"><time>2023-06-03T06:43:21.320</time></trkpt><trkpt lat="55.8887800" lon="49.1987300"><time>2023-06-03T06:43:22.323</time></trkpt><trkpt lat="55.8888467" lon="49.1988383"><time>2023-06-03T06:43:24.320</time></trkpt><trkpt lat="55.8889100" lon="49.1989250"><time>2023-06-03T06:43:26.320</time></trkpt><trkpt lat="55.8889617" lon="49.1989433"><time>2023-06-03T06:43:28.320</time></trkpt><trkpt lat="55.8890283" lon="49.1989367"><time>2023-06-03T06:43:31.307</time></trkpt><trkpt lat="55.8890867" lon="49.1989017"><time>2023-06-03T06:43:33.317</time></trkpt><trkpt lat="55.8891683" lon="49.1988400"><time>2023-06-03T06:43:35.323</time></trkpt><trkpt lat="55.8892417" lon="49.1987783"><time>2023-06-03T06:43:37.320</time></trkpt><trkpt lat="55.8892833" lon="49.1987433"><time>2023-06-03T06:43:38.323</time></trkpt><trkpt lat="55.8893550" lon="49.1986850"><time>2023-06-03T06:43:40.320</time></trkpt><trkpt lat="55.8894133" lon="49.1986367"><time>2023-06-03T06:43:42.327</time></trkpt><trkpt lat="55.8894800" lon="49.1985967"><time>2023-06-03T06:43:44.327</time></trkpt><trkpt lat="55.8895417" lon="49.1985500"><time>2023-06-03T06:43:46.327</time></trkpt><trkpt lat="55.8895950" lon="49.1984817"><time>2023-06-03T06:43:48.327</time></trkpt><trkpt lat="55.8896367" lon="49.1984267"><time>2023-06-03T06:43:50.327</time></trkpt><trkpt lat="55.8896650" lon="49.1983150"><time>2023-06-03T06:43:53.327</time></trkpt><trkpt lat="55.8896967" lon="49.1982400"><time>2023-06-03T06:43:55.327</time></trkpt><trkpt lat="55.8896950" lon="49.1981000"><time>2023-06-03T06:44:41.327</time></trkpt><trkpt lat="55.8896967" lon="49.1980150"><time>2023-06-03T06:44:44.333</time></trkpt><trkpt lat="55.8897017" lon="49.1979067"><time>2023-06-03T06:44:47.327</time></trkpt><trkpt lat="55.8897017" lon="49.1978250"><time>2023-06-03T06:44:49.327</time></trkpt><trkpt lat="55.8896817" lon="49.1977400"><time>2023-06-03T06:44:51.300</time></trkpt><trkpt lat="55.8896600" lon="49.1976617"><time>2023-06-03T06:44:53.327</time></trkpt><trkpt lat="55.8896300" lon="49.1975767"><time>2023-06-03T06:44:56.330</time></trkpt><trkpt lat="55.8895950" lon="49.1974800"><time>2023-06-03T06:44:59.287</time></trkpt><trkpt lat="55.8895533" lon="49.1974150"><time>2023-06-03T06:45:01.320</time></trkpt><trkpt lat="55.8895083" lon="49.1973900"><time>2023-06-03T06:45:03.320</time></trkpt><trkpt lat="55.8894667" lon="49.1973467"><time>2023-06-03T06:45:05.323</time></trkpt><trkpt lat="55.8894300" lon="49.1972450"><time>2023-06-03T06:45:07.327</time></trkpt><trkpt lat="55.8893767" lon="49.1971283"><time>2023-06-03T06:45:09.327</time></trkpt><trkpt lat="55.8893400" lon="49.1970767"><time>2023-06-03T06:45:10.340</time></trkpt><trkpt lat="55.8892817" lon="49.1969483"><time>2023-06-03T06:45:12.323</time></trkpt><trkpt lat="55.8892517" lon="49.1968700"><time>2023-06-03T06:45:13.323</time></trkpt><trkpt lat="55.8892183" lon="49.1968000"><time>2023-06-03T06:45:14.320</time></trkpt><trkpt lat="55.8891850" lon="49.1967333"><time>2023-06-03T06:45:15.323</time></trkpt><trkpt lat="55.8891633" lon="49.1966583"><time>2023-06-03T06:45:16.327</time></trkpt><trkpt lat="55.8891317" lon="49.1965833"><time>2023-06-03T06:45:17.327</time></trkpt><trkpt lat="55.8890967" lon="49.1965117"><time>2023-06-03T06:45:18.320</time></trkpt><trkpt lat="55.8890617" lon="49.1964367"><time>2023-06-03T06:45:19.323</time></trkpt><trkpt lat="55.8890167" lon="49.1963617"><time>2023-06-03T06:45:20.320</time></trkpt><trkpt lat="55.8889733" lon="49.1962933"><time>2023-06-03T06:45:21.320</time></trkpt><trkpt lat="55.8889367" lon="49.1962150"><time>2023-06-03T06:45:22.323</time></trkpt><trkpt lat="55.8888967" lon="49.1961500"><time>2023-06-03T06:45:23.323</time></trkpt><trkpt lat="55.8888533" lon="49.1960817"><time>2023-06-03T06:45:24.320</time></trkpt><trkpt lat="55.8888117" lon="49.1960100"><time>2023-06-03T06:45:25.323</time></trkpt><trkpt lat="55.8887767" lon="49.1959467"><time>2023-06-03T06:45:26.327</time></trkpt><trkpt lat="55.8887367" lon="49.1958783"><time>2023-06-03T06:45:27.323</time></trkpt><trkpt lat="55.8886950" lon="49.1958117"><time>2023-06-03T06:45:28.323</time></trkpt><trkpt lat="55.8886583" lon="49.1957417"><time>2023-06-03T06:45:29.323</time></trkpt><trkpt lat="55.8886267" lon="49.1956700"><time>2023-06-03T06:45:30.320</time></trkpt><trkpt lat="55.8885917" lon="49.1955900"><time>2023-06-03T06:45:31.327</time></trkpt><trkpt lat="55.8885650" lon="49.1955167"><time>2023-06-03T06:45:32.327</time></trkpt><trkpt lat="55.8885367" lon="49.1954533"><time>2023-06-03T06:45:33.320</time></trkpt><trkpt lat="55.8884983" lon="49.1953967"><time>2023-06-03T06:45:34.317</time></trkpt><trkpt lat="55.8884433" lon="49.1952867"><time>2023-06-03T06:45:36.320</time></trkpt><trkpt lat="55.8884067" lon="49.1952067"><time>2023-06-03T06:45:37.323</time></trkpt><trkpt lat="55.8883767" lon="49.1951317"><time>2023-06-03T06:45:38.297</time></trkpt><trkpt lat="55.8883450" lon="49.1950650"><time>2023-06-03T06:45:39.317</time></trkpt><trkpt lat="55.8882850" lon="49.1949467"><time>2023-06-03T06:45:41.310</time></trkpt><trkpt lat="55.8882533" lon="49.1948750"><time>2023-06-03T06:45:42.323</time></trkpt><trkpt lat="55.8882050" lon="49.1947633"><time>2023-06-03T06:45:44.320</time></trkpt><trkpt lat="55.8881700" lon="49.1947083"><time>2023-06-03T06:45:45.323</time></trkpt><trkpt lat="55.8881383" lon="49.1946483"><time>2023-06-03T06:45:46.320</time></trkpt><trkpt lat="55.8880700" lon="49.1945333"><time>2023-06-03T06:45:48.317</time></trkpt><trkpt lat="55.8880367" lon="49.1944767"><time>2023-06-03T06:45:49.320</time></trkpt><trkpt lat="55.8879950" lon="49.1943567"><time>2023-06-03T06:45:51.320</time></trkpt><trkpt lat="55.8879717" lon="49.1942883"><time>2023-06-03T06:45:52.313</time></trkpt><trkpt lat="55.8879317" lon="49.1941667"><time>2023-06-03T06:45:54.310</time></trkpt><trkpt lat="55.8879033" lon="49.1940367"><time>2023-06-03T06:45:56.320</time></trkpt><trkpt lat="55.8878550" lon="49.1939100"><time>2023-06-03T06:45:58.327</time></trkpt><trkpt lat="55.8878233" lon="49.1938500"><time>2023-06-03T06:45:59.323</time></trkpt><trkpt lat="55.8877917" lon="49.1937883"><time>2023-06-03T06:46:00.320</time></trkpt><trkpt lat="55.8877567" lon="49.1937150"><time>2023-06-03T06:46:01.320</time></trkpt><trkpt lat="55.8877250" lon="49.1936417"><time>2023-06-03T06:46:02.317</time></trkpt><trkpt lat="55.8876833" lon="49.1935717"><time>2023-06-03T06:46:03.317</time></trkpt><trkpt lat="55.8876517" lon="49.1934850"><time>2023-06-03T06:46:04.317</time></trkpt><trkpt lat="55.8876200" lon="49.1934000"><time>2023-06-03T06:46:05.323</time></trkpt><trkpt lat="55.8875933" lon="49.1933100"><time>2023-06-03T06:46:06.320</time></trkpt><trkpt lat="55.8875650" lon="49.1932250"><time>2023-06-03T06:46:07.320</time></trkpt><trkpt lat="55.8875317" lon="49.1931467"><time>2023-06-03T06:46:08.320</time></trkpt><trkpt lat="55.8874933" lon="49.1930733"><time>2023-06-03T06:46:09.293</time></trkpt><trkpt lat="55.8874483" lon="49.1930067"><time>2023-06-03T06:46:10.317</time></trkpt><trkpt lat="55.8874117" lon="49.1929483"><time>2023-06-03T06:46:11.333</time></trkpt><trkpt lat="55.8873233" lon="49.1927550"><time>2023-06-03T06:46:12.783</time></trkpt><trkpt lat="55.8873183" lon="49.1926683"><time>2023-06-03T06:46:13.293</time></trkpt><trkpt lat="55.8872633" lon="49.1926500"><time>2023-06-03T06:46:13.793</time></trkpt><trkpt lat="55.8872000" lon="49.1925783"><time>2023-06-03T06:46:16.310</time></trkpt><trkpt lat="55.8871550" lon="49.1924983"><time>2023-06-03T06:46:18.307</time></trkpt><trkpt lat="55.8871133" lon="49.1924017"><time>2023-06-03T06:46:20.307</time></trkpt><trkpt lat="55.8870550" lon="49.1922733"><time>2023-06-03T06:46:22.307</time></trkpt><trkpt lat="55.8870200" lon="49.1922150"><time>2023-06-03T06:46:23.300</time></trkpt><trkpt lat="55.8869833" lon="49.1921633"><time>2023-06-03T06:46:24.313</time></trkpt><trkpt lat="55.8869417" lon="49.1921133"><time>2023-06-03T06:46:25.310</time></trkpt><trkpt lat="55.8868983" lon="49.1920517"><time>2023-06-03T06:46:26.293</time></trkpt><trkpt lat="55.8868550" lon="49.1919967"><time>2023-06-03T06:46:27.303</time></trkpt><trkpt lat="55.8868167" lon="49.1919400"><time>2023-06-03T06:46:28.307</time></trkpt><trkpt lat="55.8867533" lon="49.1918517"><time>2023-06-03T06:46:30.313</time></trkpt><trkpt lat="55.8867050" lon="49.1917917"><time>2023-06-03T06:46:32.327</time></trkpt><trkpt lat="55.8869633" lon="49.1920200"><time>2023-06-03T06:46:33.343</time></trkpt><trkpt lat="55.8867050" lon="49.1917933"><time>2023-06-03T06:46:34.257</time></trkpt><trkpt lat="55.8867067" lon="49.1917933"><time>2023-06-03T06:46:35.143</time></trkpt><trkpt lat="55.8866467" lon="49.1918250"><time>2023-06-03T06:46:37.307</time></trkpt><trkpt lat="55.8866050" lon="49.1918550"><time>2023-06-03T06:46:41.310</time></trkpt><trkpt lat="55.8865617" lon="49.1919100"><time>2023-06-03T06:46:45.327</time></trkpt><trkpt lat="55.8868900" lon="49.1920783"><time>2023-06-03T06:46:46.290</time></trkpt><trkpt lat="55.8865567" lon="49.1919150"><time>2023-06-03T06:46:46.787</time></trkpt><trkpt lat="55.8865133" lon="49.1919400"><time>2023-06-03T06:46:47.810</time></trkpt><trkpt lat="55.8864800" lon="49.1918717"><time>2023-06-03T06:46:51.327</time></trkpt><trkpt lat="55.8864800" lon="49.1918717"><time>2023-06-03T06:46:52.283</time></trkpt><trkpt lat="55.8865033" lon="49.1917767"><time>2023-06-03T06:46:54.780</time></trkpt><trkpt lat="55.8865283" lon="49.1917000"><time>2023-06-03T06:46:56.307</time></trkpt><trkpt lat="55.8865717" lon="49.1916233"><time>2023-06-03T06:46:59.303</time></trkpt><trkpt lat="55.8866233" lon="49.1915417"><time>2023-06-03T06:47:01.303</time></trkpt><trkpt lat="55.8866600" lon="49.1914850"><time>2023-06-03T06:47:02.307</time></trkpt><trkpt lat="55.8867450" lon="49.1913917"><time>2023-06-03T06:47:04.307</time></trkpt><trkpt lat="55.8867900" lon="49.1913100"><time>2023-06-03T06:47:06.310</time></trkpt><trkpt lat="55.8868150" lon="49.1912350"><time>2023-06-03T06:47:10.303</time></trkpt><trkpt lat="55.8868250" lon="49.1911550"><time>2023-06-03T06:47:15.307</time></trkpt><trkpt lat="55.8868200" lon="49.1910600"><time>2023-06-03T06:47:18.297</time></trkpt><trkpt lat="55.8867833" lon="49.1909317"><time>2023-06-03T06:47:20.313</time></trkpt><trkpt lat="55.8867417" lon="49.1908317"><time>2023-06-03T06:47:22.327</time></trkpt><trkpt lat="55.8867417" lon="49.1908300"><time>2023-06-03T06:47:23.727</time></trkpt><trkpt lat="55.8867333" lon="49.1907367"><time>2023-06-03T06:47:26.307</time></trkpt><trkpt lat="55.8866933" lon="49.1906417"><time>2023-06-03T06:47:29.310</time></trkpt><trkpt lat="55.8866450" lon="49.1905350"><time>2023-06-03T06:47:31.310</time></trkpt><trkpt lat="55.8866100" lon="49.1904517"><time>2023-06-03T06:47:33.310</time></trkpt><trkpt lat="55.8865883" lon="49.1903617"><time>2023-06-03T06:47:35.320</time></trkpt><trkpt lat="55.8865883" lon="49.1903617"><time>2023-06-03T06:47:35.367</time></trkpt><trkpt lat="55.8865617" lon="49.1902350"><time>2023-06-03T06:47:37.323</time></trkpt><trkpt lat="55.8865667" lon="49.1902367"><time>2023-06-03T06:47:38.267</time></trkpt><trkpt lat="55.8866033" lon="49.1901700"><time>2023-06-03T06:47:42.310</time></trkpt><trkpt lat="55.8865583" lon="49.1901850"><time>2023-06-03T06:47:48.300</time></trkpt><trkpt lat="55.8865633" lon="49.1903233"><time>2023-06-03T06:47:51.310</time></trkpt><trkpt lat="55.8865900" lon="49.1904383"><time>2023-06-03T06:47:53.307</time></trkpt><trkpt lat="55.8866167" lon="49.1905117"><time>2023-06-03T06:47:54.307</time></trkpt><trkpt lat="55.8866667" lon="49.1906350"><time>2023-06-03T06:47:56.300</time></trkpt><trkpt lat="55.8867017" lon="49.1907350"><time>2023-06-03T06:47:58.307</time></trkpt><trkpt lat="55.8867317" lon="49.1908417"><time>2023-06-03T06:48:00.313</time></trkpt><trkpt lat="55.8867717" lon="49.1909367"><time>2023-06-03T06:48:02.287</time></trkpt><trkpt lat="55.8867967" lon="49.1910333"><time>2023-06-03T06:48:04.307</time></trkpt><trkpt lat="55.8867750" lon="49.1911433"><time>2023-06-03T06:48:06.317</time></trkpt><trkpt lat="55.8867350" lon="49.1912150"><time>2023-06-03T06:48:08.313</time></trkpt><trkpt lat="55.8866833" lon="49.1912767"><time>2023-06-03T06:48:10.320</time></trkpt><trkpt lat="55.8866417" lon="49.1913217"><time>2023-06-03T06:48:12.323</time></trkpt><trkpt lat="55.8865850" lon="49.1913450"><time>2023-06-03T06:48:14.320</time></trkpt><trkpt lat="55.8865683" lon="49.1914283"><time>2023-06-03T06:48:16.320</time></trkpt><trkpt lat="55.8865583" lon="49.1915233"><time>2023-06-03T06:48:19.307</time></trkpt><trkpt lat="55.8865167" lon="49.1915817"><time>2023-06-03T06:48:24.310</time></trkpt><trkpt lat="55.8864983" lon="49.1916750"><time>2023-06-03T06:48:28.317</time></trkpt><trkpt lat="55.8865117" lon="49.1917700"><time>2023-06-03T06:48:34.323</time></trkpt><trkpt lat="55.8864750" lon="49.1918617"><time>2023-06-03T06:48:37.313</time></trkpt><trkpt lat="55.8864283" lon="49.1919317"><time>2023-06-03T06:48:39.310</time></trkpt><trkpt lat="55.8863767" lon="49.1920033"><time>2023-06-03T06:48:41.320</time></trkpt><trkpt lat="55.8863200" lon="49.1920567"><time>2023-06-03T06:48:43.323</time></trkpt><trkpt lat="55.8862750" lon="49.1920967"><time>2023-06-03T06:48:45.323</time></trkpt><trkpt lat="55.8862450" lon="49.1921700"><time>2023-06-03T06:48:47.320</time></trkpt><trkpt lat="55.8862050" lon="49.1922467"><time>2023-06-03T06:48:49.323</time></trkpt><trkpt lat="55.8861533" lon="49.1923333"><time>2023-06-03T06:48:51.320</time></trkpt><trkpt lat="55.8860967" lon="49.1924300"><time>2023-06-03T06:48:53.327</time></trkpt><trkpt lat="55.8860417" lon="49.1925233"><time>2023-06-03T06:48:55.307</time></trkpt><trkpt lat="55.8859800" lon="49.1926000"><time>2023-06-03T06:48:57.320</time></trkpt><trkpt lat="55.8859183" lon="49.1926783"><time>2023-06-03T06:48:59.323</time></trkpt><trkpt lat="55.8858733" lon="49.1927650"><time>2023-06-03T06:49:01.323</time></trkpt><trkpt lat="55.8858150" lon="49.1928667"><time>2023-06-03T06:49:03.323</time></trkpt><trkpt lat="55.8857433" lon="49.1929450"><time>2023-06-03T06:49:05.320</time></trkpt><trkpt lat="55.8856783" lon="49.1930467"><time>2023-06-03T06:49:07.307</time></trkpt><trkpt lat="55.8856483" lon="49.1931150"><time>2023-06-03T06:49:08.330</time></trkpt><trkpt lat="55.8856183" lon="49.1931750"><time>2023-06-03T06:49:09.323</time></trkpt><trkpt lat="55.8855583" lon="49.1932783"><time>2023-06-03T06:49:11.323</time></trkpt><trkpt lat="55.8854900" lon="49.1933800"><time>2023-06-03T06:49:13.323</time></trkpt><trkpt lat="55.8854200" lon="49.1934883"><time>2023-06-03T06:49:15.323</time></trkpt><trkpt lat="55.8853817" lon="49.1935400"><time>2023-06-03T06:49:16.323</time></trkpt><trkpt lat="55.8853450" lon="49.1935900"><time>2023-06-03T06:49:17.327</time></trkpt><trkpt lat="55.8853067" lon="49.1936433"><time>2023-06-03T06:49:18.333</time></trkpt><trkpt lat="55.8852717" lon="49.1937050"><time>2023-06-03T06:49:19.323</time></trkpt><trkpt lat="55.8852333" lon="49.1937783"><time>2023-06-03T06:49:20.330</time></trkpt><trkpt lat="55.8852000" lon="49.1938467"><time>2023-06-03T06:49:21.320</time></trkpt><trkpt lat="55.8851700" lon="49.1939117"><time>2023-06-03T06:49:22.320</time></trkpt><trkpt lat="55.8851267" lon="49.1940217"><time>2023-06-03T06:49:24.320</time></trkpt><trkpt lat="55.8850650" lon="49.1940833"><time>2023-06-03T06:49:26.317</time></trkpt><trkpt lat="55.8849917" lon="49.1940600"><time>2023-06-03T06:49:28.310</time></trkpt><trkpt lat="55.8849183" lon="49.1940083"><time>2023-06-03T06:49:30.320</time></trkpt><trkpt lat="55.8848383" lon="49.1939400"><time>2023-06-03T06:49:32.320</time></trkpt><trkpt lat="55.8847917" lon="49.1939000"><time>2023-06-03T06:49:33.277</time></trkpt><trkpt lat="55.8847500" lon="49.1938617"><time>2023-06-03T06:49:34.320</time></trkpt><trkpt lat="55.8846967" lon="49.1938350"><time>2023-06-03T06:49:35.327</time></trkpt><trkpt lat="55.8846450" lon="49.1938083"><time>2023-06-03T06:49:36.317</time></trkpt><trkpt lat="55.8846000" lon="49.1937783"><time>2023-06-03T06:49:37.323</time></trkpt><trkpt lat="55.8845483" lon="49.1937433"><time>2023-06-03T06:49:38.317</time></trkpt><trkpt lat="55.8844917" lon="49.1937250"><time>2023-06-03T06:49:39.320</time></trkpt><trkpt lat="55.8844400" lon="49.1937133"><time>2023-06-03T06:49:40.320</time></trkpt><trkpt lat="55.8843900" lon="49.1937050"><time>2023-06-03T06:49:41.317</time></trkpt><trkpt lat="55.8843383" lon="49.1936933"><time>2023-06-03T06:49:42.313</time></trkpt><trkpt lat="55.8842833" lon="49.1936867"><time>2023-06-03T06:49:43.317</time></trkpt><trkpt lat="55.8842317" lon="49.1936833"><time>2023-06-03T06:49:44.303</time></trkpt><trkpt lat="55.8841767" lon="49.1936717"><time>2023-06-03T06:49:45.313</time></trkpt><trkpt lat="55.8841250" lon="49.1936617"><time>2023-06-03T06:49:46.323</time></trkpt><trkpt lat="55.8840717" lon="49.1936567"><time>2023-06-03T06:49:47.317</time></trkpt><trkpt lat="55.8840167" lon="49.1936533"><time>2023-06-03T06:49:48.320</time></trkpt><trkpt lat="55.8839583" lon="49.1936683"><time>2023-06-03T06:49:49.320</time></trkpt><trkpt lat="55.8839017" lon="49.1936750"><time>2023-06-03T06:49:50.323</time></trkpt><trkpt lat="55.8838433" lon="49.1936717"><time>2023-06-03T06:49:51.323</time></trkpt><trkpt lat="55.8837833" lon="49.1936617"><time>2023-06-03T06:49:52.323</time></trkpt><trkpt lat="55.8837300" lon="49.1936517"><time>2023-06-03T06:49:53.327</time></trkpt><trkpt lat="55.8836700" lon="49.1936533"><time>2023-06-03T06:49:54.327</time></trkpt><trkpt lat="55.8836167" lon="49.1936567"><time>2023-06-03T06:49:55.313</time></trkpt><trkpt lat="55.8835600" lon="49.1936533"><time>2023-06-03T06:49:56.320</time></trkpt><trkpt lat="55.8834850" lon="49.1936467"><time>2023-06-03T06:49:57.320</time></trkpt><trkpt lat="55.8834217" lon="49.1936333"><time>2023-06-03T06:49:58.323</time></trkpt><trkpt lat="55.8833567" lon="49.1936267"><time>2023-06-03T06:49:59.323</time></trkpt><trkpt lat="55.8832933" lon="49.1936267"><time>2023-06-03T06:50:00.327</time></trkpt><trkpt lat="55.8832417" lon="49.1936083"><time>2023-06-03T06:50:01.327</time></trkpt><trkpt lat="55.8831717" lon="49.1936033"><time>2023-06-03T06:50:02.323</time></trkpt><trkpt lat="55.8831050" lon="49.1935900"><time>2023-06-03T06:50:03.327</time></trkpt><trkpt lat="55.8830417" lon="49.1935867"><time>2023-06-03T06:50:04.320</time></trkpt><trkpt lat="55.8829750" lon="49.1935867"><time>2023-06-03T06:50:05.320</time></trkpt><trkpt lat="55.8829067" lon="49.1935817"><time>2023-06-03T06:50:06.320</time></trkpt><trkpt lat="55.8828367" lon="49.1935583"><time>2023-06-03T06:50:07.323</time></trkpt><trkpt lat="55.8827667" lon="49.1935400"><time>2023-06-03T06:50:08.317</time></trkpt><trkpt lat="55.8826950" lon="49.1935433"><time>2023-06-03T06:50:09.323</time></trkpt><trkpt lat="55.8826300" lon="49.1935767"><time>2023-06-03T06:50:10.323</time></trkpt><trkpt lat="55.8825833" lon="49.1936483"><time>2023-06-03T06:50:11.323</time></trkpt><trkpt lat="55.8825617" lon="49.1937533"><time>2023-06-03T06:50:12.300</time></trkpt><trkpt lat="55.8825550" lon="49.1938667"><time>2023-06-03T06:50:13.313</time></trkpt><trkpt lat="55.8825533" lon="49.1939983"><time>2023-06-03T06:50:14.320</time></trkpt><trkpt lat="55.8825450" lon="49.1941283"><time>2023-06-03T06:50:15.320</time></trkpt><trkpt lat="55.8825367" lon="49.1942500"><time>2023-06-03T06:50:16.320</time></trkpt><trkpt lat="55.8825283" lon="49.1943683"><time>2023-06-03T06:50:17.323</time></trkpt><trkpt lat="55.8825217" lon="49.1944867"><time>2023-06-03T06:50:18.323</time></trkpt><trkpt lat="55.8825083" lon="49.1945950"><time>2023-06-03T06:50:19.327</time></trkpt><trkpt lat="55.8824900" lon="49.1947017"><time>2023-06-03T06:50:20.323</time></trkpt><trkpt lat="55.8824767" lon="49.1948050"><time>2023-06-03T06:50:21.320</time></trkpt><trkpt lat="55.8824617" lon="49.1949150"><time>2023-06-03T06:50:22.320</time></trkpt><trkpt lat="55.8824417" lon="49.1950150"><time>2023-06-03T06:50:23.320</time></trkpt><trkpt lat="55.8824317" lon="49.1951117"><time>2023-06-03T06:50:24.297</time></trkpt><trkpt lat="55.8824200" lon="49.1952117"><time>2023-06-03T06:50:25.317</time></trkpt><trkpt lat="55.8824100" lon="49.1953150"><time>2023-06-03T06:50:26.327</time></trkpt><trkpt lat="55.8824050" lon="49.1954083"><time>2023-06-03T06:50:27.327</time></trkpt><trkpt lat="55.8824083" lon="49.1955017"><time>2023-06-03T06:50:28.323</time></trkpt><trkpt lat="55.8824183" lon="49.1955933"><time>2023-06-03T06:50:29.317</time></trkpt><trkpt lat="55.8824233" lon="49.1956800"><time>2023-06-03T06:50:30.313</time></trkpt><trkpt lat="55.8824367" lon="49.1957633"><time>2023-06-03T06:50:31.323</time></trkpt><trkpt lat="55.8824467" lon="49.1958533"><time>2023-06-03T06:50:32.327</time></trkpt><trkpt lat="55.8824533" lon="49.1959417"><time>2023-06-03T06:50:33.327</time></trkpt><trkpt lat="55.8824550" lon="49.1960383"><time>2023-06-03T06:50:34.290</time></trkpt><trkpt lat="55.8824467" lon="49.1961350"><time>2023-06-03T06:50:35.293</time></trkpt><trkpt lat="55.8824367" lon="49.1962317"><time>2023-06-03T06:50:36.310</time></trkpt><trkpt lat="55.8824200" lon="49.1963283"><time>2023-06-03T06:50:37.327</time></trkpt><trkpt lat="55.8823983" lon="49.1964250"><time>2023-06-03T06:50:38.327</time></trkpt><trkpt lat="55.8823667" lon="49.1965150"><time>2023-06-03T06:50:39.327</time></trkpt><trkpt lat="55.8823467" lon="49.1965983"><time>2023-06-03T06:50:40.323</time></trkpt><trkpt lat="55.8823200" lon="49.1966850"><time>2023-06-03T06:50:41.323</time></trkpt><trkpt lat="55.8822917" lon="49.1967717"><time>2023-06-03T06:50:42.330</time></trkpt><trkpt lat="55.8822667" lon="49.1968567"><time>2023-06-03T06:50:43.323</time></trkpt><trkpt lat="55.8822483" lon="49.1969433"><time>2023-06-03T06:50:44.323</time></trkpt><trkpt lat="55.8822300" lon="49.1970200"><time>2023-06-03T06:50:45.323</time></trkpt><trkpt lat="55.8822067" lon="49.1971100"><time>2023-06-03T06:50:46.323</time></trkpt><trkpt lat="55.8821817" lon="49.1971967"><time>2023-06-03T06:50:47.323</time></trkpt><trkpt lat="55.8821583" lon="49.1972817"><time>2023-06-03T06:50:48.323</time></trkpt><trkpt lat="55.8821400" lon="49.1973733"><time>2023-06-03T06:50:49.320</time></trkpt><trkpt lat="55.8821133" lon="49.1974617"><time>2023-06-03T06:50:50.323</time></trkpt><trkpt lat="55.8820883" lon="49.1975400"><time>2023-06-03T06:50:51.323</time></trkpt><trkpt lat="55.8820633" lon="49.1976183"><time>2023-06-03T06:50:52.323</time></trkpt><trkpt lat="55.8820317" lon="49.1976900"><time>2023-06-03T06:50:53.337</time></trkpt><trkpt lat="55.8820050" lon="49.1978283"><time>2023-06-03T06:50:55.293</time></trkpt><trkpt lat="55.8819600" lon="49.1978233"><time>2023-06-03T06:50:55.797</time></trkpt><trkpt lat="55.8819050" lon="49.1978033"><time>2023-06-03T06:50:56.800</time></trkpt><trkpt lat="55.8818833" lon="49.1979067"><time>2023-06-03T06:50:58.313</time></trkpt><trkpt lat="55.8818500" lon="49.1979650"><time>2023-06-03T06:51:00.317</time></trkpt><trkpt lat="55.8818083" lon="49.1980267"><time>2023-06-03T06:51:02.317</time></trkpt><trkpt lat="55.8817700" lon="49.1980933"><time>2023-06-03T06:51:04.320</time></trkpt><trkpt lat="55.8817283" lon="49.1981850"><time>2023-06-03T06:51:06.317</time></trkpt><trkpt lat="55.8816883" lon="49.1982767"><time>2023-06-03T06:51:08.310</time></trkpt><trkpt lat="55.8816383" lon="49.1983717"><time>2023-06-03T06:51:10.317</time></trkpt><trkpt lat="55.8815833" lon="49.1984617"><time>2023-06-03T06:51:12.307</time></trkpt><trkpt lat="55.8815333" lon="49.1985683"><time>2023-06-03T06:51:14.320</time></trkpt><trkpt lat="55.8814800" lon="49.1986833"><time>2023-06-03T06:51:16.317</time></trkpt><trkpt lat="55.8814267" lon="49.1987983"><time>2023-06-03T06:51:18.317</time></trkpt><trkpt lat="55.8813667" lon="49.1989100"><time>2023-06-03T06:51:20.317</time></trkpt><trkpt lat="55.8813050" lon="49.1990067"><time>2023-06-03T06:51:22.317</time></trkpt><trkpt lat="55.8812367" lon="49.1991000"><time>2023-06-03T06:51:24.323</time></trkpt><trkpt lat="55.8811717" lon="49.1991833"><time>2023-06-03T06:51:26.323</time></trkpt><trkpt lat="55.8811100" lon="49.1992583"><time>2023-06-03T06:51:28.317</time></trkpt><trkpt lat="55.8810917" lon="49.1993450"><time>2023-06-03T06:51:30.327</time></trkpt><trkpt lat="55.8810767" lon="49.1994483"><time>2023-06-03T06:51:32.323</time></trkpt><trkpt lat="55.8810583" lon="49.1995417"><time>2023-06-03T06:51:34.320</time></trkpt><trkpt lat="55.8810517" lon="49.1996217"><time>2023-06-03T06:51:36.327</time></trkpt><trkpt lat="55.8810417" lon="49.1997067"><time>2023-06-03T06:51:38.327</time></trkpt><trkpt lat="55.8810250" lon="49.1998083"><time>2023-06-03T06:51:41.323</time></trkpt><trkpt lat="55.8810217" lon="49.1999050"><time>2023-06-03T06:51:44.347</time></trkpt><trkpt lat="55.8810217" lon="49.1999050"><time>2023-06-03T06:51:45.827</time></trkpt><trkpt lat="55.8810117" lon="49.1999933"><time>2023-06-03T06:51:48.313</time></trkpt><trkpt lat="55.8810067" lon="49.2000817"><time>2023-06-03T06:51:51.317</time></trkpt><trkpt lat="55.8810067" lon="49.2002067"><time>2023-06-03T06:51:54.317</time></trkpt><trkpt lat="55.8810017" lon="49.2002917"><time>2023-06-03T06:51:56.313</time></trkpt><trkpt lat="55.8810050" lon="49.2003833"><time>2023-06-03T06:51:59.313</time></trkpt><trkpt lat="55.8810517" lon="49.2003967"><time>2023-06-03T06:52:07.293</time></trkpt><trkpt lat="55.8810983" lon="49.2004350"><time>2023-06-03T06:52:11.313</time></trkpt><trkpt lat="55.8811367" lon="49.2004817"><time>2023-06-03T06:52:15.317</time></trkpt><trkpt lat="55.8811850" lon="49.2005050"><time>2023-06-03T06:52:20.320</time></trkpt><trkpt lat="55.8812283" lon="49.2005533"><time>2023-06-03T06:52:25.323</time></trkpt><trkpt lat="55.8812683" lon="49.2005967"><time>2023-06-03T06:52:28.323</time></trkpt><trkpt lat="55.8813167" lon="49.2006333"><time>2023-06-03T06:52:32.323</time></trkpt><trkpt lat="55.8813750" lon="49.2006367"><time>2023-06-03T06:52:36.343</time></trkpt><trkpt lat="55.8813750" lon="49.2006367"><time>2023-06-03T06:52:38.297</time></trkpt><trkpt lat="55.8814350" lon="49.2006850"><time>2023-06-03T06:52:45.303</time></trkpt><trkpt lat="55.8815033" lon="49.2007233"><time>2023-06-03T06:52:47.310</time></trkpt><trkpt lat="55.8815583" lon="49.2007383"><time>2023-06-03T06:52:53.317</time></trkpt><trkpt lat="55.8816033" lon="49.2007617"><time>2023-06-03T06:52:56.317</time></trkpt><trkpt lat="55.8816033" lon="49.2007617"><time>2023-06-03T06:52:56.360</time></trkpt><trkpt lat="55.8815650" lon="49.2007200"><time>2023-06-03T06:53:08.297</time></trkpt><trkpt lat="55.8815650" lon="49.2007200"><time>2023-06-03T06:53:09.690</time></trkpt><trkpt lat="55.8815100" lon="49.2006883"><time>2023-06-03T06:53:18.313</time></trkpt><trkpt lat="55.8814267" lon="49.2006350"><time>2023-06-03T06:53:20.343</time></trkpt><trkpt lat="55.8813733" lon="49.2005867"><time>2023-06-03T06:53:22.417</time></trkpt><trkpt lat="55.8813433" lon="49.2004717"><time>2023-06-03T06:53:24.353</time></trkpt><trkpt lat="55.8813500" lon="49.2003917"><time>2023-06-03T06:53:25.270</time></trkpt><trkpt lat="55.8813850" lon="49.2002817"><time>2023-06-03T06:53:26.283</time></trkpt><trkpt lat="55.8813783" lon="49.2001850"><time>2023-06-03T06:53:27.297</time></trkpt><trkpt lat="55.8813717" lon="49.2000950"><time>2023-06-03T06:53:28.287</time></trkpt><trkpt lat="55.8813483" lon="49.2000133"><time>2023-06-03T06:53:29.287</time></trkpt><trkpt lat="55.8812617" lon="49.2001083"><time>2023-06-03T06:53:32.293</time></trkpt><trkpt lat="55.8811967" lon="49.2002367"><time>2023-06-03T06:53:33.287</time></trkpt><trkpt lat="55.8811267" lon="49.2003500"><time>2023-06-03T06:53:34.307</time></trkpt><trkpt lat="55.8811067" lon="49.2004250"><time>2023-06-03T06:53:35.310</time></trkpt><trkpt lat="55.8810567" lon="49.2004800"><time>2023-06-03T06:53:36.313</time></trkpt><trkpt lat="55.8810333" lon="49.2004067"><time>2023-06-03T06:53:41.310</time></trkpt><trkpt lat="55.8810450" lon="49.2003067"><time>2023-06-03T06:54:04.320</time></trkpt><trkpt lat="55.8810583" lon="49.2002267"><time>2023-06-03T06:54:07.320</time></trkpt><trkpt lat="55.8810750" lon="49.2001267"><time>2023-06-03T06:54:10.320</time></trkpt><trkpt lat="55.8810767" lon="49.2000167"><time>2023-06-03T06:54:13.323</time></trkpt><trkpt lat="55.8810750" lon="49.1999367"><time>2023-06-03T06:54:15.280</time></trkpt><trkpt lat="55.8810750" lon="49.1998217"><time>2023-06-03T06:54:17.283</time></trkpt><trkpt lat="55.8810800" lon="49.1997233"><time>2023-06-03T06:54:19.327</time></trkpt><trkpt lat="55.8810933" lon="49.1996133"><time>2023-06-03T06:54:21.323</time></trkpt><trkpt lat="55.8811000" lon="49.1995217"><time>2023-06-03T06:54:23.327</time></trkpt><trkpt lat="55.8811200" lon="49.1994350"><time>2023-06-03T06:54:25.313</time></trkpt><trkpt lat="55.8811533" lon="49.1993783"><time>2023-06-03T06:54:27.310</time></trkpt><trkpt lat="55.8812033" lon="49.1993083"><time>2023-06-03T06:54:29.327</time></trkpt><trkpt lat="55.8812533" lon="49.1992150"><time>2023-06-03T06:54:31.323</time></trkpt><trkpt lat="55.8813067" lon="49.1991183"><time>2023-06-03T06:54:33.313</time></trkpt><trkpt lat="55.8813667" lon="49.1990167"><time>2023-06-03T06:54:35.303</time></trkpt><trkpt lat="55.8814200" lon="49.1989250"><time>2023-06-03T06:54:37.303</time></trkpt><trkpt lat="55.8814700" lon="49.1988417"><time>2023-06-03T06:54:39.327</time></trkpt><trkpt lat="55.8815250" lon="49.1987583"><time>2023-06-03T06:54:41.320</time></trkpt><trkpt lat="55.8815783" lon="49.1986533"><time>2023-06-03T06:54:43.323</time></trkpt><trkpt lat="55.8816300" lon="49.1985583"><time>2023-06-03T06:54:45.313</time></trkpt><trkpt lat="55.8816800" lon="49.1984517"><time>2023-06-03T06:54:47.323</time></trkpt><trkpt lat="55.8817267" lon="49.1983300"><time>2023-06-03T06:54:49.323</time></trkpt><trkpt lat="55.8817483" lon="49.1982033"><time>2023-06-03T06:54:51.327</time></trkpt><trkpt lat="55.8817267" lon="49.1980767"><time>2023-06-03T06:54:53.327</time></trkpt><trkpt lat="55.8816533" lon="49.1979917"><time>2023-06-03T06:54:55.297</time></trkpt><trkpt lat="55.8815667" lon="49.1979400"><time>2023-06-03T06:54:57.303</time></trkpt><trkpt lat="55.8815167" lon="49.1979183"><time>2023-06-03T06:54:58.317</time></trkpt><trkpt lat="55.8814517" lon="49.1978933"><time>2023-06-03T06:54:59.327</time></trkpt><trkpt lat="55.8813983" lon="49.1978767"><time>2023-06-03T06:55:00.327</time></trkpt><trkpt lat="55.8813533" lon="49.1978533"><time>2023-06-03T06:55:01.327</time></trkpt><trkpt lat="55.8813050" lon="49.1978333"><time>2023-06-03T06:55:02.323</time></trkpt><trkpt lat="55.8812583" lon="49.1978117"><time>2023-06-03T06:55:03.327</time></trkpt><trkpt lat="55.8812100" lon="49.1977833"><time>2023-06-03T06:55:04.327</time></trkpt><trkpt lat="55.8811550" lon="49.1977650"><time>2023-06-03T06:55:05.323</time></trkpt><trkpt lat="55.8811067" lon="49.1977450"><time>2023-06-03T06:55:06.327</time></trkpt><trkpt lat="55.8810533" lon="49.1977200"><time>2023-06-03T06:55:07.327</time></trkpt><trkpt lat="55.8810083" lon="49.1977033"><time>2023-06-03T06:55:08.323</time></trkpt><trkpt lat="55.8809633" lon="49.1976850"><time>2023-06-03T06:55:09.323</time></trkpt><trkpt lat="55.8809100" lon="49.1976700"><time>2023-06-03T06:55:10.327</time></trkpt><trkpt lat="55.8808567" lon="49.1976517"><time>2023-06-03T06:55:11.320</time></trkpt><trkpt lat="55.8808017" lon="49.1976367"><time>2023-06-03T06:55:12.323</time></trkpt><trkpt lat="55.8807417" lon="49.1976250"><time>2023-06-03T06:55:13.327</time></trkpt><trkpt lat="55.8806867" lon="49.1976100"><time>2023-06-03T06:55:14.327</time></trkpt><trkpt lat="55.8806283" lon="49.1975983"><time>2023-06-03T06:55:15.320</time></trkpt><trkpt lat="55.8805683" lon="49.1975683"><time>2023-06-03T06:55:16.323</time></trkpt><trkpt lat="55.8804933" lon="49.1975417"><time>2023-06-03T06:55:17.323</time></trkpt><trkpt lat="55.8804333" lon="49.1975233"><time>2023-06-03T06:55:18.323</time></trkpt><trkpt lat="55.8803683" lon="49.1975000"><time>2023-06-03T06:55:19.323</time></trkpt><trkpt lat="55.8803033" lon="49.1974733"><time>2023-06-03T06:55:20.323</time></trkpt><trkpt lat="55.8802417" lon="49.1974450"><time>2023-06-03T06:55:21.323</time></trkpt><trkpt lat="55.8801817" lon="49.1974150"><time>2023-06-03T06:55:22.327</time></trkpt><trkpt lat="55.8801250" lon="49.1973783"><time>2023-06-03T06:55:23.327</time></trkpt><trkpt lat="55.8800733" lon="49.1973350"><time>2023-06-03T06:55:24.323</time></trkpt><trkpt lat="55.8800217" lon="49.1972933"><time>2023-06-03T06:55:25.320</time></trkpt><trkpt lat="55.8799667" lon="49.1972600"><time>2023-06-03T06:55:26.317</time></trkpt><trkpt lat="55.8799217" lon="49.1972233"><time>2023-06-03T06:55:27.310</time></trkpt><trkpt lat="55.8798700" lon="49.1971783"><time>2023-06-03T06:55:28.323</time></trkpt><trkpt lat="55.8798250" lon="49.1971300"><time>2023-06-03T06:55:29.323</time></trkpt><trkpt lat="55.8797950" lon="49.1970617"><time>2023-06-03T06:55:30.317</time></trkpt><trkpt lat="55.8797500" lon="49.1970017"><time>2023-06-03T06:55:31.323</time></trkpt><trkpt lat="55.8797017" lon="49.1969300"><time>2023-06-03T06:55:32.327</time></trkpt><trkpt lat="55.8796517" lon="49.1968600"><time>2023-06-03T06:55:33.327</time></trkpt><trkpt lat="55.8796017" lon="49.1967867"><time>2023-06-03T06:55:34.323</time></trkpt><trkpt lat="55.8795500" lon="49.1967300"><time>2023-06-03T06:55:35.310</time></trkpt><trkpt lat="55.8794967" lon="49.1966517"><time>2023-06-03T06:55:36.293</time></trkpt><trkpt lat="55.8794467" lon="49.1966000"><time>2023-06-03T06:55:37.300</time></trkpt><trkpt lat="55.8793967" lon="49.1965417"><time>2023-06-03T06:55:38.310</time></trkpt><trkpt lat="55.8793617" lon="49.1964650"><time>2023-06-03T06:55:39.323</time></trkpt><trkpt lat="55.8793167" lon="49.1964133"><time>2023-06-03T06:55:40.283</time></trkpt><trkpt lat="55.8792750" lon="49.1963350"><time>2023-06-03T06:55:41.287</time></trkpt><trkpt lat="55.8792417" lon="49.1962600"><time>2023-06-03T06:55:42.303</time></trkpt><trkpt lat="55.8791867" lon="49.1961833"><time>2023-06-03T06:55:43.290</time></trkpt><trkpt lat="55.8791333" lon="49.1960967"><time>2023-06-03T06:55:44.307</time></trkpt><trkpt lat="55.8790783" lon="49.1960233"><time>2023-06-03T06:55:45.323</time></trkpt><trkpt lat="55.8790250" lon="49.1959567"><time>2023-06-03T06:55:46.280</time></trkpt><trkpt lat="55.8789833" lon="49.1959017"><time>2023-06-03T06:55:47.307</time></trkpt><trkpt lat="55.8789400" lon="49.1958667"><time>2023-06-03T06:55:48.283</time></trkpt><trkpt lat="55.8788967" lon="49.1958367"><time>2023-06-03T06:55:49.300</time></trkpt><trkpt lat="55.8788533" lon="49.1958117"><time>2023-06-03T06:55:50.317</time></trkpt><trkpt lat="55.8787883" lon="49.1956917"><time>2023-06-03T06:55:52.317</time></trkpt><trkpt lat="55.8787217" lon="49.1956067"><time>2023-06-03T06:55:53.297</time></trkpt><trkpt lat="55.8786633" lon="49.1955233"><time>2023-06-03T06:55:54.320</time></trkpt><trkpt lat="55.8786217" lon="49.1954783"><time>2023-06-03T06:55:55.293</time></trkpt><trkpt lat="55.8785483" lon="49.1953917"><time>2023-06-03T06:55:57.323</time></trkpt><trkpt lat="55.8785050" lon="49.1953333"><time>2023-06-03T06:55:58.323</time></trkpt><trkpt lat="55.8784567" lon="49.1952567"><time>2023-06-03T06:55:59.317</time></trkpt><trkpt lat="55.8784100" lon="49.1951783"><time>2023-06-03T06:56:00.323</time></trkpt><trkpt lat="55.8783617" lon="49.1951033"><time>2023-06-03T06:56:01.327</time></trkpt><trkpt lat="55.8783117" lon="49.1950367"><time>2023-06-03T06:56:02.323</time></trkpt><trkpt lat="55.8782617" lon="49.1949650"><time>2023-06-03T06:56:03.327</time></trkpt><trkpt lat="55.8782067" lon="49.1948883"><time>2023-06-03T06:56:04.323</time></trkpt><trkpt lat="55.8781633" lon="49.1948133"><time>2023-06-03T06:56:05.323</time></trkpt><trkpt lat="55.8781233" lon="49.1947367"><time>2023-06-03T06:56:06.323</time></trkpt><trkpt lat="55.8780783" lon="49.1946667"><time>2023-06-03T06:56:07.300</time></trkpt><trkpt lat="55.8780283" lon="49.1945883"><time>2023-06-03T06:56:08.293</time></trkpt><trkpt lat="55.8779817" lon="49.1945050"><time>2023-06-03T06:56:09.307</time></trkpt><trkpt lat="55.8779333" lon="49.1944217"><time>2023-06-03T06:56:10.320</time></trkpt><trkpt lat="55.8778867" lon="49.1943483"><time>2023-06-03T06:56:11.323</time></trkpt><trkpt lat="55.8778467" lon="49.1942850"><time>2023-06-03T06:56:12.320</time></trkpt><trkpt lat="55.8778050" lon="49.1942333"><time>2023-06-03T06:56:13.313</time></trkpt><trkpt lat="55.8777617" lon="49.1941883"><time>2023-06-03T06:56:14.307</time></trkpt><trkpt lat="55.8776883" lon="49.1941133"><time>2023-06-03T06:56:16.320</time></trkpt><trkpt lat="55.8776200" lon="49.1940267"><time>2023-06-03T06:56:18.320</time></trkpt><trkpt lat="55.8775750" lon="49.1939700"><time>2023-06-03T06:56:19.327</time></trkpt><trkpt lat="55.8775233" lon="49.1939133"><time>2023-06-03T06:56:20.320</time></trkpt><trkpt lat="55.8774733" lon="49.1938650"><time>2023-06-03T06:56:21.323</time></trkpt><trkpt lat="55.8774183" lon="49.1938217"><time>2023-06-03T06:56:22.320</time></trkpt><trkpt lat="55.8773733" lon="49.1937883"><time>2023-06-03T06:56:23.320</time></trkpt><trkpt lat="55.8773233" lon="49.1937500"><time>2023-06-03T06:56:24.323</time></trkpt><trkpt lat="55.8772417" lon="49.1936717"><time>2023-06-03T06:56:26.323</time></trkpt><trkpt lat="55.8771917" lon="49.1936317"><time>2023-06-03T06:56:27.320</time></trkpt><trkpt lat="55.8771333" lon="49.1935933"><time>2023-06-03T06:56:28.323</time></trkpt><trkpt lat="55.8770717" lon="49.1935650"><time>2023-06-03T06:56:29.323</time></trkpt><trkpt lat="55.8770167" lon="49.1935383"><time>2023-06-03T06:56:30.327</time></trkpt><trkpt lat="55.8769617" lon="49.1935100"><time>2023-06-03T06:56:31.323</time></trkpt><trkpt lat="55.8769050" lon="49.1934850"><time>2023-06-03T06:56:32.323</time></trkpt><trkpt lat="55.8768500" lon="49.1934700"><time>2023-06-03T06:56:33.323</time></trkpt><trkpt lat="55.8768000" lon="49.1934533"><time>2023-06-03T06:56:34.320</time></trkpt><trkpt lat="55.8767133" lon="49.1934167"><time>2023-06-03T06:56:36.323</time></trkpt><trkpt lat="55.8766683" lon="49.1933917"><time>2023-06-03T06:56:37.303</time></trkpt><trkpt lat="55.8766200" lon="49.1933683"><time>2023-06-03T06:56:38.323</time></trkpt><trkpt lat="55.8765700" lon="49.1933450"><time>2023-06-03T06:56:39.323</time></trkpt><trkpt lat="55.8765033" lon="49.1932883"><time>2023-06-03T06:56:41.327</time></trkpt><trkpt lat="55.8764417" lon="49.1932583"><time>2023-06-03T06:56:43.320</time></trkpt><trkpt lat="55.8763750" lon="49.1932083"><time>2023-06-03T06:56:45.323</time></trkpt><trkpt lat="55.8763083" lon="49.1931550"><time>2023-06-03T06:56:47.323</time></trkpt><trkpt lat="55.8762417" lon="49.1931167"><time>2023-06-03T06:56:49.317</time></trkpt><trkpt lat="55.8761600" lon="49.1930750"><time>2023-06-03T06:56:51.323</time></trkpt><trkpt lat="55.8760850" lon="49.1930217"><time>2023-06-03T06:56:53.320</time></trkpt><trkpt lat="55.8760183" lon="49.1929817"><time>2023-06-03T06:56:55.300</time></trkpt><trkpt lat="55.8759483" lon="49.1929567"><time>2023-06-03T06:56:57.320</time></trkpt><trkpt lat="55.8758867" lon="49.1929167"><time>2023-06-03T06:56:59.323</time></trkpt><trkpt lat="55.8758367" lon="49.1928750"><time>2023-06-03T06:57:01.327</time></trkpt><trkpt lat="55.8757817" lon="49.1928433"><time>2023-06-03T06:57:04.317</time></trkpt><trkpt lat="55.8757200" lon="49.1927000"><time>2023-06-03T06:57:21.320</time></trkpt><trkpt lat="55.8756733" lon="49.1926650"><time>2023-06-03T06:57:23.327</time></trkpt><trkpt lat="55.8756300" lon="49.1926300"><time>2023-06-03T06:57:25.323</time></trkpt><trkpt lat="55.8755833" lon="49.1924983"><time>2023-06-03T06:57:57.323</time></trkpt><trkpt lat="55.8756350" lon="49.1924533"><time>2023-06-03T06:57:59.323</time></trkpt><trkpt lat="55.8756950" lon="49.1923933"><time>2023-06-03T06:58:02.323</time></trkpt><trkpt lat="55.8757500" lon="49.1923333"><time>2023-06-03T06:58:04.320</time></trkpt><trkpt lat="55.8757933" lon="49.1922783"><time>2023-06-03T06:58:07.320</time></trkpt><trkpt lat="55.8757133" lon="49.1923767"><time>2023-06-03T06:58:25.317</time></trkpt><trkpt lat="55.8755967" lon="49.1924900"><time>2023-06-03T06:58:37.327</time></trkpt><trkpt lat="55.8755500" lon="49.1925350"><time>2023-06-03T06:58:39.320</time></trkpt><trkpt lat="55.8755050" lon="49.1925450"><time>2023-06-03T06:58:41.323</time></trkpt><trkpt lat="55.8754483" lon="49.1924850"><time>2023-06-03T06:58:44.323</time></trkpt><trkpt lat="55.8754083" lon="49.1924150"><time>2023-06-03T06:58:46.317</time></trkpt><trkpt lat="55.8753533" lon="49.1923317"><time>2023-06-03T06:58:48.327</time></trkpt><trkpt lat="55.8752883" lon="49.1922550"><time>2023-06-03T06:58:50.323</time></trkpt><trkpt lat="55.8752233" lon="49.1921933"><time>2023-06-03T06:58:52.323</time></trkpt><trkpt lat="55.8751450" lon="49.1921400"><time>2023-06-03T06:58:54.327</time></trkpt><trkpt lat="55.8750733" lon="49.1920800"><time>2023-06-03T06:58:56.323</time></trkpt><trkpt lat="55.8750067" lon="49.1920433"><time>2023-06-03T06:58:58.323</time></trkpt><trkpt lat="55.8749350" lon="49.1919983"><time>2023-06-03T06:59:00.320</time></trkpt><trkpt lat="55.8748850" lon="49.1919483"><time>2023-06-03T06:59:02.307</time></trkpt><trkpt lat="55.8748450" lon="49.1918917"><time>2023-06-03T06:59:04.323</time></trkpt><trkpt lat="55.8747833" lon="49.1918267"><time>2023-06-03T06:59:06.327</time></trkpt><trkpt lat="55.8746933" lon="49.1917767"><time>2023-06-03T06:59:08.310</time></trkpt><trkpt lat="55.8746450" lon="49.1917533"><time>2023-06-03T06:59:09.320</time></trkpt><trkpt lat="55.8745900" lon="49.1917233"><time>2023-06-03T06:59:10.327</time></trkpt><trkpt lat="55.8745333" lon="49.1917067"><time>2023-06-03T06:59:11.323</time></trkpt><trkpt lat="55.8744800" lon="49.1916850"><time>2023-06-03T06:59:12.323</time></trkpt><trkpt lat="55.8744333" lon="49.1916633"><time>2023-06-03T06:59:13.323</time></trkpt><trkpt lat="55.8743900" lon="49.1916400"><time>2023-06-03T06:59:14.327</time></trkpt><trkpt lat="55.8743417" lon="49.1916133"><time>2023-06-03T06:59:15.323</time></trkpt><trkpt lat="55.8742917" lon="49.1915917"><time>2023-06-03T06:59:16.320</time></trkpt><trkpt lat="55.8742367" lon="49.1915733"><time>2023-06-03T06:59:17.310</time></trkpt><trkpt lat="55.8741817" lon="49.1915633"><time>2023-06-03T06:59:18.327</time></trkpt><trkpt lat="55.8741367" lon="49.1915483"><time>2023-06-03T06:59:19.327</time></trkpt><trkpt lat="55.8740917" lon="49.1915317"><time>2023-06-03T06:59:20.323</time></trkpt><trkpt lat="55.8740450" lon="49.1915167"><time>2023-06-03T06:59:21.320</time></trkpt><trkpt lat="55.8739933" lon="49.1915000"><time>2023-06-03T06:59:22.327</time></trkpt><trkpt lat="55.8739400" lon="49.1914867"><time>2023-06-03T06:59:23.327</time></trkpt><trkpt lat="55.8738900" lon="49.1914717"><time>2023-06-03T06:59:24.320</time></trkpt><trkpt lat="55.8738367" lon="49.1914633"><time>2023-06-03T06:59:25.323</time></trkpt><trkpt lat="55.8737800" lon="49.1914617"><time>2023-06-03T06:59:26.323</time></trkpt><trkpt lat="55.8737300" lon="49.1914633"><time>2023-06-03T06:59:27.320</time></trkpt><trkpt lat="55.8736767" lon="49.1914700"><time>2023-06-03T06:59:28.323</time></trkpt><trkpt lat="55.8736200" lon="49.1914783"><time>2023-06-03T06:59:29.320</time></trkpt><trkpt lat="55.8735700" lon="49.1914833"><time>2023-06-03T06:59:30.320</time></trkpt><trkpt lat="55.8735000" lon="49.1915017"><time>2023-06-03T06:59:32.323</time></trkpt><trkpt lat="55.8735667" lon="49.1915233"><time>2023-06-03T07:00:01.323</time></trkpt><trkpt lat="55.8736250" lon="49.1914917"><time>2023-06-03T07:00:04.320</time></trkpt><trkpt lat="55.8736667" lon="49.1914367"><time>2023-06-03T07:00:06.323</time></trkpt><trkpt lat="55.8737750" lon="49.1913267"><time>2023-06-03T07:00:19.320</time></trkpt><trkpt lat="55.8738033" lon="49.1912450"><time>2023-06-03T07:00:21.323</time></trkpt><trkpt lat="55.8738433" lon="49.1910933"><time>2023-06-03T07:00:23.323</time></trkpt><trkpt lat="55.8738700" lon="49.1909883"><time>2023-06-03T07:00:24.320</time></trkpt><trkpt lat="55.8738850" lon="49.1908833"><time>2023-06-03T07:00:25.320</time></trkpt><trkpt lat="55.8738983" lon="49.1907783"><time>2023-06-03T07:00:26.320</time></trkpt><trkpt lat="55.8739117" lon="49.1906733"><time>2023-06-03T07:00:27.320</time></trkpt><trkpt lat="55.8739217" lon="49.1905717"><time>2023-06-03T07:00:28.320</time></trkpt><trkpt lat="55.8739317" lon="49.1904800"><time>2023-06-03T07:00:29.290</time></trkpt><trkpt lat="55.8739483" lon="49.1903817"><time>2023-06-03T07:00:30.313</time></trkpt><trkpt lat="55.8739800" lon="49.1902417"><time>2023-06-03T07:00:32.323</time></trkpt><trkpt lat="55.8739917" lon="49.1901617"><time>2023-06-03T07:00:33.317</time></trkpt><trkpt lat="55.8740050" lon="49.1900083"><time>2023-06-03T07:00:35.310</time></trkpt><trkpt lat="55.8740183" lon="49.1899300"><time>2023-06-03T07:00:36.320</time></trkpt><trkpt lat="55.8740450" lon="49.1898433"><time>2023-06-03T07:00:37.317</time></trkpt><trkpt lat="55.8740850" lon="49.1897617"><time>2023-06-03T07:00:38.310</time></trkpt><trkpt lat="55.8741217" lon="49.1896917"><time>2023-06-03T07:00:39.320</time></trkpt><trkpt lat="55.8741650" lon="49.1895617"><time>2023-06-03T07:00:41.323</time></trkpt><trkpt lat="55.8742000" lon="49.1894233"><time>2023-06-03T07:00:43.323</time></trkpt><trkpt lat="55.8742367" lon="49.1892833"><time>2023-06-03T07:00:45.323</time></trkpt><trkpt lat="55.8742833" lon="49.1891583"><time>2023-06-03T07:00:47.320</time></trkpt><trkpt lat="55.8743117" lon="49.1890633"><time>2023-06-03T07:00:48.327</time></trkpt><trkpt lat="55.8743383" lon="49.1889933"><time>2023-06-03T07:00:49.320</time></trkpt><trkpt lat="55.8743750" lon="49.1888533"><time>2023-06-03T07:00:51.317</time></trkpt><trkpt lat="55.8743883" lon="49.1887067"><time>2023-06-03T07:00:53.327</time></trkpt><trkpt lat="55.8743933" lon="49.1885400"><time>2023-06-03T07:00:55.300</time></trkpt><trkpt lat="55.8743983" lon="49.1883900"><time>2023-06-03T07:00:57.320</time></trkpt><trkpt lat="55.8744117" lon="49.1882550"><time>2023-06-03T07:00:59.327</time></trkpt><trkpt lat="55.8744300" lon="49.1881467"><time>2023-06-03T07:01:01.323</time></trkpt><trkpt lat="55.8744433" lon="49.1880683"><time>2023-06-03T07:01:02.323</time></trkpt><trkpt lat="55.8744633" lon="49.1879950"><time>2023-06-03T07:01:03.323</time></trkpt><trkpt lat="55.8744833" lon="49.1879183"><time>2023-06-03T07:01:04.317</time></trkpt><trkpt lat="55.8745000" lon="49.1878350"><time>2023-06-03T07:01:05.320</time></trkpt><trkpt lat="55.8745167" lon="49.1877467"><time>2023-06-03T07:01:06.317</time></trkpt><trkpt lat="55.8745283" lon="49.1876400"><time>2023-06-03T07:01:07.313</time></trkpt><trkpt lat="55.8745367" lon="49.1875400"><time>2023-06-03T07:01:08.320</time></trkpt><trkpt lat="55.8745483" lon="49.1874467"><time>2023-06-03T07:01:09.323</time></trkpt><trkpt lat="55.8745567" lon="49.1873617"><time>2023-06-03T07:01:10.320</time></trkpt><trkpt lat="55.8745650" lon="49.1872817"><time>2023-06-03T07:01:11.317</time></trkpt><trkpt lat="55.8745850" lon="49.1871567"><time>2023-06-03T07:01:13.317</time></trkpt><trkpt lat="55.8745983" lon="49.1870233"><time>2023-06-03T07:01:15.317</time></trkpt><trkpt lat="55.8746100" lon="49.1868700"><time>2023-06-03T07:01:17.317</time></trkpt><trkpt lat="55.8746083" lon="49.1867533"><time>2023-06-03T07:01:19.323</time></trkpt><trkpt lat="55.8746050" lon="49.1866517"><time>2023-06-03T07:01:22.320</time></trkpt><trkpt lat="55.8746200" lon="49.1865733"><time>2023-06-03T07:01:26.323</time></trkpt><trkpt lat="55.8746817" lon="49.1864517"><time>2023-06-03T07:01:54.327</time></trkpt><trkpt lat="55.8747317" lon="49.1864767"><time>2023-06-03T07:02:17.303</time></trkpt><trkpt lat="55.8747867" lon="49.1865283"><time>2023-06-03T07:02:20.323</time></trkpt><trkpt lat="55.8748250" lon="49.1865700"><time>2023-06-03T07:02:22.327</time></trkpt><trkpt lat="55.8747700" lon="49.1865267"><time>2023-06-03T07:02:33.317</time></trkpt><trkpt lat="55.8747333" lon="49.1864733"><time>2023-06-03T07:02:35.320</time></trkpt><trkpt lat="55.8746767" lon="49.1864417"><time>2023-06-03T07:02:37.323</time></trkpt><trkpt lat="55.8746367" lon="49.1863950"><time>2023-06-03T07:02:39.327</time></trkpt><trkpt lat="55.8746117" lon="49.1864967"><time>2023-06-03T07:02:47.327</time></trkpt><trkpt lat="55.8745833" lon="49.1866050"><time>2023-06-03T07:02:49.327</time></trkpt><trkpt lat="55.8745500" lon="49.1866767"><time>2023-06-03T07:02:51.317</time></trkpt><trkpt lat="55.8745883" lon="49.1865967"><time>2023-06-03T07:03:10.320</time></trkpt><trkpt lat="55.8746183" lon="49.1865183"><time>2023-06-03T07:03:15.323</time></trkpt><trkpt lat="55.8745917" lon="49.1863767"><time>2023-06-03T07:03:24.320</time></trkpt><trkpt lat="55.8745500" lon="49.1863200"><time>2023-06-03T07:03:28.327</time></trkpt><trkpt lat="55.8745083" lon="49.1862733"><time>2023-06-03T07:03:31.327</time></trkpt><trkpt lat="55.8744600" lon="49.1862483"><time>2023-06-03T07:03:33.327</time></trkpt><trkpt lat="55.8744183" lon="49.1862017"><time>2023-06-03T07:03:35.327</time></trkpt><trkpt lat="55.8743667" lon="49.1861617"><time>2023-06-03T07:03:37.327</time></trkpt><trkpt lat="55.8743100" lon="49.1860967"><time>2023-06-03T07:03:39.327</time></trkpt><trkpt lat="55.8742633" lon="49.1860467"><time>2023-06-03T07:03:41.330</time></trkpt><trkpt lat="55.8742250" lon="49.1859967"><time>2023-06-03T07:03:43.330</time></trkpt><trkpt lat="55.8741767" lon="49.1859450"><time>2023-06-03T07:03:46.327</time></trkpt><trkpt lat="55.8742250" lon="49.1860050"><time>2023-06-03T07:04:16.307</time></trkpt><trkpt lat="55.8742667" lon="49.1860550"><time>2023-06-03T07:04:18.317</time></trkpt><trkpt lat="55.8743000" lon="49.1861100"><time>2023-06-03T07:04:20.313</time></trkpt><trkpt lat="55.8743400" lon="49.1861583"><time>2023-06-03T07:04:22.327</time></trkpt><trkpt lat="55.8743783" lon="49.1862050"><time>2023-06-03T07:04:24.317</time></trkpt><trkpt lat="55.8744300" lon="49.1862667"><time>2023-06-03T07:04:26.307</time></trkpt><trkpt lat="55.8744933" lon="49.1863167"><time>2023-06-03T07:04:28.317</time></trkpt><trkpt lat="55.8745483" lon="49.1863433"><time>2023-06-03T07:04:30.323</time></trkpt><trkpt lat="55.8745850" lon="49.1864383"><time>2023-06-03T07:04:32.317</time></trkpt><trkpt lat="55.8745617" lon="49.1865567"><time>2023-06-03T07:04:34.317</time></trkpt><trkpt lat="55.8745367" lon="49.1866950"><time>2023-06-03T07:04:36.320</time></trkpt><trkpt lat="55.8745133" lon="49.1868367"><time>2023-06-03T07:04:38.327</time></trkpt><trkpt lat="55.8745117" lon="49.1869533"><time>2023-06-03T07:04:40.323</time></trkpt><trkpt lat="55.8745150" lon="49.1870500"><time>2023-06-03T07:04:42.320</time></trkpt><trkpt lat="55.8745217" lon="49.1871417"><time>2023-06-03T07:04:44.313</time></trkpt><trkpt lat="55.8745300" lon="49.1872600"><time>2023-06-03T07:04:46.327</time></trkpt><trkpt lat="55.8745267" lon="49.1873733"><time>2023-06-03T07:04:48.323</time></trkpt><trkpt lat="55.8745200" lon="49.1874800"><time>2023-06-03T07:04:50.320</time></trkpt><trkpt lat="55.8745083" lon="49.1875783"><time>2023-06-03T07:04:52.317</time></trkpt><trkpt lat="55.8744967" lon="49.1877000"><time>2023-06-03T07:04:54.327</time></trkpt><trkpt lat="55.8744783" lon="49.1878100"><time>2023-06-03T07:04:56.307</time></trkpt><trkpt lat="55.8744567" lon="49.1878883"><time>2023-06-03T07:04:58.317</time></trkpt><trkpt lat="55.8744150" lon="49.1879567"><time>2023-06-03T07:05:00.327</time></trkpt><trkpt lat="55.8743433" lon="49.1879617"><time>2023-06-03T07:05:03.323</time></trkpt><trkpt lat="55.8742617" lon="49.1879517"><time>2023-06-03T07:05:05.320</time></trkpt><trkpt lat="55.8741867" lon="49.1879450"><time>2023-06-03T07:05:07.307</time></trkpt><trkpt lat="55.8741183" lon="49.1879217"><time>2023-06-03T07:05:09.330</time></trkpt><trkpt lat="55.8740733" lon="49.1878900"><time>2023-06-03T07:05:11.327</time></trkpt><trkpt lat="55.8740467" lon="49.1877900"><time>2023-06-03T07:05:14.320</time></trkpt><trkpt lat="55.8740550" lon="49.1876733"><time>2023-06-03T07:05:16.310</time></trkpt><trkpt lat="55.8740600" lon="49.1875500"><time>2023-06-03T07:05:18.323</time></trkpt><trkpt lat="55.8740700" lon="49.1874267"><time>2023-06-03T07:05:20.323</time></trkpt><trkpt lat="55.8740800" lon="49.1873117"><time>2023-06-03T07:05:22.323</time></trkpt><trkpt lat="55.8740867" lon="49.1871933"><time>2023-06-03T07:05:24.320</time></trkpt><trkpt lat="55.8740867" lon="49.1870700"><time>2023-06-03T07:05:26.330</time></trkpt><trkpt lat="55.8740867" lon="49.1869483"><time>2023-06-03T07:05:28.320</time></trkpt><trkpt lat="55.8740850" lon="49.1868200"><time>2023-06-03T07:05:30.323</time></trkpt><trkpt lat="55.8740850" lon="49.1867000"><time>2023-06-03T07:05:32.320</time></trkpt><trkpt lat="55.8740850" lon="49.1865850"><time>2023-06-03T07:05:34.323</time></trkpt><trkpt lat="55.8740833" lon="49.1864733"><time>2023-06-03T07:05:36.317</time></trkpt><trkpt lat="55.8740933" lon="49.1863767"><time>2023-06-03T07:05:38.323</time></trkpt><trkpt lat="55.8741083" lon="49.1862917"><time>2023-06-03T07:05:40.327</time></trkpt><trkpt lat="55.8740783" lon="49.1862300"><time>2023-06-03T07:05:45.327</time></trkpt><trkpt lat="55.8740800" lon="49.1863200"><time>2023-06-03T07:05:48.327</time></trkpt><trkpt lat="55.8740900" lon="49.1864067"><time>2023-06-03T07:05:50.323</time></trkpt><trkpt lat="55.8740817" lon="49.1865117"><time>2023-06-03T07:05:52.327</time></trkpt><trkpt lat="55.8740667" lon="49.1865983"><time>2023-06-03T07:05:54.323</time></trkpt><trkpt lat="55.8740650" lon="49.1867417"><time>2023-06-03T07:05:56.323</time></trkpt><trkpt lat="55.8740600" lon="49.1868400"><time>2023-06-03T07:05:58.323</time></trkpt><trkpt lat="55.8740483" lon="49.1869533"><time>2023-06-03T07:06:00.320</time></trkpt><trkpt lat="55.8740467" lon="49.1870633"><time>2023-06-03T07:06:02.323</time></trkpt><trkpt lat="55.8740400" lon="49.1871817"><time>2023-06-03T07:06:04.320</time></trkpt><trkpt lat="55.8740383" lon="49.1873067"><time>2023-06-03T07:06:06.323</time></trkpt><trkpt lat="55.8740333" lon="49.1874317"><time>2023-06-03T07:06:08.323</time></trkpt><trkpt lat="55.8740200" lon="49.1875500"><time>2023-06-03T07:06:10.327</time></trkpt><trkpt lat="55.8740167" lon="49.1876517"><time>2023-06-03T07:06:12.320</time></trkpt><trkpt lat="55.8740383" lon="49.1877583"><time>2023-06-03T07:06:14.327</time></trkpt><trkpt lat="55.8740750" lon="49.1878417"><time>2023-06-03T07:06:16.320</time></trkpt><trkpt lat="55.8741300" lon="49.1879100"><time>2023-06-03T07:06:18.323</time></trkpt><trkpt lat="55.8741967" lon="49.1879333"><time>2023-06-03T07:06:20.327</time></trkpt><trkpt lat="55.8742600" lon="49.1879383"><time>2023-06-03T07:06:22.323</time></trkpt><trkpt lat="55.8743233" lon="49.1879667"><time>2023-06-03T07:06:24.317</time></trkpt><trkpt lat="55.8743683" lon="49.1880383"><time>2023-06-03T07:06:26.323</time></trkpt><trkpt lat="55.8743917" lon="49.1881267"><time>2023-06-03T07:06:28.317</time></trkpt><trkpt lat="55.8743967" lon="49.1882200"><time>2023-06-03T07:06:30.323</time></trkpt><trkpt lat="55.8743967" lon="49.1883133"><time>2023-06-03T07:06:33.317</time></trkpt><trkpt lat="55.8743867" lon="49.1883933"><time>2023-06-03T07:06:38.297</time></trkpt><trkpt lat="55.8743717" lon="49.1884750"><time>2023-06-03T07:06:54.327</time></trkpt><trkpt lat="55.8743617" lon="49.1885650"><time>2023-06-03T07:07:05.323</time></trkpt><trkpt lat="55.8743533" lon="49.1886800"><time>2023-06-03T07:07:08.323</time></trkpt><trkpt lat="55.8743533" lon="49.1887600"><time>2023-06-03T07:07:10.320</time></trkpt><trkpt lat="55.8743383" lon="49.1888467"><time>2023-06-03T07:07:12.320</time></trkpt><trkpt lat="55.8743117" lon="49.1889317"><time>2023-06-03T07:07:14.327</time></trkpt><trkpt lat="55.8742817" lon="49.1890033"><time>2023-06-03T07:07:16.320</time></trkpt><trkpt lat="55.8742483" lon="49.1890833"><time>2023-06-03T07:07:18.323</time></trkpt><trkpt lat="55.8742100" lon="49.1891500"><time>2023-06-03T07:07:20.323</time></trkpt><trkpt lat="55.8741867" lon="49.1892183"><time>2023-06-03T07:07:22.320</time></trkpt><trkpt lat="55.8741783" lon="49.1893067"><time>2023-06-03T07:07:24.323</time></trkpt><trkpt lat="55.8741683" lon="49.1894083"><time>2023-06-03T07:07:27.320</time></trkpt><trkpt lat="55.8741483" lon="49.1895000"><time>2023-06-03T07:07:29.323</time></trkpt><trkpt lat="55.8741167" lon="49.1895983"><time>2023-06-03T07:07:31.320</time></trkpt><trkpt lat="55.8740817" lon="49.1896850"><time>2023-06-03T07:07:33.327</time></trkpt><trkpt lat="55.8740333" lon="49.1897517"><time>2023-06-03T07:07:35.320</time></trkpt><trkpt lat="55.8739900" lon="49.1898400"><time>2023-06-03T07:07:37.320</time></trkpt><trkpt lat="55.8739667" lon="49.1899500"><time>2023-06-03T07:07:39.320</time></trkpt><trkpt lat="55.8739467" lon="49.1900717"><time>2023-06-03T07:07:41.327</time></trkpt><trkpt lat="55.8739367" lon="49.1901983"><time>2023-06-03T07:07:43.317</time></trkpt><trkpt lat="55.8739467" lon="49.1903150"><time>2023-06-03T07:07:45.317</time></trkpt><trkpt lat="55.8739517" lon="49.1904083"><time>2023-06-03T07:07:47.320</time></trkpt><trkpt lat="55.8739450" lon="49.1905083"><time>2023-06-03T07:07:49.320</time></trkpt><trkpt lat="55.8739317" lon="49.1906167"><time>2023-06-03T07:07:51.327</time></trkpt><trkpt lat="55.8739083" lon="49.1907150"><time>2023-06-03T07:07:53.317</time></trkpt><trkpt lat="55.8738600" lon="49.1907883"><time>2023-06-03T07:07:55.307</time></trkpt><trkpt lat="55.8738117" lon="49.1908717"><time>2023-06-03T07:07:57.323</time></trkpt><trkpt lat="55.8737717" lon="49.1909550"><time>2023-06-03T07:07:59.323</time></trkpt><trkpt lat="55.8737333" lon="49.1909967"><time>2023-06-03T07:08:02.317</time></trkpt><trkpt lat="55.8736667" lon="49.1909950"><time>2023-06-03T07:08:14.323</time></trkpt><trkpt lat="55.8736500" lon="49.1908967"><time>2023-06-03T07:08:16.320</time></trkpt><trkpt lat="55.8736333" lon="49.1907717"><time>2023-06-03T07:08:18.320</time></trkpt><trkpt lat="55.8736050" lon="49.1906183"><time>2023-06-03T07:08:20.323</time></trkpt><trkpt lat="55.8735850" lon="49.1904950"><time>2023-06-03T07:08:22.323</time></trkpt><trkpt lat="55.8735533" lon="49.1903717"><time>2023-06-03T07:08:24.320</time></trkpt><trkpt lat="55.8735217" lon="49.1902533"><time>2023-06-03T07:08:26.323</time></trkpt><trkpt lat="55.8734783" lon="49.1901383"><time>2023-06-03T07:08:28.323</time></trkpt><trkpt lat="55.8734467" lon="49.1900300"><time>2023-06-03T07:08:30.317</time></trkpt><trkpt lat="55.8734050" lon="49.1899333"><time>2023-06-03T07:08:32.317</time></trkpt><trkpt lat="55.8733550" lon="49.1898667"><time>2023-06-03T07:08:34.323</time></trkpt><trkpt lat="55.8733000" lon="49.1897950"><time>2023-06-03T07:08:36.307</time></trkpt><trkpt lat="55.8732350" lon="49.1897233"><time>2023-06-03T07:08:38.320</time></trkpt><trkpt lat="55.8731967" lon="49.1896800"><time>2023-06-03T07:08:39.313</time></trkpt><trkpt lat="55.8731550" lon="49.1896383"><time>2023-06-03T07:08:40.317</time></trkpt><trkpt lat="55.8731100" lon="49.1896050"><time>2023-06-03T07:08:41.320</time></trkpt><trkpt lat="55.8730683" lon="49.1895650"><time>2023-06-03T07:08:42.320</time></trkpt><trkpt lat="55.8730250" lon="49.1895300"><time>2023-06-03T07:08:43.323</time></trkpt><trkpt lat="55.8729783" lon="49.1895000"><time>2023-06-03T07:08:44.323</time></trkpt><trkpt lat="55.8729350" lon="49.1894650"><time>2023-06-03T07:08:45.327</time></trkpt><trkpt lat="55.8728550" lon="49.1894083"><time>2023-06-03T07:08:47.320</time></trkpt><trkpt lat="55.8727700" lon="49.1893500"><time>2023-06-03T07:08:49.320</time></trkpt><trkpt lat="55.8726983" lon="49.1892767"><time>2023-06-03T07:08:51.323</time></trkpt><trkpt lat="55.8726417" lon="49.1891917"><time>2023-06-03T07:08:53.323</time></trkpt><trkpt lat="55.8725933" lon="49.1891183"><time>2023-06-03T07:08:55.320</time></trkpt><trkpt lat="55.8725467" lon="49.1890617"><time>2023-06-03T07:08:57.307</time></trkpt><trkpt lat="55.8724900" lon="49.1889950"><time>2023-06-03T07:08:59.323</time></trkpt><trkpt lat="55.8724383" lon="49.1889133"><time>2023-06-03T07:09:01.327</time></trkpt><trkpt lat="55.8723783" lon="49.1888217"><time>2023-06-03T07:09:03.327</time></trkpt><trkpt lat="55.8723483" lon="49.1887367"><time>2023-06-03T07:09:05.323</time></trkpt><trkpt lat="55.8723133" lon="49.1886333"><time>2023-06-03T07:09:07.323</time></trkpt><trkpt lat="55.8722683" lon="49.1885033"><time>2023-06-03T07:09:09.313</time></trkpt><trkpt lat="55.8722283" lon="49.1883750"><time>2023-06-03T07:09:11.323</time></trkpt><trkpt lat="55.8721817" lon="49.1882550"><time>2023-06-03T07:09:13.320</time></trkpt><trkpt lat="55.8721317" lon="49.1881317"><time>2023-06-03T07:09:15.323</time></trkpt><trkpt lat="55.8720867" lon="49.1880083"><time>2023-06-03T07:09:17.317</time></trkpt><trkpt lat="55.8720317" lon="49.1878917"><time>2023-06-03T07:09:19.320</time></trkpt><trkpt lat="55.8719933" lon="49.1877733"><time>2023-06-03T07:09:21.323</time></trkpt><trkpt lat="55.8719567" lon="49.1876700"><time>2023-06-03T07:09:23.323</time></trkpt><trkpt lat="55.8719233" lon="49.1875733"><time>2023-06-03T07:09:25.320</time></trkpt><trkpt lat="55.8719000" lon="49.1874617"><time>2023-06-03T07:09:27.327</time></trkpt><trkpt lat="55.8718867" lon="49.1873317"><time>2023-06-03T07:09:29.327</time></trkpt><trkpt lat="55.8718850" lon="49.1871950"><time>2023-06-03T07:09:31.327</time></trkpt><trkpt lat="55.8718800" lon="49.1870483"><time>2023-06-03T07:09:33.323</time></trkpt><trkpt lat="55.8718700" lon="49.1869133"><time>2023-06-03T07:09:35.320</time></trkpt><trkpt lat="55.8718750" lon="49.1867867"><time>2023-06-03T07:09:37.320</time></trkpt><trkpt lat="55.8718700" lon="49.1867050"><time>2023-06-03T07:09:39.323</time></trkpt><trkpt lat="55.8717717" lon="49.1867017"><time>2023-06-03T07:09:55.307</time></trkpt><trkpt lat="55.8717433" lon="49.1866200"><time>2023-06-03T07:09:57.317</time></trkpt><trkpt lat="55.8717100" lon="49.1864967"><time>2023-06-03T07:09:59.317</time></trkpt><trkpt lat="55.8716850" lon="49.1863567"><time>2023-06-03T07:10:01.327</time></trkpt><trkpt lat="55.8716500" lon="49.1862283"><time>2023-06-03T07:10:03.327</time></trkpt><trkpt lat="55.8716267" lon="49.1861533"><time>2023-06-03T07:10:04.323</time></trkpt><trkpt lat="55.8716017" lon="49.1860767"><time>2023-06-03T07:10:05.323</time></trkpt><trkpt lat="55.8715600" lon="49.1859317"><time>2023-06-03T07:10:07.310</time></trkpt><trkpt lat="55.8715383" lon="49.1858583"><time>2023-06-03T07:10:08.317</time></trkpt><trkpt lat="55.8715183" lon="49.1857867"><time>2023-06-03T07:10:09.317</time></trkpt><trkpt lat="55.8714983" lon="49.1857067"><time>2023-06-03T07:10:10.323</time></trkpt><trkpt lat="55.8714633" lon="49.1855867"><time>2023-06-03T07:10:12.320</time></trkpt><trkpt lat="55.8714383" lon="49.1855150"><time>2023-06-03T07:10:13.323</time></trkpt><trkpt lat="55.8714117" lon="49.1854400"><time>2023-06-03T07:10:14.323</time></trkpt><trkpt lat="55.8713850" lon="49.1853667"><time>2023-06-03T07:10:15.323</time></trkpt><trkpt lat="55.8713583" lon="49.1852967"><time>2023-06-03T07:10:16.323</time></trkpt><trkpt lat="55.8713283" lon="49.1852300"><time>2023-06-03T07:10:17.323</time></trkpt><trkpt lat="55.8713000" lon="49.1851583"><time>2023-06-03T07:10:18.327</time></trkpt><trkpt lat="55.8712700" lon="49.1850867"><time>2023-06-03T07:10:19.320</time></trkpt><trkpt lat="55.8712250" lon="49.1849567"><time>2023-06-03T07:10:21.323</time></trkpt><trkpt lat="55.8712033" lon="49.1848833"><time>2023-06-03T07:10:22.323</time></trkpt><trkpt lat="55.8711700" lon="49.1847400"><time>2023-06-03T07:10:24.320</time></trkpt><trkpt lat="55.8711267" lon="49.1846150"><time>2023-06-03T07:10:26.323</time></trkpt><trkpt lat="55.8710850" lon="49.1845017"><time>2023-06-03T07:10:28.327</time></trkpt><trkpt lat="55.8710467" lon="49.1844000"><time>2023-06-03T07:10:30.327</time></trkpt><trkpt lat="55.8710100" lon="49.1843033"><time>2023-06-03T07:10:32.323</time></trkpt><trkpt lat="55.8709800" lon="49.1841933"><time>2023-06-03T07:10:34.307</time></trkpt><trkpt lat="55.8709450" lon="49.1840267"><time>2023-06-03T07:10:35.300</time></trkpt><trkpt lat="55.8708967" lon="49.1842083"><time>2023-06-03T07:10:35.793</time></trkpt><trkpt lat="55.8708750" lon="49.1840833"><time>2023-06-03T07:10:36.813</time></trkpt><trkpt lat="55.8708583" lon="49.1839733"><time>2023-06-03T07:10:38.310</time></trkpt><trkpt lat="55.8708400" lon="49.1838667"><time>2023-06-03T07:10:40.300</time></trkpt><trkpt lat="55.8708250" lon="49.1837350"><time>2023-06-03T07:10:42.303</time></trkpt><trkpt lat="55.8708017" lon="49.1836333"><time>2023-06-03T07:10:44.317</time></trkpt><trkpt lat="55.8707767" lon="49.1835050"><time>2023-06-03T07:10:46.310</time></trkpt><trkpt lat="55.8707583" lon="49.1834017"><time>2023-06-03T07:10:48.313</time></trkpt><trkpt lat="55.8707450" lon="49.1832717"><time>2023-06-03T07:10:50.317</time></trkpt><trkpt lat="55.8707233" lon="49.1831767"><time>2023-06-03T07:10:52.313</time></trkpt><trkpt lat="55.8706817" lon="49.1831350"><time>2023-06-03T07:11:00.313</time></trkpt><trkpt lat="55.8706783" lon="49.1830333"><time>2023-06-03T07:11:11.320</time></trkpt><trkpt lat="55.8707050" lon="49.1829050"><time>2023-06-03T07:11:14.323</time></trkpt><trkpt lat="55.8707150" lon="49.1827733"><time>2023-06-03T07:11:16.323</time></trkpt><trkpt lat="55.8707183" lon="49.1826417"><time>2023-06-03T07:11:18.290</time></trkpt><trkpt lat="55.8707167" lon="49.1826100"><time>2023-06-03T07:11:19.770</time></trkpt><trkpt lat="55.8706867" lon="49.1824800"><time>2023-06-03T07:11:21.313</time></trkpt><trkpt lat="55.8706650" lon="49.1823517"><time>2023-06-03T07:11:22.317</time></trkpt><trkpt lat="55.8706383" lon="49.1821950"><time>2023-06-03T07:11:24.313</time></trkpt><trkpt lat="55.8706167" lon="49.1820433"><time>2023-06-03T07:11:26.310</time></trkpt><trkpt lat="55.8706033" lon="49.1819567"><time>2023-06-03T07:11:27.310</time></trkpt><trkpt lat="55.8705983" lon="49.1818767"><time>2023-06-03T07:11:28.277</time></trkpt><trkpt lat="55.8706017" lon="49.1817950"><time>2023-06-03T07:11:29.293</time></trkpt><trkpt lat="55.8706217" lon="49.1816750"><time>2023-06-03T07:11:31.313</time></trkpt><trkpt lat="55.8706200" lon="49.1815700"><time>2023-06-03T07:11:33.317</time></trkpt><trkpt lat="55.8706033" lon="49.1814700"><time>2023-06-03T07:11:35.333</time></trkpt><trkpt lat="55.8706017" lon="49.1814683"><time>2023-06-03T07:11:36.320</time></trkpt><trkpt lat="55.8705583" lon="49.1813900"><time>2023-06-03T07:11:37.820</time></trkpt><trkpt lat="55.8705133" lon="49.1813050"><time>2023-06-03T07:11:38.797</time></trkpt><trkpt lat="55.8704550" lon="49.1812467"><time>2023-06-03T07:11:40.317</time></trkpt><trkpt lat="55.8704067" lon="49.1812233"><time>2023-06-03T07:11:41.317</time></trkpt><trkpt lat="55.8703550" lon="49.1812150"><time>2023-06-03T07:11:42.317</time></trkpt><trkpt lat="55.8702750" lon="49.1812433"><time>2023-06-03T07:11:44.337</time></trkpt><trkpt lat="55.8702750" lon="49.1812433"><time>2023-06-03T07:11:44.497</time></trkpt><trkpt lat="55.8702117" lon="49.1812417"><time>2023-06-03T07:11:46.333</time></trkpt><trkpt lat="55.8702117" lon="49.1812417"><time>2023-06-03T07:11:47.300</time></trkpt><trkpt lat="55.8702483" lon="49.1812900"><time>2023-06-03T07:12:00.307</time></trkpt><trkpt lat="55.8702983" lon="49.1812900"><time>2023-06-03T07:12:02.313</time></trkpt><trkpt lat="55.8703617" lon="49.1812517"><time>2023-06-03T07:12:04.317</time></trkpt><trkpt lat="55.8704317" lon="49.1812483"><time>2023-06-03T07:12:06.300</time></trkpt><trkpt lat="55.8705133" lon="49.1812717"><time>2023-06-03T07:12:08.310</time></trkpt><trkpt lat="55.8705800" lon="49.1813517"><time>2023-06-03T07:12:10.313</time></trkpt><trkpt lat="55.8706167" lon="49.1814667"><time>2023-06-03T07:12:12.317</time></trkpt><trkpt lat="55.8706100" lon="49.1815967"><time>2023-06-03T07:12:14.310</time></trkpt><trkpt lat="55.8706083" lon="49.1817233"><time>2023-06-03T07:12:16.310</time></trkpt><trkpt lat="55.8706000" lon="49.1818383"><time>2023-06-03T07:12:18.320</time></trkpt><trkpt lat="55.8705983" lon="49.1819550"><time>2023-06-03T07:12:20.323</time></trkpt><trkpt lat="55.8706183" lon="49.1820633"><time>2023-06-03T07:12:22.323</time></trkpt><trkpt lat="55.8706350" lon="49.1821917"><time>2023-06-03T07:12:24.317</time></trkpt><trkpt lat="55.8706533" lon="49.1823133"><time>2023-06-03T07:12:26.323</time></trkpt><trkpt lat="55.8706783" lon="49.1824317"><time>2023-06-03T07:12:28.327</time></trkpt><trkpt lat="55.8706867" lon="49.1825517"><time>2023-06-03T07:12:30.323</time></trkpt><trkpt lat="55.8706850" lon="49.1826850"><time>2023-06-03T07:12:32.323</time></trkpt><trkpt lat="55.8706817" lon="49.1828300"><time>2023-06-03T07:12:34.313</time></trkpt><trkpt lat="55.8706883" lon="49.1829833"><time>2023-06-03T07:12:36.320</time></trkpt><trkpt lat="55.8707033" lon="49.1831250"><time>2023-06-03T07:12:38.320</time></trkpt><trkpt lat="55.8707200" lon="49.1832717"><time>2023-06-03T07:12:40.317</time></trkpt><trkpt lat="55.8707333" lon="49.1833483"><time>2023-06-03T07:12:41.320</time></trkpt><trkpt lat="55.8707483" lon="49.1834250"><time>2023-06-03T07:12:42.320</time></trkpt><trkpt lat="55.8707667" lon="49.1835017"><time>2023-06-03T07:12:43.313</time></trkpt><trkpt lat="55.8707867" lon="49.1835817"><time>2023-06-03T07:12:44.327</time></trkpt><trkpt lat="55.8708050" lon="49.1836600"><time>2023-06-03T07:12:45.323</time></trkpt><trkpt lat="55.8708217" lon="49.1837350"><time>2023-06-03T07:12:46.327</time></trkpt><trkpt lat="55.8708650" lon="49.1838683"><time>2023-06-03T07:12:48.310</time></trkpt><trkpt lat="55.8708867" lon="49.1839383"><time>2023-06-03T07:12:49.313</time></trkpt><trkpt lat="55.8709083" lon="49.1840083"><time>2023-06-03T07:12:50.323</time></trkpt><trkpt lat="55.8709317" lon="49.1840817"><time>2023-06-03T07:12:51.320</time></trkpt><trkpt lat="55.8709500" lon="49.1841567"><time>2023-06-03T07:12:52.320</time></trkpt><trkpt lat="55.8709867" lon="49.1843067"><time>2023-06-03T07:12:54.323</time></trkpt><trkpt lat="55.8710250" lon="49.1844350"><time>2023-06-03T07:12:56.327</time></trkpt><trkpt lat="55.8710483" lon="49.1845050"><time>2023-06-03T07:12:57.317</time></trkpt><trkpt lat="55.8710717" lon="49.1845833"><time>2023-06-03T07:12:58.317</time></trkpt><trkpt lat="55.8711033" lon="49.1846700"><time>2023-06-03T07:12:59.317</time></trkpt><trkpt lat="55.8711233" lon="49.1847500"><time>2023-06-03T07:13:00.323</time></trkpt><trkpt lat="55.8711433" lon="49.1848283"><time>2023-06-03T07:13:01.327</time></trkpt><trkpt lat="55.8711683" lon="49.1849067"><time>2023-06-03T07:13:02.323</time></trkpt><trkpt lat="55.8711867" lon="49.1849900"><time>2023-06-03T07:13:03.313</time></trkpt><trkpt lat="55.8712083" lon="49.1850767"><time>2023-06-03T07:13:04.323</time></trkpt><trkpt lat="55.8712333" lon="49.1851483"><time>2023-06-03T07:13:05.303</time></trkpt><trkpt lat="55.8712583" lon="49.1852283"><time>2023-06-03T07:13:06.310</time></trkpt><trkpt lat="55.8712833" lon="49.1853150"><time>2023-06-03T07:13:07.320</time></trkpt><trkpt lat="55.8713100" lon="49.1854000"><time>2023-06-03T07:13:08.323</time></trkpt><trkpt lat="55.8713350" lon="49.1854767"><time>2023-06-03T07:13:09.323</time></trkpt><trkpt lat="55.8713767" lon="49.1856100"><time>2023-06-03T07:13:11.320</time></trkpt><trkpt lat="55.8714233" lon="49.1857500"><time>2023-06-03T07:13:13.320</time></trkpt><trkpt lat="55.8714517" lon="49.1858183"><time>2023-06-03T07:13:14.320</time></trkpt><trkpt lat="55.8714967" lon="49.1859400"><time>2023-06-03T07:13:16.317</time></trkpt><trkpt lat="55.8715533" lon="49.1860483"><time>2023-06-03T07:13:18.317</time></trkpt><trkpt lat="55.8715917" lon="49.1861783"><time>2023-06-03T07:13:20.320</time></trkpt><trkpt lat="55.8716067" lon="49.1862550"><time>2023-06-03T07:13:21.323</time></trkpt><trkpt lat="55.8716267" lon="49.1863333"><time>2023-06-03T07:13:22.290</time></trkpt><trkpt lat="55.8716617" lon="49.1864800"><time>2023-06-03T07:13:24.313</time></trkpt><trkpt lat="55.8716917" lon="49.1866117"><time>2023-06-03T07:13:26.317</time></trkpt><trkpt lat="55.8717233" lon="49.1867317"><time>2023-06-03T07:13:28.327</time></trkpt><trkpt lat="55.8717483" lon="49.1868533"><time>2023-06-03T07:13:30.330</time></trkpt><trkpt lat="55.8717617" lon="49.1869883"><time>2023-06-03T07:13:32.320</time></trkpt><trkpt lat="55.8717750" lon="49.1871217"><time>2023-06-03T07:13:34.320</time></trkpt><trkpt lat="55.8717733" lon="49.1872600"><time>2023-06-03T07:13:36.323</time></trkpt><trkpt lat="55.8717533" lon="49.1873850"><time>2023-06-03T07:13:38.330</time></trkpt><trkpt lat="55.8717267" lon="49.1875217"><time>2023-06-03T07:13:40.313</time></trkpt><trkpt lat="55.8717033" lon="49.1876550"><time>2023-06-03T07:13:42.323</time></trkpt><trkpt lat="55.8716800" lon="49.1877950"><time>2023-06-03T07:13:44.327</time></trkpt><trkpt lat="55.8716783" lon="49.1879433"><time>2023-06-03T07:13:46.327</time></trkpt><trkpt lat="55.8716800" lon="49.1880817"><time>2023-06-03T07:13:48.323</time></trkpt><trkpt lat="55.8716800" lon="49.1882250"><time>2023-06-03T07:13:50.323</time></trkpt><trkpt lat="55.8716900" lon="49.1883650"><time>2023-06-03T07:13:52.330</time></trkpt><trkpt lat="55.8716967" lon="49.1884450"><time>2023-06-03T07:13:53.323</time></trkpt><trkpt lat="55.8716900" lon="49.1885483"><time>2023-06-03T07:13:55.310</time></trkpt><trkpt lat="55.8716883" lon="49.1886783"><time>2023-06-03T07:13:57.320</time></trkpt><trkpt lat="55.8716983" lon="49.1888067"><time>2023-06-03T07:13:59.317</time></trkpt><trkpt lat="55.8717167" lon="49.1889533"><time>2023-06-03T07:14:01.323</time></trkpt><trkpt lat="55.8717283" lon="49.1890317"><time>2023-06-03T07:14:02.327</time></trkpt><trkpt lat="55.8717367" lon="49.1891867"><time>2023-06-03T07:14:04.323</time></trkpt><trkpt lat="55.8717333" lon="49.1892683"><time>2023-06-03T07:14:05.317</time></trkpt><trkpt lat="55.8717217" lon="49.1894350"><time>2023-06-03T07:14:07.310</time></trkpt><trkpt lat="55.8717183" lon="49.1895150"><time>2023-06-03T07:14:08.320</time></trkpt><trkpt lat="55.8717300" lon="49.1896000"><time>2023-06-03T07:14:09.327</time></trkpt><trkpt lat="55.8717400" lon="49.1896817"><time>2023-06-03T07:14:10.320</time></trkpt><trkpt lat="55.8717417" lon="49.1898350"><time>2023-06-03T07:14:12.273</time></trkpt><trkpt lat="55.8717550" lon="49.1899117"><time>2023-06-03T07:14:13.273</time></trkpt><trkpt lat="55.8717783" lon="49.1899833"><time>2023-06-03T07:14:14.300</time></trkpt><trkpt lat="55.8718033" lon="49.1900733"><time>2023-06-03T07:14:16.303</time></trkpt><trkpt lat="55.8718283" lon="49.1901417"><time>2023-06-03T07:14:19.317</time></trkpt><trkpt lat="55.8718617" lon="49.1902250"><time>2023-06-03T07:14:28.313</time></trkpt><trkpt lat="55.8718633" lon="49.1903183"><time>2023-06-03T07:14:30.317</time></trkpt><trkpt lat="55.8718700" lon="49.1904250"><time>2023-06-03T07:14:32.290</time></trkpt><trkpt lat="55.8718883" lon="49.1905333"><time>2023-06-03T07:14:34.320</time></trkpt><trkpt lat="55.8719167" lon="49.1906400"><time>2023-06-03T07:14:36.323</time></trkpt><trkpt lat="55.8719383" lon="49.1907433"><time>2023-06-03T07:14:38.320</time></trkpt><trkpt lat="55.8719750" lon="49.1908250"><time>2023-06-03T07:14:40.317</time></trkpt><trkpt lat="55.8720117" lon="49.1908967"><time>2023-06-03T07:14:43.313</time></trkpt><trkpt lat="55.8720833" lon="49.1909100"><time>2023-06-03T07:14:46.323</time></trkpt><trkpt lat="55.8721433" lon="49.1909383"><time>2023-06-03T07:14:48.320</time></trkpt><trkpt lat="55.8722017" lon="49.1909833"><time>2023-06-03T07:14:50.317</time></trkpt><trkpt lat="55.8722417" lon="49.1910583"><time>2023-06-03T07:14:52.313</time></trkpt><trkpt lat="55.8722783" lon="49.1911283"><time>2023-06-03T07:14:54.320</time></trkpt><trkpt lat="55.8723083" lon="49.1911883"><time>2023-06-03T07:14:56.317</time></trkpt><trkpt lat="55.8723450" lon="49.1912500"><time>2023-06-03T07:14:58.323</time></trkpt><trkpt lat="55.8723700" lon="49.1913367"><time>2023-06-03T07:15:01.320</time></trkpt><trkpt lat="55.8723400" lon="49.1914433"><time>2023-06-03T07:15:04.323</time></trkpt><trkpt lat="55.8722683" lon="49.1914667"><time>2023-06-03T07:15:07.317</time></trkpt><trkpt lat="55.8721983" lon="49.1914683"><time>2023-06-03T07:15:09.317</time></trkpt><trkpt lat="55.8721300" lon="49.1914650"><time>2023-06-03T07:15:11.317</time></trkpt><trkpt lat="55.8720483" lon="49.1914733"><time>2023-06-03T07:15:13.327</time></trkpt><trkpt lat="55.8719983" lon="49.1914817"><time>2023-06-03T07:15:14.320</time></trkpt><trkpt lat="55.8719117" lon="49.1915000"><time>2023-06-03T07:15:16.320</time></trkpt><trkpt lat="55.8718600" lon="49.1915083"><time>2023-06-03T07:15:17.310</time></trkpt><trkpt lat="55.8718133" lon="49.1915217"><time>2023-06-03T07:15:18.317</time></trkpt><trkpt lat="55.8717333" lon="49.1915417"><time>2023-06-03T07:15:20.317</time></trkpt><trkpt lat="55.8716833" lon="49.1915567"><time>2023-06-03T07:15:21.323</time></trkpt><trkpt lat="55.8715950" lon="49.1915900"><time>2023-06-03T07:15:23.323</time></trkpt><trkpt lat="55.8715117" lon="49.1916400"><time>2023-06-03T07:15:25.327</time></trkpt><trkpt lat="55.8714600" lon="49.1916767"><time>2023-06-03T07:15:26.317</time></trkpt><trkpt lat="55.8714083" lon="49.1917100"><time>2023-06-03T07:15:27.317</time></trkpt><trkpt lat="55.8713533" lon="49.1917483"><time>2023-06-03T07:15:28.317</time></trkpt><trkpt lat="55.8713067" lon="49.1917850"><time>2023-06-03T07:15:29.323</time></trkpt><trkpt lat="55.8712600" lon="49.1918300"><time>2023-06-03T07:15:30.320</time></trkpt><trkpt lat="55.8712183" lon="49.1918717"><time>2023-06-03T07:15:31.327</time></trkpt><trkpt lat="55.8711700" lon="49.1919200"><time>2023-06-03T07:15:32.310</time></trkpt><trkpt lat="55.8711133" lon="49.1919667"><time>2023-06-03T07:15:33.320</time></trkpt><trkpt lat="55.8710650" lon="49.1920100"><time>2023-06-03T07:15:34.307</time></trkpt><trkpt lat="55.8710133" lon="49.1920683"><time>2023-06-03T07:15:35.307</time></trkpt><trkpt lat="55.8709683" lon="49.1921017"><time>2023-06-03T07:15:36.317</time></trkpt><trkpt lat="55.8709183" lon="49.1921267"><time>2023-06-03T07:15:37.317</time></trkpt><trkpt lat="55.8708683" lon="49.1921517"><time>2023-06-03T07:15:38.313</time></trkpt><trkpt lat="55.8708150" lon="49.1921817"><time>2023-06-03T07:15:39.327</time></trkpt><trkpt lat="55.8707583" lon="49.1922100"><time>2023-06-03T07:15:40.320</time></trkpt><trkpt lat="55.8706983" lon="49.1922350"><time>2023-06-03T07:15:41.313</time></trkpt><trkpt lat="55.8706400" lon="49.1922567"><time>2023-06-03T07:15:42.320</time></trkpt><trkpt lat="55.8705850" lon="49.1922767"><time>2023-06-03T07:15:43.317</time></trkpt><trkpt lat="55.8705333" lon="49.1922967"><time>2023-06-03T07:15:44.317</time></trkpt><trkpt lat="55.8704800" lon="49.1923167"><time>2023-06-03T07:15:45.317</time></trkpt><trkpt lat="55.8704283" lon="49.1923400"><time>2023-06-03T07:15:46.313</time></trkpt><trkpt lat="55.8703750" lon="49.1923633"><time>2023-06-03T07:15:47.323</time></trkpt><trkpt lat="55.8703183" lon="49.1923900"><time>2023-06-03T07:15:48.323</time></trkpt><trkpt lat="55.8702600" lon="49.1924050"><time>2023-06-03T07:15:49.323</time></trkpt><trkpt lat="55.8702000" lon="49.1924233"><time>2023-06-03T07:15:50.323</time></trkpt><trkpt lat="55.8701433" lon="49.1924400"><time>2023-06-03T07:15:51.310</time></trkpt><trkpt lat="55.8700867" lon="49.1924617"><time>2023-06-03T07:15:52.317</time></trkpt><trkpt lat="55.8700250" lon="49.1924850"><time>2023-06-03T07:15:53.317</time></trkpt><trkpt lat="55.8699567" lon="49.1925200"><time>2023-06-03T07:15:54.317</time></trkpt><trkpt lat="55.8698817" lon="49.1925517"><time>2023-06-03T07:15:55.320</time></trkpt><trkpt lat="55.8698167" lon="49.1925883"><time>2023-06-03T07:15:56.320</time></trkpt><trkpt lat="55.8697517" lon="49.1926217"><time>2023-06-03T07:15:57.320</time></trkpt><trkpt lat="55.8696950" lon="49.1926550"><time>2023-06-03T07:15:58.323</time></trkpt><trkpt lat="55.8696350" lon="49.1926950"><time>2023-06-03T07:15:59.320</time></trkpt><trkpt lat="55.8695800" lon="49.1927250"><time>2023-06-03T07:16:00.320</time></trkpt><trkpt lat="55.8695267" lon="49.1927550"><time>2023-06-03T07:16:01.317</time></trkpt><trkpt lat="55.8694750" lon="49.1927883"><time>2023-06-03T07:16:02.293</time></trkpt><trkpt lat="55.8694233" lon="49.1928300"><time>2023-06-03T07:16:03.303</time></trkpt><trkpt lat="55.8693717" lon="49.1928700"><time>2023-06-03T07:16:04.317</time></trkpt><trkpt lat="55.8693150" lon="49.1929000"><time>2023-06-03T07:16:05.320</time></trkpt><trkpt lat="55.8692683" lon="49.1929167"><time>2023-06-03T07:16:06.320</time></trkpt><trkpt lat="55.8692200" lon="49.1929250"><time>2023-06-03T07:16:07.290</time></trkpt><trkpt lat="55.8691700" lon="49.1929383"><time>2023-06-03T07:16:08.310</time></trkpt><trkpt lat="55.8691133" lon="49.1929617"><time>2023-06-03T07:16:09.313</time></trkpt><trkpt lat="55.8690317" lon="49.1930033"><time>2023-06-03T07:16:10.273</time></trkpt><trkpt lat="55.8689500" lon="49.1930517"><time>2023-06-03T07:16:11.287</time></trkpt><trkpt lat="55.8688900" lon="49.1930883"><time>2023-06-03T07:16:12.307</time></trkpt><trkpt lat="55.8688233" lon="49.1931350"><time>2023-06-03T07:16:13.307</time></trkpt><trkpt lat="55.8687683" lon="49.1931917"><time>2023-06-03T07:16:14.317</time></trkpt><trkpt lat="55.8687117" lon="49.1932567"><time>2023-06-03T07:16:15.283</time></trkpt><trkpt lat="55.8686717" lon="49.1933267"><time>2023-06-03T07:16:16.307</time></trkpt><trkpt lat="55.8686350" lon="49.1934017"><time>2023-06-03T07:16:17.310</time></trkpt><trkpt lat="55.8686083" lon="49.1934867"><time>2023-06-03T07:16:18.310</time></trkpt><trkpt lat="55.8685833" lon="49.1935783"><time>2023-06-03T07:16:19.310</time></trkpt><trkpt lat="55.8685650" lon="49.1936617"><time>2023-06-03T07:16:20.317</time></trkpt><trkpt lat="55.8685467" lon="49.1938083"><time>2023-06-03T07:16:22.317</time></trkpt><trkpt lat="55.8685267" lon="49.1939217"><time>2023-06-03T07:16:24.317</time></trkpt><trkpt lat="55.8685067" lon="49.1940000"><time>2023-06-03T07:16:26.317</time></trkpt><trkpt lat="55.8684900" lon="49.1941250"><time>2023-06-03T07:16:29.317</time></trkpt><trkpt lat="55.8684733" lon="49.1942500"><time>2023-06-03T07:16:31.303</time></trkpt><trkpt lat="55.8684567" lon="49.1943567"><time>2023-06-03T07:16:33.290</time></trkpt><trkpt lat="55.8684400" lon="49.1944733"><time>2023-06-03T07:16:35.310</time></trkpt><trkpt lat="55.8684333" lon="49.1945533"><time>2023-06-03T07:16:37.297</time></trkpt><trkpt lat="55.8684100" lon="49.1946550"><time>2023-06-03T07:16:40.313</time></trkpt><trkpt lat="55.8683967" lon="49.1947583"><time>2023-06-03T07:16:43.317</time></trkpt><trkpt lat="55.8683917" lon="49.1948500"><time>2023-06-03T07:16:45.313</time></trkpt><trkpt lat="55.8683933" lon="49.1949650"><time>2023-06-03T07:16:47.317</time></trkpt><trkpt lat="55.8683900" lon="49.1950733"><time>2023-06-03T07:16:49.317</time></trkpt><trkpt lat="55.8683883" lon="49.1951617"><time>2023-06-03T07:16:51.317</time></trkpt><trkpt lat="55.8683833" lon="49.1952850"><time>2023-06-03T07:16:54.317</time></trkpt><trkpt lat="55.8683667" lon="49.1953683"><time>2023-06-03T07:16:56.320</time></trkpt><trkpt lat="55.8683250" lon="49.1954767"><time>2023-06-03T07:16:58.317</time></trkpt><trkpt lat="55.8682700" lon="49.1955900"><time>2023-06-03T07:17:00.317</time></trkpt><trkpt lat="55.8682267" lon="49.1956717"><time>2023-06-03T07:17:02.317</time></trkpt><trkpt lat="55.8681917" lon="49.1957667"><time>2023-06-03T07:17:05.313</time></trkpt><trkpt lat="55.8681450" lon="49.1958050"><time>2023-06-03T07:17:07.320</time></trkpt><trkpt lat="55.8680750" lon="49.1958100"><time>2023-06-03T07:17:09.317</time></trkpt><trkpt lat="55.8680050" lon="49.1958283"><time>2023-06-03T07:17:11.313</time></trkpt><trkpt lat="55.8679600" lon="49.1958367"><time>2023-06-03T07:17:13.323</time></trkpt><trkpt lat="55.8679133" lon="49.1958467"><time>2023-06-03T07:17:15.313</time></trkpt><trkpt lat="55.8678350" lon="49.1958667"><time>2023-06-03T07:17:17.323</time></trkpt><trkpt lat="55.8677617" lon="49.1959167"><time>2023-06-03T07:17:19.320</time></trkpt><trkpt lat="55.8676933" lon="49.1959750"><time>2023-06-03T07:17:21.303</time></trkpt><trkpt lat="55.8676217" lon="49.1960600"><time>2023-06-03T07:17:23.320</time></trkpt><trkpt lat="55.8675617" lon="49.1961367"><time>2023-06-03T07:17:25.320</time></trkpt><trkpt lat="55.8675033" lon="49.1962050"><time>2023-06-03T07:17:27.320</time></trkpt><trkpt lat="55.8674417" lon="49.1962900"><time>2023-06-03T07:17:29.313</time></trkpt><trkpt lat="55.8673667" lon="49.1963817"><time>2023-06-03T07:17:31.320</time></trkpt><trkpt lat="55.8673267" lon="49.1964350"><time>2023-06-03T07:17:32.320</time></trkpt><trkpt lat="55.8672900" lon="49.1964883"><time>2023-06-03T07:17:33.323</time></trkpt><trkpt lat="55.8672300" lon="49.1965783"><time>2023-06-03T07:17:35.323</time></trkpt><trkpt lat="55.8671900" lon="49.1966350"><time>2023-06-03T07:17:38.317</time></trkpt><trkpt lat="55.8671450" lon="49.1967033"><time>2023-06-03T07:17:41.323</time></trkpt><trkpt lat="55.8671067" lon="49.1967633"><time>2023-06-03T07:17:43.323</time></trkpt><trkpt lat="55.8670717" lon="49.1968167"><time>2023-06-03T07:17:45.307</time></trkpt><trkpt lat="55.8670350" lon="49.1968917"><time>2023-06-03T07:17:47.310</time></trkpt><trkpt lat="55.8670050" lon="49.1969817"><time>2023-06-03T07:17:49.313</time></trkpt><trkpt lat="55.8669733" lon="49.1970800"><time>2023-06-03T07:17:51.323</time></trkpt><trkpt lat="55.8669250" lon="49.1971533"><time>2023-06-03T07:17:53.320</time></trkpt><trkpt lat="55.8668900" lon="49.1972567"><time>2023-06-03T07:17:55.320</time></trkpt><trkpt lat="55.8668683" lon="49.1973517"><time>2023-06-03T07:17:57.320</time></trkpt><trkpt lat="55.8668250" lon="49.1974533"><time>2023-06-03T07:17:59.320</time></trkpt><trkpt lat="55.8667833" lon="49.1975617"><time>2023-06-03T07:18:01.283</time></trkpt><trkpt lat="55.8667517" lon="49.1976600"><time>2023-06-03T07:18:03.317</time></trkpt><trkpt lat="55.8667450" lon="49.1977517"><time>2023-06-03T07:18:06.323</time></trkpt><trkpt lat="55.8666733" lon="49.1978700"><time>2023-06-03T07:18:22.320</time></trkpt><trkpt lat="55.8666000" lon="49.1979083"><time>2023-06-03T07:18:24.317</time></trkpt><trkpt lat="55.8665233" lon="49.1979017"><time>2023-06-03T07:18:26.320</time></trkpt><trkpt lat="55.8664617" lon="49.1978283"><time>2023-06-03T07:18:28.320</time></trkpt><trkpt lat="55.8664100" lon="49.1977283"><time>2023-06-03T07:18:30.320</time></trkpt><trkpt lat="55.8663733" lon="49.1976300"><time>2023-06-03T07:18:32.320</time></trkpt><trkpt lat="55.8663283" lon="49.1975067"><time>2023-06-03T07:18:34.320</time></trkpt><trkpt lat="55.8662750" lon="49.1973933"><time>2023-06-03T07:18:36.320</time></trkpt><trkpt lat="55.8662350" lon="49.1973017"><time>2023-06-03T07:18:38.320</time></trkpt><trkpt lat="55.8661983" lon="49.1972000"><time>2023-06-03T07:18:40.317</time></trkpt><trkpt lat="55.8661617" lon="49.1971200"><time>2023-06-03T07:18:42.317</time></trkpt><trkpt lat="55.8661317" lon="49.1970567"><time>2023-06-03T07:18:44.320</time></trkpt><trkpt lat="55.8660633" lon="49.1970567"><time>2023-06-03T07:18:46.320</time></trkpt><trkpt lat="55.8660283" lon="49.1971533"><time>2023-06-03T07:19:07.323</time></trkpt><trkpt lat="55.8660650" lon="49.1972283"><time>2023-06-03T07:19:11.313</time></trkpt><trkpt lat="55.8661050" lon="49.1972833"><time>2023-06-03T07:19:13.327</time></trkpt><trkpt lat="55.8661433" lon="49.1973667"><time>2023-06-03T07:19:15.323</time></trkpt><trkpt lat="55.8661817" lon="49.1974633"><time>2023-06-03T07:19:17.320</time></trkpt><trkpt lat="55.8662233" lon="49.1975550"><time>2023-06-03T07:19:19.323</time></trkpt><trkpt lat="55.8662600" lon="49.1976467"><time>2023-06-03T07:19:21.323</time></trkpt><trkpt lat="55.8662917" lon="49.1977300"><time>2023-06-03T07:19:23.320</time></trkpt><trkpt lat="55.8663167" lon="49.1978300"><time>2023-06-03T07:19:25.323</time></trkpt><trkpt lat="55.8663267" lon="49.1979100"><time>2023-06-03T07:19:27.320</time></trkpt><trkpt lat="55.8663600" lon="49.1980433"><time>2023-06-03T07:19:35.320</time></trkpt><trkpt lat="55.8663800" lon="49.1981333"><time>2023-06-03T07:19:37.320</time></trkpt><trkpt lat="55.8664033" lon="49.1982217"><time>2023-06-03T07:19:39.310</time></trkpt><trkpt lat="55.8664150" lon="49.1983433"><time>2023-06-03T07:19:41.320</time></trkpt><trkpt lat="55.8664150" lon="49.1984683"><time>2023-06-03T07:19:43.320</time></trkpt><trkpt lat="55.8664117" lon="49.1985683"><time>2023-06-03T07:19:45.320</time></trkpt><trkpt lat="55.8663867" lon="49.1987867"><time>2023-06-03T07:19:57.320</time></trkpt><trkpt lat="55.8663600" lon="49.1988800"><time>2023-06-03T07:19:59.320</time></trkpt><trkpt lat="55.8663383" lon="49.1989733"><time>2023-06-03T07:20:01.313</time></trkpt><trkpt lat="55.8663233" lon="49.1990650"><time>2023-06-03T07:20:03.320</time></trkpt><trkpt lat="55.8663100" lon="49.1991567"><time>2023-06-03T07:20:05.320</time></trkpt><trkpt lat="55.8663017" lon="49.1992467"><time>2023-06-03T07:20:07.320</time></trkpt><trkpt lat="55.8662967" lon="49.1993367"><time>2023-06-03T07:20:09.313</time></trkpt><trkpt lat="55.8662800" lon="49.1994400"><time>2023-06-03T07:20:11.317</time></trkpt><trkpt lat="55.8662583" lon="49.1995167"><time>2023-06-03T07:20:13.340</time></trkpt><trkpt lat="55.8661150" lon="49.1998300"><time>2023-06-03T07:20:15.297</time></trkpt><trkpt lat="55.8659233" lon="49.1999067"><time>2023-06-03T07:20:15.790</time></trkpt><trkpt lat="55.8664683" lon="49.2001933"><time>2023-06-03T07:20:16.307</time></trkpt><trkpt lat="55.8663400" lon="49.2000833"><time>2023-06-03T07:20:16.783</time></trkpt><trkpt lat="55.8662333" lon="49.1999717"><time>2023-06-03T07:20:17.297</time></trkpt><trkpt lat="55.8661900" lon="49.1999417"><time>2023-06-03T07:20:18.307</time></trkpt><trkpt lat="55.8661633" lon="49.1998750"><time>2023-06-03T07:20:26.310</time></trkpt><trkpt lat="55.8661217" lon="49.1999150"><time>2023-06-03T07:20:28.313</time></trkpt><trkpt lat="55.8660833" lon="49.1999817"><time>2023-06-03T07:20:30.310</time></trkpt><trkpt lat="55.8660567" lon="49.2000617"><time>2023-06-03T07:20:33.313</time></trkpt><trkpt lat="55.8660283" lon="49.2001317"><time>2023-06-03T07:20:35.317</time></trkpt><trkpt lat="55.8659883" lon="49.2002100"><time>2023-06-03T07:20:37.317</time></trkpt><trkpt lat="55.8659600" lon="49.2002750"><time>2023-06-03T07:20:39.313</time></trkpt><trkpt lat="55.8659133" lon="49.2003167"><time>2023-06-03T07:20:44.317</time></trkpt><trkpt lat="55.8657950" lon="49.2002683"><time>2023-06-03T07:21:06.317</time></trkpt><trkpt lat="55.8657517" lon="49.2003033"><time>2023-06-03T07:21:09.320</time></trkpt><trkpt lat="55.8657117" lon="49.2003433"><time>2023-06-03T07:21:11.323</time></trkpt><trkpt lat="55.8656500" lon="49.2003917"><time>2023-06-03T07:21:14.323</time></trkpt><trkpt lat="55.8655950" lon="49.2004367"><time>2023-06-03T07:21:16.323</time></trkpt><trkpt lat="55.8655433" lon="49.2004667"><time>2023-06-03T07:21:18.323</time></trkpt><trkpt lat="55.8654800" lon="49.2004933"><time>2023-06-03T07:21:20.323</time></trkpt><trkpt lat="55.8654217" lon="49.2005233"><time>2023-06-03T07:21:22.337</time></trkpt><trkpt lat="55.8654200" lon="49.2005250"><time>2023-06-03T07:21:23.830</time></trkpt><trkpt lat="55.8654100" lon="49.2006033"><time>2023-06-03T07:21:29.300</time></trkpt><trkpt lat="55.8653667" lon="49.2006367"><time>2023-06-03T07:21:35.313</time></trkpt><trkpt lat="55.8653367" lon="49.2005717"><time>2023-06-03T07:21:43.313</time></trkpt><trkpt lat="55.8653167" lon="49.2007800"><time>2023-06-03T07:22:29.323</time></trkpt><trkpt lat="55.8653483" lon="49.2007033"><time>2023-06-03T07:22:45.317</time></trkpt><trkpt lat="55.8653983" lon="49.2006767"><time>2023-06-03T07:22:47.317</time></trkpt><trkpt lat="55.8654500" lon="49.2006567"><time>2023-06-03T07:22:49.320</time></trkpt><trkpt lat="55.8655217" lon="49.2006500"><time>2023-06-03T07:22:52.320</time></trkpt><trkpt lat="55.8655867" lon="49.2006383"><time>2023-06-03T07:22:54.323</time></trkpt><trkpt lat="55.8656567" lon="49.2006117"><time>2023-06-03T07:22:56.337</time></trkpt><trkpt lat="55.8656567" lon="49.2006117"><time>2023-06-03T07:22:58.313</time></trkpt><trkpt lat="55.8656917" lon="49.2005517"><time>2023-06-03T07:23:02.310</time></trkpt><trkpt lat="55.8657417" lon="49.2005033"><time>2023-06-03T07:23:06.307</time></trkpt><trkpt lat="55.8657900" lon="49.2004817"><time>2023-06-03T07:23:10.307</time></trkpt><trkpt lat="55.8658333" lon="49.2004383"><time>2023-06-03T07:23:15.313</time></trkpt><trkpt lat="55.8658733" lon="49.2003967"><time>2023-06-03T07:23:24.310</time></trkpt><trkpt lat="55.8659367" lon="49.2003183"><time>2023-06-03T07:23:30.317</time></trkpt><trkpt lat="55.8659717" lon="49.2002483"><time>2023-06-03T07:23:32.317</time></trkpt><trkpt lat="55.8660133" lon="49.2001950"><time>2023-06-03T07:23:33.320</time></trkpt><trkpt lat="55.8660817" lon="49.2000883"><time>2023-06-03T07:23:35.317</time></trkpt><trkpt lat="55.8661350" lon="49.1999883"><time>2023-06-03T07:23:37.317</time></trkpt><trkpt lat="55.8661800" lon="49.1998783"><time>2023-06-03T07:23:39.320</time></trkpt><trkpt lat="55.8662200" lon="49.1997533"><time>2023-06-03T07:23:41.323</time></trkpt><trkpt lat="55.8662600" lon="49.1996300"><time>2023-06-03T07:23:43.317</time></trkpt><trkpt lat="55.8662750" lon="49.1995250"><time>2023-06-03T07:23:45.317</time></trkpt><trkpt lat="55.8662833" lon="49.1994117"><time>2023-06-03T07:23:47.333</time></trkpt><trkpt lat="55.8662833" lon="49.1994117"><time>2023-06-03T07:23:48.800</time></trkpt><trkpt lat="55.8663250" lon="49.1993317"><time>2023-06-03T07:23:53.307</time></trkpt><trkpt lat="55.8663683" lon="49.1993000"><time>2023-06-03T07:23:56.313</time></trkpt><trkpt lat="55.8664067" lon="49.1992483"><time>2023-06-03T07:23:58.317</time></trkpt><trkpt lat="55.8664300" lon="49.1991650"><time>2023-06-03T07:24:00.307</time></trkpt><trkpt lat="55.8664433" lon="49.1990733"><time>2023-06-03T07:24:02.310</time></trkpt><trkpt lat="55.8664417" lon="49.1989650"><time>2023-06-03T07:24:05.310</time></trkpt><trkpt lat="55.8664283" lon="49.1988867"><time>2023-06-03T07:24:10.310</time></trkpt><trkpt lat="55.8664667" lon="49.1989467"><time>2023-06-03T07:24:25.310</time></trkpt><trkpt lat="55.8664783" lon="49.1990317"><time>2023-06-03T07:24:27.320</time></trkpt><trkpt lat="55.8664933" lon="49.1991267"><time>2023-06-03T07:24:29.317</time></trkpt><trkpt lat="55.8665150" lon="49.1992217"><time>2023-06-03T07:24:31.320</time></trkpt><trkpt lat="55.8665333" lon="49.1993200"><time>2023-06-03T07:24:33.323</time></trkpt><trkpt lat="55.8665483" lon="49.1994100"><time>2023-06-03T07:24:35.320</time></trkpt><trkpt lat="55.8665683" lon="49.1995050"><time>2023-06-03T07:24:37.317</time></trkpt><trkpt lat="55.8665933" lon="49.1995950"><time>2023-06-03T07:24:39.313</time></trkpt><trkpt lat="55.8666233" lon="49.1996750"><time>2023-06-03T07:24:41.323</time></trkpt><trkpt lat="55.8666567" lon="49.1997633"><time>2023-06-03T07:24:44.320</time></trkpt><trkpt lat="55.8667000" lon="49.1998550"><time>2023-06-03T07:24:47.317</time></trkpt><trkpt lat="55.8667367" lon="49.1999267"><time>2023-06-03T07:24:50.323</time></trkpt><trkpt lat="55.8667200" lon="49.2000017"><time>2023-06-03T07:25:18.323</time></trkpt><trkpt lat="55.8666333" lon="49.2000567"><time>2023-06-03T07:25:46.320</time></trkpt><trkpt lat="55.8667100" lon="49.2001067"><time>2023-06-03T07:26:48.323</time></trkpt><trkpt lat="55.8667650" lon="49.2001650"><time>2023-06-03T07:26:51.320</time></trkpt><trkpt lat="55.8668133" lon="49.2002167"><time>2023-06-03T07:26:54.323</time></trkpt><trkpt lat="55.8668633" lon="49.2002267"><time>2023-06-03T07:27:00.323</time></trkpt><trkpt lat="55.8669083" lon="49.2002100"><time>2023-06-03T07:27:06.323</time></trkpt><trkpt lat="55.8668817" lon="49.2001167"><time>2023-06-03T07:27:38.323</time></trkpt><trkpt lat="55.8668267" lon="49.2000583"><time>2023-06-03T07:27:40.323</time></trkpt><trkpt lat="55.8667667" lon="49.2000333"><time>2023-06-03T07:27:42.327</time></trkpt><trkpt lat="55.8667117" lon="49.2000667"><time>2023-06-03T07:27:44.323</time></trkpt><trkpt lat="55.8666483" lon="49.2001067"><time>2023-06-03T07:27:46.323</time></trkpt><trkpt lat="55.8666017" lon="49.2001333"><time>2023-06-03T07:27:49.343</time></trkpt><trkpt lat="55.8666017" lon="49.2001333"><time>2023-06-03T07:27:50.340</time></trkpt><trkpt lat="55.8665483" lon="49.2001317"><time>2023-06-03T07:27:55.310</time></trkpt><trkpt lat="55.8665000" lon="49.2001150"><time>2023-06-03T07:27:57.300</time></trkpt><trkpt lat="55.8664533" lon="49.2001117"><time>2023-06-03T07:27:59.307</time></trkpt><trkpt lat="55.8664100" lon="49.2001333"><time>2023-06-03T07:28:01.310</time></trkpt><trkpt lat="55.8663517" lon="49.2001783"><time>2023-06-03T07:28:04.317</time></trkpt><trkpt lat="55.8663117" lon="49.2002350"><time>2023-06-03T07:28:06.313</time></trkpt><trkpt lat="55.8662533" lon="49.2002867"><time>2023-06-03T07:28:09.313</time></trkpt><trkpt lat="55.8662083" lon="49.2003150"><time>2023-06-03T07:28:11.317</time></trkpt><trkpt lat="55.8661633" lon="49.2003567"><time>2023-06-03T07:28:14.313</time></trkpt><trkpt lat="55.8661150" lon="49.2004117"><time>2023-06-03T07:28:17.317</time></trkpt><trkpt lat="55.8660700" lon="49.2004650"><time>2023-06-03T07:28:20.320</time></trkpt><trkpt lat="55.8660117" lon="49.2004650"><time>2023-06-03T07:28:24.327</time></trkpt><trkpt lat="55.8659050" lon="49.2004750"><time>2023-06-03T07:28:44.320</time></trkpt><trkpt lat="55.8658267" lon="49.2004733"><time>2023-06-03T07:28:57.327</time></trkpt><trkpt lat="55.8658667" lon="49.2003950"><time>2023-06-03T07:29:03.317</time></trkpt><trkpt lat="55.8659117" lon="49.2003817"><time>2023-06-03T07:29:05.323</time></trkpt><trkpt lat="55.8659683" lon="49.2003667"><time>2023-06-03T07:29:07.327</time></trkpt><trkpt lat="55.8660250" lon="49.2003533"><time>2023-06-03T07:29:09.310</time></trkpt><trkpt lat="55.8660817" lon="49.2003500"><time>2023-06-03T07:29:11.320</time></trkpt><trkpt lat="55.8661417" lon="49.2003433"><time>2023-06-03T07:29:13.317</time></trkpt><trkpt lat="55.8661917" lon="49.2003350"><time>2023-06-03T07:29:15.320</time></trkpt><trkpt lat="55.8662483" lon="49.2003200"><time>2023-06-03T07:29:17.323</time></trkpt><trkpt lat="55.8662917" lon="49.2002883"><time>2023-06-03T07:29:19.323</time></trkpt><trkpt lat="55.8663367" lon="49.2002167"><time>2023-06-03T07:29:22.320</time></trkpt><trkpt lat="55.8663683" lon="49.2001500"><time>2023-06-03T07:29:24.323</time></trkpt><trkpt lat="55.8663950" lon="49.2000717"><time>2023-06-03T07:29:26.310</time></trkpt><trkpt lat="55.8664233" lon="49.1999850"><time>2023-06-03T07:29:29.320</time></trkpt><trkpt lat="55.8664500" lon="49.1999200"><time>2023-06-03T07:29:32.323</time></trkpt><trkpt lat="55.8664700" lon="49.1998383"><time>2023-06-03T07:29:34.320</time></trkpt><trkpt lat="55.8664800" lon="49.1997417"><time>2023-06-03T07:29:37.340</time></trkpt><trkpt lat="55.8664800" lon="49.1997417"><time>2023-06-03T07:29:38.310</time></trkpt><trkpt lat="55.8664700" lon="49.1996333"><time>2023-06-03T07:29:41.303</time></trkpt><trkpt lat="55.8664817" lon="49.1995433"><time>2023-06-03T07:29:46.313</time></trkpt><trkpt lat="55.8665267" lon="49.1995050"><time>2023-06-03T07:29:50.310</time></trkpt><trkpt lat="55.8665783" lon="49.1994917"><time>2023-06-03T07:29:55.310</time></trkpt><trkpt lat="55.8665733" lon="49.1993567"><time>2023-06-03T07:30:01.307</time></trkpt><trkpt lat="55.8665317" lon="49.1991983"><time>2023-06-03T07:30:03.310</time></trkpt><trkpt lat="55.8665083" lon="49.1991217"><time>2023-06-03T07:30:04.307</time></trkpt><trkpt lat="55.8664800" lon="49.1990467"><time>2023-06-03T07:30:05.310</time></trkpt><trkpt lat="55.8664533" lon="49.1989733"><time>2023-06-03T07:30:06.317</time></trkpt><trkpt lat="55.8664400" lon="49.1988933"><time>2023-06-03T07:30:07.320</time></trkpt><trkpt lat="55.8664300" lon="49.1988117"><time>2023-06-03T07:30:08.317</time></trkpt><trkpt lat="55.8664283" lon="49.1986700"><time>2023-06-03T07:30:10.317</time></trkpt><trkpt lat="55.8664467" lon="49.1985500"><time>2023-06-03T07:30:12.317</time></trkpt><trkpt lat="55.8664533" lon="49.1984567"><time>2023-06-03T07:30:14.320</time></trkpt><trkpt lat="55.8664300" lon="49.1983317"><time>2023-06-03T07:30:17.320</time></trkpt><trkpt lat="55.8663967" lon="49.1981767"><time>2023-06-03T07:30:19.317</time></trkpt><trkpt lat="55.8663683" lon="49.1980233"><time>2023-06-03T07:30:21.320</time></trkpt><trkpt lat="55.8663450" lon="49.1979500"><time>2023-06-03T07:30:22.323</time></trkpt><trkpt lat="55.8663067" lon="49.1978083"><time>2023-06-03T07:30:24.323</time></trkpt><trkpt lat="55.8662800" lon="49.1977333"><time>2023-06-03T07:30:25.323</time></trkpt><trkpt lat="55.8662300" lon="49.1975917"><time>2023-06-03T07:30:27.320</time></trkpt><trkpt lat="55.8661817" lon="49.1974600"><time>2023-06-03T07:30:29.323</time></trkpt><trkpt lat="55.8661417" lon="49.1973717"><time>2023-06-03T07:30:31.317</time></trkpt><trkpt lat="55.8660983" lon="49.1973467"><time>2023-06-03T07:30:36.317</time></trkpt><trkpt lat="55.8660733" lon="49.1972800"><time>2023-06-03T07:30:44.320</time></trkpt><trkpt lat="55.8661083" lon="49.1973617"><time>2023-06-03T07:31:07.320</time></trkpt><trkpt lat="55.8661417" lon="49.1974417"><time>2023-06-03T07:31:09.280</time></trkpt><trkpt lat="55.8661817" lon="49.1975350"><time>2023-06-03T07:31:11.310</time></trkpt><trkpt lat="55.8662250" lon="49.1976383"><time>2023-06-03T07:31:13.317</time></trkpt><trkpt lat="55.8662683" lon="49.1977267"><time>2023-06-03T07:31:15.310</time></trkpt><trkpt lat="55.8663117" lon="49.1978000"><time>2023-06-03T07:31:17.323</time></trkpt><trkpt lat="55.8663483" lon="49.1978667"><time>2023-06-03T07:31:19.317</time></trkpt><trkpt lat="55.8663867" lon="49.1979667"><time>2023-06-03T07:31:21.317</time></trkpt><trkpt lat="55.8664250" lon="49.1980450"><time>2023-06-03T07:31:23.323</time></trkpt><trkpt lat="55.8664517" lon="49.1981183"><time>2023-06-03T07:31:27.320</time></trkpt><trkpt lat="55.8664917" lon="49.1981650"><time>2023-06-03T07:31:35.320</time></trkpt><trkpt lat="55.8664833" lon="49.1982700"><time>2023-06-03T07:31:39.327</time></trkpt><trkpt lat="55.8664667" lon="49.1983883"><time>2023-06-03T07:31:41.323</time></trkpt><trkpt lat="55.8664433" lon="49.1985200"><time>2023-06-03T07:31:43.323</time></trkpt><trkpt lat="55.8664233" lon="49.1986317"><time>2023-06-03T07:31:45.323</time></trkpt><trkpt lat="55.8664300" lon="49.1987117"><time>2023-06-03T07:31:51.320</time></trkpt><trkpt lat="55.8663933" lon="49.1987683"><time>2023-06-03T07:32:00.320</time></trkpt><trkpt lat="55.8663600" lon="49.1988333"><time>2023-06-03T07:32:03.323</time></trkpt><trkpt lat="55.8663233" lon="49.1989283"><time>2023-06-03T07:32:05.327</time></trkpt><trkpt lat="55.8662983" lon="49.1990367"><time>2023-06-03T07:32:07.327</time></trkpt><trkpt lat="55.8662817" lon="49.1991483"><time>2023-06-03T07:32:09.323</time></trkpt><trkpt lat="55.8662717" lon="49.1992367"><time>2023-06-03T07:32:11.323</time></trkpt><trkpt lat="55.8662633" lon="49.1993250"><time>2023-06-03T07:32:13.323</time></trkpt><trkpt lat="55.8662483" lon="49.1994067"><time>2023-06-03T07:32:15.313</time></trkpt><trkpt lat="55.8662300" lon="49.1994850"><time>2023-06-03T07:32:17.340</time></trkpt><trkpt lat="55.8662283" lon="49.1994850"><time>2023-06-03T07:32:18.323</time></trkpt><trkpt lat="55.8661983" lon="49.1995583"><time>2023-06-03T07:32:22.310</time></trkpt><trkpt lat="55.8661650" lon="49.1996300"><time>2023-06-03T07:32:25.310</time></trkpt><trkpt lat="55.8661300" lon="49.1997100"><time>2023-06-03T07:32:28.310</time></trkpt><trkpt lat="55.8660933" lon="49.1998233"><time>2023-06-03T07:32:31.313</time></trkpt><trkpt lat="55.8660650" lon="49.1999433"><time>2023-06-03T07:32:33.313</time></trkpt><trkpt lat="55.8660300" lon="49.2000467"><time>2023-06-03T07:32:36.310</time></trkpt><trkpt lat="55.8660167" lon="49.2001400"><time>2023-06-03T07:32:41.313</time></trkpt><trkpt lat="55.8659950" lon="49.2002117"><time>2023-06-03T07:32:44.313</time></trkpt><trkpt lat="55.8659550" lon="49.2003100"><time>2023-06-03T07:32:46.320</time></trkpt><trkpt lat="55.8659033" lon="49.2003733"><time>2023-06-03T07:32:48.323</time></trkpt><trkpt lat="55.8658383" lon="49.2004150"><time>2023-06-03T07:32:50.323</time></trkpt><trkpt lat="55.8657783" lon="49.2004600"><time>2023-06-03T07:32:52.320</time></trkpt><trkpt lat="55.8657233" lon="49.2004950"><time>2023-06-03T07:32:54.323</time></trkpt><trkpt lat="55.8656500" lon="49.2005317"><time>2023-06-03T07:32:56.327</time></trkpt><trkpt lat="55.8655883" lon="49.2005600"><time>2023-06-03T07:32:58.323</time></trkpt><trkpt lat="55.8655200" lon="49.2005900"><time>2023-06-03T07:33:00.347</time></trkpt><trkpt lat="55.8655200" lon="49.2005900"><time>2023-06-03T07:33:01.337</time></trkpt><trkpt lat="55.8654683" lon="49.2006050"><time>2023-06-03T07:33:07.317</time></trkpt><trkpt lat="55.8654250" lon="49.2006333"><time>2023-06-03T07:33:11.317</time></trkpt><trkpt lat="55.8653633" lon="49.2006533"><time>2023-06-03T07:33:13.317</time></trkpt><trkpt lat="55.8652800" lon="49.2006783"><time>2023-06-03T07:33:15.317</time></trkpt><trkpt lat="55.8652217" lon="49.2007133"><time>2023-06-03T07:33:16.317</time></trkpt><trkpt lat="55.8651767" lon="49.2007417"><time>2023-06-03T07:33:17.297</time></trkpt><trkpt lat="55.8651267" lon="49.2007667"><time>2023-06-03T07:33:18.307</time></trkpt><trkpt lat="55.8650700" lon="49.2007900"><time>2023-06-03T07:33:19.307</time></trkpt><trkpt lat="55.8650150" lon="49.2008217"><time>2023-06-03T07:33:20.310</time></trkpt><trkpt lat="55.8649483" lon="49.2008867"><time>2023-06-03T07:33:22.283</time></trkpt><trkpt lat="55.8648983" lon="49.2009183"><time>2023-06-03T07:33:23.313</time></trkpt><trkpt lat="55.8648733" lon="49.2009850"><time>2023-06-03T07:33:27.313</time></trkpt><trkpt lat="55.8648683" lon="49.2010700"><time>2023-06-03T07:33:31.290</time></trkpt><trkpt lat="55.8648683" lon="49.2011550"><time>2023-06-03T07:33:36.307</time></trkpt><trkpt lat="55.8648767" lon="49.2012517"><time>2023-06-03T07:33:48.353</time></trkpt><trkpt lat="55.8649017" lon="49.2013650"><time>2023-06-03T07:33:51.297</time></trkpt><trkpt lat="55.8649333" lon="49.2014517"><time>2023-06-03T07:33:54.343</time></trkpt><trkpt lat="55.8649350" lon="49.2014500"><time>2023-06-03T07:33:55.330</time></trkpt><trkpt lat="55.8649933" lon="49.2014450"><time>2023-06-03T07:33:58.813</time></trkpt><trkpt lat="55.8650350" lon="49.2014050"><time>2023-06-03T07:34:01.313</time></trkpt><trkpt lat="55.8650767" lon="49.2014617"><time>2023-06-03T07:34:04.313</time></trkpt><trkpt lat="55.8651150" lon="49.2015567"><time>2023-06-03T07:34:07.313</time></trkpt><trkpt lat="55.8651600" lon="49.2015700"><time>2023-06-03T07:34:12.303</time></trkpt><trkpt lat="55.8652033" lon="49.2016133"><time>2023-06-03T07:34:19.310</time></trkpt><trkpt lat="55.8652050" lon="49.2017133"><time>2023-06-03T07:34:27.317</time></trkpt><trkpt lat="55.8651950" lon="49.2018033"><time>2023-06-03T07:34:31.343</time></trkpt><trkpt lat="55.8651950" lon="49.2018033"><time>2023-06-03T07:34:31.423</time></trkpt><trkpt lat="55.8651950" lon="49.2017200"><time>2023-06-03T07:34:44.337</time></trkpt><trkpt lat="55.8651950" lon="49.2017150"><time>2023-06-03T07:34:45.783</time></trkpt><trkpt lat="55.8651667" lon="49.2016417"><time>2023-06-03T07:34:53.310</time></trkpt><trkpt lat="55.8651300" lon="49.2015933"><time>2023-06-03T07:34:58.310</time></trkpt><trkpt lat="55.8651050" lon="49.2015167"><time>2023-06-03T07:35:05.313</time></trkpt><trkpt lat="55.8650967" lon="49.2014300"><time>2023-06-03T07:35:12.313</time></trkpt><trkpt lat="55.8650483" lon="49.2013217"><time>2023-06-03T07:35:17.317</time></trkpt><trkpt lat="55.8650000" lon="49.2012633"><time>2023-06-03T07:35:18.320</time></trkpt><trkpt lat="55.8649400" lon="49.2012117"><time>2023-06-03T07:35:20.320</time></trkpt><trkpt lat="55.8648867" lon="49.2012017"><time>2023-06-03T07:35:25.310</time></trkpt><trkpt lat="55.8648733" lon="49.2011117"><time>2023-06-03T07:35:29.323</time></trkpt><trkpt lat="55.8648883" lon="49.2010283"><time>2023-06-03T07:35:33.327</time></trkpt><trkpt lat="55.8649300" lon="49.2010617"><time>2023-06-03T07:35:42.317</time></trkpt><trkpt lat="55.8649767" lon="49.2010183"><time>2023-06-03T07:35:46.310</time></trkpt><trkpt lat="55.8650133" lon="49.2009683"><time>2023-06-03T07:35:48.320</time></trkpt><trkpt lat="55.8650500" lon="49.2009183"><time>2023-06-03T07:35:50.320</time></trkpt><trkpt lat="55.8651117" lon="49.2008800"><time>2023-06-03T07:35:52.310</time></trkpt><trkpt lat="55.8651767" lon="49.2008417"><time>2023-06-03T07:35:54.320</time></trkpt><trkpt lat="55.8652483" lon="49.2008117"><time>2023-06-03T07:35:56.290</time></trkpt><trkpt lat="55.8653167" lon="49.2007850"><time>2023-06-03T07:35:58.313</time></trkpt><trkpt lat="55.8653850" lon="49.2007600"><time>2023-06-03T07:36:00.310</time></trkpt><trkpt lat="55.8654500" lon="49.2007267"><time>2023-06-03T07:36:02.320</time></trkpt><trkpt lat="55.8655183" lon="49.2007017"><time>2023-06-03T07:36:04.310</time></trkpt><trkpt lat="55.8655817" lon="49.2006500"><time>2023-06-03T07:36:06.320</time></trkpt><trkpt lat="55.8656450" lon="49.2006283"><time>2023-06-03T07:36:08.283</time></trkpt><trkpt lat="55.8657083" lon="49.2006467"><time>2023-06-03T07:36:10.317</time></trkpt><trkpt lat="55.8657467" lon="49.2007100"><time>2023-06-03T07:36:12.323</time></trkpt><trkpt lat="55.8657700" lon="49.2007833"><time>2023-06-03T07:36:14.373</time></trkpt><trkpt lat="55.8657967" lon="49.2008633"><time>2023-06-03T07:36:16.310</time></trkpt><trkpt lat="55.8658267" lon="49.2009483"><time>2023-06-03T07:36:18.340</time></trkpt><trkpt lat="55.8658733" lon="49.2010517"><time>2023-06-03T07:36:20.300</time></trkpt><trkpt lat="55.8659300" lon="49.2011383"><time>2023-06-03T07:36:22.303</time></trkpt><trkpt lat="55.8659650" lon="49.2011917"><time>2023-06-03T07:36:23.303</time></trkpt><trkpt lat="55.8660167" lon="49.2012983"><time>2023-06-03T07:36:25.290</time></trkpt><trkpt lat="55.8660517" lon="49.2013683"><time>2023-06-03T07:36:26.287</time></trkpt><trkpt lat="55.8660833" lon="49.2014417"><time>2023-06-03T07:36:27.313</time></trkpt><trkpt lat="55.8661200" lon="49.2015117"><time>2023-06-03T07:36:28.327</time></trkpt><trkpt lat="55.8661683" lon="49.2016067"><time>2023-06-03T07:36:30.320</time></trkpt><trkpt lat="55.8661700" lon="49.2017067"><time>2023-06-03T07:36:32.327</time></trkpt><trkpt lat="55.8661483" lon="49.2018250"><time>2023-06-03T07:36:34.317</time></trkpt><trkpt lat="55.8661217" lon="49.2019283"><time>2023-06-03T07:36:35.323</time></trkpt><trkpt lat="55.8660983" lon="49.2020233"><time>2023-06-03T07:36:36.327</time></trkpt><trkpt lat="55.8660783" lon="49.2021050"><time>2023-06-03T07:36:37.327</time></trkpt><trkpt lat="55.8660650" lon="49.2021950"><time>2023-06-03T07:36:38.320</time></trkpt><trkpt lat="55.8660600" lon="49.2022850"><time>2023-06-03T07:36:39.313</time></trkpt><trkpt lat="55.8660500" lon="49.2024433"><time>2023-06-03T07:36:41.323</time></trkpt><trkpt lat="55.8660533" lon="49.2025750"><time>2023-06-03T07:36:43.320</time></trkpt><trkpt lat="55.8660483" lon="49.2026550"><time>2023-06-03T07:36:44.323</time></trkpt><trkpt lat="55.8660417" lon="49.2028000"><time>2023-06-03T07:36:46.313</time></trkpt><trkpt lat="55.8660400" lon="49.2029617"><time>2023-06-03T07:36:48.327</time></trkpt><trkpt lat="55.8660400" lon="49.2030483"><time>2023-06-03T07:36:49.327</time></trkpt><trkpt lat="55.8660433" lon="49.2031450"><time>2023-06-03T07:36:50.327</time></trkpt><trkpt lat="55.8660517" lon="49.2032433"><time>2023-06-03T07:36:51.327</time></trkpt><trkpt lat="55.8660667" lon="49.2033383"><time>2023-06-03T07:36:52.327</time></trkpt><trkpt lat="55.8660850" lon="49.2034233"><time>2023-06-03T07:36:53.327</time></trkpt><trkpt lat="55.8661067" lon="49.2035033"><time>2023-06-03T07:36:54.323</time></trkpt><trkpt lat="55.8661317" lon="49.2035767"><time>2023-06-03T07:36:55.327</time></trkpt><trkpt lat="55.8661617" lon="49.2036967"><time>2023-06-03T07:36:57.327</time></trkpt><trkpt lat="55.8661933" lon="49.2038200"><time>2023-06-03T07:37:00.320</time></trkpt><trkpt lat="55.8662317" lon="49.2039183"><time>2023-06-03T07:37:02.320</time></trkpt><trkpt lat="55.8662767" lon="49.2040217"><time>2023-06-03T07:37:04.320</time></trkpt><trkpt lat="55.8663083" lon="49.2041133"><time>2023-06-03T07:37:06.307</time></trkpt><trkpt lat="55.8663467" lon="49.2042217"><time>2023-06-03T07:37:08.323</time></trkpt><trkpt lat="55.8663800" lon="49.2043317"><time>2023-06-03T07:37:10.317</time></trkpt><trkpt lat="55.8664167" lon="49.2044767"><time>2023-06-03T07:37:12.323</time></trkpt><trkpt lat="55.8664367" lon="49.2045617"><time>2023-06-03T07:37:13.317</time></trkpt><trkpt lat="55.8664550" lon="49.2046433"><time>2023-06-03T07:37:14.320</time></trkpt><trkpt lat="55.8664733" lon="49.2047200"><time>2023-06-03T07:37:15.320</time></trkpt><trkpt lat="55.8664967" lon="49.2047917"><time>2023-06-03T07:37:16.313</time></trkpt><trkpt lat="55.8665217" lon="49.2048600"><time>2023-06-03T07:37:17.320</time></trkpt><trkpt lat="55.8665683" lon="49.2049917"><time>2023-06-03T07:37:19.327</time></trkpt><trkpt lat="55.8666000" lon="49.2050650"><time>2023-06-03T07:37:20.323</time></trkpt><trkpt lat="55.8666450" lon="49.2051967"><time>2023-06-03T07:37:22.310</time></trkpt><trkpt lat="55.8666700" lon="49.2053317"><time>2023-06-03T07:37:24.320</time></trkpt><trkpt lat="55.8666967" lon="49.2054667"><time>2023-06-03T07:37:26.313</time></trkpt><trkpt lat="55.8666867" lon="49.2055467"><time>2023-06-03T07:37:28.373</time></trkpt><trkpt lat="55.8666717" lon="49.2056300"><time>2023-06-03T07:37:31.270</time></trkpt><trkpt lat="55.8666533" lon="49.2057250"><time>2023-06-03T07:37:32.307</time></trkpt><trkpt lat="55.8666650" lon="49.2058500"><time>2023-06-03T07:37:34.310</time></trkpt><trkpt lat="55.8666533" lon="49.2059433"><time>2023-06-03T07:37:37.317</time></trkpt><trkpt lat="55.8666467" lon="49.2060717"><time>2023-06-03T07:37:39.290</time></trkpt><trkpt lat="55.8666433" lon="49.2062033"><time>2023-06-03T07:37:41.307</time></trkpt><trkpt lat="55.8666383" lon="49.2063767"><time>2023-06-03T07:37:43.323</time></trkpt><trkpt lat="55.8666383" lon="49.2064783"><time>2023-06-03T07:37:44.320</time></trkpt><trkpt lat="55.8666350" lon="49.2065750"><time>2023-06-03T07:37:45.307</time></trkpt><trkpt lat="55.8666283" lon="49.2066617"><time>2023-06-03T07:37:46.317</time></trkpt><trkpt lat="55.8666133" lon="49.2067483"><time>2023-06-03T07:37:47.323</time></trkpt><trkpt lat="55.8666000" lon="49.2068367"><time>2023-06-03T07:37:48.327</time></trkpt><trkpt lat="55.8665900" lon="49.2069250"><time>2023-06-03T07:37:49.323</time></trkpt><trkpt lat="55.8665817" lon="49.2070167"><time>2023-06-03T07:37:50.327</time></trkpt><trkpt lat="55.8665767" lon="49.2070967"><time>2023-06-03T07:37:51.323</time></trkpt><trkpt lat="55.8665750" lon="49.2072100"><time>2023-06-03T07:37:52.320</time></trkpt><trkpt lat="55.8665783" lon="49.2073200"><time>2023-06-03T07:37:53.323</time></trkpt><trkpt lat="55.8665817" lon="49.2074150"><time>2023-06-03T07:37:54.327</time></trkpt><trkpt lat="55.8665883" lon="49.2075117"><time>2023-06-03T07:37:55.323</time></trkpt><trkpt lat="55.8665933" lon="49.2076000"><time>2023-06-03T07:37:56.280</time></trkpt><trkpt lat="55.8665950" lon="49.2076900"><time>2023-06-03T07:37:57.307</time></trkpt><trkpt lat="55.8665983" lon="49.2077767"><time>2023-06-03T07:37:58.313</time></trkpt><trkpt lat="55.8666283" lon="49.2079083"><time>2023-06-03T07:38:00.317</time></trkpt><trkpt lat="55.8666617" lon="49.2079733"><time>2023-06-03T07:38:01.360</time></trkpt><trkpt lat="55.8667300" lon="49.2081167"><time>2023-06-03T07:38:03.300</time></trkpt><trkpt lat="55.8667700" lon="49.2081850"><time>2023-06-03T07:38:04.307</time></trkpt><trkpt lat="55.8668433" lon="49.2083050"><time>2023-06-03T07:38:06.277</time></trkpt><trkpt lat="55.8668817" lon="49.2083467"><time>2023-06-03T07:38:07.310</time></trkpt><trkpt lat="55.8669283" lon="49.2084433"><time>2023-06-03T07:38:09.290</time></trkpt><trkpt lat="55.8669650" lon="49.2085000"><time>2023-06-03T07:38:10.307</time></trkpt><trkpt lat="55.8670300" lon="49.2085883"><time>2023-06-03T07:38:12.270</time></trkpt><trkpt lat="55.8670717" lon="49.2086350"><time>2023-06-03T07:38:13.273</time></trkpt><trkpt lat="55.8671100" lon="49.2086767"><time>2023-06-03T07:38:14.270</time></trkpt><trkpt lat="55.8671817" lon="49.2087767"><time>2023-06-03T07:38:16.270</time></trkpt><trkpt lat="55.8672450" lon="49.2088350"><time>2023-06-03T07:38:18.297</time></trkpt><trkpt lat="55.8673050" lon="49.2088917"><time>2023-06-03T07:38:20.320</time></trkpt><trkpt lat="55.8673583" lon="49.2089433"><time>2023-06-03T07:38:22.300</time></trkpt><trkpt lat="55.8674283" lon="49.2090283"><time>2023-06-03T07:38:24.297</time></trkpt><trkpt lat="55.8674983" lon="49.2090483"><time>2023-06-03T07:38:26.317</time></trkpt><trkpt lat="55.8675383" lon="49.2090950"><time>2023-06-03T07:38:27.307</time></trkpt><trkpt lat="55.8676017" lon="49.2091350"><time>2023-06-03T07:38:29.283</time></trkpt><trkpt lat="55.8676533" lon="49.2091817"><time>2023-06-03T07:38:31.303</time></trkpt><trkpt lat="55.8677083" lon="49.2092300"><time>2023-06-03T07:38:32.307</time></trkpt><trkpt lat="55.8677567" lon="49.2092433"><time>2023-06-03T07:38:33.300</time></trkpt><trkpt lat="55.8678033" lon="49.2093150"><time>2023-06-03T07:38:35.303</time></trkpt><trkpt lat="55.8678417" lon="49.2093667"><time>2023-06-03T07:38:37.313</time></trkpt><trkpt lat="55.8679017" lon="49.2094300"><time>2023-06-03T07:38:39.320</time></trkpt><trkpt lat="55.8679417" lon="49.2094833"><time>2023-06-03T07:38:40.320</time></trkpt><trkpt lat="55.8679867" lon="49.2095517"><time>2023-06-03T07:38:41.307</time></trkpt><trkpt lat="55.8680350" lon="49.2096000"><time>2023-06-03T07:38:42.320</time></trkpt><trkpt lat="55.8680817" lon="49.2096333"><time>2023-06-03T07:38:43.323</time></trkpt><trkpt lat="55.8681667" lon="49.2096650"><time>2023-06-03T07:38:45.323</time></trkpt><trkpt lat="55.8682117" lon="49.2096683"><time>2023-06-03T07:38:46.323</time></trkpt><trkpt lat="55.8682617" lon="49.2096767"><time>2023-06-03T07:38:47.327</time></trkpt><trkpt lat="55.8683400" lon="49.2097033"><time>2023-06-03T07:38:49.320</time></trkpt><trkpt lat="55.8683900" lon="49.2097183"><time>2023-06-03T07:38:50.313</time></trkpt><trkpt lat="55.8684650" lon="49.2097683"><time>2023-06-03T07:38:52.327</time></trkpt><trkpt lat="55.8685067" lon="49.2098500"><time>2023-06-03T07:38:54.320</time></trkpt><trkpt lat="55.8685400" lon="49.2099517"><time>2023-06-03T07:38:56.320</time></trkpt><trkpt lat="55.8685633" lon="49.2100667"><time>2023-06-03T07:38:58.327</time></trkpt><trkpt lat="55.8685833" lon="49.2102167"><time>2023-06-03T07:39:00.323</time></trkpt><trkpt lat="55.8685983" lon="49.2103033"><time>2023-06-03T07:39:01.323</time></trkpt><trkpt lat="55.8686100" lon="49.2103850"><time>2023-06-03T07:39:02.327</time></trkpt><trkpt lat="55.8686233" lon="49.2104800"><time>2023-06-03T07:39:03.323</time></trkpt><trkpt lat="55.8686333" lon="49.2105733"><time>2023-06-03T07:39:04.327</time></trkpt><trkpt lat="55.8686433" lon="49.2106583"><time>2023-06-03T07:39:05.307</time></trkpt><trkpt lat="55.8686533" lon="49.2107400"><time>2023-06-03T07:39:06.323</time></trkpt><trkpt lat="55.8686583" lon="49.2108217"><time>2023-06-03T07:39:07.323</time></trkpt><trkpt lat="55.8686717" lon="49.2109833"><time>2023-06-03T07:39:09.323</time></trkpt><trkpt lat="55.8686833" lon="49.2110650"><time>2023-06-03T07:39:10.323</time></trkpt><trkpt lat="55.8686950" lon="49.2111483"><time>2023-06-03T07:39:11.320</time></trkpt><trkpt lat="55.8687050" lon="49.2112300"><time>2023-06-03T07:39:12.320</time></trkpt><trkpt lat="55.8687233" lon="49.2113717"><time>2023-06-03T07:39:14.323</time></trkpt><trkpt lat="55.8687383" lon="49.2115117"><time>2023-06-03T07:39:16.323</time></trkpt><trkpt lat="55.8687400" lon="49.2116600"><time>2023-06-03T07:39:18.327</time></trkpt><trkpt lat="55.8687300" lon="49.2118067"><time>2023-06-03T07:39:20.327</time></trkpt><trkpt lat="55.8687267" lon="49.2118900"><time>2023-06-03T07:39:21.327</time></trkpt><trkpt lat="55.8687250" lon="49.2119750"><time>2023-06-03T07:39:22.323</time></trkpt><trkpt lat="55.8687250" lon="49.2120583"><time>2023-06-03T07:39:23.287</time></trkpt><trkpt lat="55.8687217" lon="49.2121533"><time>2023-06-03T07:39:24.310</time></trkpt><trkpt lat="55.8687200" lon="49.2123033"><time>2023-06-03T07:39:26.327</time></trkpt><trkpt lat="55.8687117" lon="49.2124433"><time>2023-06-03T07:39:28.323</time></trkpt><trkpt lat="55.8687233" lon="49.2125650"><time>2023-06-03T07:39:30.313</time></trkpt><trkpt lat="55.8687300" lon="49.2126900"><time>2023-06-03T07:39:32.323</time></trkpt><trkpt lat="55.8687450" lon="49.2128083"><time>2023-06-03T07:39:34.323</time></trkpt><trkpt lat="55.8687533" lon="49.2129533"><time>2023-06-03T07:39:36.320</time></trkpt><trkpt lat="55.8687500" lon="49.2130350"><time>2023-06-03T07:39:37.323</time></trkpt><trkpt lat="55.8687433" lon="49.2131267"><time>2023-06-03T07:39:38.323</time></trkpt><trkpt lat="55.8687450" lon="49.2132183"><time>2023-06-03T07:39:39.320</time></trkpt><trkpt lat="55.8687417" lon="49.2133067"><time>2023-06-03T07:39:40.317</time></trkpt><trkpt lat="55.8687483" lon="49.2134650"><time>2023-06-03T07:39:42.277</time></trkpt><trkpt lat="55.8687550" lon="49.2135750"><time>2023-06-03T07:39:43.297</time></trkpt><trkpt lat="55.8687667" lon="49.2136733"><time>2023-06-03T07:39:45.283</time></trkpt><trkpt lat="55.8687950" lon="49.2137983"><time>2023-06-03T07:39:47.307</time></trkpt><trkpt lat="55.8688067" lon="49.2138800"><time>2023-06-03T07:39:48.313</time></trkpt><trkpt lat="55.8688167" lon="49.2140167"><time>2023-06-03T07:39:50.323</time></trkpt><trkpt lat="55.8688250" lon="49.2141533"><time>2023-06-03T07:39:52.320</time></trkpt><trkpt lat="55.8688117" lon="49.2142567"><time>2023-06-03T07:39:54.327</time></trkpt><trkpt lat="55.8687717" lon="49.2143583"><time>2023-06-03T07:39:56.327</time></trkpt><trkpt lat="55.8687283" lon="49.2144583"><time>2023-06-03T07:39:58.307</time></trkpt><trkpt lat="55.8686933" lon="49.2145617"><time>2023-06-03T07:40:00.323</time></trkpt><trkpt lat="55.8686667" lon="49.2146683"><time>2023-06-03T07:40:02.323</time></trkpt><trkpt lat="55.8686583" lon="49.2147750"><time>2023-06-03T07:40:04.327</time></trkpt><trkpt lat="55.8686350" lon="49.2148783"><time>2023-06-03T07:40:06.327</time></trkpt><trkpt lat="55.8686100" lon="49.2149850"><time>2023-06-03T07:40:08.327</time></trkpt><trkpt lat="55.8685900" lon="49.2151000"><time>2023-06-03T07:40:10.327</time></trkpt><trkpt lat="55.8685650" lon="49.2152550"><time>2023-06-03T07:40:12.323</time></trkpt><trkpt lat="55.8685500" lon="49.2153467"><time>2023-06-03T07:40:14.327</time></trkpt><trkpt lat="55.8685317" lon="49.2154400"><time>2023-06-03T07:40:16.323</time></trkpt><trkpt lat="55.8685033" lon="49.2155233"><time>2023-06-03T07:40:18.320</time></trkpt><trkpt lat="55.8684583" lon="49.2156067"><time>2023-06-03T07:40:20.317</time></trkpt><trkpt lat="55.8684200" lon="49.2157183"><time>2023-06-03T07:40:22.323</time></trkpt><trkpt lat="55.8684133" lon="49.2158250"><time>2023-06-03T07:40:24.327</time></trkpt><trkpt lat="55.8684233" lon="49.2159133"><time>2023-06-03T07:40:25.327</time></trkpt><trkpt lat="55.8684600" lon="49.2160400"><time>2023-06-03T07:40:27.320</time></trkpt><trkpt lat="55.8684867" lon="49.2161200"><time>2023-06-03T07:40:28.307</time></trkpt><trkpt lat="55.8685133" lon="49.2161900"><time>2023-06-03T07:40:29.320</time></trkpt><trkpt lat="55.8685783" lon="49.2162867"><time>2023-06-03T07:40:31.323</time></trkpt><trkpt lat="55.8686167" lon="49.2163317"><time>2023-06-03T07:40:32.327</time></trkpt><trkpt lat="55.8686850" lon="49.2164317"><time>2023-06-03T07:40:34.287</time></trkpt><trkpt lat="55.8687533" lon="49.2165417"><time>2023-06-03T07:40:36.280</time></trkpt><trkpt lat="55.8687817" lon="49.2166050"><time>2023-06-03T07:40:37.317</time></trkpt><trkpt lat="55.8688283" lon="49.2167183"><time>2023-06-03T07:40:39.327</time></trkpt><trkpt lat="55.8688850" lon="49.2168300"><time>2023-06-03T07:40:41.327</time></trkpt><trkpt lat="55.8689450" lon="49.2169300"><time>2023-06-03T07:40:43.327</time></trkpt><trkpt lat="55.8690133" lon="49.2170283"><time>2023-06-03T07:40:45.327</time></trkpt><trkpt lat="55.8690833" lon="49.2171200"><time>2023-06-03T07:40:47.323</time></trkpt><trkpt lat="55.8691550" lon="49.2172133"><time>2023-06-03T07:40:49.323</time></trkpt><trkpt lat="55.8692333" lon="49.2173000"><time>2023-06-03T07:40:51.327</time></trkpt><trkpt lat="55.8692733" lon="49.2173533"><time>2023-06-03T07:40:52.323</time></trkpt><trkpt lat="55.8693083" lon="49.2174100"><time>2023-06-03T07:40:53.317</time></trkpt><trkpt lat="55.8693433" lon="49.2174650"><time>2023-06-03T07:40:54.313</time></trkpt><trkpt lat="55.8693767" lon="49.2175250"><time>2023-06-03T07:40:55.317</time></trkpt><trkpt lat="55.8694100" lon="49.2175817"><time>2023-06-03T07:40:56.317</time></trkpt><trkpt lat="55.8694650" lon="49.2176900"><time>2023-06-03T07:40:58.310</time></trkpt><trkpt lat="55.8695017" lon="49.2177467"><time>2023-06-03T07:40:59.313</time></trkpt><trkpt lat="55.8695433" lon="49.2178017"><time>2023-06-03T07:41:00.320</time></trkpt><trkpt lat="55.8695800" lon="49.2178517"><time>2023-06-03T07:41:01.297</time></trkpt><trkpt lat="55.8696183" lon="49.2179117"><time>2023-06-03T07:41:02.307</time></trkpt><trkpt lat="55.8696600" lon="49.2179750"><time>2023-06-03T07:41:03.303</time></trkpt><trkpt lat="55.8697000" lon="49.2180317"><time>2023-06-03T07:41:04.307</time></trkpt><trkpt lat="55.8697400" lon="49.2180817"><time>2023-06-03T07:41:05.320</time></trkpt><trkpt lat="55.8697783" lon="49.2181267"><time>2023-06-03T07:41:06.317</time></trkpt><trkpt lat="55.8698217" lon="49.2181700"><time>2023-06-03T07:41:07.317</time></trkpt><trkpt lat="55.8698600" lon="49.2182267"><time>2023-06-03T07:41:08.320</time></trkpt><trkpt lat="55.8698983" lon="49.2182900"><time>2023-06-03T07:41:09.317</time></trkpt><trkpt lat="55.8699317" lon="49.2183467"><time>2023-06-03T07:41:10.323</time></trkpt><trkpt lat="55.8699767" lon="49.2184033"><time>2023-06-03T07:41:11.357</time></trkpt><trkpt lat="55.8699767" lon="49.2184033"><time>2023-06-03T07:41:12.317</time></trkpt><trkpt lat="55.8700367" lon="49.2184500"><time>2023-06-03T07:41:14.307</time></trkpt><trkpt lat="55.8700767" lon="49.2185067"><time>2023-06-03T07:41:14.777</time></trkpt><trkpt lat="55.8701450" lon="49.2186033"><time>2023-06-03T07:41:16.303</time></trkpt><trkpt lat="55.8702017" lon="49.2186800"><time>2023-06-03T07:41:17.307</time></trkpt><trkpt lat="55.8702683" lon="49.2187333"><time>2023-06-03T07:41:18.310</time></trkpt><trkpt lat="55.8703267" lon="49.2187783"><time>2023-06-03T07:41:19.310</time></trkpt><trkpt lat="55.8703717" lon="49.2188283"><time>2023-06-03T07:41:20.310</time></trkpt><trkpt lat="55.8704117" lon="49.2188717"><time>2023-06-03T07:41:21.310</time></trkpt><trkpt lat="55.8704833" lon="49.2189567"><time>2023-06-03T07:41:23.310</time></trkpt><trkpt lat="55.8705467" lon="49.2190550"><time>2023-06-03T07:41:25.287</time></trkpt><trkpt lat="55.8705917" lon="49.2191800"><time>2023-06-03T07:41:27.310</time></trkpt><trkpt lat="55.8706433" lon="49.2192667"><time>2023-06-03T07:41:29.310</time></trkpt><trkpt lat="55.8707083" lon="49.2193483"><time>2023-06-03T07:41:31.310</time></trkpt><trkpt lat="55.8707733" lon="49.2193967"><time>2023-06-03T07:41:33.333</time></trkpt><trkpt lat="55.8707733" lon="49.2193967"><time>2023-06-03T07:41:34.317</time></trkpt><trkpt lat="55.8708217" lon="49.2194183"><time>2023-06-03T07:41:36.807</time></trkpt><trkpt lat="55.8709017" lon="49.2194167"><time>2023-06-03T07:41:38.307</time></trkpt><trkpt lat="55.8709733" lon="49.2193917"><time>2023-06-03T07:41:40.313</time></trkpt><trkpt lat="55.8710417" lon="49.2193783"><time>2023-06-03T07:41:42.303</time></trkpt><trkpt lat="55.8711050" lon="49.2193717"><time>2023-06-03T07:41:44.303</time></trkpt><trkpt lat="55.8711800" lon="49.2193683"><time>2023-06-03T07:41:46.310</time></trkpt><trkpt lat="55.8712450" lon="49.2193483"><time>2023-06-03T07:41:48.330</time></trkpt><trkpt lat="55.8709333" lon="49.2193567"><time>2023-06-03T07:41:50.323</time></trkpt><trkpt lat="55.8709283" lon="49.2193567"><time>2023-06-03T07:41:51.707</time></trkpt><trkpt lat="55.8712917" lon="49.2193333"><time>2023-06-03T07:41:52.200</time></trkpt><trkpt lat="55.8712850" lon="49.2193383"><time>2023-06-03T07:41:53.163</time></trkpt><trkpt lat="55.8713633" lon="49.2193200"><time>2023-06-03T07:41:54.343</time></trkpt><trkpt lat="55.8714217" lon="49.2192700"><time>2023-06-03T07:41:54.853</time></trkpt><trkpt lat="55.8715050" lon="49.2192800"><time>2023-06-03T07:41:55.843</time></trkpt><trkpt lat="55.8715500" lon="49.2192717"><time>2023-06-03T07:41:56.347</time></trkpt><trkpt lat="55.8716033" lon="49.2192633"><time>2023-06-03T07:41:57.343</time></trkpt><trkpt lat="55.8716583" lon="49.2192717"><time>2023-06-03T07:41:58.350</time></trkpt><trkpt lat="55.8717767" lon="49.2193083"><time>2023-06-03T07:42:00.343</time></trkpt><trkpt lat="55.8717183" lon="49.2192617"><time>2023-06-03T07:42:01.347</time></trkpt><trkpt lat="55.8717617" lon="49.2193183"><time>2023-06-03T07:42:03.310</time></trkpt><trkpt lat="55.8717950" lon="49.2193750"><time>2023-06-03T07:42:11.310</time></trkpt><trkpt lat="55.8717767" lon="49.2194517"><time>2023-06-03T07:42:18.310</time></trkpt><trkpt lat="55.8717483" lon="49.2195183"><time>2023-06-03T07:42:28.323</time></trkpt><trkpt lat="55.8717483" lon="49.2195183"><time>2023-06-03T07:42:28.360</time></trkpt><trkpt lat="55.8717633" lon="49.2194367"><time>2023-06-03T07:42:42.333</time></trkpt><trkpt lat="55.8717633" lon="49.2194367"><time>2023-06-03T07:42:43.300</time></trkpt><trkpt lat="55.8718017" lon="49.2193783"><time>2023-06-03T07:42:56.313</time></trkpt><trkpt lat="55.8718583" lon="49.2193050"><time>2023-06-03T07:42:59.310</time></trkpt><trkpt lat="55.8719033" lon="49.2192367"><time>2023-06-03T07:43:01.310</time></trkpt><trkpt lat="55.8719633" lon="49.2191983"><time>2023-06-03T07:43:03.310</time></trkpt><trkpt lat="55.8720250" lon="49.2191600"><time>2023-06-03T07:43:05.310</time></trkpt><trkpt lat="55.8720917" lon="49.2191283"><time>2023-06-03T07:43:07.310</time></trkpt><trkpt lat="55.8721667" lon="49.2190983"><time>2023-06-03T07:43:09.310</time></trkpt><trkpt lat="55.8722583" lon="49.2190567"><time>2023-06-03T07:43:11.317</time></trkpt><trkpt lat="55.8723033" lon="49.2190283"><time>2023-06-03T07:43:12.317</time></trkpt><trkpt lat="55.8723750" lon="49.2189850"><time>2023-06-03T07:43:14.307</time></trkpt><trkpt lat="55.8724167" lon="49.2189533"><time>2023-06-03T07:43:15.313</time></trkpt><trkpt lat="55.8724667" lon="49.2189083"><time>2023-06-03T07:43:16.313</time></trkpt><trkpt lat="55.8725217" lon="49.2188567"><time>2023-06-03T07:43:17.320</time></trkpt><trkpt lat="55.8725700" lon="49.2188133"><time>2023-06-03T07:43:18.320</time></trkpt><trkpt lat="55.8726250" lon="49.2187667"><time>2023-06-03T07:43:19.320</time></trkpt><trkpt lat="55.8726817" lon="49.2187150"><time>2023-06-03T07:43:20.320</time></trkpt><trkpt lat="55.8727350" lon="49.2186617"><time>2023-06-03T07:43:21.317</time></trkpt><trkpt lat="55.8727817" lon="49.2186067"><time>2023-06-03T07:43:22.317</time></trkpt><trkpt lat="55.8728300" lon="49.2185550"><time>2023-06-03T07:43:23.317</time></trkpt><trkpt lat="55.8728750" lon="49.2185050"><time>2023-06-03T07:43:24.317</time></trkpt><trkpt lat="55.8729183" lon="49.2184517"><time>2023-06-03T07:43:25.317</time></trkpt><trkpt lat="55.8729633" lon="49.2183983"><time>2023-06-03T07:43:26.317</time></trkpt><trkpt lat="55.8730083" lon="49.2183467"><time>2023-06-03T07:43:27.317</time></trkpt><trkpt lat="55.8730500" lon="49.2182983"><time>2023-06-03T07:43:28.317</time></trkpt><trkpt lat="55.8730933" lon="49.2182550"><time>2023-06-03T07:43:29.320</time></trkpt><trkpt lat="55.8731400" lon="49.2182083"><time>2023-06-03T07:43:30.320</time></trkpt><trkpt lat="55.8731850" lon="49.2181550"><time>2023-06-03T07:43:31.320</time></trkpt><trkpt lat="55.8732317" lon="49.2180967"><time>2023-06-03T07:43:32.320</time></trkpt><trkpt lat="55.8732800" lon="49.2180383"><time>2023-06-03T07:43:33.317</time></trkpt><trkpt lat="55.8733333" lon="49.2179783"><time>2023-06-03T07:43:34.320</time></trkpt><trkpt lat="55.8733900" lon="49.2179233"><time>2023-06-03T07:43:35.317</time></trkpt><trkpt lat="55.8734450" lon="49.2178667"><time>2023-06-03T07:43:36.317</time></trkpt><trkpt lat="55.8735083" lon="49.2178117"><time>2023-06-03T07:43:37.297</time></trkpt><trkpt lat="55.8735850" lon="49.2177650"><time>2023-06-03T07:43:38.307</time></trkpt><trkpt lat="55.8736600" lon="49.2177150"><time>2023-06-03T07:43:39.317</time></trkpt><trkpt lat="55.8737317" lon="49.2176617"><time>2023-06-03T07:43:40.320</time></trkpt><trkpt lat="55.8738000" lon="49.2176183"><time>2023-06-03T07:43:41.320</time></trkpt><trkpt lat="55.8738633" lon="49.2175717"><time>2023-06-03T07:43:42.320</time></trkpt><trkpt lat="55.8739283" lon="49.2175183"><time>2023-06-03T07:43:43.317</time></trkpt><trkpt lat="55.8739883" lon="49.2174517"><time>2023-06-03T07:43:44.320</time></trkpt><trkpt lat="55.8740450" lon="49.2173667"><time>2023-06-03T07:43:45.317</time></trkpt><trkpt lat="55.8740967" lon="49.2172867"><time>2023-06-03T07:43:46.317</time></trkpt><trkpt lat="55.8741483" lon="49.2172033"><time>2023-06-03T07:43:47.320</time></trkpt><trkpt lat="55.8741950" lon="49.2171217"><time>2023-06-03T07:43:48.317</time></trkpt><trkpt lat="55.8742400" lon="49.2170333"><time>2023-06-03T07:43:49.320</time></trkpt><trkpt lat="55.8742833" lon="49.2169417"><time>2023-06-03T07:43:50.320</time></trkpt><trkpt lat="55.8743250" lon="49.2168483"><time>2023-06-03T07:43:51.320</time></trkpt><trkpt lat="55.8743667" lon="49.2167533"><time>2023-06-03T07:43:52.323</time></trkpt><trkpt lat="55.8744067" lon="49.2166700"><time>2023-06-03T07:43:53.323</time></trkpt><trkpt lat="55.8744483" lon="49.2165850"><time>2023-06-03T07:43:54.323</time></trkpt><trkpt lat="55.8744883" lon="49.2164983"><time>2023-06-03T07:43:55.320</time></trkpt><trkpt lat="55.8745283" lon="49.2164083"><time>2023-06-03T07:43:56.320</time></trkpt><trkpt lat="55.8745667" lon="49.2163233"><time>2023-06-03T07:43:57.320</time></trkpt><trkpt lat="55.8746050" lon="49.2162400"><time>2023-06-03T07:43:58.320</time></trkpt><trkpt lat="55.8746417" lon="49.2161567"><time>2023-06-03T07:43:59.317</time></trkpt><trkpt lat="55.8746750" lon="49.2160733"><time>2023-06-03T07:44:00.323</time></trkpt><trkpt lat="55.8747100" lon="49.2159867"><time>2023-06-03T07:44:01.317</time></trkpt><trkpt lat="55.8747450" lon="49.2159033"><time>2023-06-03T07:44:02.323</time></trkpt><trkpt lat="55.8747817" lon="49.2158250"><time>2023-06-03T07:44:03.317</time></trkpt><trkpt lat="55.8748200" lon="49.2157467"><time>2023-06-03T07:44:04.320</time></trkpt><trkpt lat="55.8748617" lon="49.2156567"><time>2023-06-03T07:44:05.320</time></trkpt><trkpt lat="55.8749050" lon="49.2155650"><time>2023-06-03T07:44:06.323</time></trkpt><trkpt lat="55.8749500" lon="49.2154800"><time>2023-06-03T07:44:07.320</time></trkpt><trkpt lat="55.8749917" lon="49.2153950"><time>2023-06-03T07:44:08.323</time></trkpt><trkpt lat="55.8750317" lon="49.2153033"><time>2023-06-03T07:44:09.320</time></trkpt><trkpt lat="55.8750733" lon="49.2152083"><time>2023-06-03T07:44:10.317</time></trkpt><trkpt lat="55.8751117" lon="49.2151167"><time>2023-06-03T07:44:11.323</time></trkpt><trkpt lat="55.8751483" lon="49.2150183"><time>2023-06-03T07:44:12.323</time></trkpt><trkpt lat="55.8751867" lon="49.2149283"><time>2023-06-03T07:44:13.323</time></trkpt><trkpt lat="55.8752300" lon="49.2148533"><time>2023-06-03T07:44:14.323</time></trkpt><trkpt lat="55.8752817" lon="49.2147917"><time>2023-06-03T07:44:15.323</time></trkpt><trkpt lat="55.8753300" lon="49.2147400"><time>2023-06-03T07:44:16.320</time></trkpt><trkpt lat="55.8753850" lon="49.2147017"><time>2023-06-03T07:44:17.317</time></trkpt><trkpt lat="55.8754417" lon="49.2146767"><time>2023-06-03T07:44:18.320</time></trkpt><trkpt lat="55.8754967" lon="49.2146567"><time>2023-06-03T07:44:19.317</time></trkpt><trkpt lat="55.8755567" lon="49.2146400"><time>2023-06-03T07:44:20.323</time></trkpt><trkpt lat="55.8756150" lon="49.2146200"><time>2023-06-03T07:44:21.320</time></trkpt><trkpt lat="55.8756800" lon="49.2145983"><time>2023-06-03T07:44:22.323</time></trkpt><trkpt lat="55.8757433" lon="49.2145750"><time>2023-06-03T07:44:23.320</time></trkpt><trkpt lat="55.8758050" lon="49.2145517"><time>2023-06-03T07:44:24.317</time></trkpt><trkpt lat="55.8758717" lon="49.2145283"><time>2023-06-03T07:44:25.320</time></trkpt><trkpt lat="55.8759317" lon="49.2145050"><time>2023-06-03T07:44:26.323</time></trkpt><trkpt lat="55.8759933" lon="49.2144883"><time>2023-06-03T07:44:27.307</time></trkpt><trkpt lat="55.8760533" lon="49.2144700"><time>2023-06-03T07:44:28.320</time></trkpt><trkpt lat="55.8761067" lon="49.2144583"><time>2023-06-03T07:44:29.317</time></trkpt><trkpt lat="55.8761550" lon="49.2144567"><time>2023-06-03T07:44:30.317</time></trkpt><trkpt lat="55.8762017" lon="49.2144583"><time>2023-06-03T07:44:31.317</time></trkpt><trkpt lat="55.8762883" lon="49.2144483"><time>2023-06-03T07:44:33.320</time></trkpt><trkpt lat="55.8763350" lon="49.2144317"><time>2023-06-03T07:44:34.320</time></trkpt><trkpt lat="55.8763833" lon="49.2144217"><time>2023-06-03T07:44:35.320</time></trkpt><trkpt lat="55.8764383" lon="49.2144083"><time>2023-06-03T07:44:36.307</time></trkpt><trkpt lat="55.8764933" lon="49.2143900"><time>2023-06-03T07:44:37.310</time></trkpt><trkpt lat="55.8765467" lon="49.2143733"><time>2023-06-03T07:44:38.317</time></trkpt><trkpt lat="55.8766000" lon="49.2143517"><time>2023-06-03T07:44:39.317</time></trkpt><trkpt lat="55.8766533" lon="49.2143267"><time>2023-06-03T07:44:40.310</time></trkpt><trkpt lat="55.8767100" lon="49.2143017"><time>2023-06-03T07:44:41.320</time></trkpt><trkpt lat="55.8767667" lon="49.2142817"><time>2023-06-03T07:44:42.320</time></trkpt><trkpt lat="55.8768300" lon="49.2142633"><time>2023-06-03T07:44:43.320</time></trkpt><trkpt lat="55.8768933" lon="49.2142350"><time>2023-06-03T07:44:44.323</time></trkpt><trkpt lat="55.8769567" lon="49.2142083"><time>2023-06-03T07:44:45.323</time></trkpt><trkpt lat="55.8770217" lon="49.2141750"><time>2023-06-03T07:44:46.320</time></trkpt><trkpt lat="55.8770900" lon="49.2141350"><time>2023-06-03T07:44:47.317</time></trkpt><trkpt lat="55.8771583" lon="49.2141033"><time>2023-06-03T07:44:48.320</time></trkpt><trkpt lat="55.8772250" lon="49.2140767"><time>2023-06-03T07:44:49.307</time></trkpt><trkpt lat="55.8772883" lon="49.2140517"><time>2023-06-03T07:44:50.313</time></trkpt><trkpt lat="55.8773500" lon="49.2140283"><time>2023-06-03T07:44:51.317</time></trkpt><trkpt lat="55.8774117" lon="49.2140017"><time>2023-06-03T07:44:52.320</time></trkpt><trkpt lat="55.8774767" lon="49.2139717"><time>2023-06-03T07:44:53.323</time></trkpt><trkpt lat="55.8775417" lon="49.2139367"><time>2023-06-03T07:44:54.320</time></trkpt><trkpt lat="55.8776033" lon="49.2139083"><time>2023-06-03T07:44:55.320</time></trkpt><trkpt lat="55.8776667" lon="49.2138867"><time>2023-06-03T07:44:56.323</time></trkpt><trkpt lat="55.8777283" lon="49.2138650"><time>2023-06-03T07:44:57.323</time></trkpt><trkpt lat="55.8777867" lon="49.2138450"><time>2023-06-03T07:44:58.323</time></trkpt><trkpt lat="55.8778467" lon="49.2138233"><time>2023-06-03T07:44:59.320</time></trkpt><trkpt lat="55.8779067" lon="49.2138017"><time>2023-06-03T07:45:00.317</time></trkpt><trkpt lat="55.8779683" lon="49.2137817"><time>2023-06-03T07:45:01.320</time></trkpt><trkpt lat="55.8780233" lon="49.2137700"><time>2023-06-03T07:45:02.303</time></trkpt><trkpt lat="55.8780800" lon="49.2137717"><time>2023-06-03T07:45:03.317</time></trkpt><trkpt lat="55.8781400" lon="49.2137950"><time>2023-06-03T07:45:04.323</time></trkpt><trkpt lat="55.8782000" lon="49.2138233"><time>2023-06-03T07:45:05.327</time></trkpt><trkpt lat="55.8782583" lon="49.2138483"><time>2023-06-03T07:45:06.323</time></trkpt><trkpt lat="55.8783117" lon="49.2138817"><time>2023-06-03T07:45:07.323</time></trkpt><trkpt lat="55.8783667" lon="49.2139133"><time>2023-06-03T07:45:08.320</time></trkpt><trkpt lat="55.8784233" lon="49.2139350"><time>2023-06-03T07:45:09.320</time></trkpt><trkpt lat="55.8784783" lon="49.2139383"><time>2023-06-03T07:45:10.320</time></trkpt><trkpt lat="55.8785283" lon="49.2139117"><time>2023-06-03T07:45:11.317</time></trkpt><trkpt lat="55.8785717" lon="49.2138517"><time>2023-06-03T07:45:12.320</time></trkpt><trkpt lat="55.8786167" lon="49.2137800"><time>2023-06-03T07:45:13.327</time></trkpt><trkpt lat="55.8786633" lon="49.2137117"><time>2023-06-03T07:45:14.310</time></trkpt><trkpt lat="55.8787050" lon="49.2136567"><time>2023-06-03T07:45:15.307</time></trkpt><trkpt lat="55.8787417" lon="49.2136050"><time>2023-06-03T07:45:16.323</time></trkpt><trkpt lat="55.8787917" lon="49.2135300"><time>2023-06-03T07:45:17.820</time></trkpt><trkpt lat="55.8788500" lon="49.2134667"><time>2023-06-03T07:45:19.320</time></trkpt><trkpt lat="55.8789200" lon="49.2134333"><time>2023-06-03T07:45:21.320</time></trkpt><trkpt lat="55.8789817" lon="49.2134717"><time>2023-06-03T07:45:23.320</time></trkpt><trkpt lat="55.8790400" lon="49.2135250"><time>2023-06-03T07:45:25.320</time></trkpt><trkpt lat="55.8790850" lon="49.2135767"><time>2023-06-03T07:45:27.310</time></trkpt><trkpt lat="55.8791467" lon="49.2136200"><time>2023-06-03T07:45:29.320</time></trkpt><trkpt lat="55.8792333" lon="49.2136533"><time>2023-06-03T07:45:31.323</time></trkpt><trkpt lat="55.8793133" lon="49.2136617"><time>2023-06-03T07:45:33.320</time></trkpt><trkpt lat="55.8794033" lon="49.2136600"><time>2023-06-03T07:45:35.317</time></trkpt><trkpt lat="55.8794550" lon="49.2136567"><time>2023-06-03T07:45:36.317</time></trkpt><trkpt lat="55.8795083" lon="49.2136600"><time>2023-06-03T07:45:37.323</time></trkpt><trkpt lat="55.8795533" lon="49.2136650"><time>2023-06-03T07:45:38.337</time></trkpt><trkpt lat="55.8795983" lon="49.2136667"><time>2023-06-03T07:45:39.323</time></trkpt><trkpt lat="55.8796817" lon="49.2136817"><time>2023-06-03T07:45:41.323</time></trkpt><trkpt lat="55.8797650" lon="49.2136650"><time>2023-06-03T07:45:43.323</time></trkpt><trkpt lat="55.8798450" lon="49.2136383"><time>2023-06-03T07:45:45.313</time></trkpt><trkpt lat="55.8799250" lon="49.2136150"><time>2023-06-03T07:45:47.323</time></trkpt><trkpt lat="55.8799683" lon="49.2135933"><time>2023-06-03T07:45:48.320</time></trkpt><trkpt lat="55.8800150" lon="49.2135583"><time>2023-06-03T07:45:49.320</time></trkpt><trkpt lat="55.8800600" lon="49.2135267"><time>2023-06-03T07:45:50.323</time></trkpt><trkpt lat="55.8801067" lon="49.2134950"><time>2023-06-03T07:45:51.320</time></trkpt><trkpt lat="55.8801533" lon="49.2134650"><time>2023-06-03T07:45:52.317</time></trkpt><trkpt lat="55.8801967" lon="49.2134300"><time>2023-06-03T07:45:53.317</time></trkpt><trkpt lat="55.8802800" lon="49.2133667"><time>2023-06-03T07:45:55.310</time></trkpt><trkpt lat="55.8803233" lon="49.2133233"><time>2023-06-03T07:45:56.320</time></trkpt><trkpt lat="55.8803667" lon="49.2132817"><time>2023-06-03T07:45:57.317</time></trkpt><trkpt lat="55.8804100" lon="49.2132450"><time>2023-06-03T07:45:58.320</time></trkpt><trkpt lat="55.8804883" lon="49.2131783"><time>2023-06-03T07:46:00.320</time></trkpt><trkpt lat="55.8805650" lon="49.2131233"><time>2023-06-03T07:46:02.307</time></trkpt><trkpt lat="55.8806483" lon="49.2130733"><time>2023-06-03T07:46:04.317</time></trkpt><trkpt lat="55.8807317" lon="49.2130567"><time>2023-06-03T07:46:06.320</time></trkpt><trkpt lat="55.8807833" lon="49.2130600"><time>2023-06-03T07:46:07.320</time></trkpt><trkpt lat="55.8808300" lon="49.2130583"><time>2023-06-03T07:46:08.320</time></trkpt><trkpt lat="55.8808967" lon="49.2130483"><time>2023-06-03T07:46:10.317</time></trkpt><trkpt lat="55.8809600" lon="49.2130833"><time>2023-06-03T07:46:13.320</time></trkpt><trkpt lat="55.8810283" lon="49.2131450"><time>2023-06-03T07:46:15.320</time></trkpt><trkpt lat="55.8810833" lon="49.2132000"><time>2023-06-03T07:46:17.320</time></trkpt><trkpt lat="55.8811233" lon="49.2132383"><time>2023-06-03T07:46:19.323</time></trkpt><trkpt lat="55.8811733" lon="49.2132767"><time>2023-06-03T07:46:21.327</time></trkpt><trkpt lat="55.8812283" lon="49.2133200"><time>2023-06-03T07:46:23.320</time></trkpt><trkpt lat="55.8812733" lon="49.2133500"><time>2023-06-03T07:46:24.320</time></trkpt><trkpt lat="55.8813550" lon="49.2134083"><time>2023-06-03T07:46:26.323</time></trkpt><trkpt lat="55.8814400" lon="49.2134583"><time>2023-06-03T07:46:28.323</time></trkpt><trkpt lat="55.8814850" lon="49.2134900"><time>2023-06-03T07:46:29.323</time></trkpt><trkpt lat="55.8815333" lon="49.2135200"><time>2023-06-03T07:46:30.323</time></trkpt><trkpt lat="55.8815983" lon="49.2135500"><time>2023-06-03T07:46:31.323</time></trkpt><trkpt lat="55.8816417" lon="49.2135750"><time>2023-06-03T07:46:32.320</time></trkpt><trkpt lat="55.8816917" lon="49.2135950"><time>2023-06-03T07:46:33.317</time></trkpt><trkpt lat="55.8817383" lon="49.2136217"><time>2023-06-03T07:46:34.320</time></trkpt><trkpt lat="55.8818000" lon="49.2136467"><time>2023-06-03T07:46:35.317</time></trkpt><trkpt lat="55.8818500" lon="49.2136567"><time>2023-06-03T07:46:36.323</time></trkpt><trkpt lat="55.8819283" lon="49.2136783"><time>2023-06-03T07:46:38.320</time></trkpt><trkpt lat="55.8820083" lon="49.2136983"><time>2023-06-03T07:46:40.323</time></trkpt><trkpt lat="55.8820983" lon="49.2137300"><time>2023-06-03T07:46:42.327</time></trkpt><trkpt lat="55.8821750" lon="49.2137633"><time>2023-06-03T07:46:44.323</time></trkpt><trkpt lat="55.8822600" lon="49.2137917"><time>2023-06-03T07:46:46.323</time></trkpt><trkpt lat="55.8823067" lon="49.2138067"><time>2023-06-03T07:46:47.320</time></trkpt><trkpt lat="55.8823917" lon="49.2138400"><time>2023-06-03T07:46:49.323</time></trkpt><trkpt lat="55.8824717" lon="49.2138600"><time>2023-06-03T07:46:51.320</time></trkpt><trkpt lat="55.8825450" lon="49.2138667"><time>2023-06-03T07:46:53.320</time></trkpt><trkpt lat="55.8826117" lon="49.2138783"><time>2023-06-03T07:46:55.320</time></trkpt><trkpt lat="55.8827000" lon="49.2139000"><time>2023-06-03T07:46:57.323</time></trkpt><trkpt lat="55.8827800" lon="49.2139200"><time>2023-06-03T07:46:59.320</time></trkpt><trkpt lat="55.8828367" lon="49.2139517"><time>2023-06-03T07:47:01.323</time></trkpt><trkpt lat="55.8829000" lon="49.2139967"><time>2023-06-03T07:47:03.320</time></trkpt><trkpt lat="55.8829750" lon="49.2140533"><time>2023-06-03T07:47:05.323</time></trkpt><trkpt lat="55.8830150" lon="49.2140900"><time>2023-06-03T07:47:06.320</time></trkpt><trkpt lat="55.8830567" lon="49.2141300"><time>2023-06-03T07:47:07.320</time></trkpt><trkpt lat="55.8831000" lon="49.2141767"><time>2023-06-03T07:47:08.323</time></trkpt><trkpt lat="55.8831417" lon="49.2142183"><time>2023-06-03T07:47:09.320</time></trkpt><trkpt lat="55.8831817" lon="49.2142600"><time>2023-06-03T07:47:10.297</time></trkpt><trkpt lat="55.8832533" lon="49.2143417"><time>2023-06-03T07:47:12.323</time></trkpt><trkpt lat="55.8833167" lon="49.2144267"><time>2023-06-03T07:47:14.293</time></trkpt><trkpt lat="55.8833867" lon="49.2145133"><time>2023-06-03T07:47:16.317</time></trkpt><trkpt lat="55.8834517" lon="49.2145967"><time>2023-06-03T07:47:18.317</time></trkpt><trkpt lat="55.8835233" lon="49.2146900"><time>2023-06-03T07:47:20.323</time></trkpt><trkpt lat="55.8835717" lon="49.2147383"><time>2023-06-03T07:47:21.320</time></trkpt><trkpt lat="55.8836317" lon="49.2147717"><time>2023-06-03T07:47:22.317</time></trkpt><trkpt lat="55.8836800" lon="49.2147983"><time>2023-06-03T07:47:23.317</time></trkpt><trkpt lat="55.8837250" lon="49.2148200"><time>2023-06-03T07:47:24.320</time></trkpt><trkpt lat="55.8838050" lon="49.2148383"><time>2023-06-03T07:47:26.320</time></trkpt><trkpt lat="55.8838550" lon="49.2148483"><time>2023-06-03T07:47:27.323</time></trkpt><trkpt lat="55.8839083" lon="49.2148667"><time>2023-06-03T07:47:28.323</time></trkpt><trkpt lat="55.8839533" lon="49.2148967"><time>2023-06-03T07:47:29.323</time></trkpt><trkpt lat="55.8839967" lon="49.2149283"><time>2023-06-03T07:47:30.327</time></trkpt><trkpt lat="55.8840783" lon="49.2149867"><time>2023-06-03T07:47:32.320</time></trkpt><trkpt lat="55.8841583" lon="49.2150267"><time>2023-06-03T07:47:34.317</time></trkpt><trkpt lat="55.8842217" lon="49.2150433"><time>2023-06-03T07:47:36.323</time></trkpt><trkpt lat="55.8842767" lon="49.2150550"><time>2023-06-03T07:47:38.323</time></trkpt><trkpt lat="55.8843250" lon="49.2150683"><time>2023-06-03T07:47:40.320</time></trkpt><trkpt lat="55.8843800" lon="49.2150700"><time>2023-06-03T07:47:42.323</time></trkpt><trkpt lat="55.8844433" lon="49.2150450"><time>2023-06-03T07:47:44.323</time></trkpt><trkpt lat="55.8845083" lon="49.2149950"><time>2023-06-03T07:47:46.323</time></trkpt><trkpt lat="55.8845817" lon="49.2149333"><time>2023-06-03T07:47:48.323</time></trkpt><trkpt lat="55.8846583" lon="49.2148767"><time>2023-06-03T07:47:50.320</time></trkpt><trkpt lat="55.8847300" lon="49.2148467"><time>2023-06-03T07:47:52.323</time></trkpt><trkpt lat="55.8848033" lon="49.2148250"><time>2023-06-03T07:47:54.323</time></trkpt><trkpt lat="55.8848733" lon="49.2148017"><time>2023-06-03T07:47:56.323</time></trkpt><trkpt lat="55.8849433" lon="49.2147850"><time>2023-06-03T07:47:58.320</time></trkpt><trkpt lat="55.8850183" lon="49.2147917"><time>2023-06-03T07:48:00.323</time></trkpt><trkpt lat="55.8850817" lon="49.2148083"><time>2023-06-03T07:48:02.320</time></trkpt><trkpt lat="55.8851500" lon="49.2148250"><time>2023-06-03T07:48:04.323</time></trkpt><trkpt lat="55.8852500" lon="49.2148733"><time>2023-06-03T07:48:06.327</time></trkpt><trkpt lat="55.8853050" lon="49.2149150"><time>2023-06-03T07:48:07.323</time></trkpt><trkpt lat="55.8853550" lon="49.2149600"><time>2023-06-03T07:48:08.320</time></trkpt><trkpt lat="55.8854000" lon="49.2150000"><time>2023-06-03T07:48:09.327</time></trkpt><trkpt lat="55.8854833" lon="49.2150367"><time>2023-06-03T07:48:11.323</time></trkpt><trkpt lat="55.8855483" lon="49.2149933"><time>2023-06-03T07:48:13.323</time></trkpt><trkpt lat="55.8855950" lon="49.2149517"><time>2023-06-03T07:48:16.323</time></trkpt><trkpt lat="55.8856700" lon="49.2150367"><time>2023-06-03T07:48:26.323</time></trkpt><trkpt lat="55.8856717" lon="49.2151300"><time>2023-06-03T07:48:28.320</time></trkpt><trkpt lat="55.8856750" lon="49.2152467"><time>2023-06-03T07:48:30.323</time></trkpt><trkpt lat="55.8856783" lon="49.2153633"><time>2023-06-03T07:48:32.323</time></trkpt><trkpt lat="55.8856767" lon="49.2154550"><time>2023-06-03T07:48:34.323</time></trkpt><trkpt lat="55.8856733" lon="49.2155650"><time>2023-06-03T07:48:36.323</time></trkpt><trkpt lat="55.8856733" lon="49.2156967"><time>2023-06-03T07:48:38.280</time></trkpt><trkpt lat="55.8856800" lon="49.2158100"><time>2023-06-03T07:48:40.320</time></trkpt><trkpt lat="55.8856983" lon="49.2159267"><time>2023-06-03T07:48:42.323</time></trkpt><trkpt lat="55.8857217" lon="49.2160550"><time>2023-06-03T07:48:44.323</time></trkpt><trkpt lat="55.8857433" lon="49.2161850"><time>2023-06-03T07:48:46.317</time></trkpt><trkpt lat="55.8857517" lon="49.2163167"><time>2023-06-03T07:48:48.320</time></trkpt><trkpt lat="55.8857500" lon="49.2164433"><time>2023-06-03T07:48:50.327</time></trkpt><trkpt lat="55.8857483" lon="49.2165633"><time>2023-06-03T07:48:52.317</time></trkpt><trkpt lat="55.8857400" lon="49.2166850"><time>2023-06-03T07:48:54.320</time></trkpt><trkpt lat="55.8857267" lon="49.2168133"><time>2023-06-03T07:48:56.320</time></trkpt><trkpt lat="55.8857183" lon="49.2169383"><time>2023-06-03T07:48:58.327</time></trkpt><trkpt lat="55.8857300" lon="49.2170767"><time>2023-06-03T07:49:00.323</time></trkpt><trkpt lat="55.8857517" lon="49.2172000"><time>2023-06-03T07:49:02.323</time></trkpt><trkpt lat="55.8857700" lon="49.2173100"><time>2023-06-03T07:49:04.320</time></trkpt><trkpt lat="55.8857933" lon="49.2174517"><time>2023-06-03T07:49:06.320</time></trkpt><trkpt lat="55.8858150" lon="49.2175217"><time>2023-06-03T07:49:07.320</time></trkpt><trkpt lat="55.8858333" lon="49.2175967"><time>2023-06-03T07:49:08.320</time></trkpt><trkpt lat="55.8858733" lon="49.2176967"><time>2023-06-03T07:49:10.320</time></trkpt><trkpt lat="55.8859100" lon="49.2177883"><time>2023-06-03T07:49:12.320</time></trkpt><trkpt lat="55.8859567" lon="49.2178867"><time>2023-06-03T07:49:14.303</time></trkpt><trkpt lat="55.8860183" lon="49.2179600"><time>2023-06-03T07:49:16.320</time></trkpt><trkpt lat="55.8860733" lon="49.2180217"><time>2023-06-03T07:49:18.323</time></trkpt><trkpt lat="55.8861183" lon="49.2180767"><time>2023-06-03T07:49:20.320</time></trkpt><trkpt lat="55.8861650" lon="49.2181250"><time>2023-06-03T07:49:22.323</time></trkpt><trkpt lat="55.8862350" lon="49.2181967"><time>2023-06-03T07:49:24.320</time></trkpt><trkpt lat="55.8862700" lon="49.2182517"><time>2023-06-03T07:49:25.317</time></trkpt><trkpt lat="55.8863083" lon="49.2183050"><time>2023-06-03T07:49:26.320</time></trkpt><trkpt lat="55.8863683" lon="49.2183750"><time>2023-06-03T07:49:28.323</time></trkpt><trkpt lat="55.8864117" lon="49.2184200"><time>2023-06-03T07:49:30.323</time></trkpt><trkpt lat="55.8864500" lon="49.2184883"><time>2023-06-03T07:49:33.320</time></trkpt><trkpt lat="55.8864967" lon="49.2185300"><time>2023-06-03T07:49:36.317</time></trkpt><trkpt lat="55.8865233" lon="49.2186083"><time>2023-06-03T07:49:38.323</time></trkpt><trkpt lat="55.8865433" lon="49.2186883"><time>2023-06-03T07:49:40.317</time></trkpt><trkpt lat="55.8865817" lon="49.2187767"><time>2023-06-03T07:49:42.320</time></trkpt><trkpt lat="55.8866250" lon="49.2188650"><time>2023-06-03T07:49:44.323</time></trkpt><trkpt lat="55.8866567" lon="49.2189567"><time>2023-06-03T07:49:46.320</time></trkpt><trkpt lat="55.8866783" lon="49.2190433"><time>2023-06-03T07:49:48.320</time></trkpt><trkpt lat="55.8866933" lon="49.2191517"><time>2023-06-03T07:49:50.323</time></trkpt><trkpt lat="55.8867067" lon="49.2192733"><time>2023-06-03T07:49:52.323</time></trkpt><trkpt lat="55.8867183" lon="49.2193783"><time>2023-06-03T07:49:54.320</time></trkpt><trkpt lat="55.8867267" lon="49.2194983"><time>2023-06-03T07:49:56.320</time></trkpt><trkpt lat="55.8867483" lon="49.2196017"><time>2023-06-03T07:49:58.317</time></trkpt><trkpt lat="55.8867833" lon="49.2196833"><time>2023-06-03T07:50:00.323</time></trkpt><trkpt lat="55.8868400" lon="49.2197433"><time>2023-06-03T07:50:02.320</time></trkpt><trkpt lat="55.8868933" lon="49.2197850"><time>2023-06-03T07:50:04.320</time></trkpt><trkpt lat="55.8869417" lon="49.2198200"><time>2023-06-03T07:50:06.323</time></trkpt><trkpt lat="55.8869917" lon="49.2198783"><time>2023-06-03T07:50:08.320</time></trkpt><trkpt lat="55.8870517" lon="49.2199700"><time>2023-06-03T07:50:10.317</time></trkpt><trkpt lat="55.8871000" lon="49.2200217"><time>2023-06-03T07:50:12.320</time></trkpt><trkpt lat="55.8872100" lon="49.2201150"><time>2023-06-03T07:50:26.320</time></trkpt><trkpt lat="55.8872900" lon="49.2200967"><time>2023-06-03T07:50:31.323</time></trkpt><trkpt lat="55.8873367" lon="49.2200600"><time>2023-06-03T07:50:33.320</time></trkpt><trkpt lat="55.8873850" lon="49.2199933"><time>2023-06-03T07:50:35.297</time></trkpt><trkpt lat="55.8874383" lon="49.2198967"><time>2023-06-03T07:50:37.320</time></trkpt><trkpt lat="55.8874767" lon="49.2198083"><time>2023-06-03T07:50:39.330</time></trkpt><trkpt lat="55.8874367" lon="49.2198783"><time>2023-06-03T07:50:46.320</time></trkpt><trkpt lat="55.8874033" lon="49.2199500"><time>2023-06-03T07:50:48.320</time></trkpt><trkpt lat="55.8873600" lon="49.2200217"><time>2023-06-03T07:50:50.313</time></trkpt><trkpt lat="55.8873133" lon="49.2200883"><time>2023-06-03T07:50:53.323</time></trkpt><trkpt lat="55.8872717" lon="49.2201433"><time>2023-06-03T07:50:56.327</time></trkpt><trkpt lat="55.8872867" lon="49.2202317"><time>2023-06-03T07:50:59.327</time></trkpt><trkpt lat="55.8873100" lon="49.2203033"><time>2023-06-03T07:51:01.327</time></trkpt><trkpt lat="55.8873267" lon="49.2203850"><time>2023-06-03T07:51:03.323</time></trkpt><trkpt lat="55.8873567" lon="49.2204600"><time>2023-06-03T07:51:05.287</time></trkpt><trkpt lat="55.8874050" lon="49.2205783"><time>2023-06-03T07:51:07.320</time></trkpt><trkpt lat="55.8874550" lon="49.2206633"><time>2023-06-03T07:51:09.323</time></trkpt><trkpt lat="55.8875017" lon="49.2207500"><time>2023-06-03T07:51:11.323</time></trkpt><trkpt lat="55.8875433" lon="49.2208117"><time>2023-06-03T07:51:13.323</time></trkpt><trkpt lat="55.8875700" lon="49.2208867"><time>2023-06-03T07:51:15.310</time></trkpt><trkpt lat="55.8876033" lon="49.2209650"><time>2023-06-03T07:51:17.327</time></trkpt><trkpt lat="55.8876367" lon="49.2210283"><time>2023-06-03T07:51:19.320</time></trkpt><trkpt lat="55.8876717" lon="49.2211167"><time>2023-06-03T07:51:22.310</time></trkpt><trkpt lat="55.8876950" lon="49.2212283"><time>2023-06-03T07:51:25.317</time></trkpt><trkpt lat="55.8877183" lon="49.2213167"><time>2023-06-03T07:51:27.327</time></trkpt><trkpt lat="55.8877450" lon="49.2214050"><time>2023-06-03T07:51:29.320</time></trkpt><trkpt lat="55.8877750" lon="49.2214867"><time>2023-06-03T07:51:31.320</time></trkpt><trkpt lat="55.8878067" lon="49.2215467"><time>2023-06-03T07:51:33.323</time></trkpt><trkpt lat="55.8878667" lon="49.2216033"><time>2023-06-03T07:51:36.323</time></trkpt><trkpt lat="55.8879650" lon="49.2217483"><time>2023-06-03T07:51:59.323</time></trkpt><trkpt lat="55.8880350" lon="49.2217817"><time>2023-06-03T07:52:02.323</time></trkpt><trkpt lat="55.8880800" lon="49.2218000"><time>2023-06-03T07:52:04.320</time></trkpt><trkpt lat="55.8881483" lon="49.2218483"><time>2023-06-03T07:52:07.320</time></trkpt><trkpt lat="55.8881933" lon="49.2218667"><time>2023-06-03T07:52:09.320</time></trkpt><trkpt lat="55.8882917" lon="49.2218100"><time>2023-06-03T07:52:16.327</time></trkpt><trkpt lat="55.8883250" lon="49.2217400"><time>2023-06-03T07:52:18.323</time></trkpt><trkpt lat="55.8883467" lon="49.2216617"><time>2023-06-03T07:52:20.323</time></trkpt><trkpt lat="55.8883517" lon="49.2215817"><time>2023-06-03T07:52:22.320</time></trkpt><trkpt lat="55.8883433" lon="49.2214767"><time>2023-06-03T07:52:24.323</time></trkpt><trkpt lat="55.8883533" lon="49.2213633"><time>2023-06-03T07:52:26.327</time></trkpt><trkpt lat="55.8883833" lon="49.2212633"><time>2023-06-03T07:52:28.327</time></trkpt><trkpt lat="55.8884283" lon="49.2211633"><time>2023-06-03T07:52:30.327</time></trkpt><trkpt lat="55.8884650" lon="49.2210550"><time>2023-06-03T07:52:32.323</time></trkpt><trkpt lat="55.8884967" lon="49.2209483"><time>2023-06-03T07:52:34.327</time></trkpt><trkpt lat="55.8885183" lon="49.2208517"><time>2023-06-03T07:52:36.317</time></trkpt><trkpt lat="55.8885233" lon="49.2207283"><time>2023-06-03T07:52:38.317</time></trkpt><trkpt lat="55.8885133" lon="49.2206217"><time>2023-06-03T07:52:40.317</time></trkpt><trkpt lat="55.8885100" lon="49.2205267"><time>2023-06-03T07:52:42.307</time></trkpt><trkpt lat="55.8885067" lon="49.2204200"><time>2023-06-03T07:52:44.327</time></trkpt><trkpt lat="55.8885083" lon="49.2202850"><time>2023-06-03T07:52:46.320</time></trkpt><trkpt lat="55.8885067" lon="49.2201567"><time>2023-06-03T07:52:48.323</time></trkpt><trkpt lat="55.8885033" lon="49.2200300"><time>2023-06-03T07:52:50.320</time></trkpt><trkpt lat="55.8884900" lon="49.2198833"><time>2023-06-03T07:52:52.320</time></trkpt><trkpt lat="55.8884867" lon="49.2197967"><time>2023-06-03T07:52:53.323</time></trkpt><trkpt lat="55.8884833" lon="49.2197150"><time>2023-06-03T07:52:54.320</time></trkpt><trkpt lat="55.8884750" lon="49.2195667"><time>2023-06-03T07:52:56.307</time></trkpt><trkpt lat="55.8884817" lon="49.2194450"><time>2023-06-03T07:52:58.323</time></trkpt><trkpt lat="55.8884933" lon="49.2193383"><time>2023-06-03T07:53:00.320</time></trkpt><trkpt lat="55.8885117" lon="49.2192483"><time>2023-06-03T07:53:02.317</time></trkpt><trkpt lat="55.8884967" lon="49.2190433"><time>2023-06-03T07:53:19.323</time></trkpt><trkpt lat="55.8885133" lon="49.2189667"><time>2023-06-03T07:53:22.323</time></trkpt><trkpt lat="55.8885383" lon="49.2188650"><time>2023-06-03T07:53:25.323</time></trkpt><trkpt lat="55.8885433" lon="49.2187667"><time>2023-06-03T07:53:27.323</time></trkpt><trkpt lat="55.8885283" lon="49.2186717"><time>2023-06-03T07:53:29.327</time></trkpt><trkpt lat="55.8885083" lon="49.2185567"><time>2023-06-03T07:53:31.323</time></trkpt><trkpt lat="55.8884950" lon="49.2184650"><time>2023-06-03T07:53:33.327</time></trkpt><trkpt lat="55.8884583" lon="49.2185900"><time>2023-06-03T07:54:14.327</time></trkpt><trkpt lat="55.8884700" lon="49.2187017"><time>2023-06-03T07:54:17.323</time></trkpt><trkpt lat="55.8884800" lon="49.2187967"><time>2023-06-03T07:54:19.317</time></trkpt><trkpt lat="55.8884850" lon="49.2189050"><time>2023-06-03T07:54:21.323</time></trkpt><trkpt lat="55.8884883" lon="49.2189983"><time>2023-06-03T07:54:23.323</time></trkpt><trkpt lat="55.8884767" lon="49.2190867"><time>2023-06-03T07:54:25.327</time></trkpt><trkpt lat="55.8884617" lon="49.2191783"><time>2023-06-03T07:54:28.323</time></trkpt><trkpt lat="55.8884417" lon="49.2192983"><time>2023-06-03T07:54:31.323</time></trkpt><trkpt lat="55.8884267" lon="49.2193817"><time>2023-06-03T07:54:33.323</time></trkpt><trkpt lat="55.8884150" lon="49.2194983"><time>2023-06-03T07:54:36.327</time></trkpt><trkpt lat="55.8884067" lon="49.2195783"><time>2023-06-03T07:54:38.323</time></trkpt><trkpt lat="55.8884900" lon="49.2196133"><time>2023-06-03T07:54:47.323</time></trkpt><trkpt lat="55.8885450" lon="49.2195633"><time>2023-06-03T07:54:50.323</time></trkpt><trkpt lat="55.8885883" lon="49.2194917"><time>2023-06-03T07:54:53.327</time></trkpt><trkpt lat="55.8886233" lon="49.2194233"><time>2023-06-03T07:54:56.323</time></trkpt><trkpt lat="55.8886567" lon="49.2193450"><time>2023-06-03T07:55:00.320</time></trkpt><trkpt lat="55.8886983" lon="49.2193067"><time>2023-06-03T07:55:04.320</time></trkpt><trkpt lat="55.8887117" lon="49.2192033"><time>2023-06-03T07:55:08.323</time></trkpt><trkpt lat="55.8887383" lon="49.2191317"><time>2023-06-03T07:55:11.323</time></trkpt><trkpt lat="55.8887883" lon="49.2192783"><time>2023-06-03T07:55:27.317</time></trkpt><trkpt lat="55.8888200" lon="49.2193417"><time>2023-06-03T07:55:30.327</time></trkpt><trkpt lat="55.8887817" lon="49.2195117"><time>2023-06-03T07:55:45.327</time></trkpt><trkpt lat="55.8887233" lon="49.2195183"><time>2023-06-03T07:55:50.327</time></trkpt><trkpt lat="55.8886900" lon="49.2194483"><time>2023-06-03T07:55:53.327</time></trkpt><trkpt lat="55.8886467" lon="49.2193867"><time>2023-06-03T07:55:56.327</time></trkpt><trkpt lat="55.8886033" lon="49.2193450"><time>2023-06-03T07:55:59.327</time></trkpt><trkpt lat="55.8885600" lon="49.2193683"><time>2023-06-03T07:56:02.323</time></trkpt><trkpt lat="55.8885133" lon="49.2194450"><time>2023-06-03T07:56:06.323</time></trkpt><trkpt lat="55.8884733" lon="49.2195183"><time>2023-06-03T07:56:09.323</time></trkpt><trkpt lat="55.8884467" lon="49.2195917"><time>2023-06-03T07:56:12.313</time></trkpt><trkpt lat="55.8884700" lon="49.2196600"><time>2023-06-03T07:56:30.320</time></trkpt><trkpt lat="55.8884983" lon="49.2195550"><time>2023-06-03T07:56:33.323</time></trkpt><trkpt lat="55.8885383" lon="49.2194917"><time>2023-06-03T07:56:36.327</time></trkpt><trkpt lat="55.8885733" lon="49.2194133"><time>2023-06-03T07:56:40.320</time></trkpt><trkpt lat="55.8886300" lon="49.2194033"><time>2023-06-03T07:56:45.317</time></trkpt><trkpt lat="55.8886967" lon="49.2194683"><time>2023-06-03T07:56:53.323</time></trkpt><trkpt lat="55.8887433" lon="49.2195267"><time>2023-06-03T07:56:55.310</time></trkpt><trkpt lat="55.8887983" lon="49.2196050"><time>2023-06-03T07:56:57.320</time></trkpt><trkpt lat="55.8888517" lon="49.2196583"><time>2023-06-03T07:56:59.320</time></trkpt><trkpt lat="55.8888967" lon="49.2196917"><time>2023-06-03T07:57:01.343</time></trkpt><trkpt lat="55.8889700" lon="49.2197250"><time>2023-06-03T07:57:04.280</time></trkpt><trkpt lat="55.8890617" lon="49.2197950"><time>2023-06-03T07:57:06.270</time></trkpt><trkpt lat="55.8890983" lon="49.2197300"><time>2023-06-03T07:57:08.317</time></trkpt><trkpt lat="55.8891467" lon="49.2197233"><time>2023-06-03T07:57:10.307</time></trkpt><trkpt lat="55.8892000" lon="49.2197483"><time>2023-06-03T07:57:11.300</time></trkpt><trkpt lat="55.8892467" lon="49.2197467"><time>2023-06-03T07:57:13.313</time></trkpt><trkpt lat="55.8892983" lon="49.2197517"><time>2023-06-03T07:57:15.320</time></trkpt><trkpt lat="55.8893550" lon="49.2197367"><time>2023-06-03T07:57:17.320</time></trkpt><trkpt lat="55.8894100" lon="49.2197117"><time>2023-06-03T07:57:19.310</time></trkpt><trkpt lat="55.8894683" lon="49.2196650"><time>2023-06-03T07:57:21.313</time></trkpt><trkpt lat="55.8895150" lon="49.2196317"><time>2023-06-03T07:57:23.323</time></trkpt><trkpt lat="55.8895767" lon="49.2196417"><time>2023-06-03T07:57:26.323</time></trkpt><trkpt lat="55.8896417" lon="49.2196633"><time>2023-06-03T07:57:29.320</time></trkpt><trkpt lat="55.8897033" lon="49.2196767"><time>2023-06-03T07:57:32.323</time></trkpt><trkpt lat="55.8897517" lon="49.2196717"><time>2023-06-03T07:57:34.320</time></trkpt><trkpt lat="55.8897967" lon="49.2196567"><time>2023-06-03T07:57:36.323</time></trkpt><trkpt lat="55.8898433" lon="49.2196367"><time>2023-06-03T07:57:40.330</time></trkpt><trkpt lat="55.8897767" lon="49.2196533"><time>2023-06-03T07:57:47.327</time></trkpt><trkpt lat="55.8897150" lon="49.2196500"><time>2023-06-03T07:57:49.293</time></trkpt><trkpt lat="55.8896333" lon="49.2196167"><time>2023-06-03T07:57:51.300</time></trkpt><trkpt lat="55.8895817" lon="49.2195900"><time>2023-06-03T07:57:52.293</time></trkpt><trkpt lat="55.8895200" lon="49.2196067"><time>2023-06-03T07:57:55.273</time></trkpt><trkpt lat="55.8894533" lon="49.2196233"><time>2023-06-03T07:57:57.280</time></trkpt><trkpt lat="55.8893867" lon="49.2196367"><time>2023-06-03T07:57:59.283</time></trkpt><trkpt lat="55.8893283" lon="49.2196367"><time>2023-06-03T07:58:01.347</time></trkpt><trkpt lat="55.8892717" lon="49.2196267"><time>2023-06-03T07:58:03.303</time></trkpt><trkpt lat="55.8892217" lon="49.2196583"><time>2023-06-03T07:58:04.353</time></trkpt><trkpt lat="55.8891717" lon="49.2197017"><time>2023-06-03T07:58:06.270</time></trkpt><trkpt lat="55.8891117" lon="49.2196950"><time>2023-06-03T07:58:07.270</time></trkpt><trkpt lat="55.8890550" lon="49.2196967"><time>2023-06-03T07:58:09.270</time></trkpt><trkpt lat="55.8890067" lon="49.2196983"><time>2023-06-03T07:58:12.307</time></trkpt><trkpt lat="55.8889167" lon="49.2196700"><time>2023-06-03T07:58:15.323</time></trkpt><trkpt lat="55.8888633" lon="49.2196333"><time>2023-06-03T07:58:17.323</time></trkpt><trkpt lat="55.8888017" lon="49.2195900"><time>2023-06-03T07:58:19.317</time></trkpt><trkpt lat="55.8887567" lon="49.2195267"><time>2023-06-03T07:58:21.317</time></trkpt><trkpt lat="55.8887067" lon="49.2194650"><time>2023-06-03T07:58:23.327</time></trkpt><trkpt lat="55.8886617" lon="49.2193967"><time>2023-06-03T07:58:25.327</time></trkpt><trkpt lat="55.8886150" lon="49.2193633"><time>2023-06-03T07:58:27.327</time></trkpt><trkpt lat="55.8885650" lon="49.2193650"><time>2023-06-03T07:58:29.327</time></trkpt><trkpt lat="55.8885217" lon="49.2194100"><time>2023-06-03T07:58:31.327</time></trkpt><trkpt lat="55.8884917" lon="49.2194883"><time>2023-06-03T07:58:33.327</time></trkpt><trkpt lat="55.8884583" lon="49.2195633"><time>2023-06-03T07:58:35.327</time></trkpt><trkpt lat="55.8884283" lon="49.2196417"><time>2023-06-03T07:58:37.327</time></trkpt><trkpt lat="55.8884217" lon="49.2197517"><time>2023-06-03T07:58:39.323</time></trkpt><trkpt lat="55.8884400" lon="49.2198367"><time>2023-06-03T07:58:41.323</time></trkpt><trkpt lat="55.8884433" lon="49.2199200"><time>2023-06-03T07:58:43.327</time></trkpt><trkpt lat="55.8884533" lon="49.2200083"><time>2023-06-03T07:58:45.317</time></trkpt><trkpt lat="55.8884583" lon="49.2201083"><time>2023-06-03T07:58:47.327</time></trkpt><trkpt lat="55.8884550" lon="49.2202133"><time>2023-06-03T07:58:49.323</time></trkpt><trkpt lat="55.8884567" lon="49.2203233"><time>2023-06-03T07:58:51.327</time></trkpt><trkpt lat="55.8884600" lon="49.2204367"><time>2023-06-03T07:58:53.323</time></trkpt><trkpt lat="55.8884783" lon="49.2205500"><time>2023-06-03T07:58:55.323</time></trkpt><trkpt lat="55.8884900" lon="49.2206650"><time>2023-06-03T07:58:57.327</time></trkpt><trkpt lat="55.8884883" lon="49.2207933"><time>2023-06-03T07:58:59.323</time></trkpt><trkpt lat="55.8884617" lon="49.2209167"><time>2023-06-03T07:59:01.323</time></trkpt><trkpt lat="55.8884283" lon="49.2210283"><time>2023-06-03T07:59:03.327</time></trkpt><trkpt lat="55.8883867" lon="49.2211200"><time>2023-06-03T07:59:05.327</time></trkpt><trkpt lat="55.8883483" lon="49.2212333"><time>2023-06-03T07:59:07.327</time></trkpt><trkpt lat="55.8883233" lon="49.2213683"><time>2023-06-03T07:59:09.323</time></trkpt><trkpt lat="55.8883383" lon="49.2214717"><time>2023-06-03T07:59:12.313</time></trkpt><trkpt lat="55.8883450" lon="49.2215767"><time>2023-06-03T07:59:15.317</time></trkpt><trkpt lat="55.8883367" lon="49.2216867"><time>2023-06-03T07:59:17.323</time></trkpt><trkpt lat="55.8883400" lon="49.2217900"><time>2023-06-03T07:59:19.323</time></trkpt><trkpt lat="55.8883517" lon="49.2219033"><time>2023-06-03T07:59:21.320</time></trkpt><trkpt lat="55.8883750" lon="49.2220117"><time>2023-06-03T07:59:23.310</time></trkpt><trkpt lat="55.8883967" lon="49.2221250"><time>2023-06-03T07:59:25.317</time></trkpt><trkpt lat="55.8884117" lon="49.2222300"><time>2023-06-03T07:59:27.323</time></trkpt><trkpt lat="55.8884167" lon="49.2223383"><time>2023-06-03T07:59:29.323</time></trkpt><trkpt lat="55.8884117" lon="49.2224350"><time>2023-06-03T07:59:32.323</time></trkpt><trkpt lat="55.8883950" lon="49.2226000"><time>2023-06-03T07:59:42.327</time></trkpt><trkpt lat="55.8883917" lon="49.2224917"><time>2023-06-03T07:59:55.320</time></trkpt><trkpt lat="55.8883950" lon="49.2224033"><time>2023-06-03T07:59:57.327</time></trkpt><trkpt lat="55.8883933" lon="49.2222883"><time>2023-06-03T07:59:59.327</time></trkpt><trkpt lat="55.8883800" lon="49.2221783"><time>2023-06-03T08:00:01.323</time></trkpt><trkpt lat="55.8883800" lon="49.2220700"><time>2023-06-03T08:00:03.320</time></trkpt><trkpt lat="55.8883717" lon="49.2219883"><time>2023-06-03T08:00:05.323</time></trkpt><trkpt lat="55.8883350" lon="49.2219250"><time>2023-06-03T08:00:08.323</time></trkpt><trkpt lat="55.8883033" lon="49.2217683"><time>2023-06-03T08:00:33.323</time></trkpt><trkpt lat="55.8883300" lon="49.2216983"><time>2023-06-03T08:00:35.303</time></trkpt><trkpt lat="55.8883550" lon="49.2216150"><time>2023-06-03T08:00:37.273</time></trkpt><trkpt lat="55.8883633" lon="49.2215033"><time>2023-06-03T08:00:39.283</time></trkpt><trkpt lat="55.8883533" lon="49.2214117"><time>2023-06-03T08:00:42.347</time></trkpt><trkpt lat="55.8883700" lon="49.2213267"><time>2023-06-03T08:00:44.303</time></trkpt><trkpt lat="55.8883950" lon="49.2212567"><time>2023-06-03T08:00:45.320</time></trkpt><trkpt lat="55.8884167" lon="49.2211400"><time>2023-06-03T08:00:47.293</time></trkpt><trkpt lat="55.8884700" lon="49.2209833"><time>2023-06-03T08:00:49.473</time></trkpt><trkpt lat="55.8884900" lon="49.2208750"><time>2023-06-03T08:00:51.383</time></trkpt><trkpt lat="55.8885067" lon="49.2207750"><time>2023-06-03T08:00:53.320</time></trkpt><trkpt lat="55.8885217" lon="49.2206883"><time>2023-06-03T08:00:55.327</time></trkpt><trkpt lat="55.8885017" lon="49.2205983"><time>2023-06-03T08:00:57.287</time></trkpt><trkpt lat="55.8885000" lon="49.2204550"><time>2023-06-03T08:00:59.323</time></trkpt><trkpt lat="55.8884967" lon="49.2203483"><time>2023-06-03T08:01:01.297</time></trkpt><trkpt lat="55.8884950" lon="49.2202683"><time>2023-06-03T08:01:02.297</time></trkpt><trkpt lat="55.8884950" lon="49.2201333"><time>2023-06-03T08:01:04.287</time></trkpt><trkpt lat="55.8884867" lon="49.2199883"><time>2023-06-03T08:01:06.303</time></trkpt><trkpt lat="55.8884800" lon="49.2198967"><time>2023-06-03T08:01:07.317</time></trkpt><trkpt lat="55.8884717" lon="49.2198000"><time>2023-06-03T08:01:08.323</time></trkpt><trkpt lat="55.8884650" lon="49.2197083"><time>2023-06-03T08:01:09.310</time></trkpt><trkpt lat="55.8884667" lon="49.2196233"><time>2023-06-03T08:01:10.317</time></trkpt><trkpt lat="55.8884717" lon="49.2194750"><time>2023-06-03T08:01:12.313</time></trkpt><trkpt lat="55.8884867" lon="49.2193950"><time>2023-06-03T08:01:13.323</time></trkpt><trkpt lat="55.8885033" lon="49.2193150"><time>2023-06-03T08:01:14.317</time></trkpt><trkpt lat="55.8885233" lon="49.2192383"><time>2023-06-03T08:01:15.300</time></trkpt><trkpt lat="55.8885417" lon="49.2191033"><time>2023-06-03T08:01:17.317</time></trkpt><trkpt lat="55.8885450" lon="49.2189683"><time>2023-06-03T08:01:19.317</time></trkpt><trkpt lat="55.8885433" lon="49.2188467"><time>2023-06-03T08:01:21.320</time></trkpt><trkpt lat="55.8885317" lon="49.2187317"><time>2023-06-03T08:01:23.323</time></trkpt><trkpt lat="55.8885133" lon="49.2186150"><time>2023-06-03T08:01:25.323</time></trkpt><trkpt lat="55.8885117" lon="49.2185033"><time>2023-06-03T08:01:27.323</time></trkpt><trkpt lat="55.8885400" lon="49.2184133"><time>2023-06-03T08:01:29.323</time></trkpt><trkpt lat="55.8885833" lon="49.2183250"><time>2023-06-03T08:01:31.317</time></trkpt><trkpt lat="55.8886417" lon="49.2182300"><time>2023-06-03T08:01:33.323</time></trkpt><trkpt lat="55.8886733" lon="49.2181717"><time>2023-06-03T08:01:34.323</time></trkpt><trkpt lat="55.8887067" lon="49.2181150"><time>2023-06-03T08:01:35.313</time></trkpt><trkpt lat="55.8887750" lon="49.2180233"><time>2023-06-03T08:01:37.317</time></trkpt><trkpt lat="55.8888417" lon="49.2179367"><time>2023-06-03T08:01:39.317</time></trkpt><trkpt lat="55.8888817" lon="49.2178883"><time>2023-06-03T08:01:40.317</time></trkpt><trkpt lat="55.8889167" lon="49.2178367"><time>2023-06-03T08:01:41.310</time></trkpt><trkpt lat="55.8889533" lon="49.2177850"><time>2023-06-03T08:01:42.317</time></trkpt><trkpt lat="55.8890233" lon="49.2176833"><time>2023-06-03T08:01:44.303</time></trkpt><trkpt lat="55.8890650" lon="49.2176400"><time>2023-06-03T08:01:45.310</time></trkpt><trkpt lat="55.8891117" lon="49.2175833"><time>2023-06-03T08:01:46.317</time></trkpt><trkpt lat="55.8891633" lon="49.2175083"><time>2023-06-03T08:01:47.310</time></trkpt><trkpt lat="55.8892067" lon="49.2174383"><time>2023-06-03T08:01:48.320</time></trkpt><trkpt lat="55.8892483" lon="49.2173717"><time>2023-06-03T08:01:49.340</time></trkpt><trkpt lat="55.8895550" lon="49.2171700"><time>2023-06-03T08:01:50.847</time></trkpt><trkpt lat="55.8895317" lon="49.2168750"><time>2023-06-03T08:01:51.337</time></trkpt><trkpt lat="55.8895783" lon="49.2168533"><time>2023-06-03T08:01:57.303</time></trkpt><trkpt lat="55.8896167" lon="49.2168000"><time>2023-06-03T08:01:59.287</time></trkpt><trkpt lat="55.8896867" lon="49.2167117"><time>2023-06-03T08:02:01.300</time></trkpt><trkpt lat="55.8897317" lon="49.2166583"><time>2023-06-03T08:02:02.307</time></trkpt><trkpt lat="55.8897750" lon="49.2166050"><time>2023-06-03T08:02:03.307</time></trkpt><trkpt lat="55.8898400" lon="49.2165083"><time>2023-06-03T08:02:05.307</time></trkpt><trkpt lat="55.8899033" lon="49.2164433"><time>2023-06-03T08:02:07.307</time></trkpt><trkpt lat="55.8899500" lon="49.2163917"><time>2023-06-03T08:02:09.310</time></trkpt><trkpt lat="55.8900033" lon="49.2163283"><time>2023-06-03T08:02:11.327</time></trkpt><trkpt lat="55.8900033" lon="49.2163283"><time>2023-06-03T08:02:12.807</time></trkpt><trkpt lat="55.8900483" lon="49.2162783"><time>2023-06-03T08:02:15.307</time></trkpt><trkpt lat="55.8900917" lon="49.2162167"><time>2023-06-03T08:02:17.307</time></trkpt><trkpt lat="55.8901483" lon="49.2161550"><time>2023-06-03T08:02:19.310</time></trkpt><trkpt lat="55.8901917" lon="49.2160817"><time>2023-06-03T08:02:21.307</time></trkpt><trkpt lat="55.8902433" lon="49.2159750"><time>2023-06-03T08:02:23.310</time></trkpt><trkpt lat="55.8903217" lon="49.2158250"><time>2023-06-03T08:02:25.310</time></trkpt><trkpt lat="55.8903433" lon="49.2157500"><time>2023-06-03T08:02:26.310</time></trkpt><trkpt lat="55.8903850" lon="49.2156283"><time>2023-06-03T08:02:28.310</time></trkpt><trkpt lat="55.8904267" lon="49.2155100"><time>2023-06-03T08:02:30.310</time></trkpt><trkpt lat="55.8904517" lon="49.2154167"><time>2023-06-03T08:02:32.310</time></trkpt><trkpt lat="55.8904633" lon="49.2153317"><time>2023-06-03T08:02:34.307</time></trkpt><trkpt lat="55.8904867" lon="49.2152283"><time>2023-06-03T08:02:36.310</time></trkpt><trkpt lat="55.8905050" lon="49.2151233"><time>2023-06-03T08:02:38.307</time></trkpt><trkpt lat="55.8905183" lon="49.2150200"><time>2023-06-03T08:02:40.310</time></trkpt><trkpt lat="55.8905567" lon="49.2149583"><time>2023-06-03T08:02:44.320</time></trkpt><trkpt lat="55.8905967" lon="49.2149183"><time>2023-06-03T08:02:47.320</time></trkpt><trkpt lat="55.8906250" lon="49.2148517"><time>2023-06-03T08:02:52.317</time></trkpt><trkpt lat="55.8906083" lon="49.2147767"><time>2023-06-03T08:03:01.320</time></trkpt><trkpt lat="55.8905567" lon="49.2147517"><time>2023-06-03T08:03:06.320</time></trkpt><trkpt lat="55.8905167" lon="49.2147917"><time>2023-06-03T08:03:10.307</time></trkpt><trkpt lat="55.8905183" lon="49.2148767"><time>2023-06-03T08:03:14.307</time></trkpt><trkpt lat="55.8905383" lon="49.2149533"><time>2023-06-03T08:03:17.317</time></trkpt><trkpt lat="55.8905667" lon="49.2150383"><time>2023-06-03T08:03:21.327</time></trkpt><trkpt lat="55.8905200" lon="49.2150550"><time>2023-06-03T08:03:34.290</time></trkpt><trkpt lat="55.8904733" lon="49.2150350"><time>2023-06-03T08:03:37.283</time></trkpt><trkpt lat="55.8905233" lon="49.2151100"><time>2023-06-03T08:04:12.317</time></trkpt><trkpt lat="55.8905583" lon="49.2151650"><time>2023-06-03T08:04:14.320</time></trkpt><trkpt lat="55.8905950" lon="49.2152417"><time>2023-06-03T08:04:16.337</time></trkpt><trkpt lat="55.8905950" lon="49.2152417"><time>2023-06-03T08:04:17.323</time></trkpt><trkpt lat="55.8906383" lon="49.2153350"><time>2023-06-03T08:04:19.810</time></trkpt><trkpt lat="55.8906833" lon="49.2154083"><time>2023-06-03T08:04:20.813</time></trkpt><trkpt lat="55.8907100" lon="49.2154783"><time>2023-06-03T08:04:22.310</time></trkpt><trkpt lat="55.8907483" lon="49.2155783"><time>2023-06-03T08:04:24.313</time></trkpt><trkpt lat="55.8907950" lon="49.2156283"><time>2023-06-03T08:04:27.337</time></trkpt><trkpt lat="55.8907950" lon="49.2156283"><time>2023-06-03T08:04:27.517</time></trkpt><trkpt lat="55.8908250" lon="49.2156883"><time>2023-06-03T08:04:30.330</time></trkpt><trkpt lat="55.8908250" lon="49.2156867"><time>2023-06-03T08:04:31.303</time></trkpt><trkpt lat="55.8907767" lon="49.2156367"><time>2023-06-03T08:04:33.803</time></trkpt><trkpt lat="55.8907683" lon="49.2155533"><time>2023-06-03T08:04:40.310</time></trkpt><trkpt lat="55.8908100" lon="49.2155833"><time>2023-06-03T08:04:58.313</time></trkpt><trkpt lat="55.8907717" lon="49.2155267"><time>2023-06-03T08:05:39.323</time></trkpt><trkpt lat="55.8907117" lon="49.2155033"><time>2023-06-03T08:06:33.327</time></trkpt><trkpt lat="55.8906933" lon="49.2154300"><time>2023-06-03T08:06:36.317</time></trkpt><trkpt lat="55.8906700" lon="49.2153417"><time>2023-06-03T08:06:39.303</time></trkpt><trkpt lat="55.8906417" lon="49.2152567"><time>2023-06-03T08:06:42.327</time></trkpt><trkpt lat="55.8906117" lon="49.2151900"><time>2023-06-03T08:06:44.323</time></trkpt><trkpt lat="55.8905767" lon="49.2151333"><time>2023-06-03T08:06:46.323</time></trkpt><trkpt lat="55.8905250" lon="49.2150767"><time>2023-06-03T08:06:49.323</time></trkpt><trkpt lat="55.8904817" lon="49.2151700"><time>2023-06-03T08:06:53.327</time></trkpt><trkpt lat="55.8904717" lon="49.2152900"><time>2023-06-03T08:06:55.323</time></trkpt><trkpt lat="55.8904617" lon="49.2154217"><time>2023-06-03T08:06:57.327</time></trkpt><trkpt lat="55.8904233" lon="49.2155350"><time>2023-06-03T08:06:59.327</time></trkpt><trkpt lat="55.8903767" lon="49.2156300"><time>2023-06-03T08:07:01.327</time></trkpt><trkpt lat="55.8903267" lon="49.2157200"><time>2023-06-03T08:07:03.323</time></trkpt><trkpt lat="55.8902800" lon="49.2157833"><time>2023-06-03T08:07:05.323</time></trkpt><trkpt lat="55.8902250" lon="49.2158533"><time>2023-06-03T08:07:07.327</time></trkpt><trkpt lat="55.8901683" lon="49.2159433"><time>2023-06-03T08:07:09.323</time></trkpt><trkpt lat="55.8901117" lon="49.2160200"><time>2023-06-03T08:07:11.323</time></trkpt><trkpt lat="55.8900517" lon="49.2160950"><time>2023-06-03T08:07:13.327</time></trkpt><trkpt lat="55.8899933" lon="49.2161667"><time>2023-06-03T08:07:15.327</time></trkpt><trkpt lat="55.8899300" lon="49.2162450"><time>2023-06-03T08:07:17.327</time></trkpt><trkpt lat="55.8898667" lon="49.2163333"><time>2023-06-03T08:07:19.327</time></trkpt><trkpt lat="55.8898033" lon="49.2164233"><time>2023-06-03T08:07:21.323</time></trkpt><trkpt lat="55.8897417" lon="49.2165117"><time>2023-06-03T08:07:23.323</time></trkpt><trkpt lat="55.8896783" lon="49.2165983"><time>2023-06-03T08:07:25.327</time></trkpt><trkpt lat="55.8896050" lon="49.2166733"><time>2023-06-03T08:07:27.327</time></trkpt><trkpt lat="55.8895367" lon="49.2167550"><time>2023-06-03T08:07:29.327</time></trkpt><trkpt lat="55.8894800" lon="49.2168167"><time>2023-06-03T08:07:31.327</time></trkpt><trkpt lat="55.8894167" lon="49.2168800"><time>2023-06-03T08:07:33.320</time></trkpt><trkpt lat="55.8893417" lon="49.2169533"><time>2023-06-03T08:07:35.320</time></trkpt><trkpt lat="55.8892700" lon="49.2170333"><time>2023-06-03T08:07:37.323</time></trkpt><trkpt lat="55.8892000" lon="49.2171000"><time>2023-06-03T08:07:39.307</time></trkpt><trkpt lat="55.8891350" lon="49.2171750"><time>2023-06-03T08:07:41.310</time></trkpt><trkpt lat="55.8890800" lon="49.2172533"><time>2023-06-03T08:07:43.313</time></trkpt><trkpt lat="55.8890017" lon="49.2173417"><time>2023-06-03T08:07:45.317</time></trkpt><trkpt lat="55.8889517" lon="49.2174117"><time>2023-06-03T08:07:46.317</time></trkpt><trkpt lat="55.8889150" lon="49.2174583"><time>2023-06-03T08:07:47.307</time></trkpt><trkpt lat="55.8888533" lon="49.2175300"><time>2023-06-03T08:07:49.307</time></trkpt><trkpt lat="55.8887983" lon="49.2176100"><time>2023-06-03T08:07:51.317</time></trkpt><trkpt lat="55.8887467" lon="49.2176850"><time>2023-06-03T08:07:53.303</time></trkpt><trkpt lat="55.8887150" lon="49.2177467"><time>2023-06-03T08:07:54.320</time></trkpt><trkpt lat="55.8886817" lon="49.2178100"><time>2023-06-03T08:07:55.327</time></trkpt><trkpt lat="55.8886450" lon="49.2178733"><time>2023-06-03T08:07:56.323</time></trkpt><trkpt lat="55.8885867" lon="49.2179900"><time>2023-06-03T08:07:58.327</time></trkpt><trkpt lat="55.8885633" lon="49.2181117"><time>2023-06-03T08:08:00.307</time></trkpt><trkpt lat="55.8885650" lon="49.2181967"><time>2023-06-03T08:08:01.317</time></trkpt><trkpt lat="55.8885683" lon="49.2182833"><time>2023-06-03T08:08:02.320</time></trkpt><trkpt lat="55.8885700" lon="49.2183717"><time>2023-06-03T08:08:03.317</time></trkpt><trkpt lat="55.8885633" lon="49.2184650"><time>2023-06-03T08:08:04.297</time></trkpt><trkpt lat="55.8885667" lon="49.2186183"><time>2023-06-03T08:08:06.320</time></trkpt><trkpt lat="55.8885700" lon="49.2187567"><time>2023-06-03T08:08:08.323</time></trkpt><trkpt lat="55.8885483" lon="49.2189067"><time>2023-06-03T08:08:10.327</time></trkpt><trkpt lat="55.8885350" lon="49.2189883"><time>2023-06-03T08:08:11.317</time></trkpt><trkpt lat="55.8885133" lon="49.2190750"><time>2023-06-03T08:08:12.313</time></trkpt><trkpt lat="55.8884983" lon="49.2191650"><time>2023-06-03T08:08:13.323</time></trkpt><trkpt lat="55.8884900" lon="49.2192450"><time>2023-06-03T08:08:14.323</time></trkpt><trkpt lat="55.8884683" lon="49.2194083"><time>2023-06-03T08:08:16.307</time></trkpt><trkpt lat="55.8884667" lon="49.2195317"><time>2023-06-03T08:08:18.317</time></trkpt><trkpt lat="55.8884733" lon="49.2196633"><time>2023-06-03T08:08:20.327</time></trkpt><trkpt lat="55.8884833" lon="49.2197767"><time>2023-06-03T08:08:22.317</time></trkpt><trkpt lat="55.8884850" lon="49.2198983"><time>2023-06-03T08:08:24.317</time></trkpt><trkpt lat="55.8884917" lon="49.2200250"><time>2023-06-03T08:08:26.277</time></trkpt><trkpt lat="55.8884950" lon="49.2201983"><time>2023-06-03T08:08:28.327</time></trkpt><trkpt lat="55.8885000" lon="49.2202783"><time>2023-06-03T08:08:29.327</time></trkpt><trkpt lat="55.8885150" lon="49.2204333"><time>2023-06-03T08:08:31.323</time></trkpt><trkpt lat="55.8885217" lon="49.2205933"><time>2023-06-03T08:08:33.327</time></trkpt><trkpt lat="55.8885133" lon="49.2207583"><time>2023-06-03T08:08:35.317</time></trkpt><trkpt lat="55.8885000" lon="49.2208550"><time>2023-06-03T08:08:36.320</time></trkpt><trkpt lat="55.8884767" lon="49.2209383"><time>2023-06-03T08:08:37.313</time></trkpt><trkpt lat="55.8884500" lon="49.2210100"><time>2023-06-03T08:08:38.323</time></trkpt><trkpt lat="55.8883967" lon="49.2211167"><time>2023-06-03T08:08:40.327</time></trkpt><trkpt lat="55.8883633" lon="49.2212100"><time>2023-06-03T08:08:42.323</time></trkpt><trkpt lat="55.8883700" lon="49.2213150"><time>2023-06-03T08:08:44.320</time></trkpt><trkpt lat="55.8883800" lon="49.2214100"><time>2023-06-03T08:08:46.320</time></trkpt><trkpt lat="55.8883783" lon="49.2215433"><time>2023-06-03T08:08:48.327</time></trkpt><trkpt lat="55.8883733" lon="49.2216833"><time>2023-06-03T08:08:50.300</time></trkpt><trkpt lat="55.8883800" lon="49.2218317"><time>2023-06-03T08:08:52.317</time></trkpt><trkpt lat="55.8883933" lon="49.2219683"><time>2023-06-03T08:08:54.293</time></trkpt><trkpt lat="55.8884083" lon="49.2220983"><time>2023-06-03T08:08:56.320</time></trkpt><trkpt lat="55.8884300" lon="49.2222033"><time>2023-06-03T08:08:58.317</time></trkpt><trkpt lat="55.8884467" lon="49.2223050"><time>2023-06-03T08:09:00.327</time></trkpt><trkpt lat="55.8884483" lon="49.2223850"><time>2023-06-03T08:09:01.323</time></trkpt><trkpt lat="55.8884517" lon="49.2224983"><time>2023-06-03T08:09:02.327</time></trkpt><trkpt lat="55.8884583" lon="49.2226233"><time>2023-06-03T08:09:03.327</time></trkpt><trkpt lat="55.8884633" lon="49.2227300"><time>2023-06-03T08:09:04.320</time></trkpt><trkpt lat="55.8884700" lon="49.2228217"><time>2023-06-03T08:09:05.283</time></trkpt><trkpt lat="55.8884750" lon="49.2229133"><time>2023-06-03T08:09:06.293</time></trkpt><trkpt lat="55.8884750" lon="49.2229950"><time>2023-06-03T08:09:07.320</time></trkpt><trkpt lat="55.8884767" lon="49.2231250"><time>2023-06-03T08:09:09.327</time></trkpt><trkpt lat="55.8884783" lon="49.2232267"><time>2023-06-03T08:09:11.327</time></trkpt><trkpt lat="55.8885000" lon="49.2233017"><time>2023-06-03T08:09:13.317</time></trkpt><trkpt lat="55.8885400" lon="49.2233417"><time>2023-06-03T08:09:15.323</time></trkpt><trkpt lat="55.8885900" lon="49.2233900"><time>2023-06-03T08:09:17.320</time></trkpt><trkpt lat="55.8886450" lon="49.2234250"><time>2023-06-03T08:09:19.323</time></trkpt><trkpt lat="55.8886983" lon="49.2234683"><time>2023-06-03T08:09:21.323</time></trkpt><trkpt lat="55.8887567" lon="49.2235017"><time>2023-06-03T08:09:23.320</time></trkpt><trkpt lat="55.8888100" lon="49.2235533"><time>2023-06-03T08:09:25.323</time></trkpt><trkpt lat="55.8888400" lon="49.2236150"><time>2023-06-03T08:09:28.327</time></trkpt><trkpt lat="55.8889067" lon="49.2236750"><time>2023-06-03T08:11:22.323</time></trkpt><trkpt lat="55.8889817" lon="49.2237283"><time>2023-06-03T08:11:24.327</time></trkpt><trkpt lat="55.8890300" lon="49.2237767"><time>2023-06-03T08:11:26.323</time></trkpt><trkpt lat="55.8890550" lon="49.2238450"><time>2023-06-03T08:11:28.323</time></trkpt><trkpt lat="55.8890317" lon="49.2239450"><time>2023-06-03T08:11:31.307</time></trkpt><trkpt lat="55.8889900" lon="49.2240550"><time>2023-06-03T08:11:33.313</time></trkpt><trkpt lat="55.8889433" lon="49.2241733"><time>2023-06-03T08:11:35.313</time></trkpt><trkpt lat="55.8888967" lon="49.2243017"><time>2023-06-03T08:11:37.317</time></trkpt><trkpt lat="55.8888717" lon="49.2243717"><time>2023-06-03T08:11:38.320</time></trkpt><trkpt lat="55.8888450" lon="49.2244433"><time>2023-06-03T08:11:39.320</time></trkpt><trkpt lat="55.8888017" lon="49.2245567"><time>2023-06-03T08:11:41.287</time></trkpt><trkpt lat="55.8887567" lon="49.2246883"><time>2023-06-03T08:11:43.320</time></trkpt><trkpt lat="55.8887100" lon="49.2248100"><time>2023-06-03T08:11:45.323</time></trkpt><trkpt lat="55.8886683" lon="49.2249117"><time>2023-06-03T08:11:47.323</time></trkpt><trkpt lat="55.8886250" lon="49.2249983"><time>2023-06-03T08:11:49.477</time></trkpt><trkpt lat="55.8885933" lon="49.2250550"><time>2023-06-03T08:11:51.333</time></trkpt><trkpt lat="55.8885817" lon="49.2251450"><time>2023-06-03T08:11:53.303</time></trkpt><trkpt lat="55.8885317" lon="49.2252450"><time>2023-06-03T08:11:55.287</time></trkpt><trkpt lat="55.8885117" lon="49.2253533"><time>2023-06-03T08:11:56.277</time></trkpt><trkpt lat="55.8885083" lon="49.2254767"><time>2023-06-03T08:11:57.307</time></trkpt><trkpt lat="55.8885000" lon="49.2255817"><time>2023-06-03T08:11:58.317</time></trkpt><trkpt lat="55.8884817" lon="49.2256683"><time>2023-06-03T08:11:59.300</time></trkpt><trkpt lat="55.8884600" lon="49.2257533"><time>2023-06-03T08:12:00.317</time></trkpt><trkpt lat="55.8884433" lon="49.2258317"><time>2023-06-03T08:12:01.320</time></trkpt><trkpt lat="55.8884200" lon="49.2259100"><time>2023-06-03T08:12:02.313</time></trkpt><trkpt lat="55.8883967" lon="49.2259900"><time>2023-06-03T08:12:03.323</time></trkpt><trkpt lat="55.8883700" lon="49.2260667"><time>2023-06-03T08:12:04.317</time></trkpt><trkpt lat="55.8883450" lon="49.2261400"><time>2023-06-03T08:12:05.323</time></trkpt><trkpt lat="55.8883200" lon="49.2262117"><time>2023-06-03T08:12:06.290</time></trkpt><trkpt lat="55.8882950" lon="49.2262850"><time>2023-06-03T08:12:07.313</time></trkpt><trkpt lat="55.8882700" lon="49.2263633"><time>2023-06-03T08:12:08.317</time></trkpt><trkpt lat="55.8882417" lon="49.2264500"><time>2023-06-03T08:12:09.293</time></trkpt><trkpt lat="55.8882067" lon="49.2265417"><time>2023-06-03T08:12:10.310</time></trkpt><trkpt lat="55.8881783" lon="49.2266267"><time>2023-06-03T08:12:11.320</time></trkpt><trkpt lat="55.8881500" lon="49.2267067"><time>2023-06-03T08:12:12.317</time></trkpt><trkpt lat="55.8881217" lon="49.2267817"><time>2023-06-03T08:12:13.300</time></trkpt><trkpt lat="55.8880933" lon="49.2268633"><time>2023-06-03T08:12:14.327</time></trkpt><trkpt lat="55.8880683" lon="49.2269483"><time>2023-06-03T08:12:15.327</time></trkpt><trkpt lat="55.8880400" lon="49.2270400"><time>2023-06-03T08:12:16.327</time></trkpt><trkpt lat="55.8880117" lon="49.2271250"><time>2023-06-03T08:12:17.327</time></trkpt><trkpt lat="55.8879817" lon="49.2272100"><time>2023-06-03T08:12:18.313</time></trkpt><trkpt lat="55.8879483" lon="49.2272983"><time>2023-06-03T08:12:19.327</time></trkpt><trkpt lat="55.8879167" lon="49.2273917"><time>2023-06-03T08:12:20.327</time></trkpt><trkpt lat="55.8878867" lon="49.2274800"><time>2023-06-03T08:12:21.323</time></trkpt><trkpt lat="55.8878583" lon="49.2275700"><time>2023-06-03T08:12:22.327</time></trkpt><trkpt lat="55.8878317" lon="49.2276517"><time>2023-06-03T08:12:23.327</time></trkpt><trkpt lat="55.8878033" lon="49.2277283"><time>2023-06-03T08:12:24.327</time></trkpt><trkpt lat="55.8877800" lon="49.2278150"><time>2023-06-03T08:12:25.323</time></trkpt><trkpt lat="55.8877533" lon="49.2278983"><time>2023-06-03T08:12:26.327</time></trkpt><trkpt lat="55.8877233" lon="49.2279767"><time>2023-06-03T08:12:27.327</time></trkpt><trkpt lat="55.8876950" lon="49.2280583"><time>2023-06-03T08:12:28.323</time></trkpt><trkpt lat="55.8876633" lon="49.2281450"><time>2023-06-03T08:12:29.320</time></trkpt><trkpt lat="55.8876350" lon="49.2282300"><time>2023-06-03T08:12:30.323</time></trkpt><trkpt lat="55.8876017" lon="49.2283100"><time>2023-06-03T08:12:31.320</time></trkpt><trkpt lat="55.8875750" lon="49.2283883"><time>2023-06-03T08:12:32.310</time></trkpt><trkpt lat="55.8875450" lon="49.2284650"><time>2023-06-03T08:12:33.320</time></trkpt><trkpt lat="55.8875133" lon="49.2285283"><time>2023-06-03T08:12:34.320</time></trkpt><trkpt lat="55.8874867" lon="49.2286083"><time>2023-06-03T08:12:35.320</time></trkpt><trkpt lat="55.8874650" lon="49.2286850"><time>2023-06-03T08:12:36.320</time></trkpt><trkpt lat="55.8874433" lon="49.2287583"><time>2023-06-03T08:12:37.320</time></trkpt><trkpt lat="55.8874200" lon="49.2288367"><time>2023-06-03T08:12:38.320</time></trkpt><trkpt lat="55.8874000" lon="49.2289100"><time>2023-06-03T08:12:39.320</time></trkpt><trkpt lat="55.8873817" lon="49.2289883"><time>2023-06-03T08:12:40.317</time></trkpt><trkpt lat="55.8873550" lon="49.2290583"><time>2023-06-03T08:12:41.320</time></trkpt><trkpt lat="55.8873233" lon="49.2291267"><time>2023-06-03T08:12:42.320</time></trkpt><trkpt lat="55.8872917" lon="49.2291950"><time>2023-06-03T08:12:43.320</time></trkpt><trkpt lat="55.8872667" lon="49.2292767"><time>2023-06-03T08:12:44.320</time></trkpt><trkpt lat="55.8872383" lon="49.2293617"><time>2023-06-03T08:12:45.323</time></trkpt><trkpt lat="55.8872117" lon="49.2294433"><time>2023-06-03T08:12:46.317</time></trkpt><trkpt lat="55.8871900" lon="49.2295283"><time>2023-06-03T08:12:47.320</time></trkpt><trkpt lat="55.8871633" lon="49.2296167"><time>2023-06-03T08:12:48.307</time></trkpt><trkpt lat="55.8871367" lon="49.2297067"><time>2023-06-03T08:12:49.320</time></trkpt><trkpt lat="55.8871100" lon="49.2298067"><time>2023-06-03T08:12:50.323</time></trkpt><trkpt lat="55.8870833" lon="49.2299000"><time>2023-06-03T08:12:51.323</time></trkpt><trkpt lat="55.8870533" lon="49.2299717"><time>2023-06-03T08:12:52.323</time></trkpt><trkpt lat="55.8870167" lon="49.2300350"><time>2023-06-03T08:12:53.323</time></trkpt><trkpt lat="55.8869750" lon="49.2300850"><time>2023-06-03T08:12:54.323</time></trkpt><trkpt lat="55.8869300" lon="49.2301417"><time>2023-06-03T08:12:55.313</time></trkpt><trkpt lat="55.8868833" lon="49.2301733"><time>2023-06-03T08:12:56.297</time></trkpt><trkpt lat="55.8868333" lon="49.2302000"><time>2023-06-03T08:12:57.303</time></trkpt><trkpt lat="55.8867817" lon="49.2302250"><time>2023-06-03T08:12:58.317</time></trkpt><trkpt lat="55.8867267" lon="49.2302433"><time>2023-06-03T08:12:59.317</time></trkpt><trkpt lat="55.8866750" lon="49.2302617"><time>2023-06-03T08:13:00.323</time></trkpt><trkpt lat="55.8866217" lon="49.2302917"><time>2023-06-03T08:13:01.323</time></trkpt><trkpt lat="55.8865700" lon="49.2303333"><time>2023-06-03T08:13:02.307</time></trkpt><trkpt lat="55.8865183" lon="49.2303917"><time>2023-06-03T08:13:03.323</time></trkpt><trkpt lat="55.8864733" lon="49.2304583"><time>2023-06-03T08:13:04.320</time></trkpt><trkpt lat="55.8864333" lon="49.2305300"><time>2023-06-03T08:13:05.317</time></trkpt><trkpt lat="55.8864050" lon="49.2306250"><time>2023-06-03T08:13:06.317</time></trkpt><trkpt lat="55.8863833" lon="49.2307183"><time>2023-06-03T08:13:07.320</time></trkpt><trkpt lat="55.8863667" lon="49.2308217"><time>2023-06-03T08:13:08.320</time></trkpt><trkpt lat="55.8863550" lon="49.2309283"><time>2023-06-03T08:13:09.293</time></trkpt><trkpt lat="55.8863433" lon="49.2310367"><time>2023-06-03T08:13:10.307</time></trkpt><trkpt lat="55.8863350" lon="49.2311517"><time>2023-06-03T08:13:11.313</time></trkpt><trkpt lat="55.8863217" lon="49.2312583"><time>2023-06-03T08:13:12.323</time></trkpt><trkpt lat="55.8863083" lon="49.2313533"><time>2023-06-03T08:13:13.300</time></trkpt><trkpt lat="55.8862950" lon="49.2314533"><time>2023-06-03T08:13:14.317</time></trkpt><trkpt lat="55.8862883" lon="49.2315450"><time>2023-06-03T08:13:15.303</time></trkpt><trkpt lat="55.8862783" lon="49.2316600"><time>2023-06-03T08:13:16.313</time></trkpt><trkpt lat="55.8862633" lon="49.2317767"><time>2023-06-03T08:13:17.320</time></trkpt><trkpt lat="55.8862383" lon="49.2318833"><time>2023-06-03T08:13:18.323</time></trkpt><trkpt lat="55.8862083" lon="49.2319933"><time>2023-06-03T08:13:19.327</time></trkpt><trkpt lat="55.8861900" lon="49.2320983"><time>2023-06-03T08:13:20.327</time></trkpt><trkpt lat="55.8861650" lon="49.2321900"><time>2023-06-03T08:13:21.327</time></trkpt><trkpt lat="55.8861383" lon="49.2322767"><time>2023-06-03T08:13:22.327</time></trkpt><trkpt lat="55.8861117" lon="49.2323683"><time>2023-06-03T08:13:23.327</time></trkpt><trkpt lat="55.8860800" lon="49.2324600"><time>2023-06-03T08:13:24.323</time></trkpt><trkpt lat="55.8860400" lon="49.2325550"><time>2023-06-03T08:13:25.327</time></trkpt><trkpt lat="55.8860050" lon="49.2326550"><time>2023-06-03T08:13:26.340</time></trkpt><trkpt lat="55.8859683" lon="49.2327533"><time>2023-06-03T08:13:27.310</time></trkpt><trkpt lat="55.8859383" lon="49.2328500"><time>2023-06-03T08:13:28.320</time></trkpt><trkpt lat="55.8859033" lon="49.2329450"><time>2023-06-03T08:13:29.327</time></trkpt><trkpt lat="55.8858667" lon="49.2330367"><time>2023-06-03T08:13:30.327</time></trkpt><trkpt lat="55.8858300" lon="49.2331283"><time>2023-06-03T08:13:31.327</time></trkpt><trkpt lat="55.8857967" lon="49.2332150"><time>2023-06-03T08:13:32.327</time></trkpt><trkpt lat="55.8857650" lon="49.2333017"><time>2023-06-03T08:13:33.327</time></trkpt><trkpt lat="55.8857300" lon="49.2333917"><time>2023-06-03T08:13:34.327</time></trkpt><trkpt lat="55.8856950" lon="49.2334800"><time>2023-06-03T08:13:35.317</time></trkpt><trkpt lat="55.8856600" lon="49.2335683"><time>2023-06-03T08:13:36.327</time></trkpt><trkpt lat="55.8856283" lon="49.2336567"><time>2023-06-03T08:13:37.327</time></trkpt><trkpt lat="55.8855950" lon="49.2337450"><time>2023-06-03T08:13:38.327</time></trkpt><trkpt lat="55.8855650" lon="49.2338333"><time>2023-06-03T08:13:39.327</time></trkpt><trkpt lat="55.8855300" lon="49.2339233"><time>2023-06-03T08:13:40.327</time></trkpt><trkpt lat="55.8854967" lon="49.2340133"><time>2023-06-03T08:13:41.327</time></trkpt><trkpt lat="55.8854650" lon="49.2341000"><time>2023-06-03T08:13:42.330</time></trkpt><trkpt lat="55.8854333" lon="49.2341833"><time>2023-06-03T08:13:43.327</time></trkpt><trkpt lat="55.8854033" lon="49.2342700"><time>2023-06-03T08:13:44.327</time></trkpt><trkpt lat="55.8853700" lon="49.2343533"><time>2023-06-03T08:13:45.327</time></trkpt><trkpt lat="55.8853350" lon="49.2344367"><time>2023-06-03T08:13:46.327</time></trkpt><trkpt lat="55.8852983" lon="49.2345233"><time>2023-06-03T08:13:47.327</time></trkpt><trkpt lat="55.8852617" lon="49.2346067"><time>2023-06-03T08:13:48.327</time></trkpt><trkpt lat="55.8852250" lon="49.2346900"><time>2023-06-03T08:13:49.307</time></trkpt><trkpt lat="55.8851900" lon="49.2347650"><time>2023-06-03T08:13:50.327</time></trkpt><trkpt lat="55.8851533" lon="49.2348417"><time>2023-06-03T08:13:51.327</time></trkpt><trkpt lat="55.8851167" lon="49.2349167"><time>2023-06-03T08:13:52.337</time></trkpt><trkpt lat="55.8850833" lon="49.2349917"><time>2023-06-03T08:13:53.323</time></trkpt><trkpt lat="55.8850500" lon="49.2350667"><time>2023-06-03T08:13:54.323</time></trkpt><trkpt lat="55.8850200" lon="49.2351450"><time>2023-06-03T08:13:55.327</time></trkpt><trkpt lat="55.8849933" lon="49.2352200"><time>2023-06-03T08:13:56.313</time></trkpt><trkpt lat="55.8849683" lon="49.2352950"><time>2023-06-03T08:13:57.327</time></trkpt><trkpt lat="55.8849500" lon="49.2353717"><time>2023-06-03T08:13:58.323</time></trkpt><trkpt lat="55.8849333" lon="49.2354500"><time>2023-06-03T08:13:59.327</time></trkpt><trkpt lat="55.8849183" lon="49.2355267"><time>2023-06-03T08:14:00.327</time></trkpt><trkpt lat="55.8849100" lon="49.2356083"><time>2023-06-03T08:14:01.327</time></trkpt><trkpt lat="55.8849067" lon="49.2356883"><time>2023-06-03T08:14:02.327</time></trkpt><trkpt lat="55.8849067" lon="49.2358533"><time>2023-06-03T08:14:04.327</time></trkpt><trkpt lat="55.8849117" lon="49.2359450"><time>2023-06-03T08:14:05.323</time></trkpt><trkpt lat="55.8849250" lon="49.2360300"><time>2023-06-03T08:14:06.327</time></trkpt><trkpt lat="55.8849433" lon="49.2361133"><time>2023-06-03T08:14:07.327</time></trkpt><trkpt lat="55.8849633" lon="49.2362000"><time>2023-06-03T08:14:08.327</time></trkpt><trkpt lat="55.8849900" lon="49.2362733"><time>2023-06-03T08:14:09.327</time></trkpt><trkpt lat="55.8850200" lon="49.2363433"><time>2023-06-03T08:14:10.323</time></trkpt><trkpt lat="55.8850550" lon="49.2363983"><time>2023-06-03T08:14:11.323</time></trkpt><trkpt lat="55.8851317" lon="49.2364900"><time>2023-06-03T08:14:13.310</time></trkpt><trkpt lat="55.8851783" lon="49.2365367"><time>2023-06-03T08:14:14.307</time></trkpt><trkpt lat="55.8852250" lon="49.2365767"><time>2023-06-03T08:14:15.280</time></trkpt><trkpt lat="55.8852800" lon="49.2366150"><time>2023-06-03T08:14:16.307</time></trkpt><trkpt lat="55.8853317" lon="49.2366300"><time>2023-06-03T08:14:17.307</time></trkpt><trkpt lat="55.8853933" lon="49.2365950"><time>2023-06-03T08:14:19.317</time></trkpt><trkpt lat="55.8854500" lon="49.2365450"><time>2023-06-03T08:14:21.317</time></trkpt><trkpt lat="55.8854983" lon="49.2364900"><time>2023-06-03T08:14:22.320</time></trkpt><trkpt lat="55.8855383" lon="49.2364500"><time>2023-06-03T08:14:23.323</time></trkpt><trkpt lat="55.8855750" lon="49.2364033"><time>2023-06-03T08:14:24.323</time></trkpt><trkpt lat="55.8856383" lon="49.2363150"><time>2023-06-03T08:14:26.303</time></trkpt><trkpt lat="55.8856767" lon="49.2362550"><time>2023-06-03T08:14:28.323</time></trkpt><trkpt lat="55.8857267" lon="49.2361550"><time>2023-06-03T08:14:31.317</time></trkpt><trkpt lat="55.8857767" lon="49.2360333"><time>2023-06-03T08:14:33.317</time></trkpt><trkpt lat="55.8858067" lon="49.2359600"><time>2023-06-03T08:14:34.317</time></trkpt><trkpt lat="55.8858400" lon="49.2358500"><time>2023-06-03T08:14:35.333</time></trkpt><trkpt lat="55.8858733" lon="49.2357467"><time>2023-06-03T08:14:36.320</time></trkpt><trkpt lat="55.8859000" lon="49.2356633"><time>2023-06-03T08:14:37.317</time></trkpt><trkpt lat="55.8859233" lon="49.2355833"><time>2023-06-03T08:14:38.307</time></trkpt><trkpt lat="55.8859433" lon="49.2355100"><time>2023-06-03T08:14:39.307</time></trkpt><trkpt lat="55.8859650" lon="49.2354383"><time>2023-06-03T08:14:40.313</time></trkpt><trkpt lat="55.8859883" lon="49.2353667"><time>2023-06-03T08:14:41.320</time></trkpt><trkpt lat="55.8860117" lon="49.2352967"><time>2023-06-03T08:14:42.327</time></trkpt><trkpt lat="55.8860367" lon="49.2352217"><time>2023-06-03T08:14:43.320</time></trkpt><trkpt lat="55.8860633" lon="49.2351467"><time>2023-06-03T08:14:44.313</time></trkpt><trkpt lat="55.8861167" lon="49.2350100"><time>2023-06-03T08:14:46.323</time></trkpt><trkpt lat="55.8861367" lon="49.2349317"><time>2023-06-03T08:14:47.320</time></trkpt><trkpt lat="55.8861617" lon="49.2348450"><time>2023-06-03T08:14:48.327</time></trkpt><trkpt lat="55.8861850" lon="49.2347567"><time>2023-06-03T08:14:49.317</time></trkpt><trkpt lat="55.8862100" lon="49.2346683"><time>2023-06-03T08:14:50.323</time></trkpt><trkpt lat="55.8862267" lon="49.2345883"><time>2023-06-03T08:14:51.320</time></trkpt><trkpt lat="55.8862500" lon="49.2345117"><time>2023-06-03T08:14:52.323</time></trkpt><trkpt lat="55.8862783" lon="49.2344383"><time>2023-06-03T08:14:53.323</time></trkpt><trkpt lat="55.8863100" lon="49.2343667"><time>2023-06-03T08:14:54.323</time></trkpt><trkpt lat="55.8863417" lon="49.2342950"><time>2023-06-03T08:14:55.323</time></trkpt><trkpt lat="55.8863750" lon="49.2342217"><time>2023-06-03T08:14:56.327</time></trkpt><trkpt lat="55.8864117" lon="49.2341500"><time>2023-06-03T08:14:57.323</time></trkpt><trkpt lat="55.8864450" lon="49.2340783"><time>2023-06-03T08:14:58.323</time></trkpt><trkpt lat="55.8864867" lon="49.2340067"><time>2023-06-03T08:14:59.327</time></trkpt><trkpt lat="55.8865300" lon="49.2339433"><time>2023-06-03T08:15:00.317</time></trkpt><trkpt lat="55.8865717" lon="49.2338800"><time>2023-06-03T08:15:01.323</time></trkpt><trkpt lat="55.8866117" lon="49.2338133"><time>2023-06-03T08:15:02.323</time></trkpt><trkpt lat="55.8866550" lon="49.2337467"><time>2023-06-03T08:15:03.317</time></trkpt><trkpt lat="55.8867017" lon="49.2336767"><time>2023-06-03T08:15:04.323</time></trkpt><trkpt lat="55.8867517" lon="49.2336067"><time>2023-06-03T08:15:05.320</time></trkpt><trkpt lat="55.8867983" lon="49.2335500"><time>2023-06-03T08:15:06.327</time></trkpt><trkpt lat="55.8868450" lon="49.2335033"><time>2023-06-03T08:15:07.323</time></trkpt><trkpt lat="55.8868917" lon="49.2334533"><time>2023-06-03T08:15:08.327</time></trkpt><trkpt lat="55.8869400" lon="49.2333983"><time>2023-06-03T08:15:09.320</time></trkpt><trkpt lat="55.8869900" lon="49.2333467"><time>2023-06-03T08:15:10.320</time></trkpt><trkpt lat="55.8870400" lon="49.2332983"><time>2023-06-03T08:15:11.320</time></trkpt><trkpt lat="55.8870900" lon="49.2332500"><time>2023-06-03T08:15:12.323</time></trkpt><trkpt lat="55.8871400" lon="49.2332033"><time>2023-06-03T08:15:13.317</time></trkpt><trkpt lat="55.8871867" lon="49.2331617"><time>2023-06-03T08:15:14.327</time></trkpt><trkpt lat="55.8872367" lon="49.2331067"><time>2023-06-03T08:15:15.323</time></trkpt><trkpt lat="55.8872817" lon="49.2330533"><time>2023-06-03T08:15:16.327</time></trkpt><trkpt lat="55.8873283" lon="49.2330017"><time>2023-06-03T08:15:17.320</time></trkpt><trkpt lat="55.8873767" lon="49.2329450"><time>2023-06-03T08:15:18.320</time></trkpt><trkpt lat="55.8874217" lon="49.2328733"><time>2023-06-03T08:15:19.320</time></trkpt><trkpt lat="55.8874650" lon="49.2327950"><time>2023-06-03T08:15:20.320</time></trkpt><trkpt lat="55.8875050" lon="49.2327117"><time>2023-06-03T08:15:21.320</time></trkpt><trkpt lat="55.8875283" lon="49.2326300"><time>2023-06-03T08:15:22.320</time></trkpt><trkpt lat="55.8875433" lon="49.2325367"><time>2023-06-03T08:15:23.323</time></trkpt><trkpt lat="55.8875500" lon="49.2324483"><time>2023-06-03T08:15:24.320</time></trkpt><trkpt lat="55.8875517" lon="49.2323583"><time>2023-06-03T08:15:25.320</time></trkpt><trkpt lat="55.8875500" lon="49.2322700"><time>2023-06-03T08:15:26.320</time></trkpt><trkpt lat="55.8875517" lon="49.2321900"><time>2023-06-03T08:15:27.320</time></trkpt><trkpt lat="55.8875983" lon="49.2320383"><time>2023-06-03T08:15:29.320</time></trkpt><trkpt lat="55.8876283" lon="49.2319383"><time>2023-06-03T08:15:30.320</time></trkpt><trkpt lat="55.8876550" lon="49.2318517"><time>2023-06-03T08:15:31.320</time></trkpt><trkpt lat="55.8876817" lon="49.2317683"><time>2023-06-03T08:15:32.317</time></trkpt><trkpt lat="55.8877050" lon="49.2316817"><time>2023-06-03T08:15:33.317</time></trkpt><trkpt lat="55.8877267" lon="49.2315983"><time>2023-06-03T08:15:34.317</time></trkpt><trkpt lat="55.8877617" lon="49.2314800"><time>2023-06-03T08:15:36.290</time></trkpt><trkpt lat="55.8877950" lon="49.2314050"><time>2023-06-03T08:15:38.323</time></trkpt><trkpt lat="55.8878283" lon="49.2313250"><time>2023-06-03T08:15:40.323</time></trkpt><trkpt lat="55.8878567" lon="49.2312167"><time>2023-06-03T08:15:42.307</time></trkpt><trkpt lat="55.8878900" lon="49.2310767"><time>2023-06-03T08:15:51.313</time></trkpt><trkpt lat="55.8879067" lon="49.2309767"><time>2023-06-03T08:15:53.317</time></trkpt><trkpt lat="55.8879333" lon="49.2308517"><time>2023-06-03T08:15:55.320</time></trkpt><trkpt lat="55.8879717" lon="49.2307117"><time>2023-06-03T08:15:57.320</time></trkpt><trkpt lat="55.8879950" lon="49.2306383"><time>2023-06-03T08:15:58.297</time></trkpt><trkpt lat="55.8880217" lon="49.2305633"><time>2023-06-03T08:15:59.317</time></trkpt><trkpt lat="55.8880500" lon="49.2304867"><time>2023-06-03T08:16:00.317</time></trkpt><trkpt lat="55.8880767" lon="49.2304083"><time>2023-06-03T08:16:01.317</time></trkpt><trkpt lat="55.8881067" lon="49.2303350"><time>2023-06-03T08:16:02.320</time></trkpt><trkpt lat="55.8881400" lon="49.2302567"><time>2023-06-03T08:16:03.320</time></trkpt><trkpt lat="55.8881733" lon="49.2301783"><time>2023-06-03T08:16:04.320</time></trkpt><trkpt lat="55.8882033" lon="49.2300983"><time>2023-06-03T08:16:05.323</time></trkpt><trkpt lat="55.8882350" lon="49.2300233"><time>2023-06-03T08:16:06.320</time></trkpt><trkpt lat="55.8882683" lon="49.2299433"><time>2023-06-03T08:16:07.317</time></trkpt><trkpt lat="55.8883017" lon="49.2298583"><time>2023-06-03T08:16:08.320</time></trkpt><trkpt lat="55.8883333" lon="49.2297700"><time>2023-06-03T08:16:09.320</time></trkpt><trkpt lat="55.8883667" lon="49.2296833"><time>2023-06-03T08:16:10.317</time></trkpt><trkpt lat="55.8883950" lon="49.2296000"><time>2023-06-03T08:16:11.320</time></trkpt><trkpt lat="55.8884250" lon="49.2295183"><time>2023-06-03T08:16:12.320</time></trkpt><trkpt lat="55.8884550" lon="49.2294350"><time>2023-06-03T08:16:13.323</time></trkpt><trkpt lat="55.8884867" lon="49.2293467"><time>2023-06-03T08:16:14.323</time></trkpt><trkpt lat="55.8885233" lon="49.2292567"><time>2023-06-03T08:16:15.327</time></trkpt><trkpt lat="55.8885533" lon="49.2291683"><time>2023-06-03T08:16:16.323</time></trkpt><trkpt lat="55.8885833" lon="49.2290800"><time>2023-06-03T08:16:17.320</time></trkpt><trkpt lat="55.8886150" lon="49.2289967"><time>2023-06-03T08:16:18.317</time></trkpt><trkpt lat="55.8886500" lon="49.2289133"><time>2023-06-03T08:16:19.307</time></trkpt><trkpt lat="55.8886867" lon="49.2288350"><time>2023-06-03T08:16:20.320</time></trkpt><trkpt lat="55.8887233" lon="49.2287567"><time>2023-06-03T08:16:21.320</time></trkpt><trkpt lat="55.8887617" lon="49.2286783"><time>2023-06-03T08:16:22.320</time></trkpt><trkpt lat="55.8888017" lon="49.2285983"><time>2023-06-03T08:16:23.300</time></trkpt><trkpt lat="55.8888417" lon="49.2285167"><time>2023-06-03T08:16:24.310</time></trkpt><trkpt lat="55.8888817" lon="49.2284333"><time>2023-06-03T08:16:25.317</time></trkpt><trkpt lat="55.8889217" lon="49.2283533"><time>2023-06-03T08:16:26.320</time></trkpt><trkpt lat="55.8889600" lon="49.2282767"><time>2023-06-03T08:16:27.317</time></trkpt><trkpt lat="55.8889983" lon="49.2281967"><time>2023-06-03T08:16:28.323</time></trkpt><trkpt lat="55.8890350" lon="49.2281200"><time>2023-06-03T08:16:29.327</time></trkpt><trkpt lat="55.8890717" lon="49.2280467"><time>2023-06-03T08:16:30.323</time></trkpt><trkpt lat="55.8891100" lon="49.2279717"><time>2023-06-03T08:16:31.283</time></trkpt><trkpt lat="55.8891450" lon="49.2278967"><time>2023-06-03T08:16:32.307</time></trkpt><trkpt lat="55.8891783" lon="49.2278233"><time>2023-06-03T08:16:33.317</time></trkpt><trkpt lat="55.8892100" lon="49.2277450"><time>2023-06-03T08:16:34.317</time></trkpt><trkpt lat="55.8892400" lon="49.2276667"><time>2023-06-03T08:16:35.317</time></trkpt><trkpt lat="55.8892667" lon="49.2275900"><time>2023-06-03T08:16:36.300</time></trkpt><trkpt lat="55.8892933" lon="49.2275067"><time>2023-06-03T08:16:37.313</time></trkpt><trkpt lat="55.8893133" lon="49.2274300"><time>2023-06-03T08:16:38.323</time></trkpt><trkpt lat="55.8893350" lon="49.2273517"><time>2023-06-03T08:16:39.320</time></trkpt><trkpt lat="55.8893567" lon="49.2272717"><time>2023-06-03T08:16:40.323</time></trkpt><trkpt lat="55.8893800" lon="49.2271933"><time>2023-06-03T08:16:41.323</time></trkpt><trkpt lat="55.8893983" lon="49.2271150"><time>2023-06-03T08:16:42.320</time></trkpt><trkpt lat="55.8894133" lon="49.2270350"><time>2023-06-03T08:16:43.323</time></trkpt><trkpt lat="55.8894183" lon="49.2269517"><time>2023-06-03T08:16:44.323</time></trkpt><trkpt lat="55.8894200" lon="49.2268700"><time>2023-06-03T08:16:45.320</time></trkpt><trkpt lat="55.8894233" lon="49.2267217"><time>2023-06-03T08:16:47.320</time></trkpt><trkpt lat="55.8894250" lon="49.2265667"><time>2023-06-03T08:16:49.320</time></trkpt><trkpt lat="55.8894267" lon="49.2264183"><time>2023-06-03T08:16:51.317</time></trkpt><trkpt lat="55.8894317" lon="49.2263367"><time>2023-06-03T08:16:52.317</time></trkpt><trkpt lat="55.8894600" lon="49.2261900"><time>2023-06-03T08:16:54.320</time></trkpt><trkpt lat="55.8894750" lon="49.2261083"><time>2023-06-03T08:16:55.317</time></trkpt><trkpt lat="55.8894950" lon="49.2260300"><time>2023-06-03T08:16:56.320</time></trkpt><trkpt lat="55.8895167" lon="49.2259467"><time>2023-06-03T08:16:57.320</time></trkpt><trkpt lat="55.8895383" lon="49.2258650"><time>2023-06-03T08:16:58.317</time></trkpt><trkpt lat="55.8895633" lon="49.2257833"><time>2023-06-03T08:16:59.320</time></trkpt><trkpt lat="55.8895900" lon="49.2257017"><time>2023-06-03T08:17:00.320</time></trkpt><trkpt lat="55.8896150" lon="49.2256250"><time>2023-06-03T08:17:01.323</time></trkpt><trkpt lat="55.8896400" lon="49.2255517"><time>2023-06-03T08:17:02.320</time></trkpt><trkpt lat="55.8896633" lon="49.2254733"><time>2023-06-03T08:17:03.320</time></trkpt><trkpt lat="55.8896867" lon="49.2254000"><time>2023-06-03T08:17:04.317</time></trkpt><trkpt lat="55.8897117" lon="49.2253233"><time>2023-06-03T08:17:05.313</time></trkpt><trkpt lat="55.8897400" lon="49.2252467"><time>2023-06-03T08:17:06.317</time></trkpt><trkpt lat="55.8897683" lon="49.2251750"><time>2023-06-03T08:17:07.317</time></trkpt><trkpt lat="55.8897967" lon="49.2251033"><time>2023-06-03T08:17:08.323</time></trkpt><trkpt lat="55.8898233" lon="49.2250317"><time>2023-06-03T08:17:09.310</time></trkpt><trkpt lat="55.8898650" lon="49.2249067"><time>2023-06-03T08:17:11.320</time></trkpt><trkpt lat="55.8898783" lon="49.2247617"><time>2023-06-03T08:17:13.310</time></trkpt><trkpt lat="55.8898700" lon="49.2246233"><time>2023-06-03T08:17:15.317</time></trkpt><trkpt lat="55.8898550" lon="49.2245067"><time>2023-06-03T08:17:17.317</time></trkpt><trkpt lat="55.8898600" lon="49.2243883"><time>2023-06-03T08:17:19.317</time></trkpt><trkpt lat="55.8898617" lon="49.2242533"><time>2023-06-03T08:17:21.320</time></trkpt><trkpt lat="55.8898633" lon="49.2241067"><time>2023-06-03T08:17:23.317</time></trkpt><trkpt lat="55.8898917" lon="49.2239900"><time>2023-06-03T08:17:25.307</time></trkpt><trkpt lat="55.8899483" lon="49.2239150"><time>2023-06-03T08:17:27.323</time></trkpt><trkpt lat="55.8900183" lon="49.2238533"><time>2023-06-03T08:17:29.320</time></trkpt><trkpt lat="55.8900600" lon="49.2238233"><time>2023-06-03T08:17:30.323</time></trkpt><trkpt lat="55.8901000" lon="49.2237867"><time>2023-06-03T08:17:31.320</time></trkpt><trkpt lat="55.8901400" lon="49.2237500"><time>2023-06-03T08:17:32.327</time></trkpt><trkpt lat="55.8902167" lon="49.2236733"><time>2023-06-03T08:17:34.323</time></trkpt><trkpt lat="55.8903017" lon="49.2236183"><time>2023-06-03T08:17:36.303</time></trkpt><trkpt lat="55.8903483" lon="49.2236017"><time>2023-06-03T08:17:37.310</time></trkpt><trkpt lat="55.8904300" lon="49.2235867"><time>2023-06-03T08:17:39.320</time></trkpt><trkpt lat="55.8904783" lon="49.2235800"><time>2023-06-03T08:17:40.320</time></trkpt><trkpt lat="55.8905283" lon="49.2235683"><time>2023-06-03T08:17:41.320</time></trkpt><trkpt lat="55.8905733" lon="49.2235617"><time>2023-06-03T08:17:42.320</time></trkpt><trkpt lat="55.8906217" lon="49.2235517"><time>2023-06-03T08:17:43.323</time></trkpt><trkpt lat="55.8906700" lon="49.2235533"><time>2023-06-03T08:17:44.320</time></trkpt><trkpt lat="55.8907483" lon="49.2235867"><time>2023-06-03T08:17:46.327</time></trkpt><trkpt lat="55.8908300" lon="49.2236300"><time>2023-06-03T08:17:48.317</time></trkpt><trkpt lat="55.8908733" lon="49.2236533"><time>2023-06-03T08:17:49.317</time></trkpt><trkpt lat="55.8909200" lon="49.2236783"><time>2023-06-03T08:17:50.320</time></trkpt><trkpt lat="55.8909700" lon="49.2237033"><time>2023-06-03T08:17:51.310</time></trkpt><trkpt lat="55.8910150" lon="49.2237300"><time>2023-06-03T08:17:52.320</time></trkpt><trkpt lat="55.8910983" lon="49.2237717"><time>2023-06-03T08:17:54.327</time></trkpt><trkpt lat="55.8911750" lon="49.2238150"><time>2023-06-03T08:17:56.317</time></trkpt><trkpt lat="55.8912500" lon="49.2238617"><time>2023-06-03T08:17:58.320</time></trkpt><trkpt lat="55.8913167" lon="49.2239117"><time>2023-06-03T08:18:00.320</time></trkpt><trkpt lat="55.8913633" lon="49.2239733"><time>2023-06-03T08:18:02.320</time></trkpt><trkpt lat="55.8914167" lon="49.2240350"><time>2023-06-03T08:18:04.317</time></trkpt><trkpt lat="55.8914800" lon="49.2240483"><time>2023-06-03T08:18:07.323</time></trkpt><trkpt lat="55.8915400" lon="49.2240900"><time>2023-06-03T08:18:10.327</time></trkpt><trkpt lat="55.8915983" lon="49.2241317"><time>2023-06-03T08:18:12.323</time></trkpt><trkpt lat="55.8916633" lon="49.2241717"><time>2023-06-03T08:18:14.327</time></trkpt><trkpt lat="55.8917350" lon="49.2242133"><time>2023-06-03T08:18:16.323</time></trkpt><trkpt lat="55.8918100" lon="49.2242767"><time>2023-06-03T08:18:18.317</time></trkpt><trkpt lat="55.8918833" lon="49.2243267"><time>2023-06-03T08:18:20.320</time></trkpt><trkpt lat="55.8919617" lon="49.2243833"><time>2023-06-03T08:18:22.323</time></trkpt><trkpt lat="55.8920067" lon="49.2244067"><time>2023-06-03T08:18:23.320</time></trkpt><trkpt lat="55.8920533" lon="49.2244300"><time>2023-06-03T08:18:24.320</time></trkpt><trkpt lat="55.8921000" lon="49.2244517"><time>2023-06-03T08:18:25.323</time></trkpt><trkpt lat="55.8921467" lon="49.2244750"><time>2023-06-03T08:18:26.320</time></trkpt><trkpt lat="55.8922300" lon="49.2245333"><time>2023-06-03T08:18:28.320</time></trkpt><trkpt lat="55.8923100" lon="49.2245967"><time>2023-06-03T08:18:30.323</time></trkpt><trkpt lat="55.8923867" lon="49.2246400"><time>2023-06-03T08:18:32.323</time></trkpt><trkpt lat="55.8924717" lon="49.2246500"><time>2023-06-03T08:18:34.317</time></trkpt><trkpt lat="55.8925600" lon="49.2246550"><time>2023-06-03T08:18:36.313</time></trkpt><trkpt lat="55.8926050" lon="49.2246583"><time>2023-06-03T08:18:37.317</time></trkpt><trkpt lat="55.8926533" lon="49.2246633"><time>2023-06-03T08:18:38.317</time></trkpt><trkpt lat="55.8927033" lon="49.2246633"><time>2023-06-03T08:18:39.320</time></trkpt><trkpt lat="55.8927567" lon="49.2246683"><time>2023-06-03T08:18:40.320</time></trkpt><trkpt lat="55.8928050" lon="49.2246850"><time>2023-06-03T08:18:41.320</time></trkpt><trkpt lat="55.8928867" lon="49.2247200"><time>2023-06-03T08:18:43.323</time></trkpt><trkpt lat="55.8929733" lon="49.2247517"><time>2023-06-03T08:18:45.320</time></trkpt><trkpt lat="55.8930217" lon="49.2247583"><time>2023-06-03T08:18:46.327</time></trkpt><trkpt lat="55.8930683" lon="49.2247633"><time>2023-06-03T08:18:47.323</time></trkpt><trkpt lat="55.8931150" lon="49.2247717"><time>2023-06-03T08:18:48.323</time></trkpt><trkpt lat="55.8931617" lon="49.2247833"><time>2023-06-03T08:18:49.310</time></trkpt><trkpt lat="55.8932100" lon="49.2248000"><time>2023-06-03T08:18:50.323</time></trkpt><trkpt lat="55.8932600" lon="49.2248183"><time>2023-06-03T08:18:51.320</time></trkpt><trkpt lat="55.8933067" lon="49.2248400"><time>2023-06-03T08:18:52.320</time></trkpt><trkpt lat="55.8933517" lon="49.2248650"><time>2023-06-03T08:18:53.323</time></trkpt><trkpt lat="55.8933983" lon="49.2248900"><time>2023-06-03T08:18:54.320</time></trkpt><trkpt lat="55.8934433" lon="49.2249083"><time>2023-06-03T08:18:55.320</time></trkpt><trkpt lat="55.8934883" lon="49.2249267"><time>2023-06-03T08:18:56.323</time></trkpt><trkpt lat="55.8935317" lon="49.2249500"><time>2023-06-03T08:18:57.320</time></trkpt><trkpt lat="55.8935750" lon="49.2249750"><time>2023-06-03T08:18:58.320</time></trkpt><trkpt lat="55.8936200" lon="49.2250000"><time>2023-06-03T08:18:59.317</time></trkpt><trkpt lat="55.8936617" lon="49.2250300"><time>2023-06-03T08:19:00.317</time></trkpt><trkpt lat="55.8937050" lon="49.2250617"><time>2023-06-03T08:19:01.317</time></trkpt><trkpt lat="55.8937483" lon="49.2251017"><time>2023-06-03T08:19:02.320</time></trkpt><trkpt lat="55.8938300" lon="49.2251800"><time>2023-06-03T08:19:04.320</time></trkpt><trkpt lat="55.8938717" lon="49.2252200"><time>2023-06-03T08:19:05.317</time></trkpt><trkpt lat="55.8939117" lon="49.2252583"><time>2023-06-03T08:19:06.323</time></trkpt><trkpt lat="55.8939533" lon="49.2253017"><time>2023-06-03T08:19:07.317</time></trkpt><trkpt lat="55.8939950" lon="49.2253400"><time>2023-06-03T08:19:08.320</time></trkpt><trkpt lat="55.8940767" lon="49.2254117"><time>2023-06-03T08:19:10.320</time></trkpt><trkpt lat="55.8941183" lon="49.2254467"><time>2023-06-03T08:19:11.320</time></trkpt><trkpt lat="55.8941583" lon="49.2254850"><time>2023-06-03T08:19:12.323</time></trkpt><trkpt lat="55.8942367" lon="49.2255567"><time>2023-06-03T08:19:14.323</time></trkpt><trkpt lat="55.8943133" lon="49.2256217"><time>2023-06-03T08:19:16.320</time></trkpt><trkpt lat="55.8943950" lon="49.2256817"><time>2023-06-03T08:19:18.317</time></trkpt><trkpt lat="55.8944383" lon="49.2257033"><time>2023-06-03T08:19:19.320</time></trkpt><trkpt lat="55.8944833" lon="49.2257167"><time>2023-06-03T08:19:20.323</time></trkpt><trkpt lat="55.8945283" lon="49.2257200"><time>2023-06-03T08:19:21.320</time></trkpt><trkpt lat="55.8945750" lon="49.2257150"><time>2023-06-03T08:19:22.323</time></trkpt><trkpt lat="55.8946217" lon="49.2257033"><time>2023-06-03T08:19:23.320</time></trkpt><trkpt lat="55.8946683" lon="49.2256850"><time>2023-06-03T08:19:24.320</time></trkpt><trkpt lat="55.8947117" lon="49.2256583"><time>2023-06-03T08:19:25.323</time></trkpt><trkpt lat="55.8947917" lon="49.2256000"><time>2023-06-03T08:19:27.320</time></trkpt><trkpt lat="55.8948333" lon="49.2255650"><time>2023-06-03T08:19:28.323</time></trkpt><trkpt lat="55.8949067" lon="49.2254883"><time>2023-06-03T08:19:30.320</time></trkpt><trkpt lat="55.8949483" lon="49.2254383"><time>2023-06-03T08:19:31.320</time></trkpt><trkpt lat="55.8949900" lon="49.2253883"><time>2023-06-03T08:19:32.320</time></trkpt><trkpt lat="55.8950317" lon="49.2253467"><time>2023-06-03T08:19:33.323</time></trkpt><trkpt lat="55.8951117" lon="49.2252683"><time>2023-06-03T08:19:35.320</time></trkpt><trkpt lat="55.8951850" lon="49.2251833"><time>2023-06-03T08:19:37.317</time></trkpt><trkpt lat="55.8952567" lon="49.2251183"><time>2023-06-03T08:19:39.317</time></trkpt><trkpt lat="55.8953317" lon="49.2250600"><time>2023-06-03T08:19:41.300</time></trkpt><trkpt lat="55.8954083" lon="49.2250033"><time>2023-06-03T08:19:43.317</time></trkpt><trkpt lat="55.8954783" lon="49.2249283"><time>2023-06-03T08:19:45.310</time></trkpt><trkpt lat="55.8955467" lon="49.2248650"><time>2023-06-03T08:19:47.317</time></trkpt><trkpt lat="55.8956133" lon="49.2248167"><time>2023-06-03T08:19:49.323</time></trkpt><trkpt lat="55.8956833" lon="49.2247767"><time>2023-06-03T08:19:51.310</time></trkpt><trkpt lat="55.8957550" lon="49.2247267"><time>2023-06-03T08:19:53.310</time></trkpt><trkpt lat="55.8957933" lon="49.2246850"><time>2023-06-03T08:19:54.307</time></trkpt><trkpt lat="55.8958633" lon="49.2246233"><time>2023-06-03T08:19:56.323</time></trkpt><trkpt lat="55.8959333" lon="49.2245583"><time>2023-06-03T08:19:58.297</time></trkpt><trkpt lat="55.8960017" lon="49.2244850"><time>2023-06-03T08:20:00.317</time></trkpt><trkpt lat="55.8960733" lon="49.2244267"><time>2023-06-03T08:20:02.307</time></trkpt><trkpt lat="55.8961350" lon="49.2243767"><time>2023-06-03T08:20:04.340</time></trkpt><trkpt lat="55.8962333" lon="49.2243167"><time>2023-06-03T08:20:05.333</time></trkpt><trkpt lat="55.8962250" lon="49.2241867"><time>2023-06-03T08:20:06.777</time></trkpt><trkpt lat="55.8962617" lon="49.2241350"><time>2023-06-03T08:20:08.310</time></trkpt><trkpt lat="55.8963183" lon="49.2240883"><time>2023-06-03T08:20:10.307</time></trkpt><trkpt lat="55.8963717" lon="49.2240000"><time>2023-06-03T08:20:12.310</time></trkpt><trkpt lat="55.8964283" lon="49.2239217"><time>2023-06-03T08:20:14.310</time></trkpt><trkpt lat="55.8964833" lon="49.2238350"><time>2023-06-03T08:20:16.310</time></trkpt><trkpt lat="55.8965350" lon="49.2237433"><time>2023-06-03T08:20:18.307</time></trkpt><trkpt lat="55.8965833" lon="49.2236567"><time>2023-06-03T08:20:20.313</time></trkpt><trkpt lat="55.8966333" lon="49.2235700"><time>2023-06-03T08:20:22.310</time></trkpt><trkpt lat="55.8966867" lon="49.2235133"><time>2023-06-03T08:20:24.310</time></trkpt><trkpt lat="55.8967400" lon="49.2234700"><time>2023-06-03T08:20:26.307</time></trkpt><trkpt lat="55.8968050" lon="49.2234333"><time>2023-06-03T08:20:28.330</time></trkpt><trkpt lat="55.8968050" lon="49.2234333"><time>2023-06-03T08:20:29.310</time></trkpt><trkpt lat="55.8968550" lon="49.2233800"><time>2023-06-03T08:20:30.797</time></trkpt><trkpt lat="55.8969033" lon="49.2233300"><time>2023-06-03T08:20:31.807</time></trkpt><trkpt lat="55.8969517" lon="49.2233033"><time>2023-06-03T08:20:33.307</time></trkpt><trkpt lat="55.8970183" lon="49.2232967"><time>2023-06-03T08:20:35.297</time></trkpt><trkpt lat="55.8970833" lon="49.2232517"><time>2023-06-03T08:20:37.310</time></trkpt><trkpt lat="55.8971533" lon="49.2232417"><time>2023-06-03T08:20:39.310</time></trkpt><trkpt lat="55.8972183" lon="49.2232367"><time>2023-06-03T08:20:41.307</time></trkpt><trkpt lat="55.8972783" lon="49.2231917"><time>2023-06-03T08:20:43.327</time></trkpt><trkpt lat="55.8972733" lon="49.2231933"><time>2023-06-03T08:20:44.807</time></trkpt><trkpt lat="55.8973250" lon="49.2231533"><time>2023-06-03T08:20:46.803</time></trkpt><trkpt lat="55.8973633" lon="49.2230817"><time>2023-06-03T08:20:48.307</time></trkpt><trkpt lat="55.8973900" lon="49.2229900"><time>2023-06-03T08:20:49.307</time></trkpt><trkpt lat="55.8974083" lon="49.2229117"><time>2023-06-03T08:20:50.307</time></trkpt><trkpt lat="55.8974333" lon="49.2228183"><time>2023-06-03T08:20:51.323</time></trkpt><trkpt lat="55.8974333" lon="49.2228183"><time>2023-06-03T08:20:51.380</time></trkpt><trkpt lat="55.8974533" lon="49.2226450"><time>2023-06-03T08:20:52.307</time></trkpt><trkpt lat="55.8974533" lon="49.2226450"><time>2023-06-03T08:20:53.270</time></trkpt><trkpt lat="55.8974767" lon="49.2225583"><time>2023-06-03T08:20:54.807</time></trkpt><trkpt lat="55.8974967" lon="49.2224850"><time>2023-06-03T08:21:05.277</time></trkpt><trkpt lat="55.8975033" lon="49.2224050"><time>2023-06-03T08:21:15.280</time></trkpt><trkpt lat="55.8975200" lon="49.2223067"><time>2023-06-03T08:21:17.293</time></trkpt><trkpt lat="55.8975350" lon="49.2222033"><time>2023-06-03T08:21:19.303</time></trkpt><trkpt lat="55.8975700" lon="49.2221133"><time>2023-06-03T08:21:22.313</time></trkpt><trkpt lat="55.8976200" lon="49.2220367"><time>2023-06-03T08:21:24.307</time></trkpt><trkpt lat="55.8976783" lon="49.2219483"><time>2023-06-03T08:21:26.313</time></trkpt><trkpt lat="55.8977400" lon="49.2218833"><time>2023-06-03T08:21:28.313</time></trkpt><trkpt lat="55.8978083" lon="49.2218300"><time>2023-06-03T08:21:30.320</time></trkpt><trkpt lat="55.8978833" lon="49.2217317"><time>2023-06-03T08:21:32.313</time></trkpt><trkpt lat="55.8979233" lon="49.2216833"><time>2023-06-03T08:21:33.317</time></trkpt><trkpt lat="55.8979667" lon="49.2216300"><time>2023-06-03T08:21:34.320</time></trkpt><trkpt lat="55.8980100" lon="49.2215683"><time>2023-06-03T08:21:35.320</time></trkpt><trkpt lat="55.8980517" lon="49.2215100"><time>2023-06-03T08:21:36.323</time></trkpt><trkpt lat="55.8980867" lon="49.2214483"><time>2023-06-03T08:21:37.297</time></trkpt><trkpt lat="55.8981183" lon="49.2213733"><time>2023-06-03T08:21:38.317</time></trkpt><trkpt lat="55.8981517" lon="49.2213067"><time>2023-06-03T08:21:39.320</time></trkpt><trkpt lat="55.8981867" lon="49.2212517"><time>2023-06-03T08:21:40.317</time></trkpt><trkpt lat="55.8982500" lon="49.2211567"><time>2023-06-03T08:21:42.320</time></trkpt><trkpt lat="55.8983033" lon="49.2210467"><time>2023-06-03T08:21:44.323</time></trkpt><trkpt lat="55.8983333" lon="49.2209833"><time>2023-06-03T08:21:45.320</time></trkpt><trkpt lat="55.8983617" lon="49.2209150"><time>2023-06-03T08:21:46.307</time></trkpt><trkpt lat="55.8983917" lon="49.2208517"><time>2023-06-03T08:21:47.303</time></trkpt><trkpt lat="55.8984550" lon="49.2207600"><time>2023-06-03T08:21:49.303</time></trkpt><trkpt lat="55.8985300" lon="49.2206567"><time>2023-06-03T08:21:51.320</time></trkpt><trkpt lat="55.8985650" lon="49.2206033"><time>2023-06-03T08:21:52.320</time></trkpt><trkpt lat="55.8986367" lon="49.2205083"><time>2023-06-03T08:21:54.320</time></trkpt><trkpt lat="55.8986733" lon="49.2204567"><time>2023-06-03T08:21:55.313</time></trkpt><trkpt lat="55.8987133" lon="49.2204167"><time>2023-06-03T08:21:56.320</time></trkpt><trkpt lat="55.8987900" lon="49.2203333"><time>2023-06-03T08:21:58.320</time></trkpt><trkpt lat="55.8988600" lon="49.2202533"><time>2023-06-03T08:22:00.317</time></trkpt><trkpt lat="55.8989300" lon="49.2201767"><time>2023-06-03T08:22:02.317</time></trkpt><trkpt lat="55.8990067" lon="49.2200967"><time>2023-06-03T08:22:04.317</time></trkpt><trkpt lat="55.8990533" lon="49.2200533"><time>2023-06-03T08:22:05.320</time></trkpt><trkpt lat="55.8991250" lon="49.2199833"><time>2023-06-03T08:22:07.317</time></trkpt><trkpt lat="55.8992017" lon="49.2199133"><time>2023-06-03T08:22:09.310</time></trkpt><trkpt lat="55.8992733" lon="49.2198333"><time>2023-06-03T08:22:11.317</time></trkpt><trkpt lat="55.8993450" lon="49.2197383"><time>2023-06-03T08:22:13.317</time></trkpt><trkpt lat="55.8993750" lon="49.2196783"><time>2023-06-03T08:22:14.297</time></trkpt><trkpt lat="55.8994117" lon="49.2196150"><time>2023-06-03T08:22:15.317</time></trkpt><trkpt lat="55.8994433" lon="49.2195383"><time>2023-06-03T08:22:16.313</time></trkpt><trkpt lat="55.8994667" lon="49.2194683"><time>2023-06-03T08:22:17.303</time></trkpt><trkpt lat="55.8994867" lon="49.2193967"><time>2023-06-03T08:22:18.317</time></trkpt><trkpt lat="55.8995167" lon="49.2192667"><time>2023-06-03T08:22:20.320</time></trkpt><trkpt lat="55.8995367" lon="49.2191383"><time>2023-06-03T08:22:22.317</time></trkpt><trkpt lat="55.8995450" lon="49.2190067"><time>2023-06-03T08:22:24.317</time></trkpt><trkpt lat="55.8995483" lon="49.2188900"><time>2023-06-03T08:22:26.287</time></trkpt><trkpt lat="55.8995883" lon="49.2188117"><time>2023-06-03T08:22:28.317</time></trkpt><trkpt lat="55.8996533" lon="49.2187200"><time>2023-06-03T08:22:30.317</time></trkpt><trkpt lat="55.8997267" lon="49.2186550"><time>2023-06-03T08:22:32.307</time></trkpt><trkpt lat="55.8998017" lon="49.2186000"><time>2023-06-03T08:22:34.317</time></trkpt><trkpt lat="55.8998667" lon="49.2185617"><time>2023-06-03T08:22:36.320</time></trkpt><trkpt lat="55.8999433" lon="49.2185333"><time>2023-06-03T08:22:38.320</time></trkpt><trkpt lat="55.8999917" lon="49.2185217"><time>2023-06-03T08:22:39.317</time></trkpt><trkpt lat="55.9000767" lon="49.2185133"><time>2023-06-03T08:22:41.317</time></trkpt><trkpt lat="55.9001617" lon="49.2185417"><time>2023-06-03T08:22:43.320</time></trkpt><trkpt lat="55.9002083" lon="49.2185667"><time>2023-06-03T08:22:44.320</time></trkpt><trkpt lat="55.9002567" lon="49.2185933"><time>2023-06-03T08:22:45.313</time></trkpt><trkpt lat="55.9003050" lon="49.2186167"><time>2023-06-03T08:22:46.317</time></trkpt><trkpt lat="55.9003500" lon="49.2186400"><time>2023-06-03T08:22:47.317</time></trkpt><trkpt lat="55.9003967" lon="49.2186717"><time>2023-06-03T08:22:48.317</time></trkpt><trkpt lat="55.9004450" lon="49.2187017"><time>2023-06-03T08:22:49.320</time></trkpt><trkpt lat="55.9004933" lon="49.2187267"><time>2023-06-03T08:22:50.320</time></trkpt><trkpt lat="55.9005400" lon="49.2187517"><time>2023-06-03T08:22:51.320</time></trkpt><trkpt lat="55.9005900" lon="49.2187750"><time>2023-06-03T08:22:52.317</time></trkpt><trkpt lat="55.9006400" lon="49.2187883"><time>2023-06-03T08:22:53.320</time></trkpt><trkpt lat="55.9006900" lon="49.2188050"><time>2023-06-03T08:22:54.317</time></trkpt><trkpt lat="55.9007717" lon="49.2188517"><time>2023-06-03T08:22:56.320</time></trkpt><trkpt lat="55.9008150" lon="49.2188750"><time>2023-06-03T08:22:57.317</time></trkpt><trkpt lat="55.9008583" lon="49.2188967"><time>2023-06-03T08:22:58.317</time></trkpt><trkpt lat="55.9009433" lon="49.2189450"><time>2023-06-03T08:23:00.300</time></trkpt><trkpt lat="55.9009867" lon="49.2189667"><time>2023-06-03T08:23:01.317</time></trkpt><trkpt lat="55.9010300" lon="49.2189883"><time>2023-06-03T08:23:02.317</time></trkpt><trkpt lat="55.9011150" lon="49.2190250"><time>2023-06-03T08:23:04.317</time></trkpt><trkpt lat="55.9011900" lon="49.2190467"><time>2023-06-03T08:23:06.317</time></trkpt><trkpt lat="55.9012350" lon="49.2190533"><time>2023-06-03T08:23:07.327</time></trkpt><trkpt lat="55.9012800" lon="49.2190550"><time>2023-06-03T08:23:08.317</time></trkpt><trkpt lat="55.9013283" lon="49.2190517"><time>2023-06-03T08:23:09.317</time></trkpt><trkpt lat="55.9013750" lon="49.2190500"><time>2023-06-03T08:23:10.317</time></trkpt><trkpt lat="55.9014233" lon="49.2190517"><time>2023-06-03T08:23:11.317</time></trkpt><trkpt lat="55.9014700" lon="49.2190517"><time>2023-06-03T08:23:12.317</time></trkpt><trkpt lat="55.9015183" lon="49.2190500"><time>2023-06-03T08:23:13.317</time></trkpt><trkpt lat="55.9015650" lon="49.2190567"><time>2023-06-03T08:23:14.320</time></trkpt><trkpt lat="55.9016217" lon="49.2190583"><time>2023-06-03T08:23:15.317</time></trkpt><trkpt lat="55.9016667" lon="49.2190633"><time>2023-06-03T08:23:16.317</time></trkpt><trkpt lat="55.9017133" lon="49.2190700"><time>2023-06-03T08:23:17.297</time></trkpt><trkpt lat="55.9017700" lon="49.2190617"><time>2023-06-03T08:23:18.317</time></trkpt><trkpt lat="55.9018550" lon="49.2190667"><time>2023-06-03T08:23:20.320</time></trkpt><trkpt lat="55.9019317" lon="49.2190933"><time>2023-06-03T08:23:22.317</time></trkpt><trkpt lat="55.9020167" lon="49.2190950"><time>2023-06-03T08:23:24.317</time></trkpt><trkpt lat="55.9020633" lon="49.2190900"><time>2023-06-03T08:23:25.320</time></trkpt><trkpt lat="55.9021183" lon="49.2190583"><time>2023-06-03T08:23:26.320</time></trkpt><trkpt lat="55.9021683" lon="49.2190183"><time>2023-06-03T08:23:27.317</time></trkpt><trkpt lat="55.9022150" lon="49.2189767"><time>2023-06-03T08:23:28.320</time></trkpt><trkpt lat="55.9022650" lon="49.2189533"><time>2023-06-03T08:23:29.277</time></trkpt><trkpt lat="55.9023117" lon="49.2189217"><time>2023-06-03T08:23:30.313</time></trkpt><trkpt lat="55.9023800" lon="49.2188383"><time>2023-06-03T08:23:32.307</time></trkpt><trkpt lat="55.9024333" lon="49.2187217"><time>2023-06-03T08:23:34.320</time></trkpt><trkpt lat="55.9024750" lon="49.2186033"><time>2023-06-03T08:23:36.313</time></trkpt><trkpt lat="55.9024950" lon="49.2185300"><time>2023-06-03T08:23:37.320</time></trkpt><trkpt lat="55.9025333" lon="49.2183850"><time>2023-06-03T08:23:39.317</time></trkpt><trkpt lat="55.9025500" lon="49.2183100"><time>2023-06-03T08:23:40.313</time></trkpt><trkpt lat="55.9025817" lon="49.2181700"><time>2023-06-03T08:23:42.317</time></trkpt><trkpt lat="55.9026167" lon="49.2180300"><time>2023-06-03T08:23:44.320</time></trkpt><trkpt lat="55.9026583" lon="49.2179067"><time>2023-06-03T08:23:46.310</time></trkpt><trkpt lat="55.9026867" lon="49.2177717"><time>2023-06-03T08:23:48.317</time></trkpt><trkpt lat="55.9027200" lon="49.2176283"><time>2023-06-03T08:23:50.317</time></trkpt><trkpt lat="55.9027417" lon="49.2175567"><time>2023-06-03T08:23:51.320</time></trkpt><trkpt lat="55.9027767" lon="49.2174167"><time>2023-06-03T08:23:53.317</time></trkpt><trkpt lat="55.9028083" lon="49.2172717"><time>2023-06-03T08:23:55.317</time></trkpt><trkpt lat="55.9028367" lon="49.2171300"><time>2023-06-03T08:23:57.320</time></trkpt><trkpt lat="55.9028600" lon="49.2169833"><time>2023-06-03T08:23:59.310</time></trkpt><trkpt lat="55.9028717" lon="49.2168433"><time>2023-06-03T08:24:01.320</time></trkpt><trkpt lat="55.9028767" lon="49.2166967"><time>2023-06-03T08:24:03.320</time></trkpt><trkpt lat="55.9028767" lon="49.2166133"><time>2023-06-03T08:24:04.320</time></trkpt><trkpt lat="55.9028800" lon="49.2165333"><time>2023-06-03T08:24:05.320</time></trkpt><trkpt lat="55.9028850" lon="49.2163883"><time>2023-06-03T08:24:07.317</time></trkpt><trkpt lat="55.9028983" lon="49.2162467"><time>2023-06-03T08:24:09.320</time></trkpt><trkpt lat="55.9029050" lon="49.2160900"><time>2023-06-03T08:24:11.320</time></trkpt><trkpt lat="55.9029083" lon="49.2159417"><time>2023-06-03T08:24:13.317</time></trkpt><trkpt lat="55.9029100" lon="49.2158583"><time>2023-06-03T08:24:14.320</time></trkpt><trkpt lat="55.9029117" lon="49.2157733"><time>2023-06-03T08:24:15.317</time></trkpt><trkpt lat="55.9029100" lon="49.2156867"><time>2023-06-03T08:24:16.317</time></trkpt><trkpt lat="55.9029117" lon="49.2155367"><time>2023-06-03T08:24:18.307</time></trkpt><trkpt lat="55.9029200" lon="49.2154050"><time>2023-06-03T08:24:20.320</time></trkpt><trkpt lat="55.9029200" lon="49.2152683"><time>2023-06-03T08:24:22.320</time></trkpt><trkpt lat="55.9029167" lon="49.2151183"><time>2023-06-03T08:24:24.320</time></trkpt><trkpt lat="55.9029050" lon="49.2149617"><time>2023-06-03T08:24:26.320</time></trkpt><trkpt lat="55.9028817" lon="49.2148033"><time>2023-06-03T08:24:28.320</time></trkpt><trkpt lat="55.9028700" lon="49.2147117"><time>2023-06-03T08:24:29.323</time></trkpt><trkpt lat="55.9028583" lon="49.2146217"><time>2023-06-03T08:24:30.320</time></trkpt><trkpt lat="55.9028483" lon="49.2145400"><time>2023-06-03T08:24:31.317</time></trkpt><trkpt lat="55.9028317" lon="49.2143967"><time>2023-06-03T08:24:33.320</time></trkpt><trkpt lat="55.9028200" lon="49.2142533"><time>2023-06-03T08:24:35.317</time></trkpt><trkpt lat="55.9028100" lon="49.2141017"><time>2023-06-03T08:24:37.317</time></trkpt><trkpt lat="55.9028017" lon="49.2140183"><time>2023-06-03T08:24:38.307</time></trkpt><trkpt lat="55.9027983" lon="49.2138650"><time>2023-06-03T08:24:40.317</time></trkpt><trkpt lat="55.9028000" lon="49.2137333"><time>2023-06-03T08:24:42.317</time></trkpt><trkpt lat="55.9028067" lon="49.2135950"><time>2023-06-03T08:24:44.320</time></trkpt><trkpt lat="55.9028217" lon="49.2134467"><time>2023-06-03T08:24:46.317</time></trkpt><trkpt lat="55.9028333" lon="49.2133683"><time>2023-06-03T08:24:47.317</time></trkpt><trkpt lat="55.9028450" lon="49.2132750"><time>2023-06-03T08:24:48.320</time></trkpt><trkpt lat="55.9028700" lon="49.2131333"><time>2023-06-03T08:24:50.317</time></trkpt><trkpt lat="55.9029000" lon="49.2129967"><time>2023-06-03T08:24:52.317</time></trkpt><trkpt lat="55.9029317" lon="49.2128567"><time>2023-06-03T08:24:54.317</time></trkpt><trkpt lat="55.9029700" lon="49.2127200"><time>2023-06-03T08:24:56.317</time></trkpt><trkpt lat="55.9029933" lon="49.2126350"><time>2023-06-03T08:24:57.297</time></trkpt><trkpt lat="55.9030117" lon="49.2125600"><time>2023-06-03T08:24:58.300</time></trkpt><trkpt lat="55.9030267" lon="49.2124817"><time>2023-06-03T08:24:59.317</time></trkpt><trkpt lat="55.9030600" lon="49.2123517"><time>2023-06-03T08:25:01.307</time></trkpt><trkpt lat="55.9030917" lon="49.2122250"><time>2023-06-03T08:25:03.320</time></trkpt><trkpt lat="55.9031250" lon="49.2120933"><time>2023-06-03T08:25:05.320</time></trkpt><trkpt lat="55.9031450" lon="49.2119433"><time>2023-06-03T08:25:07.317</time></trkpt><trkpt lat="55.9031517" lon="49.2117900"><time>2023-06-03T08:25:09.317</time></trkpt><trkpt lat="55.9031850" lon="49.2116633"><time>2023-06-03T08:25:11.320</time></trkpt><trkpt lat="55.9031933" lon="49.2115817"><time>2023-06-03T08:25:12.323</time></trkpt><trkpt lat="55.9032017" lon="49.2114933"><time>2023-06-03T08:25:13.320</time></trkpt><trkpt lat="55.9032217" lon="49.2113700"><time>2023-06-03T08:25:15.320</time></trkpt><trkpt lat="55.9032450" lon="49.2112250"><time>2023-06-03T08:25:17.307</time></trkpt><trkpt lat="55.9032633" lon="49.2110900"><time>2023-06-03T08:25:19.317</time></trkpt><trkpt lat="55.9032967" lon="49.2109517"><time>2023-06-03T08:25:21.317</time></trkpt><trkpt lat="55.9033117" lon="49.2108750"><time>2023-06-03T08:25:22.317</time></trkpt><trkpt lat="55.9033250" lon="49.2107983"><time>2023-06-03T08:25:23.287</time></trkpt><trkpt lat="55.9033467" lon="49.2106517"><time>2023-06-03T08:25:25.313</time></trkpt><trkpt lat="55.9033633" lon="49.2105033"><time>2023-06-03T08:25:27.313</time></trkpt><trkpt lat="55.9033750" lon="49.2103667"><time>2023-06-03T08:25:29.320</time></trkpt><trkpt lat="55.9033833" lon="49.2102833"><time>2023-06-03T08:25:30.317</time></trkpt><trkpt lat="55.9033833" lon="49.2101917"><time>2023-06-03T08:25:31.317</time></trkpt><trkpt lat="55.9033983" lon="49.2100433"><time>2023-06-03T08:25:33.307</time></trkpt><trkpt lat="55.9034033" lon="49.2099617"><time>2023-06-03T08:25:34.317</time></trkpt><trkpt lat="55.9034117" lon="49.2098817"><time>2023-06-03T08:25:35.317</time></trkpt><trkpt lat="55.9034183" lon="49.2097950"><time>2023-06-03T08:25:36.320</time></trkpt><trkpt lat="55.9034267" lon="49.2097100"><time>2023-06-03T08:25:37.317</time></trkpt><trkpt lat="55.9034333" lon="49.2096283"><time>2023-06-03T08:25:38.323</time></trkpt><trkpt lat="55.9034317" lon="49.2095450"><time>2023-06-03T08:25:39.320</time></trkpt><trkpt lat="55.9034400" lon="49.2093917"><time>2023-06-03T08:25:41.320</time></trkpt><trkpt lat="55.9034433" lon="49.2093100"><time>2023-06-03T08:25:42.317</time></trkpt><trkpt lat="55.9034467" lon="49.2092250"><time>2023-06-03T08:25:43.317</time></trkpt><trkpt lat="55.9034400" lon="49.2091300"><time>2023-06-03T08:25:44.320</time></trkpt><trkpt lat="55.9034450" lon="49.2090317"><time>2023-06-03T08:25:45.320</time></trkpt><trkpt lat="55.9034533" lon="49.2089500"><time>2023-06-03T08:25:46.320</time></trkpt><trkpt lat="55.9034550" lon="49.2088583"><time>2023-06-03T08:25:47.300</time></trkpt><trkpt lat="55.9034567" lon="49.2087700"><time>2023-06-03T08:25:48.320</time></trkpt><trkpt lat="55.9034550" lon="49.2086867"><time>2023-06-03T08:25:49.320</time></trkpt><trkpt lat="55.9034550" lon="49.2085367"><time>2023-06-03T08:25:51.320</time></trkpt><trkpt lat="55.9034550" lon="49.2084000"><time>2023-06-03T08:25:53.327</time></trkpt><trkpt lat="55.9034683" lon="49.2082617"><time>2023-06-03T08:25:55.303</time></trkpt><trkpt lat="55.9034933" lon="49.2081350"><time>2023-06-03T08:25:57.313</time></trkpt><trkpt lat="55.9035217" lon="49.2080233"><time>2023-06-03T08:25:59.323</time></trkpt><trkpt lat="55.9035533" lon="49.2079050"><time>2023-06-03T08:26:01.317</time></trkpt><trkpt lat="55.9035817" lon="49.2077800"><time>2023-06-03T08:26:03.320</time></trkpt><trkpt lat="55.9036150" lon="49.2076550"><time>2023-06-03T08:26:05.320</time></trkpt><trkpt lat="55.9036450" lon="49.2075483"><time>2023-06-03T08:26:07.317</time></trkpt><trkpt lat="55.9036733" lon="49.2074267"><time>2023-06-03T08:26:09.313</time></trkpt><trkpt lat="55.9036967" lon="49.2073017"><time>2023-06-03T08:26:11.307</time></trkpt><trkpt lat="55.9037217" lon="49.2071717"><time>2023-06-03T08:26:13.317</time></trkpt><trkpt lat="55.9037433" lon="49.2071000"><time>2023-06-03T08:26:18.320</time></trkpt><trkpt lat="55.9037333" lon="49.2070000"><time>2023-06-03T08:26:33.317</time></trkpt><trkpt lat="55.9037500" lon="49.2068933"><time>2023-06-03T08:26:36.297</time></trkpt><trkpt lat="55.9037617" lon="49.2067950"><time>2023-06-03T08:26:38.317</time></trkpt><trkpt lat="55.9037750" lon="49.2067033"><time>2023-06-03T08:26:40.317</time></trkpt><trkpt lat="55.9037933" lon="49.2066200"><time>2023-06-03T08:26:42.323</time></trkpt><trkpt lat="55.9038083" lon="49.2065250"><time>2023-06-03T08:26:44.320</time></trkpt><trkpt lat="55.9038217" lon="49.2064250"><time>2023-06-03T08:26:46.320</time></trkpt><trkpt lat="55.9038417" lon="49.2063183"><time>2023-06-03T08:26:48.317</time></trkpt><trkpt lat="55.9038433" lon="49.2062167"><time>2023-06-03T08:26:50.320</time></trkpt><trkpt lat="55.9038083" lon="49.2061517"><time>2023-06-03T08:26:52.323</time></trkpt><trkpt lat="55.9037400" lon="49.2061400"><time>2023-06-03T08:26:54.320</time></trkpt><trkpt lat="55.9036817" lon="49.2061333"><time>2023-06-03T08:26:56.323</time></trkpt><trkpt lat="55.9036267" lon="49.2061333"><time>2023-06-03T08:26:58.323</time></trkpt><trkpt lat="55.9035667" lon="49.2061317"><time>2023-06-03T08:27:00.323</time></trkpt><trkpt lat="55.9035067" lon="49.2061250"><time>2023-06-03T08:27:02.317</time></trkpt><trkpt lat="55.9034417" lon="49.2061433"><time>2023-06-03T08:27:04.323</time></trkpt><trkpt lat="55.9033667" lon="49.2061917"><time>2023-06-03T08:27:06.323</time></trkpt><trkpt lat="55.9032900" lon="49.2062533"><time>2023-06-03T08:27:08.320</time></trkpt><trkpt lat="55.9032100" lon="49.2063133"><time>2023-06-03T08:27:10.317</time></trkpt><trkpt lat="55.9031300" lon="49.2063667"><time>2023-06-03T08:27:12.317</time></trkpt><trkpt lat="55.9030533" lon="49.2064167"><time>2023-06-03T08:27:14.307</time></trkpt><trkpt lat="55.9029717" lon="49.2064617"><time>2023-06-03T08:27:16.303</time></trkpt><trkpt lat="55.9028950" lon="49.2065050"><time>2023-06-03T08:27:18.303</time></trkpt><trkpt lat="55.9028150" lon="49.2065467"><time>2023-06-03T08:27:20.317</time></trkpt><trkpt lat="55.9027733" lon="49.2065783"><time>2023-06-03T08:27:21.323</time></trkpt><trkpt lat="55.9027017" lon="49.2066467"><time>2023-06-03T08:27:23.323</time></trkpt><trkpt lat="55.9026383" lon="49.2067250"><time>2023-06-03T08:27:25.323</time></trkpt><trkpt lat="55.9025750" lon="49.2068033"><time>2023-06-03T08:27:27.290</time></trkpt><trkpt lat="55.9025217" lon="49.2068933"><time>2023-06-03T08:27:29.300</time></trkpt><trkpt lat="55.9024800" lon="49.2069683"><time>2023-06-03T08:27:31.317</time></trkpt><trkpt lat="55.9024450" lon="49.2070417"><time>2023-06-03T08:27:33.317</time></trkpt><trkpt lat="55.9023967" lon="49.2071333"><time>2023-06-03T08:27:35.317</time></trkpt><trkpt lat="55.9023533" lon="49.2072317"><time>2023-06-03T08:27:37.310</time></trkpt><trkpt lat="55.9022933" lon="49.2073233"><time>2023-06-03T08:27:39.337</time></trkpt><trkpt lat="55.9022833" lon="49.2073250"><time>2023-06-03T08:27:40.823</time></trkpt><trkpt lat="55.9022217" lon="49.2073217"><time>2023-06-03T08:27:42.810</time></trkpt><trkpt lat="55.9021783" lon="49.2072983"><time>2023-06-03T08:27:43.807</time></trkpt><trkpt lat="55.9020900" lon="49.2072933"><time>2023-06-03T08:27:45.307</time></trkpt><trkpt lat="55.9020450" lon="49.2072817"><time>2023-06-03T08:27:46.290</time></trkpt><trkpt lat="55.9020000" lon="49.2072633"><time>2023-06-03T08:27:47.307</time></trkpt><trkpt lat="55.9019417" lon="49.2072483"><time>2023-06-03T08:27:48.307</time></trkpt><trkpt lat="55.9018583" lon="49.2072433"><time>2023-06-03T08:27:50.287</time></trkpt><trkpt lat="55.9017867" lon="49.2072450"><time>2023-06-03T08:27:52.287</time></trkpt><trkpt lat="55.9017117" lon="49.2072750"><time>2023-06-03T08:27:54.307</time></trkpt><trkpt lat="55.9016300" lon="49.2074100"><time>2023-06-03T08:27:56.307</time></trkpt><trkpt lat="55.9015767" lon="49.2075167"><time>2023-06-03T08:27:58.313</time></trkpt><trkpt lat="55.9015483" lon="49.2075833"><time>2023-06-03T08:27:59.313</time></trkpt><trkpt lat="55.9014983" lon="49.2077083"><time>2023-06-03T08:28:01.313</time></trkpt><trkpt lat="55.9014767" lon="49.2077800"><time>2023-06-03T08:28:02.327</time></trkpt><trkpt lat="55.9014767" lon="49.2077817"><time>2023-06-03T08:28:03.800</time></trkpt><trkpt lat="55.9014550" lon="49.2079067"><time>2023-06-03T08:28:05.310</time></trkpt><trkpt lat="55.9014117" lon="49.2080183"><time>2023-06-03T08:28:06.307</time></trkpt><trkpt lat="55.9013767" lon="49.2080767"><time>2023-06-03T08:28:07.307</time></trkpt><trkpt lat="55.9013317" lon="49.2081333"><time>2023-06-03T08:28:08.313</time></trkpt><trkpt lat="55.9012617" lon="49.2082167"><time>2023-06-03T08:28:10.313</time></trkpt><trkpt lat="55.9011850" lon="49.2083117"><time>2023-06-03T08:28:12.313</time></trkpt><trkpt lat="55.9011183" lon="49.2083900"><time>2023-06-03T08:28:14.310</time></trkpt><trkpt lat="55.9010467" lon="49.2084917"><time>2023-06-03T08:28:16.317</time></trkpt><trkpt lat="55.9009883" lon="49.2085783"><time>2023-06-03T08:28:18.310</time></trkpt><trkpt lat="55.9009417" lon="49.2086567"><time>2023-06-03T08:28:20.313</time></trkpt><trkpt lat="55.9009067" lon="49.2087300"><time>2023-06-03T08:28:22.313</time></trkpt><trkpt lat="55.9008567" lon="49.2087883"><time>2023-06-03T08:28:25.307</time></trkpt><trkpt lat="55.9008133" lon="49.2088183"><time>2023-06-03T08:28:28.310</time></trkpt><trkpt lat="55.9007683" lon="49.2088100"><time>2023-06-03T08:28:35.320</time></trkpt><trkpt lat="55.9007367" lon="49.2087383"><time>2023-06-03T08:28:40.323</time></trkpt><trkpt lat="55.9007050" lon="49.2086467"><time>2023-06-03T08:28:44.337</time></trkpt><trkpt lat="55.9007050" lon="49.2086433"><time>2023-06-03T08:28:45.817</time></trkpt><trkpt lat="55.9006733" lon="49.2085483"><time>2023-06-03T08:28:48.307</time></trkpt><trkpt lat="55.9006533" lon="49.2084300"><time>2023-06-03T08:28:50.307</time></trkpt><trkpt lat="55.9006350" lon="49.2083200"><time>2023-06-03T08:28:52.313</time></trkpt><trkpt lat="55.9006117" lon="49.2082283"><time>2023-06-03T08:28:54.327</time></trkpt><trkpt lat="55.9006117" lon="49.2082283"><time>2023-06-03T08:28:54.407</time></trkpt><trkpt lat="55.9005933" lon="49.2081367"><time>2023-06-03T08:28:56.327</time></trkpt><trkpt lat="55.9005917" lon="49.2081350"><time>2023-06-03T08:28:57.770</time></trkpt><trkpt lat="55.9005533" lon="49.2081767"><time>2023-06-03T08:29:27.317</time></trkpt><trkpt lat="55.9005633" lon="49.2082583"><time>2023-06-03T08:29:36.320</time></trkpt><trkpt lat="55.9005783" lon="49.2083383"><time>2023-06-03T08:29:39.320</time></trkpt><trkpt lat="55.9006100" lon="49.2084333"><time>2023-06-03T08:29:42.320</time></trkpt><trkpt lat="55.9006467" lon="49.2085233"><time>2023-06-03T08:29:44.317</time></trkpt><trkpt lat="55.9006733" lon="49.2086067"><time>2023-06-03T08:29:46.320</time></trkpt><trkpt lat="55.9006967" lon="49.2086933"><time>2023-06-03T08:29:48.320</time></trkpt><trkpt lat="55.9007150" lon="49.2087750"><time>2023-06-03T08:29:50.323</time></trkpt><trkpt lat="55.9007567" lon="49.2088133"><time>2023-06-03T08:29:52.317</time></trkpt><trkpt lat="55.9008017" lon="49.2088083"><time>2023-06-03T08:29:54.323</time></trkpt><trkpt lat="55.9008433" lon="49.2087633"><time>2023-06-03T08:29:56.323</time></trkpt><trkpt lat="55.9008783" lon="49.2086733"><time>2023-06-03T08:29:58.317</time></trkpt><trkpt lat="55.9009283" lon="49.2085750"><time>2023-06-03T08:30:00.313</time></trkpt><trkpt lat="55.9009950" lon="49.2085000"><time>2023-06-03T08:30:02.313</time></trkpt><trkpt lat="55.9010533" lon="49.2084333"><time>2023-06-03T08:30:04.317</time></trkpt><trkpt lat="55.9011167" lon="49.2083683"><time>2023-06-03T08:30:06.320</time></trkpt><trkpt lat="55.9011767" lon="49.2082950"><time>2023-06-03T08:30:08.320</time></trkpt><trkpt lat="55.9012450" lon="49.2082200"><time>2023-06-03T08:30:10.323</time></trkpt><trkpt lat="55.9013150" lon="49.2081400"><time>2023-06-03T08:30:12.320</time></trkpt><trkpt lat="55.9013783" lon="49.2080467"><time>2023-06-03T08:30:14.323</time></trkpt><trkpt lat="55.9014083" lon="49.2079867"><time>2023-06-03T08:30:15.323</time></trkpt><trkpt lat="55.9014333" lon="49.2079183"><time>2023-06-03T08:30:16.320</time></trkpt><trkpt lat="55.9014567" lon="49.2078450"><time>2023-06-03T08:30:17.323</time></trkpt><trkpt lat="55.9015000" lon="49.2077083"><time>2023-06-03T08:30:19.323</time></trkpt><trkpt lat="55.9015467" lon="49.2075850"><time>2023-06-03T08:30:21.320</time></trkpt><trkpt lat="55.9016017" lon="49.2074567"><time>2023-06-03T08:30:23.320</time></trkpt><trkpt lat="55.9016350" lon="49.2074000"><time>2023-06-03T08:30:24.323</time></trkpt><trkpt lat="55.9017017" lon="49.2073300"><time>2023-06-03T08:30:26.323</time></trkpt><trkpt lat="55.9017800" lon="49.2073083"><time>2023-06-03T08:30:28.320</time></trkpt><trkpt lat="55.9018250" lon="49.2073100"><time>2023-06-03T08:30:29.320</time></trkpt><trkpt lat="55.9018700" lon="49.2073200"><time>2023-06-03T08:30:30.320</time></trkpt><trkpt lat="55.9019433" lon="49.2073317"><time>2023-06-03T08:30:32.313</time></trkpt><trkpt lat="55.9020200" lon="49.2073467"><time>2023-06-03T08:30:34.287</time></trkpt><trkpt lat="55.9020983" lon="49.2073700"><time>2023-06-03T08:30:36.320</time></trkpt><trkpt lat="55.9021800" lon="49.2073900"><time>2023-06-03T08:30:38.320</time></trkpt><trkpt lat="55.9022533" lon="49.2073500"><time>2023-06-03T08:30:40.323</time></trkpt><trkpt lat="55.9023117" lon="49.2072650"><time>2023-06-03T08:30:42.323</time></trkpt><trkpt lat="55.9023533" lon="49.2071550"><time>2023-06-03T08:30:44.320</time></trkpt><trkpt lat="55.9024150" lon="49.2070467"><time>2023-06-03T08:30:46.323</time></trkpt><trkpt lat="55.9024517" lon="49.2069917"><time>2023-06-03T08:30:47.320</time></trkpt><trkpt lat="55.9024833" lon="49.2069317"><time>2023-06-03T08:30:48.313</time></trkpt><trkpt lat="55.9025417" lon="49.2068133"><time>2023-06-03T08:30:50.320</time></trkpt><trkpt lat="55.9026033" lon="49.2067167"><time>2023-06-03T08:30:52.317</time></trkpt><trkpt lat="55.9026800" lon="49.2066267"><time>2023-06-03T08:30:54.327</time></trkpt><trkpt lat="55.9027267" lon="49.2065850"><time>2023-06-03T08:30:55.320</time></trkpt><trkpt lat="55.9027733" lon="49.2065483"><time>2023-06-03T08:30:56.327</time></trkpt><trkpt lat="55.9028200" lon="49.2065200"><time>2023-06-03T08:30:57.287</time></trkpt><trkpt lat="55.9028683" lon="49.2065017"><time>2023-06-03T08:30:58.310</time></trkpt><trkpt lat="55.9029167" lon="49.2064800"><time>2023-06-03T08:30:59.317</time></trkpt><trkpt lat="55.9029650" lon="49.2064550"><time>2023-06-03T08:31:00.323</time></trkpt><trkpt lat="55.9030133" lon="49.2064267"><time>2023-06-03T08:31:01.320</time></trkpt><trkpt lat="55.9030617" lon="49.2063983"><time>2023-06-03T08:31:02.320</time></trkpt><trkpt lat="55.9031100" lon="49.2063650"><time>2023-06-03T08:31:03.323</time></trkpt><trkpt lat="55.9031567" lon="49.2063350"><time>2023-06-03T08:31:04.283</time></trkpt><trkpt lat="55.9032050" lon="49.2063000"><time>2023-06-03T08:31:05.283</time></trkpt><trkpt lat="55.9032500" lon="49.2062667"><time>2023-06-03T08:31:06.293</time></trkpt><trkpt lat="55.9032917" lon="49.2062300"><time>2023-06-03T08:31:07.307</time></trkpt><trkpt lat="55.9033367" lon="49.2061967"><time>2023-06-03T08:31:08.317</time></trkpt><trkpt lat="55.9033800" lon="49.2061700"><time>2023-06-03T08:31:09.287</time></trkpt><trkpt lat="55.9034600" lon="49.2061250"><time>2023-06-03T08:31:11.313</time></trkpt><trkpt lat="55.9035467" lon="49.2061183"><time>2023-06-03T08:31:13.317</time></trkpt><trkpt lat="55.9036317" lon="49.2061250"><time>2023-06-03T08:31:15.300</time></trkpt><trkpt lat="55.9037167" lon="49.2061333"><time>2023-06-03T08:31:17.317</time></trkpt><trkpt lat="55.9037883" lon="49.2061417"><time>2023-06-03T08:31:19.320</time></trkpt><trkpt lat="55.9038517" lon="49.2061233"><time>2023-06-03T08:31:21.313</time></trkpt><trkpt lat="55.9039050" lon="49.2060567"><time>2023-06-03T08:31:23.320</time></trkpt><trkpt lat="55.9039300" lon="49.2059733"><time>2023-06-03T08:31:25.323</time></trkpt><trkpt lat="55.9039717" lon="49.2059133"><time>2023-06-03T08:31:28.323</time></trkpt><trkpt lat="55.9040233" lon="49.2059350"><time>2023-06-03T08:31:30.320</time></trkpt><trkpt lat="55.9040883" lon="49.2059583"><time>2023-06-03T08:31:32.320</time></trkpt><trkpt lat="55.9041483" lon="49.2060050"><time>2023-06-03T08:31:34.317</time></trkpt><trkpt lat="55.9041933" lon="49.2060733"><time>2023-06-03T08:31:36.317</time></trkpt><trkpt lat="55.9042500" lon="49.2061483"><time>2023-06-03T08:31:38.323</time></trkpt><trkpt lat="55.9042950" lon="49.2061900"><time>2023-06-03T08:31:40.320</time></trkpt><trkpt lat="55.9043350" lon="49.2061483"><time>2023-06-03T08:31:41.317</time></trkpt><trkpt lat="55.9043583" lon="49.2060617"><time>2023-06-03T08:31:42.323</time></trkpt><trkpt lat="55.9043850" lon="49.2059433"><time>2023-06-03T08:31:44.323</time></trkpt><trkpt lat="55.9044050" lon="49.2058600"><time>2023-06-03T08:31:46.320</time></trkpt><trkpt lat="55.9044350" lon="49.2057817"><time>2023-06-03T08:31:48.323</time></trkpt><trkpt lat="55.9044633" lon="49.2057083"><time>2023-06-03T08:31:50.320</time></trkpt><trkpt lat="55.9044800" lon="49.2056200"><time>2023-06-03T08:31:52.323</time></trkpt><trkpt lat="55.9045300" lon="49.2055150"><time>2023-06-03T08:31:54.327</time></trkpt><trkpt lat="55.9046017" lon="49.2054417"><time>2023-06-03T08:31:56.323</time></trkpt><trkpt lat="55.9046750" lon="49.2053650"><time>2023-06-03T08:31:58.323</time></trkpt><trkpt lat="55.9047467" lon="49.2052850"><time>2023-06-03T08:32:00.323</time></trkpt><trkpt lat="55.9048233" lon="49.2052067"><time>2023-06-03T08:32:02.323</time></trkpt><trkpt lat="55.9048650" lon="49.2051700"><time>2023-06-03T08:32:03.320</time></trkpt><trkpt lat="55.9049067" lon="49.2051300"><time>2023-06-03T08:32:04.323</time></trkpt><trkpt lat="55.9049467" lon="49.2050917"><time>2023-06-03T08:32:05.323</time></trkpt><trkpt lat="55.9049900" lon="49.2050567"><time>2023-06-03T08:32:06.323</time></trkpt><trkpt lat="55.9050350" lon="49.2050167"><time>2023-06-03T08:32:07.327</time></trkpt><trkpt lat="55.9050783" lon="49.2049717"><time>2023-06-03T08:32:08.320</time></trkpt><trkpt lat="55.9051233" lon="49.2049233"><time>2023-06-03T08:32:09.307</time></trkpt><trkpt lat="55.9051667" lon="49.2048733"><time>2023-06-03T08:32:10.320</time></trkpt><trkpt lat="55.9052117" lon="49.2048200"><time>2023-06-03T08:32:11.320</time></trkpt><trkpt lat="55.9052567" lon="49.2047667"><time>2023-06-03T08:32:12.303</time></trkpt><trkpt lat="55.9052983" lon="49.2047133"><time>2023-06-03T08:32:13.320</time></trkpt><trkpt lat="55.9053400" lon="49.2046550"><time>2023-06-03T08:32:14.327</time></trkpt><trkpt lat="55.9053750" lon="49.2045933"><time>2023-06-03T08:32:15.323</time></trkpt><trkpt lat="55.9054067" lon="49.2045267"><time>2023-06-03T08:32:16.327</time></trkpt><trkpt lat="55.9054383" lon="49.2044583"><time>2023-06-03T08:32:17.323</time></trkpt><trkpt lat="55.9054650" lon="49.2043883"><time>2023-06-03T08:32:18.320</time></trkpt><trkpt lat="55.9054900" lon="49.2043133"><time>2023-06-03T08:32:19.320</time></trkpt><trkpt lat="55.9055117" lon="49.2042333"><time>2023-06-03T08:32:20.323</time></trkpt><trkpt lat="55.9055317" lon="49.2041517"><time>2023-06-03T08:32:21.320</time></trkpt><trkpt lat="55.9055467" lon="49.2040717"><time>2023-06-03T08:32:22.317</time></trkpt><trkpt lat="55.9055600" lon="49.2039950"><time>2023-06-03T08:32:23.320</time></trkpt><trkpt lat="55.9055850" lon="49.2038400"><time>2023-06-03T08:32:25.327</time></trkpt><trkpt lat="55.9055950" lon="49.2037617"><time>2023-06-03T08:32:26.320</time></trkpt><trkpt lat="55.9056150" lon="49.2036150"><time>2023-06-03T08:32:28.320</time></trkpt><trkpt lat="55.9056383" lon="49.2034783"><time>2023-06-03T08:32:30.317</time></trkpt><trkpt lat="55.9056650" lon="49.2033650"><time>2023-06-03T08:32:32.323</time></trkpt><trkpt lat="55.9057050" lon="49.2032567"><time>2023-06-03T08:32:34.323</time></trkpt><trkpt lat="55.9057617" lon="49.2031767"><time>2023-06-03T08:32:36.317</time></trkpt><trkpt lat="55.9058233" lon="49.2031150"><time>2023-06-03T08:32:38.323</time></trkpt><trkpt lat="55.9058933" lon="49.2030683"><time>2023-06-03T08:32:40.320</time></trkpt><trkpt lat="55.9059717" lon="49.2030717"><time>2023-06-03T08:32:42.320</time></trkpt><trkpt lat="55.9060483" lon="49.2030917"><time>2023-06-03T08:32:44.320</time></trkpt><trkpt lat="55.9061167" lon="49.2031117"><time>2023-06-03T08:32:46.317</time></trkpt><trkpt lat="55.9061883" lon="49.2031200"><time>2023-06-03T08:32:48.313</time></trkpt><trkpt lat="55.9062617" lon="49.2031283"><time>2023-06-03T08:32:50.323</time></trkpt><trkpt lat="55.9063400" lon="49.2031283"><time>2023-06-03T08:32:52.320</time></trkpt><trkpt lat="55.9064183" lon="49.2031283"><time>2023-06-03T08:32:54.323</time></trkpt><trkpt lat="55.9064933" lon="49.2031500"><time>2023-06-03T08:32:56.320</time></trkpt><trkpt lat="55.9065650" lon="49.2031833"><time>2023-06-03T08:32:58.317</time></trkpt><trkpt lat="55.9066333" lon="49.2032333"><time>2023-06-03T08:33:00.323</time></trkpt><trkpt lat="55.9067017" lon="49.2033117"><time>2023-06-03T08:33:02.307</time></trkpt><trkpt lat="55.9067717" lon="49.2033717"><time>2023-06-03T08:33:04.323</time></trkpt><trkpt lat="55.9068367" lon="49.2034100"><time>2023-06-03T08:33:06.313</time></trkpt><trkpt lat="55.9068967" lon="49.2034233"><time>2023-06-03T08:33:08.320</time></trkpt><trkpt lat="55.9069550" lon="49.2034200"><time>2023-06-03T08:33:10.323</time></trkpt><trkpt lat="55.9070200" lon="49.2034150"><time>2023-06-03T08:33:12.313</time></trkpt><trkpt lat="55.9070717" lon="49.2034083"><time>2023-06-03T08:33:23.320</time></trkpt><trkpt lat="55.9071283" lon="49.2034067"><time>2023-06-03T08:33:26.323</time></trkpt><trkpt lat="55.9071883" lon="49.2034017"><time>2023-06-03T08:33:28.320</time></trkpt><trkpt lat="55.9072583" lon="49.2033917"><time>2023-06-03T08:33:30.320</time></trkpt><trkpt lat="55.9073350" lon="49.2033750"><time>2023-06-03T08:33:32.323</time></trkpt><trkpt lat="55.9074150" lon="49.2033567"><time>2023-06-03T08:33:34.323</time></trkpt><trkpt lat="55.9074983" lon="49.2033250"><time>2023-06-03T08:33:36.323</time></trkpt><trkpt lat="55.9075767" lon="49.2032833"><time>2023-06-03T08:33:38.323</time></trkpt><trkpt lat="55.9076633" lon="49.2032483"><time>2023-06-03T08:33:40.323</time></trkpt><trkpt lat="55.9077450" lon="49.2032133"><time>2023-06-03T08:33:42.317</time></trkpt><trkpt lat="55.9078250" lon="49.2031967"><time>2023-06-03T08:33:44.330</time></trkpt><trkpt lat="55.9078250" lon="49.2031967"><time>2023-06-03T08:33:45.320</time></trkpt><trkpt lat="55.9079083" lon="49.2031867"><time>2023-06-03T08:33:47.310</time></trkpt><trkpt lat="55.9079833" lon="49.2031567"><time>2023-06-03T08:33:49.300</time></trkpt><trkpt lat="55.9080567" lon="49.2031317"><time>2023-06-03T08:33:51.307</time></trkpt><trkpt lat="55.9081400" lon="49.2031233"><time>2023-06-03T08:33:53.310</time></trkpt><trkpt lat="55.9082133" lon="49.2031117"><time>2023-06-03T08:33:55.313</time></trkpt><trkpt lat="55.9082883" lon="49.2031000"><time>2023-06-03T08:33:57.310</time></trkpt><trkpt lat="55.9083483" lon="49.2030983"><time>2023-06-03T08:33:59.307</time></trkpt><trkpt lat="55.9083983" lon="49.2031183"><time>2023-06-03T08:34:16.320</time></trkpt><trkpt lat="55.9084450" lon="49.2031567"><time>2023-06-03T08:34:18.323</time></trkpt><trkpt lat="55.9085100" lon="49.2031800"><time>2023-06-03T08:34:20.323</time></trkpt><trkpt lat="55.9085900" lon="49.2031967"><time>2023-06-03T08:34:22.323</time></trkpt><trkpt lat="55.9086750" lon="49.2031983"><time>2023-06-03T08:34:24.323</time></trkpt><trkpt lat="55.9087433" lon="49.2032233"><time>2023-06-03T08:34:26.323</time></trkpt><trkpt lat="55.9087900" lon="49.2032633"><time>2023-06-03T08:34:29.317</time></trkpt><trkpt lat="55.9087550" lon="49.2031933"><time>2023-06-03T08:34:39.317</time></trkpt><trkpt lat="55.9087417" lon="49.2030983"><time>2023-06-03T08:34:42.323</time></trkpt><trkpt lat="55.9087667" lon="49.2030283"><time>2023-06-03T08:34:44.323</time></trkpt><trkpt lat="55.9088217" lon="49.2029667"><time>2023-06-03T08:34:46.333</time></trkpt><trkpt lat="55.9088217" lon="49.2029650"><time>2023-06-03T08:34:47.813</time></trkpt><trkpt lat="55.9088700" lon="49.2029150"><time>2023-06-03T08:34:51.310</time></trkpt><trkpt lat="55.9089133" lon="49.2028467"><time>2023-06-03T08:34:55.310</time></trkpt><trkpt lat="55.9089450" lon="49.2027617"><time>2023-06-03T08:34:58.313</time></trkpt><trkpt lat="55.9089633" lon="49.2026800"><time>2023-06-03T08:35:00.313</time></trkpt><trkpt lat="55.9089883" lon="49.2026033"><time>2023-06-03T08:35:02.313</time></trkpt><trkpt lat="55.9090450" lon="49.2024917"><time>2023-06-03T08:35:04.287</time></trkpt><trkpt lat="55.9090617" lon="49.2024067"><time>2023-06-03T08:35:06.307</time></trkpt><trkpt lat="55.9090933" lon="49.2022367"><time>2023-06-03T08:35:10.333</time></trkpt><trkpt lat="55.9090950" lon="49.2022350"><time>2023-06-03T08:35:11.827</time></trkpt><trkpt lat="55.9091100" lon="49.2021317"><time>2023-06-03T08:35:13.803</time></trkpt><trkpt lat="55.9091467" lon="49.2019767"><time>2023-06-03T08:35:16.307</time></trkpt><trkpt lat="55.9091717" lon="49.2018367"><time>2023-06-03T08:35:18.310</time></trkpt><trkpt lat="55.9091883" lon="49.2017417"><time>2023-06-03T08:35:21.300</time></trkpt><trkpt lat="55.9092350" lon="49.2017717"><time>2023-06-03T08:35:26.320</time></trkpt><trkpt lat="55.9092350" lon="49.2017717"><time>2023-06-03T08:35:26.363</time></trkpt><trkpt lat="55.9092333" lon="49.2018617"><time>2023-06-03T08:35:31.327</time></trkpt><trkpt lat="55.9092333" lon="49.2018617"><time>2023-06-03T08:35:33.297</time></trkpt><trkpt lat="55.9091967" lon="49.2019283"><time>2023-06-03T08:35:40.320</time></trkpt><trkpt lat="55.9091917" lon="49.2020233"><time>2023-06-03T08:35:56.310</time></trkpt><trkpt lat="55.9091783" lon="49.2021000"><time>2023-06-03T08:35:59.317</time></trkpt><trkpt lat="55.9091483" lon="49.2022017"><time>2023-06-03T08:36:02.323</time></trkpt><trkpt lat="55.9091233" lon="49.2022783"><time>2023-06-03T08:36:04.327</time></trkpt><trkpt lat="55.9090983" lon="49.2023683"><time>2023-06-03T08:36:06.323</time></trkpt><trkpt lat="55.9090683" lon="49.2024617"><time>2023-06-03T08:36:08.310</time></trkpt><trkpt lat="55.9090200" lon="49.2025500"><time>2023-06-03T08:36:10.323</time></trkpt><trkpt lat="55.9089633" lon="49.2026567"><time>2023-06-03T08:36:12.327</time></trkpt><trkpt lat="55.9089117" lon="49.2027583"><time>2023-06-03T08:36:14.327</time></trkpt><trkpt lat="55.9088617" lon="49.2028367"><time>2023-06-03T08:36:16.320</time></trkpt><trkpt lat="55.9088233" lon="49.2029000"><time>2023-06-03T08:36:18.313</time></trkpt><trkpt lat="55.9087717" lon="49.2030017"><time>2023-06-03T08:36:21.320</time></trkpt><trkpt lat="55.9087067" lon="49.2030467"><time>2023-06-03T08:36:23.310</time></trkpt><trkpt lat="55.9086400" lon="49.2030800"><time>2023-06-03T08:36:25.320</time></trkpt><trkpt lat="55.9085833" lon="49.2031117"><time>2023-06-03T08:36:27.320</time></trkpt><trkpt lat="55.9085283" lon="49.2031317"><time>2023-06-03T08:36:29.317</time></trkpt><trkpt lat="55.9084733" lon="49.2031183"><time>2023-06-03T08:36:31.317</time></trkpt><trkpt lat="55.9084117" lon="49.2031133"><time>2023-06-03T08:36:33.323</time></trkpt><trkpt lat="55.9083567" lon="49.2030833"><time>2023-06-03T08:36:35.320</time></trkpt><trkpt lat="55.9082983" lon="49.2030550"><time>2023-06-03T08:36:37.287</time></trkpt><trkpt lat="55.9082300" lon="49.2030467"><time>2023-06-03T08:36:39.280</time></trkpt><trkpt lat="55.9081500" lon="49.2030350"><time>2023-06-03T08:36:41.307</time></trkpt><trkpt lat="55.9080800" lon="49.2030667"><time>2023-06-03T08:36:43.307</time></trkpt><trkpt lat="55.9080183" lon="49.2031100"><time>2023-06-03T08:36:45.310</time></trkpt><trkpt lat="55.9079567" lon="49.2031417"><time>2023-06-03T08:36:47.313</time></trkpt><trkpt lat="55.9078717" lon="49.2031533"><time>2023-06-03T08:36:49.313</time></trkpt><trkpt lat="55.9077967" lon="49.2031617"><time>2023-06-03T08:36:51.320</time></trkpt><trkpt lat="55.9077483" lon="49.2031833"><time>2023-06-03T08:36:52.320</time></trkpt><trkpt lat="55.9076567" lon="49.2032283"><time>2023-06-03T08:36:54.320</time></trkpt><trkpt lat="55.9075783" lon="49.2032600"><time>2023-06-03T08:36:56.310</time></trkpt><trkpt lat="55.9074933" lon="49.2032983"><time>2023-06-03T08:36:58.320</time></trkpt><trkpt lat="55.9074467" lon="49.2033200"><time>2023-06-03T08:36:59.320</time></trkpt><trkpt lat="55.9074000" lon="49.2033367"><time>2023-06-03T08:37:00.320</time></trkpt><trkpt lat="55.9073100" lon="49.2033533"><time>2023-06-03T08:37:02.323</time></trkpt><trkpt lat="55.9072183" lon="49.2033733"><time>2023-06-03T08:37:04.317</time></trkpt><trkpt lat="55.9071733" lon="49.2033833"><time>2023-06-03T08:37:05.320</time></trkpt><trkpt lat="55.9071250" lon="49.2033883"><time>2023-06-03T08:37:06.323</time></trkpt><trkpt lat="55.9070800" lon="49.2033983"><time>2023-06-03T08:37:07.317</time></trkpt><trkpt lat="55.9070300" lon="49.2034100"><time>2023-06-03T08:37:08.317</time></trkpt><trkpt lat="55.9069833" lon="49.2034150"><time>2023-06-03T08:37:09.317</time></trkpt><trkpt lat="55.9069383" lon="49.2034117"><time>2023-06-03T08:37:10.320</time></trkpt><trkpt lat="55.9068483" lon="49.2033833"><time>2023-06-03T08:37:12.323</time></trkpt><trkpt lat="55.9068050" lon="49.2033550"><time>2023-06-03T08:37:13.317</time></trkpt><trkpt lat="55.9067633" lon="49.2033217"><time>2023-06-03T08:37:14.320</time></trkpt><trkpt lat="55.9067217" lon="49.2032833"><time>2023-06-03T08:37:15.320</time></trkpt><trkpt lat="55.9066833" lon="49.2032417"><time>2023-06-03T08:37:16.320</time></trkpt><trkpt lat="55.9066417" lon="49.2032083"><time>2023-06-03T08:37:17.323</time></trkpt><trkpt lat="55.9065583" lon="49.2031550"><time>2023-06-03T08:37:19.317</time></trkpt><trkpt lat="55.9064683" lon="49.2031250"><time>2023-06-03T08:37:21.320</time></trkpt><trkpt lat="55.9064217" lon="49.2031200"><time>2023-06-03T08:37:22.320</time></trkpt><trkpt lat="55.9063733" lon="49.2031200"><time>2023-06-03T08:37:23.320</time></trkpt><trkpt lat="55.9063233" lon="49.2031217"><time>2023-06-03T08:37:24.323</time></trkpt><trkpt lat="55.9062733" lon="49.2031200"><time>2023-06-03T08:37:25.323</time></trkpt><trkpt lat="55.9062233" lon="49.2031167"><time>2023-06-03T08:37:26.323</time></trkpt><trkpt lat="55.9061733" lon="49.2031150"><time>2023-06-03T08:37:27.320</time></trkpt><trkpt lat="55.9061200" lon="49.2031050"><time>2023-06-03T08:37:28.320</time></trkpt><trkpt lat="55.9060667" lon="49.2030933"><time>2023-06-03T08:37:29.323</time></trkpt><trkpt lat="55.9060100" lon="49.2030850"><time>2023-06-03T08:37:30.323</time></trkpt><trkpt lat="55.9059550" lon="49.2030783"><time>2023-06-03T08:37:31.320</time></trkpt><trkpt lat="55.9059083" lon="49.2030833"><time>2023-06-03T08:37:32.320</time></trkpt><trkpt lat="55.9058550" lon="49.2031017"><time>2023-06-03T08:37:33.320</time></trkpt><trkpt lat="55.9058083" lon="49.2031367"><time>2023-06-03T08:37:34.320</time></trkpt><trkpt lat="55.9057633" lon="49.2031900"><time>2023-06-03T08:37:35.317</time></trkpt><trkpt lat="55.9057233" lon="49.2032517"><time>2023-06-03T08:37:36.323</time></trkpt><trkpt lat="55.9056883" lon="49.2033283"><time>2023-06-03T08:37:37.320</time></trkpt><trkpt lat="55.9056583" lon="49.2034100"><time>2023-06-03T08:37:38.320</time></trkpt><trkpt lat="55.9056317" lon="49.2034933"><time>2023-06-03T08:37:39.320</time></trkpt><trkpt lat="55.9056117" lon="49.2035817"><time>2023-06-03T08:37:40.290</time></trkpt><trkpt lat="55.9055967" lon="49.2036733"><time>2023-06-03T08:37:41.310</time></trkpt><trkpt lat="55.9055850" lon="49.2037617"><time>2023-06-03T08:37:42.320</time></trkpt><trkpt lat="55.9055700" lon="49.2038517"><time>2023-06-03T08:37:43.320</time></trkpt><trkpt lat="55.9055567" lon="49.2039417"><time>2023-06-03T08:37:44.320</time></trkpt><trkpt lat="55.9055400" lon="49.2040267"><time>2023-06-03T08:37:45.320</time></trkpt><trkpt lat="55.9055217" lon="49.2041117"><time>2023-06-03T08:37:46.317</time></trkpt><trkpt lat="55.9055033" lon="49.2042000"><time>2023-06-03T08:37:47.313</time></trkpt><trkpt lat="55.9054850" lon="49.2042833"><time>2023-06-03T08:37:48.317</time></trkpt><trkpt lat="55.9054633" lon="49.2043583"><time>2023-06-03T08:37:49.323</time></trkpt><trkpt lat="55.9054400" lon="49.2044300"><time>2023-06-03T08:37:50.320</time></trkpt><trkpt lat="55.9054117" lon="49.2044983"><time>2023-06-03T08:37:51.320</time></trkpt><trkpt lat="55.9053767" lon="49.2045600"><time>2023-06-03T08:37:52.320</time></trkpt><trkpt lat="55.9053417" lon="49.2046167"><time>2023-06-03T08:37:53.323</time></trkpt><trkpt lat="55.9053050" lon="49.2046683"><time>2023-06-03T08:37:54.300</time></trkpt><trkpt lat="55.9052333" lon="49.2047583"><time>2023-06-03T08:37:56.317</time></trkpt><trkpt lat="55.9051950" lon="49.2048050"><time>2023-06-03T08:37:57.317</time></trkpt><trkpt lat="55.9051550" lon="49.2048500"><time>2023-06-03T08:37:58.320</time></trkpt><trkpt lat="55.9051117" lon="49.2048917"><time>2023-06-03T08:37:59.323</time></trkpt><trkpt lat="55.9050700" lon="49.2049333"><time>2023-06-03T08:38:00.317</time></trkpt><trkpt lat="55.9050300" lon="49.2049800"><time>2023-06-03T08:38:01.323</time></trkpt><trkpt lat="55.9049917" lon="49.2050283"><time>2023-06-03T08:38:02.323</time></trkpt><trkpt lat="55.9049517" lon="49.2050767"><time>2023-06-03T08:38:03.317</time></trkpt><trkpt lat="55.9049100" lon="49.2051133"><time>2023-06-03T08:38:04.317</time></trkpt><trkpt lat="55.9048667" lon="49.2051517"><time>2023-06-03T08:38:05.317</time></trkpt><trkpt lat="55.9048267" lon="49.2051917"><time>2023-06-03T08:38:06.293</time></trkpt><trkpt lat="55.9047850" lon="49.2052350"><time>2023-06-03T08:38:07.313</time></trkpt><trkpt lat="55.9047433" lon="49.2052783"><time>2023-06-03T08:38:08.310</time></trkpt><trkpt lat="55.9047017" lon="49.2053267"><time>2023-06-03T08:38:09.317</time></trkpt><trkpt lat="55.9046617" lon="49.2053750"><time>2023-06-03T08:38:10.317</time></trkpt><trkpt lat="55.9046217" lon="49.2054183"><time>2023-06-03T08:38:11.317</time></trkpt><trkpt lat="55.9045800" lon="49.2054617"><time>2023-06-03T08:38:12.320</time></trkpt><trkpt lat="55.9045083" lon="49.2055567"><time>2023-06-03T08:38:14.320</time></trkpt><trkpt lat="55.9044783" lon="49.2056167"><time>2023-06-03T08:38:15.317</time></trkpt><trkpt lat="55.9044400" lon="49.2057633"><time>2023-06-03T08:38:17.320</time></trkpt><trkpt lat="55.9044033" lon="49.2059033"><time>2023-06-03T08:38:19.317</time></trkpt><trkpt lat="55.9043867" lon="49.2059783"><time>2023-06-03T08:38:20.320</time></trkpt><trkpt lat="55.9043717" lon="49.2060600"><time>2023-06-03T08:38:21.297</time></trkpt><trkpt lat="55.9043583" lon="49.2062000"><time>2023-06-03T08:38:23.307</time></trkpt><trkpt lat="55.9043683" lon="49.2062900"><time>2023-06-03T08:38:25.327</time></trkpt><trkpt lat="55.9044033" lon="49.2063633"><time>2023-06-03T08:38:27.320</time></trkpt><trkpt lat="55.9044550" lon="49.2064300"><time>2023-06-03T08:38:29.320</time></trkpt><trkpt lat="55.9044917" lon="49.2065083"><time>2023-06-03T08:38:31.317</time></trkpt><trkpt lat="55.9045200" lon="49.2065850"><time>2023-06-03T08:38:33.317</time></trkpt><trkpt lat="55.9045467" lon="49.2066817"><time>2023-06-03T08:38:35.320</time></trkpt><trkpt lat="55.9045567" lon="49.2067917"><time>2023-06-03T08:38:37.317</time></trkpt><trkpt lat="55.9045950" lon="49.2069633"><time>2023-06-03T08:38:39.317</time></trkpt><trkpt lat="55.9046167" lon="49.2070450"><time>2023-06-03T08:38:40.313</time></trkpt><trkpt lat="55.9046283" lon="49.2071267"><time>2023-06-03T08:38:41.317</time></trkpt><trkpt lat="55.9046383" lon="49.2072100"><time>2023-06-03T08:38:42.317</time></trkpt><trkpt lat="55.9046783" lon="49.2073417"><time>2023-06-03T08:38:44.317</time></trkpt><trkpt lat="55.9047050" lon="49.2074267"><time>2023-06-03T08:38:45.317</time></trkpt><trkpt lat="55.9047267" lon="49.2075133"><time>2023-06-03T08:38:46.317</time></trkpt><trkpt lat="55.9047467" lon="49.2075900"><time>2023-06-03T08:38:47.320</time></trkpt><trkpt lat="55.9047733" lon="49.2076783"><time>2023-06-03T08:38:48.317</time></trkpt><trkpt lat="55.9047983" lon="49.2077650"><time>2023-06-03T08:38:49.317</time></trkpt><trkpt lat="55.9048233" lon="49.2078317"><time>2023-06-03T08:38:50.317</time></trkpt><trkpt lat="55.9048667" lon="49.2079633"><time>2023-06-03T08:38:52.317</time></trkpt><trkpt lat="55.9048983" lon="49.2081183"><time>2023-06-03T08:38:54.317</time></trkpt><trkpt lat="55.9049183" lon="49.2081967"><time>2023-06-03T08:38:55.320</time></trkpt><trkpt lat="55.9049450" lon="49.2082717"><time>2023-06-03T08:38:56.317</time></trkpt><trkpt lat="55.9049733" lon="49.2083450"><time>2023-06-03T08:38:57.317</time></trkpt><trkpt lat="55.9050033" lon="49.2084217"><time>2023-06-03T08:38:58.317</time></trkpt><trkpt lat="55.9050283" lon="49.2084933"><time>2023-06-03T08:38:59.317</time></trkpt><trkpt lat="55.9050467" lon="49.2085733"><time>2023-06-03T08:39:00.320</time></trkpt><trkpt lat="55.9050683" lon="49.2086483"><time>2023-06-03T08:39:01.320</time></trkpt><trkpt lat="55.9050967" lon="49.2087117"><time>2023-06-03T08:39:02.317</time></trkpt><trkpt lat="55.9051500" lon="49.2088267"><time>2023-06-03T08:39:04.320</time></trkpt><trkpt lat="55.9052017" lon="49.2089383"><time>2023-06-03T08:39:06.307</time></trkpt><trkpt lat="55.9052333" lon="49.2090000"><time>2023-06-03T08:39:07.317</time></trkpt><trkpt lat="55.9053067" lon="49.2090950"><time>2023-06-03T08:39:09.323</time></trkpt><trkpt lat="55.9053817" lon="49.2091983"><time>2023-06-03T08:39:11.320</time></trkpt><trkpt lat="55.9054233" lon="49.2092483"><time>2023-06-03T08:39:12.320</time></trkpt><trkpt lat="55.9054700" lon="49.2093083"><time>2023-06-03T08:39:13.320</time></trkpt><trkpt lat="55.9055667" lon="49.2094183"><time>2023-06-03T08:39:15.317</time></trkpt><trkpt lat="55.9056150" lon="49.2094900"><time>2023-06-03T08:39:16.317</time></trkpt><trkpt lat="55.9056667" lon="49.2095583"><time>2023-06-03T08:39:17.313</time></trkpt><trkpt lat="55.9057233" lon="49.2096100"><time>2023-06-03T08:39:18.327</time></trkpt><trkpt lat="55.9057717" lon="49.2096567"><time>2023-06-03T08:39:19.317</time></trkpt><trkpt lat="55.9058233" lon="49.2097050"><time>2023-06-03T08:39:20.317</time></trkpt><trkpt lat="55.9058667" lon="49.2097550"><time>2023-06-03T08:39:21.317</time></trkpt><trkpt lat="55.9059067" lon="49.2097983"><time>2023-06-03T08:39:22.293</time></trkpt><trkpt lat="55.9059483" lon="49.2098433"><time>2023-06-03T08:39:23.317</time></trkpt><trkpt lat="55.9059933" lon="49.2098950"><time>2023-06-03T08:39:24.313</time></trkpt><trkpt lat="55.9060317" lon="49.2099450"><time>2023-06-03T08:39:25.317</time></trkpt><trkpt lat="55.9061017" lon="49.2100350"><time>2023-06-03T08:39:27.303</time></trkpt><trkpt lat="55.9061817" lon="49.2101133"><time>2023-06-03T08:39:29.320</time></trkpt><trkpt lat="55.9062250" lon="49.2101550"><time>2023-06-03T08:39:30.323</time></trkpt><trkpt lat="55.9062717" lon="49.2101833"><time>2023-06-03T08:39:31.317</time></trkpt><trkpt lat="55.9063183" lon="49.2102200"><time>2023-06-03T08:39:32.317</time></trkpt><trkpt lat="55.9063633" lon="49.2102583"><time>2023-06-03T08:39:33.313</time></trkpt><trkpt lat="55.9064100" lon="49.2103033"><time>2023-06-03T08:39:34.307</time></trkpt><trkpt lat="55.9064533" lon="49.2103417"><time>2023-06-03T08:39:35.320</time></trkpt><trkpt lat="55.9065383" lon="49.2104000"><time>2023-06-03T08:39:37.300</time></trkpt><trkpt lat="55.9065833" lon="49.2104250"><time>2023-06-03T08:39:38.317</time></trkpt><trkpt lat="55.9066283" lon="49.2104400"><time>2023-06-03T08:39:39.313</time></trkpt><trkpt lat="55.9066767" lon="49.2104567"><time>2023-06-03T08:39:40.313</time></trkpt><trkpt lat="55.9067233" lon="49.2104817"><time>2023-06-03T08:39:41.317</time></trkpt><trkpt lat="55.9067717" lon="49.2105083"><time>2023-06-03T08:39:42.317</time></trkpt><trkpt lat="55.9068183" lon="49.2105333"><time>2023-06-03T08:39:43.320</time></trkpt><trkpt lat="55.9068683" lon="49.2105567"><time>2023-06-03T08:39:44.323</time></trkpt><trkpt lat="55.9069217" lon="49.2105783"><time>2023-06-03T08:39:45.323</time></trkpt><trkpt lat="55.9069750" lon="49.2106000"><time>2023-06-03T08:39:46.317</time></trkpt><trkpt lat="55.9070317" lon="49.2106267"><time>2023-06-03T08:39:47.320</time></trkpt><trkpt lat="55.9070850" lon="49.2106517"><time>2023-06-03T08:39:48.317</time></trkpt><trkpt lat="55.9071383" lon="49.2106783"><time>2023-06-03T08:39:49.313</time></trkpt><trkpt lat="55.9071900" lon="49.2107050"><time>2023-06-03T08:39:50.323</time></trkpt><trkpt lat="55.9072383" lon="49.2107317"><time>2023-06-03T08:39:51.323</time></trkpt><trkpt lat="55.9072850" lon="49.2107567"><time>2023-06-03T08:39:52.323</time></trkpt><trkpt lat="55.9073317" lon="49.2107800"><time>2023-06-03T08:39:53.320</time></trkpt><trkpt lat="55.9074167" lon="49.2108317"><time>2023-06-03T08:39:55.323</time></trkpt><trkpt lat="55.9074633" lon="49.2108617"><time>2023-06-03T08:39:56.317</time></trkpt><trkpt lat="55.9075150" lon="49.2108867"><time>2023-06-03T08:39:57.317</time></trkpt><trkpt lat="55.9075617" lon="49.2109100"><time>2023-06-03T08:39:58.323</time></trkpt><trkpt lat="55.9076083" lon="49.2109400"><time>2023-06-03T08:39:59.327</time></trkpt><trkpt lat="55.9076550" lon="49.2109800"><time>2023-06-03T08:40:00.327</time></trkpt><trkpt lat="55.9077017" lon="49.2110283"><time>2023-06-03T08:40:01.317</time></trkpt><trkpt lat="55.9077483" lon="49.2110817"><time>2023-06-03T08:40:02.317</time></trkpt><trkpt lat="55.9077933" lon="49.2111433"><time>2023-06-03T08:40:03.317</time></trkpt><trkpt lat="55.9078367" lon="49.2112150"><time>2023-06-03T08:40:04.313</time></trkpt><trkpt lat="55.9078733" lon="49.2112950"><time>2023-06-03T08:40:05.320</time></trkpt><trkpt lat="55.9079233" lon="49.2113917"><time>2023-06-03T08:40:06.320</time></trkpt><trkpt lat="55.9079750" lon="49.2114800"><time>2023-06-03T08:40:07.320</time></trkpt><trkpt lat="55.9080350" lon="49.2115717"><time>2023-06-03T08:40:08.323</time></trkpt><trkpt lat="55.9080983" lon="49.2116667"><time>2023-06-03T08:40:09.320</time></trkpt><trkpt lat="55.9081483" lon="49.2117650"><time>2023-06-03T08:40:10.327</time></trkpt><trkpt lat="55.9081933" lon="49.2118517"><time>2023-06-03T08:40:11.320</time></trkpt><trkpt lat="55.9082450" lon="49.2119267"><time>2023-06-03T08:40:12.320</time></trkpt><trkpt lat="55.9082833" lon="49.2119983"><time>2023-06-03T08:40:13.320</time></trkpt><trkpt lat="55.9083350" lon="49.2120783"><time>2023-06-03T08:40:14.320</time></trkpt><trkpt lat="55.9083783" lon="49.2121517"><time>2023-06-03T08:40:15.320</time></trkpt><trkpt lat="55.9084167" lon="49.2122167"><time>2023-06-03T08:40:16.320</time></trkpt><trkpt lat="55.9084517" lon="49.2122733"><time>2023-06-03T08:40:17.297</time></trkpt><trkpt lat="55.9084967" lon="49.2123383"><time>2023-06-03T08:40:18.310</time></trkpt><trkpt lat="55.9085350" lon="49.2123933"><time>2023-06-03T08:40:19.323</time></trkpt><trkpt lat="55.9085867" lon="49.2124983"><time>2023-06-03T08:40:21.317</time></trkpt><trkpt lat="55.9086367" lon="49.2125917"><time>2023-06-03T08:40:23.320</time></trkpt><trkpt lat="55.9086717" lon="49.2126467"><time>2023-06-03T08:40:24.323</time></trkpt><trkpt lat="55.9087067" lon="49.2127133"><time>2023-06-03T08:40:25.317</time></trkpt><trkpt lat="55.9087350" lon="49.2127767"><time>2023-06-03T08:40:26.320</time></trkpt><trkpt lat="55.9087867" lon="49.2128950"><time>2023-06-03T08:40:28.317</time></trkpt><trkpt lat="55.9088217" lon="49.2129617"><time>2023-06-03T08:40:29.320</time></trkpt><trkpt lat="55.9088583" lon="49.2130383"><time>2023-06-03T08:40:30.317</time></trkpt><trkpt lat="55.9088917" lon="49.2131183"><time>2023-06-03T08:40:31.317</time></trkpt><trkpt lat="55.9089233" lon="49.2131917"><time>2023-06-03T08:40:32.320</time></trkpt><trkpt lat="55.9089750" lon="49.2133100"><time>2023-06-03T08:40:34.283</time></trkpt><trkpt lat="55.9090300" lon="49.2134150"><time>2023-06-03T08:40:36.320</time></trkpt><trkpt lat="55.9090650" lon="49.2134933"><time>2023-06-03T08:40:37.320</time></trkpt><trkpt lat="55.9091067" lon="49.2135500"><time>2023-06-03T08:40:38.320</time></trkpt><trkpt lat="55.9091417" lon="49.2136100"><time>2023-06-03T08:40:39.317</time></trkpt><trkpt lat="55.9091983" lon="49.2137217"><time>2023-06-03T08:40:41.317</time></trkpt><trkpt lat="55.9092683" lon="49.2138317"><time>2023-06-03T08:40:43.320</time></trkpt><trkpt lat="55.9093333" lon="49.2139267"><time>2023-06-03T08:40:45.320</time></trkpt><trkpt lat="55.9093683" lon="49.2139817"><time>2023-06-03T08:40:46.320</time></trkpt><trkpt lat="55.9094000" lon="49.2140517"><time>2023-06-03T08:40:47.317</time></trkpt><trkpt lat="55.9094233" lon="49.2141217"><time>2023-06-03T08:40:48.320</time></trkpt><trkpt lat="55.9094467" lon="49.2142567"><time>2023-06-03T08:40:50.323</time></trkpt><trkpt lat="55.9094100" lon="49.2143733"><time>2023-06-03T08:40:52.317</time></trkpt><trkpt lat="55.9093583" lon="49.2144983"><time>2023-06-03T08:40:54.320</time></trkpt><trkpt lat="55.9093267" lon="49.2145633"><time>2023-06-03T08:40:55.323</time></trkpt><trkpt lat="55.9092967" lon="49.2146317"><time>2023-06-03T08:40:56.313</time></trkpt><trkpt lat="55.9092667" lon="49.2147033"><time>2023-06-03T08:40:57.330</time></trkpt><trkpt lat="55.9092417" lon="49.2147783"><time>2023-06-03T08:40:58.320</time></trkpt><trkpt lat="55.9092200" lon="49.2148517"><time>2023-06-03T08:40:59.320</time></trkpt><trkpt lat="55.9091700" lon="49.2149833"><time>2023-06-03T08:41:01.320</time></trkpt><trkpt lat="55.9091483" lon="49.2150633"><time>2023-06-03T08:41:02.320</time></trkpt><trkpt lat="55.9091350" lon="49.2151450"><time>2023-06-03T08:41:03.323</time></trkpt><trkpt lat="55.9091183" lon="49.2152267"><time>2023-06-03T08:41:04.300</time></trkpt><trkpt lat="55.9091033" lon="49.2153150"><time>2023-06-03T08:41:05.307</time></trkpt><trkpt lat="55.9090850" lon="49.2154117"><time>2023-06-03T08:41:06.317</time></trkpt><trkpt lat="55.9090667" lon="49.2155017"><time>2023-06-03T08:41:07.313</time></trkpt><trkpt lat="55.9090450" lon="49.2155817"><time>2023-06-03T08:41:08.323</time></trkpt><trkpt lat="55.9090300" lon="49.2156750"><time>2023-06-03T08:41:09.320</time></trkpt><trkpt lat="55.9090117" lon="49.2157633"><time>2023-06-03T08:41:10.320</time></trkpt><trkpt lat="55.9089900" lon="49.2158433"><time>2023-06-03T08:41:11.317</time></trkpt><trkpt lat="55.9089767" lon="49.2159250"><time>2023-06-03T08:41:12.313</time></trkpt><trkpt lat="55.9089600" lon="49.2160083"><time>2023-06-03T08:41:13.317</time></trkpt><trkpt lat="55.9089400" lon="49.2160917"><time>2023-06-03T08:41:14.323</time></trkpt><trkpt lat="55.9089200" lon="49.2161800"><time>2023-06-03T08:41:15.317</time></trkpt><trkpt lat="55.9089117" lon="49.2162883"><time>2023-06-03T08:41:16.320</time></trkpt><trkpt lat="55.9089033" lon="49.2163750"><time>2023-06-03T08:41:17.320</time></trkpt><trkpt lat="55.9088933" lon="49.2164667"><time>2023-06-03T08:41:18.320</time></trkpt><trkpt lat="55.9088867" lon="49.2165683"><time>2023-06-03T08:41:19.320</time></trkpt><trkpt lat="55.9088633" lon="49.2167350"><time>2023-06-03T08:41:21.320</time></trkpt><trkpt lat="55.9088533" lon="49.2168433"><time>2023-06-03T08:41:22.317</time></trkpt><trkpt lat="55.9088450" lon="49.2169417"><time>2023-06-03T08:41:23.317</time></trkpt><trkpt lat="55.9088367" lon="49.2170300"><time>2023-06-03T08:41:24.297</time></trkpt><trkpt lat="55.9088267" lon="49.2171100"><time>2023-06-03T08:41:25.310</time></trkpt><trkpt lat="55.9087750" lon="49.2172250"><time>2023-06-03T08:41:27.317</time></trkpt><trkpt lat="55.9087317" lon="49.2172767"><time>2023-06-03T08:41:28.320</time></trkpt><trkpt lat="55.9086883" lon="49.2173067"><time>2023-06-03T08:41:29.317</time></trkpt><trkpt lat="55.9086167" lon="49.2173800"><time>2023-06-03T08:41:31.320</time></trkpt><trkpt lat="55.9085450" lon="49.2174317"><time>2023-06-03T08:41:33.320</time></trkpt><trkpt lat="55.9085033" lon="49.2174667"><time>2023-06-03T08:41:34.317</time></trkpt><trkpt lat="55.9084633" lon="49.2175083"><time>2023-06-03T08:41:35.320</time></trkpt><trkpt lat="55.9084217" lon="49.2175417"><time>2023-06-03T08:41:36.317</time></trkpt><trkpt lat="55.9083817" lon="49.2175783"><time>2023-06-03T08:41:37.323</time></trkpt><trkpt lat="55.9083067" lon="49.2176583"><time>2023-06-03T08:41:39.320</time></trkpt><trkpt lat="55.9082633" lon="49.2176883"><time>2023-06-03T08:41:40.320</time></trkpt><trkpt lat="55.9082150" lon="49.2177283"><time>2023-06-03T08:41:41.320</time></trkpt><trkpt lat="55.9081683" lon="49.2177817"><time>2023-06-03T08:41:42.320</time></trkpt><trkpt lat="55.9081217" lon="49.2178333"><time>2023-06-03T08:41:43.317</time></trkpt><trkpt lat="55.9080350" lon="49.2179017"><time>2023-06-03T08:41:45.320</time></trkpt><trkpt lat="55.9079900" lon="49.2179417"><time>2023-06-03T08:41:46.313</time></trkpt><trkpt lat="55.9079450" lon="49.2179983"><time>2023-06-03T08:41:47.323</time></trkpt><trkpt lat="55.9079017" lon="49.2180533"><time>2023-06-03T08:41:48.323</time></trkpt><trkpt lat="55.9078583" lon="49.2181050"><time>2023-06-03T08:41:49.323</time></trkpt><trkpt lat="55.9078217" lon="49.2181683"><time>2023-06-03T08:41:50.323</time></trkpt><trkpt lat="55.9077783" lon="49.2182150"><time>2023-06-03T08:41:51.320</time></trkpt><trkpt lat="55.9077383" lon="49.2182533"><time>2023-06-03T08:41:52.323</time></trkpt><trkpt lat="55.9076967" lon="49.2182867"><time>2023-06-03T08:41:53.320</time></trkpt><trkpt lat="55.9076183" lon="49.2183400"><time>2023-06-03T08:41:55.320</time></trkpt><trkpt lat="55.9075433" lon="49.2184117"><time>2023-06-03T08:41:57.293</time></trkpt><trkpt lat="55.9074967" lon="49.2184433"><time>2023-06-03T08:41:58.307</time></trkpt><trkpt lat="55.9074183" lon="49.2184517"><time>2023-06-03T08:42:00.320</time></trkpt><trkpt lat="55.9073617" lon="49.2184533"><time>2023-06-03T08:42:02.333</time></trkpt><trkpt lat="55.9070417" lon="49.2186750"><time>2023-06-03T08:42:03.300</time></trkpt><trkpt lat="55.9072150" lon="49.2187000"><time>2023-06-03T08:42:03.777</time></trkpt><trkpt lat="55.9072283" lon="49.2186217"><time>2023-06-03T08:42:04.297</time></trkpt><trkpt lat="55.9072867" lon="49.2186467"><time>2023-06-03T08:42:05.810</time></trkpt><trkpt lat="55.9072883" lon="49.2187267"><time>2023-06-03T08:42:08.310</time></trkpt><trkpt lat="55.9072717" lon="49.2188217"><time>2023-06-03T08:42:11.310</time></trkpt><trkpt lat="55.9072317" lon="49.2188650"><time>2023-06-03T08:42:15.310</time></trkpt><trkpt lat="55.9071850" lon="49.2189217"><time>2023-06-03T08:42:26.283</time></trkpt><trkpt lat="55.9071383" lon="49.2189633"><time>2023-06-03T08:42:29.290</time></trkpt><trkpt lat="55.9070883" lon="49.2190167"><time>2023-06-03T08:42:32.280</time></trkpt><trkpt lat="55.9070433" lon="49.2190583"><time>2023-06-03T08:42:34.277</time></trkpt><trkpt lat="55.9070033" lon="49.2191050"><time>2023-06-03T08:42:36.317</time></trkpt><trkpt lat="55.9069567" lon="49.2191417"><time>2023-06-03T08:42:39.307</time></trkpt><trkpt lat="55.9069083" lon="49.2191800"><time>2023-06-03T08:42:43.317</time></trkpt><trkpt lat="55.9068583" lon="49.2192417"><time>2023-06-03T08:42:46.320</time></trkpt><trkpt lat="55.9068067" lon="49.2193000"><time>2023-06-03T08:42:49.320</time></trkpt><trkpt lat="55.9067500" lon="49.2193483"><time>2023-06-03T08:42:51.323</time></trkpt><trkpt lat="55.9066917" lon="49.2194050"><time>2023-06-03T08:42:53.323</time></trkpt><trkpt lat="55.9066350" lon="49.2194600"><time>2023-06-03T08:42:55.340</time></trkpt><trkpt lat="55.9066350" lon="49.2194600"><time>2023-06-03T08:42:56.327</time></trkpt><trkpt lat="55.9065717" lon="49.2195000"><time>2023-06-03T08:42:58.313</time></trkpt><trkpt lat="55.9065100" lon="49.2195483"><time>2023-06-03T08:42:59.310</time></trkpt><trkpt lat="55.9064533" lon="49.2195783"><time>2023-06-03T08:43:01.307</time></trkpt><trkpt lat="55.9063967" lon="49.2196050"><time>2023-06-03T08:43:04.300</time></trkpt><trkpt lat="55.9063433" lon="49.2196367"><time>2023-06-03T08:43:07.310</time></trkpt><trkpt lat="55.9062917" lon="49.2196267"><time>2023-06-03T08:43:10.313</time></trkpt><trkpt lat="55.9062417" lon="49.2196700"><time>2023-06-03T08:43:13.313</time></trkpt><trkpt lat="55.9062233" lon="49.2197900"><time>2023-06-03T08:43:16.310</time></trkpt><trkpt lat="55.9061900" lon="49.2198650"><time>2023-06-03T08:43:18.313</time></trkpt><trkpt lat="55.9061483" lon="49.2199300"><time>2023-06-03T08:43:20.307</time></trkpt><trkpt lat="55.9061133" lon="49.2199833"><time>2023-06-03T08:43:22.327</time></trkpt><trkpt lat="55.9061133" lon="49.2199833"><time>2023-06-03T08:43:23.297</time></trkpt><trkpt lat="55.9060567" lon="49.2200167"><time>2023-06-03T08:43:27.307</time></trkpt><trkpt lat="55.9060133" lon="49.2200400"><time>2023-06-03T08:43:29.307</time></trkpt><trkpt lat="55.9059800" lon="49.2200983"><time>2023-06-03T08:43:40.310</time></trkpt><trkpt lat="55.9059333" lon="49.2201133"><time>2023-06-03T08:43:47.313</time></trkpt><trkpt lat="55.9058850" lon="49.2201183"><time>2023-06-03T08:43:55.313</time></trkpt><trkpt lat="55.9058400" lon="49.2201233"><time>2023-06-03T08:43:59.333</time></trkpt><trkpt lat="55.9058400" lon="49.2201233"><time>2023-06-03T08:44:00.290</time></trkpt><trkpt lat="55.9057950" lon="49.2201217"><time>2023-06-03T08:44:03.307</time></trkpt><trkpt lat="55.9057733" lon="49.2201983"><time>2023-06-03T08:44:07.307</time></trkpt><trkpt lat="55.9057617" lon="49.2202767"><time>2023-06-03T08:44:11.310</time></trkpt><trkpt lat="55.9057517" lon="49.2203550"><time>2023-06-03T08:44:15.307</time></trkpt><trkpt lat="55.9057517" lon="49.2203550"><time>2023-06-03T08:44:16.287</time></trkpt><trkpt lat="55.9057683" lon="49.2204317"><time>2023-06-03T08:44:21.300</time></trkpt><trkpt lat="55.9058117" lon="49.2204750"><time>2023-06-03T08:44:25.307</time></trkpt><trkpt lat="55.9058417" lon="49.2205367"><time>2023-06-03T08:44:34.307</time></trkpt><trkpt lat="55.9058650" lon="49.2206117"><time>2023-06-03T08:44:38.307</time></trkpt><trkpt lat="55.9058800" lon="49.2207083"><time>2023-06-03T08:44:43.303</time></trkpt><trkpt lat="55.9059133" lon="49.2207717"><time>2023-06-03T08:44:47.313</time></trkpt><trkpt lat="55.9059450" lon="49.2208400"><time>2023-06-03T08:44:51.310</time></trkpt><trkpt lat="55.9059750" lon="49.2209283"><time>2023-06-03T08:44:55.317</time></trkpt><trkpt lat="55.9060183" lon="49.2209750"><time>2023-06-03T08:45:00.323</time></trkpt><trkpt lat="55.9060183" lon="49.2209750"><time>2023-06-03T08:45:00.373</time></trkpt><trkpt lat="55.9059750" lon="49.2209383"><time>2023-06-03T08:45:09.347</time></trkpt><trkpt lat="55.9059667" lon="49.2209233"><time>2023-06-03T08:45:10.310</time></trkpt><trkpt lat="55.9059400" lon="49.2208350"><time>2023-06-03T08:45:14.313</time></trkpt><trkpt lat="55.9059067" lon="49.2207650"><time>2023-06-03T08:45:18.317</time></trkpt><trkpt lat="55.9058733" lon="49.2206800"><time>2023-06-03T08:45:22.310</time></trkpt><trkpt lat="55.9058633" lon="49.2206000"><time>2023-06-03T08:45:30.310</time></trkpt><trkpt lat="55.9058233" lon="49.2205433"><time>2023-06-03T08:46:10.310</time></trkpt><trkpt lat="55.9058033" lon="49.2204617"><time>2023-06-03T08:46:14.313</time></trkpt><trkpt lat="55.9057617" lon="49.2204067"><time>2023-06-03T08:46:18.310</time></trkpt><trkpt lat="55.9057533" lon="49.2203100"><time>2023-06-03T08:46:24.313</time></trkpt><trkpt lat="55.9057667" lon="49.2202133"><time>2023-06-03T08:46:27.310</time></trkpt><trkpt lat="55.9057800" lon="49.2201150"><time>2023-06-03T08:46:29.310</time></trkpt><trkpt lat="55.9057917" lon="49.2200083"><time>2023-06-03T08:46:31.303</time></trkpt><trkpt lat="55.9058133" lon="49.2199000"><time>2023-06-03T08:46:33.307</time></trkpt><trkpt lat="55.9058367" lon="49.2198067"><time>2023-06-03T08:46:35.307</time></trkpt><trkpt lat="55.9058683" lon="49.2197200"><time>2023-06-03T08:46:37.310</time></trkpt><trkpt lat="55.9058967" lon="49.2196300"><time>2023-06-03T08:46:39.310</time></trkpt><trkpt lat="55.9059400" lon="49.2195717"><time>2023-06-03T08:46:41.317</time></trkpt><trkpt lat="55.9059867" lon="49.2195550"><time>2023-06-03T08:46:43.313</time></trkpt><trkpt lat="55.9060383" lon="49.2195583"><time>2023-06-03T08:46:45.310</time></trkpt><trkpt lat="55.9060967" lon="49.2195717"><time>2023-06-03T08:46:47.303</time></trkpt><trkpt lat="55.9061517" lon="49.2195917"><time>2023-06-03T08:46:49.313</time></trkpt><trkpt lat="55.9062100" lon="49.2196050"><time>2023-06-03T08:46:51.303</time></trkpt><trkpt lat="55.9062717" lon="49.2196167"><time>2023-06-03T08:46:53.313</time></trkpt><trkpt lat="55.9063183" lon="49.2196183"><time>2023-06-03T08:46:55.310</time></trkpt><trkpt lat="55.9063683" lon="49.2195967"><time>2023-06-03T08:46:57.307</time></trkpt><trkpt lat="55.9064283" lon="49.2195750"><time>2023-06-03T08:46:59.307</time></trkpt><trkpt lat="55.9064800" lon="49.2195567"><time>2023-06-03T08:47:01.310</time></trkpt><trkpt lat="55.9065367" lon="49.2195400"><time>2023-06-03T08:47:03.307</time></trkpt><trkpt lat="55.9065983" lon="49.2195133"><time>2023-06-03T08:47:05.307</time></trkpt><trkpt lat="55.9066600" lon="49.2194667"><time>2023-06-03T08:47:07.313</time></trkpt><trkpt lat="55.9067167" lon="49.2194167"><time>2023-06-03T08:47:09.313</time></trkpt><trkpt lat="55.9067717" lon="49.2193600"><time>2023-06-03T08:47:11.313</time></trkpt><trkpt lat="55.9068367" lon="49.2192967"><time>2023-06-03T08:47:13.310</time></trkpt><trkpt lat="55.9069050" lon="49.2192250"><time>2023-06-03T08:47:15.310</time></trkpt><trkpt lat="55.9069717" lon="49.2191500"><time>2023-06-03T08:47:17.310</time></trkpt><trkpt lat="55.9070367" lon="49.2190767"><time>2023-06-03T08:47:19.307</time></trkpt><trkpt lat="55.9070933" lon="49.2190200"><time>2023-06-03T08:47:21.313</time></trkpt><trkpt lat="55.9071517" lon="49.2189550"><time>2023-06-03T08:47:23.310</time></trkpt><trkpt lat="55.9072000" lon="49.2188717"><time>2023-06-03T08:47:25.313</time></trkpt><trkpt lat="55.9072250" lon="49.2187883"><time>2023-06-03T08:47:27.303</time></trkpt><trkpt lat="55.9072700" lon="49.2186883"><time>2023-06-03T08:47:29.310</time></trkpt><trkpt lat="55.9073083" lon="49.2186233"><time>2023-06-03T08:47:30.310</time></trkpt><trkpt lat="55.9073667" lon="49.2185667"><time>2023-06-03T08:47:32.317</time></trkpt><trkpt lat="55.9074450" lon="49.2185250"><time>2023-06-03T08:47:34.313</time></trkpt><trkpt lat="55.9075067" lon="49.2184800"><time>2023-06-03T08:47:36.313</time></trkpt><trkpt lat="55.9075683" lon="49.2184200"><time>2023-06-03T08:47:38.317</time></trkpt><trkpt lat="55.9076283" lon="49.2183667"><time>2023-06-03T08:47:40.310</time></trkpt><trkpt lat="55.9076950" lon="49.2183167"><time>2023-06-03T08:47:42.313</time></trkpt><trkpt lat="55.9077500" lon="49.2182617"><time>2023-06-03T08:47:44.310</time></trkpt><trkpt lat="55.9077917" lon="49.2182233"><time>2023-06-03T08:47:45.310</time></trkpt><trkpt lat="55.9078333" lon="49.2181900"><time>2023-06-03T08:47:46.303</time></trkpt><trkpt lat="55.9078850" lon="49.2181283"><time>2023-06-03T08:47:48.310</time></trkpt><trkpt lat="55.9079450" lon="49.2180467"><time>2023-06-03T08:47:50.310</time></trkpt><trkpt lat="55.9080067" lon="49.2179817"><time>2023-06-03T08:47:52.307</time></trkpt><trkpt lat="55.9080583" lon="49.2179350"><time>2023-06-03T08:47:54.313</time></trkpt><trkpt lat="55.9081267" lon="49.2178733"><time>2023-06-03T08:47:56.313</time></trkpt><trkpt lat="55.9081950" lon="49.2178017"><time>2023-06-03T08:47:58.317</time></trkpt><trkpt lat="55.9082533" lon="49.2177283"><time>2023-06-03T08:48:00.313</time></trkpt><trkpt lat="55.9083133" lon="49.2176567"><time>2023-06-03T08:48:02.317</time></trkpt><trkpt lat="55.9083767" lon="49.2175900"><time>2023-06-03T08:48:04.297</time></trkpt><trkpt lat="55.9084650" lon="49.2175333"><time>2023-06-03T08:48:06.317</time></trkpt><trkpt lat="55.9085067" lon="49.2175000"><time>2023-06-03T08:48:07.310</time></trkpt><trkpt lat="55.9085833" lon="49.2174333"><time>2023-06-03T08:48:09.290</time></trkpt><trkpt lat="55.9086617" lon="49.2173633"><time>2023-06-03T08:48:11.310</time></trkpt><trkpt lat="55.9087033" lon="49.2173333"><time>2023-06-03T08:48:12.317</time></trkpt><trkpt lat="55.9087717" lon="49.2172883"><time>2023-06-03T08:48:14.317</time></trkpt><trkpt lat="55.9088233" lon="49.2173083"><time>2023-06-03T08:48:16.310</time></trkpt><trkpt lat="55.9088617" lon="49.2174183"><time>2023-06-03T08:48:18.313</time></trkpt><trkpt lat="55.9088950" lon="49.2175550"><time>2023-06-03T08:48:20.310</time></trkpt><trkpt lat="55.9089117" lon="49.2176333"><time>2023-06-03T08:48:21.303</time></trkpt><trkpt lat="55.9089267" lon="49.2177167"><time>2023-06-03T08:48:22.310</time></trkpt><trkpt lat="55.9089467" lon="49.2178067"><time>2023-06-03T08:48:23.313</time></trkpt><trkpt lat="55.9089633" lon="49.2178900"><time>2023-06-03T08:48:24.313</time></trkpt><trkpt lat="55.9089783" lon="49.2179750"><time>2023-06-03T08:48:25.313</time></trkpt><trkpt lat="55.9089950" lon="49.2180700"><time>2023-06-03T08:48:26.313</time></trkpt><trkpt lat="55.9090133" lon="49.2181550"><time>2023-06-03T08:48:27.310</time></trkpt><trkpt lat="55.9090333" lon="49.2183017"><time>2023-06-03T08:48:29.310</time></trkpt><trkpt lat="55.9090567" lon="49.2184517"><time>2023-06-03T08:48:31.313</time></trkpt><trkpt lat="55.9090717" lon="49.2185383"><time>2023-06-03T08:48:32.317</time></trkpt><trkpt lat="55.9090817" lon="49.2186300"><time>2023-06-03T08:48:33.317</time></trkpt><trkpt lat="55.9090950" lon="49.2187217"><time>2023-06-03T08:48:34.313</time></trkpt><trkpt lat="55.9091150" lon="49.2188117"><time>2023-06-03T08:48:35.313</time></trkpt><trkpt lat="55.9091317" lon="49.2189100"><time>2023-06-03T08:48:36.313</time></trkpt><trkpt lat="55.9091550" lon="49.2190067"><time>2023-06-03T08:48:37.310</time></trkpt><trkpt lat="55.9091667" lon="49.2190967"><time>2023-06-03T08:48:38.310</time></trkpt><trkpt lat="55.9091883" lon="49.2191933"><time>2023-06-03T08:48:39.310</time></trkpt><trkpt lat="55.9092067" lon="49.2192867"><time>2023-06-03T08:48:40.313</time></trkpt><trkpt lat="55.9092283" lon="49.2193817"><time>2023-06-03T08:48:41.310</time></trkpt><trkpt lat="55.9092500" lon="49.2194733"><time>2023-06-03T08:48:42.313</time></trkpt><trkpt lat="55.9092650" lon="49.2195750"><time>2023-06-03T08:48:43.313</time></trkpt><trkpt lat="55.9092867" lon="49.2196683"><time>2023-06-03T08:48:44.313</time></trkpt><trkpt lat="55.9093067" lon="49.2197700"><time>2023-06-03T08:48:45.310</time></trkpt><trkpt lat="55.9093300" lon="49.2198667"><time>2023-06-03T08:48:46.310</time></trkpt><trkpt lat="55.9093567" lon="49.2199683"><time>2023-06-03T08:48:47.307</time></trkpt><trkpt lat="55.9093900" lon="49.2200783"><time>2023-06-03T08:48:48.313</time></trkpt><trkpt lat="55.9094483" lon="49.2201850"><time>2023-06-03T08:48:49.313</time></trkpt><trkpt lat="55.9095000" lon="49.2202833"><time>2023-06-03T08:48:50.307</time></trkpt><trkpt lat="55.9095517" lon="49.2203733"><time>2023-06-03T08:48:51.303</time></trkpt><trkpt lat="55.9096000" lon="49.2204583"><time>2023-06-03T08:48:52.290</time></trkpt><trkpt lat="55.9096467" lon="49.2205367"><time>2023-06-03T08:48:53.317</time></trkpt><trkpt lat="55.9097017" lon="49.2206233"><time>2023-06-03T08:48:54.313</time></trkpt><trkpt lat="55.9097483" lon="49.2207017"><time>2023-06-03T08:48:55.313</time></trkpt><trkpt lat="55.9097983" lon="49.2207850"><time>2023-06-03T08:48:56.313</time></trkpt><trkpt lat="55.9098417" lon="49.2208533"><time>2023-06-03T08:48:57.317</time></trkpt><trkpt lat="55.9098817" lon="49.2209233"><time>2023-06-03T08:48:58.310</time></trkpt><trkpt lat="55.9099183" lon="49.2209917"><time>2023-06-03T08:48:59.313</time></trkpt><trkpt lat="55.9099450" lon="49.2210583"><time>2023-06-03T08:49:00.313</time></trkpt><trkpt lat="55.9099817" lon="49.2211400"><time>2023-06-03T08:49:01.310</time></trkpt><trkpt lat="55.9100183" lon="49.2212333"><time>2023-06-03T08:49:02.317</time></trkpt><trkpt lat="55.9100600" lon="49.2213267"><time>2023-06-03T08:49:03.310</time></trkpt><trkpt lat="55.9100917" lon="49.2214117"><time>2023-06-03T08:49:04.313</time></trkpt><trkpt lat="55.9101233" lon="49.2214967"><time>2023-06-03T08:49:05.313</time></trkpt><trkpt lat="55.9101567" lon="49.2215883"><time>2023-06-03T08:49:06.313</time></trkpt><trkpt lat="55.9101817" lon="49.2216817"><time>2023-06-03T08:49:07.313</time></trkpt><trkpt lat="55.9102100" lon="49.2217750"><time>2023-06-03T08:49:08.313</time></trkpt><trkpt lat="55.9102433" lon="49.2218567"><time>2023-06-03T08:49:09.307</time></trkpt><trkpt lat="55.9102767" lon="49.2219450"><time>2023-06-03T08:49:10.310</time></trkpt><trkpt lat="55.9102983" lon="49.2220350"><time>2023-06-03T08:49:11.313</time></trkpt><trkpt lat="55.9103250" lon="49.2221217"><time>2023-06-03T08:49:12.317</time></trkpt><trkpt lat="55.9103550" lon="49.2222033"><time>2023-06-03T08:49:13.313</time></trkpt><trkpt lat="55.9103833" lon="49.2222833"><time>2023-06-03T08:49:14.313</time></trkpt><trkpt lat="55.9104033" lon="49.2223567"><time>2023-06-03T08:49:15.310</time></trkpt><trkpt lat="55.9104367" lon="49.2224967"><time>2023-06-03T08:49:17.310</time></trkpt><trkpt lat="55.9104567" lon="49.2225767"><time>2023-06-03T08:49:18.310</time></trkpt><trkpt lat="55.9104917" lon="49.2227150"><time>2023-06-03T08:49:20.313</time></trkpt><trkpt lat="55.9105183" lon="49.2227900"><time>2023-06-03T08:49:21.310</time></trkpt><trkpt lat="55.9105417" lon="49.2228667"><time>2023-06-03T08:49:22.313</time></trkpt><trkpt lat="55.9105583" lon="49.2229433"><time>2023-06-03T08:49:23.310</time></trkpt><trkpt lat="55.9105767" lon="49.2230317"><time>2023-06-03T08:49:24.310</time></trkpt><trkpt lat="55.9105900" lon="49.2231133"><time>2023-06-03T08:49:25.297</time></trkpt><trkpt lat="55.9106033" lon="49.2231967"><time>2023-06-03T08:49:26.310</time></trkpt><trkpt lat="55.9106367" lon="49.2233283"><time>2023-06-03T08:49:28.310</time></trkpt><trkpt lat="55.9106617" lon="49.2234383"><time>2023-06-03T08:49:30.320</time></trkpt><trkpt lat="55.9106833" lon="49.2235800"><time>2023-06-03T08:49:32.320</time></trkpt><trkpt lat="55.9107117" lon="49.2237217"><time>2023-06-03T08:49:34.317</time></trkpt><trkpt lat="55.9107300" lon="49.2238750"><time>2023-06-03T08:49:36.317</time></trkpt><trkpt lat="55.9107367" lon="49.2239617"><time>2023-06-03T08:49:37.320</time></trkpt><trkpt lat="55.9107467" lon="49.2240483"><time>2023-06-03T08:49:38.320</time></trkpt><trkpt lat="55.9107633" lon="49.2241467"><time>2023-06-03T08:49:39.320</time></trkpt><trkpt lat="55.9107683" lon="49.2242450"><time>2023-06-03T08:49:40.320</time></trkpt><trkpt lat="55.9107800" lon="49.2243417"><time>2023-06-03T08:49:41.323</time></trkpt><trkpt lat="55.9107917" lon="49.2244433"><time>2023-06-03T08:49:42.317</time></trkpt><trkpt lat="55.9107950" lon="49.2245350"><time>2023-06-03T08:49:43.320</time></trkpt><trkpt lat="55.9108033" lon="49.2246317"><time>2023-06-03T08:49:44.323</time></trkpt><trkpt lat="55.9108117" lon="49.2247300"><time>2023-06-03T08:49:45.320</time></trkpt><trkpt lat="55.9108217" lon="49.2248217"><time>2023-06-03T08:49:46.317</time></trkpt><trkpt lat="55.9108350" lon="49.2249100"><time>2023-06-03T08:49:47.320</time></trkpt><trkpt lat="55.9108533" lon="49.2249867"><time>2023-06-03T08:49:48.323</time></trkpt><trkpt lat="55.9108767" lon="49.2250600"><time>2023-06-03T08:49:49.323</time></trkpt><trkpt lat="55.9108950" lon="49.2251417"><time>2023-06-03T08:49:50.323</time></trkpt><trkpt lat="55.9109450" lon="49.2252850"><time>2023-06-03T08:49:52.317</time></trkpt><trkpt lat="55.9109783" lon="49.2253500"><time>2023-06-03T08:49:53.320</time></trkpt><trkpt lat="55.9110117" lon="49.2254133"><time>2023-06-03T08:49:54.323</time></trkpt><trkpt lat="55.9110467" lon="49.2254783"><time>2023-06-03T08:49:55.323</time></trkpt><trkpt lat="55.9110800" lon="49.2255383"><time>2023-06-03T08:49:56.323</time></trkpt><trkpt lat="55.9111150" lon="49.2256017"><time>2023-06-03T08:49:57.320</time></trkpt><trkpt lat="55.9111417" lon="49.2256717"><time>2023-06-03T08:49:58.323</time></trkpt><trkpt lat="55.9111700" lon="49.2257433"><time>2023-06-03T08:49:59.323</time></trkpt><trkpt lat="55.9111983" lon="49.2258117"><time>2023-06-03T08:50:00.323</time></trkpt><trkpt lat="55.9112300" lon="49.2258950"><time>2023-06-03T08:50:01.327</time></trkpt><trkpt lat="55.9112583" lon="49.2259750"><time>2023-06-03T08:50:02.323</time></trkpt><trkpt lat="55.9112850" lon="49.2260500"><time>2023-06-03T08:50:03.320</time></trkpt><trkpt lat="55.9113117" lon="49.2261183"><time>2023-06-03T08:50:04.297</time></trkpt><trkpt lat="55.9113333" lon="49.2261983"><time>2023-06-03T08:50:05.313</time></trkpt><trkpt lat="55.9113783" lon="49.2263217"><time>2023-06-03T08:50:07.320</time></trkpt><trkpt lat="55.9114217" lon="49.2264550"><time>2023-06-03T08:50:09.323</time></trkpt><trkpt lat="55.9114550" lon="49.2266050"><time>2023-06-03T08:50:11.320</time></trkpt><trkpt lat="55.9114683" lon="49.2266867"><time>2023-06-03T08:50:12.323</time></trkpt><trkpt lat="55.9114833" lon="49.2267700"><time>2023-06-03T08:50:13.320</time></trkpt><trkpt lat="55.9114983" lon="49.2268533"><time>2023-06-03T08:50:14.323</time></trkpt><trkpt lat="55.9115317" lon="49.2270050"><time>2023-06-03T08:50:16.310</time></trkpt><trkpt lat="55.9115567" lon="49.2270767"><time>2023-06-03T08:50:17.323</time></trkpt><trkpt lat="55.9115817" lon="49.2271433"><time>2023-06-03T08:50:18.320</time></trkpt><trkpt lat="55.9115950" lon="49.2272800"><time>2023-06-03T08:50:20.320</time></trkpt><trkpt lat="55.9116067" lon="49.2274083"><time>2023-06-03T08:50:22.320</time></trkpt><trkpt lat="55.9116250" lon="49.2275433"><time>2023-06-03T08:50:24.320</time></trkpt><trkpt lat="55.9116617" lon="49.2276717"><time>2023-06-03T08:50:26.317</time></trkpt><trkpt lat="55.9117033" lon="49.2278117"><time>2023-06-03T08:50:28.320</time></trkpt><trkpt lat="55.9117200" lon="49.2279650"><time>2023-06-03T08:50:30.320</time></trkpt><trkpt lat="55.9117283" lon="49.2280467"><time>2023-06-03T08:50:31.317</time></trkpt><trkpt lat="55.9117450" lon="49.2281967"><time>2023-06-03T08:50:33.320</time></trkpt><trkpt lat="55.9117600" lon="49.2283583"><time>2023-06-03T08:50:35.307</time></trkpt><trkpt lat="55.9117883" lon="49.2285300"><time>2023-06-03T08:50:37.317</time></trkpt><trkpt lat="55.9117967" lon="49.2286550"><time>2023-06-03T08:50:39.317</time></trkpt><trkpt lat="55.9118050" lon="49.2288000"><time>2023-06-03T08:50:41.323</time></trkpt><trkpt lat="55.9118150" lon="49.2289467"><time>2023-06-03T08:50:43.320</time></trkpt><trkpt lat="55.9118217" lon="49.2290283"><time>2023-06-03T08:50:44.323</time></trkpt><trkpt lat="55.9118300" lon="49.2291117"><time>2023-06-03T08:50:45.317</time></trkpt><trkpt lat="55.9118517" lon="49.2292533"><time>2023-06-03T08:50:47.323</time></trkpt><trkpt lat="55.9118717" lon="49.2293833"><time>2023-06-03T08:50:49.317</time></trkpt><trkpt lat="55.9119000" lon="49.2295250"><time>2023-06-03T08:50:51.317</time></trkpt><trkpt lat="55.9119400" lon="49.2296550"><time>2023-06-03T08:50:53.320</time></trkpt><trkpt lat="55.9119883" lon="49.2297733"><time>2023-06-03T08:50:55.320</time></trkpt><trkpt lat="55.9120450" lon="49.2298567"><time>2023-06-03T08:50:57.307</time></trkpt><trkpt lat="55.9121117" lon="49.2299417"><time>2023-06-03T08:50:59.317</time></trkpt><trkpt lat="55.9121500" lon="49.2299950"><time>2023-06-03T08:51:00.313</time></trkpt><trkpt lat="55.9122183" lon="49.2300867"><time>2023-06-03T08:51:02.327</time></trkpt><trkpt lat="55.9122750" lon="49.2301767"><time>2023-06-03T08:51:04.320</time></trkpt><trkpt lat="55.9123133" lon="49.2302883"><time>2023-06-03T08:51:06.313</time></trkpt><trkpt lat="55.9123083" lon="49.2303867"><time>2023-06-03T08:51:08.317</time></trkpt><trkpt lat="55.9122900" lon="49.2304783"><time>2023-06-03T08:51:10.320</time></trkpt><trkpt lat="55.9122550" lon="49.2306017"><time>2023-06-03T08:51:12.320</time></trkpt><trkpt lat="55.9122217" lon="49.2307233"><time>2023-06-03T08:51:14.320</time></trkpt><trkpt lat="55.9121967" lon="49.2308383"><time>2023-06-03T08:51:16.320</time></trkpt><trkpt lat="55.9121650" lon="49.2309633"><time>2023-06-03T08:51:18.320</time></trkpt><trkpt lat="55.9121500" lon="49.2311083"><time>2023-06-03T08:51:20.323</time></trkpt><trkpt lat="55.9121333" lon="49.2311883"><time>2023-06-03T08:51:21.320</time></trkpt><trkpt lat="55.9121133" lon="49.2312950"><time>2023-06-03T08:51:23.320</time></trkpt><trkpt lat="55.9120983" lon="49.2314267"><time>2023-06-03T08:51:25.323</time></trkpt><trkpt lat="55.9120783" lon="49.2315400"><time>2023-06-03T08:51:27.320</time></trkpt><trkpt lat="55.9120533" lon="49.2316767"><time>2023-06-03T08:51:29.320</time></trkpt><trkpt lat="55.9120367" lon="49.2318050"><time>2023-06-03T08:51:31.317</time></trkpt><trkpt lat="55.9120167" lon="49.2319550"><time>2023-06-03T08:51:33.317</time></trkpt><trkpt lat="55.9119967" lon="49.2320333"><time>2023-06-03T08:51:34.317</time></trkpt><trkpt lat="55.9119750" lon="49.2321750"><time>2023-06-03T08:51:36.320</time></trkpt><trkpt lat="55.9119550" lon="49.2323183"><time>2023-06-03T08:51:38.317</time></trkpt><trkpt lat="55.9119367" lon="49.2324450"><time>2023-06-03T08:51:40.317</time></trkpt><trkpt lat="55.9119067" lon="49.2325717"><time>2023-06-03T08:51:42.320</time></trkpt><trkpt lat="55.9118900" lon="49.2326483"><time>2023-06-03T08:51:43.313</time></trkpt><trkpt lat="55.9118783" lon="49.2327267"><time>2023-06-03T08:51:44.317</time></trkpt><trkpt lat="55.9118550" lon="49.2328817"><time>2023-06-03T08:51:46.317</time></trkpt><trkpt lat="55.9118400" lon="49.2330283"><time>2023-06-03T08:51:48.317</time></trkpt><trkpt lat="55.9118183" lon="49.2331550"><time>2023-06-03T08:51:50.320</time></trkpt><trkpt lat="55.9117950" lon="49.2332667"><time>2023-06-03T08:51:52.320</time></trkpt><trkpt lat="55.9117650" lon="49.2334117"><time>2023-06-03T08:51:54.317</time></trkpt><trkpt lat="55.9117500" lon="49.2334917"><time>2023-06-03T08:51:55.310</time></trkpt><trkpt lat="55.9117367" lon="49.2335800"><time>2023-06-03T08:51:56.313</time></trkpt><trkpt lat="55.9117250" lon="49.2336867"><time>2023-06-03T08:51:57.320</time></trkpt><trkpt lat="55.9117183" lon="49.2338050"><time>2023-06-03T08:51:58.277</time></trkpt><trkpt lat="55.9116900" lon="49.2339167"><time>2023-06-03T08:51:59.320</time></trkpt><trkpt lat="55.9116500" lon="49.2340033"><time>2023-06-03T08:52:00.313</time></trkpt><trkpt lat="55.9116217" lon="49.2341267"><time>2023-06-03T08:52:02.320</time></trkpt><trkpt lat="55.9116150" lon="49.2342167"><time>2023-06-03T08:52:04.287</time></trkpt><trkpt lat="55.9116183" lon="49.2343000"><time>2023-06-03T08:52:06.313</time></trkpt><trkpt lat="55.9115983" lon="49.2344367"><time>2023-06-03T08:52:08.320</time></trkpt><trkpt lat="55.9115733" lon="49.2345750"><time>2023-06-03T08:52:10.320</time></trkpt><trkpt lat="55.9115567" lon="49.2346517"><time>2023-06-03T08:52:11.317</time></trkpt><trkpt lat="55.9115417" lon="49.2347350"><time>2023-06-03T08:52:12.320</time></trkpt><trkpt lat="55.9115183" lon="49.2348417"><time>2023-06-03T08:52:13.317</time></trkpt><trkpt lat="55.9114900" lon="49.2349400"><time>2023-06-03T08:52:14.317</time></trkpt><trkpt lat="55.9114567" lon="49.2350333"><time>2023-06-03T08:52:15.317</time></trkpt><trkpt lat="55.9114300" lon="49.2351217"><time>2023-06-03T08:52:16.310</time></trkpt><trkpt lat="55.9114150" lon="49.2352083"><time>2023-06-03T08:52:17.317</time></trkpt><trkpt lat="55.9113950" lon="49.2352933"><time>2023-06-03T08:52:18.320</time></trkpt><trkpt lat="55.9113733" lon="49.2353667"><time>2023-06-03T08:52:19.320</time></trkpt><trkpt lat="55.9113417" lon="49.2354433"><time>2023-06-03T08:52:20.320</time></trkpt><trkpt lat="55.9113133" lon="49.2355917"><time>2023-06-03T08:52:22.303</time></trkpt><trkpt lat="55.9113000" lon="49.2356700"><time>2023-06-03T08:52:23.317</time></trkpt><trkpt lat="55.9112817" lon="49.2358117"><time>2023-06-03T08:52:25.320</time></trkpt><trkpt lat="55.9112683" lon="49.2359517"><time>2023-06-03T08:52:27.320</time></trkpt><trkpt lat="55.9112450" lon="49.2361083"><time>2023-06-03T08:52:29.320</time></trkpt><trkpt lat="55.9112333" lon="49.2361883"><time>2023-06-03T08:52:30.320</time></trkpt><trkpt lat="55.9112000" lon="49.2363300"><time>2023-06-03T08:52:32.320</time></trkpt><trkpt lat="55.9111867" lon="49.2364083"><time>2023-06-03T08:52:33.317</time></trkpt><trkpt lat="55.9111750" lon="49.2364867"><time>2023-06-03T08:52:34.320</time></trkpt><trkpt lat="55.9111567" lon="49.2365750"><time>2023-06-03T08:52:35.317</time></trkpt><trkpt lat="55.9111417" lon="49.2366550"><time>2023-06-03T08:52:36.317</time></trkpt><trkpt lat="55.9111167" lon="49.2368033"><time>2023-06-03T08:52:38.317</time></trkpt><trkpt lat="55.9110867" lon="49.2369500"><time>2023-06-03T08:52:40.317</time></trkpt><trkpt lat="55.9110683" lon="49.2370917"><time>2023-06-03T08:52:42.320</time></trkpt><trkpt lat="55.9110450" lon="49.2372167"><time>2023-06-03T08:52:44.320</time></trkpt><trkpt lat="55.9110233" lon="49.2373700"><time>2023-06-03T08:52:46.317</time></trkpt><trkpt lat="55.9110100" lon="49.2374550"><time>2023-06-03T08:52:47.320</time></trkpt><trkpt lat="55.9109950" lon="49.2376033"><time>2023-06-03T08:52:49.317</time></trkpt><trkpt lat="55.9109817" lon="49.2377417"><time>2023-06-03T08:52:51.320</time></trkpt><trkpt lat="55.9109783" lon="49.2378800"><time>2023-06-03T08:52:53.280</time></trkpt><trkpt lat="55.9109683" lon="49.2380367"><time>2023-06-03T08:52:55.317</time></trkpt><trkpt lat="55.9109650" lon="49.2381333"><time>2023-06-03T08:52:56.317</time></trkpt><trkpt lat="55.9109600" lon="49.2382417"><time>2023-06-03T08:52:57.310</time></trkpt><trkpt lat="55.9109483" lon="49.2383300"><time>2023-06-03T08:52:58.317</time></trkpt><trkpt lat="55.9109317" lon="49.2384050"><time>2023-06-03T08:52:59.320</time></trkpt><trkpt lat="55.9109150" lon="49.2385350"><time>2023-06-03T08:53:01.317</time></trkpt><trkpt lat="55.9108983" lon="49.2386633"><time>2023-06-03T08:53:03.320</time></trkpt><trkpt lat="55.9109000" lon="49.2387450"><time>2023-06-03T08:53:04.317</time></trkpt><trkpt lat="55.9109067" lon="49.2388483"><time>2023-06-03T08:53:06.317</time></trkpt><trkpt lat="55.9109633" lon="49.2389233"><time>2023-06-03T08:53:09.317</time></trkpt><trkpt lat="55.9110283" lon="49.2389767"><time>2023-06-03T08:53:11.320</time></trkpt><trkpt lat="55.9110967" lon="49.2390483"><time>2023-06-03T08:53:13.320</time></trkpt><trkpt lat="55.9111533" lon="49.2391033"><time>2023-06-03T08:53:15.317</time></trkpt><trkpt lat="55.9112117" lon="49.2391567"><time>2023-06-03T08:53:17.320</time></trkpt><trkpt lat="55.9112667" lon="49.2391650"><time>2023-06-03T08:53:19.317</time></trkpt><trkpt lat="55.9113150" lon="49.2391700"><time>2023-06-03T08:53:22.320</time></trkpt><trkpt lat="55.9114000" lon="49.2391033"><time>2023-06-03T08:53:38.317</time></trkpt><trkpt lat="55.9114767" lon="49.2389717"><time>2023-06-03T08:53:45.313</time></trkpt><trkpt lat="55.9115133" lon="49.2388683"><time>2023-06-03T08:53:47.317</time></trkpt><trkpt lat="55.9115333" lon="49.2387950"><time>2023-06-03T08:53:48.293</time></trkpt><trkpt lat="55.9115567" lon="49.2387083"><time>2023-06-03T08:53:49.317</time></trkpt><trkpt lat="55.9115750" lon="49.2386350"><time>2023-06-03T08:53:50.320</time></trkpt><trkpt lat="55.9116083" lon="49.2385117"><time>2023-06-03T08:53:52.317</time></trkpt><trkpt lat="55.9116467" lon="49.2383983"><time>2023-06-03T08:53:54.310</time></trkpt><trkpt lat="55.9116783" lon="49.2382700"><time>2023-06-03T08:53:56.320</time></trkpt><trkpt lat="55.9117083" lon="49.2381750"><time>2023-06-03T08:53:58.317</time></trkpt><trkpt lat="55.9117450" lon="49.2380983"><time>2023-06-03T08:54:00.320</time></trkpt><trkpt lat="55.9118033" lon="49.2380283"><time>2023-06-03T08:54:02.320</time></trkpt><trkpt lat="55.9118750" lon="49.2379667"><time>2023-06-03T08:54:04.293</time></trkpt><trkpt lat="55.9119150" lon="49.2379200"><time>2023-06-03T08:54:05.310</time></trkpt><trkpt lat="55.9119583" lon="49.2378700"><time>2023-06-03T08:54:06.323</time></trkpt><trkpt lat="55.9120067" lon="49.2378167"><time>2023-06-03T08:54:07.320</time></trkpt><trkpt lat="55.9120483" lon="49.2377667"><time>2023-06-03T08:54:08.320</time></trkpt><trkpt lat="55.9120883" lon="49.2377200"><time>2023-06-03T08:54:09.343</time></trkpt><trkpt lat="55.9121250" lon="49.2376717"><time>2023-06-03T08:54:10.300</time></trkpt><trkpt lat="55.9121733" lon="49.2376333"><time>2023-06-03T08:54:11.307</time></trkpt><trkpt lat="55.9122517" lon="49.2375417"><time>2023-06-03T08:54:12.287</time></trkpt><trkpt lat="55.9123000" lon="49.2375167"><time>2023-06-03T08:54:13.273</time></trkpt><trkpt lat="55.9123350" lon="49.2374417"><time>2023-06-03T08:54:14.273</time></trkpt><trkpt lat="55.9123567" lon="49.2373450"><time>2023-06-03T08:54:16.297</time></trkpt><trkpt lat="55.9124167" lon="49.2373133"><time>2023-06-03T08:54:17.283</time></trkpt><trkpt lat="55.9124617" lon="49.2372467"><time>2023-06-03T08:54:19.290</time></trkpt><trkpt lat="55.9125133" lon="49.2371900"><time>2023-06-03T08:54:21.303</time></trkpt><trkpt lat="55.9125950" lon="49.2370833"><time>2023-06-03T08:54:23.277</time></trkpt><trkpt lat="55.9126450" lon="49.2370633"><time>2023-06-03T08:54:24.280</time></trkpt><trkpt lat="55.9126983" lon="49.2370433"><time>2023-06-03T08:54:26.280</time></trkpt><trkpt lat="55.9127650" lon="49.2370133"><time>2023-06-03T08:54:27.283</time></trkpt><trkpt lat="55.9128183" lon="49.2370050"><time>2023-06-03T08:54:28.280</time></trkpt><trkpt lat="55.9128833" lon="49.2369867"><time>2023-06-03T08:54:30.287</time></trkpt><trkpt lat="55.9126000" lon="49.2371450"><time>2023-06-03T08:54:32.167</time></trkpt><trkpt lat="55.9125650" lon="49.2372383"><time>2023-06-03T08:54:35.517</time></trkpt><trkpt lat="55.9126183" lon="49.2370150"><time>2023-06-03T08:54:36.020</time></trkpt><trkpt lat="55.9126600" lon="49.2370717"><time>2023-06-03T08:54:37.280</time></trkpt><trkpt lat="55.9127067" lon="49.2370067"><time>2023-06-03T08:54:38.277</time></trkpt><trkpt lat="55.9127883" lon="49.2371033"><time>2023-06-03T08:54:39.277</time></trkpt><trkpt lat="55.9128433" lon="49.2370050"><time>2023-06-03T08:54:40.273</time></trkpt><trkpt lat="55.9129517" lon="49.2368600"><time>2023-06-03T08:54:41.293</time></trkpt><trkpt lat="55.9129600" lon="49.2368667"><time>2023-06-03T08:54:43.650</time></trkpt><trkpt lat="55.9131550" lon="49.2368617"><time>2023-06-03T08:54:44.140</time></trkpt><trkpt lat="55.9132117" lon="49.2368083"><time>2023-06-03T08:54:44.787</time></trkpt><trkpt lat="55.9132600" lon="49.2367567"><time>2023-06-03T08:54:45.277</time></trkpt><trkpt lat="55.9133050" lon="49.2367500"><time>2023-06-03T08:54:46.270</time></trkpt><trkpt lat="55.9133883" lon="49.2367017"><time>2023-06-03T08:54:48.277</time></trkpt><trkpt lat="55.9134433" lon="49.2367133"><time>2023-06-03T08:54:49.273</time></trkpt><trkpt lat="55.9134967" lon="49.2367333"><time>2023-06-03T08:54:50.283</time></trkpt><trkpt lat="55.9135850" lon="49.2367567"><time>2023-06-03T08:54:52.277</time></trkpt><trkpt lat="55.9136333" lon="49.2367850"><time>2023-06-03T08:54:53.287</time></trkpt><trkpt lat="55.9137233" lon="49.2367517"><time>2023-06-03T08:54:54.267</time></trkpt><trkpt lat="55.9137700" lon="49.2367417"><time>2023-06-03T08:54:55.277</time></trkpt><trkpt lat="55.9138517" lon="49.2367633"><time>2023-06-03T08:54:57.273</time></trkpt><trkpt lat="55.9139350" lon="49.2367550"><time>2023-06-03T08:54:59.273</time></trkpt><trkpt lat="55.9139817" lon="49.2368317"><time>2023-06-03T08:55:01.283</time></trkpt><trkpt lat="55.9139833" lon="49.2368317"><time>2023-06-03T08:55:02.637</time></trkpt><trkpt lat="55.9140600" lon="49.2368467"><time>2023-06-03T08:55:06.273</time></trkpt><trkpt lat="55.9141350" lon="49.2368600"><time>2023-06-03T08:55:08.270</time></trkpt><trkpt lat="55.9141933" lon="49.2369083"><time>2023-06-03T08:55:10.273</time></trkpt><trkpt lat="55.9142367" lon="49.2369333"><time>2023-06-03T08:55:12.273</time></trkpt><trkpt lat="55.9143000" lon="49.2369617"><time>2023-06-03T08:55:15.273</time></trkpt><trkpt lat="55.9143400" lon="49.2370283"><time>2023-06-03T08:55:22.277</time></trkpt><trkpt lat="55.9143733" lon="49.2371117"><time>2023-06-03T08:55:26.293</time></trkpt><trkpt lat="55.9144083" lon="49.2371650"><time>2023-06-03T08:55:30.277</time></trkpt><trkpt lat="55.9144450" lon="49.2372300"><time>2023-06-03T08:55:34.280</time></trkpt><trkpt lat="55.9144883" lon="49.2372700"><time>2023-06-03T08:55:38.293</time></trkpt><trkpt lat="55.9144967" lon="49.2372800"><time>2023-06-03T08:55:40.157</time></trkpt><trkpt lat="55.9145083" lon="49.2373583"><time>2023-06-03T08:55:46.270</time></trkpt><trkpt lat="55.9145300" lon="49.2374350"><time>2023-06-03T08:55:50.277</time></trkpt><trkpt lat="55.9145833" lon="49.2374617"><time>2023-06-03T08:55:54.277</time></trkpt><trkpt lat="55.9146417" lon="49.2374367"><time>2023-06-03T08:56:01.277</time></trkpt><trkpt lat="55.9146867" lon="49.2374117"><time>2023-06-03T08:56:04.270</time></trkpt><trkpt lat="55.9147333" lon="49.2374383"><time>2023-06-03T08:56:10.277</time></trkpt><trkpt lat="55.9147317" lon="49.2375383"><time>2023-06-03T08:56:14.290</time></trkpt><trkpt lat="55.9146867" lon="49.2375233"><time>2023-06-03T08:56:26.303</time></trkpt><trkpt lat="55.9146717" lon="49.2376167"><time>2023-06-03T08:56:34.320</time></trkpt><trkpt lat="55.9146967" lon="49.2375450"><time>2023-06-03T08:56:56.310</time></trkpt><trkpt lat="55.9147100" lon="49.2374567"><time>2023-06-03T08:57:01.307</time></trkpt><trkpt lat="55.9146917" lon="49.2373667"><time>2023-06-03T08:57:07.307</time></trkpt><trkpt lat="55.9146900" lon="49.2372767"><time>2023-06-03T08:57:12.317</time></trkpt><trkpt lat="55.9146500" lon="49.2372250"><time>2023-06-03T08:57:18.307</time></trkpt><trkpt lat="55.9146083" lon="49.2371917"><time>2023-06-03T08:57:24.320</time></trkpt><trkpt lat="55.9146083" lon="49.2371900"><time>2023-06-03T08:57:26.213</time></trkpt><trkpt lat="55.9145583" lon="49.2371900"><time>2023-06-03T08:57:35.303</time></trkpt><trkpt lat="55.9145117" lon="49.2372167"><time>2023-06-03T08:57:37.313</time></trkpt><trkpt lat="55.9145133" lon="49.2372200"><time>2023-06-03T08:57:39.210</time></trkpt><trkpt lat="55.9144650" lon="49.2371800"><time>2023-06-03T08:57:48.333</time></trkpt><trkpt lat="55.9144633" lon="49.2371800"><time>2023-06-03T08:57:50.753</time></trkpt><trkpt lat="55.9144317" lon="49.2371133"><time>2023-06-03T08:57:57.293</time></trkpt><trkpt lat="55.9144083" lon="49.2370267"><time>2023-06-03T08:58:00.297</time></trkpt><trkpt lat="55.9143567" lon="49.2370267"><time>2023-06-03T08:58:32.297</time></trkpt><trkpt lat="55.9143383" lon="49.2369333"><time>2023-06-03T08:58:37.310</time></trkpt><trkpt lat="55.9143183" lon="49.2368617"><time>2023-06-03T08:58:45.310</time></trkpt><trkpt lat="55.9143683" lon="49.2368467"><time>2023-06-03T08:58:53.307</time></trkpt><trkpt lat="55.9144267" lon="49.2368583"><time>2023-06-03T08:58:56.297</time></trkpt><trkpt lat="55.9144850" lon="49.2368683"><time>2023-06-03T08:58:58.300</time></trkpt><trkpt lat="55.9145350" lon="49.2368833"><time>2023-06-03T08:59:00.313</time></trkpt><trkpt lat="55.9145933" lon="49.2369517"><time>2023-06-03T08:59:02.307</time></trkpt><trkpt lat="55.9146417" lon="49.2370383"><time>2023-06-03T08:59:04.307</time></trkpt><trkpt lat="55.9146900" lon="49.2371350"><time>2023-06-03T08:59:06.307</time></trkpt><trkpt lat="55.9147233" lon="49.2372433"><time>2023-06-03T08:59:08.297</time></trkpt><trkpt lat="55.9147533" lon="49.2373467"><time>2023-06-03T08:59:10.310</time></trkpt><trkpt lat="55.9147550" lon="49.2373500"><time>2023-06-03T08:59:11.713</time></trkpt><trkpt lat="55.9147683" lon="49.2374300"><time>2023-06-03T08:59:15.297</time></trkpt><trkpt lat="55.9147767" lon="49.2375433"><time>2023-06-03T08:59:21.297</time></trkpt><trkpt lat="55.9147917" lon="49.2376383"><time>2023-06-03T08:59:25.297</time></trkpt><trkpt lat="55.9148300" lon="49.2377617"><time>2023-06-03T08:59:28.293</time></trkpt><trkpt lat="55.9148317" lon="49.2376667"><time>2023-06-03T08:59:35.293</time></trkpt><trkpt lat="55.9148317" lon="49.2375850"><time>2023-06-03T08:59:40.303</time></trkpt><trkpt lat="55.9147850" lon="49.2375900"><time>2023-06-03T08:59:53.277</time></trkpt><trkpt lat="55.9147400" lon="49.2376050"><time>2023-06-03T08:59:58.320</time></trkpt><trkpt lat="55.9146933" lon="49.2376533"><time>2023-06-03T09:00:07.320</time></trkpt><trkpt lat="55.9146650" lon="49.2377250"><time>2023-06-03T09:00:17.323</time></trkpt><trkpt lat="55.9146583" lon="49.2378183"><time>2023-06-03T09:00:31.337</time></trkpt><trkpt lat="55.9146583" lon="49.2378183"><time>2023-06-03T09:00:31.420</time></trkpt><trkpt lat="55.9146800" lon="49.2377433"><time>2023-06-03T09:00:42.340</time></trkpt><trkpt lat="55.9146800" lon="49.2377433"><time>2023-06-03T09:00:43.323</time></trkpt><trkpt lat="55.9147050" lon="49.2376233"><time>2023-06-03T09:00:50.310</time></trkpt><trkpt lat="55.9147417" lon="49.2375567"><time>2023-06-03T09:00:57.317</time></trkpt><trkpt lat="55.9147867" lon="49.2375417"><time>2023-06-03T09:01:01.317</time></trkpt><trkpt lat="55.9148317" lon="49.2375417"><time>2023-06-03T09:01:10.310</time></trkpt><trkpt lat="55.9148233" lon="49.2374617"><time>2023-06-03T09:01:50.320</time></trkpt><trkpt lat="55.9148483" lon="49.2373833"><time>2023-06-03T09:01:54.327</time></trkpt><trkpt lat="55.9148133" lon="49.2373117"><time>2023-06-03T09:02:07.323</time></trkpt><trkpt lat="55.9147967" lon="49.2372367"><time>2023-06-03T09:02:09.320</time></trkpt><trkpt lat="55.9147800" lon="49.2371467"><time>2023-06-03T09:02:12.320</time></trkpt><trkpt lat="55.9147550" lon="49.2370433"><time>2023-06-03T09:02:15.323</time></trkpt><trkpt lat="55.9147250" lon="49.2369817"><time>2023-06-03T09:02:18.323</time></trkpt><trkpt lat="55.9146833" lon="49.2368917"><time>2023-06-03T09:02:42.320</time></trkpt><trkpt lat="55.9146467" lon="49.2368233"><time>2023-06-03T09:02:47.317</time></trkpt><trkpt lat="55.9146133" lon="49.2367667"><time>2023-06-03T09:02:53.323</time></trkpt><trkpt lat="55.9145683" lon="49.2368117"><time>2023-06-03T09:02:58.300</time></trkpt><trkpt lat="55.9145083" lon="49.2368000"><time>2023-06-03T09:03:03.273</time></trkpt><trkpt lat="55.9144467" lon="49.2368200"><time>2023-06-03T09:03:05.307</time></trkpt><trkpt lat="55.9143983" lon="49.2368233"><time>2023-06-03T09:03:07.307</time></trkpt><trkpt lat="55.9143417" lon="49.2368483"><time>2023-06-03T09:03:09.310</time></trkpt><trkpt lat="55.9142900" lon="49.2368433"><time>2023-06-03T09:03:11.310</time></trkpt><trkpt lat="55.9142283" lon="49.2368133"><time>2023-06-03T09:03:13.323</time></trkpt><trkpt lat="55.9141767" lon="49.2367850"><time>2023-06-03T09:03:15.323</time></trkpt><trkpt lat="55.9141283" lon="49.2367683"><time>2023-06-03T09:03:17.327</time></trkpt><trkpt lat="55.9140750" lon="49.2367400"><time>2023-06-03T09:03:20.317</time></trkpt><trkpt lat="55.9140150" lon="49.2367133"><time>2023-06-03T09:03:23.287</time></trkpt><trkpt lat="55.9139650" lon="49.2366950"><time>2023-06-03T09:03:26.323</time></trkpt><trkpt lat="55.9139100" lon="49.2366733"><time>2023-06-03T09:03:29.327</time></trkpt><trkpt lat="55.9138550" lon="49.2366550"><time>2023-06-03T09:03:31.327</time></trkpt><trkpt lat="55.9137983" lon="49.2366450"><time>2023-06-03T09:03:34.323</time></trkpt><trkpt lat="55.9137517" lon="49.2366217"><time>2023-06-03T09:03:36.317</time></trkpt><trkpt lat="55.9136967" lon="49.2366183"><time>2023-06-03T09:03:38.323</time></trkpt><trkpt lat="55.9136500" lon="49.2365933"><time>2023-06-03T09:03:41.320</time></trkpt><trkpt lat="55.9136033" lon="49.2365850"><time>2023-06-03T09:03:43.303</time></trkpt><trkpt lat="55.9135483" lon="49.2365850"><time>2023-06-03T09:03:45.323</time></trkpt><trkpt lat="55.9134983" lon="49.2365933"><time>2023-06-03T09:03:47.323</time></trkpt><trkpt lat="55.9134383" lon="49.2365983"><time>2023-06-03T09:03:50.323</time></trkpt><trkpt lat="55.9133800" lon="49.2366250"><time>2023-06-03T09:03:52.327</time></trkpt><trkpt lat="55.9133333" lon="49.2366600"><time>2023-06-03T09:03:54.323</time></trkpt><trkpt lat="55.9132783" lon="49.2366883"><time>2023-06-03T09:03:56.323</time></trkpt><trkpt lat="55.9132067" lon="49.2367200"><time>2023-06-03T09:03:58.323</time></trkpt><trkpt lat="55.9131433" lon="49.2367417"><time>2023-06-03T09:04:00.323</time></trkpt><trkpt lat="55.9130700" lon="49.2367583"><time>2023-06-03T09:04:02.327</time></trkpt><trkpt lat="55.9129867" lon="49.2367917"><time>2023-06-03T09:04:04.327</time></trkpt><trkpt lat="55.9129150" lon="49.2367950"><time>2023-06-03T09:04:06.320</time></trkpt><trkpt lat="55.9128383" lon="49.2368417"><time>2023-06-03T09:04:08.323</time></trkpt><trkpt lat="55.9127767" lon="49.2368783"><time>2023-06-03T09:04:10.290</time></trkpt><trkpt lat="55.9127250" lon="49.2369000"><time>2023-06-03T09:04:11.280</time></trkpt><trkpt lat="55.9126450" lon="49.2370050"><time>2023-06-03T09:04:13.277</time></trkpt><trkpt lat="55.9125767" lon="49.2370517"><time>2023-06-03T09:04:15.307</time></trkpt><trkpt lat="55.9125217" lon="49.2371233"><time>2023-06-03T09:04:17.287</time></trkpt><trkpt lat="55.9124633" lon="49.2371733"><time>2023-06-03T09:04:19.300</time></trkpt><trkpt lat="55.9124200" lon="49.2372100"><time>2023-06-03T09:04:20.277</time></trkpt><trkpt lat="55.9123450" lon="49.2372700"><time>2023-06-03T09:04:22.290</time></trkpt><trkpt lat="55.9122867" lon="49.2373300"><time>2023-06-03T09:04:23.303</time></trkpt><trkpt lat="55.9122250" lon="49.2373767"><time>2023-06-03T09:04:25.273</time></trkpt><trkpt lat="55.9121483" lon="49.2374583"><time>2023-06-03T09:04:27.300</time></trkpt><trkpt lat="55.9121067" lon="49.2374933"><time>2023-06-03T09:04:28.303</time></trkpt><trkpt lat="55.9120650" lon="49.2375283"><time>2023-06-03T09:04:29.303</time></trkpt><trkpt lat="55.9119900" lon="49.2375767"><time>2023-06-03T09:04:31.313</time></trkpt><trkpt lat="55.9119233" lon="49.2376483"><time>2023-06-03T09:04:33.290</time></trkpt><trkpt lat="55.9118650" lon="49.2377417"><time>2023-06-03T09:04:35.320</time></trkpt><trkpt lat="55.9118167" lon="49.2378483"><time>2023-06-03T09:04:37.317</time></trkpt><trkpt lat="55.9117583" lon="49.2379333"><time>2023-06-03T09:04:40.313</time></trkpt><trkpt lat="55.9117167" lon="49.2380850"><time>2023-06-03T09:04:42.303</time></trkpt><trkpt lat="55.9116917" lon="49.2381817"><time>2023-06-03T09:04:43.283</time></trkpt><trkpt lat="55.9116650" lon="49.2382567"><time>2023-06-03T09:04:44.307</time></trkpt><trkpt lat="55.9116367" lon="49.2383367"><time>2023-06-03T09:04:45.307</time></trkpt><trkpt lat="55.9116017" lon="49.2384350"><time>2023-06-03T09:04:47.310</time></trkpt><trkpt lat="55.9115833" lon="49.2385117"><time>2023-06-03T09:04:50.317</time></trkpt><trkpt lat="55.9115767" lon="49.2386133"><time>2023-06-03T09:04:52.320</time></trkpt><trkpt lat="55.9115600" lon="49.2387167"><time>2023-06-03T09:04:54.323</time></trkpt><trkpt lat="55.9115417" lon="49.2388167"><time>2023-06-03T09:04:56.320</time></trkpt><trkpt lat="55.9115267" lon="49.2389100"><time>2023-06-03T09:04:58.323</time></trkpt><trkpt lat="55.9114867" lon="49.2390700"><time>2023-06-03T09:05:00.287</time></trkpt><trkpt lat="55.9114550" lon="49.2391633"><time>2023-06-03T09:05:01.303</time></trkpt><trkpt lat="55.9114283" lon="49.2392617"><time>2023-06-03T09:05:02.303</time></trkpt><trkpt lat="55.9114083" lon="49.2393583"><time>2023-06-03T09:05:03.313</time></trkpt><trkpt lat="55.9113817" lon="49.2394933"><time>2023-06-03T09:05:05.317</time></trkpt><trkpt lat="55.9113500" lon="49.2396317"><time>2023-06-03T09:05:07.317</time></trkpt><trkpt lat="55.9113183" lon="49.2397517"><time>2023-06-03T09:05:09.317</time></trkpt><trkpt lat="55.9112917" lon="49.2398867"><time>2023-06-03T09:05:11.317</time></trkpt><trkpt lat="55.9112683" lon="49.2400050"><time>2023-06-03T09:05:13.320</time></trkpt><trkpt lat="55.9112300" lon="49.2401583"><time>2023-06-03T09:05:15.317</time></trkpt><trkpt lat="55.9111950" lon="49.2402950"><time>2023-06-03T09:05:17.320</time></trkpt><trkpt lat="55.9111567" lon="49.2404333"><time>2023-06-03T09:05:19.323</time></trkpt><trkpt lat="55.9111267" lon="49.2405367"><time>2023-06-03T09:05:20.323</time></trkpt><trkpt lat="55.9111000" lon="49.2406167"><time>2023-06-03T09:05:21.320</time></trkpt><trkpt lat="55.9110583" lon="49.2407617"><time>2023-06-03T09:05:23.323</time></trkpt><trkpt lat="55.9110317" lon="49.2408483"><time>2023-06-03T09:05:24.310</time></trkpt><trkpt lat="55.9109867" lon="49.2409900"><time>2023-06-03T09:05:26.317</time></trkpt><trkpt lat="55.9109567" lon="49.2410733"><time>2023-06-03T09:05:27.320</time></trkpt><trkpt lat="55.9109217" lon="49.2412117"><time>2023-06-03T09:05:29.323</time></trkpt><trkpt lat="55.9108883" lon="49.2413167"><time>2023-06-03T09:05:31.323</time></trkpt><trkpt lat="55.9108517" lon="49.2414133"><time>2023-06-03T09:05:33.317</time></trkpt><trkpt lat="55.9108067" lon="49.2415283"><time>2023-06-03T09:05:35.317</time></trkpt><trkpt lat="55.9107667" lon="49.2416467"><time>2023-06-03T09:05:37.320</time></trkpt><trkpt lat="55.9107350" lon="49.2417433"><time>2023-06-03T09:05:39.323</time></trkpt><trkpt lat="55.9106967" lon="49.2418417"><time>2023-06-03T09:05:41.293</time></trkpt><trkpt lat="55.9106550" lon="49.2419550"><time>2023-06-03T09:05:43.317</time></trkpt><trkpt lat="55.9106100" lon="49.2420583"><time>2023-06-03T09:05:45.320</time></trkpt><trkpt lat="55.9105817" lon="49.2421217"><time>2023-06-03T09:05:46.320</time></trkpt><trkpt lat="55.9105350" lon="49.2422300"><time>2023-06-03T09:05:48.323</time></trkpt><trkpt lat="55.9104833" lon="49.2423217"><time>2023-06-03T09:05:50.323</time></trkpt><trkpt lat="55.9104217" lon="49.2424217"><time>2023-06-03T09:05:52.320</time></trkpt><trkpt lat="55.9103933" lon="49.2424950"><time>2023-06-03T09:05:53.323</time></trkpt><trkpt lat="55.9103617" lon="49.2425700"><time>2023-06-03T09:05:54.327</time></trkpt><trkpt lat="55.9103367" lon="49.2426450"><time>2023-06-03T09:05:55.323</time></trkpt><trkpt lat="55.9103083" lon="49.2427167"><time>2023-06-03T09:05:56.317</time></trkpt><trkpt lat="55.9102783" lon="49.2427967"><time>2023-06-03T09:05:57.320</time></trkpt><trkpt lat="55.9102467" lon="49.2428700"><time>2023-06-03T09:05:58.323</time></trkpt><trkpt lat="55.9102150" lon="49.2429433"><time>2023-06-03T09:05:59.320</time></trkpt><trkpt lat="55.9101917" lon="49.2430133"><time>2023-06-03T09:06:00.320</time></trkpt><trkpt lat="55.9101617" lon="49.2430767"><time>2023-06-03T09:06:01.320</time></trkpt><trkpt lat="55.9101150" lon="49.2431867"><time>2023-06-03T09:06:03.320</time></trkpt><trkpt lat="55.9100750" lon="49.2432650"><time>2023-06-03T09:06:05.320</time></trkpt><trkpt lat="55.9100267" lon="49.2433550"><time>2023-06-03T09:06:07.320</time></trkpt><trkpt lat="55.9099467" lon="49.2434667"><time>2023-06-03T09:06:09.323</time></trkpt><trkpt lat="55.9098983" lon="49.2435283"><time>2023-06-03T09:06:10.317</time></trkpt><trkpt lat="55.9098500" lon="49.2435817"><time>2023-06-03T09:06:11.320</time></trkpt><trkpt lat="55.9097950" lon="49.2436350"><time>2023-06-03T09:06:12.320</time></trkpt><trkpt lat="55.9097417" lon="49.2436750"><time>2023-06-03T09:06:13.293</time></trkpt><trkpt lat="55.9096850" lon="49.2437200"><time>2023-06-03T09:06:14.307</time></trkpt><trkpt lat="55.9096200" lon="49.2437833"><time>2023-06-03T09:06:15.313</time></trkpt><trkpt lat="55.9095433" lon="49.2438467"><time>2023-06-03T09:06:16.317</time></trkpt><trkpt lat="55.9094633" lon="49.2439017"><time>2023-06-03T09:06:17.313</time></trkpt><trkpt lat="55.9093983" lon="49.2439533"><time>2023-06-03T09:06:18.280</time></trkpt><trkpt lat="55.9093300" lon="49.2440167"><time>2023-06-03T09:06:19.293</time></trkpt><trkpt lat="55.9092650" lon="49.2440700"><time>2023-06-03T09:06:20.313</time></trkpt><trkpt lat="55.9092150" lon="49.2441267"><time>2023-06-03T09:06:21.317</time></trkpt><trkpt lat="55.9091333" lon="49.2441700"><time>2023-06-03T09:06:23.313</time></trkpt><trkpt lat="55.9090967" lon="49.2442317"><time>2023-06-03T09:06:24.297</time></trkpt><trkpt lat="55.9090367" lon="49.2443050"><time>2023-06-03T09:06:26.323</time></trkpt><trkpt lat="55.9089933" lon="49.2443483"><time>2023-06-03T09:06:27.320</time></trkpt><trkpt lat="55.9089050" lon="49.2444250"><time>2023-06-03T09:06:29.320</time></trkpt><trkpt lat="55.9088550" lon="49.2444617"><time>2023-06-03T09:06:30.320</time></trkpt><trkpt lat="55.9088067" lon="49.2445083"><time>2023-06-03T09:06:31.320</time></trkpt><trkpt lat="55.9087600" lon="49.2445450"><time>2023-06-03T09:06:32.320</time></trkpt><trkpt lat="55.9087083" lon="49.2445850"><time>2023-06-03T09:06:33.320</time></trkpt><trkpt lat="55.9086633" lon="49.2446267"><time>2023-06-03T09:06:34.320</time></trkpt><trkpt lat="55.9086200" lon="49.2446500"><time>2023-06-03T09:06:35.323</time></trkpt><trkpt lat="55.9085783" lon="49.2446800"><time>2023-06-03T09:06:36.317</time></trkpt><trkpt lat="55.9084950" lon="49.2447300"><time>2023-06-03T09:06:38.317</time></trkpt><trkpt lat="55.9084450" lon="49.2447700"><time>2023-06-03T09:06:39.320</time></trkpt><trkpt lat="55.9083950" lon="49.2448067"><time>2023-06-03T09:06:40.317</time></trkpt><trkpt lat="55.9083483" lon="49.2448433"><time>2023-06-03T09:06:41.320</time></trkpt><trkpt lat="55.9082817" lon="49.2449017"><time>2023-06-03T09:06:43.320</time></trkpt><trkpt lat="55.9082167" lon="49.2448600"><time>2023-06-03T09:06:45.317</time></trkpt><trkpt lat="55.9081733" lon="49.2448150"><time>2023-06-03T09:06:46.313</time></trkpt><trkpt lat="55.9081467" lon="49.2447467"><time>2023-06-03T09:06:50.317</time></trkpt><trkpt lat="55.9080917" lon="49.2446450"><time>2023-06-03T09:07:12.320</time></trkpt><trkpt lat="55.9080667" lon="49.2445733"><time>2023-06-03T09:07:14.323</time></trkpt><trkpt lat="55.9080417" lon="49.2444517"><time>2023-06-03T09:07:16.323</time></trkpt><trkpt lat="55.9080233" lon="49.2443100"><time>2023-06-03T09:07:18.323</time></trkpt><trkpt lat="55.9079967" lon="49.2441983"><time>2023-06-03T09:07:20.313</time></trkpt><trkpt lat="55.9079683" lon="49.2440983"><time>2023-06-03T09:07:22.320</time></trkpt><trkpt lat="55.9079167" lon="49.2440300"><time>2023-06-03T09:07:25.323</time></trkpt><trkpt lat="55.9078550" lon="49.2440083"><time>2023-06-03T09:07:27.343</time></trkpt><trkpt lat="55.9078583" lon="49.2437300"><time>2023-06-03T09:07:28.343</time></trkpt><trkpt lat="55.9077833" lon="49.2438217"><time>2023-06-03T09:07:28.827</time></trkpt><trkpt lat="55.9078450" lon="49.2435267"><time>2023-06-03T09:07:29.810</time></trkpt><trkpt lat="55.9077900" lon="49.2436500"><time>2023-06-03T09:07:30.317</time></trkpt><trkpt lat="55.9077317" lon="49.2437850"><time>2023-06-03T09:07:30.810</time></trkpt><trkpt lat="55.9076583" lon="49.2440250"><time>2023-06-03T09:07:31.313</time></trkpt><trkpt lat="55.9076133" lon="49.2440567"><time>2023-06-03T09:07:31.813</time></trkpt><trkpt lat="55.9075633" lon="49.2440467"><time>2023-06-03T09:07:34.310</time></trkpt><trkpt lat="55.9074817" lon="49.2440100"><time>2023-06-03T09:07:36.310</time></trkpt><trkpt lat="55.9074017" lon="49.2439900"><time>2023-06-03T09:07:38.310</time></trkpt><trkpt lat="55.9073333" lon="49.2439617"><time>2023-06-03T09:07:40.310</time></trkpt><trkpt lat="55.9072783" lon="49.2439283"><time>2023-06-03T09:07:42.313</time></trkpt><trkpt lat="55.9072317" lon="49.2438667"><time>2023-06-03T09:07:44.313</time></trkpt><trkpt lat="55.9071850" lon="49.2437867"><time>2023-06-03T09:07:47.313</time></trkpt><trkpt lat="55.9071600" lon="49.2437083"><time>2023-06-03T09:07:49.313</time></trkpt><trkpt lat="55.9071383" lon="49.2436050"><time>2023-06-03T09:07:52.313</time></trkpt><trkpt lat="55.9071167" lon="49.2435083"><time>2023-06-03T09:07:55.317</time></trkpt><trkpt lat="55.9070917" lon="49.2434133"><time>2023-06-03T09:07:57.320</time></trkpt><trkpt lat="55.9070550" lon="49.2433100"><time>2023-06-03T09:08:00.317</time></trkpt><trkpt lat="55.9070350" lon="49.2432267"><time>2023-06-03T09:08:02.340</time></trkpt><trkpt lat="55.9070333" lon="49.2432267"><time>2023-06-03T09:08:03.823</time></trkpt><trkpt lat="55.9069817" lon="49.2431400"><time>2023-06-03T09:08:07.297</time></trkpt><trkpt lat="55.9069517" lon="49.2430633"><time>2023-06-03T09:08:08.303</time></trkpt><trkpt lat="55.9069100" lon="49.2429517"><time>2023-06-03T09:08:10.303</time></trkpt><trkpt lat="55.9068717" lon="49.2428717"><time>2023-06-03T09:08:13.310</time></trkpt><trkpt lat="55.9068433" lon="49.2428033"><time>2023-06-03T09:08:15.310</time></trkpt><trkpt lat="55.9068200" lon="49.2427050"><time>2023-06-03T09:08:18.307</time></trkpt><trkpt lat="55.9067950" lon="49.2426183"><time>2023-06-03T09:08:20.307</time></trkpt><trkpt lat="55.9067467" lon="49.2425667"><time>2023-06-03T09:08:22.327</time></trkpt><trkpt lat="55.9067450" lon="49.2425667"><time>2023-06-03T09:08:23.800</time></trkpt><trkpt lat="55.9067367" lon="49.2424583"><time>2023-06-03T09:08:27.307</time></trkpt><trkpt lat="55.9067217" lon="49.2423600"><time>2023-06-03T09:08:30.303</time></trkpt><trkpt lat="55.9066967" lon="49.2422667"><time>2023-06-03T09:08:33.313</time></trkpt><trkpt lat="55.9066650" lon="49.2422017"><time>2023-06-03T09:08:38.307</time></trkpt><trkpt lat="55.9066433" lon="49.2421033"><time>2023-06-03T09:08:39.343</time></trkpt><trkpt lat="55.9066433" lon="49.2421033"><time>2023-06-03T09:08:39.440</time></trkpt><trkpt lat="55.9066117" lon="49.2420233"><time>2023-06-03T09:08:40.320</time></trkpt><trkpt lat="55.9066133" lon="49.2420217"><time>2023-06-03T09:08:41.287</time></trkpt><trkpt lat="55.9065983" lon="49.2421267"><time>2023-06-03T09:08:51.310</time></trkpt><trkpt lat="55.9065633" lon="49.2421867"><time>2023-06-03T09:08:56.307</time></trkpt><trkpt lat="55.9065700" lon="49.2421017"><time>2023-06-03T09:09:02.313</time></trkpt><trkpt lat="55.9066150" lon="49.2420683"><time>2023-06-03T09:09:12.323</time></trkpt><trkpt lat="55.9066517" lon="49.2421467"><time>2023-06-03T09:09:15.320</time></trkpt><trkpt lat="55.9066683" lon="49.2422433"><time>2023-06-03T09:09:17.323</time></trkpt><trkpt lat="55.9066883" lon="49.2423717"><time>2023-06-03T09:09:19.320</time></trkpt><trkpt lat="55.9066967" lon="49.2424583"><time>2023-06-03T09:09:21.320</time></trkpt><trkpt lat="55.9067117" lon="49.2425650"><time>2023-06-03T09:09:23.323</time></trkpt><trkpt lat="55.9067500" lon="49.2426367"><time>2023-06-03T09:09:25.320</time></trkpt><trkpt lat="55.9067767" lon="49.2427033"><time>2023-06-03T09:09:27.320</time></trkpt><trkpt lat="55.9068050" lon="49.2427700"><time>2023-06-03T09:09:29.320</time></trkpt><trkpt lat="55.9068417" lon="49.2428500"><time>2023-06-03T09:09:31.313</time></trkpt><trkpt lat="55.9068800" lon="49.2429233"><time>2023-06-03T09:09:33.320</time></trkpt><trkpt lat="55.9069067" lon="49.2429967"><time>2023-06-03T09:09:35.323</time></trkpt><trkpt lat="55.9069217" lon="49.2430800"><time>2023-06-03T09:09:37.313</time></trkpt><trkpt lat="55.9069417" lon="49.2431667"><time>2023-06-03T09:09:39.317</time></trkpt><trkpt lat="55.9069667" lon="49.2432583"><time>2023-06-03T09:09:41.320</time></trkpt><trkpt lat="55.9069983" lon="49.2433650"><time>2023-06-03T09:09:43.323</time></trkpt><trkpt lat="55.9070317" lon="49.2434600"><time>2023-06-03T09:09:45.323</time></trkpt><trkpt lat="55.9070600" lon="49.2435500"><time>2023-06-03T09:09:47.317</time></trkpt><trkpt lat="55.9070883" lon="49.2436217"><time>2023-06-03T09:09:49.293</time></trkpt><trkpt lat="55.9071150" lon="49.2437183"><time>2023-06-03T09:09:51.320</time></trkpt><trkpt lat="55.9071450" lon="49.2437950"><time>2023-06-03T09:09:53.327</time></trkpt><trkpt lat="55.9071800" lon="49.2438600"><time>2023-06-03T09:09:55.327</time></trkpt><trkpt lat="55.9072250" lon="49.2439200"><time>2023-06-03T09:09:57.323</time></trkpt><trkpt lat="55.9072900" lon="49.2439600"><time>2023-06-03T09:10:00.320</time></trkpt><trkpt lat="55.9073467" lon="49.2439650"><time>2023-06-03T09:10:02.320</time></trkpt><trkpt lat="55.9073983" lon="49.2439783"><time>2023-06-03T09:10:04.320</time></trkpt><trkpt lat="55.9074567" lon="49.2439850"><time>2023-06-03T09:10:06.320</time></trkpt><trkpt lat="55.9075217" lon="49.2440000"><time>2023-06-03T09:10:08.323</time></trkpt><trkpt lat="55.9075867" lon="49.2440083"><time>2023-06-03T09:10:10.323</time></trkpt><trkpt lat="55.9076450" lon="49.2440167"><time>2023-06-03T09:10:12.323</time></trkpt><trkpt lat="55.9077067" lon="49.2440350"><time>2023-06-03T09:10:14.323</time></trkpt><trkpt lat="55.9077483" lon="49.2441133"><time>2023-06-03T09:10:16.323</time></trkpt><trkpt lat="55.9077983" lon="49.2442383"><time>2023-06-03T09:10:18.320</time></trkpt><trkpt lat="55.9078267" lon="49.2443133"><time>2023-06-03T09:10:19.323</time></trkpt><trkpt lat="55.9078550" lon="49.2443900"><time>2023-06-03T09:10:20.320</time></trkpt><trkpt lat="55.9078850" lon="49.2444517"><time>2023-06-03T09:10:21.320</time></trkpt><trkpt lat="55.9078867" lon="49.2445567"><time>2023-06-03T09:10:23.320</time></trkpt><trkpt lat="55.9079050" lon="49.2446617"><time>2023-06-03T09:10:25.320</time></trkpt><trkpt lat="55.9079383" lon="49.2447517"><time>2023-06-03T09:10:27.320</time></trkpt><trkpt lat="55.9079617" lon="49.2448467"><time>2023-06-03T09:10:29.297</time></trkpt><trkpt lat="55.9079800" lon="49.2449333"><time>2023-06-03T09:10:31.313</time></trkpt><trkpt lat="55.9080083" lon="49.2449983"><time>2023-06-03T09:10:33.320</time></trkpt><trkpt lat="55.9080700" lon="49.2450467"><time>2023-06-03T09:10:36.317</time></trkpt><trkpt lat="55.9081317" lon="49.2450250"><time>2023-06-03T09:10:38.317</time></trkpt><trkpt lat="55.9082017" lon="49.2449933"><time>2023-06-03T09:10:40.317</time></trkpt><trkpt lat="55.9082750" lon="49.2449583"><time>2023-06-03T09:10:42.317</time></trkpt><trkpt lat="55.9083450" lon="49.2449267"><time>2023-06-03T09:10:44.310</time></trkpt><trkpt lat="55.9084267" lon="49.2448967"><time>2023-06-03T09:10:46.320</time></trkpt><trkpt lat="55.9085033" lon="49.2448533"><time>2023-06-03T09:10:48.323</time></trkpt><trkpt lat="55.9085867" lon="49.2448067"><time>2023-06-03T09:10:50.323</time></trkpt><trkpt lat="55.9086317" lon="49.2447817"><time>2023-06-03T09:10:51.320</time></trkpt><trkpt lat="55.9087000" lon="49.2447400"><time>2023-06-03T09:10:53.310</time></trkpt><trkpt lat="55.9087733" lon="49.2446950"><time>2023-06-03T09:10:55.313</time></trkpt><trkpt lat="55.9088200" lon="49.2446717"><time>2023-06-03T09:10:56.317</time></trkpt><trkpt lat="55.9088767" lon="49.2446300"><time>2023-06-03T09:10:58.323</time></trkpt><trkpt lat="55.9089500" lon="49.2445883"><time>2023-06-03T09:11:00.317</time></trkpt><trkpt lat="55.9090267" lon="49.2445450"><time>2023-06-03T09:11:02.317</time></trkpt><trkpt lat="55.9090883" lon="49.2445050"><time>2023-06-03T09:11:04.307</time></trkpt><trkpt lat="55.9091383" lon="49.2444683"><time>2023-06-03T09:11:06.323</time></trkpt><trkpt lat="55.9092000" lon="49.2444250"><time>2023-06-03T09:11:08.320</time></trkpt><trkpt lat="55.9092750" lon="49.2443817"><time>2023-06-03T09:11:10.317</time></trkpt><trkpt lat="55.9093200" lon="49.2443667"><time>2023-06-03T09:11:11.320</time></trkpt><trkpt lat="55.9093983" lon="49.2443317"><time>2023-06-03T09:11:13.320</time></trkpt><trkpt lat="55.9094467" lon="49.2443067"><time>2023-06-03T09:11:14.323</time></trkpt><trkpt lat="55.9094983" lon="49.2442650"><time>2023-06-03T09:11:15.320</time></trkpt><trkpt lat="55.9095850" lon="49.2442167"><time>2023-06-03T09:11:17.320</time></trkpt><trkpt lat="55.9096267" lon="49.2441833"><time>2023-06-03T09:11:18.317</time></trkpt><trkpt lat="55.9097050" lon="49.2441317"><time>2023-06-03T09:11:20.320</time></trkpt><trkpt lat="55.9097600" lon="49.2440850"><time>2023-06-03T09:11:22.317</time></trkpt><trkpt lat="55.9098100" lon="49.2440200"><time>2023-06-03T09:11:24.313</time></trkpt><trkpt lat="55.9098550" lon="49.2439733"><time>2023-06-03T09:11:25.323</time></trkpt><trkpt lat="55.9099317" lon="49.2438817"><time>2023-06-03T09:11:27.323</time></trkpt><trkpt lat="55.9099700" lon="49.2438367"><time>2023-06-03T09:11:28.320</time></trkpt><trkpt lat="55.9100250" lon="49.2437433"><time>2023-06-03T09:11:30.317</time></trkpt><trkpt lat="55.9100633" lon="49.2436400"><time>2023-06-03T09:11:32.320</time></trkpt><trkpt lat="55.9101117" lon="49.2435583"><time>2023-06-03T09:11:34.317</time></trkpt><trkpt lat="55.9101500" lon="49.2434517"><time>2023-06-03T09:11:36.317</time></trkpt><trkpt lat="55.9101917" lon="49.2433350"><time>2023-06-03T09:11:38.320</time></trkpt><trkpt lat="55.9102517" lon="49.2432233"><time>2023-06-03T09:11:40.320</time></trkpt><trkpt lat="55.9103050" lon="49.2431350"><time>2023-06-03T09:11:42.300</time></trkpt><trkpt lat="55.9103617" lon="49.2430617"><time>2023-06-03T09:11:44.313</time></trkpt><trkpt lat="55.9104217" lon="49.2430067"><time>2023-06-03T09:11:46.317</time></trkpt><trkpt lat="55.9104817" lon="49.2429717"><time>2023-06-03T09:11:48.320</time></trkpt><trkpt lat="55.9105467" lon="49.2429517"><time>2023-06-03T09:11:50.323</time></trkpt><trkpt lat="55.9106050" lon="49.2429233"><time>2023-06-03T09:11:52.317</time></trkpt><trkpt lat="55.9106733" lon="49.2429333"><time>2023-06-03T09:11:54.307</time></trkpt><trkpt lat="55.9107433" lon="49.2429550"><time>2023-06-03T09:11:56.323</time></trkpt><trkpt lat="55.9108200" lon="49.2430533"><time>2023-06-03T09:11:58.320</time></trkpt><trkpt lat="55.9108567" lon="49.2431267"><time>2023-06-03T09:11:59.317</time></trkpt><trkpt lat="55.9108867" lon="49.2432050"><time>2023-06-03T09:12:00.317</time></trkpt><trkpt lat="55.9109100" lon="49.2432800"><time>2023-06-03T09:12:01.323</time></trkpt><trkpt lat="55.9109317" lon="49.2433517"><time>2023-06-03T09:12:02.313</time></trkpt><trkpt lat="55.9109633" lon="49.2434283"><time>2023-06-03T09:12:03.317</time></trkpt><trkpt lat="55.9109917" lon="49.2435033"><time>2023-06-03T09:12:04.320</time></trkpt><trkpt lat="55.9110083" lon="49.2435867"><time>2023-06-03T09:12:05.300</time></trkpt><trkpt lat="55.9110217" lon="49.2436633"><time>2023-06-03T09:12:06.320</time></trkpt><trkpt lat="55.9110417" lon="49.2437350"><time>2023-06-03T09:12:07.320</time></trkpt><trkpt lat="55.9110667" lon="49.2438967"><time>2023-06-03T09:12:09.320</time></trkpt><trkpt lat="55.9110867" lon="49.2439767"><time>2023-06-03T09:12:10.320</time></trkpt><trkpt lat="55.9111133" lon="49.2440567"><time>2023-06-03T09:12:11.320</time></trkpt><trkpt lat="55.9111300" lon="49.2441317"><time>2023-06-03T09:12:12.320</time></trkpt><trkpt lat="55.9111517" lon="49.2442833"><time>2023-06-03T09:12:14.320</time></trkpt><trkpt lat="55.9111783" lon="49.2444100"><time>2023-06-03T09:12:16.320</time></trkpt><trkpt lat="55.9111967" lon="49.2444833"><time>2023-06-03T09:12:17.323</time></trkpt><trkpt lat="55.9112167" lon="49.2445567"><time>2023-06-03T09:12:18.323</time></trkpt><trkpt lat="55.9112367" lon="49.2446283"><time>2023-06-03T09:12:19.323</time></trkpt><trkpt lat="55.9112750" lon="49.2447617"><time>2023-06-03T09:12:21.297</time></trkpt><trkpt lat="55.9113133" lon="49.2448900"><time>2023-06-03T09:12:23.313</time></trkpt><trkpt lat="55.9113333" lon="49.2449617"><time>2023-06-03T09:12:24.317</time></trkpt><trkpt lat="55.9113550" lon="49.2450867"><time>2023-06-03T09:12:26.317</time></trkpt><trkpt lat="55.9113817" lon="49.2452367"><time>2023-06-03T09:12:28.323</time></trkpt><trkpt lat="55.9113950" lon="49.2453233"><time>2023-06-03T09:12:29.323</time></trkpt><trkpt lat="55.9113933" lon="49.2454133"><time>2023-06-03T09:12:30.320</time></trkpt><trkpt lat="55.9114117" lon="49.2455033"><time>2023-06-03T09:12:31.320</time></trkpt><trkpt lat="55.9114367" lon="49.2455917"><time>2023-06-03T09:12:32.323</time></trkpt><trkpt lat="55.9114667" lon="49.2456767"><time>2023-06-03T09:12:33.327</time></trkpt><trkpt lat="55.9114983" lon="49.2457533"><time>2023-06-03T09:12:34.320</time></trkpt><trkpt lat="55.9115283" lon="49.2458283"><time>2023-06-03T09:12:35.323</time></trkpt><trkpt lat="55.9115583" lon="49.2459017"><time>2023-06-03T09:12:36.320</time></trkpt><trkpt lat="55.9115917" lon="49.2459783"><time>2023-06-03T09:12:37.287</time></trkpt><trkpt lat="55.9116283" lon="49.2460467"><time>2023-06-03T09:12:38.300</time></trkpt><trkpt lat="55.9116700" lon="49.2461267"><time>2023-06-03T09:12:39.290</time></trkpt><trkpt lat="55.9117183" lon="49.2462050"><time>2023-06-03T09:12:40.317</time></trkpt><trkpt lat="55.9117650" lon="49.2462650"><time>2023-06-03T09:12:41.327</time></trkpt><trkpt lat="55.9118167" lon="49.2463067"><time>2023-06-03T09:12:42.287</time></trkpt><trkpt lat="55.9118650" lon="49.2463450"><time>2023-06-03T09:12:43.287</time></trkpt><trkpt lat="55.9119033" lon="49.2463883"><time>2023-06-03T09:12:44.297</time></trkpt><trkpt lat="55.9119450" lon="49.2464233"><time>2023-06-03T09:12:45.317</time></trkpt><trkpt lat="55.9120033" lon="49.2464950"><time>2023-06-03T09:12:47.303</time></trkpt><trkpt lat="55.9120717" lon="49.2465417"><time>2023-06-03T09:12:49.320</time></trkpt><trkpt lat="55.9121433" lon="49.2465983"><time>2023-06-03T09:12:51.320</time></trkpt><trkpt lat="55.9122300" lon="49.2466250"><time>2023-06-03T09:12:53.320</time></trkpt><trkpt lat="55.9122817" lon="49.2466300"><time>2023-06-03T09:12:54.320</time></trkpt><trkpt lat="55.9123300" lon="49.2466333"><time>2023-06-03T09:12:55.323</time></trkpt><trkpt lat="55.9123900" lon="49.2466233"><time>2023-06-03T09:12:56.320</time></trkpt><trkpt lat="55.9124517" lon="49.2466200"><time>2023-06-03T09:12:57.303</time></trkpt><trkpt lat="55.9125117" lon="49.2466217"><time>2023-06-03T09:12:58.280</time></trkpt><trkpt lat="55.9125700" lon="49.2466367"><time>2023-06-03T09:12:59.307</time></trkpt><trkpt lat="55.9126233" lon="49.2466517"><time>2023-06-03T09:13:00.317</time></trkpt><trkpt lat="55.9126883" lon="49.2466733"><time>2023-06-03T09:13:01.317</time></trkpt><trkpt lat="55.9127600" lon="49.2467017"><time>2023-06-03T09:13:02.320</time></trkpt><trkpt lat="55.9128217" lon="49.2467367"><time>2023-06-03T09:13:03.323</time></trkpt><trkpt lat="55.9128883" lon="49.2467783"><time>2023-06-03T09:13:04.317</time></trkpt><trkpt lat="55.9129500" lon="49.2468267"><time>2023-06-03T09:13:05.317</time></trkpt><trkpt lat="55.9130100" lon="49.2468817"><time>2023-06-03T09:13:06.317</time></trkpt><trkpt lat="55.9130717" lon="49.2469483"><time>2023-06-03T09:13:07.317</time></trkpt><trkpt lat="55.9131317" lon="49.2470167"><time>2023-06-03T09:13:08.317</time></trkpt><trkpt lat="55.9131817" lon="49.2470783"><time>2023-06-03T09:13:09.313</time></trkpt><trkpt lat="55.9132317" lon="49.2471383"><time>2023-06-03T09:13:10.303</time></trkpt><trkpt lat="55.9132850" lon="49.2472050"><time>2023-06-03T09:13:11.317</time></trkpt><trkpt lat="55.9133400" lon="49.2472700"><time>2023-06-03T09:13:12.327</time></trkpt><trkpt lat="55.9133950" lon="49.2473283"><time>2023-06-03T09:13:13.323</time></trkpt><trkpt lat="55.9134417" lon="49.2473883"><time>2023-06-03T09:13:14.303</time></trkpt><trkpt lat="55.9134883" lon="49.2474483"><time>2023-06-03T09:13:15.317</time></trkpt><trkpt lat="55.9135367" lon="49.2475117"><time>2023-06-03T09:13:16.317</time></trkpt><trkpt lat="55.9136033" lon="49.2475667"><time>2023-06-03T09:13:17.317</time></trkpt><trkpt lat="55.9136533" lon="49.2476200"><time>2023-06-03T09:13:18.323</time></trkpt><trkpt lat="55.9137067" lon="49.2476633"><time>2023-06-03T09:13:19.327</time></trkpt><trkpt lat="55.9137517" lon="49.2477100"><time>2023-06-03T09:13:20.320</time></trkpt><trkpt lat="55.9138267" lon="49.2477633"><time>2023-06-03T09:13:21.317</time></trkpt><trkpt lat="55.9138950" lon="49.2478200"><time>2023-06-03T09:13:22.317</time></trkpt><trkpt lat="55.9139500" lon="49.2478700"><time>2023-06-03T09:13:23.320</time></trkpt><trkpt lat="55.9140033" lon="49.2479200"><time>2023-06-03T09:13:24.323</time></trkpt><trkpt lat="55.9140533" lon="49.2479800"><time>2023-06-03T09:13:25.323</time></trkpt><trkpt lat="55.9141117" lon="49.2480533"><time>2023-06-03T09:13:26.320</time></trkpt><trkpt lat="55.9141683" lon="49.2481133"><time>2023-06-03T09:13:27.320</time></trkpt><trkpt lat="55.9142200" lon="49.2481783"><time>2023-06-03T09:13:28.323</time></trkpt><trkpt lat="55.9142583" lon="49.2482400"><time>2023-06-03T09:13:29.320</time></trkpt><trkpt lat="55.9143233" lon="49.2483117"><time>2023-06-03T09:13:30.323</time></trkpt><trkpt lat="55.9143800" lon="49.2483800"><time>2023-06-03T09:13:31.323</time></trkpt><trkpt lat="55.9144283" lon="49.2484500"><time>2023-06-03T09:13:32.323</time></trkpt><trkpt lat="55.9144717" lon="49.2485233"><time>2023-06-03T09:13:33.323</time></trkpt><trkpt lat="55.9145217" lon="49.2486083"><time>2023-06-03T09:13:34.323</time></trkpt><trkpt lat="55.9145650" lon="49.2486767"><time>2023-06-03T09:13:35.320</time></trkpt><trkpt lat="55.9146033" lon="49.2487400"><time>2023-06-03T09:13:36.320</time></trkpt><trkpt lat="55.9146517" lon="49.2488133"><time>2023-06-03T09:13:37.323</time></trkpt><trkpt lat="55.9147017" lon="49.2488900"><time>2023-06-03T09:13:38.323</time></trkpt><trkpt lat="55.9147483" lon="49.2489683"><time>2023-06-03T09:13:39.323</time></trkpt><trkpt lat="55.9147950" lon="49.2490500"><time>2023-06-03T09:13:40.323</time></trkpt><trkpt lat="55.9148383" lon="49.2491400"><time>2023-06-03T09:13:41.327</time></trkpt><trkpt lat="55.9148683" lon="49.2492383"><time>2023-06-03T09:13:42.323</time></trkpt><trkpt lat="55.9149067" lon="49.2493300"><time>2023-06-03T09:13:43.317</time></trkpt><trkpt lat="55.9149333" lon="49.2494133"><time>2023-06-03T09:13:44.313</time></trkpt><trkpt lat="55.9149633" lon="49.2494967"><time>2023-06-03T09:13:45.320</time></trkpt><trkpt lat="55.9149867" lon="49.2495800"><time>2023-06-03T09:13:46.277</time></trkpt><trkpt lat="55.9150100" lon="49.2496700"><time>2023-06-03T09:13:47.307</time></trkpt><trkpt lat="55.9150317" lon="49.2498133"><time>2023-06-03T09:13:49.360</time></trkpt><trkpt lat="55.9150550" lon="49.2499033"><time>2023-06-03T09:13:50.293</time></trkpt><trkpt lat="55.9150933" lon="49.2499900"><time>2023-06-03T09:13:51.297</time></trkpt><trkpt lat="55.9151600" lon="49.2500850"><time>2023-06-03T09:13:53.260</time></trkpt><trkpt lat="55.9151817" lon="49.2501817"><time>2023-06-03T09:13:54.287</time></trkpt><trkpt lat="55.9151850" lon="49.2502833"><time>2023-06-03T09:13:55.277</time></trkpt><trkpt lat="55.9152217" lon="49.2503617"><time>2023-06-03T09:13:56.287</time></trkpt><trkpt lat="55.9152550" lon="49.2504283"><time>2023-06-03T09:13:57.297</time></trkpt><trkpt lat="55.9152933" lon="49.2505183"><time>2023-06-03T09:13:58.297</time></trkpt><trkpt lat="55.9153433" lon="49.2505833"><time>2023-06-03T09:13:59.313</time></trkpt><trkpt lat="55.9153767" lon="49.2506567"><time>2023-06-03T09:14:00.313</time></trkpt><trkpt lat="55.9154133" lon="49.2507117"><time>2023-06-03T09:14:01.317</time></trkpt><trkpt lat="55.9154517" lon="49.2507733"><time>2023-06-03T09:14:02.317</time></trkpt><trkpt lat="55.9154967" lon="49.2508333"><time>2023-06-03T09:14:03.317</time></trkpt><trkpt lat="55.9155367" lon="49.2508850"><time>2023-06-03T09:14:04.317</time></trkpt><trkpt lat="55.9156083" lon="49.2509650"><time>2023-06-03T09:14:06.317</time></trkpt><trkpt lat="55.9156550" lon="49.2509950"><time>2023-06-03T09:14:07.307</time></trkpt><trkpt lat="55.9157167" lon="49.2510367"><time>2023-06-03T09:14:08.313</time></trkpt><trkpt lat="55.9157683" lon="49.2510717"><time>2023-06-03T09:14:09.317</time></trkpt><trkpt lat="55.9158350" lon="49.2511083"><time>2023-06-03T09:14:10.320</time></trkpt><trkpt lat="55.9159083" lon="49.2511200"><time>2023-06-03T09:14:11.320</time></trkpt><trkpt lat="55.9159733" lon="49.2511383"><time>2023-06-03T09:14:12.320</time></trkpt><trkpt lat="55.9160417" lon="49.2511700"><time>2023-06-03T09:14:13.320</time></trkpt><trkpt lat="55.9160983" lon="49.2512050"><time>2023-06-03T09:14:14.320</time></trkpt><trkpt lat="55.9161517" lon="49.2512333"><time>2023-06-03T09:14:15.320</time></trkpt><trkpt lat="55.9162000" lon="49.2512600"><time>2023-06-03T09:14:16.323</time></trkpt><trkpt lat="55.9162500" lon="49.2512800"><time>2023-06-03T09:14:17.320</time></trkpt><trkpt lat="55.9162983" lon="49.2513067"><time>2023-06-03T09:14:18.320</time></trkpt><trkpt lat="55.9163533" lon="49.2513567"><time>2023-06-03T09:14:19.313</time></trkpt><trkpt lat="55.9163983" lon="49.2514067"><time>2023-06-03T09:14:20.323</time></trkpt><trkpt lat="55.9164550" lon="49.2514517"><time>2023-06-03T09:14:21.317</time></trkpt><trkpt lat="55.9165000" lon="49.2514933"><time>2023-06-03T09:14:22.317</time></trkpt><trkpt lat="55.9165450" lon="49.2515283"><time>2023-06-03T09:14:23.317</time></trkpt><trkpt lat="55.9165833" lon="49.2515767"><time>2023-06-03T09:14:24.310</time></trkpt><trkpt lat="55.9166600" lon="49.2516683"><time>2023-06-03T09:14:26.320</time></trkpt><trkpt lat="55.9167017" lon="49.2517133"><time>2023-06-03T09:14:27.320</time></trkpt><trkpt lat="55.9167583" lon="49.2517550"><time>2023-06-03T09:14:28.327</time></trkpt><trkpt lat="55.9168100" lon="49.2518033"><time>2023-06-03T09:14:29.303</time></trkpt><trkpt lat="55.9168617" lon="49.2518517"><time>2023-06-03T09:14:30.307</time></trkpt><trkpt lat="55.9169117" lon="49.2519067"><time>2023-06-03T09:14:31.313</time></trkpt><trkpt lat="55.9169650" lon="49.2519583"><time>2023-06-03T09:14:32.317</time></trkpt><trkpt lat="55.9170183" lon="49.2520233"><time>2023-06-03T09:14:33.320</time></trkpt><trkpt lat="55.9170783" lon="49.2520767"><time>2023-06-03T09:14:34.320</time></trkpt><trkpt lat="55.9171217" lon="49.2521367"><time>2023-06-03T09:14:35.313</time></trkpt><trkpt lat="55.9171750" lon="49.2521967"><time>2023-06-03T09:14:36.320</time></trkpt><trkpt lat="55.9172300" lon="49.2522500"><time>2023-06-03T09:14:37.323</time></trkpt><trkpt lat="55.9173167" lon="49.2523083"><time>2023-06-03T09:14:39.317</time></trkpt><trkpt lat="55.9173650" lon="49.2523450"><time>2023-06-03T09:14:40.317</time></trkpt><trkpt lat="55.9174233" lon="49.2523950"><time>2023-06-03T09:14:41.307</time></trkpt><trkpt lat="55.9174817" lon="49.2524150"><time>2023-06-03T09:14:42.317</time></trkpt><trkpt lat="55.9175583" lon="49.2524267"><time>2023-06-03T09:14:44.317</time></trkpt><trkpt lat="55.9176467" lon="49.2524250"><time>2023-06-03T09:14:46.317</time></trkpt><trkpt lat="55.9177017" lon="49.2524267"><time>2023-06-03T09:14:47.317</time></trkpt><trkpt lat="55.9177483" lon="49.2524267"><time>2023-06-03T09:14:48.317</time></trkpt><trkpt lat="55.9178200" lon="49.2524317"><time>2023-06-03T09:14:50.323</time></trkpt><trkpt lat="55.9178650" lon="49.2524333"><time>2023-06-03T09:14:51.320</time></trkpt><trkpt lat="55.9179367" lon="49.2524667"><time>2023-06-03T09:14:53.323</time></trkpt><trkpt lat="55.9180283" lon="49.2524833"><time>2023-06-03T09:14:55.297</time></trkpt><trkpt lat="55.9181117" lon="49.2524933"><time>2023-06-03T09:14:57.313</time></trkpt><trkpt lat="55.9181583" lon="49.2525033"><time>2023-06-03T09:14:58.280</time></trkpt><trkpt lat="55.9182400" lon="49.2525267"><time>2023-06-03T09:15:00.313</time></trkpt><trkpt lat="55.9183083" lon="49.2525600"><time>2023-06-03T09:15:01.307</time></trkpt><trkpt lat="55.9183617" lon="49.2525900"><time>2023-06-03T09:15:02.310</time></trkpt><trkpt lat="55.9184167" lon="49.2526400"><time>2023-06-03T09:15:03.320</time></trkpt><trkpt lat="55.9184700" lon="49.2526867"><time>2023-06-03T09:15:04.313</time></trkpt><trkpt lat="55.9185167" lon="49.2527067"><time>2023-06-03T09:15:05.317</time></trkpt><trkpt lat="55.9185617" lon="49.2527350"><time>2023-06-03T09:15:06.313</time></trkpt><trkpt lat="55.9186050" lon="49.2527717"><time>2023-06-03T09:15:07.327</time></trkpt><trkpt lat="55.9186683" lon="49.2528567"><time>2023-06-03T09:15:09.317</time></trkpt><trkpt lat="55.9187033" lon="49.2529100"><time>2023-06-03T09:15:10.320</time></trkpt><trkpt lat="55.9187467" lon="49.2529500"><time>2023-06-03T09:15:11.323</time></trkpt><trkpt lat="55.9188183" lon="49.2530317"><time>2023-06-03T09:15:13.323</time></trkpt><trkpt lat="55.9188783" lon="49.2531300"><time>2023-06-03T09:15:15.317</time></trkpt><trkpt lat="55.9189300" lon="49.2532150"><time>2023-06-03T09:15:17.317</time></trkpt><trkpt lat="55.9189800" lon="49.2533183"><time>2023-06-03T09:15:19.317</time></trkpt><trkpt lat="55.9190350" lon="49.2534117"><time>2023-06-03T09:15:21.320</time></trkpt><trkpt lat="55.9190900" lon="49.2535083"><time>2023-06-03T09:15:23.320</time></trkpt><trkpt lat="55.9191550" lon="49.2535750"><time>2023-06-03T09:15:25.323</time></trkpt><trkpt lat="55.9191950" lon="49.2536183"><time>2023-06-03T09:15:26.320</time></trkpt><trkpt lat="55.9192283" lon="49.2536733"><time>2023-06-03T09:15:27.323</time></trkpt><trkpt lat="55.9192650" lon="49.2537683"><time>2023-06-03T09:15:29.317</time></trkpt><trkpt lat="55.9192850" lon="49.2538633"><time>2023-06-03T09:15:32.310</time></trkpt><trkpt lat="55.9193167" lon="49.2539550"><time>2023-06-03T09:15:35.320</time></trkpt><trkpt lat="55.9193367" lon="49.2540317"><time>2023-06-03T09:15:37.317</time></trkpt><trkpt lat="55.9193417" lon="49.2541267"><time>2023-06-03T09:15:39.313</time></trkpt><trkpt lat="55.9193267" lon="49.2542650"><time>2023-06-03T09:15:41.313</time></trkpt><trkpt lat="55.9193217" lon="49.2543450"><time>2023-06-03T09:15:42.307</time></trkpt><trkpt lat="55.9193150" lon="49.2544800"><time>2023-06-03T09:15:44.320</time></trkpt><trkpt lat="55.9193033" lon="49.2545700"><time>2023-06-03T09:15:46.310</time></trkpt><trkpt lat="55.9192833" lon="49.2546417"><time>2023-06-03T09:15:48.310</time></trkpt><trkpt lat="55.9192583" lon="49.2547133"><time>2023-06-03T09:15:51.307</time></trkpt><trkpt lat="55.9192350" lon="49.2548000"><time>2023-06-03T09:15:54.313</time></trkpt><trkpt lat="55.9192183" lon="49.2549033"><time>2023-06-03T09:15:57.293</time></trkpt><trkpt lat="55.9192300" lon="49.2550250"><time>2023-06-03T09:15:59.310</time></trkpt><trkpt lat="55.9192317" lon="49.2551267"><time>2023-06-03T09:16:01.310</time></trkpt><trkpt lat="55.9192317" lon="49.2552267"><time>2023-06-03T09:16:03.310</time></trkpt><trkpt lat="55.9192250" lon="49.2553533"><time>2023-06-03T09:16:05.313</time></trkpt><trkpt lat="55.9191967" lon="49.2554883"><time>2023-06-03T09:16:07.313</time></trkpt><trkpt lat="55.9191783" lon="49.2556167"><time>2023-06-03T09:16:09.323</time></trkpt><trkpt lat="55.9191783" lon="49.2557233"><time>2023-06-03T09:16:11.317</time></trkpt><trkpt lat="55.9191717" lon="49.2558217"><time>2023-06-03T09:16:13.307</time></trkpt><trkpt lat="55.9191567" lon="49.2559200"><time>2023-06-03T09:16:15.323</time></trkpt><trkpt lat="55.9191417" lon="49.2560367"><time>2023-06-03T09:16:17.317</time></trkpt><trkpt lat="55.9191200" lon="49.2561550"><time>2023-06-03T09:16:19.313</time></trkpt><trkpt lat="55.9190917" lon="49.2562450"><time>2023-06-03T09:16:21.317</time></trkpt><trkpt lat="55.9190550" lon="49.2563433"><time>2023-06-03T09:16:23.317</time></trkpt><trkpt lat="55.9190167" lon="49.2564317"><time>2023-06-03T09:16:25.317</time></trkpt><trkpt lat="55.9189833" lon="49.2565317"><time>2023-06-03T09:16:27.307</time></trkpt><trkpt lat="55.9189500" lon="49.2566250"><time>2023-06-03T09:16:29.320</time></trkpt><trkpt lat="55.9189083" lon="49.2567000"><time>2023-06-03T09:16:31.320</time></trkpt><trkpt lat="55.9188700" lon="49.2567700"><time>2023-06-03T09:16:33.320</time></trkpt><trkpt lat="55.9188233" lon="49.2568833"><time>2023-06-03T09:16:35.317</time></trkpt><trkpt lat="55.9187883" lon="49.2569483"><time>2023-06-03T09:16:36.317</time></trkpt><trkpt lat="55.9187567" lon="49.2570100"><time>2023-06-03T09:16:37.317</time></trkpt><trkpt lat="55.9186867" lon="49.2571233"><time>2023-06-03T09:16:39.307</time></trkpt><trkpt lat="55.9186467" lon="49.2571833"><time>2023-06-03T09:16:40.317</time></trkpt><trkpt lat="55.9186133" lon="49.2572433"><time>2023-06-03T09:16:41.317</time></trkpt><trkpt lat="55.9185467" lon="49.2573400"><time>2023-06-03T09:16:43.317</time></trkpt><trkpt lat="55.9184750" lon="49.2574200"><time>2023-06-03T09:16:45.320</time></trkpt><trkpt lat="55.9184000" lon="49.2574967"><time>2023-06-03T09:16:47.313</time></trkpt><trkpt lat="55.9183283" lon="49.2575583"><time>2023-06-03T09:16:49.313</time></trkpt><trkpt lat="55.9182867" lon="49.2576017"><time>2023-06-03T09:16:50.303</time></trkpt><trkpt lat="55.9182217" lon="49.2577000"><time>2023-06-03T09:16:52.297</time></trkpt><trkpt lat="55.9181650" lon="49.2578250"><time>2023-06-03T09:16:54.310</time></trkpt><trkpt lat="55.9181467" lon="49.2578983"><time>2023-06-03T09:16:55.313</time></trkpt><trkpt lat="55.9181300" lon="49.2579850"><time>2023-06-03T09:16:56.320</time></trkpt><trkpt lat="55.9181133" lon="49.2580600"><time>2023-06-03T09:16:57.320</time></trkpt><trkpt lat="55.9180933" lon="49.2582000"><time>2023-06-03T09:16:59.320</time></trkpt><trkpt lat="55.9180900" lon="49.2583167"><time>2023-06-03T09:17:01.317</time></trkpt><trkpt lat="55.9180717" lon="49.2584817"><time>2023-06-03T09:17:03.317</time></trkpt><trkpt lat="55.9180583" lon="49.2586067"><time>2023-06-03T09:17:05.317</time></trkpt><trkpt lat="55.9180367" lon="49.2587000"><time>2023-06-03T09:17:07.317</time></trkpt><trkpt lat="55.9180217" lon="49.2587833"><time>2023-06-03T09:17:09.317</time></trkpt><trkpt lat="55.9179917" lon="49.2588750"><time>2023-06-03T09:17:11.317</time></trkpt><trkpt lat="55.9179633" lon="49.2589783"><time>2023-06-03T09:17:13.320</time></trkpt><trkpt lat="55.9179317" lon="49.2590967"><time>2023-06-03T09:17:15.310</time></trkpt><trkpt lat="55.9178950" lon="49.2592483"><time>2023-06-03T09:17:17.317</time></trkpt><trkpt lat="55.9178617" lon="49.2593650"><time>2023-06-03T09:17:19.317</time></trkpt><trkpt lat="55.9178267" lon="49.2594883"><time>2023-06-03T09:17:21.323</time></trkpt><trkpt lat="55.9177883" lon="49.2595983"><time>2023-06-03T09:17:23.320</time></trkpt><trkpt lat="55.9177600" lon="49.2596750"><time>2023-06-03T09:17:24.320</time></trkpt><trkpt lat="55.9177150" lon="49.2597900"><time>2023-06-03T09:17:26.317</time></trkpt><trkpt lat="55.9176667" lon="49.2599017"><time>2023-06-03T09:17:28.317</time></trkpt><trkpt lat="55.9176283" lon="49.2600083"><time>2023-06-03T09:17:30.307</time></trkpt><trkpt lat="55.9175717" lon="49.2601000"><time>2023-06-03T09:17:32.320</time></trkpt><trkpt lat="55.9175250" lon="49.2602033"><time>2023-06-03T09:17:34.290</time></trkpt><trkpt lat="55.9174683" lon="49.2603250"><time>2023-06-03T09:17:36.320</time></trkpt><trkpt lat="55.9174283" lon="49.2604483"><time>2023-06-03T09:17:38.320</time></trkpt><trkpt lat="55.9173917" lon="49.2605650"><time>2023-06-03T09:17:40.320</time></trkpt><trkpt lat="55.9173633" lon="49.2606900"><time>2023-06-03T09:17:42.320</time></trkpt><trkpt lat="55.9173500" lon="49.2608100"><time>2023-06-03T09:17:44.320</time></trkpt><trkpt lat="55.9173367" lon="49.2609117"><time>2023-06-03T09:17:46.323</time></trkpt><trkpt lat="55.9172933" lon="49.2610467"><time>2023-06-03T09:17:48.320</time></trkpt><trkpt lat="55.9172450" lon="49.2611667"><time>2023-06-03T09:17:50.320</time></trkpt><trkpt lat="55.9171917" lon="49.2612583"><time>2023-06-03T09:17:52.320</time></trkpt><trkpt lat="55.9171433" lon="49.2613150"><time>2023-06-03T09:17:54.313</time></trkpt><trkpt lat="55.9170967" lon="49.2613483"><time>2023-06-03T09:17:56.313</time></trkpt><trkpt lat="55.9170383" lon="49.2613967"><time>2023-06-03T09:17:58.313</time></trkpt><trkpt lat="55.9169783" lon="49.2614117"><time>2023-06-03T09:18:00.313</time></trkpt><trkpt lat="55.9169233" lon="49.2614200"><time>2023-06-03T09:18:02.320</time></trkpt><trkpt lat="55.9168650" lon="49.2614167"><time>2023-06-03T09:18:04.320</time></trkpt><trkpt lat="55.9168050" lon="49.2614017"><time>2023-06-03T09:18:06.327</time></trkpt><trkpt lat="55.9167283" lon="49.2613450"><time>2023-06-03T09:18:08.320</time></trkpt><trkpt lat="55.9166683" lon="49.2612817"><time>2023-06-03T09:18:10.323</time></trkpt><trkpt lat="55.9166333" lon="49.2612233"><time>2023-06-03T09:18:12.323</time></trkpt><trkpt lat="55.9165900" lon="49.2611717"><time>2023-06-03T09:18:13.323</time></trkpt><trkpt lat="55.9165300" lon="49.2610833"><time>2023-06-03T09:18:15.320</time></trkpt><trkpt lat="55.9164750" lon="49.2609667"><time>2023-06-03T09:18:17.320</time></trkpt><trkpt lat="55.9164433" lon="49.2609067"><time>2023-06-03T09:18:18.320</time></trkpt><trkpt lat="55.9164017" lon="49.2608383"><time>2023-06-03T09:18:19.820</time></trkpt><trkpt lat="55.9163667" lon="49.2607767"><time>2023-06-03T09:18:20.820</time></trkpt><trkpt lat="55.9163233" lon="49.2606917"><time>2023-06-03T09:18:22.323</time></trkpt><trkpt lat="55.9162850" lon="49.2606450"><time>2023-06-03T09:18:23.320</time></trkpt><trkpt lat="55.9162133" lon="49.2605733"><time>2023-06-03T09:18:25.307</time></trkpt><trkpt lat="55.9161500" lon="49.2604933"><time>2023-06-03T09:18:27.290</time></trkpt><trkpt lat="55.9160900" lon="49.2603850"><time>2023-06-03T09:18:29.273</time></trkpt><trkpt lat="55.9160500" lon="49.2603317"><time>2023-06-03T09:18:30.313</time></trkpt><trkpt lat="55.9159983" lon="49.2603133"><time>2023-06-03T09:18:31.297</time></trkpt><trkpt lat="55.9159317" lon="49.2602367"><time>2023-06-03T09:18:33.313</time></trkpt><trkpt lat="55.9158650" lon="49.2601450"><time>2023-06-03T09:18:35.320</time></trkpt><trkpt lat="55.9157917" lon="49.2600617"><time>2023-06-03T09:18:37.317</time></trkpt><trkpt lat="55.9157567" lon="49.2600100"><time>2023-06-03T09:18:38.327</time></trkpt><trkpt lat="55.9156900" lon="49.2599150"><time>2023-06-03T09:18:40.323</time></trkpt><trkpt lat="55.9156367" lon="49.2598333"><time>2023-06-03T09:18:42.330</time></trkpt><trkpt lat="55.9155767" lon="49.2597533"><time>2023-06-03T09:18:44.327</time></trkpt><trkpt lat="55.9155233" lon="49.2596917"><time>2023-06-03T09:18:46.327</time></trkpt><trkpt lat="55.9154850" lon="49.2596333"><time>2023-06-03T09:18:48.327</time></trkpt><trkpt lat="55.9154517" lon="49.2595533"><time>2023-06-03T09:18:50.333</time></trkpt><trkpt lat="55.9154117" lon="49.2594483"><time>2023-06-03T09:18:52.327</time></trkpt><trkpt lat="55.9153800" lon="49.2593333"><time>2023-06-03T09:18:54.330</time></trkpt><trkpt lat="55.9153550" lon="49.2592100"><time>2023-06-03T09:18:56.327</time></trkpt><trkpt lat="55.9153333" lon="49.2590950"><time>2023-06-03T09:18:58.327</time></trkpt><trkpt lat="55.9152983" lon="49.2589833"><time>2023-06-03T09:19:00.327</time></trkpt><trkpt lat="55.9152667" lon="49.2588617"><time>2023-06-03T09:19:02.327</time></trkpt><trkpt lat="55.9152317" lon="49.2587267"><time>2023-06-03T09:19:04.340</time></trkpt><trkpt lat="55.9150567" lon="49.2584267"><time>2023-06-03T09:19:05.833</time></trkpt><trkpt lat="55.9150800" lon="49.2581333"><time>2023-06-03T09:19:06.333</time></trkpt><trkpt lat="55.9150550" lon="49.2582117"><time>2023-06-03T09:19:07.307</time></trkpt><trkpt lat="55.9150983" lon="49.2583050"><time>2023-06-03T09:19:07.807</time></trkpt><trkpt lat="55.9150450" lon="49.2583167"><time>2023-06-03T09:19:08.307</time></trkpt><trkpt lat="55.9149850" lon="49.2582867"><time>2023-06-03T09:19:10.310</time></trkpt><trkpt lat="55.9149517" lon="49.2582300"><time>2023-06-03T09:19:11.313</time></trkpt><trkpt lat="55.9149183" lon="49.2581417"><time>2023-06-03T09:19:13.313</time></trkpt><trkpt lat="55.9148767" lon="49.2580733"><time>2023-06-03T09:19:15.313</time></trkpt><trkpt lat="55.9148283" lon="49.2580183"><time>2023-06-03T09:19:17.313</time></trkpt><trkpt lat="55.9147567" lon="49.2579700"><time>2023-06-03T09:19:19.313</time></trkpt><trkpt lat="55.9146983" lon="49.2579033"><time>2023-06-03T09:19:21.313</time></trkpt><trkpt lat="55.9146383" lon="49.2578133"><time>2023-06-03T09:19:23.313</time></trkpt><trkpt lat="55.9146033" lon="49.2577583"><time>2023-06-03T09:19:24.313</time></trkpt><trkpt lat="55.9145417" lon="49.2576800"><time>2023-06-03T09:19:26.313</time></trkpt><trkpt lat="55.9144933" lon="49.2576483"><time>2023-06-03T09:19:27.313</time></trkpt><trkpt lat="55.9144317" lon="49.2576017"><time>2023-06-03T09:19:29.310</time></trkpt><trkpt lat="55.9143850" lon="49.2575850"><time>2023-06-03T09:19:30.330</time></trkpt><trkpt lat="55.9143800" lon="49.2575783"><time>2023-06-03T09:19:32.310</time></trkpt><trkpt lat="55.9143367" lon="49.2575400"><time>2023-06-03T09:19:35.307</time></trkpt><trkpt lat="55.9142917" lon="49.2575300"><time>2023-06-03T09:19:37.307</time></trkpt><trkpt lat="55.9142300" lon="49.2575283"><time>2023-06-03T09:19:39.287</time></trkpt><trkpt lat="55.9141683" lon="49.2575217"><time>2023-06-03T09:19:40.307</time></trkpt><trkpt lat="55.9140733" lon="49.2575233"><time>2023-06-03T09:19:41.307</time></trkpt><trkpt lat="55.9140100" lon="49.2575250"><time>2023-06-03T09:19:42.310</time></trkpt><trkpt lat="55.9139350" lon="49.2575217"><time>2023-06-03T09:19:43.337</time></trkpt><trkpt lat="55.9139433" lon="49.2575333"><time>2023-06-03T09:19:44.807</time></trkpt><trkpt lat="55.9139033" lon="49.2575767"><time>2023-06-03T09:19:47.317</time></trkpt><trkpt lat="55.9138267" lon="49.2576183"><time>2023-06-03T09:19:49.307</time></trkpt><trkpt lat="55.9137233" lon="49.2576233"><time>2023-06-03T09:19:51.313</time></trkpt><trkpt lat="55.9136850" lon="49.2575700"><time>2023-06-03T09:20:03.317</time></trkpt><trkpt lat="55.9136417" lon="49.2576017"><time>2023-06-03T09:20:15.337</time></trkpt><trkpt lat="55.9136417" lon="49.2576017"><time>2023-06-03T09:20:15.410</time></trkpt><trkpt lat="55.9135883" lon="49.2576483"><time>2023-06-03T09:20:19.337</time></trkpt><trkpt lat="55.9135883" lon="49.2576483"><time>2023-06-03T09:20:20.317</time></trkpt><trkpt lat="55.9136450" lon="49.2576317"><time>2023-06-03T09:20:33.313</time></trkpt><trkpt lat="55.9135967" lon="49.2576783"><time>2023-06-03T09:20:43.317</time></trkpt><trkpt lat="55.9136483" lon="49.2576517"><time>2023-06-03T09:20:47.313</time></trkpt><trkpt lat="55.9137033" lon="49.2576633"><time>2023-06-03T09:20:55.320</time></trkpt><trkpt lat="55.9137383" lon="49.2575867"><time>2023-06-03T09:21:02.323</time></trkpt><trkpt lat="55.9137917" lon="49.2575817"><time>2023-06-03T09:21:10.320</time></trkpt><trkpt lat="55.9138400" lon="49.2576167"><time>2023-06-03T09:21:13.327</time></trkpt><trkpt lat="55.9139017" lon="49.2576050"><time>2023-06-03T09:21:15.307</time></trkpt><trkpt lat="55.9139650" lon="49.2575967"><time>2023-06-03T09:21:17.317</time></trkpt><trkpt lat="55.9140317" lon="49.2575867"><time>2023-06-03T09:21:19.317</time></trkpt><trkpt lat="55.9141200" lon="49.2575533"><time>2023-06-03T09:21:21.320</time></trkpt><trkpt lat="55.9141650" lon="49.2575400"><time>2023-06-03T09:21:22.287</time></trkpt><trkpt lat="55.9142350" lon="49.2575500"><time>2023-06-03T09:21:24.313</time></trkpt><trkpt lat="55.9143000" lon="49.2575917"><time>2023-06-03T09:21:26.297</time></trkpt><trkpt lat="55.9143417" lon="49.2576367"><time>2023-06-03T09:21:27.293</time></trkpt><trkpt lat="55.9144250" lon="49.2577150"><time>2023-06-03T09:21:29.317</time></trkpt><trkpt lat="55.9144933" lon="49.2577950"><time>2023-06-03T09:21:31.310</time></trkpt><trkpt lat="55.9145333" lon="49.2578383"><time>2023-06-03T09:21:32.280</time></trkpt><trkpt lat="55.9145933" lon="49.2579283"><time>2023-06-03T09:21:34.283</time></trkpt><trkpt lat="55.9146433" lon="49.2580183"><time>2023-06-03T09:21:36.313</time></trkpt><trkpt lat="55.9147083" lon="49.2581033"><time>2023-06-03T09:21:38.313</time></trkpt><trkpt lat="55.9147650" lon="49.2581933"><time>2023-06-03T09:21:40.307</time></trkpt><trkpt lat="55.9148417" lon="49.2583000"><time>2023-06-03T09:21:42.307</time></trkpt><trkpt lat="55.9148933" lon="49.2583567"><time>2023-06-03T09:21:44.313</time></trkpt><trkpt lat="55.9149317" lon="49.2584100"><time>2023-06-03T09:21:45.313</time></trkpt><trkpt lat="55.9149800" lon="49.2585100"><time>2023-06-03T09:21:47.323</time></trkpt><trkpt lat="55.9150250" lon="49.2586033"><time>2023-06-03T09:21:49.323</time></trkpt><trkpt lat="55.9150733" lon="49.2586983"><time>2023-06-03T09:21:51.310</time></trkpt><trkpt lat="55.9151150" lon="49.2588233"><time>2023-06-03T09:21:53.317</time></trkpt><trkpt lat="55.9151317" lon="49.2589617"><time>2023-06-03T09:21:55.307</time></trkpt><trkpt lat="55.9151633" lon="49.2590917"><time>2023-06-03T09:21:57.300</time></trkpt><trkpt lat="55.9152000" lon="49.2592250"><time>2023-06-03T09:21:59.313</time></trkpt><trkpt lat="55.9152417" lon="49.2593500"><time>2023-06-03T09:22:01.317</time></trkpt><trkpt lat="55.9152783" lon="49.2594517"><time>2023-06-03T09:22:03.320</time></trkpt><trkpt lat="55.9153150" lon="49.2595250"><time>2023-06-03T09:22:05.323</time></trkpt><trkpt lat="55.9153717" lon="49.2595767"><time>2023-06-03T09:22:06.313</time></trkpt><trkpt lat="55.9154317" lon="49.2596217"><time>2023-06-03T09:22:07.313</time></trkpt><trkpt lat="55.9154850" lon="49.2596750"><time>2023-06-03T09:22:08.317</time></trkpt><trkpt lat="55.9155300" lon="49.2597333"><time>2023-06-03T09:22:09.313</time></trkpt><trkpt lat="55.9155733" lon="49.2597983"><time>2023-06-03T09:22:10.317</time></trkpt><trkpt lat="55.9156167" lon="49.2598633"><time>2023-06-03T09:22:11.320</time></trkpt><trkpt lat="55.9156533" lon="49.2599217"><time>2023-06-03T09:22:12.320</time></trkpt><trkpt lat="55.9156900" lon="49.2599733"><time>2023-06-03T09:22:13.323</time></trkpt><trkpt lat="55.9157583" lon="49.2600683"><time>2023-06-03T09:22:15.320</time></trkpt><trkpt lat="55.9158283" lon="49.2601583"><time>2023-06-03T09:22:17.307</time></trkpt><trkpt lat="55.9158633" lon="49.2602117"><time>2023-06-03T09:22:18.313</time></trkpt><trkpt lat="55.9159000" lon="49.2602600"><time>2023-06-03T09:22:19.313</time></trkpt><trkpt lat="55.9159450" lon="49.2603450"><time>2023-06-03T09:22:21.290</time></trkpt><trkpt lat="55.9159833" lon="49.2604250"><time>2023-06-03T09:22:23.320</time></trkpt><trkpt lat="55.9160317" lon="49.2605150"><time>2023-06-03T09:22:25.323</time></trkpt><trkpt lat="55.9160733" lon="49.2606017"><time>2023-06-03T09:22:27.320</time></trkpt><trkpt lat="55.9161183" lon="49.2607133"><time>2023-06-03T09:22:29.287</time></trkpt><trkpt lat="55.9161633" lon="49.2608383"><time>2023-06-03T09:22:31.317</time></trkpt><trkpt lat="55.9162033" lon="49.2609533"><time>2023-06-03T09:22:33.313</time></trkpt><trkpt lat="55.9162500" lon="49.2610583"><time>2023-06-03T09:22:35.323</time></trkpt><trkpt lat="55.9162950" lon="49.2611650"><time>2023-06-03T09:22:37.323</time></trkpt><trkpt lat="55.9163483" lon="49.2612583"><time>2023-06-03T09:22:39.317</time></trkpt><trkpt lat="55.9163933" lon="49.2613550"><time>2023-06-03T09:22:41.317</time></trkpt><trkpt lat="55.9164333" lon="49.2614300"><time>2023-06-03T09:22:43.323</time></trkpt><trkpt lat="55.9164800" lon="49.2614950"><time>2023-06-03T09:22:45.320</time></trkpt><trkpt lat="55.9165283" lon="49.2615550"><time>2023-06-03T09:22:47.320</time></trkpt><trkpt lat="55.9165950" lon="49.2615817"><time>2023-06-03T09:22:49.317</time></trkpt><trkpt lat="55.9166467" lon="49.2615750"><time>2023-06-03T09:22:50.323</time></trkpt><trkpt lat="55.9167217" lon="49.2615383"><time>2023-06-03T09:22:52.323</time></trkpt><trkpt lat="55.9167750" lon="49.2615217"><time>2023-06-03T09:22:53.323</time></trkpt><trkpt lat="55.9168283" lon="49.2614717"><time>2023-06-03T09:22:54.323</time></trkpt><trkpt lat="55.9168867" lon="49.2613983"><time>2023-06-03T09:22:55.310</time></trkpt><trkpt lat="55.9169500" lon="49.2612733"><time>2023-06-03T09:22:57.313</time></trkpt><trkpt lat="55.9169833" lon="49.2612150"><time>2023-06-03T09:22:58.313</time></trkpt><trkpt lat="55.9170333" lon="49.2610900"><time>2023-06-03T09:23:00.317</time></trkpt><trkpt lat="55.9170567" lon="49.2610200"><time>2023-06-03T09:23:01.317</time></trkpt><trkpt lat="55.9170817" lon="49.2609483"><time>2023-06-03T09:23:02.313</time></trkpt><trkpt lat="55.9171083" lon="49.2608783"><time>2023-06-03T09:23:03.320</time></trkpt><trkpt lat="55.9171683" lon="49.2607533"><time>2023-06-03T09:23:05.323</time></trkpt><trkpt lat="55.9171967" lon="49.2606900"><time>2023-06-03T09:23:06.317</time></trkpt><trkpt lat="55.9172283" lon="49.2606217"><time>2023-06-03T09:23:07.320</time></trkpt><trkpt lat="55.9172583" lon="49.2605417"><time>2023-06-03T09:23:08.320</time></trkpt><trkpt lat="55.9173100" lon="49.2604800"><time>2023-06-03T09:23:09.320</time></trkpt><trkpt lat="55.9173617" lon="49.2604233"><time>2023-06-03T09:23:10.320</time></trkpt><trkpt lat="55.9174067" lon="49.2603683"><time>2023-06-03T09:23:11.320</time></trkpt><trkpt lat="55.9174567" lon="49.2603150"><time>2023-06-03T09:23:12.320</time></trkpt><trkpt lat="55.9175117" lon="49.2602567"><time>2023-06-03T09:23:13.323</time></trkpt><trkpt lat="55.9175667" lon="49.2602050"><time>2023-06-03T09:23:14.320</time></trkpt><trkpt lat="55.9176233" lon="49.2601600"><time>2023-06-03T09:23:15.317</time></trkpt><trkpt lat="55.9176733" lon="49.2601000"><time>2023-06-03T09:23:16.320</time></trkpt><trkpt lat="55.9177217" lon="49.2600367"><time>2023-06-03T09:23:17.320</time></trkpt><trkpt lat="55.9177633" lon="49.2599750"><time>2023-06-03T09:23:18.320</time></trkpt><trkpt lat="55.9178033" lon="49.2599150"><time>2023-06-03T09:23:19.323</time></trkpt><trkpt lat="55.9178467" lon="49.2598117"><time>2023-06-03T09:23:21.320</time></trkpt><trkpt lat="55.9178700" lon="49.2597417"><time>2023-06-03T09:23:22.280</time></trkpt><trkpt lat="55.9178900" lon="49.2596683"><time>2023-06-03T09:23:23.317</time></trkpt><trkpt lat="55.9179217" lon="49.2595500"><time>2023-06-03T09:23:25.317</time></trkpt><trkpt lat="55.9179517" lon="49.2594533"><time>2023-06-03T09:23:27.293</time></trkpt><trkpt lat="55.9179967" lon="49.2593367"><time>2023-06-03T09:23:29.320</time></trkpt><trkpt lat="55.9180450" lon="49.2592383"><time>2023-06-03T09:23:31.320</time></trkpt><trkpt lat="55.9180883" lon="49.2591000"><time>2023-06-03T09:23:33.320</time></trkpt><trkpt lat="55.9181083" lon="49.2590233"><time>2023-06-03T09:23:34.320</time></trkpt><trkpt lat="55.9181433" lon="49.2588767"><time>2023-06-03T09:23:36.317</time></trkpt><trkpt lat="55.9181650" lon="49.2587500"><time>2023-06-03T09:23:38.320</time></trkpt><trkpt lat="55.9181817" lon="49.2585500"><time>2023-06-03T09:23:40.317</time></trkpt><trkpt lat="55.9181850" lon="49.2584550"><time>2023-06-03T09:23:41.320</time></trkpt><trkpt lat="55.9181817" lon="49.2583367"><time>2023-06-03T09:23:42.320</time></trkpt><trkpt lat="55.9181883" lon="49.2582267"><time>2023-06-03T09:23:43.320</time></trkpt><trkpt lat="55.9182117" lon="49.2581467"><time>2023-06-03T09:23:44.320</time></trkpt><trkpt lat="55.9182550" lon="49.2580417"><time>2023-06-03T09:23:46.323</time></trkpt><trkpt lat="55.9182867" lon="49.2579633"><time>2023-06-03T09:23:47.320</time></trkpt><trkpt lat="55.9183383" lon="49.2579317"><time>2023-06-03T09:23:49.323</time></trkpt><trkpt lat="55.9183800" lon="49.2578883"><time>2023-06-03T09:23:51.320</time></trkpt><trkpt lat="55.9184217" lon="49.2578183"><time>2023-06-03T09:23:53.317</time></trkpt><trkpt lat="55.9184767" lon="49.2577483"><time>2023-06-03T09:23:54.317</time></trkpt><trkpt lat="55.9185283" lon="49.2576633"><time>2023-06-03T09:23:55.317</time></trkpt><trkpt lat="55.9185700" lon="49.2576000"><time>2023-06-03T09:23:56.320</time></trkpt><trkpt lat="55.9186133" lon="49.2575283"><time>2023-06-03T09:23:57.317</time></trkpt><trkpt lat="55.9186517" lon="49.2574533"><time>2023-06-03T09:23:58.320</time></trkpt><trkpt lat="55.9186900" lon="49.2573833"><time>2023-06-03T09:23:59.320</time></trkpt><trkpt lat="55.9187350" lon="49.2573083"><time>2023-06-03T09:24:00.320</time></trkpt><trkpt lat="55.9187750" lon="49.2572517"><time>2023-06-03T09:24:01.307</time></trkpt><trkpt lat="55.9188067" lon="49.2571850"><time>2023-06-03T09:24:02.317</time></trkpt><trkpt lat="55.9188617" lon="49.2570817"><time>2023-06-03T09:24:04.317</time></trkpt><trkpt lat="55.9189017" lon="49.2569917"><time>2023-06-03T09:24:06.323</time></trkpt><trkpt lat="55.9189400" lon="49.2568983"><time>2023-06-03T09:24:08.320</time></trkpt><trkpt lat="55.9189800" lon="49.2567867"><time>2023-06-03T09:24:10.320</time></trkpt><trkpt lat="55.9190150" lon="49.2566717"><time>2023-06-03T09:24:12.317</time></trkpt><trkpt lat="55.9190400" lon="49.2565800"><time>2023-06-03T09:24:15.323</time></trkpt><trkpt lat="55.9190583" lon="49.2564617"><time>2023-06-03T09:24:17.320</time></trkpt><trkpt lat="55.9190983" lon="49.2563467"><time>2023-06-03T09:24:19.320</time></trkpt><trkpt lat="55.9191350" lon="49.2562467"><time>2023-06-03T09:24:21.320</time></trkpt><trkpt lat="55.9191683" lon="49.2561300"><time>2023-06-03T09:24:23.323</time></trkpt><trkpt lat="55.9192050" lon="49.2560267"><time>2023-06-03T09:24:25.320</time></trkpt><trkpt lat="55.9192500" lon="49.2558833"><time>2023-06-03T09:24:27.310</time></trkpt><trkpt lat="55.9192633" lon="49.2558033"><time>2023-06-03T09:24:28.317</time></trkpt><trkpt lat="55.9192783" lon="49.2557267"><time>2023-06-03T09:24:29.320</time></trkpt><trkpt lat="55.9192950" lon="49.2555933"><time>2023-06-03T09:24:31.317</time></trkpt><trkpt lat="55.9193233" lon="49.2554850"><time>2023-06-03T09:24:33.317</time></trkpt><trkpt lat="55.9193417" lon="49.2553433"><time>2023-06-03T09:24:35.317</time></trkpt><trkpt lat="55.9193583" lon="49.2552633"><time>2023-06-03T09:24:36.320</time></trkpt><trkpt lat="55.9194067" lon="49.2551400"><time>2023-06-03T09:24:38.320</time></trkpt><trkpt lat="55.9194417" lon="49.2550683"><time>2023-06-03T09:24:39.320</time></trkpt><trkpt lat="55.9194700" lon="49.2549900"><time>2023-06-03T09:24:40.320</time></trkpt><trkpt lat="55.9194933" lon="49.2548917"><time>2023-06-03T09:24:41.320</time></trkpt><trkpt lat="55.9195183" lon="49.2547883"><time>2023-06-03T09:24:42.320</time></trkpt><trkpt lat="55.9195400" lon="49.2546967"><time>2023-06-03T09:24:43.323</time></trkpt><trkpt lat="55.9195700" lon="49.2545817"><time>2023-06-03T09:24:45.320</time></trkpt><trkpt lat="55.9195850" lon="49.2545033"><time>2023-06-03T09:24:47.320</time></trkpt><trkpt lat="55.9195950" lon="49.2543567"><time>2023-06-03T09:24:49.320</time></trkpt><trkpt lat="55.9196167" lon="49.2541583"><time>2023-06-03T09:24:51.320</time></trkpt><trkpt lat="55.9196350" lon="49.2540550"><time>2023-06-03T09:24:52.317</time></trkpt><trkpt lat="55.9196517" lon="49.2539550"><time>2023-06-03T09:24:53.317</time></trkpt><trkpt lat="55.9196700" lon="49.2538533"><time>2023-06-03T09:24:54.320</time></trkpt><trkpt lat="55.9196867" lon="49.2537683"><time>2023-06-03T09:24:55.320</time></trkpt><trkpt lat="55.9197017" lon="49.2536817"><time>2023-06-03T09:24:56.320</time></trkpt><trkpt lat="55.9197217" lon="49.2535933"><time>2023-06-03T09:24:57.320</time></trkpt><trkpt lat="55.9197450" lon="49.2534983"><time>2023-06-03T09:24:58.320</time></trkpt><trkpt lat="55.9197733" lon="49.2534100"><time>2023-06-03T09:24:59.323</time></trkpt><trkpt lat="55.9198183" lon="49.2532883"><time>2023-06-03T09:25:01.320</time></trkpt><trkpt lat="55.9198433" lon="49.2531883"><time>2023-06-03T09:25:03.317</time></trkpt><trkpt lat="55.9198700" lon="49.2531000"><time>2023-06-03T09:25:05.320</time></trkpt><trkpt lat="55.9198983" lon="49.2530150"><time>2023-06-03T09:25:07.317</time></trkpt><trkpt lat="55.9199183" lon="49.2529000"><time>2023-06-03T09:25:09.307</time></trkpt><trkpt lat="55.9199117" lon="49.2527767"><time>2023-06-03T09:25:11.317</time></trkpt><trkpt lat="55.9199033" lon="49.2526467"><time>2023-06-03T09:25:13.313</time></trkpt><trkpt lat="55.9199067" lon="49.2525017"><time>2023-06-03T09:25:15.317</time></trkpt><trkpt lat="55.9199133" lon="49.2524217"><time>2023-06-03T09:25:16.317</time></trkpt><trkpt lat="55.9199167" lon="49.2523283"><time>2023-06-03T09:25:17.317</time></trkpt><trkpt lat="55.9199200" lon="49.2522267"><time>2023-06-03T09:25:18.317</time></trkpt><trkpt lat="55.9199267" lon="49.2521317"><time>2023-06-03T09:25:19.320</time></trkpt><trkpt lat="55.9199317" lon="49.2520300"><time>2023-06-03T09:25:20.320</time></trkpt><trkpt lat="55.9199350" lon="49.2519383"><time>2023-06-03T09:25:21.323</time></trkpt><trkpt lat="55.9199450" lon="49.2518450"><time>2023-06-03T09:25:22.323</time></trkpt><trkpt lat="55.9199483" lon="49.2517200"><time>2023-06-03T09:25:23.317</time></trkpt><trkpt lat="55.9199467" lon="49.2516133"><time>2023-06-03T09:25:24.317</time></trkpt><trkpt lat="55.9199450" lon="49.2515067"><time>2023-06-03T09:25:25.317</time></trkpt><trkpt lat="55.9199333" lon="49.2514017"><time>2023-06-03T09:25:26.297</time></trkpt><trkpt lat="55.9199233" lon="49.2513083"><time>2023-06-03T09:25:27.323</time></trkpt><trkpt lat="55.9199167" lon="49.2512200"><time>2023-06-03T09:25:28.307</time></trkpt><trkpt lat="55.9199083" lon="49.2510650"><time>2023-06-03T09:25:30.323</time></trkpt><trkpt lat="55.9198967" lon="49.2509217"><time>2023-06-03T09:25:32.303</time></trkpt><trkpt lat="55.9198967" lon="49.2507950"><time>2023-06-03T09:25:34.320</time></trkpt><trkpt lat="55.9199150" lon="49.2507050"><time>2023-06-03T09:25:36.320</time></trkpt><trkpt lat="55.9199267" lon="49.2505950"><time>2023-06-03T09:25:38.320</time></trkpt><trkpt lat="55.9199283" lon="49.2504467"><time>2023-06-03T09:25:40.320</time></trkpt><trkpt lat="55.9199167" lon="49.2503417"><time>2023-06-03T09:25:41.320</time></trkpt><trkpt lat="55.9199017" lon="49.2502583"><time>2023-06-03T09:25:42.317</time></trkpt><trkpt lat="55.9198833" lon="49.2501783"><time>2023-06-03T09:25:43.323</time></trkpt><trkpt lat="55.9198617" lon="49.2501067"><time>2023-06-03T09:25:44.323</time></trkpt><trkpt lat="55.9198233" lon="49.2499917"><time>2023-06-03T09:25:46.320</time></trkpt><trkpt lat="55.9197833" lon="49.2498567"><time>2023-06-03T09:25:48.320</time></trkpt><trkpt lat="55.9197550" lon="49.2497183"><time>2023-06-03T09:25:50.320</time></trkpt><trkpt lat="55.9197283" lon="49.2495900"><time>2023-06-03T09:25:52.320</time></trkpt><trkpt lat="55.9197050" lon="49.2494650"><time>2023-06-03T09:25:54.323</time></trkpt><trkpt lat="55.9196867" lon="49.2493300"><time>2023-06-03T09:25:56.307</time></trkpt><trkpt lat="55.9196717" lon="49.2492133"><time>2023-06-03T09:25:59.323</time></trkpt><trkpt lat="55.9196550" lon="49.2491150"><time>2023-06-03T09:26:02.323</time></trkpt><trkpt lat="55.9196333" lon="49.2489950"><time>2023-06-03T09:26:04.323</time></trkpt><trkpt lat="55.9196150" lon="49.2488917"><time>2023-06-03T09:26:06.323</time></trkpt><trkpt lat="55.9196050" lon="49.2487900"><time>2023-06-03T09:26:08.313</time></trkpt><trkpt lat="55.9195750" lon="49.2486983"><time>2023-06-03T09:26:10.320</time></trkpt><trkpt lat="55.9195683" lon="49.2485983"><time>2023-06-03T09:26:12.320</time></trkpt><trkpt lat="55.9195667" lon="49.2484683"><time>2023-06-03T09:26:14.323</time></trkpt><trkpt lat="55.9195700" lon="49.2483317"><time>2023-06-03T09:26:16.320</time></trkpt><trkpt lat="55.9195717" lon="49.2482350"><time>2023-06-03T09:26:18.320</time></trkpt><trkpt lat="55.9195883" lon="49.2481067"><time>2023-06-03T09:26:20.320</time></trkpt><trkpt lat="55.9196133" lon="49.2479783"><time>2023-06-03T09:26:22.323</time></trkpt><trkpt lat="55.9196383" lon="49.2478650"><time>2023-06-03T09:26:24.323</time></trkpt><trkpt lat="55.9196617" lon="49.2477583"><time>2023-06-03T09:26:26.320</time></trkpt><trkpt lat="55.9196867" lon="49.2476150"><time>2023-06-03T09:26:28.323</time></trkpt><trkpt lat="55.9197033" lon="49.2474550"><time>2023-06-03T09:26:30.307</time></trkpt><trkpt lat="55.9197083" lon="49.2473650"><time>2023-06-03T09:26:31.313</time></trkpt><trkpt lat="55.9197217" lon="49.2472783"><time>2023-06-03T09:26:32.320</time></trkpt><trkpt lat="55.9197350" lon="49.2471933"><time>2023-06-03T09:26:33.317</time></trkpt><trkpt lat="55.9197583" lon="49.2471217"><time>2023-06-03T09:26:34.300</time></trkpt><trkpt lat="55.9197750" lon="49.2470367"><time>2023-06-03T09:26:35.310</time></trkpt><trkpt lat="55.9198067" lon="49.2469283"><time>2023-06-03T09:26:37.317</time></trkpt><trkpt lat="55.9198400" lon="49.2468183"><time>2023-06-03T09:26:39.317</time></trkpt><trkpt lat="55.9198950" lon="49.2466683"><time>2023-06-03T09:26:41.310</time></trkpt><trkpt lat="55.9199167" lon="49.2465617"><time>2023-06-03T09:26:42.317</time></trkpt><trkpt lat="55.9199250" lon="49.2464533"><time>2023-06-03T09:26:43.317</time></trkpt><trkpt lat="55.9199350" lon="49.2463283"><time>2023-06-03T09:26:44.317</time></trkpt><trkpt lat="55.9199333" lon="49.2462033"><time>2023-06-03T09:26:45.317</time></trkpt><trkpt lat="55.9199250" lon="49.2460833"><time>2023-06-03T09:26:46.297</time></trkpt><trkpt lat="55.9199167" lon="49.2459700"><time>2023-06-03T09:26:47.317</time></trkpt><trkpt lat="55.9199017" lon="49.2458683"><time>2023-06-03T09:26:48.317</time></trkpt><trkpt lat="55.9198883" lon="49.2457633"><time>2023-06-03T09:26:49.320</time></trkpt><trkpt lat="55.9198767" lon="49.2456683"><time>2023-06-03T09:26:50.317</time></trkpt><trkpt lat="55.9198683" lon="49.2455733"><time>2023-06-03T09:26:51.310</time></trkpt><trkpt lat="55.9198683" lon="49.2454850"><time>2023-06-03T09:26:52.313</time></trkpt><trkpt lat="55.9198867" lon="49.2453567"><time>2023-06-03T09:26:54.317</time></trkpt><trkpt lat="55.9199183" lon="49.2452450"><time>2023-06-03T09:26:56.320</time></trkpt><trkpt lat="55.9199600" lon="49.2451333"><time>2023-06-03T09:26:58.320</time></trkpt><trkpt lat="55.9200033" lon="49.2450167"><time>2023-06-03T09:27:00.317</time></trkpt><trkpt lat="55.9200217" lon="49.2449133"><time>2023-06-03T09:27:02.317</time></trkpt><trkpt lat="55.9200467" lon="49.2448100"><time>2023-06-03T09:27:04.317</time></trkpt><trkpt lat="55.9200583" lon="49.2447033"><time>2023-06-03T09:27:06.320</time></trkpt><trkpt lat="55.9200500" lon="49.2446067"><time>2023-06-03T09:27:08.317</time></trkpt><trkpt lat="55.9200383" lon="49.2444683"><time>2023-06-03T09:27:10.317</time></trkpt><trkpt lat="55.9199900" lon="49.2443683"><time>2023-06-03T09:27:12.320</time></trkpt><trkpt lat="55.9199317" lon="49.2442917"><time>2023-06-03T09:27:14.320</time></trkpt><trkpt lat="55.9198717" lon="49.2442250"><time>2023-06-03T09:27:16.320</time></trkpt><trkpt lat="55.9198150" lon="49.2441567"><time>2023-06-03T09:27:18.320</time></trkpt><trkpt lat="55.9197817" lon="49.2440967"><time>2023-06-03T09:27:19.317</time></trkpt><trkpt lat="55.9197367" lon="49.2439917"><time>2023-06-03T09:27:21.317</time></trkpt><trkpt lat="55.9196983" lon="49.2438767"><time>2023-06-03T09:27:23.317</time></trkpt><trkpt lat="55.9196617" lon="49.2437417"><time>2023-06-03T09:27:25.317</time></trkpt><trkpt lat="55.9196433" lon="49.2436683"><time>2023-06-03T09:27:26.317</time></trkpt><trkpt lat="55.9196283" lon="49.2435800"><time>2023-06-03T09:27:28.320</time></trkpt><trkpt lat="55.9196583" lon="49.2435167"><time>2023-06-03T09:27:33.313</time></trkpt><trkpt lat="55.9196650" lon="49.2434317"><time>2023-06-03T09:27:38.307</time></trkpt><trkpt lat="55.9196467" lon="49.2433317"><time>2023-06-03T09:27:42.317</time></trkpt><trkpt lat="55.9196133" lon="49.2432700"><time>2023-06-03T09:27:44.323</time></trkpt><trkpt lat="55.9195817" lon="49.2431950"><time>2023-06-03T09:27:46.323</time></trkpt><trkpt lat="55.9195667" lon="49.2431033"><time>2023-06-03T09:27:49.317</time></trkpt><trkpt lat="55.9195717" lon="49.2429933"><time>2023-06-03T09:27:53.320</time></trkpt><trkpt lat="55.9196000" lon="49.2428900"><time>2023-06-03T09:27:56.320</time></trkpt><trkpt lat="55.9196133" lon="49.2427933"><time>2023-06-03T09:27:58.317</time></trkpt><trkpt lat="55.9196183" lon="49.2426800"><time>2023-06-03T09:28:00.320</time></trkpt><trkpt lat="55.9196367" lon="49.2425567"><time>2023-06-03T09:28:02.320</time></trkpt><trkpt lat="55.9196500" lon="49.2424533"><time>2023-06-03T09:28:04.320</time></trkpt><trkpt lat="55.9196717" lon="49.2423633"><time>2023-06-03T09:28:06.317</time></trkpt><trkpt lat="55.9196950" lon="49.2422683"><time>2023-06-03T09:28:08.337</time></trkpt><trkpt lat="55.9196967" lon="49.2422650"><time>2023-06-03T09:28:09.800</time></trkpt><trkpt lat="55.9197133" lon="49.2421550"><time>2023-06-03T09:28:13.313</time></trkpt><trkpt lat="55.9197533" lon="49.2420150"><time>2023-06-03T09:28:21.310</time></trkpt><trkpt lat="55.9197950" lon="49.2419450"><time>2023-06-03T09:28:22.313</time></trkpt><trkpt lat="55.9198417" lon="49.2418950"><time>2023-06-03T09:28:23.307</time></trkpt><trkpt lat="55.9199067" lon="49.2418350"><time>2023-06-03T09:28:25.307</time></trkpt><trkpt lat="55.9199550" lon="49.2417650"><time>2023-06-03T09:28:28.290</time></trkpt><trkpt lat="55.9199900" lon="49.2416933"><time>2023-06-03T09:28:31.307</time></trkpt><trkpt lat="55.9200083" lon="49.2416183"><time>2023-06-03T09:28:37.307</time></trkpt><trkpt lat="55.9200417" lon="49.2415617"><time>2023-06-03T09:28:48.317</time></trkpt><trkpt lat="55.9200900" lon="49.2415750"><time>2023-06-03T09:28:51.323</time></trkpt><trkpt lat="55.9201450" lon="49.2415983"><time>2023-06-03T09:28:53.317</time></trkpt><trkpt lat="55.9202000" lon="49.2416400"><time>2023-06-03T09:28:55.317</time></trkpt><trkpt lat="55.9202600" lon="49.2416850"><time>2023-06-03T09:28:57.317</time></trkpt><trkpt lat="55.9203200" lon="49.2417483"><time>2023-06-03T09:28:59.317</time></trkpt><trkpt lat="55.9203783" lon="49.2417833"><time>2023-06-03T09:29:01.317</time></trkpt><trkpt lat="55.9204333" lon="49.2417883"><time>2023-06-03T09:29:03.317</time></trkpt><trkpt lat="55.9204983" lon="49.2417733"><time>2023-06-03T09:29:05.317</time></trkpt><trkpt lat="55.9205683" lon="49.2417550"><time>2023-06-03T09:29:07.320</time></trkpt><trkpt lat="55.9206267" lon="49.2417517"><time>2023-06-03T09:29:09.333</time></trkpt><trkpt lat="55.9206250" lon="49.2417517"><time>2023-06-03T09:29:10.813</time></trkpt><trkpt lat="55.9206750" lon="49.2417283"><time>2023-06-03T09:29:14.307</time></trkpt><trkpt lat="55.9207200" lon="49.2417183"><time>2023-06-03T09:29:19.313</time></trkpt><trkpt lat="55.9207650" lon="49.2417233"><time>2023-06-03T09:29:23.300</time></trkpt><trkpt lat="55.9208200" lon="49.2416933"><time>2023-06-03T09:29:26.310</time></trkpt><trkpt lat="55.9208850" lon="49.2417433"><time>2023-06-03T09:29:28.307</time></trkpt><trkpt lat="55.9209367" lon="49.2417800"><time>2023-06-03T09:29:30.310</time></trkpt><trkpt lat="55.9209900" lon="49.2418017"><time>2023-06-03T09:29:33.313</time></trkpt><trkpt lat="55.9210500" lon="49.2418217"><time>2023-06-03T09:29:36.307</time></trkpt><trkpt lat="55.9211000" lon="49.2418267"><time>2023-06-03T09:29:38.323</time></trkpt><trkpt lat="55.9211000" lon="49.2418267"><time>2023-06-03T09:29:39.313</time></trkpt><trkpt lat="55.9211500" lon="49.2418467"><time>2023-06-03T09:29:41.803</time></trkpt><trkpt lat="55.9212050" lon="49.2418550"><time>2023-06-03T09:29:45.303</time></trkpt><trkpt lat="55.9212467" lon="49.2418233"><time>2023-06-03T09:29:47.307</time></trkpt><trkpt lat="55.9212983" lon="49.2418333"><time>2023-06-03T09:29:52.310</time></trkpt><trkpt lat="55.9213500" lon="49.2418717"><time>2023-06-03T09:29:54.303</time></trkpt><trkpt lat="55.9213617" lon="49.2419617"><time>2023-06-03T09:30:04.323</time></trkpt><trkpt lat="55.9213617" lon="49.2419617"><time>2023-06-03T09:30:04.373</time></trkpt><trkpt lat="55.9213233" lon="49.2419017"><time>2023-06-03T09:30:14.317</time></trkpt><trkpt lat="55.9213250" lon="49.2419000"><time>2023-06-03T09:30:15.773</time></trkpt><trkpt lat="55.9212800" lon="49.2418400"><time>2023-06-03T09:30:20.307</time></trkpt><trkpt lat="55.9212333" lon="49.2417983"><time>2023-06-03T09:30:50.323</time></trkpt><trkpt lat="55.9211867" lon="49.2417750"><time>2023-06-03T09:30:53.320</time></trkpt><trkpt lat="55.9211150" lon="49.2417533"><time>2023-06-03T09:30:56.323</time></trkpt><trkpt lat="55.9210633" lon="49.2417233"><time>2023-06-03T09:30:58.317</time></trkpt><trkpt lat="55.9210067" lon="49.2417017"><time>2023-06-03T09:31:00.320</time></trkpt><trkpt lat="55.9209583" lon="49.2417033"><time>2023-06-03T09:31:02.317</time></trkpt><trkpt lat="55.9208967" lon="49.2416950"><time>2023-06-03T09:31:05.313</time></trkpt><trkpt lat="55.9208433" lon="49.2416950"><time>2023-06-03T09:31:07.320</time></trkpt><trkpt lat="55.9207933" lon="49.2417100"><time>2023-06-03T09:31:09.320</time></trkpt><trkpt lat="55.9207433" lon="49.2417217"><time>2023-06-03T09:31:11.320</time></trkpt><trkpt lat="55.9206917" lon="49.2417267"><time>2023-06-03T09:31:14.317</time></trkpt><trkpt lat="55.9206300" lon="49.2417367"><time>2023-06-03T09:31:17.307</time></trkpt><trkpt lat="55.9205600" lon="49.2417483"><time>2023-06-03T09:31:19.317</time></trkpt><trkpt lat="55.9205117" lon="49.2417483"><time>2023-06-03T09:31:21.287</time></trkpt><trkpt lat="55.9204517" lon="49.2417367"><time>2023-06-03T09:31:23.323</time></trkpt><trkpt lat="55.9203800" lon="49.2417100"><time>2023-06-03T09:31:26.320</time></trkpt><trkpt lat="55.9203317" lon="49.2416867"><time>2023-06-03T09:31:28.320</time></trkpt><trkpt lat="55.9202867" lon="49.2416617"><time>2023-06-03T09:31:31.323</time></trkpt><trkpt lat="55.9202083" lon="49.2416317"><time>2023-06-03T09:31:34.317</time></trkpt><trkpt lat="55.9201517" lon="49.2416217"><time>2023-06-03T09:31:37.327</time></trkpt><trkpt lat="55.9200867" lon="49.2416367"><time>2023-06-03T09:31:40.317</time></trkpt><trkpt lat="55.9200183" lon="49.2416800"><time>2023-06-03T09:31:43.317</time></trkpt><trkpt lat="55.9199733" lon="49.2417050"><time>2023-06-03T09:31:45.323</time></trkpt><trkpt lat="55.9199183" lon="49.2417333"><time>2023-06-03T09:31:47.323</time></trkpt><trkpt lat="55.9198483" lon="49.2417767"><time>2023-06-03T09:31:49.317</time></trkpt><trkpt lat="55.9197950" lon="49.2418183"><time>2023-06-03T09:31:51.323</time></trkpt><trkpt lat="55.9197350" lon="49.2418783"><time>2023-06-03T09:31:54.307</time></trkpt><trkpt lat="55.9196950" lon="49.2419583"><time>2023-06-03T09:31:58.320</time></trkpt><trkpt lat="55.9196700" lon="49.2420250"><time>2023-06-03T09:32:00.317</time></trkpt><trkpt lat="55.9196500" lon="49.2420967"><time>2023-06-03T09:32:02.323</time></trkpt><trkpt lat="55.9196300" lon="49.2421917"><time>2023-06-03T09:32:04.320</time></trkpt><trkpt lat="55.9196100" lon="49.2423000"><time>2023-06-03T09:32:06.320</time></trkpt><trkpt lat="55.9196100" lon="49.2423883"><time>2023-06-03T09:32:10.327</time></trkpt><trkpt lat="55.9195533" lon="49.2425567"><time>2023-06-03T09:32:58.317</time></trkpt><trkpt lat="55.9196017" lon="49.2425683"><time>2023-06-03T09:33:06.320</time></trkpt><trkpt lat="55.9195833" lon="49.2426450"><time>2023-06-03T09:34:07.323</time></trkpt><trkpt lat="55.9195767" lon="49.2427567"><time>2023-06-03T09:34:10.320</time></trkpt><trkpt lat="55.9195817" lon="49.2428567"><time>2023-06-03T09:34:12.313</time></trkpt><trkpt lat="55.9195667" lon="49.2429450"><time>2023-06-03T09:34:14.317</time></trkpt><trkpt lat="55.9195483" lon="49.2430400"><time>2023-06-03T09:34:16.320</time></trkpt><trkpt lat="55.9195267" lon="49.2431433"><time>2023-06-03T09:34:18.320</time></trkpt><trkpt lat="55.9195233" lon="49.2432400"><time>2023-06-03T09:34:20.310</time></trkpt><trkpt lat="55.9195333" lon="49.2433467"><time>2023-06-03T09:34:22.317</time></trkpt><trkpt lat="55.9195533" lon="49.2434800"><time>2023-06-03T09:34:24.323</time></trkpt><trkpt lat="55.9195833" lon="49.2435967"><time>2023-06-03T09:34:26.323</time></trkpt><trkpt lat="55.9196233" lon="49.2437133"><time>2023-06-03T09:34:28.323</time></trkpt><trkpt lat="55.9196767" lon="49.2438167"><time>2023-06-03T09:34:30.317</time></trkpt><trkpt lat="55.9197267" lon="49.2439167"><time>2023-06-03T09:34:32.297</time></trkpt><trkpt lat="55.9197783" lon="49.2440317"><time>2023-06-03T09:34:34.317</time></trkpt><trkpt lat="55.9198233" lon="49.2441350"><time>2023-06-03T09:34:36.317</time></trkpt><trkpt lat="55.9198517" lon="49.2442333"><time>2023-06-03T09:34:38.317</time></trkpt><trkpt lat="55.9198867" lon="49.2443233"><time>2023-06-03T09:34:40.323</time></trkpt><trkpt lat="55.9198967" lon="49.2444467"><time>2023-06-03T09:34:43.320</time></trkpt><trkpt lat="55.9198933" lon="49.2445400"><time>2023-06-03T09:34:45.320</time></trkpt><trkpt lat="55.9198750" lon="49.2446367"><time>2023-06-03T09:34:47.320</time></trkpt><trkpt lat="55.9198550" lon="49.2447450"><time>2023-06-03T09:34:49.320</time></trkpt><trkpt lat="55.9198200" lon="49.2448633"><time>2023-06-03T09:34:51.320</time></trkpt><trkpt lat="55.9197900" lon="49.2449667"><time>2023-06-03T09:34:53.320</time></trkpt><trkpt lat="55.9197683" lon="49.2450833"><time>2023-06-03T09:34:55.323</time></trkpt><trkpt lat="55.9197567" lon="49.2451867"><time>2023-06-03T09:34:57.320</time></trkpt><trkpt lat="55.9197583" lon="49.2452700"><time>2023-06-03T09:34:58.320</time></trkpt><trkpt lat="55.9197750" lon="49.2454250"><time>2023-06-03T09:35:00.323</time></trkpt><trkpt lat="55.9197883" lon="49.2455383"><time>2023-06-03T09:35:02.323</time></trkpt><trkpt lat="55.9198000" lon="49.2456283"><time>2023-06-03T09:35:04.323</time></trkpt><trkpt lat="55.9198083" lon="49.2457183"><time>2023-06-03T09:35:05.320</time></trkpt><trkpt lat="55.9198117" lon="49.2458650"><time>2023-06-03T09:35:07.323</time></trkpt><trkpt lat="55.9197950" lon="49.2459917"><time>2023-06-03T09:35:09.323</time></trkpt><trkpt lat="55.9197650" lon="49.2460933"><time>2023-06-03T09:35:11.323</time></trkpt><trkpt lat="55.9197217" lon="49.2461783"><time>2023-06-03T09:35:13.323</time></trkpt><trkpt lat="55.9196767" lon="49.2462750"><time>2023-06-03T09:35:15.323</time></trkpt><trkpt lat="55.9196350" lon="49.2463717"><time>2023-06-03T09:35:17.323</time></trkpt><trkpt lat="55.9195983" lon="49.2464950"><time>2023-06-03T09:35:19.320</time></trkpt><trkpt lat="55.9195650" lon="49.2466283"><time>2023-06-03T09:35:21.320</time></trkpt><trkpt lat="55.9195450" lon="49.2467333"><time>2023-06-03T09:35:23.320</time></trkpt><trkpt lat="55.9195317" lon="49.2468483"><time>2023-06-03T09:35:25.327</time></trkpt><trkpt lat="55.9195233" lon="49.2469600"><time>2023-06-03T09:35:27.323</time></trkpt><trkpt lat="55.9195167" lon="49.2470550"><time>2023-06-03T09:35:29.323</time></trkpt><trkpt lat="55.9195100" lon="49.2471617"><time>2023-06-03T09:35:31.323</time></trkpt><trkpt lat="55.9195117" lon="49.2472433"><time>2023-06-03T09:35:33.323</time></trkpt><trkpt lat="55.9195017" lon="49.2473333"><time>2023-06-03T09:35:35.280</time></trkpt><trkpt lat="55.9194833" lon="49.2474617"><time>2023-06-03T09:35:37.313</time></trkpt><trkpt lat="55.9194700" lon="49.2475617"><time>2023-06-03T09:35:39.317</time></trkpt><trkpt lat="55.9194600" lon="49.2476933"><time>2023-06-03T09:35:41.313</time></trkpt><trkpt lat="55.9194450" lon="49.2478233"><time>2023-06-03T09:35:43.320</time></trkpt><trkpt lat="55.9194367" lon="49.2479467"><time>2023-06-03T09:35:45.310</time></trkpt><trkpt lat="55.9194467" lon="49.2480267"><time>2023-06-03T09:35:46.317</time></trkpt><trkpt lat="55.9194567" lon="49.2481100"><time>2023-06-03T09:35:47.283</time></trkpt><trkpt lat="55.9194633" lon="49.2482250"><time>2023-06-03T09:35:49.317</time></trkpt><trkpt lat="55.9194783" lon="49.2483617"><time>2023-06-03T09:35:51.317</time></trkpt><trkpt lat="55.9194867" lon="49.2484450"><time>2023-06-03T09:35:52.313</time></trkpt><trkpt lat="55.9195083" lon="49.2485783"><time>2023-06-03T09:35:54.317</time></trkpt><trkpt lat="55.9195200" lon="49.2486567"><time>2023-06-03T09:35:55.313</time></trkpt><trkpt lat="55.9195417" lon="49.2487767"><time>2023-06-03T09:35:57.313</time></trkpt><trkpt lat="55.9195717" lon="49.2488833"><time>2023-06-03T09:35:59.320</time></trkpt><trkpt lat="55.9195933" lon="49.2489750"><time>2023-06-03T09:36:01.320</time></trkpt><trkpt lat="55.9196217" lon="49.2490717"><time>2023-06-03T09:36:03.320</time></trkpt><trkpt lat="55.9196533" lon="49.2492083"><time>2023-06-03T09:36:05.320</time></trkpt><trkpt lat="55.9196867" lon="49.2493000"><time>2023-06-03T09:36:07.313</time></trkpt><trkpt lat="55.9197217" lon="49.2494117"><time>2023-06-03T09:36:09.320</time></trkpt><trkpt lat="55.9197383" lon="49.2494900"><time>2023-06-03T09:36:10.317</time></trkpt><trkpt lat="55.9197550" lon="49.2495767"><time>2023-06-03T09:36:11.317</time></trkpt><trkpt lat="55.9197867" lon="49.2497133"><time>2023-06-03T09:36:13.320</time></trkpt><trkpt lat="55.9198100" lon="49.2498467"><time>2023-06-03T09:36:15.303</time></trkpt><trkpt lat="55.9198117" lon="49.2499650"><time>2023-06-03T09:36:17.323</time></trkpt><trkpt lat="55.9198133" lon="49.2500717"><time>2023-06-03T09:36:19.320</time></trkpt><trkpt lat="55.9197983" lon="49.2501733"><time>2023-06-03T09:36:21.313</time></trkpt><trkpt lat="55.9197900" lon="49.2502650"><time>2023-06-03T09:36:24.323</time></trkpt><trkpt lat="55.9197750" lon="49.2504133"><time>2023-06-03T09:36:26.317</time></trkpt><trkpt lat="55.9197700" lon="49.2504967"><time>2023-06-03T09:36:27.323</time></trkpt><trkpt lat="55.9197683" lon="49.2505767"><time>2023-06-03T09:36:28.320</time></trkpt><trkpt lat="55.9197783" lon="49.2507300"><time>2023-06-03T09:36:30.317</time></trkpt><trkpt lat="55.9197833" lon="49.2508167"><time>2023-06-03T09:36:31.323</time></trkpt><trkpt lat="55.9197967" lon="49.2509433"><time>2023-06-03T09:36:33.327</time></trkpt><trkpt lat="55.9197983" lon="49.2510500"><time>2023-06-03T09:36:35.320</time></trkpt><trkpt lat="55.9197917" lon="49.2511467"><time>2023-06-03T09:36:37.323</time></trkpt><trkpt lat="55.9197900" lon="49.2512900"><time>2023-06-03T09:36:39.323</time></trkpt><trkpt lat="55.9197900" lon="49.2514033"><time>2023-06-03T09:36:41.317</time></trkpt><trkpt lat="55.9197800" lon="49.2515350"><time>2023-06-03T09:36:43.323</time></trkpt><trkpt lat="55.9197767" lon="49.2516517"><time>2023-06-03T09:36:45.317</time></trkpt><trkpt lat="55.9197717" lon="49.2517600"><time>2023-06-03T09:36:47.327</time></trkpt><trkpt lat="55.9197683" lon="49.2518750"><time>2023-06-03T09:36:49.323</time></trkpt><trkpt lat="55.9197733" lon="49.2520150"><time>2023-06-03T09:36:51.307</time></trkpt><trkpt lat="55.9197583" lon="49.2521267"><time>2023-06-03T09:36:53.323</time></trkpt><trkpt lat="55.9197717" lon="49.2522467"><time>2023-06-03T09:36:55.323</time></trkpt><trkpt lat="55.9197533" lon="49.2523767"><time>2023-06-03T09:36:58.323</time></trkpt><trkpt lat="55.9197217" lon="49.2524817"><time>2023-06-03T09:37:00.320</time></trkpt><trkpt lat="55.9196983" lon="49.2525567"><time>2023-06-03T09:37:02.323</time></trkpt><trkpt lat="55.9196933" lon="49.2526483"><time>2023-06-03T09:37:05.320</time></trkpt><trkpt lat="55.9196883" lon="49.2527567"><time>2023-06-03T09:37:07.313</time></trkpt><trkpt lat="55.9196650" lon="49.2528617"><time>2023-06-03T09:37:09.317</time></trkpt><trkpt lat="55.9196550" lon="49.2529767"><time>2023-06-03T09:37:11.320</time></trkpt><trkpt lat="55.9196350" lon="49.2530850"><time>2023-06-03T09:37:13.323</time></trkpt><trkpt lat="55.9196300" lon="49.2531917"><time>2023-06-03T09:37:15.323</time></trkpt><trkpt lat="55.9196117" lon="49.2532783"><time>2023-06-03T09:37:17.313</time></trkpt><trkpt lat="55.9196000" lon="49.2533900"><time>2023-06-03T09:37:19.300</time></trkpt><trkpt lat="55.9195867" lon="49.2534950"><time>2023-06-03T09:37:21.320</time></trkpt><trkpt lat="55.9195700" lon="49.2535833"><time>2023-06-03T09:37:23.320</time></trkpt><trkpt lat="55.9195433" lon="49.2536983"><time>2023-06-03T09:37:26.320</time></trkpt><trkpt lat="55.9195350" lon="49.2538150"><time>2023-06-03T09:37:28.313</time></trkpt><trkpt lat="55.9195450" lon="49.2539050"><time>2023-06-03T09:37:30.320</time></trkpt><trkpt lat="55.9195950" lon="49.2539750"><time>2023-06-03T09:37:33.307</time></trkpt><trkpt lat="55.9196433" lon="49.2540267"><time>2023-06-03T09:37:35.323</time></trkpt><trkpt lat="55.9197067" lon="49.2540933"><time>2023-06-03T09:37:37.327</time></trkpt><trkpt lat="55.9197700" lon="49.2541583"><time>2023-06-03T09:37:39.323</time></trkpt><trkpt lat="55.9198300" lon="49.2542017"><time>2023-06-03T09:37:41.317</time></trkpt><trkpt lat="55.9198833" lon="49.2542233"><time>2023-06-03T09:37:43.327</time></trkpt><trkpt lat="55.9199450" lon="49.2542450"><time>2023-06-03T09:37:45.327</time></trkpt><trkpt lat="55.9199950" lon="49.2542567"><time>2023-06-03T09:37:47.323</time></trkpt><trkpt lat="55.9200400" lon="49.2542717"><time>2023-06-03T09:37:49.323</time></trkpt><trkpt lat="55.9200967" lon="49.2542933"><time>2023-06-03T09:37:51.320</time></trkpt><trkpt lat="55.9201517" lon="49.2543067"><time>2023-06-03T09:37:53.323</time></trkpt><trkpt lat="55.9202217" lon="49.2543350"><time>2023-06-03T09:37:55.323</time></trkpt><trkpt lat="55.9202817" lon="49.2543783"><time>2023-06-03T09:37:57.317</time></trkpt><trkpt lat="55.9203483" lon="49.2544400"><time>2023-06-03T09:37:59.320</time></trkpt><trkpt lat="55.9204183" lon="49.2545017"><time>2023-06-03T09:38:01.290</time></trkpt><trkpt lat="55.9204967" lon="49.2545617"><time>2023-06-03T09:38:03.307</time></trkpt><trkpt lat="55.9205800" lon="49.2546233"><time>2023-06-03T09:38:05.323</time></trkpt><trkpt lat="55.9206233" lon="49.2546517"><time>2023-06-03T09:38:06.323</time></trkpt><trkpt lat="55.9207017" lon="49.2547000"><time>2023-06-03T09:38:08.323</time></trkpt><trkpt lat="55.9207450" lon="49.2547367"><time>2023-06-03T09:38:09.327</time></trkpt><trkpt lat="55.9208200" lon="49.2548050"><time>2023-06-03T09:38:11.320</time></trkpt><trkpt lat="55.9208750" lon="49.2548717"><time>2023-06-03T09:38:13.303</time></trkpt><trkpt lat="55.9209367" lon="49.2549317"><time>2023-06-03T09:38:15.327</time></trkpt><trkpt lat="55.9209950" lon="49.2549967"><time>2023-06-03T09:38:17.327</time></trkpt><trkpt lat="55.9210500" lon="49.2550617"><time>2023-06-03T09:38:19.317</time></trkpt><trkpt lat="55.9211267" lon="49.2551367"><time>2023-06-03T09:38:21.327</time></trkpt><trkpt lat="55.9211650" lon="49.2551817"><time>2023-06-03T09:38:22.327</time></trkpt><trkpt lat="55.9212100" lon="49.2552250"><time>2023-06-03T09:38:23.327</time></trkpt><trkpt lat="55.9212550" lon="49.2552700"><time>2023-06-03T09:38:24.320</time></trkpt><trkpt lat="55.9213050" lon="49.2553167"><time>2023-06-03T09:38:25.327</time></trkpt><trkpt lat="55.9213500" lon="49.2553667"><time>2023-06-03T09:38:26.327</time></trkpt><trkpt lat="55.9213983" lon="49.2554117"><time>2023-06-03T09:38:27.320</time></trkpt><trkpt lat="55.9214483" lon="49.2554567"><time>2023-06-03T09:38:28.323</time></trkpt><trkpt lat="55.9214933" lon="49.2555000"><time>2023-06-03T09:38:29.320</time></trkpt><trkpt lat="55.9215317" lon="49.2555417"><time>2023-06-03T09:38:30.323</time></trkpt><trkpt lat="55.9216050" lon="49.2556250"><time>2023-06-03T09:38:32.327</time></trkpt><trkpt lat="55.9216750" lon="49.2556950"><time>2023-06-03T09:38:34.327</time></trkpt><trkpt lat="55.9217500" lon="49.2557550"><time>2023-06-03T09:38:36.327</time></trkpt><trkpt lat="55.9218350" lon="49.2557967"><time>2023-06-03T09:38:38.323</time></trkpt><trkpt lat="55.9219067" lon="49.2558550"><time>2023-06-03T09:38:40.323</time></trkpt><trkpt lat="55.9219800" lon="49.2558650"><time>2023-06-03T09:38:43.320</time></trkpt><trkpt lat="55.9220383" lon="49.2558617"><time>2023-06-03T09:38:45.327</time></trkpt><trkpt lat="55.9221033" lon="49.2558533"><time>2023-06-03T09:38:47.323</time></trkpt><trkpt lat="55.9221733" lon="49.2558500"><time>2023-06-03T09:38:49.323</time></trkpt><trkpt lat="55.9222283" lon="49.2558417"><time>2023-06-03T09:38:50.310</time></trkpt><trkpt lat="55.9222783" lon="49.2558333"><time>2023-06-03T09:38:51.320</time></trkpt><trkpt lat="55.9223617" lon="49.2558183"><time>2023-06-03T09:38:53.323</time></trkpt><trkpt lat="55.9224483" lon="49.2558217"><time>2023-06-03T09:38:55.323</time></trkpt><trkpt lat="55.9225150" lon="49.2558350"><time>2023-06-03T09:38:56.313</time></trkpt><trkpt lat="55.9225700" lon="49.2558633"><time>2023-06-03T09:38:57.317</time></trkpt><trkpt lat="55.9226283" lon="49.2558950"><time>2023-06-03T09:38:58.320</time></trkpt><trkpt lat="55.9226850" lon="49.2559383"><time>2023-06-03T09:38:59.307</time></trkpt><trkpt lat="55.9227450" lon="49.2559783"><time>2023-06-03T09:39:00.320</time></trkpt><trkpt lat="55.9228050" lon="49.2560100"><time>2023-06-03T09:39:01.323</time></trkpt><trkpt lat="55.9228650" lon="49.2560417"><time>2023-06-03T09:39:02.323</time></trkpt><trkpt lat="55.9229317" lon="49.2560833"><time>2023-06-03T09:39:03.320</time></trkpt><trkpt lat="55.9229983" lon="49.2561333"><time>2023-06-03T09:39:04.323</time></trkpt><trkpt lat="55.9230633" lon="49.2561850"><time>2023-06-03T09:39:05.323</time></trkpt><trkpt lat="55.9231233" lon="49.2562450"><time>2023-06-03T09:39:06.323</time></trkpt><trkpt lat="55.9231850" lon="49.2563117"><time>2023-06-03T09:39:07.320</time></trkpt><trkpt lat="55.9232417" lon="49.2563767"><time>2023-06-03T09:39:08.327</time></trkpt><trkpt lat="55.9233033" lon="49.2564383"><time>2023-06-03T09:39:09.323</time></trkpt><trkpt lat="55.9233467" lon="49.2564967"><time>2023-06-03T09:39:10.323</time></trkpt><trkpt lat="55.9233967" lon="49.2565483"><time>2023-06-03T09:39:11.323</time></trkpt><trkpt lat="55.9234467" lon="49.2566000"><time>2023-06-03T09:39:12.323</time></trkpt><trkpt lat="55.9235050" lon="49.2566483"><time>2023-06-03T09:39:13.327</time></trkpt><trkpt lat="55.9235700" lon="49.2566917"><time>2023-06-03T09:39:14.323</time></trkpt><trkpt lat="55.9236333" lon="49.2567317"><time>2023-06-03T09:39:15.323</time></trkpt><trkpt lat="55.9236983" lon="49.2567683"><time>2023-06-03T09:39:16.297</time></trkpt><trkpt lat="55.9237667" lon="49.2567983"><time>2023-06-03T09:39:17.313</time></trkpt><trkpt lat="55.9238333" lon="49.2568200"><time>2023-06-03T09:39:18.317</time></trkpt><trkpt lat="55.9239067" lon="49.2568233"><time>2023-06-03T09:39:19.320</time></trkpt><trkpt lat="55.9239700" lon="49.2568317"><time>2023-06-03T09:39:20.320</time></trkpt><trkpt lat="55.9240350" lon="49.2568300"><time>2023-06-03T09:39:21.323</time></trkpt><trkpt lat="55.9240850" lon="49.2568267"><time>2023-06-03T09:39:22.337</time></trkpt><trkpt lat="55.9241450" lon="49.2568133"><time>2023-06-03T09:39:23.323</time></trkpt><trkpt lat="55.9241967" lon="49.2568067"><time>2023-06-03T09:39:24.323</time></trkpt><trkpt lat="55.9242433" lon="49.2567983"><time>2023-06-03T09:39:25.320</time></trkpt><trkpt lat="55.9242900" lon="49.2567817"><time>2023-06-03T09:39:26.320</time></trkpt><trkpt lat="55.9243367" lon="49.2567600"><time>2023-06-03T09:39:27.317</time></trkpt><trkpt lat="55.9243867" lon="49.2567350"><time>2023-06-03T09:39:28.317</time></trkpt><trkpt lat="55.9244467" lon="49.2567067"><time>2023-06-03T09:39:29.327</time></trkpt><trkpt lat="55.9245050" lon="49.2566917"><time>2023-06-03T09:39:30.320</time></trkpt><trkpt lat="55.9245667" lon="49.2566783"><time>2023-06-03T09:39:31.320</time></trkpt><trkpt lat="55.9246150" lon="49.2566633"><time>2023-06-03T09:39:32.287</time></trkpt><trkpt lat="55.9246900" lon="49.2566133"><time>2023-06-03T09:39:33.300</time></trkpt><trkpt lat="55.9247500" lon="49.2565833"><time>2023-06-03T09:39:34.313</time></trkpt><trkpt lat="55.9248150" lon="49.2565517"><time>2023-06-03T09:39:35.317</time></trkpt><trkpt lat="55.9248767" lon="49.2565250"><time>2023-06-03T09:39:36.323</time></trkpt><trkpt lat="55.9249300" lon="49.2564967"><time>2023-06-03T09:39:37.327</time></trkpt><trkpt lat="55.9249850" lon="49.2564850"><time>2023-06-03T09:39:38.327</time></trkpt><trkpt lat="55.9250450" lon="49.2564850"><time>2023-06-03T09:39:39.327</time></trkpt><trkpt lat="55.9251083" lon="49.2564933"><time>2023-06-03T09:39:40.327</time></trkpt><trkpt lat="55.9251717" lon="49.2565217"><time>2023-06-03T09:39:41.327</time></trkpt><trkpt lat="55.9252333" lon="49.2565583"><time>2023-06-03T09:39:42.327</time></trkpt><trkpt lat="55.9253100" lon="49.2565933"><time>2023-06-03T09:39:43.327</time></trkpt><trkpt lat="55.9253783" lon="49.2566333"><time>2023-06-03T09:39:44.327</time></trkpt><trkpt lat="55.9254317" lon="49.2566717"><time>2023-06-03T09:39:45.327</time></trkpt><trkpt lat="55.9254833" lon="49.2567017"><time>2023-06-03T09:39:46.327</time></trkpt><trkpt lat="55.9255350" lon="49.2567317"><time>2023-06-03T09:39:47.327</time></trkpt><trkpt lat="55.9255833" lon="49.2567700"><time>2023-06-03T09:39:48.323</time></trkpt><trkpt lat="55.9256267" lon="49.2568250"><time>2023-06-03T09:39:49.327</time></trkpt><trkpt lat="55.9256700" lon="49.2568900"><time>2023-06-03T09:39:50.327</time></trkpt><trkpt lat="55.9257200" lon="49.2569667"><time>2023-06-03T09:39:51.327</time></trkpt><trkpt lat="55.9257733" lon="49.2570433"><time>2023-06-03T09:39:52.327</time></trkpt><trkpt lat="55.9258200" lon="49.2571150"><time>2023-06-03T09:39:53.327</time></trkpt><trkpt lat="55.9258667" lon="49.2571800"><time>2023-06-03T09:39:54.327</time></trkpt><trkpt lat="55.9259083" lon="49.2572483"><time>2023-06-03T09:39:55.327</time></trkpt><trkpt lat="55.9259500" lon="49.2573133"><time>2023-06-03T09:39:56.297</time></trkpt><trkpt lat="55.9259867" lon="49.2573800"><time>2023-06-03T09:39:57.327</time></trkpt><trkpt lat="55.9260267" lon="49.2574450"><time>2023-06-03T09:39:58.327</time></trkpt><trkpt lat="55.9260883" lon="49.2575167"><time>2023-06-03T09:40:00.320</time></trkpt><trkpt lat="55.9261300" lon="49.2574833"><time>2023-06-03T09:40:02.323</time></trkpt><trkpt lat="55.9261850" lon="49.2573717"><time>2023-06-03T09:40:14.327</time></trkpt><trkpt lat="55.9262300" lon="49.2573500"><time>2023-06-03T09:40:17.323</time></trkpt><trkpt lat="55.9262850" lon="49.2573483"><time>2023-06-03T09:40:20.327</time></trkpt><trkpt lat="55.9263283" lon="49.2573267"><time>2023-06-03T09:40:22.327</time></trkpt><trkpt lat="55.9263900" lon="49.2573000"><time>2023-06-03T09:40:25.327</time></trkpt><trkpt lat="55.9264350" lon="49.2572633"><time>2023-06-03T09:40:27.327</time></trkpt><trkpt lat="55.9264883" lon="49.2572083"><time>2023-06-03T09:40:29.327</time></trkpt><trkpt lat="55.9265350" lon="49.2571267"><time>2023-06-03T09:40:31.323</time></trkpt><trkpt lat="55.9265717" lon="49.2570600"><time>2023-06-03T09:40:33.320</time></trkpt><trkpt lat="55.9266017" lon="49.2569867"><time>2023-06-03T09:40:35.317</time></trkpt><trkpt lat="55.9266217" lon="49.2569133"><time>2023-06-03T09:40:37.317</time></trkpt><trkpt lat="55.9266400" lon="49.2568267"><time>2023-06-03T09:40:39.320</time></trkpt><trkpt lat="55.9267117" lon="49.2566700"><time>2023-06-03T09:40:49.320</time></trkpt><trkpt lat="55.9267367" lon="49.2564450"><time>2023-06-03T09:41:30.323</time></trkpt><trkpt lat="55.9267183" lon="49.2563233"><time>2023-06-03T09:41:46.310</time></trkpt><trkpt lat="55.9267167" lon="49.2562350"><time>2023-06-03T09:41:49.323</time></trkpt><trkpt lat="55.9267083" lon="49.2561417"><time>2023-06-03T09:41:52.320</time></trkpt><trkpt lat="55.9267167" lon="49.2560483"><time>2023-06-03T09:41:55.323</time></trkpt><trkpt lat="55.9267200" lon="49.2559417"><time>2023-06-03T09:41:58.320</time></trkpt><trkpt lat="55.9267283" lon="49.2558233"><time>2023-06-03T09:42:01.320</time></trkpt><trkpt lat="55.9267383" lon="49.2557300"><time>2023-06-03T09:42:03.323</time></trkpt><trkpt lat="55.9267433" lon="49.2556433"><time>2023-06-03T09:42:05.320</time></trkpt><trkpt lat="55.9267400" lon="49.2555500"><time>2023-06-03T09:42:07.317</time></trkpt><trkpt lat="55.9267283" lon="49.2554450"><time>2023-06-03T09:42:10.317</time></trkpt><trkpt lat="55.9266683" lon="49.2553183"><time>2023-06-03T09:42:29.323</time></trkpt><trkpt lat="55.9266200" lon="49.2552700"><time>2023-06-03T09:42:33.300</time></trkpt><trkpt lat="55.9265700" lon="49.2552333"><time>2023-06-03T09:42:35.317</time></trkpt><trkpt lat="55.9265083" lon="49.2551783"><time>2023-06-03T09:42:37.317</time></trkpt><trkpt lat="55.9264517" lon="49.2551083"><time>2023-06-03T09:42:39.307</time></trkpt><trkpt lat="55.9264200" lon="49.2550400"><time>2023-06-03T09:42:41.283</time></trkpt><trkpt lat="55.9263983" lon="49.2549683"><time>2023-06-03T09:42:43.317</time></trkpt><trkpt lat="55.9263500" lon="49.2548683"><time>2023-06-03T09:42:46.317</time></trkpt><trkpt lat="55.9263100" lon="49.2548117"><time>2023-06-03T09:42:48.293</time></trkpt><trkpt lat="55.9262700" lon="49.2547533"><time>2023-06-03T09:42:50.307</time></trkpt><trkpt lat="55.9262133" lon="49.2547100"><time>2023-06-03T09:42:52.310</time></trkpt><trkpt lat="55.9261550" lon="49.2546583"><time>2023-06-03T09:42:54.303</time></trkpt><trkpt lat="55.9261000" lon="49.2545983"><time>2023-06-03T09:42:56.300</time></trkpt><trkpt lat="55.9260400" lon="49.2545583"><time>2023-06-03T09:42:59.323</time></trkpt><trkpt lat="55.9259900" lon="49.2545150"><time>2023-06-03T09:43:02.320</time></trkpt><trkpt lat="55.9259517" lon="49.2544633"><time>2023-06-03T09:43:04.323</time></trkpt><trkpt lat="55.9258967" lon="49.2544117"><time>2023-06-03T09:43:07.323</time></trkpt><trkpt lat="55.9258483" lon="49.2543583"><time>2023-06-03T09:43:10.320</time></trkpt><trkpt lat="55.9258133" lon="49.2542900"><time>2023-06-03T09:43:12.320</time></trkpt><trkpt lat="55.9257633" lon="49.2542400"><time>2023-06-03T09:43:14.327</time></trkpt><trkpt lat="55.9257267" lon="49.2541117"><time>2023-06-03T09:43:15.293</time></trkpt><trkpt lat="55.9255500" lon="49.2540333"><time>2023-06-03T09:43:15.787</time></trkpt><trkpt lat="55.9254917" lon="49.2540350"><time>2023-06-03T09:43:16.300</time></trkpt><trkpt lat="55.9254833" lon="49.2539433"><time>2023-06-03T09:43:23.297</time></trkpt><trkpt lat="55.9254367" lon="49.2539400"><time>2023-06-03T09:43:36.313</time></trkpt><trkpt lat="55.9254150" lon="49.2538683"><time>2023-06-03T09:43:51.320</time></trkpt><trkpt lat="55.9253950" lon="49.2537933"><time>2023-06-03T09:43:56.320</time></trkpt><trkpt lat="55.9253733" lon="49.2537083"><time>2023-06-03T09:44:00.320</time></trkpt><trkpt lat="55.9253483" lon="49.2535983"><time>2023-06-03T09:44:03.317</time></trkpt><trkpt lat="55.9253433" lon="49.2535000"><time>2023-06-03T09:44:05.320</time></trkpt><trkpt lat="55.9253550" lon="49.2534067"><time>2023-06-03T09:44:07.320</time></trkpt><trkpt lat="55.9253583" lon="49.2533183"><time>2023-06-03T09:44:09.283</time></trkpt><trkpt lat="55.9253700" lon="49.2532067"><time>2023-06-03T09:44:11.310</time></trkpt><trkpt lat="55.9253950" lon="49.2531167"><time>2023-06-03T09:44:13.323</time></trkpt><trkpt lat="55.9254333" lon="49.2530633"><time>2023-06-03T09:44:15.287</time></trkpt><trkpt lat="55.9254683" lon="49.2530067"><time>2023-06-03T09:44:17.320</time></trkpt><trkpt lat="55.9254850" lon="49.2529017"><time>2023-06-03T09:44:20.320</time></trkpt><trkpt lat="55.9254867" lon="49.2528133"><time>2023-06-03T09:44:22.320</time></trkpt><trkpt lat="55.9254850" lon="49.2526883"><time>2023-06-03T09:44:24.310</time></trkpt><trkpt lat="55.9254933" lon="49.2525883"><time>2023-06-03T09:44:26.337</time></trkpt><trkpt lat="55.9254917" lon="49.2525850"><time>2023-06-03T09:44:27.823</time></trkpt><trkpt lat="55.9255000" lon="49.2524950"><time>2023-06-03T09:44:31.313</time></trkpt><trkpt lat="55.9255200" lon="49.2524133"><time>2023-06-03T09:44:34.307</time></trkpt><trkpt lat="55.9255583" lon="49.2523133"><time>2023-06-03T09:44:37.307</time></trkpt><trkpt lat="55.9255983" lon="49.2522150"><time>2023-06-03T09:44:39.310</time></trkpt><trkpt lat="55.9256250" lon="49.2521150"><time>2023-06-03T09:44:42.310</time></trkpt><trkpt lat="55.9256400" lon="49.2519950"><time>2023-06-03T09:44:46.303</time></trkpt><trkpt lat="55.9256567" lon="49.2519000"><time>2023-06-03T09:44:48.313</time></trkpt><trkpt lat="55.9256433" lon="49.2518150"><time>2023-06-03T09:44:50.330</time></trkpt><trkpt lat="55.9256367" lon="49.2518050"><time>2023-06-03T09:44:51.797</time></trkpt><trkpt lat="55.9256317" lon="49.2516950"><time>2023-06-03T09:44:53.800</time></trkpt><trkpt lat="55.9256283" lon="49.2516117"><time>2023-06-03T09:44:56.310</time></trkpt><trkpt lat="55.9256300" lon="49.2515083"><time>2023-06-03T09:44:59.317</time></trkpt><trkpt lat="55.9256350" lon="49.2513350"><time>2023-06-03T09:45:02.327</time></trkpt><trkpt lat="55.9256350" lon="49.2513350"><time>2023-06-03T09:45:02.373</time></trkpt><trkpt lat="55.9256233" lon="49.2512433"><time>2023-06-03T09:45:04.327</time></trkpt><trkpt lat="55.9256233" lon="49.2512433"><time>2023-06-03T09:45:05.797</time></trkpt><trkpt lat="55.9255783" lon="49.2512700"><time>2023-06-03T09:45:12.317</time></trkpt><trkpt lat="55.9255617" lon="49.2513450"><time>2023-06-03T09:45:18.317</time></trkpt><trkpt lat="55.9255833" lon="49.2512717"><time>2023-06-03T09:45:32.313</time></trkpt><trkpt lat="55.9255933" lon="49.2513567"><time>2023-06-03T09:46:05.330</time></trkpt><trkpt lat="55.9255683" lon="49.2514917"><time>2023-06-03T09:46:30.317</time></trkpt><trkpt lat="55.9255750" lon="49.2515833"><time>2023-06-03T09:46:33.323</time></trkpt><trkpt lat="55.9255683" lon="49.2517000"><time>2023-06-03T09:46:36.323</time></trkpt><trkpt lat="55.9255533" lon="49.2517933"><time>2023-06-03T09:46:38.323</time></trkpt><trkpt lat="55.9255367" lon="49.2518700"><time>2023-06-03T09:46:40.323</time></trkpt><trkpt lat="55.9254983" lon="49.2519633"><time>2023-06-03T09:46:43.327</time></trkpt><trkpt lat="55.9254783" lon="49.2520583"><time>2023-06-03T09:46:45.323</time></trkpt><trkpt lat="55.9254733" lon="49.2521617"><time>2023-06-03T09:46:47.323</time></trkpt><trkpt lat="55.9254850" lon="49.2522783"><time>2023-06-03T09:46:49.320</time></trkpt><trkpt lat="55.9254967" lon="49.2523883"><time>2023-06-03T09:46:51.293</time></trkpt><trkpt lat="55.9255033" lon="49.2524950"><time>2023-06-03T09:46:53.297</time></trkpt><trkpt lat="55.9255000" lon="49.2525850"><time>2023-06-03T09:46:55.283</time></trkpt><trkpt lat="55.9254850" lon="49.2526700"><time>2023-06-03T09:46:57.300</time></trkpt><trkpt lat="55.9254567" lon="49.2527933"><time>2023-06-03T09:46:59.317</time></trkpt><trkpt lat="55.9254200" lon="49.2528400"><time>2023-06-03T09:47:01.310</time></trkpt><trkpt lat="55.9253750" lon="49.2529150"><time>2023-06-03T09:47:04.310</time></trkpt><trkpt lat="55.9253633" lon="49.2529933"><time>2023-06-03T09:47:06.317</time></trkpt><trkpt lat="55.9253567" lon="49.2530983"><time>2023-06-03T09:47:08.317</time></trkpt><trkpt lat="55.9253400" lon="49.2532050"><time>2023-06-03T09:47:10.317</time></trkpt><trkpt lat="55.9253250" lon="49.2533067"><time>2023-06-03T09:47:12.317</time></trkpt><trkpt lat="55.9253233" lon="49.2534167"><time>2023-06-03T09:47:14.317</time></trkpt><trkpt lat="55.9253383" lon="49.2535050"><time>2023-06-03T09:47:16.320</time></trkpt><trkpt lat="55.9253583" lon="49.2536117"><time>2023-06-03T09:47:18.317</time></trkpt><trkpt lat="55.9253900" lon="49.2537017"><time>2023-06-03T09:47:20.313</time></trkpt><trkpt lat="55.9254233" lon="49.2537800"><time>2023-06-03T09:47:23.307</time></trkpt><trkpt lat="55.9254317" lon="49.2538700"><time>2023-06-03T09:47:28.317</time></trkpt><trkpt lat="55.9254450" lon="49.2539467"><time>2023-06-03T09:47:33.317</time></trkpt><trkpt lat="55.9254800" lon="49.2539983"><time>2023-06-03T09:47:38.317</time></trkpt><trkpt lat="55.9255300" lon="49.2540467"><time>2023-06-03T09:47:43.320</time></trkpt><trkpt lat="55.9255833" lon="49.2540700"><time>2023-06-03T09:47:46.303</time></trkpt><trkpt lat="55.9256417" lon="49.2541167"><time>2023-06-03T09:47:49.307</time></trkpt><trkpt lat="55.9256950" lon="49.2541683"><time>2023-06-03T09:47:51.317</time></trkpt><trkpt lat="55.9257333" lon="49.2542183"><time>2023-06-03T09:47:53.310</time></trkpt><trkpt lat="55.9257817" lon="49.2542783"><time>2023-06-03T09:47:56.317</time></trkpt><trkpt lat="55.9258150" lon="49.2543350"><time>2023-06-03T09:47:58.317</time></trkpt><trkpt lat="55.9258583" lon="49.2543867"><time>2023-06-03T09:48:00.320</time></trkpt><trkpt lat="55.9259150" lon="49.2544567"><time>2023-06-03T09:48:02.317</time></trkpt><trkpt lat="55.9259667" lon="49.2544950"><time>2023-06-03T09:48:04.307</time></trkpt><trkpt lat="55.9260317" lon="49.2545483"><time>2023-06-03T09:48:07.317</time></trkpt><trkpt lat="55.9260817" lon="49.2546117"><time>2023-06-03T09:48:09.307</time></trkpt><trkpt lat="55.9261283" lon="49.2546517"><time>2023-06-03T09:48:11.317</time></trkpt><trkpt lat="55.9261783" lon="49.2546867"><time>2023-06-03T09:48:13.307</time></trkpt><trkpt lat="55.9262300" lon="49.2547517"><time>2023-06-03T09:48:15.317</time></trkpt><trkpt lat="55.9262767" lon="49.2548217"><time>2023-06-03T09:48:17.317</time></trkpt><trkpt lat="55.9263317" lon="49.2548983"><time>2023-06-03T09:48:19.317</time></trkpt><trkpt lat="55.9263750" lon="49.2549717"><time>2023-06-03T09:48:21.317</time></trkpt><trkpt lat="55.9264233" lon="49.2550500"><time>2023-06-03T09:48:23.320</time></trkpt><trkpt lat="55.9264600" lon="49.2551083"><time>2023-06-03T09:48:25.357</time></trkpt><trkpt lat="55.9264983" lon="49.2551650"><time>2023-06-03T09:48:28.267</time></trkpt><trkpt lat="55.9265700" lon="49.2551850"><time>2023-06-03T09:48:30.287</time></trkpt><trkpt lat="55.9266283" lon="49.2552100"><time>2023-06-03T09:48:32.307</time></trkpt><trkpt lat="55.9266683" lon="49.2552467"><time>2023-06-03T09:48:34.303</time></trkpt><trkpt lat="55.9267017" lon="49.2553183"><time>2023-06-03T09:48:36.313</time></trkpt><trkpt lat="55.9267050" lon="49.2554017"><time>2023-06-03T09:48:38.317</time></trkpt><trkpt lat="55.9266900" lon="49.2555100"><time>2023-06-03T09:48:40.317</time></trkpt><trkpt lat="55.9266867" lon="49.2556217"><time>2023-06-03T09:48:42.323</time></trkpt><trkpt lat="55.9266717" lon="49.2557217"><time>2023-06-03T09:48:44.317</time></trkpt><trkpt lat="55.9266533" lon="49.2558333"><time>2023-06-03T09:48:46.313</time></trkpt><trkpt lat="55.9266500" lon="49.2559683"><time>2023-06-03T09:48:48.317</time></trkpt><trkpt lat="55.9266533" lon="49.2561067"><time>2023-06-03T09:48:50.317</time></trkpt><trkpt lat="55.9266717" lon="49.2562217"><time>2023-06-03T09:48:52.313</time></trkpt><trkpt lat="55.9266900" lon="49.2563100"><time>2023-06-03T09:48:55.307</time></trkpt><trkpt lat="55.9267050" lon="49.2563883"><time>2023-06-03T09:49:04.287</time></trkpt><trkpt lat="55.9267250" lon="49.2565750"><time>2023-06-03T09:49:18.287</time></trkpt><trkpt lat="55.9266717" lon="49.2566317"><time>2023-06-03T09:49:40.313</time></trkpt><trkpt lat="55.9266867" lon="49.2567250"><time>2023-06-03T09:49:43.317</time></trkpt><trkpt lat="55.9267117" lon="49.2568333"><time>2023-06-03T09:49:45.317</time></trkpt><trkpt lat="55.9267300" lon="49.2569250"><time>2023-06-03T09:49:47.317</time></trkpt><trkpt lat="55.9267450" lon="49.2570117"><time>2023-06-03T09:49:49.313</time></trkpt><trkpt lat="55.9267683" lon="49.2570933"><time>2023-06-03T09:49:51.313</time></trkpt><trkpt lat="55.9267883" lon="49.2571833"><time>2023-06-03T09:49:54.313</time></trkpt><trkpt lat="55.9268083" lon="49.2572933"><time>2023-06-03T09:49:57.273</time></trkpt><trkpt lat="55.9268317" lon="49.2573933"><time>2023-06-03T09:49:59.280</time></trkpt><trkpt lat="55.9268567" lon="49.2575000"><time>2023-06-03T09:50:01.293</time></trkpt><trkpt lat="55.9268783" lon="49.2575850"><time>2023-06-03T09:50:03.300</time></trkpt><trkpt lat="55.9268983" lon="49.2576683"><time>2023-06-03T09:50:05.317</time></trkpt><trkpt lat="55.9269183" lon="49.2577417"><time>2023-06-03T09:50:07.290</time></trkpt><trkpt lat="55.9269333" lon="49.2578183"><time>2023-06-03T09:50:09.320</time></trkpt><trkpt lat="55.9269367" lon="49.2579033"><time>2023-06-03T09:50:11.317</time></trkpt><trkpt lat="55.9269367" lon="49.2579867"><time>2023-06-03T09:50:13.317</time></trkpt><trkpt lat="55.9269633" lon="49.2580950"><time>2023-06-03T09:50:16.320</time></trkpt><trkpt lat="55.9270117" lon="49.2581733"><time>2023-06-03T09:50:18.310</time></trkpt><trkpt lat="55.9270667" lon="49.2582633"><time>2023-06-03T09:50:20.320</time></trkpt><trkpt lat="55.9271350" lon="49.2583450"><time>2023-06-03T09:50:22.310</time></trkpt><trkpt lat="55.9272067" lon="49.2584300"><time>2023-06-03T09:50:24.320</time></trkpt><trkpt lat="55.9272767" lon="49.2585017"><time>2023-06-03T09:50:26.320</time></trkpt><trkpt lat="55.9273517" lon="49.2585750"><time>2023-06-03T09:50:28.317</time></trkpt><trkpt lat="55.9274150" lon="49.2586450"><time>2023-06-03T09:50:30.317</time></trkpt><trkpt lat="55.9274667" lon="49.2587217"><time>2023-06-03T09:50:32.317</time></trkpt><trkpt lat="55.9275367" lon="49.2588067"><time>2023-06-03T09:50:34.283</time></trkpt><trkpt lat="55.9275767" lon="49.2588550"><time>2023-06-03T09:50:35.307</time></trkpt><trkpt lat="55.9276217" lon="49.2589000"><time>2023-06-03T09:50:36.317</time></trkpt><trkpt lat="55.9276600" lon="49.2589467"><time>2023-06-03T09:50:37.313</time></trkpt><trkpt lat="55.9277233" lon="49.2590283"><time>2023-06-03T09:50:39.317</time></trkpt><trkpt lat="55.9277783" lon="49.2591300"><time>2023-06-03T09:50:41.320</time></trkpt><trkpt lat="55.9278400" lon="49.2592033"><time>2023-06-03T09:50:43.317</time></trkpt><trkpt lat="55.9279100" lon="49.2592817"><time>2023-06-03T09:50:45.317</time></trkpt><trkpt lat="55.9279533" lon="49.2593133"><time>2023-06-03T09:50:46.320</time></trkpt><trkpt lat="55.9279983" lon="49.2593533"><time>2023-06-03T09:50:47.317</time></trkpt><trkpt lat="55.9280467" lon="49.2593917"><time>2023-06-03T09:50:48.320</time></trkpt><trkpt lat="55.9280983" lon="49.2594317"><time>2023-06-03T09:50:49.317</time></trkpt><trkpt lat="55.9281483" lon="49.2594700"><time>2023-06-03T09:50:50.317</time></trkpt><trkpt lat="55.9281900" lon="49.2595117"><time>2023-06-03T09:50:51.317</time></trkpt><trkpt lat="55.9282333" lon="49.2595533"><time>2023-06-03T09:50:52.317</time></trkpt><trkpt lat="55.9282733" lon="49.2595983"><time>2023-06-03T09:50:53.313</time></trkpt><trkpt lat="55.9283117" lon="49.2596450"><time>2023-06-03T09:50:54.310</time></trkpt><trkpt lat="55.9283867" lon="49.2597167"><time>2023-06-03T09:50:56.317</time></trkpt><trkpt lat="55.9284667" lon="49.2597767"><time>2023-06-03T09:50:58.310</time></trkpt><trkpt lat="55.9285150" lon="49.2598050"><time>2023-06-03T09:50:59.317</time></trkpt><trkpt lat="55.9285617" lon="49.2598317"><time>2023-06-03T09:51:00.317</time></trkpt><trkpt lat="55.9286083" lon="49.2598583"><time>2023-06-03T09:51:01.317</time></trkpt><trkpt lat="55.9286550" lon="49.2598933"><time>2023-06-03T09:51:02.317</time></trkpt><trkpt lat="55.9287050" lon="49.2599183"><time>2023-06-03T09:51:03.317</time></trkpt><trkpt lat="55.9287500" lon="49.2599433"><time>2023-06-03T09:51:04.317</time></trkpt><trkpt lat="55.9287983" lon="49.2599667"><time>2023-06-03T09:51:05.317</time></trkpt><trkpt lat="55.9288450" lon="49.2599867"><time>2023-06-03T09:51:06.317</time></trkpt><trkpt lat="55.9289283" lon="49.2600350"><time>2023-06-03T09:51:08.317</time></trkpt><trkpt lat="55.9290117" lon="49.2600800"><time>2023-06-03T09:51:10.323</time></trkpt><trkpt lat="55.9290933" lon="49.2601267"><time>2023-06-03T09:51:12.297</time></trkpt><trkpt lat="55.9291383" lon="49.2601533"><time>2023-06-03T09:51:13.323</time></trkpt><trkpt lat="55.9291850" lon="49.2601750"><time>2023-06-03T09:51:14.323</time></trkpt><trkpt lat="55.9292333" lon="49.2601900"><time>2023-06-03T09:51:15.323</time></trkpt><trkpt lat="55.9293167" lon="49.2602200"><time>2023-06-03T09:51:17.323</time></trkpt><trkpt lat="55.9293933" lon="49.2602817"><time>2023-06-03T09:51:19.307</time></trkpt><trkpt lat="55.9294667" lon="49.2603583"><time>2023-06-03T09:51:21.320</time></trkpt><trkpt lat="55.9295417" lon="49.2604350"><time>2023-06-03T09:51:23.320</time></trkpt><trkpt lat="55.9296100" lon="49.2605067"><time>2023-06-03T09:51:25.323</time></trkpt><trkpt lat="55.9296817" lon="49.2605900"><time>2023-06-03T09:51:27.320</time></trkpt><trkpt lat="55.9297483" lon="49.2606683"><time>2023-06-03T09:51:29.327</time></trkpt><trkpt lat="55.9298133" lon="49.2607383"><time>2023-06-03T09:51:31.323</time></trkpt><trkpt lat="55.9298583" lon="49.2608033"><time>2023-06-03T09:51:33.283</time></trkpt><trkpt lat="55.9299183" lon="49.2608517"><time>2023-06-03T09:51:35.303</time></trkpt><trkpt lat="55.9299800" lon="49.2609183"><time>2023-06-03T09:51:37.317</time></trkpt><trkpt lat="55.9300500" lon="49.2609867"><time>2023-06-03T09:51:39.280</time></trkpt><trkpt lat="55.9301000" lon="49.2610350"><time>2023-06-03T09:51:41.313</time></trkpt><trkpt lat="55.9301533" lon="49.2610750"><time>2023-06-03T09:51:43.327</time></trkpt><trkpt lat="55.9301983" lon="49.2611067"><time>2023-06-03T09:51:45.310</time></trkpt><trkpt lat="55.9302583" lon="49.2611350"><time>2023-06-03T09:51:47.327</time></trkpt><trkpt lat="55.9303167" lon="49.2611650"><time>2023-06-03T09:51:49.317</time></trkpt><trkpt lat="55.9303817" lon="49.2612150"><time>2023-06-03T09:51:51.317</time></trkpt><trkpt lat="55.9304400" lon="49.2612700"><time>2023-06-03T09:51:53.327</time></trkpt><trkpt lat="55.9304917" lon="49.2613250"><time>2023-06-03T09:51:55.323</time></trkpt><trkpt lat="55.9305450" lon="49.2613850"><time>2023-06-03T09:51:57.323</time></trkpt><trkpt lat="55.9306117" lon="49.2614317"><time>2023-06-03T09:51:59.323</time></trkpt><trkpt lat="55.9306783" lon="49.2614700"><time>2023-06-03T09:52:01.323</time></trkpt><trkpt lat="55.9307517" lon="49.2615083"><time>2023-06-03T09:52:03.327</time></trkpt><trkpt lat="55.9308250" lon="49.2615517"><time>2023-06-03T09:52:05.323</time></trkpt><trkpt lat="55.9308850" lon="49.2615917"><time>2023-06-03T09:52:07.323</time></trkpt><trkpt lat="55.9309400" lon="49.2616367"><time>2023-06-03T09:52:09.317</time></trkpt><trkpt lat="55.9310150" lon="49.2616717"><time>2023-06-03T09:52:11.320</time></trkpt><trkpt lat="55.9310933" lon="49.2617117"><time>2023-06-03T09:52:13.303</time></trkpt><trkpt lat="55.9311383" lon="49.2617267"><time>2023-06-03T09:52:14.310</time></trkpt><trkpt lat="55.9312033" lon="49.2617383"><time>2023-06-03T09:52:15.317</time></trkpt><trkpt lat="55.9312700" lon="49.2617517"><time>2023-06-03T09:52:16.300</time></trkpt><trkpt lat="55.9313183" lon="49.2617650"><time>2023-06-03T09:52:17.320</time></trkpt><trkpt lat="55.9313650" lon="49.2617767"><time>2023-06-03T09:52:18.320</time></trkpt><trkpt lat="55.9314533" lon="49.2618067"><time>2023-06-03T09:52:20.320</time></trkpt><trkpt lat="55.9315233" lon="49.2618300"><time>2023-06-03T09:52:21.320</time></trkpt><trkpt lat="55.9315833" lon="49.2618467"><time>2023-06-03T09:52:22.320</time></trkpt><trkpt lat="55.9316400" lon="49.2618567"><time>2023-06-03T09:52:23.317</time></trkpt><trkpt lat="55.9316883" lon="49.2618567"><time>2023-06-03T09:52:24.317</time></trkpt><trkpt lat="55.9317383" lon="49.2618600"><time>2023-06-03T09:52:25.313</time></trkpt><trkpt lat="55.9317833" lon="49.2618567"><time>2023-06-03T09:52:26.320</time></trkpt><trkpt lat="55.9318467" lon="49.2618733"><time>2023-06-03T09:52:28.320</time></trkpt><trkpt lat="55.9319183" lon="49.2618767"><time>2023-06-03T09:52:30.323</time></trkpt><trkpt lat="55.9319883" lon="49.2618783"><time>2023-06-03T09:52:32.320</time></trkpt><trkpt lat="55.9320650" lon="49.2618650"><time>2023-06-03T09:52:34.323</time></trkpt><trkpt lat="55.9321367" lon="49.2618483"><time>2023-06-03T09:52:36.323</time></trkpt><trkpt lat="55.9322150" lon="49.2618333"><time>2023-06-03T09:52:38.323</time></trkpt><trkpt lat="55.9322867" lon="49.2618283"><time>2023-06-03T09:52:40.307</time></trkpt><trkpt lat="55.9323550" lon="49.2618217"><time>2023-06-03T09:52:42.323</time></trkpt><trkpt lat="55.9324283" lon="49.2618183"><time>2023-06-03T09:52:44.323</time></trkpt><trkpt lat="55.9324933" lon="49.2618417"><time>2023-06-03T09:52:46.323</time></trkpt><trkpt lat="55.9325217" lon="49.2619533"><time>2023-06-03T09:52:49.317</time></trkpt><trkpt lat="55.9325517" lon="49.2620750"><time>2023-06-03T09:52:51.317</time></trkpt><trkpt lat="55.9325900" lon="49.2622000"><time>2023-06-03T09:52:53.323</time></trkpt><trkpt lat="55.9326183" lon="49.2623133"><time>2023-06-03T09:52:55.323</time></trkpt><trkpt lat="55.9326550" lon="49.2624400"><time>2023-06-03T09:52:57.317</time></trkpt><trkpt lat="55.9326950" lon="49.2625517"><time>2023-06-03T09:52:59.320</time></trkpt><trkpt lat="55.9327150" lon="49.2626233"><time>2023-06-03T09:53:00.300</time></trkpt><trkpt lat="55.9327350" lon="49.2627167"><time>2023-06-03T09:53:02.323</time></trkpt><trkpt lat="55.9327650" lon="49.2628350"><time>2023-06-03T09:53:04.320</time></trkpt><trkpt lat="55.9327833" lon="49.2629333"><time>2023-06-03T09:53:06.323</time></trkpt><trkpt lat="55.9327967" lon="49.2630233"><time>2023-06-03T09:53:08.323</time></trkpt><trkpt lat="55.9328250" lon="49.2630900"><time>2023-06-03T09:53:09.320</time></trkpt><trkpt lat="55.9328583" lon="49.2632133"><time>2023-06-03T09:53:11.327</time></trkpt><trkpt lat="55.9328983" lon="49.2633367"><time>2023-06-03T09:53:13.323</time></trkpt><trkpt lat="55.9329283" lon="49.2634967"><time>2023-06-03T09:53:15.323</time></trkpt><trkpt lat="55.9329417" lon="49.2635883"><time>2023-06-03T09:53:16.323</time></trkpt><trkpt lat="55.9329617" lon="49.2636783"><time>2023-06-03T09:53:17.323</time></trkpt><trkpt lat="55.9329833" lon="49.2637683"><time>2023-06-03T09:53:18.323</time></trkpt><trkpt lat="55.9330000" lon="49.2638567"><time>2023-06-03T09:53:19.327</time></trkpt><trkpt lat="55.9330333" lon="49.2639967"><time>2023-06-03T09:53:21.320</time></trkpt><trkpt lat="55.9330700" lon="49.2641283"><time>2023-06-03T09:53:23.317</time></trkpt><trkpt lat="55.9331067" lon="49.2642450"><time>2023-06-03T09:53:25.323</time></trkpt><trkpt lat="55.9331650" lon="49.2644083"><time>2023-06-03T09:53:27.327</time></trkpt><trkpt lat="55.9331900" lon="49.2644817"><time>2023-06-03T09:53:28.293</time></trkpt><trkpt lat="55.9332217" lon="49.2646317"><time>2023-06-03T09:53:30.323</time></trkpt><trkpt lat="55.9332400" lon="49.2647150"><time>2023-06-03T09:53:31.323</time></trkpt><trkpt lat="55.9332633" lon="49.2648567"><time>2023-06-03T09:53:33.323</time></trkpt><trkpt lat="55.9332917" lon="49.2649733"><time>2023-06-03T09:53:35.320</time></trkpt><trkpt lat="55.9333217" lon="49.2651167"><time>2023-06-03T09:53:37.317</time></trkpt><trkpt lat="55.9333533" lon="49.2652433"><time>2023-06-03T09:53:39.323</time></trkpt><trkpt lat="55.9333817" lon="49.2653783"><time>2023-06-03T09:53:41.327</time></trkpt><trkpt lat="55.9334117" lon="49.2655217"><time>2023-06-03T09:53:43.327</time></trkpt><trkpt lat="55.9334283" lon="49.2656100"><time>2023-06-03T09:53:44.317</time></trkpt><trkpt lat="55.9334633" lon="49.2657550"><time>2023-06-03T09:53:46.317</time></trkpt><trkpt lat="55.9334850" lon="49.2658433"><time>2023-06-03T09:53:47.307</time></trkpt><trkpt lat="55.9335017" lon="49.2659317"><time>2023-06-03T09:53:48.320</time></trkpt><trkpt lat="55.9335267" lon="49.2660750"><time>2023-06-03T09:53:50.313</time></trkpt><trkpt lat="55.9335450" lon="49.2661617"><time>2023-06-03T09:53:51.320</time></trkpt><trkpt lat="55.9335650" lon="49.2662483"><time>2023-06-03T09:53:52.317</time></trkpt><trkpt lat="55.9335850" lon="49.2663367"><time>2023-06-03T09:53:53.327</time></trkpt><trkpt lat="55.9336050" lon="49.2664350"><time>2023-06-03T09:53:54.323</time></trkpt><trkpt lat="55.9336250" lon="49.2665383"><time>2023-06-03T09:53:55.327</time></trkpt><trkpt lat="55.9336417" lon="49.2666367"><time>2023-06-03T09:53:56.323</time></trkpt><trkpt lat="55.9336600" lon="49.2667200"><time>2023-06-03T09:53:57.323</time></trkpt><trkpt lat="55.9336800" lon="49.2668033"><time>2023-06-03T09:53:58.320</time></trkpt><trkpt lat="55.9337033" lon="49.2668900"><time>2023-06-03T09:53:59.317</time></trkpt><trkpt lat="55.9337217" lon="49.2669783"><time>2023-06-03T09:54:00.317</time></trkpt><trkpt lat="55.9337383" lon="49.2670550"><time>2023-06-03T09:54:01.317</time></trkpt><trkpt lat="55.9337450" lon="49.2671383"><time>2023-06-03T09:54:02.323</time></trkpt><trkpt lat="55.9337500" lon="49.2672183"><time>2023-06-03T09:54:03.323</time></trkpt><trkpt lat="55.9337517" lon="49.2673067"><time>2023-06-03T09:54:04.323</time></trkpt><trkpt lat="55.9337533" lon="49.2673950"><time>2023-06-03T09:54:05.323</time></trkpt><trkpt lat="55.9337550" lon="49.2674800"><time>2023-06-03T09:54:06.293</time></trkpt><trkpt lat="55.9337500" lon="49.2675650"><time>2023-06-03T09:54:07.310</time></trkpt><trkpt lat="55.9337400" lon="49.2676483"><time>2023-06-03T09:54:08.320</time></trkpt><trkpt lat="55.9337367" lon="49.2677733"><time>2023-06-03T09:54:10.327</time></trkpt><trkpt lat="55.9337517" lon="49.2678933"><time>2023-06-03T09:54:12.323</time></trkpt><trkpt lat="55.9337850" lon="49.2680150"><time>2023-06-03T09:54:14.323</time></trkpt><trkpt lat="55.9338317" lon="49.2681117"><time>2023-06-03T09:54:16.317</time></trkpt><trkpt lat="55.9338783" lon="49.2682067"><time>2023-06-03T09:54:18.297</time></trkpt><trkpt lat="55.9339117" lon="49.2682783"><time>2023-06-03T09:54:19.323</time></trkpt><trkpt lat="55.9339450" lon="49.2683517"><time>2023-06-03T09:54:20.317</time></trkpt><trkpt lat="55.9339817" lon="49.2684400"><time>2023-06-03T09:54:21.323</time></trkpt><trkpt lat="55.9340200" lon="49.2685250"><time>2023-06-03T09:54:22.317</time></trkpt><trkpt lat="55.9340533" lon="49.2685950"><time>2023-06-03T09:54:23.313</time></trkpt><trkpt lat="55.9340850" lon="49.2686583"><time>2023-06-03T09:54:24.317</time></trkpt><trkpt lat="55.9341250" lon="49.2687367"><time>2023-06-03T09:54:25.320</time></trkpt><trkpt lat="55.9341667" lon="49.2688167"><time>2023-06-03T09:54:26.323</time></trkpt><trkpt lat="55.9342050" lon="49.2688833"><time>2023-06-03T09:54:27.323</time></trkpt><trkpt lat="55.9342400" lon="49.2689383"><time>2023-06-03T09:54:28.320</time></trkpt><trkpt lat="55.9343117" lon="49.2690183"><time>2023-06-03T09:54:30.320</time></trkpt><trkpt lat="55.9343550" lon="49.2690467"><time>2023-06-03T09:54:31.323</time></trkpt><trkpt lat="55.9344017" lon="49.2690817"><time>2023-06-03T09:54:32.320</time></trkpt><trkpt lat="55.9344800" lon="49.2691400"><time>2023-06-03T09:54:34.317</time></trkpt><trkpt lat="55.9345217" lon="49.2691900"><time>2023-06-03T09:54:35.320</time></trkpt><trkpt lat="55.9346017" lon="49.2692417"><time>2023-06-03T09:54:37.320</time></trkpt><trkpt lat="55.9346850" lon="49.2693000"><time>2023-06-03T09:54:39.323</time></trkpt><trkpt lat="55.9347267" lon="49.2693300"><time>2023-06-03T09:54:40.327</time></trkpt><trkpt lat="55.9348050" lon="49.2693683"><time>2023-06-03T09:54:42.317</time></trkpt><trkpt lat="55.9348783" lon="49.2694067"><time>2023-06-03T09:54:44.323</time></trkpt><trkpt lat="55.9349517" lon="49.2694383"><time>2023-06-03T09:54:46.323</time></trkpt><trkpt lat="55.9350467" lon="49.2694550"><time>2023-06-03T09:54:48.327</time></trkpt><trkpt lat="55.9350917" lon="49.2694617"><time>2023-06-03T09:54:49.320</time></trkpt><trkpt lat="55.9351650" lon="49.2694817"><time>2023-06-03T09:54:51.320</time></trkpt><trkpt lat="55.9352250" lon="49.2695317"><time>2023-06-03T09:54:53.323</time></trkpt><trkpt lat="55.9352717" lon="49.2695900"><time>2023-06-03T09:54:55.327</time></trkpt><trkpt lat="55.9353333" lon="49.2696567"><time>2023-06-03T09:54:57.323</time></trkpt><trkpt lat="55.9353933" lon="49.2697333"><time>2023-06-03T09:54:59.320</time></trkpt><trkpt lat="55.9354583" lon="49.2698033"><time>2023-06-03T09:55:01.320</time></trkpt><trkpt lat="55.9355150" lon="49.2698700"><time>2023-06-03T09:55:03.317</time></trkpt><trkpt lat="55.9355717" lon="49.2699283"><time>2023-06-03T09:55:05.327</time></trkpt><trkpt lat="55.9356367" lon="49.2699950"><time>2023-06-03T09:55:07.323</time></trkpt><trkpt lat="55.9356833" lon="49.2700317"><time>2023-06-03T09:55:09.320</time></trkpt><trkpt lat="55.9357317" lon="49.2700683"><time>2023-06-03T09:55:11.327</time></trkpt><trkpt lat="55.9358000" lon="49.2700933"><time>2023-06-03T09:55:13.327</time></trkpt><trkpt lat="55.9358567" lon="49.2701317"><time>2023-06-03T09:55:15.303</time></trkpt><trkpt lat="55.9359183" lon="49.2701567"><time>2023-06-03T09:55:17.320</time></trkpt><trkpt lat="55.9359833" lon="49.2701967"><time>2023-06-03T09:55:19.323</time></trkpt><trkpt lat="55.9360483" lon="49.2702250"><time>2023-06-03T09:55:21.323</time></trkpt><trkpt lat="55.9361117" lon="49.2702517"><time>2023-06-03T09:55:23.310</time></trkpt><trkpt lat="55.9361750" lon="49.2702800"><time>2023-06-03T09:55:25.317</time></trkpt><trkpt lat="55.9362433" lon="49.2703083"><time>2023-06-03T09:55:27.323</time></trkpt><trkpt lat="55.9363017" lon="49.2703317"><time>2023-06-03T09:55:29.327</time></trkpt><trkpt lat="55.9363600" lon="49.2703683"><time>2023-06-03T09:55:31.323</time></trkpt><trkpt lat="55.9364200" lon="49.2703933"><time>2023-06-03T09:55:33.320</time></trkpt><trkpt lat="55.9364850" lon="49.2704233"><time>2023-06-03T09:55:35.307</time></trkpt><trkpt lat="55.9365483" lon="49.2704717"><time>2023-06-03T09:55:37.327</time></trkpt><trkpt lat="55.9366183" lon="49.2705283"><time>2023-06-03T09:55:39.323</time></trkpt><trkpt lat="55.9366900" lon="49.2705700"><time>2023-06-03T09:55:41.317</time></trkpt><trkpt lat="55.9367633" lon="49.2706150"><time>2023-06-03T09:55:43.317</time></trkpt><trkpt lat="55.9368433" lon="49.2706617"><time>2023-06-03T09:55:45.327</time></trkpt><trkpt lat="55.9368867" lon="49.2706867"><time>2023-06-03T09:55:46.327</time></trkpt><trkpt lat="55.9369617" lon="49.2707283"><time>2023-06-03T09:55:48.330</time></trkpt><trkpt lat="55.9370200" lon="49.2707650"><time>2023-06-03T09:55:50.340</time></trkpt><trkpt lat="55.9370183" lon="49.2707517"><time>2023-06-03T09:55:51.837</time></trkpt><trkpt lat="55.9370567" lon="49.2708450"><time>2023-06-03T09:55:53.313</time></trkpt><trkpt lat="55.9371017" lon="49.2708733"><time>2023-06-03T09:55:54.310</time></trkpt><trkpt lat="55.9371800" lon="49.2709183"><time>2023-06-03T09:55:56.313</time></trkpt><trkpt lat="55.9372517" lon="49.2710233"><time>2023-06-03T09:55:58.307</time></trkpt><trkpt lat="55.9373350" lon="49.2710683"><time>2023-06-03T09:56:00.307</time></trkpt><trkpt lat="55.9374017" lon="49.2710367"><time>2023-06-03T09:56:02.310</time></trkpt><trkpt lat="55.9373867" lon="49.2711350"><time>2023-06-03T09:56:06.310</time></trkpt><trkpt lat="55.9373850" lon="49.2712533"><time>2023-06-03T09:56:08.310</time></trkpt><trkpt lat="55.9374100" lon="49.2713567"><time>2023-06-03T09:56:10.310</time></trkpt><trkpt lat="55.9374500" lon="49.2714633"><time>2023-06-03T09:56:12.313</time></trkpt><trkpt lat="55.9375017" lon="49.2715617"><time>2023-06-03T09:56:14.317</time></trkpt><trkpt lat="55.9375467" lon="49.2716717"><time>2023-06-03T09:56:16.313</time></trkpt><trkpt lat="55.9375933" lon="49.2717700"><time>2023-06-03T09:56:18.313</time></trkpt><trkpt lat="55.9376250" lon="49.2718367"><time>2023-06-03T09:56:20.310</time></trkpt><trkpt lat="55.9376683" lon="49.2719000"><time>2023-06-03T09:56:23.320</time></trkpt><trkpt lat="55.9376700" lon="49.2719000"><time>2023-06-03T09:56:24.817</time></trkpt><trkpt lat="55.9377417" lon="49.2719150"><time>2023-06-03T09:56:28.313</time></trkpt><trkpt lat="55.9378267" lon="49.2719550"><time>2023-06-03T09:56:30.313</time></trkpt><trkpt lat="55.9378767" lon="49.2720017"><time>2023-06-03T09:56:32.317</time></trkpt><trkpt lat="55.9379100" lon="49.2720783"><time>2023-06-03T09:56:37.313</time></trkpt><trkpt lat="55.9379267" lon="49.2721633"><time>2023-06-03T09:56:41.313</time></trkpt><trkpt lat="55.9379567" lon="49.2722267"><time>2023-06-03T09:56:43.317</time></trkpt><trkpt lat="55.9379667" lon="49.2723217"><time>2023-06-03T09:56:45.313</time></trkpt><trkpt lat="55.9380050" lon="49.2724000"><time>2023-06-03T09:56:48.317</time></trkpt><trkpt lat="55.9380317" lon="49.2724667"><time>2023-06-03T09:56:50.297</time></trkpt><trkpt lat="55.9380333" lon="49.2724667"><time>2023-06-03T09:56:51.747</time></trkpt><trkpt lat="55.9380683" lon="49.2724083"><time>2023-06-03T09:56:54.330</time></trkpt><trkpt lat="55.9380717" lon="49.2724050"><time>2023-06-03T09:56:55.317</time></trkpt><trkpt lat="55.9381167" lon="49.2725067"><time>2023-06-03T09:56:57.327</time></trkpt><trkpt lat="55.9381183" lon="49.2725100"><time>2023-06-03T09:56:58.313</time></trkpt><trkpt lat="55.9381467" lon="49.2725850"><time>2023-06-03T09:57:00.800</time></trkpt><trkpt lat="55.9381767" lon="49.2726567"><time>2023-06-03T09:57:01.313</time></trkpt><trkpt lat="55.9382117" lon="49.2727883"><time>2023-06-03T09:57:03.313</time></trkpt><trkpt lat="55.9382400" lon="49.2728883"><time>2023-06-03T09:57:06.313</time></trkpt><trkpt lat="55.9382433" lon="49.2729683"><time>2023-06-03T09:57:10.310</time></trkpt><trkpt lat="55.9382000" lon="49.2730467"><time>2023-06-03T09:57:13.327</time></trkpt><trkpt lat="55.9382000" lon="49.2730467"><time>2023-06-03T09:57:13.433</time></trkpt><trkpt lat="55.9382300" lon="49.2729783"><time>2023-06-03T09:57:23.330</time></trkpt><trkpt lat="55.9382300" lon="49.2729783"><time>2023-06-03T09:57:24.827</time></trkpt><trkpt lat="55.9382750" lon="49.2729550"><time>2023-06-03T09:57:29.280</time></trkpt><trkpt lat="55.9383200" lon="49.2729283"><time>2023-06-03T09:57:33.317</time></trkpt><trkpt lat="55.9382333" lon="49.2728033"><time>2023-06-03T09:58:14.323</time></trkpt><trkpt lat="55.9382117" lon="49.2727317"><time>2023-06-03T09:58:17.323</time></trkpt><trkpt lat="55.9381733" lon="49.2726317"><time>2023-06-03T09:58:20.323</time></trkpt><trkpt lat="55.9381350" lon="49.2725383"><time>2023-06-03T09:58:22.323</time></trkpt><trkpt lat="55.9381050" lon="49.2724533"><time>2023-06-03T09:58:24.327</time></trkpt><trkpt lat="55.9380667" lon="49.2723917"><time>2023-06-03T09:58:26.323</time></trkpt><trkpt lat="55.9380150" lon="49.2723183"><time>2023-06-03T09:58:28.320</time></trkpt><trkpt lat="55.9379583" lon="49.2722133"><time>2023-06-03T09:58:30.327</time></trkpt><trkpt lat="55.9378950" lon="49.2720900"><time>2023-06-03T09:58:32.313</time></trkpt><trkpt lat="55.9378633" lon="49.2720283"><time>2023-06-03T09:58:33.317</time></trkpt><trkpt lat="55.9378233" lon="49.2719733"><time>2023-06-03T09:58:34.320</time></trkpt><trkpt lat="55.9377800" lon="49.2719350"><time>2023-06-03T09:58:35.320</time></trkpt><trkpt lat="55.9377117" lon="49.2718750"><time>2023-06-03T09:58:37.323</time></trkpt><trkpt lat="55.9376683" lon="49.2718133"><time>2023-06-03T09:58:39.323</time></trkpt><trkpt lat="55.9376167" lon="49.2717183"><time>2023-06-03T09:58:41.323</time></trkpt><trkpt lat="55.9375750" lon="49.2716250"><time>2023-06-03T09:58:43.317</time></trkpt><trkpt lat="55.9375250" lon="49.2715350"><time>2023-06-03T09:58:45.323</time></trkpt><trkpt lat="55.9374867" lon="49.2714367"><time>2023-06-03T09:58:47.323</time></trkpt><trkpt lat="55.9374617" lon="49.2713567"><time>2023-06-03T09:58:49.317</time></trkpt><trkpt lat="55.9374283" lon="49.2712833"><time>2023-06-03T09:58:51.320</time></trkpt><trkpt lat="55.9373900" lon="49.2712100"><time>2023-06-03T09:58:53.323</time></trkpt><trkpt lat="55.9373617" lon="49.2711400"><time>2023-06-03T09:58:55.327</time></trkpt><trkpt lat="55.9373800" lon="49.2710433"><time>2023-06-03T09:58:58.323</time></trkpt><trkpt lat="55.9374567" lon="49.2710250"><time>2023-06-03T09:59:00.323</time></trkpt><trkpt lat="55.9375233" lon="49.2710533"><time>2023-06-03T09:59:02.323</time></trkpt><trkpt lat="55.9375883" lon="49.2710783"><time>2023-06-03T09:59:04.323</time></trkpt><trkpt lat="55.9376517" lon="49.2710833"><time>2023-06-03T09:59:06.323</time></trkpt><trkpt lat="55.9377000" lon="49.2710783"><time>2023-06-03T09:59:08.320</time></trkpt><trkpt lat="55.9377600" lon="49.2710583"><time>2023-06-03T09:59:10.313</time></trkpt><trkpt lat="55.9378217" lon="49.2710667"><time>2023-06-03T09:59:12.320</time></trkpt><trkpt lat="55.9378767" lon="49.2710833"><time>2023-06-03T09:59:14.323</time></trkpt><trkpt lat="55.9379550" lon="49.2710933"><time>2023-06-03T09:59:16.323</time></trkpt><trkpt lat="55.9380017" lon="49.2711000"><time>2023-06-03T09:59:17.323</time></trkpt><trkpt lat="55.9380533" lon="49.2711150"><time>2023-06-03T09:59:18.323</time></trkpt><trkpt lat="55.9381250" lon="49.2711517"><time>2023-06-03T09:59:20.323</time></trkpt><trkpt lat="55.9381950" lon="49.2711633"><time>2023-06-03T09:59:22.320</time></trkpt><trkpt lat="55.9382500" lon="49.2711850"><time>2023-06-03T09:59:23.323</time></trkpt><trkpt lat="55.9383033" lon="49.2712133"><time>2023-06-03T09:59:24.327</time></trkpt><trkpt lat="55.9383900" lon="49.2712383"><time>2023-06-03T09:59:26.323</time></trkpt><trkpt lat="55.9384350" lon="49.2712483"><time>2023-06-03T09:59:27.323</time></trkpt><trkpt lat="55.9384900" lon="49.2712683"><time>2023-06-03T09:59:29.323</time></trkpt><trkpt lat="55.9385550" lon="49.2712917"><time>2023-06-03T09:59:31.320</time></trkpt><trkpt lat="55.9386117" lon="49.2713117"><time>2023-06-03T09:59:33.320</time></trkpt><trkpt lat="55.9386967" lon="49.2713533"><time>2023-06-03T09:59:35.320</time></trkpt><trkpt lat="55.9387783" lon="49.2713733"><time>2023-06-03T09:59:37.323</time></trkpt><trkpt lat="55.9388233" lon="49.2713800"><time>2023-06-03T09:59:38.323</time></trkpt><trkpt lat="55.9389117" lon="49.2714133"><time>2023-06-03T09:59:40.320</time></trkpt><trkpt lat="55.9390000" lon="49.2714567"><time>2023-06-03T09:59:42.320</time></trkpt><trkpt lat="55.9390517" lon="49.2714833"><time>2023-06-03T09:59:43.323</time></trkpt><trkpt lat="55.9391017" lon="49.2715100"><time>2023-06-03T09:59:44.320</time></trkpt><trkpt lat="55.9391567" lon="49.2715350"><time>2023-06-03T09:59:45.320</time></trkpt><trkpt lat="55.9392133" lon="49.2715617"><time>2023-06-03T09:59:46.323</time></trkpt><trkpt lat="55.9393033" lon="49.2716217"><time>2023-06-03T09:59:48.323</time></trkpt><trkpt lat="55.9393583" lon="49.2716550"><time>2023-06-03T09:59:49.323</time></trkpt><trkpt lat="55.9394000" lon="49.2716883"><time>2023-06-03T09:59:50.320</time></trkpt><trkpt lat="55.9394733" lon="49.2717500"><time>2023-06-03T09:59:52.327</time></trkpt><trkpt lat="55.9395600" lon="49.2717883"><time>2023-06-03T09:59:54.320</time></trkpt><trkpt lat="55.9396117" lon="49.2718433"><time>2023-06-03T09:59:56.323</time></trkpt><trkpt lat="55.9396683" lon="49.2719050"><time>2023-06-03T09:59:58.323</time></trkpt><trkpt lat="55.9397167" lon="49.2719650"><time>2023-06-03T10:00:00.303</time></trkpt><trkpt lat="55.9397783" lon="49.2720317"><time>2023-06-03T10:00:02.317</time></trkpt><trkpt lat="55.9398183" lon="49.2720883"><time>2023-06-03T10:00:04.320</time></trkpt><trkpt lat="55.9398667" lon="49.2721267"><time>2023-06-03T10:00:06.320</time></trkpt><trkpt lat="55.9399250" lon="49.2722067"><time>2023-06-03T10:00:08.320</time></trkpt><trkpt lat="55.9399967" lon="49.2722700"><time>2023-06-03T10:00:10.317</time></trkpt><trkpt lat="55.9400383" lon="49.2723100"><time>2023-06-03T10:00:11.320</time></trkpt><trkpt lat="55.9400950" lon="49.2723900"><time>2023-06-03T10:00:13.323</time></trkpt><trkpt lat="55.9401450" lon="49.2724517"><time>2023-06-03T10:00:15.323</time></trkpt><trkpt lat="55.9402050" lon="49.2725000"><time>2023-06-03T10:00:17.317</time></trkpt><trkpt lat="55.9402567" lon="49.2725533"><time>2023-06-03T10:00:19.320</time></trkpt><trkpt lat="55.9403167" lon="49.2726217"><time>2023-06-03T10:00:21.320</time></trkpt><trkpt lat="55.9403867" lon="49.2727000"><time>2023-06-03T10:00:23.313</time></trkpt><trkpt lat="55.9404533" lon="49.2727850"><time>2023-06-03T10:00:25.307</time></trkpt><trkpt lat="55.9404950" lon="49.2728667"><time>2023-06-03T10:00:27.317</time></trkpt><trkpt lat="55.9405517" lon="49.2729333"><time>2023-06-03T10:00:29.317</time></trkpt><trkpt lat="55.9406000" lon="49.2730567"><time>2023-06-03T10:00:31.320</time></trkpt><trkpt lat="55.9406667" lon="49.2730950"><time>2023-06-03T10:00:33.320</time></trkpt><trkpt lat="55.9407067" lon="49.2730417"><time>2023-06-03T10:00:37.317</time></trkpt><trkpt lat="55.9407217" lon="49.2729533"><time>2023-06-03T10:00:39.323</time></trkpt><trkpt lat="55.9407367" lon="49.2728650"><time>2023-06-03T10:00:41.320</time></trkpt><trkpt lat="55.9407433" lon="49.2727350"><time>2023-06-03T10:00:43.323</time></trkpt><trkpt lat="55.9407417" lon="49.2725767"><time>2023-06-03T10:00:45.323</time></trkpt><trkpt lat="55.9407367" lon="49.2724883"><time>2023-06-03T10:00:46.320</time></trkpt><trkpt lat="55.9407317" lon="49.2723417"><time>2023-06-03T10:00:48.323</time></trkpt><trkpt lat="55.9407300" lon="49.2722517"><time>2023-06-03T10:00:49.327</time></trkpt><trkpt lat="55.9407283" lon="49.2721183"><time>2023-06-03T10:00:51.323</time></trkpt><trkpt lat="55.9407217" lon="49.2719900"><time>2023-06-03T10:00:53.323</time></trkpt><trkpt lat="55.9407167" lon="49.2719083"><time>2023-06-03T10:00:54.323</time></trkpt><trkpt lat="55.9407150" lon="49.2718267"><time>2023-06-03T10:00:55.320</time></trkpt><trkpt lat="55.9407100" lon="49.2716767"><time>2023-06-03T10:00:57.320</time></trkpt><trkpt lat="55.9407083" lon="49.2715933"><time>2023-06-03T10:00:58.323</time></trkpt><trkpt lat="55.9407083" lon="49.2714333"><time>2023-06-03T10:01:00.323</time></trkpt><trkpt lat="55.9407083" lon="49.2712817"><time>2023-06-03T10:01:02.323</time></trkpt><trkpt lat="55.9407100" lon="49.2711933"><time>2023-06-03T10:01:03.323</time></trkpt><trkpt lat="55.9407117" lon="49.2710650"><time>2023-06-03T10:01:05.323</time></trkpt><trkpt lat="55.9407133" lon="49.2709333"><time>2023-06-03T10:01:07.323</time></trkpt><trkpt lat="55.9406900" lon="49.2708450"><time>2023-06-03T10:01:09.323</time></trkpt><trkpt lat="55.9406600" lon="49.2707633"><time>2023-06-03T10:01:11.323</time></trkpt><trkpt lat="55.9406400" lon="49.2706650"><time>2023-06-03T10:01:13.320</time></trkpt><trkpt lat="55.9406317" lon="49.2705533"><time>2023-06-03T10:01:15.293</time></trkpt><trkpt lat="55.9406267" lon="49.2704250"><time>2023-06-03T10:01:17.320</time></trkpt><trkpt lat="55.9406367" lon="49.2703333"><time>2023-06-03T10:01:19.320</time></trkpt><trkpt lat="55.9406617" lon="49.2702383"><time>2023-06-03T10:01:21.323</time></trkpt><trkpt lat="55.9406833" lon="49.2701000"><time>2023-06-03T10:01:23.320</time></trkpt><trkpt lat="55.9406983" lon="49.2700033"><time>2023-06-03T10:01:24.320</time></trkpt><trkpt lat="55.9407033" lon="49.2699167"><time>2023-06-03T10:01:25.317</time></trkpt><trkpt lat="55.9407150" lon="49.2698133"><time>2023-06-03T10:01:26.317</time></trkpt><trkpt lat="55.9407200" lon="49.2697267"><time>2023-06-03T10:01:27.307</time></trkpt><trkpt lat="55.9407333" lon="49.2696083"><time>2023-06-03T10:01:29.320</time></trkpt><trkpt lat="55.9407433" lon="49.2694883"><time>2023-06-03T10:01:31.323</time></trkpt><trkpt lat="55.9407733" lon="49.2693517"><time>2023-06-03T10:01:33.310</time></trkpt><trkpt lat="55.9407917" lon="49.2692767"><time>2023-06-03T10:01:34.313</time></trkpt><trkpt lat="55.9408017" lon="49.2691283"><time>2023-06-03T10:01:36.323</time></trkpt><trkpt lat="55.9408083" lon="49.2689867"><time>2023-06-03T10:01:38.320</time></trkpt><trkpt lat="55.9408050" lon="49.2688133"><time>2023-06-03T10:01:40.320</time></trkpt><trkpt lat="55.9407967" lon="49.2686800"><time>2023-06-03T10:01:42.320</time></trkpt><trkpt lat="55.9407883" lon="49.2685450"><time>2023-06-03T10:01:44.323</time></trkpt><trkpt lat="55.9407900" lon="49.2683933"><time>2023-06-03T10:01:46.320</time></trkpt><trkpt lat="55.9408000" lon="49.2683150"><time>2023-06-03T10:01:47.323</time></trkpt><trkpt lat="55.9408183" lon="49.2681650"><time>2023-06-03T10:01:49.320</time></trkpt><trkpt lat="55.9408483" lon="49.2680667"><time>2023-06-03T10:01:51.327</time></trkpt><trkpt lat="55.9408783" lon="49.2679733"><time>2023-06-03T10:01:53.327</time></trkpt><trkpt lat="55.9408833" lon="49.2678700"><time>2023-06-03T10:01:55.323</time></trkpt><trkpt lat="55.9409050" lon="49.2677683"><time>2023-06-03T10:01:57.323</time></trkpt><trkpt lat="55.9409117" lon="49.2676450"><time>2023-06-03T10:01:59.320</time></trkpt><trkpt lat="55.9409217" lon="49.2675433"><time>2023-06-03T10:02:01.323</time></trkpt><trkpt lat="55.9409100" lon="49.2674367"><time>2023-06-03T10:02:03.327</time></trkpt><trkpt lat="55.9408850" lon="49.2672933"><time>2023-06-03T10:02:05.327</time></trkpt><trkpt lat="55.9408683" lon="49.2672183"><time>2023-06-03T10:02:06.323</time></trkpt><trkpt lat="55.9408500" lon="49.2671400"><time>2023-06-03T10:02:07.323</time></trkpt><trkpt lat="55.9408300" lon="49.2670450"><time>2023-06-03T10:02:08.323</time></trkpt><trkpt lat="55.9408217" lon="49.2669617"><time>2023-06-03T10:02:09.323</time></trkpt><trkpt lat="55.9408117" lon="49.2668083"><time>2023-06-03T10:02:11.323</time></trkpt><trkpt lat="55.9408017" lon="49.2666650"><time>2023-06-03T10:02:13.320</time></trkpt><trkpt lat="55.9408033" lon="49.2665450"><time>2023-06-03T10:02:15.317</time></trkpt><trkpt lat="55.9408100" lon="49.2664233"><time>2023-06-03T10:02:17.323</time></trkpt><trkpt lat="55.9408250" lon="49.2663183"><time>2023-06-03T10:02:19.323</time></trkpt><trkpt lat="55.9408300" lon="49.2661917"><time>2023-06-03T10:02:21.320</time></trkpt><trkpt lat="55.9408617" lon="49.2660767"><time>2023-06-03T10:02:23.320</time></trkpt><trkpt lat="55.9408983" lon="49.2659350"><time>2023-06-03T10:02:25.327</time></trkpt><trkpt lat="55.9409167" lon="49.2658517"><time>2023-06-03T10:02:27.320</time></trkpt><trkpt lat="55.9409267" lon="49.2657717"><time>2023-06-03T10:02:29.317</time></trkpt><trkpt lat="55.9409533" lon="49.2657033"><time>2023-06-03T10:02:31.323</time></trkpt><trkpt lat="55.9409733" lon="49.2655983"><time>2023-06-03T10:02:34.320</time></trkpt><trkpt lat="55.9409817" lon="49.2654750"><time>2023-06-03T10:02:36.323</time></trkpt><trkpt lat="55.9410033" lon="49.2653383"><time>2023-06-03T10:02:38.320</time></trkpt><trkpt lat="55.9410117" lon="49.2652517"><time>2023-06-03T10:02:39.320</time></trkpt><trkpt lat="55.9410183" lon="49.2651517"><time>2023-06-03T10:02:40.317</time></trkpt><trkpt lat="55.9410400" lon="49.2649850"><time>2023-06-03T10:02:42.317</time></trkpt><trkpt lat="55.9410450" lon="49.2648983"><time>2023-06-03T10:02:43.323</time></trkpt><trkpt lat="55.9410533" lon="49.2647567"><time>2023-06-03T10:02:45.327</time></trkpt><trkpt lat="55.9410483" lon="49.2646333"><time>2023-06-03T10:02:47.317</time></trkpt><trkpt lat="55.9410417" lon="49.2645217"><time>2023-06-03T10:02:49.317</time></trkpt><trkpt lat="55.9410500" lon="49.2644133"><time>2023-06-03T10:02:51.320</time></trkpt><trkpt lat="55.9410633" lon="49.2643200"><time>2023-06-03T10:02:53.323</time></trkpt><trkpt lat="55.9410817" lon="49.2642133"><time>2023-06-03T10:02:56.317</time></trkpt><trkpt lat="55.9410917" lon="49.2641167"><time>2023-06-03T10:02:58.317</time></trkpt><trkpt lat="55.9411017" lon="49.2640033"><time>2023-06-03T10:03:01.323</time></trkpt><trkpt lat="55.9411133" lon="49.2638867"><time>2023-06-03T10:03:04.320</time></trkpt><trkpt lat="55.9411283" lon="49.2637867"><time>2023-06-03T10:03:06.323</time></trkpt><trkpt lat="55.9411533" lon="49.2636950"><time>2023-06-03T10:03:08.313</time></trkpt><trkpt lat="55.9411667" lon="49.2636083"><time>2023-06-03T10:03:10.320</time></trkpt><trkpt lat="55.9411783" lon="49.2635000"><time>2023-06-03T10:03:12.323</time></trkpt><trkpt lat="55.9411967" lon="49.2634067"><time>2023-06-03T10:03:14.323</time></trkpt><trkpt lat="55.9412200" lon="49.2632883"><time>2023-06-03T10:03:16.323</time></trkpt><trkpt lat="55.9412417" lon="49.2631517"><time>2023-06-03T10:03:18.327</time></trkpt><trkpt lat="55.9412733" lon="49.2630017"><time>2023-06-03T10:03:20.323</time></trkpt><trkpt lat="55.9412917" lon="49.2629233"><time>2023-06-03T10:03:21.323</time></trkpt><trkpt lat="55.9413033" lon="49.2628400"><time>2023-06-03T10:03:22.323</time></trkpt><trkpt lat="55.9413150" lon="49.2627600"><time>2023-06-03T10:03:23.320</time></trkpt><trkpt lat="55.9413417" lon="49.2626100"><time>2023-06-03T10:03:25.323</time></trkpt><trkpt lat="55.9413583" lon="49.2625283"><time>2023-06-03T10:03:26.323</time></trkpt><trkpt lat="55.9413717" lon="49.2624467"><time>2023-06-03T10:03:27.327</time></trkpt><trkpt lat="55.9413917" lon="49.2622950"><time>2023-06-03T10:03:29.323</time></trkpt><trkpt lat="55.9414133" lon="49.2622083"><time>2023-06-03T10:03:30.323</time></trkpt><trkpt lat="55.9414233" lon="49.2621233"><time>2023-06-03T10:03:31.323</time></trkpt><trkpt lat="55.9414350" lon="49.2620433"><time>2023-06-03T10:03:32.323</time></trkpt><trkpt lat="55.9414650" lon="49.2619000"><time>2023-06-03T10:03:34.323</time></trkpt><trkpt lat="55.9414817" lon="49.2617400"><time>2023-06-03T10:03:36.327</time></trkpt><trkpt lat="55.9414917" lon="49.2616583"><time>2023-06-03T10:03:37.327</time></trkpt><trkpt lat="55.9415067" lon="49.2615683"><time>2023-06-03T10:03:38.323</time></trkpt><trkpt lat="55.9415250" lon="49.2614883"><time>2023-06-03T10:03:39.327</time></trkpt><trkpt lat="55.9415750" lon="49.2613667"><time>2023-06-03T10:03:41.323</time></trkpt><trkpt lat="55.9416250" lon="49.2612517"><time>2023-06-03T10:03:43.323</time></trkpt><trkpt lat="55.9416633" lon="49.2611133"><time>2023-06-03T10:03:45.317</time></trkpt><trkpt lat="55.9416833" lon="49.2610417"><time>2023-06-03T10:03:46.323</time></trkpt><trkpt lat="55.9417033" lon="49.2609567"><time>2023-06-03T10:03:47.323</time></trkpt><trkpt lat="55.9417167" lon="49.2608800"><time>2023-06-03T10:03:48.323</time></trkpt><trkpt lat="55.9417417" lon="49.2607583"><time>2023-06-03T10:03:50.327</time></trkpt><trkpt lat="55.9417717" lon="49.2606000"><time>2023-06-03T10:03:52.317</time></trkpt><trkpt lat="55.9417883" lon="49.2605217"><time>2023-06-03T10:03:53.320</time></trkpt><trkpt lat="55.9418050" lon="49.2604383"><time>2023-06-03T10:03:54.320</time></trkpt><trkpt lat="55.9418217" lon="49.2603600"><time>2023-06-03T10:03:55.313</time></trkpt><trkpt lat="55.9418350" lon="49.2602800"><time>2023-06-03T10:03:56.323</time></trkpt><trkpt lat="55.9418633" lon="49.2601267"><time>2023-06-03T10:03:58.323</time></trkpt><trkpt lat="55.9418667" lon="49.2599883"><time>2023-06-03T10:04:00.300</time></trkpt><trkpt lat="55.9418517" lon="49.2598583"><time>2023-06-03T10:04:02.290</time></trkpt><trkpt lat="55.9418317" lon="49.2597117"><time>2023-06-03T10:04:04.320</time></trkpt><trkpt lat="55.9418183" lon="49.2596100"><time>2023-06-03T10:04:06.320</time></trkpt><trkpt lat="55.9417917" lon="49.2594967"><time>2023-06-03T10:04:08.323</time></trkpt><trkpt lat="55.9417717" lon="49.2593517"><time>2023-06-03T10:04:10.317</time></trkpt><trkpt lat="55.9417550" lon="49.2592017"><time>2023-06-03T10:04:12.317</time></trkpt><trkpt lat="55.9417300" lon="49.2590717"><time>2023-06-03T10:04:14.323</time></trkpt><trkpt lat="55.9416900" lon="49.2589483"><time>2023-06-03T10:04:16.323</time></trkpt><trkpt lat="55.9416533" lon="49.2588250"><time>2023-06-03T10:04:18.323</time></trkpt><trkpt lat="55.9416267" lon="49.2586983"><time>2023-06-03T10:04:20.323</time></trkpt><trkpt lat="55.9416083" lon="49.2585900"><time>2023-06-03T10:04:22.287</time></trkpt><trkpt lat="55.9416100" lon="49.2584950"><time>2023-06-03T10:04:24.327</time></trkpt><trkpt lat="55.9416317" lon="49.2583917"><time>2023-06-03T10:04:26.327</time></trkpt><trkpt lat="55.9416650" lon="49.2583017"><time>2023-06-03T10:04:28.323</time></trkpt><trkpt lat="55.9417150" lon="49.2582283"><time>2023-06-03T10:04:30.323</time></trkpt><trkpt lat="55.9417567" lon="49.2581417"><time>2023-06-03T10:04:32.303</time></trkpt><trkpt lat="55.9418117" lon="49.2580383"><time>2023-06-03T10:04:34.320</time></trkpt><trkpt lat="55.9418783" lon="49.2579400"><time>2023-06-03T10:04:36.313</time></trkpt><trkpt lat="55.9419433" lon="49.2578417"><time>2023-06-03T10:04:38.323</time></trkpt><trkpt lat="55.9419767" lon="49.2577867"><time>2023-06-03T10:04:39.317</time></trkpt><trkpt lat="55.9420467" lon="49.2577000"><time>2023-06-03T10:04:41.323</time></trkpt><trkpt lat="55.9421183" lon="49.2576250"><time>2023-06-03T10:04:43.313</time></trkpt><trkpt lat="55.9421600" lon="49.2575850"><time>2023-06-03T10:04:44.323</time></trkpt><trkpt lat="55.9422017" lon="49.2575417"><time>2023-06-03T10:04:45.323</time></trkpt><trkpt lat="55.9422717" lon="49.2574833"><time>2023-06-03T10:04:47.323</time></trkpt><trkpt lat="55.9423483" lon="49.2574500"><time>2023-06-03T10:04:49.327</time></trkpt><trkpt lat="55.9423917" lon="49.2574267"><time>2023-06-03T10:04:50.317</time></trkpt><trkpt lat="55.9424417" lon="49.2573967"><time>2023-06-03T10:04:51.323</time></trkpt><trkpt lat="55.9424883" lon="49.2573767"><time>2023-06-03T10:04:52.313</time></trkpt><trkpt lat="55.9425333" lon="49.2573567"><time>2023-06-03T10:04:53.307</time></trkpt><trkpt lat="55.9426133" lon="49.2573250"><time>2023-06-03T10:04:55.323</time></trkpt><trkpt lat="55.9427017" lon="49.2573133"><time>2023-06-03T10:04:57.310</time></trkpt><trkpt lat="55.9427483" lon="49.2573183"><time>2023-06-03T10:04:58.320</time></trkpt><trkpt lat="55.9427983" lon="49.2573217"><time>2023-06-03T10:04:59.323</time></trkpt><trkpt lat="55.9428483" lon="49.2573250"><time>2023-06-03T10:05:00.320</time></trkpt><trkpt lat="55.9428967" lon="49.2573350"><time>2023-06-03T10:05:01.320</time></trkpt><trkpt lat="55.9429417" lon="49.2573500"><time>2023-06-03T10:05:02.320</time></trkpt><trkpt lat="55.9429883" lon="49.2573650"><time>2023-06-03T10:05:03.320</time></trkpt><trkpt lat="55.9430333" lon="49.2573833"><time>2023-06-03T10:05:04.320</time></trkpt><trkpt lat="55.9430800" lon="49.2574067"><time>2023-06-03T10:05:05.323</time></trkpt><trkpt lat="55.9431317" lon="49.2574317"><time>2023-06-03T10:05:06.320</time></trkpt><trkpt lat="55.9431800" lon="49.2574567"><time>2023-06-03T10:05:07.323</time></trkpt><trkpt lat="55.9432317" lon="49.2574817"><time>2023-06-03T10:05:08.323</time></trkpt><trkpt lat="55.9432833" lon="49.2574900"><time>2023-06-03T10:05:09.317</time></trkpt><trkpt lat="55.9433350" lon="49.2574933"><time>2023-06-03T10:05:10.320</time></trkpt><trkpt lat="55.9433833" lon="49.2574933"><time>2023-06-03T10:05:11.323</time></trkpt><trkpt lat="55.9434700" lon="49.2574767"><time>2023-06-03T10:05:13.327</time></trkpt><trkpt lat="55.9435517" lon="49.2574550"><time>2023-06-03T10:05:15.297</time></trkpt><trkpt lat="55.9436350" lon="49.2574250"><time>2023-06-03T10:05:17.317</time></trkpt><trkpt lat="55.9437117" lon="49.2573567"><time>2023-06-03T10:05:19.320</time></trkpt><trkpt lat="55.9437767" lon="49.2572750"><time>2023-06-03T10:05:21.323</time></trkpt><trkpt lat="55.9438383" lon="49.2571933"><time>2023-06-03T10:05:23.323</time></trkpt><trkpt lat="55.9439067" lon="49.2571150"><time>2023-06-03T10:05:25.320</time></trkpt><trkpt lat="55.9439700" lon="49.2570367"><time>2023-06-03T10:05:27.297</time></trkpt><trkpt lat="55.9440417" lon="49.2569533"><time>2023-06-03T10:05:29.320</time></trkpt><trkpt lat="55.9441133" lon="49.2568517"><time>2023-06-03T10:05:31.313</time></trkpt><trkpt lat="55.9441500" lon="49.2567967"><time>2023-06-03T10:05:32.320</time></trkpt><trkpt lat="55.9441900" lon="49.2567467"><time>2023-06-03T10:05:33.307</time></trkpt><trkpt lat="55.9442267" lon="49.2566900"><time>2023-06-03T10:05:34.323</time></trkpt><trkpt lat="55.9442617" lon="49.2566350"><time>2023-06-03T10:05:35.317</time></trkpt><trkpt lat="55.9443000" lon="49.2565750"><time>2023-06-03T10:05:36.313</time></trkpt><trkpt lat="55.9443400" lon="49.2565283"><time>2023-06-03T10:05:37.323</time></trkpt><trkpt lat="55.9443817" lon="49.2564867"><time>2023-06-03T10:05:38.327</time></trkpt><trkpt lat="55.9444567" lon="49.2563983"><time>2023-06-03T10:05:40.323</time></trkpt><trkpt lat="55.9445217" lon="49.2563000"><time>2023-06-03T10:05:42.327</time></trkpt><trkpt lat="55.9445600" lon="49.2562550"><time>2023-06-03T10:05:43.320</time></trkpt><trkpt lat="55.9446300" lon="49.2561567"><time>2023-06-03T10:05:45.317</time></trkpt><trkpt lat="55.9446667" lon="49.2561067"><time>2023-06-03T10:05:46.320</time></trkpt><trkpt lat="55.9447033" lon="49.2560583"><time>2023-06-03T10:05:47.310</time></trkpt><trkpt lat="55.9447400" lon="49.2560017"><time>2023-06-03T10:05:48.310</time></trkpt><trkpt lat="55.9447783" lon="49.2559450"><time>2023-06-03T10:05:49.313</time></trkpt><trkpt lat="55.9448233" lon="49.2558767"><time>2023-06-03T10:05:50.323</time></trkpt><trkpt lat="55.9448667" lon="49.2558083"><time>2023-06-03T10:05:51.323</time></trkpt><trkpt lat="55.9449000" lon="49.2557217"><time>2023-06-03T10:05:52.317</time></trkpt><trkpt lat="55.9449200" lon="49.2556333"><time>2023-06-03T10:05:53.320</time></trkpt><trkpt lat="55.9449267" lon="49.2555483"><time>2023-06-03T10:05:54.323</time></trkpt><trkpt lat="55.9449250" lon="49.2554583"><time>2023-06-03T10:05:55.323</time></trkpt><trkpt lat="55.9449183" lon="49.2553683"><time>2023-06-03T10:05:56.300</time></trkpt><trkpt lat="55.9449150" lon="49.2552783"><time>2023-06-03T10:05:57.317</time></trkpt><trkpt lat="55.9449167" lon="49.2551817"><time>2023-06-03T10:05:58.327</time></trkpt><trkpt lat="55.9449217" lon="49.2550883"><time>2023-06-03T10:05:59.327</time></trkpt><trkpt lat="55.9449200" lon="49.2550000"><time>2023-06-03T10:06:00.323</time></trkpt><trkpt lat="55.9449200" lon="49.2549150"><time>2023-06-03T10:06:01.327</time></trkpt><trkpt lat="55.9449283" lon="49.2548200"><time>2023-06-03T10:06:02.327</time></trkpt><trkpt lat="55.9449350" lon="49.2547217"><time>2023-06-03T10:06:03.303</time></trkpt><trkpt lat="55.9449367" lon="49.2546200"><time>2023-06-03T10:06:04.323</time></trkpt><trkpt lat="55.9449417" lon="49.2545167"><time>2023-06-03T10:06:05.317</time></trkpt><trkpt lat="55.9449450" lon="49.2544117"><time>2023-06-03T10:06:06.317</time></trkpt><trkpt lat="55.9449450" lon="49.2543017"><time>2023-06-03T10:06:07.323</time></trkpt><trkpt lat="55.9449517" lon="49.2541917"><time>2023-06-03T10:06:08.327</time></trkpt><trkpt lat="55.9449600" lon="49.2540867"><time>2023-06-03T10:06:09.327</time></trkpt><trkpt lat="55.9449683" lon="49.2539917"><time>2023-06-03T10:06:10.283</time></trkpt><trkpt lat="55.9449733" lon="49.2538867"><time>2023-06-03T10:06:11.293</time></trkpt><trkpt lat="55.9449733" lon="49.2537767"><time>2023-06-03T10:06:12.290</time></trkpt><trkpt lat="55.9449950" lon="49.2536500"><time>2023-06-03T10:06:13.313</time></trkpt><trkpt lat="55.9450017" lon="49.2535450"><time>2023-06-03T10:06:14.287</time></trkpt><trkpt lat="55.9450017" lon="49.2534367"><time>2023-06-03T10:06:15.310</time></trkpt><trkpt lat="55.9450067" lon="49.2533300"><time>2023-06-03T10:06:16.320</time></trkpt><trkpt lat="55.9450150" lon="49.2532333"><time>2023-06-03T10:06:17.277</time></trkpt><trkpt lat="55.9450150" lon="49.2531383"><time>2023-06-03T10:06:18.293</time></trkpt><trkpt lat="55.9450217" lon="49.2530300"><time>2023-06-03T10:06:19.317</time></trkpt><trkpt lat="55.9450250" lon="49.2529250"><time>2023-06-03T10:06:20.313</time></trkpt><trkpt lat="55.9450283" lon="49.2528200"><time>2023-06-03T10:06:21.320</time></trkpt><trkpt lat="55.9450333" lon="49.2527050"><time>2023-06-03T10:06:22.317</time></trkpt><trkpt lat="55.9450367" lon="49.2526000"><time>2023-06-03T10:06:23.317</time></trkpt><trkpt lat="55.9450383" lon="49.2525017"><time>2023-06-03T10:06:24.317</time></trkpt><trkpt lat="55.9450400" lon="49.2524033"><time>2023-06-03T10:06:25.313</time></trkpt><trkpt lat="55.9450417" lon="49.2523033"><time>2023-06-03T10:06:26.320</time></trkpt><trkpt lat="55.9450450" lon="49.2522117"><time>2023-06-03T10:06:27.317</time></trkpt><trkpt lat="55.9450433" lon="49.2521050"><time>2023-06-03T10:06:28.320</time></trkpt><trkpt lat="55.9450450" lon="49.2520067"><time>2023-06-03T10:06:29.323</time></trkpt><trkpt lat="55.9450483" lon="49.2519083"><time>2023-06-03T10:06:30.310</time></trkpt><trkpt lat="55.9450550" lon="49.2518033"><time>2023-06-03T10:06:31.320</time></trkpt><trkpt lat="55.9450550" lon="49.2516950"><time>2023-06-03T10:06:32.320</time></trkpt><trkpt lat="55.9450567" lon="49.2515933"><time>2023-06-03T10:06:33.320</time></trkpt><trkpt lat="55.9450567" lon="49.2514917"><time>2023-06-03T10:06:34.320</time></trkpt><trkpt lat="55.9450567" lon="49.2513900"><time>2023-06-03T10:06:35.320</time></trkpt><trkpt lat="55.9450567" lon="49.2512917"><time>2023-06-03T10:06:36.320</time></trkpt><trkpt lat="55.9450633" lon="49.2511917"><time>2023-06-03T10:06:37.323</time></trkpt><trkpt lat="55.9450700" lon="49.2510967"><time>2023-06-03T10:06:38.323</time></trkpt><trkpt lat="55.9450733" lon="49.2509950"><time>2023-06-03T10:06:39.310</time></trkpt><trkpt lat="55.9450800" lon="49.2508917"><time>2023-06-03T10:06:40.317</time></trkpt><trkpt lat="55.9450850" lon="49.2507933"><time>2023-06-03T10:06:41.320</time></trkpt><trkpt lat="55.9450817" lon="49.2506933"><time>2023-06-03T10:06:42.310</time></trkpt><trkpt lat="55.9450867" lon="49.2505900"><time>2023-06-03T10:06:43.317</time></trkpt><trkpt lat="55.9450867" lon="49.2504850"><time>2023-06-03T10:06:44.317</time></trkpt><trkpt lat="55.9450867" lon="49.2503867"><time>2023-06-03T10:06:45.313</time></trkpt><trkpt lat="55.9450867" lon="49.2502867"><time>2023-06-03T10:06:46.313</time></trkpt><trkpt lat="55.9450917" lon="49.2501933"><time>2023-06-03T10:06:47.300</time></trkpt><trkpt lat="55.9450950" lon="49.2501017"><time>2023-06-03T10:06:48.317</time></trkpt><trkpt lat="55.9451017" lon="49.2500067"><time>2023-06-03T10:06:49.320</time></trkpt><trkpt lat="55.9451050" lon="49.2499067"><time>2023-06-03T10:06:50.317</time></trkpt><trkpt lat="55.9451100" lon="49.2498150"><time>2023-06-03T10:06:51.313</time></trkpt><trkpt lat="55.9451150" lon="49.2497317"><time>2023-06-03T10:06:52.320</time></trkpt><trkpt lat="55.9451183" lon="49.2496500"><time>2023-06-03T10:06:53.320</time></trkpt><trkpt lat="55.9451183" lon="49.2495650"><time>2023-06-03T10:06:54.323</time></trkpt><trkpt lat="55.9451183" lon="49.2494800"><time>2023-06-03T10:06:55.317</time></trkpt><trkpt lat="55.9451150" lon="49.2493967"><time>2023-06-03T10:06:56.317</time></trkpt><trkpt lat="55.9451183" lon="49.2493133"><time>2023-06-03T10:06:57.317</time></trkpt><trkpt lat="55.9451217" lon="49.2492217"><time>2023-06-03T10:06:58.317</time></trkpt><trkpt lat="55.9451233" lon="49.2491367"><time>2023-06-03T10:06:59.317</time></trkpt><trkpt lat="55.9451217" lon="49.2490450"><time>2023-06-03T10:07:00.320</time></trkpt><trkpt lat="55.9451267" lon="49.2489567"><time>2023-06-03T10:07:01.320</time></trkpt><trkpt lat="55.9451317" lon="49.2488717"><time>2023-06-03T10:07:02.320</time></trkpt><trkpt lat="55.9451283" lon="49.2487917"><time>2023-06-03T10:07:03.323</time></trkpt><trkpt lat="55.9451267" lon="49.2487033"><time>2023-06-03T10:07:04.320</time></trkpt><trkpt lat="55.9451267" lon="49.2486150"><time>2023-06-03T10:07:05.317</time></trkpt><trkpt lat="55.9451283" lon="49.2485250"><time>2023-06-03T10:07:06.320</time></trkpt><trkpt lat="55.9451317" lon="49.2484350"><time>2023-06-03T10:07:07.323</time></trkpt><trkpt lat="55.9451350" lon="49.2483467"><time>2023-06-03T10:07:08.317</time></trkpt><trkpt lat="55.9451400" lon="49.2482583"><time>2023-06-03T10:07:09.320</time></trkpt><trkpt lat="55.9451450" lon="49.2481733"><time>2023-06-03T10:07:10.320</time></trkpt><trkpt lat="55.9451533" lon="49.2480900"><time>2023-06-03T10:07:11.323</time></trkpt><trkpt lat="55.9451583" lon="49.2479967"><time>2023-06-03T10:07:12.323</time></trkpt><trkpt lat="55.9451600" lon="49.2479150"><time>2023-06-03T10:07:13.287</time></trkpt><trkpt lat="55.9451667" lon="49.2478283"><time>2023-06-03T10:07:14.317</time></trkpt><trkpt lat="55.9451700" lon="49.2477417"><time>2023-06-03T10:07:15.323</time></trkpt><trkpt lat="55.9451733" lon="49.2475850"><time>2023-06-03T10:07:17.323</time></trkpt><trkpt lat="55.9451833" lon="49.2475033"><time>2023-06-03T10:07:18.320</time></trkpt><trkpt lat="55.9451883" lon="49.2474217"><time>2023-06-03T10:07:19.323</time></trkpt><trkpt lat="55.9451933" lon="49.2473383"><time>2023-06-03T10:07:20.323</time></trkpt><trkpt lat="55.9452000" lon="49.2472567"><time>2023-06-03T10:07:21.327</time></trkpt><trkpt lat="55.9452050" lon="49.2471000"><time>2023-06-03T10:07:23.320</time></trkpt><trkpt lat="55.9452100" lon="49.2469367"><time>2023-06-03T10:07:25.323</time></trkpt><trkpt lat="55.9452183" lon="49.2468567"><time>2023-06-03T10:07:26.323</time></trkpt><trkpt lat="55.9452267" lon="49.2467733"><time>2023-06-03T10:07:27.323</time></trkpt><trkpt lat="55.9452367" lon="49.2466900"><time>2023-06-03T10:07:28.320</time></trkpt><trkpt lat="55.9452400" lon="49.2466050"><time>2023-06-03T10:07:29.320</time></trkpt><trkpt lat="55.9452400" lon="49.2465217"><time>2023-06-03T10:07:30.320</time></trkpt><trkpt lat="55.9452350" lon="49.2464300"><time>2023-06-03T10:07:31.323</time></trkpt><trkpt lat="55.9452383" lon="49.2463467"><time>2023-06-03T10:07:32.320</time></trkpt><trkpt lat="55.9452450" lon="49.2462567"><time>2023-06-03T10:07:33.320</time></trkpt><trkpt lat="55.9452517" lon="49.2461650"><time>2023-06-03T10:07:34.320</time></trkpt><trkpt lat="55.9452617" lon="49.2460767"><time>2023-06-03T10:07:35.323</time></trkpt><trkpt lat="55.9452600" lon="49.2459933"><time>2023-06-03T10:07:36.323</time></trkpt><trkpt lat="55.9452567" lon="49.2459117"><time>2023-06-03T10:07:37.320</time></trkpt><trkpt lat="55.9452683" lon="49.2457567"><time>2023-06-03T10:07:39.323</time></trkpt><trkpt lat="55.9452750" lon="49.2456750"><time>2023-06-03T10:07:40.320</time></trkpt><trkpt lat="55.9452750" lon="49.2455183"><time>2023-06-03T10:07:42.323</time></trkpt><trkpt lat="55.9452817" lon="49.2454283"><time>2023-06-03T10:07:43.323</time></trkpt><trkpt lat="55.9452900" lon="49.2453450"><time>2023-06-03T10:07:44.323</time></trkpt><trkpt lat="55.9452950" lon="49.2452633"><time>2023-06-03T10:07:45.323</time></trkpt><trkpt lat="55.9452967" lon="49.2451050"><time>2023-06-03T10:07:47.320</time></trkpt><trkpt lat="55.9453033" lon="49.2449550"><time>2023-06-03T10:07:49.323</time></trkpt><trkpt lat="55.9453083" lon="49.2448683"><time>2023-06-03T10:07:50.323</time></trkpt><trkpt lat="55.9453083" lon="49.2447850"><time>2023-06-03T10:07:51.320</time></trkpt><trkpt lat="55.9453183" lon="49.2446317"><time>2023-06-03T10:07:53.317</time></trkpt><trkpt lat="55.9453250" lon="49.2445450"><time>2023-06-03T10:07:54.317</time></trkpt><trkpt lat="55.9453267" lon="49.2444533"><time>2023-06-03T10:07:55.297</time></trkpt><trkpt lat="55.9453283" lon="49.2443000"><time>2023-06-03T10:07:57.327</time></trkpt><trkpt lat="55.9453333" lon="49.2442183"><time>2023-06-03T10:07:58.323</time></trkpt><trkpt lat="55.9453367" lon="49.2441383"><time>2023-06-03T10:07:59.323</time></trkpt><trkpt lat="55.9453500" lon="49.2439900"><time>2023-06-03T10:08:01.320</time></trkpt><trkpt lat="55.9453733" lon="49.2438617"><time>2023-06-03T10:08:03.317</time></trkpt><trkpt lat="55.9453983" lon="49.2437150"><time>2023-06-03T10:08:05.313</time></trkpt><trkpt lat="55.9454083" lon="49.2436367"><time>2023-06-03T10:08:06.320</time></trkpt><trkpt lat="55.9454350" lon="49.2434983"><time>2023-06-03T10:08:08.320</time></trkpt><trkpt lat="55.9454733" lon="49.2433617"><time>2023-06-03T10:08:10.317</time></trkpt><trkpt lat="55.9455000" lon="49.2432217"><time>2023-06-03T10:08:12.317</time></trkpt><trkpt lat="55.9455317" lon="49.2430917"><time>2023-06-03T10:08:14.327</time></trkpt><trkpt lat="55.9455650" lon="49.2429617"><time>2023-06-03T10:08:16.323</time></trkpt><trkpt lat="55.9455883" lon="49.2428200"><time>2023-06-03T10:08:18.320</time></trkpt><trkpt lat="55.9456133" lon="49.2426817"><time>2023-06-03T10:08:20.323</time></trkpt><trkpt lat="55.9456483" lon="49.2425633"><time>2023-06-03T10:08:22.320</time></trkpt><trkpt lat="55.9456833" lon="49.2424250"><time>2023-06-03T10:08:24.320</time></trkpt><trkpt lat="55.9457000" lon="49.2423500"><time>2023-06-03T10:08:25.327</time></trkpt><trkpt lat="55.9457167" lon="49.2422750"><time>2023-06-03T10:08:26.320</time></trkpt><trkpt lat="55.9457633" lon="49.2421367"><time>2023-06-03T10:08:28.320</time></trkpt><trkpt lat="55.9457917" lon="49.2420717"><time>2023-06-03T10:08:29.320</time></trkpt><trkpt lat="55.9458150" lon="49.2420017"><time>2023-06-03T10:08:30.320</time></trkpt><trkpt lat="55.9458417" lon="49.2419267"><time>2023-06-03T10:08:31.320</time></trkpt><trkpt lat="55.9458667" lon="49.2418433"><time>2023-06-03T10:08:32.317</time></trkpt><trkpt lat="55.9459200" lon="49.2417267"><time>2023-06-03T10:08:34.317</time></trkpt><trkpt lat="55.9459817" lon="49.2416050"><time>2023-06-03T10:08:36.297</time></trkpt><trkpt lat="55.9460167" lon="49.2415433"><time>2023-06-03T10:08:37.323</time></trkpt><trkpt lat="55.9460483" lon="49.2414817"><time>2023-06-03T10:08:38.323</time></trkpt><trkpt lat="55.9460783" lon="49.2414133"><time>2023-06-03T10:08:39.327</time></trkpt><trkpt lat="55.9461317" lon="49.2412817"><time>2023-06-03T10:08:41.313</time></trkpt><trkpt lat="55.9461883" lon="49.2411500"><time>2023-06-03T10:08:43.323</time></trkpt><trkpt lat="55.9462017" lon="49.2410150"><time>2023-06-03T10:08:45.327</time></trkpt><trkpt lat="55.9461733" lon="49.2409033"><time>2023-06-03T10:08:47.317</time></trkpt><trkpt lat="55.9461150" lon="49.2408200"><time>2023-06-03T10:08:49.320</time></trkpt><trkpt lat="55.9460333" lon="49.2407500"><time>2023-06-03T10:08:51.320</time></trkpt><trkpt lat="55.9459600" lon="49.2406800"><time>2023-06-03T10:08:53.320</time></trkpt><trkpt lat="55.9458900" lon="49.2406017"><time>2023-06-03T10:08:55.317</time></trkpt><trkpt lat="55.9458283" lon="49.2404967"><time>2023-06-03T10:08:57.320</time></trkpt><trkpt lat="55.9457900" lon="49.2404467"><time>2023-06-03T10:08:58.323</time></trkpt><trkpt lat="55.9457233" lon="49.2403433"><time>2023-06-03T10:09:00.327</time></trkpt><trkpt lat="55.9456600" lon="49.2402483"><time>2023-06-03T10:09:02.323</time></trkpt><trkpt lat="55.9455900" lon="49.2401400"><time>2023-06-03T10:09:04.323</time></trkpt><trkpt lat="55.9455533" lon="49.2400800"><time>2023-06-03T10:09:05.327</time></trkpt><trkpt lat="55.9455167" lon="49.2400200"><time>2023-06-03T10:09:06.323</time></trkpt><trkpt lat="55.9454883" lon="49.2399533"><time>2023-06-03T10:09:07.320</time></trkpt><trkpt lat="55.9454433" lon="49.2398100"><time>2023-06-03T10:09:09.323</time></trkpt><trkpt lat="55.9454250" lon="49.2397267"><time>2023-06-03T10:09:10.323</time></trkpt><trkpt lat="55.9454067" lon="49.2396433"><time>2023-06-03T10:09:11.327</time></trkpt><trkpt lat="55.9453900" lon="49.2395633"><time>2023-06-03T10:09:12.320</time></trkpt><trkpt lat="55.9453767" lon="49.2394817"><time>2023-06-03T10:09:13.323</time></trkpt><trkpt lat="55.9453633" lon="49.2393983"><time>2023-06-03T10:09:14.317</time></trkpt><trkpt lat="55.9453500" lon="49.2393117"><time>2023-06-03T10:09:15.303</time></trkpt><trkpt lat="55.9453417" lon="49.2392300"><time>2023-06-03T10:09:16.307</time></trkpt><trkpt lat="55.9453300" lon="49.2391400"><time>2023-06-03T10:09:17.320</time></trkpt><trkpt lat="55.9453167" lon="49.2390583"><time>2023-06-03T10:09:18.317</time></trkpt><trkpt lat="55.9452900" lon="49.2389050"><time>2023-06-03T10:09:20.323</time></trkpt><trkpt lat="55.9452700" lon="49.2388250"><time>2023-06-03T10:09:21.323</time></trkpt><trkpt lat="55.9452533" lon="49.2387367"><time>2023-06-03T10:09:22.320</time></trkpt><trkpt lat="55.9452367" lon="49.2386500"><time>2023-06-03T10:09:23.323</time></trkpt><trkpt lat="55.9452233" lon="49.2385567"><time>2023-06-03T10:09:24.320</time></trkpt><trkpt lat="55.9452050" lon="49.2384700"><time>2023-06-03T10:09:25.320</time></trkpt><trkpt lat="55.9451883" lon="49.2383850"><time>2023-06-03T10:09:26.317</time></trkpt><trkpt lat="55.9451750" lon="49.2383000"><time>2023-06-03T10:09:27.317</time></trkpt><trkpt lat="55.9451600" lon="49.2382133"><time>2023-06-03T10:09:28.313</time></trkpt><trkpt lat="55.9451467" lon="49.2381300"><time>2023-06-03T10:09:29.327</time></trkpt><trkpt lat="55.9451300" lon="49.2380483"><time>2023-06-03T10:09:30.320</time></trkpt><trkpt lat="55.9451167" lon="49.2379633"><time>2023-06-03T10:09:31.323</time></trkpt><trkpt lat="55.9451017" lon="49.2378783"><time>2023-06-03T10:09:32.317</time></trkpt><trkpt lat="55.9450883" lon="49.2377933"><time>2023-06-03T10:09:33.320</time></trkpt><trkpt lat="55.9450783" lon="49.2377133"><time>2023-06-03T10:09:34.310</time></trkpt><trkpt lat="55.9450600" lon="49.2375600"><time>2023-06-03T10:09:36.320</time></trkpt><trkpt lat="55.9450567" lon="49.2374150"><time>2023-06-03T10:09:38.323</time></trkpt><trkpt lat="55.9450483" lon="49.2372917"><time>2023-06-03T10:09:40.323</time></trkpt><trkpt lat="55.9450300" lon="49.2371700"><time>2023-06-03T10:09:42.323</time></trkpt><trkpt lat="55.9450083" lon="49.2370167"><time>2023-06-03T10:09:44.323</time></trkpt><trkpt lat="55.9449967" lon="49.2368633"><time>2023-06-03T10:09:46.323</time></trkpt><trkpt lat="55.9449883" lon="49.2367833"><time>2023-06-03T10:09:47.323</time></trkpt><trkpt lat="55.9449817" lon="49.2367017"><time>2023-06-03T10:09:48.323</time></trkpt><trkpt lat="55.9449667" lon="49.2365550"><time>2023-06-03T10:09:50.323</time></trkpt><trkpt lat="55.9449500" lon="49.2364250"><time>2023-06-03T10:09:52.283</time></trkpt><trkpt lat="55.9449183" lon="49.2362917"><time>2023-06-03T10:09:54.307</time></trkpt><trkpt lat="55.9448850" lon="49.2361333"><time>2023-06-03T10:09:56.297</time></trkpt><trkpt lat="55.9448683" lon="49.2360500"><time>2023-06-03T10:09:57.323</time></trkpt><trkpt lat="55.9448533" lon="49.2359583"><time>2023-06-03T10:09:58.317</time></trkpt><trkpt lat="55.9448433" lon="49.2358767"><time>2023-06-03T10:09:59.317</time></trkpt><trkpt lat="55.9448317" lon="49.2357967"><time>2023-06-03T10:10:00.317</time></trkpt><trkpt lat="55.9448117" lon="49.2356467"><time>2023-06-03T10:10:02.323</time></trkpt><trkpt lat="55.9447950" lon="49.2355100"><time>2023-06-03T10:10:04.313</time></trkpt><trkpt lat="55.9447817" lon="49.2353717"><time>2023-06-03T10:10:06.327</time></trkpt><trkpt lat="55.9447617" lon="49.2352517"><time>2023-06-03T10:10:08.327</time></trkpt><trkpt lat="55.9447467" lon="49.2351333"><time>2023-06-03T10:10:10.323</time></trkpt><trkpt lat="55.9447400" lon="49.2349950"><time>2023-06-03T10:10:12.327</time></trkpt><trkpt lat="55.9447483" lon="49.2348467"><time>2023-06-03T10:10:14.323</time></trkpt><trkpt lat="55.9447700" lon="49.2347217"><time>2023-06-03T10:10:16.323</time></trkpt><trkpt lat="55.9447867" lon="49.2346267"><time>2023-06-03T10:10:18.327</time></trkpt><trkpt lat="55.9447600" lon="49.2345283"><time>2023-06-03T10:10:21.323</time></trkpt><trkpt lat="55.9447017" lon="49.2345200"><time>2023-06-03T10:10:23.323</time></trkpt><trkpt lat="55.9446350" lon="49.2345217"><time>2023-06-03T10:10:25.327</time></trkpt><trkpt lat="55.9445600" lon="49.2344667"><time>2023-06-03T10:10:27.323</time></trkpt><trkpt lat="55.9445000" lon="49.2343933"><time>2023-06-03T10:10:29.327</time></trkpt><trkpt lat="55.9444433" lon="49.2343067"><time>2023-06-03T10:10:31.313</time></trkpt><trkpt lat="55.9444050" lon="49.2342200"><time>2023-06-03T10:10:33.323</time></trkpt><trkpt lat="55.9443600" lon="49.2341183"><time>2023-06-03T10:10:35.300</time></trkpt><trkpt lat="55.9443000" lon="49.2340183"><time>2023-06-03T10:10:37.320</time></trkpt><trkpt lat="55.9442317" lon="49.2339267"><time>2023-06-03T10:10:39.323</time></trkpt><trkpt lat="55.9441667" lon="49.2338433"><time>2023-06-03T10:10:41.323</time></trkpt><trkpt lat="55.9441050" lon="49.2337733"><time>2023-06-03T10:10:43.317</time></trkpt><trkpt lat="55.9440383" lon="49.2336950"><time>2023-06-03T10:10:45.323</time></trkpt><trkpt lat="55.9439617" lon="49.2336417"><time>2023-06-03T10:10:47.310</time></trkpt><trkpt lat="55.9438833" lon="49.2335867"><time>2023-06-03T10:10:49.323</time></trkpt><trkpt lat="55.9438017" lon="49.2335400"><time>2023-06-03T10:10:51.323</time></trkpt><trkpt lat="55.9437250" lon="49.2335150"><time>2023-06-03T10:10:53.320</time></trkpt><trkpt lat="55.9436400" lon="49.2334883"><time>2023-06-03T10:10:55.323</time></trkpt><trkpt lat="55.9435617" lon="49.2334583"><time>2023-06-03T10:10:57.320</time></trkpt><trkpt lat="55.9434883" lon="49.2334367"><time>2023-06-03T10:10:59.310</time></trkpt><trkpt lat="55.9434100" lon="49.2334217"><time>2023-06-03T10:11:01.323</time></trkpt><trkpt lat="55.9433333" lon="49.2334083"><time>2023-06-03T10:11:03.320</time></trkpt><trkpt lat="55.9432600" lon="49.2333983"><time>2023-06-03T10:11:05.327</time></trkpt><trkpt lat="55.9431883" lon="49.2333967"><time>2023-06-03T10:11:07.323</time></trkpt><trkpt lat="55.9431050" lon="49.2334017"><time>2023-06-03T10:11:09.323</time></trkpt><trkpt lat="55.9430167" lon="49.2334167"><time>2023-06-03T10:11:11.323</time></trkpt><trkpt lat="55.9429417" lon="49.2334267"><time>2023-06-03T10:11:13.323</time></trkpt><trkpt lat="55.9428700" lon="49.2333833"><time>2023-06-03T10:11:15.323</time></trkpt><trkpt lat="55.9428233" lon="49.2332783"><time>2023-06-03T10:11:17.323</time></trkpt><trkpt lat="55.9427950" lon="49.2331517"><time>2023-06-03T10:11:19.343</time></trkpt><trkpt lat="55.9429400" lon="49.2331133"><time>2023-06-03T10:11:20.827</time></trkpt><trkpt lat="55.9427667" lon="49.2328450"><time>2023-06-03T10:11:21.810</time></trkpt><trkpt lat="55.9428183" lon="49.2329283"><time>2023-06-03T10:11:22.320</time></trkpt><trkpt lat="55.9427817" lon="49.2328600"><time>2023-06-03T10:11:23.303</time></trkpt><trkpt lat="55.9427500" lon="49.2327617"><time>2023-06-03T10:11:25.317</time></trkpt><trkpt lat="55.9427133" lon="49.2326950"><time>2023-06-03T10:11:26.310</time></trkpt><trkpt lat="55.9426850" lon="49.2326283"><time>2023-06-03T10:11:27.300</time></trkpt><trkpt lat="55.9426467" lon="49.2325050"><time>2023-06-03T10:11:29.313</time></trkpt><trkpt lat="55.9426167" lon="49.2323833"><time>2023-06-03T10:11:31.313</time></trkpt><trkpt lat="55.9425783" lon="49.2322617"><time>2023-06-03T10:11:33.310</time></trkpt><trkpt lat="55.9425483" lon="49.2321300"><time>2023-06-03T10:11:35.313</time></trkpt><trkpt lat="55.9425200" lon="49.2320150"><time>2023-06-03T10:11:37.313</time></trkpt><trkpt lat="55.9424967" lon="49.2319050"><time>2023-06-03T10:11:39.313</time></trkpt><trkpt lat="55.9424767" lon="49.2318033"><time>2023-06-03T10:11:41.313</time></trkpt><trkpt lat="55.9424550" lon="49.2316850"><time>2023-06-03T10:11:43.333</time></trkpt><trkpt lat="55.9424550" lon="49.2316850"><time>2023-06-03T10:11:44.320</time></trkpt><trkpt lat="55.9424333" lon="49.2316000"><time>2023-06-03T10:11:45.817</time></trkpt><trkpt lat="55.9424117" lon="49.2315250"><time>2023-06-03T10:11:46.807</time></trkpt><trkpt lat="55.9423950" lon="49.2314233"><time>2023-06-03T10:11:48.310</time></trkpt><trkpt lat="55.9423867" lon="49.2313100"><time>2023-06-03T10:11:50.313</time></trkpt><trkpt lat="55.9423767" lon="49.2311933"><time>2023-06-03T10:11:52.310</time></trkpt><trkpt lat="55.9423600" lon="49.2311117"><time>2023-06-03T10:11:54.313</time></trkpt><trkpt lat="55.9423517" lon="49.2310267"><time>2023-06-03T10:11:56.313</time></trkpt><trkpt lat="55.9423483" lon="49.2309333"><time>2023-06-03T10:11:58.330</time></trkpt><trkpt lat="55.9423483" lon="49.2309300"><time>2023-06-03T10:11:59.823</time></trkpt><trkpt lat="55.9423667" lon="49.2307917"><time>2023-06-03T10:12:01.313</time></trkpt><trkpt lat="55.9423717" lon="49.2306783"><time>2023-06-03T10:12:03.290</time></trkpt><trkpt lat="55.9423433" lon="49.2305317"><time>2023-06-03T10:12:05.290</time></trkpt><trkpt lat="55.9423050" lon="49.2304150"><time>2023-06-03T10:12:07.307</time></trkpt><trkpt lat="55.9422767" lon="49.2303200"><time>2023-06-03T10:12:09.297</time></trkpt><trkpt lat="55.9422767" lon="49.2303200"><time>2023-06-03T10:12:09.377</time></trkpt><trkpt lat="55.9422367" lon="49.2302383"><time>2023-06-03T10:12:12.307</time></trkpt><trkpt lat="55.9422383" lon="49.2302383"><time>2023-06-03T10:12:13.300</time></trkpt><trkpt lat="55.9422750" lon="49.2303100"><time>2023-06-03T10:15:08.320</time></trkpt><trkpt lat="55.9423017" lon="49.2303967"><time>2023-06-03T10:15:11.320</time></trkpt><trkpt lat="55.9423133" lon="49.2304800"><time>2023-06-03T10:15:13.320</time></trkpt><trkpt lat="55.9423200" lon="49.2305683"><time>2023-06-03T10:15:15.323</time></trkpt><trkpt lat="55.9423367" lon="49.2306850"><time>2023-06-03T10:15:17.323</time></trkpt><trkpt lat="55.9423533" lon="49.2307917"><time>2023-06-03T10:15:19.323</time></trkpt><trkpt lat="55.9423717" lon="49.2309150"><time>2023-06-03T10:15:21.320</time></trkpt><trkpt lat="55.9423850" lon="49.2310667"><time>2023-06-03T10:15:23.323</time></trkpt><trkpt lat="55.9423900" lon="49.2311650"><time>2023-06-03T10:15:24.317</time></trkpt><trkpt lat="55.9424067" lon="49.2312950"><time>2023-06-03T10:15:26.320</time></trkpt><trkpt lat="55.9424317" lon="49.2314433"><time>2023-06-03T10:15:28.307</time></trkpt><trkpt lat="55.9424450" lon="49.2315217"><time>2023-06-03T10:15:29.313</time></trkpt><trkpt lat="55.9424617" lon="49.2316817"><time>2023-06-03T10:15:31.320</time></trkpt><trkpt lat="55.9424800" lon="49.2318167"><time>2023-06-03T10:15:33.313</time></trkpt><trkpt lat="55.9425133" lon="49.2319467"><time>2023-06-03T10:15:35.317</time></trkpt><trkpt lat="55.9425283" lon="49.2320517"><time>2023-06-03T10:15:37.317</time></trkpt><trkpt lat="55.9425467" lon="49.2321567"><time>2023-06-03T10:15:39.320</time></trkpt><trkpt lat="55.9425717" lon="49.2322700"><time>2023-06-03T10:15:41.327</time></trkpt><trkpt lat="55.9426017" lon="49.2323900"><time>2023-06-03T10:15:43.323</time></trkpt><trkpt lat="55.9426400" lon="49.2325017"><time>2023-06-03T10:15:45.320</time></trkpt><trkpt lat="55.9426717" lon="49.2326383"><time>2023-06-03T10:15:47.323</time></trkpt><trkpt lat="55.9427050" lon="49.2327800"><time>2023-06-03T10:15:49.323</time></trkpt><trkpt lat="55.9427167" lon="49.2328600"><time>2023-06-03T10:15:50.327</time></trkpt><trkpt lat="55.9427467" lon="49.2329833"><time>2023-06-03T10:15:52.323</time></trkpt><trkpt lat="55.9427767" lon="49.2331083"><time>2023-06-03T10:15:54.327</time></trkpt><trkpt lat="55.9428117" lon="49.2332267"><time>2023-06-03T10:15:56.327</time></trkpt><trkpt lat="55.9428400" lon="49.2333400"><time>2023-06-03T10:15:58.313</time></trkpt><trkpt lat="55.9428867" lon="49.2334183"><time>2023-06-03T10:16:00.323</time></trkpt><trkpt lat="55.9429517" lon="49.2334333"><time>2023-06-03T10:16:02.327</time></trkpt><trkpt lat="55.9430333" lon="49.2334250"><time>2023-06-03T10:16:04.317</time></trkpt><trkpt lat="55.9431117" lon="49.2334067"><time>2023-06-03T10:16:06.323</time></trkpt><trkpt lat="55.9431917" lon="49.2334000"><time>2023-06-03T10:16:08.320</time></trkpt><trkpt lat="55.9432833" lon="49.2334083"><time>2023-06-03T10:16:10.327</time></trkpt><trkpt lat="55.9433650" lon="49.2334283"><time>2023-06-03T10:16:12.313</time></trkpt><trkpt lat="55.9434117" lon="49.2334383"><time>2023-06-03T10:16:13.327</time></trkpt><trkpt lat="55.9434933" lon="49.2334633"><time>2023-06-03T10:16:15.320</time></trkpt><trkpt lat="55.9435783" lon="49.2334883"><time>2023-06-03T10:16:17.313</time></trkpt><trkpt lat="55.9436683" lon="49.2335150"><time>2023-06-03T10:16:19.320</time></trkpt><trkpt lat="55.9437183" lon="49.2335250"><time>2023-06-03T10:16:20.327</time></trkpt><trkpt lat="55.9438033" lon="49.2335583"><time>2023-06-03T10:16:22.320</time></trkpt><trkpt lat="55.9438883" lon="49.2336067"><time>2023-06-03T10:16:24.323</time></trkpt><trkpt lat="55.9439667" lon="49.2336650"><time>2023-06-03T10:16:26.320</time></trkpt><trkpt lat="55.9440367" lon="49.2337183"><time>2023-06-03T10:16:28.320</time></trkpt><trkpt lat="55.9440983" lon="49.2338000"><time>2023-06-03T10:16:30.323</time></trkpt><trkpt lat="55.9441600" lon="49.2338833"><time>2023-06-03T10:16:32.323</time></trkpt><trkpt lat="55.9442200" lon="49.2339717"><time>2023-06-03T10:16:34.320</time></trkpt><trkpt lat="55.9442800" lon="49.2340500"><time>2023-06-03T10:16:36.317</time></trkpt><trkpt lat="55.9443400" lon="49.2341550"><time>2023-06-03T10:16:38.293</time></trkpt><trkpt lat="55.9443900" lon="49.2342567"><time>2023-06-03T10:16:40.307</time></trkpt><trkpt lat="55.9444400" lon="49.2343500"><time>2023-06-03T10:16:42.303</time></trkpt><trkpt lat="55.9445017" lon="49.2344483"><time>2023-06-03T10:16:44.313</time></trkpt><trkpt lat="55.9445717" lon="49.2345150"><time>2023-06-03T10:16:46.317</time></trkpt><trkpt lat="55.9446450" lon="49.2345300"><time>2023-06-03T10:16:48.310</time></trkpt><trkpt lat="55.9447233" lon="49.2345283"><time>2023-06-03T10:16:50.317</time></trkpt><trkpt lat="55.9447550" lon="49.2346050"><time>2023-06-03T10:16:52.317</time></trkpt><trkpt lat="55.9447483" lon="49.2347233"><time>2023-06-03T10:16:54.317</time></trkpt><trkpt lat="55.9447267" lon="49.2348400"><time>2023-06-03T10:16:56.313</time></trkpt><trkpt lat="55.9447183" lon="49.2349783"><time>2023-06-03T10:16:58.307</time></trkpt><trkpt lat="55.9447267" lon="49.2351150"><time>2023-06-03T10:17:00.320</time></trkpt><trkpt lat="55.9447417" lon="49.2352467"><time>2023-06-03T10:17:02.323</time></trkpt><trkpt lat="55.9447583" lon="49.2353850"><time>2023-06-03T10:17:04.320</time></trkpt><trkpt lat="55.9447767" lon="49.2355350"><time>2023-06-03T10:17:06.323</time></trkpt><trkpt lat="55.9448000" lon="49.2356800"><time>2023-06-03T10:17:08.323</time></trkpt><trkpt lat="55.9448233" lon="49.2358200"><time>2023-06-03T10:17:10.317</time></trkpt><trkpt lat="55.9448450" lon="49.2359733"><time>2023-06-03T10:17:12.320</time></trkpt><trkpt lat="55.9448567" lon="49.2361100"><time>2023-06-03T10:17:14.323</time></trkpt><trkpt lat="55.9448633" lon="49.2362367"><time>2023-06-03T10:17:16.317</time></trkpt><trkpt lat="55.9448800" lon="49.2363700"><time>2023-06-03T10:17:18.323</time></trkpt><trkpt lat="55.9448967" lon="49.2364900"><time>2023-06-03T10:17:20.320</time></trkpt><trkpt lat="55.9449283" lon="49.2366117"><time>2023-06-03T10:17:22.310</time></trkpt><trkpt lat="55.9449567" lon="49.2367667"><time>2023-06-03T10:17:24.323</time></trkpt><trkpt lat="55.9449683" lon="49.2368550"><time>2023-06-03T10:17:25.323</time></trkpt><trkpt lat="55.9449800" lon="49.2369450"><time>2023-06-03T10:17:26.323</time></trkpt><trkpt lat="55.9449950" lon="49.2370400"><time>2023-06-03T10:17:27.327</time></trkpt><trkpt lat="55.9450067" lon="49.2371200"><time>2023-06-03T10:17:28.323</time></trkpt><trkpt lat="55.9450317" lon="49.2372667"><time>2023-06-03T10:17:30.320</time></trkpt><trkpt lat="55.9450450" lon="49.2373500"><time>2023-06-03T10:17:31.320</time></trkpt><trkpt lat="55.9450600" lon="49.2374983"><time>2023-06-03T10:17:33.323</time></trkpt><trkpt lat="55.9450700" lon="49.2376617"><time>2023-06-03T10:17:35.323</time></trkpt><trkpt lat="55.9450833" lon="49.2377483"><time>2023-06-03T10:17:36.320</time></trkpt><trkpt lat="55.9450967" lon="49.2378383"><time>2023-06-03T10:17:37.320</time></trkpt><trkpt lat="55.9451100" lon="49.2379233"><time>2023-06-03T10:17:38.323</time></trkpt><trkpt lat="55.9451250" lon="49.2380117"><time>2023-06-03T10:17:39.323</time></trkpt><trkpt lat="55.9451483" lon="49.2381583"><time>2023-06-03T10:17:41.323</time></trkpt><trkpt lat="55.9451733" lon="49.2383017"><time>2023-06-03T10:17:43.323</time></trkpt><trkpt lat="55.9451983" lon="49.2384433"><time>2023-06-03T10:17:45.323</time></trkpt><trkpt lat="55.9452283" lon="49.2385917"><time>2023-06-03T10:17:47.327</time></trkpt><trkpt lat="55.9452550" lon="49.2387417"><time>2023-06-03T10:17:49.310</time></trkpt><trkpt lat="55.9452667" lon="49.2388200"><time>2023-06-03T10:17:50.320</time></trkpt><trkpt lat="55.9452817" lon="49.2388983"><time>2023-06-03T10:17:51.320</time></trkpt><trkpt lat="55.9453050" lon="49.2390483"><time>2023-06-03T10:17:53.317</time></trkpt><trkpt lat="55.9453233" lon="49.2391367"><time>2023-06-03T10:17:54.323</time></trkpt><trkpt lat="55.9453433" lon="49.2392317"><time>2023-06-03T10:17:55.320</time></trkpt><trkpt lat="55.9453567" lon="49.2393183"><time>2023-06-03T10:17:56.327</time></trkpt><trkpt lat="55.9453733" lon="49.2394000"><time>2023-06-03T10:17:57.323</time></trkpt><trkpt lat="55.9453883" lon="49.2394767"><time>2023-06-03T10:17:58.320</time></trkpt><trkpt lat="55.9454033" lon="49.2395550"><time>2023-06-03T10:17:59.313</time></trkpt><trkpt lat="55.9454200" lon="49.2396300"><time>2023-06-03T10:18:00.307</time></trkpt><trkpt lat="55.9454383" lon="49.2397067"><time>2023-06-03T10:18:01.317</time></trkpt><trkpt lat="55.9454567" lon="49.2397800"><time>2023-06-03T10:18:02.320</time></trkpt><trkpt lat="55.9454750" lon="49.2398567"><time>2023-06-03T10:18:03.323</time></trkpt><trkpt lat="55.9454983" lon="49.2399350"><time>2023-06-03T10:18:04.320</time></trkpt><trkpt lat="55.9455267" lon="49.2400017"><time>2023-06-03T10:18:05.310</time></trkpt><trkpt lat="55.9455850" lon="49.2401067"><time>2023-06-03T10:18:07.323</time></trkpt><trkpt lat="55.9456200" lon="49.2401583"><time>2023-06-03T10:18:08.320</time></trkpt><trkpt lat="55.9456550" lon="49.2402133"><time>2023-06-03T10:18:09.320</time></trkpt><trkpt lat="55.9457217" lon="49.2403150"><time>2023-06-03T10:18:11.323</time></trkpt><trkpt lat="55.9457833" lon="49.2404233"><time>2023-06-03T10:18:13.320</time></trkpt><trkpt lat="55.9458417" lon="49.2405250"><time>2023-06-03T10:18:15.320</time></trkpt><trkpt lat="55.9459000" lon="49.2406283"><time>2023-06-03T10:18:17.317</time></trkpt><trkpt lat="55.9459667" lon="49.2407117"><time>2023-06-03T10:18:19.317</time></trkpt><trkpt lat="55.9460333" lon="49.2407867"><time>2023-06-03T10:18:21.320</time></trkpt><trkpt lat="55.9461000" lon="49.2408633"><time>2023-06-03T10:18:23.320</time></trkpt><trkpt lat="55.9461600" lon="49.2409483"><time>2023-06-03T10:18:25.317</time></trkpt><trkpt lat="55.9461717" lon="49.2410367"><time>2023-06-03T10:18:27.317</time></trkpt><trkpt lat="55.9461450" lon="49.2411150"><time>2023-06-03T10:18:29.320</time></trkpt><trkpt lat="55.9460933" lon="49.2412083"><time>2023-06-03T10:18:31.320</time></trkpt><trkpt lat="55.9460417" lon="49.2413017"><time>2023-06-03T10:18:33.320</time></trkpt><trkpt lat="55.9459983" lon="49.2414033"><time>2023-06-03T10:18:35.323</time></trkpt><trkpt lat="55.9459483" lon="49.2415117"><time>2023-06-03T10:18:37.317</time></trkpt><trkpt lat="55.9458983" lon="49.2416267"><time>2023-06-03T10:18:39.320</time></trkpt><trkpt lat="55.9458533" lon="49.2417233"><time>2023-06-03T10:18:41.323</time></trkpt><trkpt lat="55.9457883" lon="49.2418717"><time>2023-06-03T10:18:43.320</time></trkpt><trkpt lat="55.9457550" lon="49.2419400"><time>2023-06-03T10:18:44.323</time></trkpt><trkpt lat="55.9457267" lon="49.2420100"><time>2023-06-03T10:18:45.313</time></trkpt><trkpt lat="55.9456817" lon="49.2421400"><time>2023-06-03T10:18:47.320</time></trkpt><trkpt lat="55.9456417" lon="49.2422767"><time>2023-06-03T10:18:49.313</time></trkpt><trkpt lat="55.9456100" lon="49.2424133"><time>2023-06-03T10:18:51.317</time></trkpt><trkpt lat="55.9455933" lon="49.2424883"><time>2023-06-03T10:18:52.320</time></trkpt><trkpt lat="55.9455717" lon="49.2425700"><time>2023-06-03T10:18:53.317</time></trkpt><trkpt lat="55.9455500" lon="49.2426483"><time>2023-06-03T10:18:54.317</time></trkpt><trkpt lat="55.9455367" lon="49.2427250"><time>2023-06-03T10:18:55.320</time></trkpt><trkpt lat="55.9455117" lon="49.2428567"><time>2023-06-03T10:18:57.320</time></trkpt><trkpt lat="55.9454783" lon="49.2429933"><time>2023-06-03T10:18:59.320</time></trkpt><trkpt lat="55.9454633" lon="49.2430733"><time>2023-06-03T10:19:00.320</time></trkpt><trkpt lat="55.9454467" lon="49.2431533"><time>2023-06-03T10:19:01.320</time></trkpt><trkpt lat="55.9454317" lon="49.2432400"><time>2023-06-03T10:19:02.320</time></trkpt><trkpt lat="55.9454200" lon="49.2433317"><time>2023-06-03T10:19:03.320</time></trkpt><trkpt lat="55.9454100" lon="49.2434183"><time>2023-06-03T10:19:04.320</time></trkpt><trkpt lat="55.9453933" lon="49.2435117"><time>2023-06-03T10:19:05.320</time></trkpt><trkpt lat="55.9453750" lon="49.2436050"><time>2023-06-03T10:19:06.317</time></trkpt><trkpt lat="55.9453600" lon="49.2436933"><time>2023-06-03T10:19:07.317</time></trkpt><trkpt lat="55.9453483" lon="49.2437717"><time>2023-06-03T10:19:08.320</time></trkpt><trkpt lat="55.9453283" lon="49.2439417"><time>2023-06-03T10:19:10.320</time></trkpt><trkpt lat="55.9453167" lon="49.2440300"><time>2023-06-03T10:19:11.320</time></trkpt><trkpt lat="55.9453100" lon="49.2441250"><time>2023-06-03T10:19:12.320</time></trkpt><trkpt lat="55.9453050" lon="49.2442133"><time>2023-06-03T10:19:13.320</time></trkpt><trkpt lat="55.9453000" lon="49.2442933"><time>2023-06-03T10:19:14.320</time></trkpt><trkpt lat="55.9452800" lon="49.2444500"><time>2023-06-03T10:19:16.320</time></trkpt><trkpt lat="55.9452650" lon="49.2445717"><time>2023-06-03T10:19:18.320</time></trkpt><trkpt lat="55.9452650" lon="49.2447333"><time>2023-06-03T10:19:20.320</time></trkpt><trkpt lat="55.9452617" lon="49.2448250"><time>2023-06-03T10:19:21.317</time></trkpt><trkpt lat="55.9452600" lon="49.2449083"><time>2023-06-03T10:19:22.317</time></trkpt><trkpt lat="55.9452567" lon="49.2450683"><time>2023-06-03T10:19:24.317</time></trkpt><trkpt lat="55.9452550" lon="49.2452233"><time>2023-06-03T10:19:26.317</time></trkpt><trkpt lat="55.9452500" lon="49.2453200"><time>2023-06-03T10:19:27.320</time></trkpt><trkpt lat="55.9452433" lon="49.2454717"><time>2023-06-03T10:19:29.307</time></trkpt><trkpt lat="55.9452433" lon="49.2455533"><time>2023-06-03T10:19:30.307</time></trkpt><trkpt lat="55.9452400" lon="49.2456433"><time>2023-06-03T10:19:31.313</time></trkpt><trkpt lat="55.9452400" lon="49.2457300"><time>2023-06-03T10:19:32.317</time></trkpt><trkpt lat="55.9452400" lon="49.2458333"><time>2023-06-03T10:19:33.320</time></trkpt><trkpt lat="55.9452400" lon="49.2459200"><time>2023-06-03T10:19:34.317</time></trkpt><trkpt lat="55.9452333" lon="49.2460367"><time>2023-06-03T10:19:35.320</time></trkpt><trkpt lat="55.9452183" lon="49.2461250"><time>2023-06-03T10:19:36.320</time></trkpt><trkpt lat="55.9452017" lon="49.2462767"><time>2023-06-03T10:19:38.317</time></trkpt><trkpt lat="55.9451933" lon="49.2463567"><time>2023-06-03T10:19:39.300</time></trkpt><trkpt lat="55.9452017" lon="49.2464983"><time>2023-06-03T10:19:40.303</time></trkpt><trkpt lat="55.9451900" lon="49.2466617"><time>2023-06-03T10:19:42.317</time></trkpt><trkpt lat="55.9451917" lon="49.2467667"><time>2023-06-03T10:19:43.320</time></trkpt><trkpt lat="55.9451917" lon="49.2468750"><time>2023-06-03T10:19:44.323</time></trkpt><trkpt lat="55.9451933" lon="49.2469600"><time>2023-06-03T10:19:45.323</time></trkpt><trkpt lat="55.9451933" lon="49.2471250"><time>2023-06-03T10:19:47.317</time></trkpt><trkpt lat="55.9451883" lon="49.2472133"><time>2023-06-03T10:19:48.320</time></trkpt><trkpt lat="55.9451783" lon="49.2473050"><time>2023-06-03T10:19:49.323</time></trkpt><trkpt lat="55.9451733" lon="49.2473967"><time>2023-06-03T10:19:50.320</time></trkpt><trkpt lat="55.9451633" lon="49.2475017"><time>2023-06-03T10:19:51.323</time></trkpt><trkpt lat="55.9451633" lon="49.2476067"><time>2023-06-03T10:19:52.317</time></trkpt><trkpt lat="55.9451583" lon="49.2477000"><time>2023-06-03T10:19:53.320</time></trkpt><trkpt lat="55.9451550" lon="49.2478000"><time>2023-06-03T10:19:54.320</time></trkpt><trkpt lat="55.9451517" lon="49.2479067"><time>2023-06-03T10:19:55.320</time></trkpt><trkpt lat="55.9451483" lon="49.2480067"><time>2023-06-03T10:19:56.320</time></trkpt><trkpt lat="55.9451467" lon="49.2481067"><time>2023-06-03T10:19:57.310</time></trkpt><trkpt lat="55.9451367" lon="49.2482783"><time>2023-06-03T10:19:59.323</time></trkpt><trkpt lat="55.9451333" lon="49.2483750"><time>2023-06-03T10:20:00.320</time></trkpt><trkpt lat="55.9451283" lon="49.2484650"><time>2023-06-03T10:20:01.323</time></trkpt><trkpt lat="55.9451200" lon="49.2485567"><time>2023-06-03T10:20:02.323</time></trkpt><trkpt lat="55.9451183" lon="49.2486600"><time>2023-06-03T10:20:03.320</time></trkpt><trkpt lat="55.9451183" lon="49.2487567"><time>2023-06-03T10:20:04.323</time></trkpt><trkpt lat="55.9451117" lon="49.2488633"><time>2023-06-03T10:20:05.320</time></trkpt><trkpt lat="55.9451083" lon="49.2489600"><time>2023-06-03T10:20:06.320</time></trkpt><trkpt lat="55.9451083" lon="49.2490567"><time>2023-06-03T10:20:07.323</time></trkpt><trkpt lat="55.9451050" lon="49.2491600"><time>2023-06-03T10:20:08.320</time></trkpt><trkpt lat="55.9450983" lon="49.2492583"><time>2023-06-03T10:20:09.323</time></trkpt><trkpt lat="55.9450917" lon="49.2493617"><time>2023-06-03T10:20:10.300</time></trkpt><trkpt lat="55.9450900" lon="49.2494683"><time>2023-06-03T10:20:11.320</time></trkpt><trkpt lat="55.9450850" lon="49.2495767"><time>2023-06-03T10:20:12.320</time></trkpt><trkpt lat="55.9450800" lon="49.2496883"><time>2023-06-03T10:20:13.323</time></trkpt><trkpt lat="55.9450783" lon="49.2497983"><time>2023-06-03T10:20:14.320</time></trkpt><trkpt lat="55.9450717" lon="49.2499000"><time>2023-06-03T10:20:15.320</time></trkpt><trkpt lat="55.9450700" lon="49.2500050"><time>2023-06-03T10:20:16.293</time></trkpt><trkpt lat="55.9450683" lon="49.2501183"><time>2023-06-03T10:20:17.307</time></trkpt><trkpt lat="55.9450750" lon="49.2502267"><time>2023-06-03T10:20:18.297</time></trkpt><trkpt lat="55.9450800" lon="49.2503417"><time>2023-06-03T10:20:19.290</time></trkpt><trkpt lat="55.9450800" lon="49.2504500"><time>2023-06-03T10:20:20.313</time></trkpt><trkpt lat="55.9450733" lon="49.2505550"><time>2023-06-03T10:20:21.323</time></trkpt><trkpt lat="55.9450650" lon="49.2506650"><time>2023-06-03T10:20:22.317</time></trkpt><trkpt lat="55.9450633" lon="49.2507700"><time>2023-06-03T10:20:23.320</time></trkpt><trkpt lat="55.9450600" lon="49.2508717"><time>2023-06-03T10:20:24.320</time></trkpt><trkpt lat="55.9450617" lon="49.2509783"><time>2023-06-03T10:20:25.320</time></trkpt><trkpt lat="55.9450650" lon="49.2511017"><time>2023-06-03T10:20:26.327</time></trkpt><trkpt lat="55.9450567" lon="49.2512067"><time>2023-06-03T10:20:27.323</time></trkpt><trkpt lat="55.9450533" lon="49.2513233"><time>2023-06-03T10:20:28.303</time></trkpt><trkpt lat="55.9450567" lon="49.2514150"><time>2023-06-03T10:20:29.320</time></trkpt><trkpt lat="55.9450567" lon="49.2515083"><time>2023-06-03T10:20:30.323</time></trkpt><trkpt lat="55.9450583" lon="49.2516067"><time>2023-06-03T10:20:31.307</time></trkpt><trkpt lat="55.9450617" lon="49.2517117"><time>2023-06-03T10:20:32.320</time></trkpt><trkpt lat="55.9450567" lon="49.2518250"><time>2023-06-03T10:20:33.320</time></trkpt><trkpt lat="55.9450567" lon="49.2519317"><time>2023-06-03T10:20:34.283</time></trkpt><trkpt lat="55.9450500" lon="49.2520400"><time>2023-06-03T10:20:35.307</time></trkpt><trkpt lat="55.9450467" lon="49.2521467"><time>2023-06-03T10:20:36.317</time></trkpt><trkpt lat="55.9450467" lon="49.2522517"><time>2023-06-03T10:20:37.317</time></trkpt><trkpt lat="55.9450517" lon="49.2523583"><time>2023-06-03T10:20:38.320</time></trkpt><trkpt lat="55.9450400" lon="49.2524783"><time>2023-06-03T10:20:39.317</time></trkpt><trkpt lat="55.9450300" lon="49.2526000"><time>2023-06-03T10:20:40.327</time></trkpt><trkpt lat="55.9450233" lon="49.2527033"><time>2023-06-03T10:20:41.323</time></trkpt><trkpt lat="55.9450150" lon="49.2527867"><time>2023-06-03T10:20:42.323</time></trkpt><trkpt lat="55.9450067" lon="49.2528667"><time>2023-06-03T10:20:43.323</time></trkpt><trkpt lat="55.9450067" lon="49.2529617"><time>2023-06-03T10:20:44.283</time></trkpt><trkpt lat="55.9450133" lon="49.2530600"><time>2023-06-03T10:20:45.283</time></trkpt><trkpt lat="55.9450117" lon="49.2531600"><time>2023-06-03T10:20:46.290</time></trkpt><trkpt lat="55.9450017" lon="49.2532583"><time>2023-06-03T10:20:47.283</time></trkpt><trkpt lat="55.9449983" lon="49.2533600"><time>2023-06-03T10:20:48.290</time></trkpt><trkpt lat="55.9449950" lon="49.2534433"><time>2023-06-03T10:20:49.310</time></trkpt><trkpt lat="55.9449883" lon="49.2535317"><time>2023-06-03T10:20:50.323</time></trkpt><trkpt lat="55.9449750" lon="49.2536150"><time>2023-06-03T10:20:51.323</time></trkpt><trkpt lat="55.9449700" lon="49.2536967"><time>2023-06-03T10:20:52.310</time></trkpt><trkpt lat="55.9449717" lon="49.2537850"><time>2023-06-03T10:20:53.307</time></trkpt><trkpt lat="55.9449733" lon="49.2538817"><time>2023-06-03T10:20:54.317</time></trkpt><trkpt lat="55.9449633" lon="49.2539667"><time>2023-06-03T10:20:55.320</time></trkpt><trkpt lat="55.9449500" lon="49.2540467"><time>2023-06-03T10:20:56.327</time></trkpt><trkpt lat="55.9449433" lon="49.2541400"><time>2023-06-03T10:20:57.320</time></trkpt><trkpt lat="55.9449467" lon="49.2542300"><time>2023-06-03T10:20:58.307</time></trkpt><trkpt lat="55.9449483" lon="49.2543200"><time>2023-06-03T10:20:59.320</time></trkpt><trkpt lat="55.9449483" lon="49.2544133"><time>2023-06-03T10:21:00.323</time></trkpt><trkpt lat="55.9449467" lon="49.2545083"><time>2023-06-03T10:21:01.293</time></trkpt><trkpt lat="55.9449417" lon="49.2546117"><time>2023-06-03T10:21:02.307</time></trkpt><trkpt lat="55.9449433" lon="49.2547117"><time>2023-06-03T10:21:03.310</time></trkpt><trkpt lat="55.9449400" lon="49.2548133"><time>2023-06-03T10:21:04.300</time></trkpt><trkpt lat="55.9449350" lon="49.2549283"><time>2023-06-03T10:21:05.307</time></trkpt><trkpt lat="55.9449300" lon="49.2550217"><time>2023-06-03T10:21:06.293</time></trkpt><trkpt lat="55.9449167" lon="49.2551033"><time>2023-06-03T10:21:07.317</time></trkpt><trkpt lat="55.9449083" lon="49.2551917"><time>2023-06-03T10:21:08.317</time></trkpt><trkpt lat="55.9449017" lon="49.2552817"><time>2023-06-03T10:21:09.320</time></trkpt><trkpt lat="55.9449033" lon="49.2553667"><time>2023-06-03T10:21:10.320</time></trkpt><trkpt lat="55.9449050" lon="49.2554483"><time>2023-06-03T10:21:11.320</time></trkpt><trkpt lat="55.9448983" lon="49.2555300"><time>2023-06-03T10:21:12.320</time></trkpt><trkpt lat="55.9448950" lon="49.2556117"><time>2023-06-03T10:21:13.323</time></trkpt><trkpt lat="55.9448717" lon="49.2557550"><time>2023-06-03T10:21:15.323</time></trkpt><trkpt lat="55.9448350" lon="49.2558283"><time>2023-06-03T10:21:16.313</time></trkpt><trkpt lat="55.9447967" lon="49.2558983"><time>2023-06-03T10:21:17.317</time></trkpt><trkpt lat="55.9447600" lon="49.2559550"><time>2023-06-03T10:21:18.307</time></trkpt><trkpt lat="55.9446983" lon="49.2560267"><time>2023-06-03T10:21:20.313</time></trkpt><trkpt lat="55.9446350" lon="49.2560783"><time>2023-06-03T10:21:22.320</time></trkpt><trkpt lat="55.9445767" lon="49.2561350"><time>2023-06-03T10:21:24.320</time></trkpt><trkpt lat="55.9445067" lon="49.2562200"><time>2023-06-03T10:21:26.320</time></trkpt><trkpt lat="55.9444383" lon="49.2563100"><time>2023-06-03T10:21:28.320</time></trkpt><trkpt lat="55.9443800" lon="49.2564067"><time>2023-06-03T10:21:30.323</time></trkpt><trkpt lat="55.9443133" lon="49.2565050"><time>2023-06-03T10:21:32.320</time></trkpt><trkpt lat="55.9442533" lon="49.2566033"><time>2023-06-03T10:21:34.320</time></trkpt><trkpt lat="55.9441833" lon="49.2566933"><time>2023-06-03T10:21:36.323</time></trkpt><trkpt lat="55.9441133" lon="49.2567833"><time>2023-06-03T10:21:38.320</time></trkpt><trkpt lat="55.9440400" lon="49.2568667"><time>2023-06-03T10:21:40.320</time></trkpt><trkpt lat="55.9439817" lon="49.2569683"><time>2023-06-03T10:21:42.323</time></trkpt><trkpt lat="55.9439133" lon="49.2570650"><time>2023-06-03T10:21:44.320</time></trkpt><trkpt lat="55.9438483" lon="49.2571400"><time>2023-06-03T10:21:46.300</time></trkpt><trkpt lat="55.9437717" lon="49.2572183"><time>2023-06-03T10:21:48.317</time></trkpt><trkpt lat="55.9436967" lon="49.2572900"><time>2023-06-03T10:21:50.320</time></trkpt><trkpt lat="55.9436217" lon="49.2573467"><time>2023-06-03T10:21:52.323</time></trkpt><trkpt lat="55.9435383" lon="49.2573883"><time>2023-06-03T10:21:54.323</time></trkpt><trkpt lat="55.9434900" lon="49.2573817"><time>2023-06-03T10:21:55.330</time></trkpt><trkpt lat="55.9434400" lon="49.2573817"><time>2023-06-03T10:21:56.320</time></trkpt><trkpt lat="55.9433933" lon="49.2573850"><time>2023-06-03T10:21:57.317</time></trkpt><trkpt lat="55.9433450" lon="49.2573833"><time>2023-06-03T10:21:58.320</time></trkpt><trkpt lat="55.9432633" lon="49.2573417"><time>2023-06-03T10:22:00.320</time></trkpt><trkpt lat="55.9431833" lon="49.2572850"><time>2023-06-03T10:22:02.310</time></trkpt><trkpt lat="55.9430983" lon="49.2572583"><time>2023-06-03T10:22:04.320</time></trkpt><trkpt lat="55.9430517" lon="49.2572433"><time>2023-06-03T10:22:05.320</time></trkpt><trkpt lat="55.9429750" lon="49.2572067"><time>2023-06-03T10:22:07.323</time></trkpt><trkpt lat="55.9428983" lon="49.2571967"><time>2023-06-03T10:22:09.317</time></trkpt><trkpt lat="55.9428383" lon="49.2571733"><time>2023-06-03T10:22:11.320</time></trkpt><trkpt lat="55.9427883" lon="49.2571567"><time>2023-06-03T10:22:13.320</time></trkpt><trkpt lat="55.9427350" lon="49.2571700"><time>2023-06-03T10:22:15.323</time></trkpt><trkpt lat="55.9426617" lon="49.2571983"><time>2023-06-03T10:22:34.323</time></trkpt><trkpt lat="55.9426167" lon="49.2572217"><time>2023-06-03T10:22:36.323</time></trkpt><trkpt lat="55.9425450" lon="49.2572467"><time>2023-06-03T10:22:38.320</time></trkpt><trkpt lat="55.9424717" lon="49.2572833"><time>2023-06-03T10:22:40.317</time></trkpt><trkpt lat="55.9424000" lon="49.2573250"><time>2023-06-03T10:22:42.320</time></trkpt><trkpt lat="55.9423317" lon="49.2573767"><time>2023-06-03T10:22:44.320</time></trkpt><trkpt lat="55.9422567" lon="49.2574283"><time>2023-06-03T10:22:46.307</time></trkpt><trkpt lat="55.9421900" lon="49.2574933"><time>2023-06-03T10:22:48.320</time></trkpt><trkpt lat="55.9421167" lon="49.2575750"><time>2023-06-03T10:22:50.323</time></trkpt><trkpt lat="55.9420483" lon="49.2576350"><time>2023-06-03T10:22:52.320</time></trkpt><trkpt lat="55.9419783" lon="49.2577017"><time>2023-06-03T10:22:54.323</time></trkpt><trkpt lat="55.9419133" lon="49.2577900"><time>2023-06-03T10:22:56.320</time></trkpt><trkpt lat="55.9418750" lon="49.2578683"><time>2023-06-03T10:22:57.317</time></trkpt><trkpt lat="55.9418383" lon="49.2579383"><time>2023-06-03T10:22:58.320</time></trkpt><trkpt lat="55.9417650" lon="49.2580417"><time>2023-06-03T10:23:00.320</time></trkpt><trkpt lat="55.9417317" lon="49.2581000"><time>2023-06-03T10:23:01.300</time></trkpt><trkpt lat="55.9416917" lon="49.2581650"><time>2023-06-03T10:23:02.320</time></trkpt><trkpt lat="55.9416317" lon="49.2582883"><time>2023-06-03T10:23:04.320</time></trkpt><trkpt lat="55.9415733" lon="49.2583950"><time>2023-06-03T10:23:06.317</time></trkpt><trkpt lat="55.9415383" lon="49.2584583"><time>2023-06-03T10:23:07.323</time></trkpt><trkpt lat="55.9414833" lon="49.2585583"><time>2023-06-03T10:23:09.323</time></trkpt><trkpt lat="55.9414250" lon="49.2586350"><time>2023-06-03T10:23:11.320</time></trkpt><trkpt lat="55.9413583" lon="49.2587217"><time>2023-06-03T10:23:13.320</time></trkpt><trkpt lat="55.9412950" lon="49.2588183"><time>2023-06-03T10:23:15.320</time></trkpt><trkpt lat="55.9412250" lon="49.2589117"><time>2023-06-03T10:23:17.320</time></trkpt><trkpt lat="55.9411517" lon="49.2590117"><time>2023-06-03T10:23:19.320</time></trkpt><trkpt lat="55.9411150" lon="49.2590617"><time>2023-06-03T10:23:20.320</time></trkpt><trkpt lat="55.9410750" lon="49.2591100"><time>2023-06-03T10:23:21.313</time></trkpt><trkpt lat="55.9410350" lon="49.2591617"><time>2023-06-03T10:23:22.313</time></trkpt><trkpt lat="55.9409917" lon="49.2592150"><time>2023-06-03T10:23:23.320</time></trkpt><trkpt lat="55.9409483" lon="49.2592550"><time>2023-06-03T10:23:24.313</time></trkpt><trkpt lat="55.9409033" lon="49.2592900"><time>2023-06-03T10:23:25.320</time></trkpt><trkpt lat="55.9408600" lon="49.2593317"><time>2023-06-03T10:23:26.320</time></trkpt><trkpt lat="55.9408167" lon="49.2593717"><time>2023-06-03T10:23:27.323</time></trkpt><trkpt lat="55.9407750" lon="49.2594100"><time>2023-06-03T10:23:28.320</time></trkpt><trkpt lat="55.9407300" lon="49.2594383"><time>2023-06-03T10:23:29.300</time></trkpt><trkpt lat="55.9406517" lon="49.2594483"><time>2023-06-03T10:23:31.317</time></trkpt><trkpt lat="55.9405750" lon="49.2594133"><time>2023-06-03T10:23:33.317</time></trkpt><trkpt lat="55.9404900" lon="49.2593833"><time>2023-06-03T10:23:35.320</time></trkpt><trkpt lat="55.9404250" lon="49.2593567"><time>2023-06-03T10:23:37.320</time></trkpt><trkpt lat="55.9403633" lon="49.2593300"><time>2023-06-03T10:23:39.323</time></trkpt><trkpt lat="55.9403017" lon="49.2592733"><time>2023-06-03T10:23:41.320</time></trkpt><trkpt lat="55.9402617" lon="49.2591933"><time>2023-06-03T10:23:43.320</time></trkpt><trkpt lat="55.9402750" lon="49.2590533"><time>2023-06-03T10:23:45.320</time></trkpt><trkpt lat="55.9402867" lon="49.2589117"><time>2023-06-03T10:23:47.320</time></trkpt><trkpt lat="55.9403033" lon="49.2587650"><time>2023-06-03T10:23:49.320</time></trkpt><trkpt lat="55.9403250" lon="49.2586217"><time>2023-06-03T10:23:51.317</time></trkpt><trkpt lat="55.9403333" lon="49.2584683"><time>2023-06-03T10:23:53.317</time></trkpt><trkpt lat="55.9403367" lon="49.2583167"><time>2023-06-03T10:23:55.320</time></trkpt><trkpt lat="55.9403450" lon="49.2582367"><time>2023-06-03T10:23:56.320</time></trkpt><trkpt lat="55.9403567" lon="49.2581533"><time>2023-06-03T10:23:57.317</time></trkpt><trkpt lat="55.9403633" lon="49.2580717"><time>2023-06-03T10:23:58.317</time></trkpt><trkpt lat="55.9403800" lon="49.2579133"><time>2023-06-03T10:24:00.320</time></trkpt><trkpt lat="55.9403900" lon="49.2578333"><time>2023-06-03T10:24:01.320</time></trkpt><trkpt lat="55.9403933" lon="49.2577500"><time>2023-06-03T10:24:02.320</time></trkpt><trkpt lat="55.9404033" lon="49.2576650"><time>2023-06-03T10:24:03.317</time></trkpt><trkpt lat="55.9404117" lon="49.2575767"><time>2023-06-03T10:24:04.320</time></trkpt><trkpt lat="55.9404233" lon="49.2574900"><time>2023-06-03T10:24:05.320</time></trkpt><trkpt lat="55.9404300" lon="49.2574033"><time>2023-06-03T10:24:06.317</time></trkpt><trkpt lat="55.9404417" lon="49.2572467"><time>2023-06-03T10:24:08.317</time></trkpt><trkpt lat="55.9404533" lon="49.2571683"><time>2023-06-03T10:24:09.317</time></trkpt><trkpt lat="55.9404600" lon="49.2570817"><time>2023-06-03T10:24:10.317</time></trkpt><trkpt lat="55.9404650" lon="49.2569983"><time>2023-06-03T10:24:11.320</time></trkpt><trkpt lat="55.9404650" lon="49.2569083"><time>2023-06-03T10:24:12.317</time></trkpt><trkpt lat="55.9404700" lon="49.2567483"><time>2023-06-03T10:24:14.320</time></trkpt><trkpt lat="55.9404917" lon="49.2566017"><time>2023-06-03T10:24:16.320</time></trkpt><trkpt lat="55.9405017" lon="49.2564517"><time>2023-06-03T10:24:18.317</time></trkpt><trkpt lat="55.9405133" lon="49.2563733"><time>2023-06-03T10:24:19.317</time></trkpt><trkpt lat="55.9405300" lon="49.2562233"><time>2023-06-03T10:24:21.317</time></trkpt><trkpt lat="55.9405400" lon="49.2560750"><time>2023-06-03T10:24:23.317</time></trkpt><trkpt lat="55.9405467" lon="49.2559333"><time>2023-06-03T10:24:25.320</time></trkpt><trkpt lat="55.9405583" lon="49.2558133"><time>2023-06-03T10:24:27.320</time></trkpt><trkpt lat="55.9405783" lon="49.2557033"><time>2023-06-03T10:24:29.320</time></trkpt><trkpt lat="55.9406033" lon="49.2555933"><time>2023-06-03T10:24:31.317</time></trkpt><trkpt lat="55.9406583" lon="49.2555233"><time>2023-06-03T10:24:33.317</time></trkpt><trkpt lat="55.9407367" lon="49.2555133"><time>2023-06-03T10:24:35.317</time></trkpt><trkpt lat="55.9407900" lon="49.2555167"><time>2023-06-03T10:24:37.317</time></trkpt><trkpt lat="55.9408500" lon="49.2555500"><time>2023-06-03T10:24:39.313</time></trkpt><trkpt lat="55.9409217" lon="49.2555867"><time>2023-06-03T10:24:41.320</time></trkpt><trkpt lat="55.9409917" lon="49.2556317"><time>2023-06-03T10:24:43.320</time></trkpt><trkpt lat="55.9410667" lon="49.2556667"><time>2023-06-03T10:24:45.317</time></trkpt><trkpt lat="55.9411150" lon="49.2556817"><time>2023-06-03T10:24:46.313</time></trkpt><trkpt lat="55.9411617" lon="49.2556900"><time>2023-06-03T10:24:47.317</time></trkpt><trkpt lat="55.9412517" lon="49.2556800"><time>2023-06-03T10:24:49.317</time></trkpt><trkpt lat="55.9413367" lon="49.2556850"><time>2023-06-03T10:24:51.320</time></trkpt><trkpt lat="55.9414133" lon="49.2556933"><time>2023-06-03T10:24:53.317</time></trkpt><trkpt lat="55.9414917" lon="49.2557167"><time>2023-06-03T10:24:55.313</time></trkpt><trkpt lat="55.9415383" lon="49.2557117"><time>2023-06-03T10:24:56.287</time></trkpt><trkpt lat="55.9416250" lon="49.2556750"><time>2023-06-03T10:24:58.323</time></trkpt><trkpt lat="55.9416983" lon="49.2555983"><time>2023-06-03T10:25:00.323</time></trkpt><trkpt lat="55.9417333" lon="49.2554783"><time>2023-06-03T10:25:02.283</time></trkpt><trkpt lat="55.9417417" lon="49.2553183"><time>2023-06-03T10:25:04.320</time></trkpt><trkpt lat="55.9417400" lon="49.2552333"><time>2023-06-03T10:25:05.320</time></trkpt><trkpt lat="55.9417400" lon="49.2551483"><time>2023-06-03T10:25:06.317</time></trkpt><trkpt lat="55.9417533" lon="49.2550050"><time>2023-06-03T10:25:08.317</time></trkpt><trkpt lat="55.9417850" lon="49.2548700"><time>2023-06-03T10:25:10.317</time></trkpt><trkpt lat="55.9418000" lon="49.2547333"><time>2023-06-03T10:25:12.320</time></trkpt><trkpt lat="55.9418200" lon="49.2545950"><time>2023-06-03T10:25:14.323</time></trkpt><trkpt lat="55.9418300" lon="49.2545133"><time>2023-06-03T10:25:15.320</time></trkpt><trkpt lat="55.9418367" lon="49.2544217"><time>2023-06-03T10:25:16.317</time></trkpt><trkpt lat="55.9418350" lon="49.2543400"><time>2023-06-03T10:25:17.320</time></trkpt><trkpt lat="55.9418317" lon="49.2541883"><time>2023-06-03T10:25:19.320</time></trkpt><trkpt lat="55.9418400" lon="49.2540300"><time>2023-06-03T10:25:21.307</time></trkpt><trkpt lat="55.9418367" lon="49.2539433"><time>2023-06-03T10:25:22.307</time></trkpt><trkpt lat="55.9418333" lon="49.2538567"><time>2023-06-03T10:25:23.313</time></trkpt><trkpt lat="55.9418317" lon="49.2537733"><time>2023-06-03T10:25:24.307</time></trkpt><trkpt lat="55.9418267" lon="49.2536900"><time>2023-06-03T10:25:25.310</time></trkpt><trkpt lat="55.9418317" lon="49.2536067"><time>2023-06-03T10:25:26.317</time></trkpt><trkpt lat="55.9418517" lon="49.2534567"><time>2023-06-03T10:25:28.320</time></trkpt><trkpt lat="55.9418583" lon="49.2533117"><time>2023-06-03T10:25:30.317</time></trkpt><trkpt lat="55.9418617" lon="49.2532283"><time>2023-06-03T10:25:31.317</time></trkpt><trkpt lat="55.9418683" lon="49.2531433"><time>2023-06-03T10:25:32.323</time></trkpt><trkpt lat="55.9418683" lon="49.2530617"><time>2023-06-03T10:25:33.313</time></trkpt><trkpt lat="55.9418517" lon="49.2529400"><time>2023-06-03T10:25:35.317</time></trkpt><trkpt lat="55.9418417" lon="49.2528283"><time>2023-06-03T10:25:37.320</time></trkpt><trkpt lat="55.9418200" lon="49.2527467"><time>2023-06-03T10:25:39.323</time></trkpt><trkpt lat="55.9417617" lon="49.2526767"><time>2023-06-03T10:25:41.320</time></trkpt><trkpt lat="55.9416967" lon="49.2526117"><time>2023-06-03T10:25:43.310</time></trkpt><trkpt lat="55.9416283" lon="49.2525983"><time>2023-06-03T10:25:45.320</time></trkpt><trkpt lat="55.9415750" lon="49.2525333"><time>2023-06-03T10:25:47.323</time></trkpt><trkpt lat="55.9415600" lon="49.2524083"><time>2023-06-03T10:25:49.323</time></trkpt><trkpt lat="55.9415917" lon="49.2522817"><time>2023-06-03T10:25:51.323</time></trkpt><trkpt lat="55.9416250" lon="49.2521367"><time>2023-06-03T10:25:53.320</time></trkpt><trkpt lat="55.9416483" lon="49.2520667"><time>2023-06-03T10:25:54.323</time></trkpt><trkpt lat="55.9416667" lon="49.2519917"><time>2023-06-03T10:25:55.320</time></trkpt><trkpt lat="55.9416750" lon="49.2519067"><time>2023-06-03T10:25:56.317</time></trkpt><trkpt lat="55.9416883" lon="49.2517567"><time>2023-06-03T10:25:58.320</time></trkpt><trkpt lat="55.9417067" lon="49.2516483"><time>2023-06-03T10:26:00.320</time></trkpt><trkpt lat="55.9417200" lon="49.2515417"><time>2023-06-03T10:26:02.317</time></trkpt><trkpt lat="55.9417350" lon="49.2514200"><time>2023-06-03T10:26:04.317</time></trkpt><trkpt lat="55.9417383" lon="49.2513050"><time>2023-06-03T10:26:06.320</time></trkpt><trkpt lat="55.9417300" lon="49.2511700"><time>2023-06-03T10:26:08.320</time></trkpt><trkpt lat="55.9417217" lon="49.2510250"><time>2023-06-03T10:26:10.317</time></trkpt><trkpt lat="55.9417100" lon="49.2509017"><time>2023-06-03T10:26:12.320</time></trkpt><trkpt lat="55.9416967" lon="49.2507850"><time>2023-06-03T10:26:14.327</time></trkpt><trkpt lat="55.9416817" lon="49.2506717"><time>2023-06-03T10:26:16.313</time></trkpt><trkpt lat="55.9416567" lon="49.2505550"><time>2023-06-03T10:26:18.320</time></trkpt><trkpt lat="55.9416250" lon="49.2504233"><time>2023-06-03T10:26:20.320</time></trkpt><trkpt lat="55.9416117" lon="49.2502900"><time>2023-06-03T10:26:22.317</time></trkpt><trkpt lat="55.9415883" lon="49.2501617"><time>2023-06-03T10:26:24.320</time></trkpt><trkpt lat="55.9415533" lon="49.2500350"><time>2023-06-03T10:26:26.320</time></trkpt><trkpt lat="55.9415150" lon="49.2499183"><time>2023-06-03T10:26:28.317</time></trkpt><trkpt lat="55.9414867" lon="49.2498333"><time>2023-06-03T10:26:30.320</time></trkpt><trkpt lat="55.9414517" lon="49.2497500"><time>2023-06-03T10:26:32.320</time></trkpt><trkpt lat="55.9414067" lon="49.2496750"><time>2023-06-03T10:26:34.320</time></trkpt><trkpt lat="55.9413650" lon="49.2496067"><time>2023-06-03T10:26:36.320</time></trkpt><trkpt lat="55.9413200" lon="49.2495350"><time>2023-06-03T10:26:38.317</time></trkpt><trkpt lat="55.9412650" lon="49.2494300"><time>2023-06-03T10:26:40.307</time></trkpt><trkpt lat="55.9412183" lon="49.2493400"><time>2023-06-03T10:26:42.317</time></trkpt><trkpt lat="55.9411650" lon="49.2492750"><time>2023-06-03T10:26:44.313</time></trkpt><trkpt lat="55.9411117" lon="49.2492017"><time>2023-06-03T10:26:46.317</time></trkpt><trkpt lat="55.9410633" lon="49.2491333"><time>2023-06-03T10:26:48.320</time></trkpt><trkpt lat="55.9410083" lon="49.2490733"><time>2023-06-03T10:26:51.317</time></trkpt><trkpt lat="55.9409600" lon="49.2490300"><time>2023-06-03T10:26:54.323</time></trkpt><trkpt lat="55.9408750" lon="49.2489800"><time>2023-06-03T10:27:16.327</time></trkpt><trkpt lat="55.9408250" lon="49.2489517"><time>2023-06-03T10:27:18.323</time></trkpt><trkpt lat="55.9407783" lon="49.2489100"><time>2023-06-03T10:27:20.307</time></trkpt><trkpt lat="55.9407267" lon="49.2488550"><time>2023-06-03T10:27:22.320</time></trkpt><trkpt lat="55.9406717" lon="49.2488050"><time>2023-06-03T10:27:24.317</time></trkpt><trkpt lat="55.9406017" lon="49.2487467"><time>2023-06-03T10:27:26.323</time></trkpt><trkpt lat="55.9405300" lon="49.2486983"><time>2023-06-03T10:27:28.323</time></trkpt><trkpt lat="55.9404517" lon="49.2486383"><time>2023-06-03T10:27:30.310</time></trkpt><trkpt lat="55.9404083" lon="49.2486067"><time>2023-06-03T10:27:31.317</time></trkpt><trkpt lat="55.9403433" lon="49.2485500"><time>2023-06-03T10:27:33.297</time></trkpt><trkpt lat="55.9402883" lon="49.2484867"><time>2023-06-03T10:27:35.313</time></trkpt><trkpt lat="55.9402333" lon="49.2483833"><time>2023-06-03T10:27:37.320</time></trkpt><trkpt lat="55.9401933" lon="49.2482733"><time>2023-06-03T10:27:39.323</time></trkpt><trkpt lat="55.9401367" lon="49.2482017"><time>2023-06-03T10:27:41.320</time></trkpt><trkpt lat="55.9400717" lon="49.2481417"><time>2023-06-03T10:27:43.323</time></trkpt><trkpt lat="55.9400350" lon="49.2480350"><time>2023-06-03T10:27:45.323</time></trkpt><trkpt lat="55.9400467" lon="49.2479250"><time>2023-06-03T10:27:47.300</time></trkpt><trkpt lat="55.9400833" lon="49.2478517"><time>2023-06-03T10:27:49.320</time></trkpt><trkpt lat="55.9401250" lon="49.2477667"><time>2023-06-03T10:27:51.323</time></trkpt><trkpt lat="55.9401650" lon="49.2476800"><time>2023-06-03T10:27:53.307</time></trkpt><trkpt lat="55.9402067" lon="49.2475883"><time>2023-06-03T10:27:55.320</time></trkpt><trkpt lat="55.9402550" lon="49.2474800"><time>2023-06-03T10:27:57.323</time></trkpt><trkpt lat="55.9402983" lon="49.2474050"><time>2023-06-03T10:27:59.323</time></trkpt><trkpt lat="55.9403500" lon="49.2473483"><time>2023-06-03T10:28:01.320</time></trkpt><trkpt lat="55.9403967" lon="49.2472883"><time>2023-06-03T10:28:03.317</time></trkpt><trkpt lat="55.9404400" lon="49.2472450"><time>2023-06-03T10:28:05.317</time></trkpt><trkpt lat="55.9404900" lon="49.2471967"><time>2023-06-03T10:28:07.317</time></trkpt><trkpt lat="55.9405300" lon="49.2471400"><time>2023-06-03T10:28:09.317</time></trkpt><trkpt lat="55.9405600" lon="49.2470600"><time>2023-06-03T10:28:11.317</time></trkpt><trkpt lat="55.9405983" lon="49.2469767"><time>2023-06-03T10:28:13.317</time></trkpt><trkpt lat="55.9406467" lon="49.2468950"><time>2023-06-03T10:28:15.317</time></trkpt><trkpt lat="55.9406933" lon="49.2468217"><time>2023-06-03T10:28:17.317</time></trkpt><trkpt lat="55.9407483" lon="49.2467583"><time>2023-06-03T10:28:19.317</time></trkpt><trkpt lat="55.9408100" lon="49.2466917"><time>2023-06-03T10:28:21.297</time></trkpt><trkpt lat="55.9408817" lon="49.2466367"><time>2023-06-03T10:28:23.317</time></trkpt><trkpt lat="55.9409517" lon="49.2466000"><time>2023-06-03T10:28:25.323</time></trkpt><trkpt lat="55.9410250" lon="49.2465683"><time>2023-06-03T10:28:27.323</time></trkpt><trkpt lat="55.9410950" lon="49.2465100"><time>2023-06-03T10:28:29.317</time></trkpt><trkpt lat="55.9411683" lon="49.2464317"><time>2023-06-03T10:28:31.320</time></trkpt><trkpt lat="55.9412350" lon="49.2463750"><time>2023-06-03T10:28:33.320</time></trkpt><trkpt lat="55.9412833" lon="49.2463417"><time>2023-06-03T10:28:35.323</time></trkpt><trkpt lat="55.9413333" lon="49.2463050"><time>2023-06-03T10:28:38.320</time></trkpt><trkpt lat="55.9413817" lon="49.2462467"><time>2023-06-03T10:28:41.317</time></trkpt><trkpt lat="55.9414283" lon="49.2461917"><time>2023-06-03T10:28:43.337</time></trkpt><trkpt lat="55.9414483" lon="49.2456383"><time>2023-06-03T10:28:45.330</time></trkpt><trkpt lat="55.9415383" lon="49.2458750"><time>2023-06-03T10:28:45.803</time></trkpt><trkpt lat="55.9416150" lon="49.2459950"><time>2023-06-03T10:28:46.807</time></trkpt><trkpt lat="55.9415850" lon="49.2458900"><time>2023-06-03T10:28:47.807</time></trkpt><trkpt lat="55.9416267" lon="49.2457933"><time>2023-06-03T10:28:50.310</time></trkpt><trkpt lat="55.9416767" lon="49.2457300"><time>2023-06-03T10:28:52.310</time></trkpt><trkpt lat="55.9417350" lon="49.2456717"><time>2023-06-03T10:28:55.310</time></trkpt><trkpt lat="55.9417917" lon="49.2456267"><time>2023-06-03T10:28:58.310</time></trkpt><trkpt lat="55.9418350" lon="49.2456550"><time>2023-06-03T10:29:00.310</time></trkpt><trkpt lat="55.9418683" lon="49.2457167"><time>2023-06-03T10:29:02.307</time></trkpt><trkpt lat="55.9418950" lon="49.2457950"><time>2023-06-03T10:29:04.310</time></trkpt><trkpt lat="55.9419400" lon="49.2458767"><time>2023-06-03T10:29:07.310</time></trkpt><trkpt lat="55.9419833" lon="49.2459200"><time>2023-06-03T10:29:09.313</time></trkpt><trkpt lat="55.9420383" lon="49.2459433"><time>2023-06-03T10:29:11.310</time></trkpt><trkpt lat="55.9420900" lon="49.2459567"><time>2023-06-03T10:29:13.310</time></trkpt><trkpt lat="55.9421500" lon="49.2459933"><time>2023-06-03T10:29:15.317</time></trkpt><trkpt lat="55.9422100" lon="49.2460317"><time>2023-06-03T10:29:17.310</time></trkpt><trkpt lat="55.9422617" lon="49.2460517"><time>2023-06-03T10:29:19.317</time></trkpt><trkpt lat="55.9423233" lon="49.2460617"><time>2023-06-03T10:29:21.337</time></trkpt><trkpt lat="55.9423233" lon="49.2460617"><time>2023-06-03T10:29:22.327</time></trkpt><trkpt lat="55.9423833" lon="49.2460700"><time>2023-06-03T10:29:24.317</time></trkpt><trkpt lat="55.9424517" lon="49.2460800"><time>2023-06-03T10:29:25.310</time></trkpt><trkpt lat="55.9425450" lon="49.2460950"><time>2023-06-03T10:29:27.310</time></trkpt><trkpt lat="55.9426133" lon="49.2461300"><time>2023-06-03T10:29:29.303</time></trkpt><trkpt lat="55.9426850" lon="49.2461750"><time>2023-06-03T10:29:31.310</time></trkpt><trkpt lat="55.9427367" lon="49.2462167"><time>2023-06-03T10:29:33.310</time></trkpt><trkpt lat="55.9428033" lon="49.2462367"><time>2023-06-03T10:29:36.310</time></trkpt><trkpt lat="55.9428033" lon="49.2462367"><time>2023-06-03T10:29:37.270</time></trkpt><trkpt lat="55.9428717" lon="49.2462517"><time>2023-06-03T10:29:39.263</time></trkpt><trkpt lat="55.9429267" lon="49.2462683"><time>2023-06-03T10:29:41.267</time></trkpt><trkpt lat="55.9429867" lon="49.2462967"><time>2023-06-03T10:29:44.313</time></trkpt><trkpt lat="55.9430250" lon="49.2463400"><time>2023-06-03T10:29:47.333</time></trkpt><trkpt lat="55.9430250" lon="49.2463400"><time>2023-06-03T10:29:47.387</time></trkpt><trkpt lat="55.9429817" lon="49.2462867"><time>2023-06-03T10:30:16.337</time></trkpt><trkpt lat="55.9429817" lon="49.2462867"><time>2023-06-03T10:30:17.303</time></trkpt><trkpt lat="55.9429417" lon="49.2462383"><time>2023-06-03T10:30:22.307</time></trkpt><trkpt lat="55.9428900" lon="49.2462350"><time>2023-06-03T10:32:05.317</time></trkpt><trkpt lat="55.9428333" lon="49.2462217"><time>2023-06-03T10:32:07.320</time></trkpt><trkpt lat="55.9427783" lon="49.2462183"><time>2023-06-03T10:32:09.317</time></trkpt><trkpt lat="55.9427267" lon="49.2461900"><time>2023-06-03T10:32:11.317</time></trkpt><trkpt lat="55.9426733" lon="49.2461500"><time>2023-06-03T10:32:13.320</time></trkpt><trkpt lat="55.9426217" lon="49.2461167"><time>2023-06-03T10:32:15.317</time></trkpt><trkpt lat="55.9425650" lon="49.2460867"><time>2023-06-03T10:32:17.307</time></trkpt><trkpt lat="55.9424933" lon="49.2460683"><time>2023-06-03T10:32:19.320</time></trkpt><trkpt lat="55.9424400" lon="49.2460617"><time>2023-06-03T10:32:21.323</time></trkpt><trkpt lat="55.9423883" lon="49.2460483"><time>2023-06-03T10:32:23.320</time></trkpt><trkpt lat="55.9423283" lon="49.2460433"><time>2023-06-03T10:32:25.320</time></trkpt><trkpt lat="55.9422733" lon="49.2460267"><time>2023-06-03T10:32:27.320</time></trkpt><trkpt lat="55.9422217" lon="49.2460033"><time>2023-06-03T10:32:29.320</time></trkpt><trkpt lat="55.9421667" lon="49.2459717"><time>2023-06-03T10:32:31.320</time></trkpt><trkpt lat="55.9421200" lon="49.2459400"><time>2023-06-03T10:32:33.320</time></trkpt><trkpt lat="55.9420533" lon="49.2459133"><time>2023-06-03T10:32:35.320</time></trkpt><trkpt lat="55.9419950" lon="49.2458867"><time>2023-06-03T10:32:37.320</time></trkpt><trkpt lat="55.9419517" lon="49.2458283"><time>2023-06-03T10:32:39.320</time></trkpt><trkpt lat="55.9419217" lon="49.2457467"><time>2023-06-03T10:32:41.317</time></trkpt><trkpt lat="55.9418900" lon="49.2456833"><time>2023-06-03T10:32:43.320</time></trkpt><trkpt lat="55.9418333" lon="49.2456633"><time>2023-06-03T10:32:46.320</time></trkpt><trkpt lat="55.9417883" lon="49.2456983"><time>2023-06-03T10:32:48.320</time></trkpt><trkpt lat="55.9417317" lon="49.2457500"><time>2023-06-03T10:32:50.323</time></trkpt><trkpt lat="55.9416733" lon="49.2458183"><time>2023-06-03T10:32:52.320</time></trkpt><trkpt lat="55.9416300" lon="49.2459017"><time>2023-06-03T10:32:54.320</time></trkpt><trkpt lat="55.9415917" lon="49.2459883"><time>2023-06-03T10:32:56.320</time></trkpt><trkpt lat="55.9415450" lon="49.2460633"><time>2023-06-03T10:32:58.317</time></trkpt><trkpt lat="55.9414917" lon="49.2461250"><time>2023-06-03T10:33:01.323</time></trkpt><trkpt lat="55.9414417" lon="49.2461683"><time>2023-06-03T10:33:03.320</time></trkpt><trkpt lat="55.9413833" lon="49.2462017"><time>2023-06-03T10:33:05.320</time></trkpt><trkpt lat="55.9413100" lon="49.2462650"><time>2023-06-03T10:33:07.320</time></trkpt><trkpt lat="55.9412650" lon="49.2463100"><time>2023-06-03T10:33:08.323</time></trkpt><trkpt lat="55.9411883" lon="49.2463917"><time>2023-06-03T10:33:10.317</time></trkpt><trkpt lat="55.9411267" lon="49.2464533"><time>2023-06-03T10:33:12.320</time></trkpt><trkpt lat="55.9410683" lon="49.2465050"><time>2023-06-03T10:33:14.320</time></trkpt><trkpt lat="55.9410083" lon="49.2465567"><time>2023-06-03T10:33:16.320</time></trkpt><trkpt lat="55.9409383" lon="49.2465967"><time>2023-06-03T10:33:18.317</time></trkpt><trkpt lat="55.9408717" lon="49.2466467"><time>2023-06-03T10:33:20.320</time></trkpt><trkpt lat="55.9408083" lon="49.2467100"><time>2023-06-03T10:33:22.320</time></trkpt><trkpt lat="55.9407450" lon="49.2467833"><time>2023-06-03T10:33:24.307</time></trkpt><trkpt lat="55.9406917" lon="49.2468650"><time>2023-06-03T10:33:26.277</time></trkpt><trkpt lat="55.9406333" lon="49.2469467"><time>2023-06-03T10:33:28.273</time></trkpt><trkpt lat="55.9405617" lon="49.2470483"><time>2023-06-03T10:33:30.307</time></trkpt><trkpt lat="55.9405367" lon="49.2471150"><time>2023-06-03T10:33:31.293</time></trkpt><trkpt lat="55.9404867" lon="49.2471833"><time>2023-06-03T10:33:33.293</time></trkpt><trkpt lat="55.9404233" lon="49.2472467"><time>2023-06-03T10:33:35.303</time></trkpt><trkpt lat="55.9403667" lon="49.2472833"><time>2023-06-03T10:33:37.293</time></trkpt><trkpt lat="55.9403200" lon="49.2472683"><time>2023-06-03T10:33:39.307</time></trkpt><trkpt lat="55.9403000" lon="49.2471900"><time>2023-06-03T10:33:41.283</time></trkpt><trkpt lat="55.9402683" lon="49.2471233"><time>2023-06-03T10:33:43.310</time></trkpt><trkpt lat="55.9402300" lon="49.2470800"><time>2023-06-03T10:33:45.310</time></trkpt><trkpt lat="55.9401900" lon="49.2470183"><time>2023-06-03T10:33:47.313</time></trkpt><trkpt lat="55.9401433" lon="49.2469567"><time>2023-06-03T10:33:49.317</time></trkpt><trkpt lat="55.9400917" lon="49.2468967"><time>2023-06-03T10:33:51.320</time></trkpt><trkpt lat="55.9400350" lon="49.2468200"><time>2023-06-03T10:33:53.297</time></trkpt><trkpt lat="55.9399817" lon="49.2467133"><time>2023-06-03T10:33:55.320</time></trkpt><trkpt lat="55.9399433" lon="49.2466017"><time>2023-06-03T10:33:57.317</time></trkpt><trkpt lat="55.9399000" lon="49.2464967"><time>2023-06-03T10:33:59.317</time></trkpt><trkpt lat="55.9398450" lon="49.2464050"><time>2023-06-03T10:34:01.320</time></trkpt><trkpt lat="55.9397883" lon="49.2463117"><time>2023-06-03T10:34:03.303</time></trkpt><trkpt lat="55.9397300" lon="49.2462217"><time>2023-06-03T10:34:05.313</time></trkpt><trkpt lat="55.9396683" lon="49.2461533"><time>2023-06-03T10:34:07.313</time></trkpt><trkpt lat="55.9396100" lon="49.2460800"><time>2023-06-03T10:34:09.317</time></trkpt><trkpt lat="55.9395433" lon="49.2460000"><time>2023-06-03T10:34:11.317</time></trkpt><trkpt lat="55.9394817" lon="49.2459117"><time>2023-06-03T10:34:13.320</time></trkpt><trkpt lat="55.9394133" lon="49.2458167"><time>2023-06-03T10:34:15.310</time></trkpt><trkpt lat="55.9393483" lon="49.2457267"><time>2023-06-03T10:34:17.320</time></trkpt><trkpt lat="55.9392900" lon="49.2456367"><time>2023-06-03T10:34:19.273</time></trkpt><trkpt lat="55.9392300" lon="49.2455350"><time>2023-06-03T10:34:21.320</time></trkpt><trkpt lat="55.9391683" lon="49.2454300"><time>2023-06-03T10:34:23.317</time></trkpt><trkpt lat="55.9391100" lon="49.2453350"><time>2023-06-03T10:34:25.320</time></trkpt><trkpt lat="55.9390517" lon="49.2452383"><time>2023-06-03T10:34:27.310</time></trkpt><trkpt lat="55.9389950" lon="49.2451350"><time>2023-06-03T10:34:29.323</time></trkpt><trkpt lat="55.9389350" lon="49.2450250"><time>2023-06-03T10:34:31.313</time></trkpt><trkpt lat="55.9388783" lon="49.2449233"><time>2023-06-03T10:34:33.287</time></trkpt><trkpt lat="55.9388167" lon="49.2448350"><time>2023-06-03T10:34:35.303</time></trkpt><trkpt lat="55.9387617" lon="49.2447517"><time>2023-06-03T10:34:37.310</time></trkpt><trkpt lat="55.9387067" lon="49.2446633"><time>2023-06-03T10:34:39.317</time></trkpt><trkpt lat="55.9386550" lon="49.2445750"><time>2023-06-03T10:34:41.297</time></trkpt><trkpt lat="55.9386033" lon="49.2445083"><time>2023-06-03T10:34:43.320</time></trkpt><trkpt lat="55.9385583" lon="49.2444467"><time>2023-06-03T10:34:45.317</time></trkpt><trkpt lat="55.9384950" lon="49.2443867"><time>2023-06-03T10:34:47.317</time></trkpt><trkpt lat="55.9384317" lon="49.2443217"><time>2023-06-03T10:34:49.317</time></trkpt><trkpt lat="55.9383667" lon="49.2442467"><time>2023-06-03T10:34:51.317</time></trkpt><trkpt lat="55.9383000" lon="49.2441667"><time>2023-06-03T10:34:53.307</time></trkpt><trkpt lat="55.9382350" lon="49.2440950"><time>2023-06-03T10:34:55.320</time></trkpt><trkpt lat="55.9381717" lon="49.2440133"><time>2023-06-03T10:34:57.323</time></trkpt><trkpt lat="55.9381067" lon="49.2439333"><time>2023-06-03T10:34:59.320</time></trkpt><trkpt lat="55.9380367" lon="49.2438617"><time>2023-06-03T10:35:01.323</time></trkpt><trkpt lat="55.9379667" lon="49.2437850"><time>2023-06-03T10:35:03.317</time></trkpt><trkpt lat="55.9379000" lon="49.2437233"><time>2023-06-03T10:35:05.303</time></trkpt><trkpt lat="55.9378333" lon="49.2436733"><time>2023-06-03T10:35:07.323</time></trkpt><trkpt lat="55.9377667" lon="49.2436300"><time>2023-06-03T10:35:09.323</time></trkpt><trkpt lat="55.9377000" lon="49.2435917"><time>2023-06-03T10:35:11.320</time></trkpt><trkpt lat="55.9376317" lon="49.2435450"><time>2023-06-03T10:35:13.327</time></trkpt><trkpt lat="55.9375667" lon="49.2434933"><time>2023-06-03T10:35:15.323</time></trkpt><trkpt lat="55.9374983" lon="49.2434450"><time>2023-06-03T10:35:17.327</time></trkpt><trkpt lat="55.9374250" lon="49.2434067"><time>2023-06-03T10:35:19.317</time></trkpt><trkpt lat="55.9373467" lon="49.2433767"><time>2023-06-03T10:35:21.317</time></trkpt><trkpt lat="55.9372650" lon="49.2433300"><time>2023-06-03T10:35:23.320</time></trkpt><trkpt lat="55.9372217" lon="49.2433050"><time>2023-06-03T10:35:24.320</time></trkpt><trkpt lat="55.9371783" lon="49.2432783"><time>2023-06-03T10:35:25.323</time></trkpt><trkpt lat="55.9371000" lon="49.2432250"><time>2023-06-03T10:35:27.327</time></trkpt><trkpt lat="55.9370200" lon="49.2431667"><time>2023-06-03T10:35:29.323</time></trkpt><trkpt lat="55.9369383" lon="49.2431067"><time>2023-06-03T10:35:31.323</time></trkpt><trkpt lat="55.9368600" lon="49.2430533"><time>2023-06-03T10:35:33.297</time></trkpt><trkpt lat="55.9368150" lon="49.2430200"><time>2023-06-03T10:35:34.320</time></trkpt><trkpt lat="55.9367367" lon="49.2429617"><time>2023-06-03T10:35:36.323</time></trkpt><trkpt lat="55.9366600" lon="49.2429133"><time>2023-06-03T10:35:38.320</time></trkpt><trkpt lat="55.9365933" lon="49.2428517"><time>2023-06-03T10:35:40.323</time></trkpt><trkpt lat="55.9365150" lon="49.2427867"><time>2023-06-03T10:35:42.317</time></trkpt><trkpt lat="55.9364733" lon="49.2427517"><time>2023-06-03T10:35:43.320</time></trkpt><trkpt lat="55.9364083" lon="49.2426933"><time>2023-06-03T10:35:45.320</time></trkpt><trkpt lat="55.9363383" lon="49.2426417"><time>2023-06-03T10:35:47.327</time></trkpt><trkpt lat="55.9362600" lon="49.2425950"><time>2023-06-03T10:35:49.320</time></trkpt><trkpt lat="55.9361800" lon="49.2425500"><time>2023-06-03T10:35:51.317</time></trkpt><trkpt lat="55.9361000" lon="49.2425083"><time>2023-06-03T10:35:53.320</time></trkpt><trkpt lat="55.9360167" lon="49.2424633"><time>2023-06-03T10:35:55.320</time></trkpt><trkpt lat="55.9359317" lon="49.2424117"><time>2023-06-03T10:35:57.317</time></trkpt><trkpt lat="55.9358883" lon="49.2423850"><time>2023-06-03T10:35:58.320</time></trkpt><trkpt lat="55.9358417" lon="49.2423567"><time>2023-06-03T10:35:59.320</time></trkpt><trkpt lat="55.9357967" lon="49.2423317"><time>2023-06-03T10:36:00.317</time></trkpt><trkpt lat="55.9357500" lon="49.2423050"><time>2023-06-03T10:36:01.320</time></trkpt><trkpt lat="55.9357050" lon="49.2422817"><time>2023-06-03T10:36:02.320</time></trkpt><trkpt lat="55.9356600" lon="49.2422617"><time>2023-06-03T10:36:03.313</time></trkpt><trkpt lat="55.9356150" lon="49.2422433"><time>2023-06-03T10:36:04.320</time></trkpt><trkpt lat="55.9355683" lon="49.2422233"><time>2023-06-03T10:36:05.317</time></trkpt><trkpt lat="55.9355200" lon="49.2422100"><time>2023-06-03T10:36:06.320</time></trkpt><trkpt lat="55.9354717" lon="49.2422000"><time>2023-06-03T10:36:07.320</time></trkpt><trkpt lat="55.9354250" lon="49.2421967"><time>2023-06-03T10:36:08.287</time></trkpt><trkpt lat="55.9353483" lon="49.2421900"><time>2023-06-03T10:36:10.280</time></trkpt><trkpt lat="55.9352767" lon="49.2421883"><time>2023-06-03T10:36:12.300</time></trkpt><trkpt lat="55.9352133" lon="49.2421833"><time>2023-06-03T10:36:14.323</time></trkpt><trkpt lat="55.9351600" lon="49.2421583"><time>2023-06-03T10:36:16.323</time></trkpt><trkpt lat="55.9351067" lon="49.2421267"><time>2023-06-03T10:36:18.313</time></trkpt><trkpt lat="55.9350733" lon="49.2420567"><time>2023-06-03T10:36:22.320</time></trkpt><trkpt lat="55.9350150" lon="49.2419983"><time>2023-06-03T10:36:25.297</time></trkpt><trkpt lat="55.9349617" lon="49.2419300"><time>2023-06-03T10:36:27.307</time></trkpt><trkpt lat="55.9349033" lon="49.2418683"><time>2023-06-03T10:36:29.320</time></trkpt><trkpt lat="55.9348367" lon="49.2418117"><time>2023-06-03T10:36:31.313</time></trkpt><trkpt lat="55.9347733" lon="49.2417650"><time>2023-06-03T10:36:33.320</time></trkpt><trkpt lat="55.9347217" lon="49.2416917"><time>2023-06-03T10:36:35.323</time></trkpt><trkpt lat="55.9346783" lon="49.2416250"><time>2023-06-03T10:36:37.323</time></trkpt><trkpt lat="55.9346350" lon="49.2415317"><time>2023-06-03T10:36:40.317</time></trkpt><trkpt lat="55.9346017" lon="49.2414567"><time>2023-06-03T10:36:42.317</time></trkpt><trkpt lat="55.9345600" lon="49.2413933"><time>2023-06-03T10:36:44.320</time></trkpt><trkpt lat="55.9345117" lon="49.2413450"><time>2023-06-03T10:36:46.320</time></trkpt><trkpt lat="55.9344667" lon="49.2413017"><time>2023-06-03T10:36:48.320</time></trkpt><trkpt lat="55.9344133" lon="49.2412783"><time>2023-06-03T10:36:50.320</time></trkpt><trkpt lat="55.9343733" lon="49.2412400"><time>2023-06-03T10:36:52.320</time></trkpt><trkpt lat="55.9343350" lon="49.2411833"><time>2023-06-03T10:36:54.320</time></trkpt><trkpt lat="55.9342917" lon="49.2411167"><time>2023-06-03T10:36:56.320</time></trkpt><trkpt lat="55.9342433" lon="49.2410567"><time>2023-06-03T10:36:58.317</time></trkpt><trkpt lat="55.9342017" lon="49.2409867"><time>2023-06-03T10:37:00.317</time></trkpt><trkpt lat="55.9341617" lon="49.2409267"><time>2023-06-03T10:37:02.317</time></trkpt><trkpt lat="55.9341183" lon="49.2408967"><time>2023-06-03T10:37:04.297</time></trkpt><trkpt lat="55.9340667" lon="49.2408400"><time>2023-06-03T10:37:07.310</time></trkpt><trkpt lat="55.9340100" lon="49.2407850"><time>2023-06-03T10:37:09.317</time></trkpt><trkpt lat="55.9339467" lon="49.2407500"><time>2023-06-03T10:37:11.317</time></trkpt><trkpt lat="55.9338867" lon="49.2407217"><time>2023-06-03T10:37:13.320</time></trkpt><trkpt lat="55.9338200" lon="49.2407250"><time>2023-06-03T10:37:16.317</time></trkpt><trkpt lat="55.9337600" lon="49.2407450"><time>2023-06-03T10:37:18.317</time></trkpt><trkpt lat="55.9337150" lon="49.2407433"><time>2023-06-03T10:37:20.317</time></trkpt><trkpt lat="55.9336600" lon="49.2407317"><time>2023-06-03T10:37:23.323</time></trkpt><trkpt lat="55.9336117" lon="49.2407567"><time>2023-06-03T10:37:25.320</time></trkpt><trkpt lat="55.9335633" lon="49.2407650"><time>2023-06-03T10:37:27.317</time></trkpt><trkpt lat="55.9334900" lon="49.2408050"><time>2023-06-03T10:37:29.320</time></trkpt><trkpt lat="55.9334433" lon="49.2408150"><time>2023-06-03T10:37:31.317</time></trkpt><trkpt lat="55.9333983" lon="49.2408300"><time>2023-06-03T10:37:33.307</time></trkpt><trkpt lat="55.9333367" lon="49.2408350"><time>2023-06-03T10:37:36.317</time></trkpt><trkpt lat="55.9332783" lon="49.2408317"><time>2023-06-03T10:37:38.320</time></trkpt><trkpt lat="55.9332183" lon="49.2408283"><time>2023-06-03T10:37:40.303</time></trkpt><trkpt lat="55.9331733" lon="49.2408333"><time>2023-06-03T10:37:42.283</time></trkpt><trkpt lat="55.9331050" lon="49.2408467"><time>2023-06-03T10:37:44.317</time></trkpt><trkpt lat="55.9330417" lon="49.2408417"><time>2023-06-03T10:37:46.320</time></trkpt><trkpt lat="55.9329633" lon="49.2408300"><time>2023-06-03T10:37:48.317</time></trkpt><trkpt lat="55.9328833" lon="49.2407850"><time>2023-06-03T10:37:51.313</time></trkpt><trkpt lat="55.9328367" lon="49.2407733"><time>2023-06-03T10:37:52.297</time></trkpt><trkpt lat="55.9327900" lon="49.2407650"><time>2023-06-03T10:37:53.317</time></trkpt><trkpt lat="55.9327383" lon="49.2407250"><time>2023-06-03T10:37:55.320</time></trkpt><trkpt lat="55.9326800" lon="49.2406783"><time>2023-06-03T10:37:57.313</time></trkpt><trkpt lat="55.9326200" lon="49.2406383"><time>2023-06-03T10:37:59.317</time></trkpt><trkpt lat="55.9325617" lon="49.2405883"><time>2023-06-03T10:38:01.320</time></trkpt><trkpt lat="55.9325017" lon="49.2405250"><time>2023-06-03T10:38:03.317</time></trkpt><trkpt lat="55.9324533" lon="49.2405350"><time>2023-06-03T10:38:05.317</time></trkpt><trkpt lat="55.9324033" lon="49.2406067"><time>2023-06-03T10:38:07.317</time></trkpt><trkpt lat="55.9323583" lon="49.2407050"><time>2023-06-03T10:38:09.317</time></trkpt><trkpt lat="55.9323250" lon="49.2407683"><time>2023-06-03T10:38:11.317</time></trkpt><trkpt lat="55.9323150" lon="49.2408517"><time>2023-06-03T10:38:20.323</time></trkpt><trkpt lat="55.9322433" lon="49.2408083"><time>2023-06-03T10:38:39.317</time></trkpt><trkpt lat="55.9322233" lon="49.2409150"><time>2023-06-03T10:38:42.317</time></trkpt><trkpt lat="55.9322083" lon="49.2410067"><time>2023-06-03T10:38:44.317</time></trkpt><trkpt lat="55.9321667" lon="49.2411200"><time>2023-06-03T10:38:46.313</time></trkpt><trkpt lat="55.9321233" lon="49.2412450"><time>2023-06-03T10:38:48.313</time></trkpt><trkpt lat="55.9320950" lon="49.2413783"><time>2023-06-03T10:38:50.320</time></trkpt><trkpt lat="55.9320717" lon="49.2414967"><time>2023-06-03T10:38:52.320</time></trkpt><trkpt lat="55.9320633" lon="49.2416150"><time>2023-06-03T10:38:54.307</time></trkpt><trkpt lat="55.9320800" lon="49.2417333"><time>2023-06-03T10:38:56.310</time></trkpt><trkpt lat="55.9321033" lon="49.2418800"><time>2023-06-03T10:38:58.320</time></trkpt><trkpt lat="55.9321200" lon="49.2419967"><time>2023-06-03T10:39:00.317</time></trkpt><trkpt lat="55.9321400" lon="49.2421200"><time>2023-06-03T10:39:03.280</time></trkpt><trkpt lat="55.9321733" lon="49.2422133"><time>2023-06-03T10:39:05.310</time></trkpt><trkpt lat="55.9322050" lon="49.2423117"><time>2023-06-03T10:39:07.317</time></trkpt><trkpt lat="55.9322417" lon="49.2424067"><time>2023-06-03T10:39:09.317</time></trkpt><trkpt lat="55.9322717" lon="49.2425017"><time>2023-06-03T10:39:11.317</time></trkpt><trkpt lat="55.9322900" lon="49.2425767"><time>2023-06-03T10:39:13.307</time></trkpt><trkpt lat="55.9322983" lon="49.2426833"><time>2023-06-03T10:39:15.317</time></trkpt><trkpt lat="55.9323000" lon="49.2428167"><time>2023-06-03T10:39:17.320</time></trkpt><trkpt lat="55.9323250" lon="49.2429500"><time>2023-06-03T10:39:19.320</time></trkpt><trkpt lat="55.9323550" lon="49.2430767"><time>2023-06-03T10:39:21.317</time></trkpt><trkpt lat="55.9323850" lon="49.2432000"><time>2023-06-03T10:39:23.317</time></trkpt><trkpt lat="55.9324133" lon="49.2433150"><time>2023-06-03T10:39:25.317</time></trkpt><trkpt lat="55.9324467" lon="49.2434233"><time>2023-06-03T10:39:27.317</time></trkpt><trkpt lat="55.9324733" lon="49.2435467"><time>2023-06-03T10:39:29.320</time></trkpt><trkpt lat="55.9324950" lon="49.2436617"><time>2023-06-03T10:39:31.317</time></trkpt><trkpt lat="55.9325050" lon="49.2437717"><time>2023-06-03T10:39:33.323</time></trkpt><trkpt lat="55.9325050" lon="49.2438950"><time>2023-06-03T10:39:35.317</time></trkpt><trkpt lat="55.9325000" lon="49.2439950"><time>2023-06-03T10:39:37.317</time></trkpt><trkpt lat="55.9325050" lon="49.2441217"><time>2023-06-03T10:39:40.317</time></trkpt><trkpt lat="55.9325100" lon="49.2442233"><time>2023-06-03T10:39:42.320</time></trkpt><trkpt lat="55.9325183" lon="49.2443517"><time>2023-06-03T10:39:44.337</time></trkpt><trkpt lat="55.9325167" lon="49.2443650"><time>2023-06-03T10:39:46.317</time></trkpt><trkpt lat="55.9325150" lon="49.2444667"><time>2023-06-03T10:39:48.313</time></trkpt><trkpt lat="55.9325150" lon="49.2446017"><time>2023-06-03T10:39:50.310</time></trkpt><trkpt lat="55.9325200" lon="49.2446950"><time>2023-06-03T10:39:53.307</time></trkpt><trkpt lat="55.9325217" lon="49.2448133"><time>2023-06-03T10:39:57.310</time></trkpt><trkpt lat="55.9325183" lon="49.2449033"><time>2023-06-03T10:39:59.310</time></trkpt><trkpt lat="55.9325067" lon="49.2449867"><time>2023-06-03T10:40:01.310</time></trkpt><trkpt lat="55.9324800" lon="49.2450783"><time>2023-06-03T10:40:04.313</time></trkpt><trkpt lat="55.9324533" lon="49.2451500"><time>2023-06-03T10:40:06.310</time></trkpt><trkpt lat="55.9324317" lon="49.2452217"><time>2023-06-03T10:40:08.283</time></trkpt><trkpt lat="55.9323617" lon="49.2453400"><time>2023-06-03T10:40:10.307</time></trkpt><trkpt lat="55.9323233" lon="49.2454317"><time>2023-06-03T10:40:12.313</time></trkpt><trkpt lat="55.9322967" lon="49.2455000"><time>2023-06-03T10:40:14.313</time></trkpt><trkpt lat="55.9322683" lon="49.2456050"><time>2023-06-03T10:40:16.310</time></trkpt><trkpt lat="55.9322433" lon="49.2456850"><time>2023-06-03T10:40:18.310</time></trkpt><trkpt lat="55.9322300" lon="49.2457683"><time>2023-06-03T10:40:20.307</time></trkpt><trkpt lat="55.9322017" lon="49.2458700"><time>2023-06-03T10:40:22.330</time></trkpt><trkpt lat="55.9322000" lon="49.2458850"><time>2023-06-03T10:40:23.807</time></trkpt><trkpt lat="55.9322133" lon="49.2459717"><time>2023-06-03T10:40:25.293</time></trkpt><trkpt lat="55.9321633" lon="49.2460817"><time>2023-06-03T10:40:27.307</time></trkpt><trkpt lat="55.9321267" lon="49.2462133"><time>2023-06-03T10:40:30.310</time></trkpt><trkpt lat="55.9321333" lon="49.2462950"><time>2023-06-03T10:40:31.313</time></trkpt><trkpt lat="55.9321683" lon="49.2465717"><time>2023-06-03T10:40:32.310</time></trkpt><trkpt lat="55.9321450" lon="49.2466900"><time>2023-06-03T10:40:34.293</time></trkpt><trkpt lat="55.9321467" lon="49.2467000"><time>2023-06-03T10:40:36.217</time></trkpt><trkpt lat="55.9321417" lon="49.2467900"><time>2023-06-03T10:40:37.297</time></trkpt><trkpt lat="55.9321450" lon="49.2468967"><time>2023-06-03T10:40:38.307</time></trkpt><trkpt lat="55.9321617" lon="49.2470567"><time>2023-06-03T10:40:39.307</time></trkpt><trkpt lat="55.9321800" lon="49.2471667"><time>2023-06-03T10:40:41.327</time></trkpt><trkpt lat="55.9321800" lon="49.2471667"><time>2023-06-03T10:40:41.387</time></trkpt><trkpt lat="55.9321950" lon="49.2470633"><time>2023-06-03T10:41:25.333</time></trkpt><trkpt lat="55.9321967" lon="49.2470583"><time>2023-06-03T10:41:27.307</time></trkpt><trkpt lat="55.9321867" lon="49.2469667"><time>2023-06-03T10:41:32.307</time></trkpt><trkpt lat="55.9322083" lon="49.2468833"><time>2023-06-03T10:41:36.310</time></trkpt><trkpt lat="55.9322483" lon="49.2468100"><time>2023-06-03T10:41:39.310</time></trkpt><trkpt lat="55.9322567" lon="49.2466917"><time>2023-06-03T10:41:41.307</time></trkpt><trkpt lat="55.9322783" lon="49.2465983"><time>2023-06-03T10:41:43.310</time></trkpt><trkpt lat="55.9322983" lon="49.2465217"><time>2023-06-03T10:41:45.307</time></trkpt><trkpt lat="55.9323133" lon="49.2464383"><time>2023-06-03T10:41:46.303</time></trkpt><trkpt lat="55.9323217" lon="49.2463300"><time>2023-06-03T10:41:48.307</time></trkpt><trkpt lat="55.9323500" lon="49.2462433"><time>2023-06-03T10:41:50.307</time></trkpt><trkpt lat="55.9323800" lon="49.2461467"><time>2023-06-03T10:41:52.310</time></trkpt><trkpt lat="55.9324050" lon="49.2460467"><time>2023-06-03T10:41:54.293</time></trkpt><trkpt lat="55.9324100" lon="49.2459533"><time>2023-06-03T10:41:56.303</time></trkpt><trkpt lat="55.9324200" lon="49.2458467"><time>2023-06-03T10:41:58.310</time></trkpt><trkpt lat="55.9324367" lon="49.2457517"><time>2023-06-03T10:42:00.310</time></trkpt><trkpt lat="55.9324500" lon="49.2456333"><time>2023-06-03T10:42:02.313</time></trkpt><trkpt lat="55.9324550" lon="49.2455250"><time>2023-06-03T10:42:04.307</time></trkpt><trkpt lat="55.9324633" lon="49.2454433"><time>2023-06-03T10:42:06.287</time></trkpt><trkpt lat="55.9324717" lon="49.2453333"><time>2023-06-03T10:42:08.313</time></trkpt><trkpt lat="55.9324800" lon="49.2452333"><time>2023-06-03T10:42:10.310</time></trkpt><trkpt lat="55.9325017" lon="49.2451250"><time>2023-06-03T10:42:12.313</time></trkpt><trkpt lat="55.9325033" lon="49.2449983"><time>2023-06-03T10:42:14.307</time></trkpt><trkpt lat="55.9325067" lon="49.2448833"><time>2023-06-03T10:42:16.313</time></trkpt><trkpt lat="55.9324917" lon="49.2447683"><time>2023-06-03T10:42:18.310</time></trkpt><trkpt lat="55.9324817" lon="49.2445450"><time>2023-06-03T10:42:19.313</time></trkpt><trkpt lat="55.9324783" lon="49.2443933"><time>2023-06-03T10:42:20.313</time></trkpt><trkpt lat="55.9324800" lon="49.2443017"><time>2023-06-03T10:42:21.320</time></trkpt><trkpt lat="55.9324850" lon="49.2442100"><time>2023-06-03T10:42:22.320</time></trkpt><trkpt lat="55.9324883" lon="49.2441067"><time>2023-06-03T10:42:24.317</time></trkpt><trkpt lat="55.9324900" lon="49.2440267"><time>2023-06-03T10:42:26.320</time></trkpt><trkpt lat="55.9324800" lon="49.2439183"><time>2023-06-03T10:42:28.320</time></trkpt><trkpt lat="55.9324750" lon="49.2437833"><time>2023-06-03T10:42:30.320</time></trkpt><trkpt lat="55.9324750" lon="49.2436467"><time>2023-06-03T10:42:32.320</time></trkpt><trkpt lat="55.9324733" lon="49.2435150"><time>2023-06-03T10:42:34.317</time></trkpt><trkpt lat="55.9324533" lon="49.2433817"><time>2023-06-03T10:42:36.323</time></trkpt><trkpt lat="55.9324433" lon="49.2432800"><time>2023-06-03T10:42:38.317</time></trkpt><trkpt lat="55.9324150" lon="49.2431650"><time>2023-06-03T10:42:40.320</time></trkpt><trkpt lat="55.9323733" lon="49.2430500"><time>2023-06-03T10:42:42.307</time></trkpt><trkpt lat="55.9323383" lon="49.2429433"><time>2023-06-03T10:42:44.317</time></trkpt><trkpt lat="55.9322950" lon="49.2428383"><time>2023-06-03T10:42:46.317</time></trkpt><trkpt lat="55.9322683" lon="49.2427433"><time>2023-06-03T10:42:48.317</time></trkpt><trkpt lat="55.9322467" lon="49.2426683"><time>2023-06-03T10:42:50.317</time></trkpt><trkpt lat="55.9322283" lon="49.2425750"><time>2023-06-03T10:42:52.320</time></trkpt><trkpt lat="55.9322150" lon="49.2424533"><time>2023-06-03T10:42:54.313</time></trkpt><trkpt lat="55.9322133" lon="49.2423350"><time>2023-06-03T10:42:56.317</time></trkpt><trkpt lat="55.9322017" lon="49.2422050"><time>2023-06-03T10:42:58.320</time></trkpt><trkpt lat="55.9321950" lon="49.2420883"><time>2023-06-03T10:43:00.317</time></trkpt><trkpt lat="55.9321867" lon="49.2419817"><time>2023-06-03T10:43:02.317</time></trkpt><trkpt lat="55.9321850" lon="49.2418917"><time>2023-06-03T10:43:04.320</time></trkpt><trkpt lat="55.9321767" lon="49.2417917"><time>2023-06-03T10:43:06.320</time></trkpt><trkpt lat="55.9321817" lon="49.2416433"><time>2023-06-03T10:43:08.320</time></trkpt><trkpt lat="55.9322167" lon="49.2415367"><time>2023-06-03T10:43:10.307</time></trkpt><trkpt lat="55.9322500" lon="49.2414233"><time>2023-06-03T10:43:12.313</time></trkpt><trkpt lat="55.9322783" lon="49.2413183"><time>2023-06-03T10:43:14.320</time></trkpt><trkpt lat="55.9323000" lon="49.2412200"><time>2023-06-03T10:43:16.320</time></trkpt><trkpt lat="55.9323300" lon="49.2411250"><time>2023-06-03T10:43:18.317</time></trkpt><trkpt lat="55.9323567" lon="49.2410367"><time>2023-06-03T10:43:20.317</time></trkpt><trkpt lat="55.9324000" lon="49.2409217"><time>2023-06-03T10:43:22.317</time></trkpt><trkpt lat="55.9324417" lon="49.2408267"><time>2023-06-03T10:43:24.317</time></trkpt><trkpt lat="55.9324700" lon="49.2407250"><time>2023-06-03T10:43:26.317</time></trkpt><trkpt lat="55.9324800" lon="49.2406383"><time>2023-06-03T10:43:29.320</time></trkpt><trkpt lat="55.9324400" lon="49.2405883"><time>2023-06-03T10:43:34.313</time></trkpt><trkpt lat="55.9324217" lon="49.2405083"><time>2023-06-03T10:43:45.323</time></trkpt><trkpt lat="55.9324533" lon="49.2404500"><time>2023-06-03T10:44:17.323</time></trkpt><trkpt lat="55.9324750" lon="49.2403533"><time>2023-06-03T10:44:43.317</time></trkpt><trkpt lat="55.9324833" lon="49.2402533"><time>2023-06-03T10:44:46.320</time></trkpt><trkpt lat="55.9324833" lon="49.2401483"><time>2023-06-03T10:44:48.320</time></trkpt><trkpt lat="55.9324800" lon="49.2400550"><time>2023-06-03T10:44:50.320</time></trkpt><trkpt lat="55.9324750" lon="49.2399200"><time>2023-06-03T10:44:53.317</time></trkpt><trkpt lat="55.9324617" lon="49.2398167"><time>2023-06-03T10:44:55.320</time></trkpt><trkpt lat="55.9324550" lon="49.2397100"><time>2023-06-03T10:44:57.320</time></trkpt><trkpt lat="55.9324650" lon="49.2396050"><time>2023-06-03T10:44:59.313</time></trkpt><trkpt lat="55.9324883" lon="49.2394800"><time>2023-06-03T10:45:01.303</time></trkpt><trkpt lat="55.9325100" lon="49.2393650"><time>2023-06-03T10:45:03.310</time></trkpt><trkpt lat="55.9325333" lon="49.2392750"><time>2023-06-03T10:45:05.323</time></trkpt><trkpt lat="55.9325567" lon="49.2391717"><time>2023-06-03T10:45:07.317</time></trkpt><trkpt lat="55.9325817" lon="49.2390617"><time>2023-06-03T10:45:09.327</time></trkpt><trkpt lat="55.9326067" lon="49.2389400"><time>2023-06-03T10:45:11.293</time></trkpt><trkpt lat="55.9326400" lon="49.2388017"><time>2023-06-03T10:45:13.323</time></trkpt><trkpt lat="55.9326550" lon="49.2387250"><time>2023-06-03T10:45:14.320</time></trkpt><trkpt lat="55.9326700" lon="49.2386367"><time>2023-06-03T10:45:15.320</time></trkpt><trkpt lat="55.9326967" lon="49.2385083"><time>2023-06-03T10:45:17.323</time></trkpt><trkpt lat="55.9327017" lon="49.2384233"><time>2023-06-03T10:45:18.320</time></trkpt><trkpt lat="55.9327250" lon="49.2383317"><time>2023-06-03T10:45:20.323</time></trkpt><trkpt lat="55.9327617" lon="49.2381983"><time>2023-06-03T10:45:22.320</time></trkpt><trkpt lat="55.9327900" lon="49.2381283"><time>2023-06-03T10:45:23.320</time></trkpt><trkpt lat="55.9328250" lon="49.2380200"><time>2023-06-03T10:45:25.323</time></trkpt><trkpt lat="55.9328683" lon="49.2379133"><time>2023-06-03T10:45:27.320</time></trkpt><trkpt lat="55.9329033" lon="49.2378283"><time>2023-06-03T10:45:28.320</time></trkpt><trkpt lat="55.9329200" lon="49.2377383"><time>2023-06-03T10:45:29.320</time></trkpt><trkpt lat="55.9329367" lon="49.2376450"><time>2023-06-03T10:45:30.317</time></trkpt><trkpt lat="55.9329433" lon="49.2375250"><time>2023-06-03T10:45:31.320</time></trkpt><trkpt lat="55.9329617" lon="49.2373967"><time>2023-06-03T10:45:32.323</time></trkpt><trkpt lat="55.9329817" lon="49.2372383"><time>2023-06-03T10:45:34.317</time></trkpt><trkpt lat="55.9329867" lon="49.2371467"><time>2023-06-03T10:45:35.320</time></trkpt><trkpt lat="55.9329983" lon="49.2370333"><time>2023-06-03T10:45:37.320</time></trkpt><trkpt lat="55.9330217" lon="49.2369250"><time>2023-06-03T10:45:39.320</time></trkpt><trkpt lat="55.9330467" lon="49.2368017"><time>2023-06-03T10:45:41.320</time></trkpt><trkpt lat="55.9330667" lon="49.2367267"><time>2023-06-03T10:45:42.320</time></trkpt><trkpt lat="55.9330900" lon="49.2365950"><time>2023-06-03T10:45:44.323</time></trkpt><trkpt lat="55.9331050" lon="49.2364833"><time>2023-06-03T10:45:46.317</time></trkpt><trkpt lat="55.9331200" lon="49.2363800"><time>2023-06-03T10:45:48.317</time></trkpt><trkpt lat="55.9331400" lon="49.2362600"><time>2023-06-03T10:45:50.320</time></trkpt><trkpt lat="55.9331617" lon="49.2361400"><time>2023-06-03T10:45:52.323</time></trkpt><trkpt lat="55.9331833" lon="49.2359967"><time>2023-06-03T10:45:54.307</time></trkpt><trkpt lat="55.9332000" lon="49.2359217"><time>2023-06-03T10:45:55.320</time></trkpt><trkpt lat="55.9332200" lon="49.2357517"><time>2023-06-03T10:45:57.317</time></trkpt><trkpt lat="55.9332283" lon="49.2356583"><time>2023-06-03T10:45:58.320</time></trkpt><trkpt lat="55.9332383" lon="49.2355717"><time>2023-06-03T10:45:59.323</time></trkpt><trkpt lat="55.9332400" lon="49.2354833"><time>2023-06-03T10:46:00.320</time></trkpt><trkpt lat="55.9332450" lon="49.2354033"><time>2023-06-03T10:46:01.320</time></trkpt><trkpt lat="55.9332483" lon="49.2353233"><time>2023-06-03T10:46:02.320</time></trkpt><trkpt lat="55.9332417" lon="49.2351733"><time>2023-06-03T10:46:04.317</time></trkpt><trkpt lat="55.9332283" lon="49.2350233"><time>2023-06-03T10:46:06.297</time></trkpt><trkpt lat="55.9332267" lon="49.2349017"><time>2023-06-03T10:46:08.323</time></trkpt><trkpt lat="55.9332333" lon="49.2347833"><time>2023-06-03T10:46:10.320</time></trkpt><trkpt lat="55.9332483" lon="49.2346700"><time>2023-06-03T10:46:12.320</time></trkpt><trkpt lat="55.9332533" lon="49.2345667"><time>2023-06-03T10:46:14.320</time></trkpt><trkpt lat="55.9332550" lon="49.2344500"><time>2023-06-03T10:46:16.320</time></trkpt><trkpt lat="55.9332467" lon="49.2343333"><time>2023-06-03T10:46:18.323</time></trkpt><trkpt lat="55.9332417" lon="49.2341883"><time>2023-06-03T10:46:20.320</time></trkpt><trkpt lat="55.9332350" lon="49.2340900"><time>2023-06-03T10:46:21.320</time></trkpt><trkpt lat="55.9332283" lon="49.2340083"><time>2023-06-03T10:46:22.323</time></trkpt><trkpt lat="55.9332317" lon="49.2338717"><time>2023-06-03T10:46:24.320</time></trkpt><trkpt lat="55.9332200" lon="49.2337833"><time>2023-06-03T10:46:26.320</time></trkpt><trkpt lat="55.9332150" lon="49.2336817"><time>2023-06-03T10:46:28.323</time></trkpt><trkpt lat="55.9332000" lon="49.2335733"><time>2023-06-03T10:46:30.320</time></trkpt><trkpt lat="55.9331700" lon="49.2334383"><time>2023-06-03T10:46:32.323</time></trkpt><trkpt lat="55.9331567" lon="49.2333583"><time>2023-06-03T10:46:33.323</time></trkpt><trkpt lat="55.9331500" lon="49.2332767"><time>2023-06-03T10:46:34.323</time></trkpt><trkpt lat="55.9331417" lon="49.2331850"><time>2023-06-03T10:46:35.320</time></trkpt><trkpt lat="55.9331233" lon="49.2330417"><time>2023-06-03T10:46:37.323</time></trkpt><trkpt lat="55.9330950" lon="49.2329000"><time>2023-06-03T10:46:39.320</time></trkpt><trkpt lat="55.9330750" lon="49.2328233"><time>2023-06-03T10:46:40.277</time></trkpt><trkpt lat="55.9330350" lon="49.2326883"><time>2023-06-03T10:46:42.317</time></trkpt><trkpt lat="55.9330233" lon="49.2325733"><time>2023-06-03T10:46:44.320</time></trkpt><trkpt lat="55.9330050" lon="49.2324750"><time>2023-06-03T10:46:46.320</time></trkpt><trkpt lat="55.9329783" lon="49.2323500"><time>2023-06-03T10:46:48.323</time></trkpt><trkpt lat="55.9329267" lon="49.2322333"><time>2023-06-03T10:46:50.323</time></trkpt><trkpt lat="55.9329000" lon="49.2321650"><time>2023-06-03T10:46:51.317</time></trkpt><trkpt lat="55.9328700" lon="49.2320683"><time>2023-06-03T10:46:53.323</time></trkpt><trkpt lat="55.9328333" lon="49.2319600"><time>2023-06-03T10:46:55.327</time></trkpt><trkpt lat="55.9327867" lon="49.2318450"><time>2023-06-03T10:46:57.327</time></trkpt><trkpt lat="55.9327517" lon="49.2317317"><time>2023-06-03T10:46:59.323</time></trkpt><trkpt lat="55.9327250" lon="49.2316217"><time>2023-06-03T10:47:01.323</time></trkpt><trkpt lat="55.9326967" lon="49.2315133"><time>2023-06-03T10:47:03.323</time></trkpt><trkpt lat="55.9326800" lon="49.2314033"><time>2023-06-03T10:47:05.327</time></trkpt><trkpt lat="55.9326550" lon="49.2313233"><time>2023-06-03T10:47:07.323</time></trkpt><trkpt lat="55.9326317" lon="49.2312500"><time>2023-06-03T10:47:08.323</time></trkpt><trkpt lat="55.9326000" lon="49.2311200"><time>2023-06-03T10:47:10.310</time></trkpt><trkpt lat="55.9325650" lon="49.2309967"><time>2023-06-03T10:47:12.307</time></trkpt><trkpt lat="55.9325317" lon="49.2308850"><time>2023-06-03T10:47:14.327</time></trkpt><trkpt lat="55.9325000" lon="49.2307817"><time>2023-06-03T10:47:16.327</time></trkpt><trkpt lat="55.9324800" lon="49.2306467"><time>2023-06-03T10:47:18.320</time></trkpt><trkpt lat="55.9324617" lon="49.2305083"><time>2023-06-03T10:47:20.310</time></trkpt><trkpt lat="55.9324433" lon="49.2303967"><time>2023-06-03T10:47:22.323</time></trkpt><trkpt lat="55.9324150" lon="49.2302650"><time>2023-06-03T10:47:24.323</time></trkpt><trkpt lat="55.9324033" lon="49.2301567"><time>2023-06-03T10:47:26.307</time></trkpt><trkpt lat="55.9323867" lon="49.2300250"><time>2023-06-03T10:47:29.317</time></trkpt><trkpt lat="55.9323767" lon="49.2299317"><time>2023-06-03T10:47:31.323</time></trkpt><trkpt lat="55.9323700" lon="49.2298033"><time>2023-06-03T10:47:34.317</time></trkpt><trkpt lat="55.9323567" lon="49.2297267"><time>2023-06-03T10:47:36.323</time></trkpt><trkpt lat="55.9323283" lon="49.2296167"><time>2023-06-03T10:47:39.323</time></trkpt><trkpt lat="55.9323200" lon="49.2295283"><time>2023-06-03T10:47:41.323</time></trkpt><trkpt lat="55.9322983" lon="49.2294467"><time>2023-06-03T10:47:43.327</time></trkpt><trkpt lat="55.9322783" lon="49.2293700"><time>2023-06-03T10:47:45.323</time></trkpt><trkpt lat="55.9322483" lon="49.2292733"><time>2023-06-03T10:47:47.323</time></trkpt><trkpt lat="55.9322183" lon="49.2291700"><time>2023-06-03T10:47:49.327</time></trkpt><trkpt lat="55.9322050" lon="49.2290733"><time>2023-06-03T10:47:51.323</time></trkpt><trkpt lat="55.9321933" lon="49.2289700"><time>2023-06-03T10:47:53.323</time></trkpt><trkpt lat="55.9321800" lon="49.2288800"><time>2023-06-03T10:47:55.327</time></trkpt><trkpt lat="55.9321583" lon="49.2287833"><time>2023-06-03T10:47:57.327</time></trkpt><trkpt lat="55.9321450" lon="49.2286900"><time>2023-06-03T10:47:59.320</time></trkpt><trkpt lat="55.9320983" lon="49.2286033"><time>2023-06-03T10:48:02.310</time></trkpt><trkpt lat="55.9320350" lon="49.2285800"><time>2023-06-03T10:48:04.323</time></trkpt><trkpt lat="55.9319750" lon="49.2285850"><time>2023-06-03T10:48:06.323</time></trkpt><trkpt lat="55.9319150" lon="49.2286017"><time>2023-06-03T10:48:08.320</time></trkpt><trkpt lat="55.9318533" lon="49.2285983"><time>2023-06-03T10:48:10.323</time></trkpt><trkpt lat="55.9317933" lon="49.2285867"><time>2023-06-03T10:48:12.317</time></trkpt><trkpt lat="55.9317500" lon="49.2286100"><time>2023-06-03T10:48:14.323</time></trkpt><trkpt lat="55.9317000" lon="49.2286267"><time>2023-06-03T10:48:16.323</time></trkpt><trkpt lat="55.9316417" lon="49.2286533"><time>2023-06-03T10:48:18.323</time></trkpt><trkpt lat="55.9315933" lon="49.2286967"><time>2023-06-03T10:48:21.323</time></trkpt><trkpt lat="55.9315400" lon="49.2287217"><time>2023-06-03T10:48:24.323</time></trkpt><trkpt lat="55.9314900" lon="49.2287450"><time>2023-06-03T10:48:29.323</time></trkpt><trkpt lat="55.9314433" lon="49.2287567"><time>2023-06-03T10:48:32.320</time></trkpt><trkpt lat="55.9313717" lon="49.2287717"><time>2023-06-03T10:48:35.320</time></trkpt><trkpt lat="55.9313117" lon="49.2287900"><time>2023-06-03T10:48:37.317</time></trkpt><trkpt lat="55.9312367" lon="49.2288167"><time>2023-06-03T10:48:39.323</time></trkpt><trkpt lat="55.9311717" lon="49.2288367"><time>2023-06-03T10:48:41.313</time></trkpt><trkpt lat="55.9311200" lon="49.2288733"><time>2023-06-03T10:48:42.317</time></trkpt><trkpt lat="55.9310717" lon="49.2289100"><time>2023-06-03T10:48:43.317</time></trkpt><trkpt lat="55.9310233" lon="49.2289483"><time>2023-06-03T10:48:44.317</time></trkpt><trkpt lat="55.9309800" lon="49.2289750"><time>2023-06-03T10:48:45.320</time></trkpt><trkpt lat="55.9309083" lon="49.2289917"><time>2023-06-03T10:48:47.320</time></trkpt><trkpt lat="55.9308233" lon="49.2290200"><time>2023-06-03T10:48:49.323</time></trkpt><trkpt lat="55.9307800" lon="49.2290450"><time>2023-06-03T10:48:50.317</time></trkpt><trkpt lat="55.9307033" lon="49.2290917"><time>2023-06-03T10:48:52.320</time></trkpt><trkpt lat="55.9306433" lon="49.2291400"><time>2023-06-03T10:48:54.313</time></trkpt><trkpt lat="55.9305733" lon="49.2292017"><time>2023-06-03T10:48:56.323</time></trkpt><trkpt lat="55.9305217" lon="49.2292483"><time>2023-06-03T10:48:58.313</time></trkpt><trkpt lat="55.9304833" lon="49.2292967"><time>2023-06-03T10:49:01.327</time></trkpt><trkpt lat="55.9304283" lon="49.2293400"><time>2023-06-03T10:49:06.323</time></trkpt><trkpt lat="55.9303767" lon="49.2293583"><time>2023-06-03T10:49:09.283</time></trkpt><trkpt lat="55.9303117" lon="49.2293867"><time>2023-06-03T10:49:12.317</time></trkpt><trkpt lat="55.9302650" lon="49.2294100"><time>2023-06-03T10:49:14.287</time></trkpt><trkpt lat="55.9302117" lon="49.2294683"><time>2023-06-03T10:49:17.327</time></trkpt><trkpt lat="55.9301700" lon="49.2295017"><time>2023-06-03T10:49:19.317</time></trkpt><trkpt lat="55.9301200" lon="49.2295233"><time>2023-06-03T10:49:22.320</time></trkpt><trkpt lat="55.9300500" lon="49.2295533"><time>2023-06-03T10:49:25.327</time></trkpt><trkpt lat="55.9299950" lon="49.2295933"><time>2023-06-03T10:49:27.327</time></trkpt><trkpt lat="55.9299317" lon="49.2296317"><time>2023-06-03T10:49:29.323</time></trkpt><trkpt lat="55.9298767" lon="49.2296933"><time>2023-06-03T10:49:31.330</time></trkpt><trkpt lat="55.9298267" lon="49.2297267"><time>2023-06-03T10:49:33.323</time></trkpt><trkpt lat="55.9297667" lon="49.2297700"><time>2023-06-03T10:49:35.323</time></trkpt><trkpt lat="55.9296983" lon="49.2298200"><time>2023-06-03T10:49:37.327</time></trkpt><trkpt lat="55.9296350" lon="49.2298500"><time>2023-06-03T10:49:39.320</time></trkpt><trkpt lat="55.9295800" lon="49.2298817"><time>2023-06-03T10:49:41.317</time></trkpt><trkpt lat="55.9295383" lon="49.2299133"><time>2023-06-03T10:49:43.323</time></trkpt><trkpt lat="55.9294867" lon="49.2299517"><time>2023-06-03T10:49:45.323</time></trkpt><trkpt lat="55.9294233" lon="49.2300167"><time>2023-06-03T10:49:48.317</time></trkpt><trkpt lat="55.9293800" lon="49.2300500"><time>2023-06-03T10:49:50.320</time></trkpt><trkpt lat="55.9293200" lon="49.2300950"><time>2023-06-03T10:49:52.320</time></trkpt><trkpt lat="55.9292450" lon="49.2301417"><time>2023-06-03T10:49:54.313</time></trkpt><trkpt lat="55.9291867" lon="49.2301633"><time>2023-06-03T10:49:56.317</time></trkpt><trkpt lat="55.9291400" lon="49.2301883"><time>2023-06-03T10:49:58.320</time></trkpt><trkpt lat="55.9290883" lon="49.2302100"><time>2023-06-03T10:50:00.323</time></trkpt><trkpt lat="55.9290383" lon="49.2302867"><time>2023-06-03T10:50:03.317</time></trkpt><trkpt lat="55.9290067" lon="49.2303750"><time>2023-06-03T10:50:05.317</time></trkpt><trkpt lat="55.9289817" lon="49.2304667"><time>2023-06-03T10:50:07.323</time></trkpt><trkpt lat="55.9289667" lon="49.2305700"><time>2023-06-03T10:50:09.323</time></trkpt><trkpt lat="55.9289383" lon="49.2306683"><time>2023-06-03T10:50:11.323</time></trkpt><trkpt lat="55.9289100" lon="49.2307467"><time>2023-06-03T10:50:13.327</time></trkpt><trkpt lat="55.9288883" lon="49.2308300"><time>2023-06-03T10:50:15.307</time></trkpt><trkpt lat="55.9288567" lon="49.2309117"><time>2023-06-03T10:50:17.323</time></trkpt><trkpt lat="55.9288083" lon="49.2309917"><time>2023-06-03T10:50:19.317</time></trkpt><trkpt lat="55.9287833" lon="49.2310583"><time>2023-06-03T10:50:20.320</time></trkpt><trkpt lat="55.9287367" lon="49.2311367"><time>2023-06-03T10:50:22.320</time></trkpt><trkpt lat="55.9286950" lon="49.2311950"><time>2023-06-03T10:50:24.323</time></trkpt><trkpt lat="55.9286517" lon="49.2312550"><time>2023-06-03T10:50:26.300</time></trkpt><trkpt lat="55.9286100" lon="49.2313550"><time>2023-06-03T10:50:28.337</time></trkpt><trkpt lat="55.9286083" lon="49.2313567"><time>2023-06-03T10:50:29.793</time></trkpt><trkpt lat="55.9286083" lon="49.2314467"><time>2023-06-03T10:50:33.313</time></trkpt><trkpt lat="55.9285967" lon="49.2315250"><time>2023-06-03T10:50:36.303</time></trkpt><trkpt lat="55.9285783" lon="49.2316067"><time>2023-06-03T10:50:39.307</time></trkpt><trkpt lat="55.9285333" lon="49.2316783"><time>2023-06-03T10:50:43.310</time></trkpt><trkpt lat="55.9284883" lon="49.2317267"><time>2023-06-03T10:50:46.310</time></trkpt><trkpt lat="55.9284550" lon="49.2318117"><time>2023-06-03T10:50:49.313</time></trkpt><trkpt lat="55.9284467" lon="49.2319000"><time>2023-06-03T10:50:55.317</time></trkpt><trkpt lat="55.9284250" lon="49.2319800"><time>2023-06-03T10:51:01.313</time></trkpt><trkpt lat="55.9284217" lon="49.2320650"><time>2023-06-03T10:51:04.317</time></trkpt><trkpt lat="55.9284300" lon="49.2321533"><time>2023-06-03T10:51:07.310</time></trkpt><trkpt lat="55.9284167" lon="49.2322583"><time>2023-06-03T10:51:10.307</time></trkpt><trkpt lat="55.9284017" lon="49.2323567"><time>2023-06-03T10:51:12.310</time></trkpt><trkpt lat="55.9283867" lon="49.2324350"><time>2023-06-03T10:51:14.317</time></trkpt><trkpt lat="55.9283767" lon="49.2325133"><time>2023-06-03T10:51:16.317</time></trkpt><trkpt lat="55.9283567" lon="49.2326000"><time>2023-06-03T10:51:18.310</time></trkpt><trkpt lat="55.9283333" lon="49.2326850"><time>2023-06-03T10:51:21.307</time></trkpt><trkpt lat="55.9283167" lon="49.2327950"><time>2023-06-03T10:51:24.313</time></trkpt><trkpt lat="55.9283083" lon="49.2329117"><time>2023-06-03T10:51:26.297</time></trkpt><trkpt lat="55.9283000" lon="49.2330233"><time>2023-06-03T10:51:28.307</time></trkpt><trkpt lat="55.9283000" lon="49.2330233"><time>2023-06-03T10:51:29.290</time></trkpt><trkpt lat="55.9282900" lon="49.2331217"><time>2023-06-03T10:51:31.810</time></trkpt><trkpt lat="55.9282800" lon="49.2332167"><time>2023-06-03T10:51:34.317</time></trkpt><trkpt lat="55.9282817" lon="49.2333267"><time>2023-06-03T10:51:37.313</time></trkpt><trkpt lat="55.9282750" lon="49.2334200"><time>2023-06-03T10:51:39.313</time></trkpt><trkpt lat="55.9282883" lon="49.2335167"><time>2023-06-03T10:51:40.313</time></trkpt><trkpt lat="55.9282933" lon="49.2336433"><time>2023-06-03T10:51:42.310</time></trkpt><trkpt lat="55.9282967" lon="49.2337300"><time>2023-06-03T10:51:45.317</time></trkpt><trkpt lat="55.9282900" lon="49.2338317"><time>2023-06-03T10:51:48.327</time></trkpt><trkpt lat="55.9282883" lon="49.2338333"><time>2023-06-03T10:51:49.817</time></trkpt><trkpt lat="55.9282883" lon="49.2339317"><time>2023-06-03T10:51:54.310</time></trkpt><trkpt lat="55.9283050" lon="49.2340333"><time>2023-06-03T10:51:57.307</time></trkpt><trkpt lat="55.9283233" lon="49.2341150"><time>2023-06-03T10:51:59.310</time></trkpt><trkpt lat="55.9283467" lon="49.2341883"><time>2023-06-03T10:52:01.317</time></trkpt><trkpt lat="55.9283767" lon="49.2342600"><time>2023-06-03T10:52:03.337</time></trkpt><trkpt lat="55.9283767" lon="49.2342600"><time>2023-06-03T10:52:03.390</time></trkpt><trkpt lat="55.9284200" lon="49.2343383"><time>2023-06-03T10:52:06.337</time></trkpt><trkpt lat="55.9284200" lon="49.2343367"><time>2023-06-03T10:52:07.830</time></trkpt><trkpt lat="55.9284333" lon="49.2344217"><time>2023-06-03T10:52:12.307</time></trkpt><trkpt lat="55.9283883" lon="49.2343900"><time>2023-06-03T10:52:22.313</time></trkpt><trkpt lat="55.9283883" lon="49.2343100"><time>2023-06-03T10:53:08.317</time></trkpt><trkpt lat="55.9283633" lon="49.2342433"><time>2023-06-03T10:53:11.323</time></trkpt><trkpt lat="55.9283383" lon="49.2341700"><time>2023-06-03T10:53:13.327</time></trkpt><trkpt lat="55.9283300" lon="49.2340783"><time>2023-06-03T10:53:15.323</time></trkpt><trkpt lat="55.9283017" lon="49.2339683"><time>2023-06-03T10:53:17.323</time></trkpt><trkpt lat="55.9282800" lon="49.2338600"><time>2023-06-03T10:53:19.323</time></trkpt><trkpt lat="55.9282600" lon="49.2337533"><time>2023-06-03T10:53:21.320</time></trkpt><trkpt lat="55.9282433" lon="49.2336350"><time>2023-06-03T10:53:23.320</time></trkpt><trkpt lat="55.9282400" lon="49.2335167"><time>2023-06-03T10:53:25.313</time></trkpt><trkpt lat="55.9282500" lon="49.2334133"><time>2023-06-03T10:53:27.320</time></trkpt><trkpt lat="55.9282750" lon="49.2333150"><time>2023-06-03T10:53:29.327</time></trkpt><trkpt lat="55.9282917" lon="49.2332383"><time>2023-06-03T10:53:31.327</time></trkpt><trkpt lat="55.9283133" lon="49.2331583"><time>2023-06-03T10:53:35.300</time></trkpt><trkpt lat="55.9283267" lon="49.2330800"><time>2023-06-03T10:53:38.313</time></trkpt><trkpt lat="55.9283367" lon="49.2330000"><time>2023-06-03T10:53:41.317</time></trkpt><trkpt lat="55.9283633" lon="49.2329067"><time>2023-06-03T10:53:44.327</time></trkpt><trkpt lat="55.9283767" lon="49.2328300"><time>2023-06-03T10:53:46.317</time></trkpt><trkpt lat="55.9283867" lon="49.2327450"><time>2023-06-03T10:53:49.323</time></trkpt><trkpt lat="55.9283850" lon="49.2326367"><time>2023-06-03T10:53:52.323</time></trkpt><trkpt lat="55.9283850" lon="49.2325333"><time>2023-06-03T10:53:54.310</time></trkpt><trkpt lat="55.9283867" lon="49.2324333"><time>2023-06-03T10:53:56.303</time></trkpt><trkpt lat="55.9283867" lon="49.2323467"><time>2023-06-03T10:53:58.320</time></trkpt><trkpt lat="55.9284000" lon="49.2322650"><time>2023-06-03T10:54:04.317</time></trkpt><trkpt lat="55.9283917" lon="49.2321700"><time>2023-06-03T10:54:10.297</time></trkpt><trkpt lat="55.9283983" lon="49.2320833"><time>2023-06-03T10:54:13.320</time></trkpt><trkpt lat="55.9284300" lon="49.2319800"><time>2023-06-03T10:54:16.310</time></trkpt><trkpt lat="55.9284667" lon="49.2319200"><time>2023-06-03T10:54:18.320</time></trkpt><trkpt lat="55.9285033" lon="49.2318267"><time>2023-06-03T10:54:20.320</time></trkpt><trkpt lat="55.9285333" lon="49.2317350"><time>2023-06-03T10:54:22.320</time></trkpt><trkpt lat="55.9285717" lon="49.2316650"><time>2023-06-03T10:54:24.323</time></trkpt><trkpt lat="55.9286250" lon="49.2315950"><time>2023-06-03T10:54:26.320</time></trkpt><trkpt lat="55.9286500" lon="49.2315083"><time>2023-06-03T10:54:28.320</time></trkpt><trkpt lat="55.9286683" lon="49.2314250"><time>2023-06-03T10:54:30.317</time></trkpt><trkpt lat="55.9286867" lon="49.2313400"><time>2023-06-03T10:54:32.323</time></trkpt><trkpt lat="55.9287100" lon="49.2312500"><time>2023-06-03T10:54:34.323</time></trkpt><trkpt lat="55.9287217" lon="49.2311550"><time>2023-06-03T10:54:37.320</time></trkpt><trkpt lat="55.9287467" lon="49.2310417"><time>2023-06-03T10:54:40.320</time></trkpt><trkpt lat="55.9287800" lon="49.2309817"><time>2023-06-03T10:54:42.323</time></trkpt><trkpt lat="55.9288100" lon="49.2309167"><time>2023-06-03T10:54:44.323</time></trkpt><trkpt lat="55.9288617" lon="49.2308600"><time>2023-06-03T10:54:47.323</time></trkpt><trkpt lat="55.9289133" lon="49.2308167"><time>2023-06-03T10:54:49.323</time></trkpt><trkpt lat="55.9289767" lon="49.2307750"><time>2023-06-03T10:54:51.323</time></trkpt><trkpt lat="55.9290367" lon="49.2307267"><time>2023-06-03T10:54:53.300</time></trkpt><trkpt lat="55.9290900" lon="49.2306917"><time>2023-06-03T10:54:55.327</time></trkpt><trkpt lat="55.9291433" lon="49.2306283"><time>2023-06-03T10:54:57.327</time></trkpt><trkpt lat="55.9291900" lon="49.2305833"><time>2023-06-03T10:54:59.323</time></trkpt><trkpt lat="55.9292350" lon="49.2305467"><time>2023-06-03T10:55:01.323</time></trkpt><trkpt lat="55.9292717" lon="49.2305000"><time>2023-06-03T10:55:03.323</time></trkpt><trkpt lat="55.9293283" lon="49.2304483"><time>2023-06-03T10:55:06.320</time></trkpt><trkpt lat="55.9293817" lon="49.2304033"><time>2023-06-03T10:55:08.327</time></trkpt><trkpt lat="55.9294217" lon="49.2303433"><time>2023-06-03T10:55:10.323</time></trkpt><trkpt lat="55.9294783" lon="49.2302933"><time>2023-06-03T10:55:12.323</time></trkpt><trkpt lat="55.9295167" lon="49.2302333"><time>2023-06-03T10:55:14.323</time></trkpt><trkpt lat="55.9295767" lon="49.2301733"><time>2023-06-03T10:55:16.320</time></trkpt><trkpt lat="55.9296417" lon="49.2300933"><time>2023-06-03T10:55:18.287</time></trkpt><trkpt lat="55.9296833" lon="49.2300233"><time>2023-06-03T10:55:19.297</time></trkpt><trkpt lat="55.9297567" lon="49.2299200"><time>2023-06-03T10:55:21.277</time></trkpt><trkpt lat="55.9298150" lon="49.2298333"><time>2023-06-03T10:55:23.317</time></trkpt><trkpt lat="55.9298633" lon="49.2298017"><time>2023-06-03T10:55:24.307</time></trkpt><trkpt lat="55.9299133" lon="49.2297550"><time>2023-06-03T10:55:25.300</time></trkpt><trkpt lat="55.9299783" lon="49.2297017"><time>2023-06-03T10:55:27.310</time></trkpt><trkpt lat="55.9300400" lon="49.2296383"><time>2023-06-03T10:55:29.300</time></trkpt><trkpt lat="55.9300917" lon="49.2295700"><time>2023-06-03T10:55:31.300</time></trkpt><trkpt lat="55.9301483" lon="49.2295133"><time>2023-06-03T10:55:33.317</time></trkpt><trkpt lat="55.9302133" lon="49.2294667"><time>2023-06-03T10:55:35.320</time></trkpt><trkpt lat="55.9302583" lon="49.2294417"><time>2023-06-03T10:55:36.320</time></trkpt><trkpt lat="55.9303317" lon="49.2293900"><time>2023-06-03T10:55:38.307</time></trkpt><trkpt lat="55.9304083" lon="49.2293317"><time>2023-06-03T10:55:40.317</time></trkpt><trkpt lat="55.9304850" lon="49.2292733"><time>2023-06-03T10:55:42.320</time></trkpt><trkpt lat="55.9305550" lon="49.2292067"><time>2023-06-03T10:55:44.320</time></trkpt><trkpt lat="55.9306133" lon="49.2291517"><time>2023-06-03T10:55:46.317</time></trkpt><trkpt lat="55.9306833" lon="49.2291067"><time>2023-06-03T10:55:48.310</time></trkpt><trkpt lat="55.9307550" lon="49.2290583"><time>2023-06-03T10:55:50.317</time></trkpt><trkpt lat="55.9308000" lon="49.2290333"><time>2023-06-03T10:55:51.317</time></trkpt><trkpt lat="55.9308450" lon="49.2290167"><time>2023-06-03T10:55:52.317</time></trkpt><trkpt lat="55.9309067" lon="49.2289700"><time>2023-06-03T10:55:54.317</time></trkpt><trkpt lat="55.9309883" lon="49.2289483"><time>2023-06-03T10:55:56.317</time></trkpt><trkpt lat="55.9310667" lon="49.2288900"><time>2023-06-03T10:55:58.317</time></trkpt><trkpt lat="55.9311333" lon="49.2288350"><time>2023-06-03T10:56:00.317</time></trkpt><trkpt lat="55.9311983" lon="49.2288100"><time>2023-06-03T10:56:02.317</time></trkpt><trkpt lat="55.9312800" lon="49.2287683"><time>2023-06-03T10:56:04.317</time></trkpt><trkpt lat="55.9313233" lon="49.2287417"><time>2023-06-03T10:56:05.320</time></trkpt><trkpt lat="55.9313833" lon="49.2287233"><time>2023-06-03T10:56:06.317</time></trkpt><trkpt lat="55.9314367" lon="49.2286983"><time>2023-06-03T10:56:07.320</time></trkpt><trkpt lat="55.9314900" lon="49.2286617"><time>2023-06-03T10:56:08.300</time></trkpt><trkpt lat="55.9315450" lon="49.2286217"><time>2023-06-03T10:56:09.317</time></trkpt><trkpt lat="55.9315883" lon="49.2285783"><time>2023-06-03T10:56:10.317</time></trkpt><trkpt lat="55.9316367" lon="49.2285267"><time>2023-06-03T10:56:11.317</time></trkpt><trkpt lat="55.9317033" lon="49.2284383"><time>2023-06-03T10:56:13.317</time></trkpt><trkpt lat="55.9317433" lon="49.2283733"><time>2023-06-03T10:56:15.317</time></trkpt><trkpt lat="55.9317783" lon="49.2283167"><time>2023-06-03T10:56:18.317</time></trkpt><trkpt lat="55.9317983" lon="49.2282333"><time>2023-06-03T10:56:24.317</time></trkpt><trkpt lat="55.9318283" lon="49.2281583"><time>2023-06-03T10:56:27.317</time></trkpt><trkpt lat="55.9318650" lon="49.2280850"><time>2023-06-03T10:56:30.317</time></trkpt><trkpt lat="55.9318900" lon="49.2280150"><time>2023-06-03T10:56:34.320</time></trkpt><trkpt lat="55.9319067" lon="49.2279367"><time>2023-06-03T10:56:40.317</time></trkpt><trkpt lat="55.9319067" lon="49.2278483"><time>2023-06-03T10:57:06.323</time></trkpt><trkpt lat="55.9318750" lon="49.2277833"><time>2023-06-03T10:57:08.320</time></trkpt><trkpt lat="55.9318350" lon="49.2276967"><time>2023-06-03T10:57:10.320</time></trkpt><trkpt lat="55.9318017" lon="49.2276050"><time>2023-06-03T10:57:12.320</time></trkpt><trkpt lat="55.9317650" lon="49.2275133"><time>2023-06-03T10:57:14.323</time></trkpt><trkpt lat="55.9317250" lon="49.2274183"><time>2023-06-03T10:57:16.317</time></trkpt><trkpt lat="55.9316783" lon="49.2273050"><time>2023-06-03T10:57:18.317</time></trkpt><trkpt lat="55.9316283" lon="49.2271967"><time>2023-06-03T10:57:20.320</time></trkpt><trkpt lat="55.9315700" lon="49.2270917"><time>2023-06-03T10:57:22.317</time></trkpt><trkpt lat="55.9315150" lon="49.2269950"><time>2023-06-03T10:57:24.317</time></trkpt><trkpt lat="55.9314567" lon="49.2269067"><time>2023-06-03T10:57:26.320</time></trkpt><trkpt lat="55.9314200" lon="49.2268600"><time>2023-06-03T10:57:27.320</time></trkpt><trkpt lat="55.9313650" lon="49.2267433"><time>2023-06-03T10:57:29.313</time></trkpt><trkpt lat="55.9313267" lon="49.2266967"><time>2023-06-03T10:57:30.313</time></trkpt><trkpt lat="55.9312917" lon="49.2266383"><time>2023-06-03T10:57:31.317</time></trkpt><trkpt lat="55.9312617" lon="49.2265767"><time>2023-06-03T10:57:32.320</time></trkpt><trkpt lat="55.9312167" lon="49.2264500"><time>2023-06-03T10:57:34.297</time></trkpt><trkpt lat="55.9311583" lon="49.2263367"><time>2023-06-03T10:57:36.313</time></trkpt><trkpt lat="55.9311233" lon="49.2262767"><time>2023-06-03T10:57:37.317</time></trkpt><trkpt lat="55.9310883" lon="49.2262167"><time>2023-06-03T10:57:38.307</time></trkpt><trkpt lat="55.9310333" lon="49.2261317"><time>2023-06-03T10:57:40.320</time></trkpt><trkpt lat="55.9309817" lon="49.2260517"><time>2023-06-03T10:57:42.310</time></trkpt><trkpt lat="55.9309300" lon="49.2260050"><time>2023-06-03T10:57:44.320</time></trkpt><trkpt lat="55.9308683" lon="49.2259533"><time>2023-06-03T10:57:46.317</time></trkpt><trkpt lat="55.9308150" lon="49.2259050"><time>2023-06-03T10:57:48.320</time></trkpt><trkpt lat="55.9307717" lon="49.2258483"><time>2023-06-03T10:57:50.307</time></trkpt><trkpt lat="55.9306917" lon="49.2258050"><time>2023-06-03T10:57:52.320</time></trkpt><trkpt lat="55.9306467" lon="49.2257867"><time>2023-06-03T10:57:53.277</time></trkpt><trkpt lat="55.9305650" lon="49.2257533"><time>2023-06-03T10:57:55.320</time></trkpt><trkpt lat="55.9305150" lon="49.2257383"><time>2023-06-03T10:57:56.320</time></trkpt><trkpt lat="55.9304417" lon="49.2256850"><time>2023-06-03T10:57:58.307</time></trkpt><trkpt lat="55.9303733" lon="49.2256467"><time>2023-06-03T10:58:00.323</time></trkpt><trkpt lat="55.9303133" lon="49.2256233"><time>2023-06-03T10:58:02.307</time></trkpt><trkpt lat="55.9302433" lon="49.2256150"><time>2023-06-03T10:58:04.320</time></trkpt><trkpt lat="55.9301983" lon="49.2256367"><time>2023-06-03T10:58:07.323</time></trkpt><trkpt lat="55.9301600" lon="49.2256983"><time>2023-06-03T10:58:11.310</time></trkpt><trkpt lat="55.9301050" lon="49.2257367"><time>2023-06-03T10:58:17.327</time></trkpt><trkpt lat="55.9300550" lon="49.2256900"><time>2023-06-03T10:58:19.327</time></trkpt><trkpt lat="55.9299800" lon="49.2256100"><time>2023-06-03T10:58:21.323</time></trkpt><trkpt lat="55.9299400" lon="49.2255617"><time>2023-06-03T10:58:22.323</time></trkpt><trkpt lat="55.9298900" lon="49.2255050"><time>2023-06-03T10:58:23.323</time></trkpt><trkpt lat="55.9298350" lon="49.2254367"><time>2023-06-03T10:58:24.327</time></trkpt><trkpt lat="55.9297867" lon="49.2253800"><time>2023-06-03T10:58:25.327</time></trkpt><trkpt lat="55.9297467" lon="49.2253333"><time>2023-06-03T10:58:26.323</time></trkpt><trkpt lat="55.9296850" lon="49.2252550"><time>2023-06-03T10:58:28.323</time></trkpt><trkpt lat="55.9296350" lon="49.2251617"><time>2023-06-03T10:58:30.320</time></trkpt><trkpt lat="55.9295900" lon="49.2250967"><time>2023-06-03T10:58:32.323</time></trkpt><trkpt lat="55.9295550" lon="49.2250333"><time>2023-06-03T10:58:34.323</time></trkpt><trkpt lat="55.9295150" lon="49.2249833"><time>2023-06-03T10:58:36.323</time></trkpt><trkpt lat="55.9294633" lon="49.2249150"><time>2023-06-03T10:58:38.317</time></trkpt><trkpt lat="55.9294017" lon="49.2248300"><time>2023-06-03T10:58:40.320</time></trkpt><trkpt lat="55.9293300" lon="49.2247467"><time>2023-06-03T10:58:42.323</time></trkpt><trkpt lat="55.9292600" lon="49.2246733"><time>2023-06-03T10:58:44.323</time></trkpt><trkpt lat="55.9292033" lon="49.2246100"><time>2023-06-03T10:58:46.320</time></trkpt><trkpt lat="55.9291533" lon="49.2245350"><time>2023-06-03T10:58:48.323</time></trkpt><trkpt lat="55.9291067" lon="49.2244633"><time>2023-06-03T10:58:50.323</time></trkpt><trkpt lat="55.9290617" lon="49.2243833"><time>2023-06-03T10:58:52.320</time></trkpt><trkpt lat="55.9290250" lon="49.2242850"><time>2023-06-03T10:58:54.320</time></trkpt><trkpt lat="55.9290267" lon="49.2241783"><time>2023-06-03T10:58:56.320</time></trkpt><trkpt lat="55.9290100" lon="49.2240850"><time>2023-06-03T10:58:58.323</time></trkpt><trkpt lat="55.9289717" lon="49.2239917"><time>2023-06-03T10:59:00.327</time></trkpt><trkpt lat="55.9289233" lon="49.2239133"><time>2023-06-03T10:59:02.327</time></trkpt><trkpt lat="55.9288683" lon="49.2238233"><time>2023-06-03T10:59:04.313</time></trkpt><trkpt lat="55.9288000" lon="49.2237317"><time>2023-06-03T10:59:06.323</time></trkpt><trkpt lat="55.9287233" lon="49.2236617"><time>2023-06-03T10:59:08.327</time></trkpt><trkpt lat="55.9286500" lon="49.2236083"><time>2023-06-03T10:59:10.323</time></trkpt><trkpt lat="55.9285717" lon="49.2235467"><time>2023-06-03T10:59:12.323</time></trkpt><trkpt lat="55.9285033" lon="49.2234667"><time>2023-06-03T10:59:14.327</time></trkpt><trkpt lat="55.9284550" lon="49.2233767"><time>2023-06-03T10:59:16.323</time></trkpt><trkpt lat="55.9284150" lon="49.2232883"><time>2023-06-03T10:59:18.320</time></trkpt><trkpt lat="55.9283717" lon="49.2231950"><time>2023-06-03T10:59:20.327</time></trkpt><trkpt lat="55.9283117" lon="49.2231000"><time>2023-06-03T10:59:22.317</time></trkpt><trkpt lat="55.9282583" lon="49.2230233"><time>2023-06-03T10:59:24.327</time></trkpt><trkpt lat="55.9282017" lon="49.2229733"><time>2023-06-03T10:59:26.310</time></trkpt><trkpt lat="55.9281433" lon="49.2229633"><time>2023-06-03T10:59:28.317</time></trkpt><trkpt lat="55.9280933" lon="49.2229417"><time>2023-06-03T10:59:30.327</time></trkpt><trkpt lat="55.9280150" lon="49.2229500"><time>2023-06-03T10:59:32.277</time></trkpt><trkpt lat="55.9279650" lon="49.2229617"><time>2023-06-03T10:59:33.317</time></trkpt><trkpt lat="55.9278867" lon="49.2229950"><time>2023-06-03T10:59:35.317</time></trkpt><trkpt lat="55.9278100" lon="49.2230200"><time>2023-06-03T10:59:37.327</time></trkpt><trkpt lat="55.9277333" lon="49.2230550"><time>2023-06-03T10:59:39.327</time></trkpt><trkpt lat="55.9276500" lon="49.2230950"><time>2023-06-03T10:59:41.323</time></trkpt><trkpt lat="55.9275767" lon="49.2231317"><time>2023-06-03T10:59:43.323</time></trkpt><trkpt lat="55.9274933" lon="49.2231883"><time>2023-06-03T10:59:45.327</time></trkpt><trkpt lat="55.9274500" lon="49.2232133"><time>2023-06-03T10:59:46.287</time></trkpt><trkpt lat="55.9274083" lon="49.2232467"><time>2023-06-03T10:59:47.303</time></trkpt><trkpt lat="55.9273650" lon="49.2232883"><time>2023-06-03T10:59:48.320</time></trkpt><trkpt lat="55.9273217" lon="49.2233217"><time>2023-06-03T10:59:49.317</time></trkpt><trkpt lat="55.9272767" lon="49.2233567"><time>2023-06-03T10:59:50.327</time></trkpt><trkpt lat="55.9272183" lon="49.2233933"><time>2023-06-03T10:59:52.327</time></trkpt><trkpt lat="55.9271367" lon="49.2234367"><time>2023-06-03T10:59:54.297</time></trkpt><trkpt lat="55.9270883" lon="49.2234717"><time>2023-06-03T10:59:55.320</time></trkpt><trkpt lat="55.9270433" lon="49.2234983"><time>2023-06-03T10:59:56.327</time></trkpt><trkpt lat="55.9269900" lon="49.2235217"><time>2023-06-03T10:59:57.323</time></trkpt><trkpt lat="55.9269383" lon="49.2235333"><time>2023-06-03T10:59:58.323</time></trkpt><trkpt lat="55.9268917" lon="49.2235333"><time>2023-06-03T10:59:59.323</time></trkpt><trkpt lat="55.9268450" lon="49.2235400"><time>2023-06-03T11:00:00.323</time></trkpt><trkpt lat="55.9267983" lon="49.2235467"><time>2023-06-03T11:00:01.317</time></trkpt><trkpt lat="55.9267167" lon="49.2235567"><time>2023-06-03T11:00:03.307</time></trkpt><trkpt lat="55.9266367" lon="49.2235550"><time>2023-06-03T11:00:05.320</time></trkpt><trkpt lat="55.9265717" lon="49.2235233"><time>2023-06-03T11:00:07.323</time></trkpt><trkpt lat="55.9265050" lon="49.2234717"><time>2023-06-03T11:00:09.317</time></trkpt><trkpt lat="55.9264633" lon="49.2233983"><time>2023-06-03T11:00:11.323</time></trkpt><trkpt lat="55.9264400" lon="49.2233017"><time>2023-06-03T11:00:13.323</time></trkpt><trkpt lat="55.9264100" lon="49.2231767"><time>2023-06-03T11:00:15.320</time></trkpt><trkpt lat="55.9263683" lon="49.2230650"><time>2023-06-03T11:00:17.327</time></trkpt><trkpt lat="55.9263300" lon="49.2229750"><time>2023-06-03T11:00:19.327</time></trkpt><trkpt lat="55.9262750" lon="49.2228933"><time>2023-06-03T11:00:21.320</time></trkpt><trkpt lat="55.9262250" lon="49.2228283"><time>2023-06-03T11:00:23.323</time></trkpt><trkpt lat="55.9261767" lon="49.2227717"><time>2023-06-03T11:00:25.327</time></trkpt><trkpt lat="55.9261317" lon="49.2227100"><time>2023-06-03T11:00:27.323</time></trkpt><trkpt lat="55.9260800" lon="49.2226800"><time>2023-06-03T11:00:29.323</time></trkpt><trkpt lat="55.9260267" lon="49.2226950"><time>2023-06-03T11:00:31.307</time></trkpt><trkpt lat="55.9259883" lon="49.2227517"><time>2023-06-03T11:00:33.310</time></trkpt><trkpt lat="55.9259617" lon="49.2228333"><time>2023-06-03T11:00:35.307</time></trkpt><trkpt lat="55.9259233" lon="49.2229450"><time>2023-06-03T11:00:37.310</time></trkpt><trkpt lat="55.9258767" lon="49.2230500"><time>2023-06-03T11:00:39.320</time></trkpt><trkpt lat="55.9258367" lon="49.2231500"><time>2023-06-03T11:00:41.317</time></trkpt><trkpt lat="55.9257983" lon="49.2232600"><time>2023-06-03T11:00:43.317</time></trkpt><trkpt lat="55.9257533" lon="49.2233883"><time>2023-06-03T11:00:45.320</time></trkpt><trkpt lat="55.9257133" lon="49.2234683"><time>2023-06-03T11:00:46.320</time></trkpt><trkpt lat="55.9256733" lon="49.2235433"><time>2023-06-03T11:00:47.317</time></trkpt><trkpt lat="55.9256450" lon="49.2236133"><time>2023-06-03T11:00:48.320</time></trkpt><trkpt lat="55.9256067" lon="49.2236817"><time>2023-06-03T11:00:49.317</time></trkpt><trkpt lat="55.9255650" lon="49.2237517"><time>2023-06-03T11:00:50.320</time></trkpt><trkpt lat="55.9255317" lon="49.2238150"><time>2023-06-03T11:00:51.323</time></trkpt><trkpt lat="55.9254733" lon="49.2239183"><time>2023-06-03T11:00:53.313</time></trkpt><trkpt lat="55.9254367" lon="49.2239717"><time>2023-06-03T11:00:54.323</time></trkpt><trkpt lat="55.9253967" lon="49.2240233"><time>2023-06-03T11:00:55.323</time></trkpt><trkpt lat="55.9253300" lon="49.2241267"><time>2023-06-03T11:00:57.323</time></trkpt><trkpt lat="55.9252900" lon="49.2241667"><time>2023-06-03T11:00:58.320</time></trkpt><trkpt lat="55.9252533" lon="49.2242167"><time>2023-06-03T11:00:59.310</time></trkpt><trkpt lat="55.9251833" lon="49.2243033"><time>2023-06-03T11:01:01.317</time></trkpt><trkpt lat="55.9251100" lon="49.2243950"><time>2023-06-03T11:01:03.310</time></trkpt><trkpt lat="55.9250733" lon="49.2244433"><time>2023-06-03T11:01:04.323</time></trkpt><trkpt lat="55.9250067" lon="49.2245067"><time>2023-06-03T11:01:06.323</time></trkpt><trkpt lat="55.9249367" lon="49.2245300"><time>2023-06-03T11:01:08.323</time></trkpt><trkpt lat="55.9248783" lon="49.2245133"><time>2023-06-03T11:01:10.313</time></trkpt><trkpt lat="55.9248250" lon="49.2244867"><time>2023-06-03T11:01:12.323</time></trkpt><trkpt lat="55.9247617" lon="49.2244750"><time>2023-06-03T11:01:14.323</time></trkpt><trkpt lat="55.9246917" lon="49.2245050"><time>2023-06-03T11:01:16.320</time></trkpt><trkpt lat="55.9246467" lon="49.2245433"><time>2023-06-03T11:01:17.323</time></trkpt><trkpt lat="55.9245767" lon="49.2245617"><time>2023-06-03T11:01:19.317</time></trkpt><trkpt lat="55.9245150" lon="49.2245767"><time>2023-06-03T11:01:21.320</time></trkpt><trkpt lat="55.9244600" lon="49.2245917"><time>2023-06-03T11:01:23.317</time></trkpt><trkpt lat="55.9244067" lon="49.2246283"><time>2023-06-03T11:01:24.823</time></trkpt><trkpt lat="55.9243550" lon="49.2246450"><time>2023-06-03T11:01:27.320</time></trkpt><trkpt lat="55.9243367" lon="49.2245633"><time>2023-06-03T11:01:30.323</time></trkpt><trkpt lat="55.9243100" lon="49.2244850"><time>2023-06-03T11:01:32.323</time></trkpt><trkpt lat="55.9242983" lon="49.2243867"><time>2023-06-03T11:01:34.327</time></trkpt><trkpt lat="55.9242850" lon="49.2242683"><time>2023-06-03T11:01:36.353</time></trkpt><trkpt lat="55.9242800" lon="49.2242567"><time>2023-06-03T11:01:37.833</time></trkpt><trkpt lat="55.9242483" lon="49.2241800"><time>2023-06-03T11:01:39.783</time></trkpt><trkpt lat="55.9242583" lon="49.2241017"><time>2023-06-03T11:01:40.807</time></trkpt><trkpt lat="55.9242550" lon="49.2240217"><time>2023-06-03T11:01:42.310</time></trkpt><trkpt lat="55.9242517" lon="49.2239283"><time>2023-06-03T11:01:45.313</time></trkpt><trkpt lat="55.9242617" lon="49.2238150"><time>2023-06-03T11:01:48.310</time></trkpt><trkpt lat="55.9242667" lon="49.2237150"><time>2023-06-03T11:01:51.293</time></trkpt><trkpt lat="55.9242217" lon="49.2236200"><time>2023-06-03T11:01:53.287</time></trkpt><trkpt lat="55.9241700" lon="49.2235167"><time>2023-06-03T11:01:54.290</time></trkpt><trkpt lat="55.9241200" lon="49.2233033"><time>2023-06-03T11:01:55.300</time></trkpt><trkpt lat="55.9240883" lon="49.2231767"><time>2023-06-03T11:01:56.300</time></trkpt><trkpt lat="55.9241333" lon="49.2232517"><time>2023-06-03T11:01:57.297</time></trkpt><trkpt lat="55.9240767" lon="49.2232300"><time>2023-06-03T11:01:59.287</time></trkpt><trkpt lat="55.9240733" lon="49.2230983"><time>2023-06-03T11:02:01.307</time></trkpt><trkpt lat="55.9240250" lon="49.2229883"><time>2023-06-03T11:02:04.293</time></trkpt><trkpt lat="55.9240150" lon="49.2228833"><time>2023-06-03T11:02:07.317</time></trkpt><trkpt lat="55.9239867" lon="49.2227983"><time>2023-06-03T11:02:09.313</time></trkpt><trkpt lat="55.9239533" lon="49.2226950"><time>2023-06-03T11:02:12.317</time></trkpt><trkpt lat="55.9239100" lon="49.2226433"><time>2023-06-03T11:02:18.320</time></trkpt><trkpt lat="55.9238600" lon="49.2226017"><time>2023-06-03T11:02:21.320</time></trkpt><trkpt lat="55.9238283" lon="49.2225083"><time>2023-06-03T11:02:24.320</time></trkpt><trkpt lat="55.9238133" lon="49.2224250"><time>2023-06-03T11:02:26.337</time></trkpt><trkpt lat="55.9238183" lon="49.2224250"><time>2023-06-03T11:02:27.317</time></trkpt><trkpt lat="55.9238333" lon="49.2223467"><time>2023-06-03T11:02:28.810</time></trkpt><trkpt lat="55.9238150" lon="49.2222733"><time>2023-06-03T11:02:29.807</time></trkpt><trkpt lat="55.9238167" lon="49.2221767"><time>2023-06-03T11:02:31.307</time></trkpt><trkpt lat="55.9238550" lon="49.2220933"><time>2023-06-03T11:02:34.310</time></trkpt><trkpt lat="55.9239017" lon="49.2220667"><time>2023-06-03T11:02:36.310</time></trkpt><trkpt lat="55.9239533" lon="49.2220567"><time>2023-06-03T11:02:38.310</time></trkpt><trkpt lat="55.9240067" lon="49.2220283"><time>2023-06-03T11:02:41.313</time></trkpt><trkpt lat="55.9240450" lon="49.2219817"><time>2023-06-03T11:02:43.313</time></trkpt><trkpt lat="55.9240833" lon="49.2219367"><time>2023-06-03T11:02:45.310</time></trkpt><trkpt lat="55.9241283" lon="49.2219133"><time>2023-06-03T11:02:47.313</time></trkpt><trkpt lat="55.9241717" lon="49.2218433"><time>2023-06-03T11:02:50.323</time></trkpt><trkpt lat="55.9241750" lon="49.2218400"><time>2023-06-03T11:02:52.293</time></trkpt><trkpt lat="55.9242117" lon="49.2217883"><time>2023-06-03T11:02:59.310</time></trkpt><trkpt lat="55.9242150" lon="49.2216950"><time>2023-06-03T11:03:08.310</time></trkpt><trkpt lat="55.9242250" lon="49.2215967"><time>2023-06-03T11:03:11.310</time></trkpt><trkpt lat="55.9242483" lon="49.2215200"><time>2023-06-03T11:03:17.287</time></trkpt><trkpt lat="55.9242567" lon="49.2214333"><time>2023-06-03T11:03:24.320</time></trkpt><trkpt lat="55.9242583" lon="49.2213450"><time>2023-06-03T11:03:30.333</time></trkpt><trkpt lat="55.9242583" lon="49.2213450"><time>2023-06-03T11:03:30.413</time></trkpt><trkpt lat="55.9242733" lon="49.2214333"><time>2023-06-03T11:03:39.330</time></trkpt><trkpt lat="55.9242733" lon="49.2214333"><time>2023-06-03T11:03:41.310</time></trkpt><trkpt lat="55.9242683" lon="49.2215383"><time>2023-06-03T11:03:52.310</time></trkpt><trkpt lat="55.9242433" lon="49.2216183"><time>2023-06-03T11:04:04.310</time></trkpt><trkpt lat="55.9242033" lon="49.2216767"><time>2023-06-03T11:04:07.307</time></trkpt><trkpt lat="55.9241767" lon="49.2217467"><time>2023-06-03T11:04:10.317</time></trkpt><trkpt lat="55.9241467" lon="49.2218217"><time>2023-06-03T11:04:13.317</time></trkpt><trkpt lat="55.9241117" lon="49.2218917"><time>2023-06-03T11:04:15.317</time></trkpt><trkpt lat="55.9240717" lon="49.2219350"><time>2023-06-03T11:04:17.313</time></trkpt><trkpt lat="55.9240200" lon="49.2219867"><time>2023-06-03T11:04:19.320</time></trkpt><trkpt lat="55.9239800" lon="49.2220667"><time>2023-06-03T11:04:21.317</time></trkpt><trkpt lat="55.9239483" lon="49.2221450"><time>2023-06-03T11:04:23.320</time></trkpt><trkpt lat="55.9239233" lon="49.2222250"><time>2023-06-03T11:04:25.320</time></trkpt><trkpt lat="55.9238800" lon="49.2222983"><time>2023-06-03T11:04:28.323</time></trkpt><trkpt lat="55.9238400" lon="49.2223850"><time>2023-06-03T11:04:32.320</time></trkpt><trkpt lat="55.9238300" lon="49.2224717"><time>2023-06-03T11:04:34.320</time></trkpt><trkpt lat="55.9238450" lon="49.2225583"><time>2023-06-03T11:04:36.313</time></trkpt><trkpt lat="55.9238983" lon="49.2226233"><time>2023-06-03T11:04:38.317</time></trkpt><trkpt lat="55.9239483" lon="49.2227017"><time>2023-06-03T11:04:40.320</time></trkpt><trkpt lat="55.9239867" lon="49.2227767"><time>2023-06-03T11:04:42.317</time></trkpt><trkpt lat="55.9240250" lon="49.2228733"><time>2023-06-03T11:04:44.317</time></trkpt><trkpt lat="55.9240600" lon="49.2229833"><time>2023-06-03T11:04:46.317</time></trkpt><trkpt lat="55.9241033" lon="49.2231100"><time>2023-06-03T11:04:48.317</time></trkpt><trkpt lat="55.9241433" lon="49.2232383"><time>2023-06-03T11:04:50.317</time></trkpt><trkpt lat="55.9241817" lon="49.2233383"><time>2023-06-03T11:04:52.317</time></trkpt><trkpt lat="55.9241967" lon="49.2234583"><time>2023-06-03T11:04:54.320</time></trkpt><trkpt lat="55.9242067" lon="49.2235767"><time>2023-06-03T11:04:56.317</time></trkpt><trkpt lat="55.9242100" lon="49.2236750"><time>2023-06-03T11:04:58.320</time></trkpt><trkpt lat="55.9241917" lon="49.2237600"><time>2023-06-03T11:05:00.317</time></trkpt><trkpt lat="55.9242000" lon="49.2238683"><time>2023-06-03T11:05:03.317</time></trkpt><trkpt lat="55.9242183" lon="49.2239750"><time>2023-06-03T11:05:05.320</time></trkpt><trkpt lat="55.9242500" lon="49.2240800"><time>2023-06-03T11:05:07.320</time></trkpt><trkpt lat="55.9242717" lon="49.2241600"><time>2023-06-03T11:05:09.317</time></trkpt><trkpt lat="55.9242800" lon="49.2242667"><time>2023-06-03T11:05:12.317</time></trkpt><trkpt lat="55.9242950" lon="49.2243500"><time>2023-06-03T11:05:14.320</time></trkpt><trkpt lat="55.9243267" lon="49.2244533"><time>2023-06-03T11:05:16.320</time></trkpt><trkpt lat="55.9243750" lon="49.2245467"><time>2023-06-03T11:05:18.300</time></trkpt><trkpt lat="55.9244200" lon="49.2246050"><time>2023-06-03T11:05:20.317</time></trkpt><trkpt lat="55.9244600" lon="49.2246550"><time>2023-06-03T11:05:22.323</time></trkpt><trkpt lat="55.9245017" lon="49.2246933"><time>2023-06-03T11:05:24.320</time></trkpt><trkpt lat="55.9245450" lon="49.2247317"><time>2023-06-03T11:05:26.320</time></trkpt><trkpt lat="55.9245933" lon="49.2247800"><time>2023-06-03T11:05:28.320</time></trkpt><trkpt lat="55.9246583" lon="49.2248100"><time>2023-06-03T11:05:30.320</time></trkpt><trkpt lat="55.9247283" lon="49.2248367"><time>2023-06-03T11:05:32.323</time></trkpt><trkpt lat="55.9247967" lon="49.2248267"><time>2023-06-03T11:05:34.320</time></trkpt><trkpt lat="55.9248650" lon="49.2248000"><time>2023-06-03T11:05:36.320</time></trkpt><trkpt lat="55.9249450" lon="49.2247400"><time>2023-06-03T11:05:38.317</time></trkpt><trkpt lat="55.9250167" lon="49.2246567"><time>2023-06-03T11:05:40.320</time></trkpt><trkpt lat="55.9250883" lon="49.2245683"><time>2023-06-03T11:05:42.317</time></trkpt><trkpt lat="55.9251300" lon="49.2245283"><time>2023-06-03T11:05:43.307</time></trkpt><trkpt lat="55.9251817" lon="49.2244733"><time>2023-06-03T11:05:44.310</time></trkpt><trkpt lat="55.9252150" lon="49.2244167"><time>2023-06-03T11:05:45.310</time></trkpt><trkpt lat="55.9252750" lon="49.2243250"><time>2023-06-03T11:05:47.320</time></trkpt><trkpt lat="55.9253100" lon="49.2242733"><time>2023-06-03T11:05:48.320</time></trkpt><trkpt lat="55.9253483" lon="49.2242317"><time>2023-06-03T11:05:49.320</time></trkpt><trkpt lat="55.9254117" lon="49.2241150"><time>2023-06-03T11:05:51.317</time></trkpt><trkpt lat="55.9254450" lon="49.2240017"><time>2023-06-03T11:05:53.317</time></trkpt><trkpt lat="55.9254850" lon="49.2238983"><time>2023-06-03T11:05:55.320</time></trkpt><trkpt lat="55.9255317" lon="49.2238167"><time>2023-06-03T11:05:57.320</time></trkpt><trkpt lat="55.9255817" lon="49.2237267"><time>2023-06-03T11:05:59.320</time></trkpt><trkpt lat="55.9256383" lon="49.2236367"><time>2023-06-03T11:06:01.317</time></trkpt><trkpt lat="55.9256800" lon="49.2235367"><time>2023-06-03T11:06:03.320</time></trkpt><trkpt lat="55.9257233" lon="49.2234300"><time>2023-06-03T11:06:05.320</time></trkpt><trkpt lat="55.9257717" lon="49.2233267"><time>2023-06-03T11:06:07.320</time></trkpt><trkpt lat="55.9258150" lon="49.2232050"><time>2023-06-03T11:06:09.320</time></trkpt><trkpt lat="55.9258700" lon="49.2230817"><time>2023-06-03T11:06:11.320</time></trkpt><trkpt lat="55.9258983" lon="49.2230150"><time>2023-06-03T11:06:12.320</time></trkpt><trkpt lat="55.9259617" lon="49.2228983"><time>2023-06-03T11:06:14.320</time></trkpt><trkpt lat="55.9259917" lon="49.2228367"><time>2023-06-03T11:06:15.300</time></trkpt><trkpt lat="55.9260317" lon="49.2227100"><time>2023-06-03T11:06:17.320</time></trkpt><trkpt lat="55.9260517" lon="49.2226383"><time>2023-06-03T11:06:18.317</time></trkpt><trkpt lat="55.9260767" lon="49.2225367"><time>2023-06-03T11:06:20.320</time></trkpt><trkpt lat="55.9260933" lon="49.2224283"><time>2023-06-03T11:06:22.320</time></trkpt><trkpt lat="55.9261217" lon="49.2223200"><time>2023-06-03T11:06:24.320</time></trkpt><trkpt lat="55.9261767" lon="49.2222283"><time>2023-06-03T11:06:26.317</time></trkpt><trkpt lat="55.9262467" lon="49.2221500"><time>2023-06-03T11:06:28.320</time></trkpt><trkpt lat="55.9263000" lon="49.2221150"><time>2023-06-03T11:06:30.320</time></trkpt><trkpt lat="55.9263517" lon="49.2220517"><time>2023-06-03T11:06:32.323</time></trkpt><trkpt lat="55.9264183" lon="49.2219933"><time>2023-06-03T11:06:34.317</time></trkpt><trkpt lat="55.9264883" lon="49.2219350"><time>2023-06-03T11:06:36.317</time></trkpt><trkpt lat="55.9265483" lon="49.2218800"><time>2023-06-03T11:06:38.320</time></trkpt><trkpt lat="55.9265983" lon="49.2218200"><time>2023-06-03T11:06:40.317</time></trkpt><trkpt lat="55.9266600" lon="49.2217583"><time>2023-06-03T11:06:42.320</time></trkpt><trkpt lat="55.9267017" lon="49.2217200"><time>2023-06-03T11:06:43.317</time></trkpt><trkpt lat="55.9267667" lon="49.2216917"><time>2023-06-03T11:06:45.317</time></trkpt><trkpt lat="55.9268117" lon="49.2216617"><time>2023-06-03T11:06:46.320</time></trkpt><trkpt lat="55.9268567" lon="49.2216250"><time>2023-06-03T11:06:47.320</time></trkpt><trkpt lat="55.9269083" lon="49.2215850"><time>2023-06-03T11:06:48.320</time></trkpt><trkpt lat="55.9269517" lon="49.2215467"><time>2023-06-03T11:06:49.320</time></trkpt><trkpt lat="55.9269983" lon="49.2215067"><time>2023-06-03T11:06:50.320</time></trkpt><trkpt lat="55.9270417" lon="49.2214617"><time>2023-06-03T11:06:51.320</time></trkpt><trkpt lat="55.9270783" lon="49.2214133"><time>2023-06-03T11:06:52.320</time></trkpt><trkpt lat="55.9271500" lon="49.2213233"><time>2023-06-03T11:06:54.317</time></trkpt><trkpt lat="55.9272167" lon="49.2212333"><time>2023-06-03T11:06:56.320</time></trkpt><trkpt lat="55.9272850" lon="49.2211417"><time>2023-06-03T11:06:58.320</time></trkpt><trkpt lat="55.9273250" lon="49.2210900"><time>2023-06-03T11:06:59.317</time></trkpt><trkpt lat="55.9273733" lon="49.2210133"><time>2023-06-03T11:07:01.320</time></trkpt><trkpt lat="55.9274233" lon="49.2209450"><time>2023-06-03T11:07:03.320</time></trkpt><trkpt lat="55.9274767" lon="49.2208767"><time>2023-06-03T11:07:05.317</time></trkpt><trkpt lat="55.9275283" lon="49.2207983"><time>2023-06-03T11:07:07.320</time></trkpt><trkpt lat="55.9275717" lon="49.2207200"><time>2023-06-03T11:07:09.320</time></trkpt><trkpt lat="55.9276217" lon="49.2206750"><time>2023-06-03T11:07:11.310</time></trkpt><trkpt lat="55.9276717" lon="49.2206450"><time>2023-06-03T11:07:13.317</time></trkpt><trkpt lat="55.9277150" lon="49.2205983"><time>2023-06-03T11:07:15.317</time></trkpt><trkpt lat="55.9277617" lon="49.2205700"><time>2023-06-03T11:07:17.317</time></trkpt><trkpt lat="55.9278083" lon="49.2205450"><time>2023-06-03T11:07:19.320</time></trkpt><trkpt lat="55.9278567" lon="49.2205217"><time>2023-06-03T11:07:21.317</time></trkpt><trkpt lat="55.9279133" lon="49.2205017"><time>2023-06-03T11:07:23.320</time></trkpt><trkpt lat="55.9279700" lon="49.2204683"><time>2023-06-03T11:07:25.320</time></trkpt><trkpt lat="55.9280317" lon="49.2204000"><time>2023-06-03T11:07:28.317</time></trkpt><trkpt lat="55.9280983" lon="49.2203600"><time>2023-06-03T11:07:30.320</time></trkpt><trkpt lat="55.9281500" lon="49.2202933"><time>2023-06-03T11:07:32.317</time></trkpt><trkpt lat="55.9282050" lon="49.2202583"><time>2023-06-03T11:07:34.320</time></trkpt><trkpt lat="55.9282533" lon="49.2202467"><time>2023-06-03T11:07:36.317</time></trkpt><trkpt lat="55.9283383" lon="49.2202083"><time>2023-06-03T11:07:38.317</time></trkpt><trkpt lat="55.9284150" lon="49.2201500"><time>2023-06-03T11:07:40.313</time></trkpt><trkpt lat="55.9284617" lon="49.2201283"><time>2023-06-03T11:07:41.313</time></trkpt><trkpt lat="55.9285100" lon="49.2201133"><time>2023-06-03T11:07:42.317</time></trkpt><trkpt lat="55.9285550" lon="49.2200850"><time>2023-06-03T11:07:43.313</time></trkpt><trkpt lat="55.9286250" lon="49.2200367"><time>2023-06-03T11:07:45.317</time></trkpt><trkpt lat="55.9287033" lon="49.2200000"><time>2023-06-03T11:07:47.317</time></trkpt><trkpt lat="55.9287600" lon="49.2199483"><time>2023-06-03T11:07:49.317</time></trkpt><trkpt lat="55.9288183" lon="49.2198933"><time>2023-06-03T11:07:51.317</time></trkpt><trkpt lat="55.9288683" lon="49.2198317"><time>2023-06-03T11:07:53.317</time></trkpt><trkpt lat="55.9289150" lon="49.2197933"><time>2023-06-03T11:07:55.313</time></trkpt><trkpt lat="55.9289900" lon="49.2197383"><time>2023-06-03T11:07:57.317</time></trkpt><trkpt lat="55.9290683" lon="49.2196850"><time>2023-06-03T11:07:59.313</time></trkpt><trkpt lat="55.9291433" lon="49.2196250"><time>2023-06-03T11:08:01.323</time></trkpt><trkpt lat="55.9292200" lon="49.2195650"><time>2023-06-03T11:08:03.317</time></trkpt><trkpt lat="55.9292650" lon="49.2195400"><time>2023-06-03T11:08:04.317</time></trkpt><trkpt lat="55.9293117" lon="49.2195200"><time>2023-06-03T11:08:05.320</time></trkpt><trkpt lat="55.9293667" lon="49.2194983"><time>2023-06-03T11:08:06.320</time></trkpt><trkpt lat="55.9294117" lon="49.2194800"><time>2023-06-03T11:08:07.320</time></trkpt><trkpt lat="55.9294733" lon="49.2194583"><time>2023-06-03T11:08:08.320</time></trkpt><trkpt lat="55.9295317" lon="49.2194217"><time>2023-06-03T11:08:09.323</time></trkpt><trkpt lat="55.9295967" lon="49.2193833"><time>2023-06-03T11:08:10.320</time></trkpt><trkpt lat="55.9296567" lon="49.2193467"><time>2023-06-03T11:08:11.317</time></trkpt><trkpt lat="55.9297067" lon="49.2192917"><time>2023-06-03T11:08:12.320</time></trkpt><trkpt lat="55.9297483" lon="49.2192500"><time>2023-06-03T11:08:13.320</time></trkpt><trkpt lat="55.9298200" lon="49.2191683"><time>2023-06-03T11:08:15.320</time></trkpt><trkpt lat="55.9298850" lon="49.2191150"><time>2023-06-03T11:08:17.320</time></trkpt><trkpt lat="55.9299317" lon="49.2190600"><time>2023-06-03T11:08:18.323</time></trkpt><trkpt lat="55.9299967" lon="49.2189733"><time>2023-06-03T11:08:20.320</time></trkpt><trkpt lat="55.9300367" lon="49.2189150"><time>2023-06-03T11:08:21.320</time></trkpt><trkpt lat="55.9300750" lon="49.2188683"><time>2023-06-03T11:08:22.320</time></trkpt><trkpt lat="55.9301367" lon="49.2187417"><time>2023-06-03T11:08:24.320</time></trkpt><trkpt lat="55.9301733" lon="49.2186867"><time>2023-06-03T11:08:25.320</time></trkpt><trkpt lat="55.9302517" lon="49.2185567"><time>2023-06-03T11:08:27.317</time></trkpt><trkpt lat="55.9302883" lon="49.2185000"><time>2023-06-03T11:08:28.317</time></trkpt><trkpt lat="55.9303633" lon="49.2184150"><time>2023-06-03T11:08:30.317</time></trkpt><trkpt lat="55.9304383" lon="49.2183417"><time>2023-06-03T11:08:32.320</time></trkpt><trkpt lat="55.9305033" lon="49.2182683"><time>2023-06-03T11:08:34.317</time></trkpt><trkpt lat="55.9305700" lon="49.2182050"><time>2023-06-03T11:08:36.323</time></trkpt><trkpt lat="55.9306383" lon="49.2181250"><time>2023-06-03T11:08:38.320</time></trkpt><trkpt lat="55.9306767" lon="49.2180817"><time>2023-06-03T11:08:39.320</time></trkpt><trkpt lat="55.9307500" lon="49.2180067"><time>2023-06-03T11:08:41.320</time></trkpt><trkpt lat="55.9308200" lon="49.2179233"><time>2023-06-03T11:08:43.320</time></trkpt><trkpt lat="55.9308600" lon="49.2178800"><time>2023-06-03T11:08:44.317</time></trkpt><trkpt lat="55.9309400" lon="49.2178150"><time>2023-06-03T11:08:46.317</time></trkpt><trkpt lat="55.9310283" lon="49.2177617"><time>2023-06-03T11:08:48.320</time></trkpt><trkpt lat="55.9310717" lon="49.2177267"><time>2023-06-03T11:08:49.320</time></trkpt><trkpt lat="55.9311417" lon="49.2176750"><time>2023-06-03T11:08:51.320</time></trkpt><trkpt lat="55.9312033" lon="49.2176200"><time>2023-06-03T11:08:53.320</time></trkpt><trkpt lat="55.9312717" lon="49.2175717"><time>2023-06-03T11:08:55.320</time></trkpt><trkpt lat="55.9313533" lon="49.2175117"><time>2023-06-03T11:08:57.320</time></trkpt><trkpt lat="55.9314283" lon="49.2174383"><time>2023-06-03T11:08:59.317</time></trkpt><trkpt lat="55.9314900" lon="49.2173850"><time>2023-06-03T11:09:01.290</time></trkpt><trkpt lat="55.9315350" lon="49.2173450"><time>2023-06-03T11:09:02.317</time></trkpt><trkpt lat="55.9315833" lon="49.2173100"><time>2023-06-03T11:09:03.313</time></trkpt><trkpt lat="55.9316300" lon="49.2172783"><time>2023-06-03T11:09:04.317</time></trkpt><trkpt lat="55.9316883" lon="49.2172500"><time>2023-06-03T11:09:06.320</time></trkpt><trkpt lat="55.9317533" lon="49.2171917"><time>2023-06-03T11:09:08.320</time></trkpt><trkpt lat="55.9318133" lon="49.2171700"><time>2023-06-03T11:09:10.313</time></trkpt><trkpt lat="55.9318800" lon="49.2171517"><time>2023-06-03T11:09:12.320</time></trkpt><trkpt lat="55.9319583" lon="49.2171300"><time>2023-06-03T11:09:14.317</time></trkpt><trkpt lat="55.9320383" lon="49.2170700"><time>2023-06-03T11:09:16.320</time></trkpt><trkpt lat="55.9320933" lon="49.2170400"><time>2023-06-03T11:09:17.320</time></trkpt><trkpt lat="55.9321500" lon="49.2170050"><time>2023-06-03T11:09:18.307</time></trkpt><trkpt lat="55.9322050" lon="49.2169667"><time>2023-06-03T11:09:19.313</time></trkpt><trkpt lat="55.9322550" lon="49.2169383"><time>2023-06-03T11:09:20.317</time></trkpt><trkpt lat="55.9323067" lon="49.2169067"><time>2023-06-03T11:09:21.317</time></trkpt><trkpt lat="55.9323517" lon="49.2168733"><time>2023-06-03T11:09:22.287</time></trkpt><trkpt lat="55.9323917" lon="49.2168350"><time>2023-06-03T11:09:23.297</time></trkpt><trkpt lat="55.9324500" lon="49.2167833"><time>2023-06-03T11:09:25.320</time></trkpt><trkpt lat="55.9324933" lon="49.2167617"><time>2023-06-03T11:09:26.320</time></trkpt><trkpt lat="55.9325600" lon="49.2167100"><time>2023-06-03T11:09:28.320</time></trkpt><trkpt lat="55.9326017" lon="49.2166633"><time>2023-06-03T11:09:30.317</time></trkpt><trkpt lat="55.9326767" lon="49.2166333"><time>2023-06-03T11:09:32.320</time></trkpt><trkpt lat="55.9327367" lon="49.2165850"><time>2023-06-03T11:09:34.320</time></trkpt><trkpt lat="55.9328183" lon="49.2165150"><time>2023-06-03T11:09:36.320</time></trkpt><trkpt lat="55.9328650" lon="49.2164933"><time>2023-06-03T11:09:37.320</time></trkpt><trkpt lat="55.9329083" lon="49.2164667"><time>2023-06-03T11:09:38.317</time></trkpt><trkpt lat="55.9329583" lon="49.2164433"><time>2023-06-03T11:09:39.317</time></trkpt><trkpt lat="55.9330217" lon="49.2164100"><time>2023-06-03T11:09:40.317</time></trkpt><trkpt lat="55.9330717" lon="49.2163650"><time>2023-06-03T11:09:41.320</time></trkpt><trkpt lat="55.9331233" lon="49.2163100"><time>2023-06-03T11:09:42.320</time></trkpt><trkpt lat="55.9331917" lon="49.2162283"><time>2023-06-03T11:09:44.320</time></trkpt><trkpt lat="55.9332283" lon="49.2161800"><time>2023-06-03T11:09:45.320</time></trkpt><trkpt lat="55.9332650" lon="49.2161317"><time>2023-06-03T11:09:46.317</time></trkpt><trkpt lat="55.9333167" lon="49.2160417"><time>2023-06-03T11:09:48.320</time></trkpt><trkpt lat="55.9333800" lon="49.2159567"><time>2023-06-03T11:09:50.313</time></trkpt><trkpt lat="55.9334117" lon="49.2158433"><time>2023-06-03T11:09:52.317</time></trkpt><trkpt lat="55.9334567" lon="49.2157200"><time>2023-06-03T11:09:54.317</time></trkpt><trkpt lat="55.9335150" lon="49.2156317"><time>2023-06-03T11:09:56.317</time></trkpt><trkpt lat="55.9335700" lon="49.2155317"><time>2023-06-03T11:09:58.317</time></trkpt><trkpt lat="55.9336250" lon="49.2154883"><time>2023-06-03T11:10:00.320</time></trkpt><trkpt lat="55.9336733" lon="49.2154217"><time>2023-06-03T11:10:02.317</time></trkpt><trkpt lat="55.9337250" lon="49.2153517"><time>2023-06-03T11:10:04.320</time></trkpt><trkpt lat="55.9337650" lon="49.2153150"><time>2023-06-03T11:10:05.320</time></trkpt><trkpt lat="55.9338050" lon="49.2152767"><time>2023-06-03T11:10:06.317</time></trkpt><trkpt lat="55.9338683" lon="49.2151950"><time>2023-06-03T11:10:08.320</time></trkpt><trkpt lat="55.9339183" lon="49.2151067"><time>2023-06-03T11:10:10.320</time></trkpt><trkpt lat="55.9339750" lon="49.2150317"><time>2023-06-03T11:10:12.320</time></trkpt><trkpt lat="55.9340183" lon="49.2149517"><time>2023-06-03T11:10:14.317</time></trkpt><trkpt lat="55.9340550" lon="49.2149033"><time>2023-06-03T11:10:16.280</time></trkpt><trkpt lat="55.9341000" lon="49.2148500"><time>2023-06-03T11:10:18.317</time></trkpt><trkpt lat="55.9341217" lon="49.2147433"><time>2023-06-03T11:10:20.317</time></trkpt><trkpt lat="55.9341550" lon="49.2146600"><time>2023-06-03T11:10:22.320</time></trkpt><trkpt lat="55.9341967" lon="49.2145917"><time>2023-06-03T11:10:24.323</time></trkpt><trkpt lat="55.9342450" lon="49.2145133"><time>2023-06-03T11:10:26.310</time></trkpt><trkpt lat="55.9342817" lon="49.2144267"><time>2023-06-03T11:10:28.323</time></trkpt><trkpt lat="55.9343217" lon="49.2143717"><time>2023-06-03T11:10:30.320</time></trkpt><trkpt lat="55.9343517" lon="49.2143083"><time>2023-06-03T11:10:32.320</time></trkpt><trkpt lat="55.9343983" lon="49.2142300"><time>2023-06-03T11:10:34.290</time></trkpt><trkpt lat="55.9344517" lon="49.2141133"><time>2023-06-03T11:10:36.317</time></trkpt><trkpt lat="55.9344867" lon="49.2140133"><time>2023-06-03T11:10:38.320</time></trkpt><trkpt lat="55.9345267" lon="49.2139600"><time>2023-06-03T11:10:40.320</time></trkpt><trkpt lat="55.9345717" lon="49.2139083"><time>2023-06-03T11:10:42.317</time></trkpt><trkpt lat="55.9346300" lon="49.2138217"><time>2023-06-03T11:10:44.317</time></trkpt><trkpt lat="55.9346833" lon="49.2137567"><time>2023-06-03T11:10:46.320</time></trkpt><trkpt lat="55.9347317" lon="49.2137067"><time>2023-06-03T11:10:48.320</time></trkpt><trkpt lat="55.9347850" lon="49.2136533"><time>2023-06-03T11:10:50.320</time></trkpt><trkpt lat="55.9348500" lon="49.2135933"><time>2023-06-03T11:10:52.307</time></trkpt><trkpt lat="55.9349117" lon="49.2135417"><time>2023-06-03T11:10:54.320</time></trkpt><trkpt lat="55.9349717" lon="49.2134917"><time>2023-06-03T11:10:56.330</time></trkpt><trkpt lat="55.9350333" lon="49.2134100"><time>2023-06-03T11:10:58.323</time></trkpt><trkpt lat="55.9350767" lon="49.2133517"><time>2023-06-03T11:10:59.317</time></trkpt><trkpt lat="55.9351217" lon="49.2132950"><time>2023-06-03T11:11:00.323</time></trkpt><trkpt lat="55.9351617" lon="49.2132500"><time>2023-06-03T11:11:01.313</time></trkpt><trkpt lat="55.9352017" lon="49.2132100"><time>2023-06-03T11:11:02.320</time></trkpt><trkpt lat="55.9352717" lon="49.2131400"><time>2023-06-03T11:11:04.320</time></trkpt><trkpt lat="55.9353383" lon="49.2130600"><time>2023-06-03T11:11:06.320</time></trkpt><trkpt lat="55.9353983" lon="49.2129883"><time>2023-06-03T11:11:08.323</time></trkpt><trkpt lat="55.9354417" lon="49.2129600"><time>2023-06-03T11:11:10.320</time></trkpt><trkpt lat="55.9354850" lon="49.2129367"><time>2023-06-03T11:11:13.320</time></trkpt><trkpt lat="55.9355367" lon="49.2129000"><time>2023-06-03T11:11:21.317</time></trkpt><trkpt lat="55.9355033" lon="49.2129800"><time>2023-06-03T11:11:34.320</time></trkpt><trkpt lat="55.9354733" lon="49.2130567"><time>2023-06-03T11:11:36.323</time></trkpt><trkpt lat="55.9354617" lon="49.2131467"><time>2023-06-03T11:11:39.317</time></trkpt><trkpt lat="55.9354600" lon="49.2132400"><time>2023-06-03T11:11:41.313</time></trkpt><trkpt lat="55.9354767" lon="49.2133417"><time>2023-06-03T11:11:43.320</time></trkpt><trkpt lat="55.9355150" lon="49.2134433"><time>2023-06-03T11:11:45.323</time></trkpt><trkpt lat="55.9355500" lon="49.2135267"><time>2023-06-03T11:11:47.307</time></trkpt><trkpt lat="55.9355817" lon="49.2136200"><time>2023-06-03T11:11:49.317</time></trkpt><trkpt lat="55.9356133" lon="49.2137150"><time>2023-06-03T11:11:51.320</time></trkpt><trkpt lat="55.9356267" lon="49.2138250"><time>2023-06-03T11:11:53.317</time></trkpt><trkpt lat="55.9356400" lon="49.2139233"><time>2023-06-03T11:11:55.317</time></trkpt><trkpt lat="55.9356683" lon="49.2140217"><time>2023-06-03T11:11:57.317</time></trkpt><trkpt lat="55.9357117" lon="49.2141017"><time>2023-06-03T11:11:59.320</time></trkpt><trkpt lat="55.9357650" lon="49.2141600"><time>2023-06-03T11:12:01.320</time></trkpt><trkpt lat="55.9358117" lon="49.2141900"><time>2023-06-03T11:12:03.320</time></trkpt><trkpt lat="55.9358817" lon="49.2142483"><time>2023-06-03T11:12:05.323</time></trkpt><trkpt lat="55.9359367" lon="49.2143400"><time>2023-06-03T11:12:07.323</time></trkpt><trkpt lat="55.9359783" lon="49.2144533"><time>2023-06-03T11:12:09.313</time></trkpt><trkpt lat="55.9360033" lon="49.2145767"><time>2023-06-03T11:12:11.320</time></trkpt><trkpt lat="55.9360267" lon="49.2146983"><time>2023-06-03T11:12:13.320</time></trkpt><trkpt lat="55.9360467" lon="49.2148133"><time>2023-06-03T11:12:15.317</time></trkpt><trkpt lat="55.9360667" lon="49.2149233"><time>2023-06-03T11:12:17.323</time></trkpt><trkpt lat="55.9360650" lon="49.2150350"><time>2023-06-03T11:12:19.320</time></trkpt><trkpt lat="55.9360683" lon="49.2151400"><time>2023-06-03T11:12:21.320</time></trkpt><trkpt lat="55.9360700" lon="49.2152317"><time>2023-06-03T11:12:23.320</time></trkpt><trkpt lat="55.9360900" lon="49.2153450"><time>2023-06-03T11:12:26.323</time></trkpt><trkpt lat="55.9361233" lon="49.2154017"><time>2023-06-03T11:12:28.320</time></trkpt><trkpt lat="55.9361683" lon="49.2154933"><time>2023-06-03T11:12:30.340</time></trkpt><trkpt lat="55.9361700" lon="49.2154950"><time>2023-06-03T11:12:31.800</time></trkpt><trkpt lat="55.9362000" lon="49.2155717"><time>2023-06-03T11:12:35.310</time></trkpt><trkpt lat="55.9362367" lon="49.2156467"><time>2023-06-03T11:12:37.303</time></trkpt><trkpt lat="55.9362800" lon="49.2157283"><time>2023-06-03T11:12:40.310</time></trkpt><trkpt lat="55.9363117" lon="49.2158150"><time>2023-06-03T11:12:42.307</time></trkpt><trkpt lat="55.9363200" lon="49.2159050"><time>2023-06-03T11:12:44.310</time></trkpt><trkpt lat="55.9363467" lon="49.2160067"><time>2023-06-03T11:12:46.307</time></trkpt><trkpt lat="55.9363867" lon="49.2161100"><time>2023-06-03T11:12:47.310</time></trkpt><trkpt lat="55.9364583" lon="49.2162683"><time>2023-06-03T11:12:48.310</time></trkpt><trkpt lat="55.9364917" lon="49.2163317"><time>2023-06-03T11:12:49.310</time></trkpt><trkpt lat="55.9365300" lon="49.2164117"><time>2023-06-03T11:12:50.310</time></trkpt><trkpt lat="55.9365650" lon="49.2164783"><time>2023-06-03T11:12:51.313</time></trkpt><trkpt lat="55.9365933" lon="49.2165450"><time>2023-06-03T11:12:52.310</time></trkpt><trkpt lat="55.9366383" lon="49.2166583"><time>2023-06-03T11:12:54.310</time></trkpt><trkpt lat="55.9366633" lon="49.2167767"><time>2023-06-03T11:12:56.310</time></trkpt><trkpt lat="55.9366717" lon="49.2169117"><time>2023-06-03T11:12:58.327</time></trkpt><trkpt lat="55.9366717" lon="49.2169200"><time>2023-06-03T11:13:00.303</time></trkpt><trkpt lat="55.9366733" lon="49.2170333"><time>2023-06-03T11:13:03.303</time></trkpt><trkpt lat="55.9366833" lon="49.2171383"><time>2023-06-03T11:13:05.297</time></trkpt><trkpt lat="55.9367050" lon="49.2172467"><time>2023-06-03T11:13:07.307</time></trkpt><trkpt lat="55.9367300" lon="49.2173583"><time>2023-06-03T11:13:09.313</time></trkpt><trkpt lat="55.9367467" lon="49.2174800"><time>2023-06-03T11:13:11.310</time></trkpt><trkpt lat="55.9367583" lon="49.2175983"><time>2023-06-03T11:13:13.287</time></trkpt><trkpt lat="55.9367867" lon="49.2176783"><time>2023-06-03T11:13:15.327</time></trkpt><trkpt lat="55.9367883" lon="49.2176867"><time>2023-06-03T11:13:17.300</time></trkpt><trkpt lat="55.9367867" lon="49.2177933"><time>2023-06-03T11:13:19.290</time></trkpt><trkpt lat="55.9367983" lon="49.2178883"><time>2023-06-03T11:13:21.300</time></trkpt><trkpt lat="55.9368300" lon="49.2179700"><time>2023-06-03T11:13:22.300</time></trkpt><trkpt lat="55.9368317" lon="49.2180600"><time>2023-06-03T11:13:23.297</time></trkpt><trkpt lat="55.9368400" lon="49.2181467"><time>2023-06-03T11:13:24.310</time></trkpt><trkpt lat="55.9368400" lon="49.2181467"><time>2023-06-03T11:13:24.360</time></trkpt><trkpt lat="55.9369317" lon="49.2185433"><time>2023-06-03T11:13:25.310</time></trkpt><trkpt lat="55.9369333" lon="49.2185500"><time>2023-06-03T11:13:26.277</time></trkpt><trkpt lat="55.9369333" lon="49.2186433"><time>2023-06-03T11:13:27.333</time></trkpt><trkpt lat="55.9369283" lon="49.2187383"><time>2023-06-03T11:13:29.337</time></trkpt><trkpt lat="55.9369517" lon="49.2188317"><time>2023-06-03T11:13:32.337</time></trkpt><trkpt lat="55.9369633" lon="49.2189283"><time>2023-06-03T11:13:35.340</time></trkpt><trkpt lat="55.9369950" lon="49.2190117"><time>2023-06-03T11:13:37.340</time></trkpt><trkpt lat="55.9370100" lon="49.2190933"><time>2023-06-03T11:13:38.337</time></trkpt><trkpt lat="55.9370533" lon="49.2192483"><time>2023-06-03T11:13:40.343</time></trkpt><trkpt lat="55.9370700" lon="49.2193467"><time>2023-06-03T11:13:41.340</time></trkpt><trkpt lat="55.9371050" lon="49.2194600"><time>2023-06-03T11:13:43.340</time></trkpt><trkpt lat="55.9371350" lon="49.2195383"><time>2023-06-03T11:13:44.340</time></trkpt><trkpt lat="55.9371733" lon="49.2196600"><time>2023-06-03T11:13:46.337</time></trkpt><trkpt lat="55.9372067" lon="49.2197867"><time>2023-06-03T11:13:48.343</time></trkpt><trkpt lat="55.9372267" lon="49.2199017"><time>2023-06-03T11:13:50.340</time></trkpt><trkpt lat="55.9372283" lon="49.2199917"><time>2023-06-03T11:13:52.343</time></trkpt><trkpt lat="55.9372533" lon="49.2201117"><time>2023-06-03T11:13:54.347</time></trkpt><trkpt lat="55.9372717" lon="49.2201967"><time>2023-06-03T11:13:55.340</time></trkpt><trkpt lat="55.9372850" lon="49.2202867"><time>2023-06-03T11:13:57.343</time></trkpt><trkpt lat="55.9373233" lon="49.2204067"><time>2023-06-03T11:13:59.350</time></trkpt><trkpt lat="55.9373600" lon="49.2205417"><time>2023-06-03T11:14:01.347</time></trkpt><trkpt lat="55.9373817" lon="49.2206433"><time>2023-06-03T11:14:02.347</time></trkpt><trkpt lat="55.9374017" lon="49.2207500"><time>2023-06-03T11:14:03.347</time></trkpt><trkpt lat="55.9374183" lon="49.2208367"><time>2023-06-03T11:14:04.347</time></trkpt><trkpt lat="55.9374483" lon="49.2209600"><time>2023-06-03T11:14:05.347</time></trkpt><trkpt lat="55.9374783" lon="49.2210550"><time>2023-06-03T11:14:06.340</time></trkpt><trkpt lat="55.9376467" lon="49.2214900"><time>2023-06-03T11:14:07.340</time></trkpt><trkpt lat="55.9377400" lon="49.2216950"><time>2023-06-03T11:14:09.310</time></trkpt><trkpt lat="55.9377833" lon="49.2217567"><time>2023-06-03T11:14:10.313</time></trkpt><trkpt lat="55.9377800" lon="49.2218417"><time>2023-06-03T11:14:14.317</time></trkpt><trkpt lat="55.9378017" lon="49.2219217"><time>2023-06-03T11:14:16.310</time></trkpt><trkpt lat="55.9378183" lon="49.2220167"><time>2023-06-03T11:14:18.317</time></trkpt><trkpt lat="55.9378567" lon="49.2221133"><time>2023-06-03T11:14:20.320</time></trkpt><trkpt lat="55.9378850" lon="49.2221867"><time>2023-06-03T11:14:21.317</time></trkpt><trkpt lat="55.9379117" lon="49.2222667"><time>2023-06-03T11:14:22.320</time></trkpt><trkpt lat="55.9379317" lon="49.2223450"><time>2023-06-03T11:14:23.320</time></trkpt><trkpt lat="55.9379550" lon="49.2224167"><time>2023-06-03T11:14:24.320</time></trkpt><trkpt lat="55.9379850" lon="49.2224800"><time>2023-06-03T11:14:25.317</time></trkpt><trkpt lat="55.9380283" lon="49.2225617"><time>2023-06-03T11:14:27.317</time></trkpt><trkpt lat="55.9380683" lon="49.2226333"><time>2023-06-03T11:14:29.320</time></trkpt><trkpt lat="55.9380967" lon="49.2227417"><time>2023-06-03T11:14:31.320</time></trkpt><trkpt lat="55.9381267" lon="49.2228450"><time>2023-06-03T11:14:33.317</time></trkpt><trkpt lat="55.9381683" lon="49.2229450"><time>2023-06-03T11:14:35.317</time></trkpt><trkpt lat="55.9382167" lon="49.2230417"><time>2023-06-03T11:14:37.320</time></trkpt><trkpt lat="55.9382750" lon="49.2231050"><time>2023-06-03T11:14:39.320</time></trkpt><trkpt lat="55.9383383" lon="49.2231883"><time>2023-06-03T11:14:41.320</time></trkpt><trkpt lat="55.9383967" lon="49.2232550"><time>2023-06-03T11:14:43.320</time></trkpt><trkpt lat="55.9384483" lon="49.2233133"><time>2023-06-03T11:14:45.320</time></trkpt><trkpt lat="55.9384900" lon="49.2233583"><time>2023-06-03T11:14:47.317</time></trkpt><trkpt lat="55.9385333" lon="49.2234050"><time>2023-06-03T11:14:49.320</time></trkpt><trkpt lat="55.9385850" lon="49.2234633"><time>2023-06-03T11:14:52.320</time></trkpt><trkpt lat="55.9386450" lon="49.2235000"><time>2023-06-03T11:14:55.317</time></trkpt><trkpt lat="55.9386950" lon="49.2235133"><time>2023-06-03T11:14:57.330</time></trkpt><trkpt lat="55.9387500" lon="49.2235017"><time>2023-06-03T11:14:59.323</time></trkpt><trkpt lat="55.9388400" lon="49.2234450"><time>2023-06-03T11:15:01.320</time></trkpt><trkpt lat="55.9389183" lon="49.2234067"><time>2023-06-03T11:15:03.320</time></trkpt><trkpt lat="55.9389633" lon="49.2233850"><time>2023-06-03T11:15:04.320</time></trkpt><trkpt lat="55.9390333" lon="49.2233300"><time>2023-06-03T11:15:06.323</time></trkpt><trkpt lat="55.9390950" lon="49.2232917"><time>2023-06-03T11:15:08.320</time></trkpt><trkpt lat="55.9391517" lon="49.2232883"><time>2023-06-03T11:15:10.320</time></trkpt><trkpt lat="55.9392150" lon="49.2232417"><time>2023-06-03T11:15:12.320</time></trkpt><trkpt lat="55.9392883" lon="49.2231867"><time>2023-06-03T11:15:14.327</time></trkpt><trkpt lat="55.9393300" lon="49.2231533"><time>2023-06-03T11:15:15.320</time></trkpt><trkpt lat="55.9393983" lon="49.2231300"><time>2023-06-03T11:15:17.320</time></trkpt><trkpt lat="55.9394667" lon="49.2231467"><time>2023-06-03T11:15:19.323</time></trkpt><trkpt lat="55.9395217" lon="49.2231633"><time>2023-06-03T11:15:21.320</time></trkpt><trkpt lat="55.9395650" lon="49.2231950"><time>2023-06-03T11:15:26.317</time></trkpt><trkpt lat="55.9396133" lon="49.2232267"><time>2023-06-03T11:15:32.320</time></trkpt><trkpt lat="55.9396683" lon="49.2232667"><time>2023-06-03T11:15:39.317</time></trkpt><trkpt lat="55.9397350" lon="49.2233583"><time>2023-06-03T11:15:41.313</time></trkpt><trkpt lat="55.9398017" lon="49.2234683"><time>2023-06-03T11:15:43.327</time></trkpt><trkpt lat="55.9398400" lon="49.2235183"><time>2023-06-03T11:15:44.323</time></trkpt><trkpt lat="55.9398833" lon="49.2235700"><time>2023-06-03T11:15:45.320</time></trkpt><trkpt lat="55.9399500" lon="49.2236400"><time>2023-06-03T11:15:47.307</time></trkpt><trkpt lat="55.9399900" lon="49.2236983"><time>2023-06-03T11:15:49.317</time></trkpt><trkpt lat="55.9400367" lon="49.2237933"><time>2023-06-03T11:15:51.317</time></trkpt><trkpt lat="55.9401017" lon="49.2238750"><time>2023-06-03T11:15:53.320</time></trkpt><trkpt lat="55.9401450" lon="49.2239050"><time>2023-06-03T11:15:54.320</time></trkpt><trkpt lat="55.9402183" lon="49.2239600"><time>2023-06-03T11:15:56.317</time></trkpt><trkpt lat="55.9403017" lon="49.2239983"><time>2023-06-03T11:15:58.287</time></trkpt><trkpt lat="55.9403850" lon="49.2240533"><time>2023-06-03T11:16:00.313</time></trkpt><trkpt lat="55.9404250" lon="49.2240900"><time>2023-06-03T11:16:01.323</time></trkpt><trkpt lat="55.9404683" lon="49.2241317"><time>2023-06-03T11:16:02.323</time></trkpt><trkpt lat="55.9405133" lon="49.2241700"><time>2023-06-03T11:16:03.320</time></trkpt><trkpt lat="55.9405583" lon="49.2242033"><time>2023-06-03T11:16:04.320</time></trkpt><trkpt lat="55.9406017" lon="49.2242367"><time>2023-06-03T11:16:05.297</time></trkpt><trkpt lat="55.9406800" lon="49.2242983"><time>2023-06-03T11:16:07.323</time></trkpt><trkpt lat="55.9407517" lon="49.2243533"><time>2023-06-03T11:16:09.313</time></trkpt><trkpt lat="55.9408117" lon="49.2244333"><time>2023-06-03T11:16:11.320</time></trkpt><trkpt lat="55.9408750" lon="49.2245350"><time>2023-06-03T11:16:13.317</time></trkpt><trkpt lat="55.9409033" lon="49.2246017"><time>2023-06-03T11:16:14.320</time></trkpt><trkpt lat="55.9409300" lon="49.2247250"><time>2023-06-03T11:16:16.313</time></trkpt><trkpt lat="55.9409467" lon="49.2248400"><time>2023-06-03T11:16:18.303</time></trkpt><trkpt lat="55.9409600" lon="49.2249633"><time>2023-06-03T11:16:20.307</time></trkpt><trkpt lat="55.9409533" lon="49.2250800"><time>2023-06-03T11:16:22.317</time></trkpt><trkpt lat="55.9409417" lon="49.2251967"><time>2023-06-03T11:16:24.323</time></trkpt><trkpt lat="55.9409250" lon="49.2253367"><time>2023-06-03T11:16:26.277</time></trkpt><trkpt lat="55.9409017" lon="49.2254717"><time>2023-06-03T11:16:28.313</time></trkpt><trkpt lat="55.9408750" lon="49.2255833"><time>2023-06-03T11:16:30.283</time></trkpt><trkpt lat="55.9408583" lon="49.2257083"><time>2023-06-03T11:16:32.287</time></trkpt><trkpt lat="55.9408450" lon="49.2258350"><time>2023-06-03T11:16:34.323</time></trkpt><trkpt lat="55.9408200" lon="49.2259367"><time>2023-06-03T11:16:36.303</time></trkpt><trkpt lat="55.9407883" lon="49.2260133"><time>2023-06-03T11:16:38.323</time></trkpt><trkpt lat="55.9407450" lon="49.2260917"><time>2023-06-03T11:16:40.323</time></trkpt><trkpt lat="55.9407083" lon="49.2261517"><time>2023-06-03T11:16:42.310</time></trkpt><trkpt lat="55.9406750" lon="49.2262267"><time>2023-06-03T11:16:45.323</time></trkpt><trkpt lat="55.9406600" lon="49.2263217"><time>2023-06-03T11:16:48.297</time></trkpt><trkpt lat="55.9406300" lon="49.2264267"><time>2023-06-03T11:16:51.300</time></trkpt><trkpt lat="55.9406267" lon="49.2265300"><time>2023-06-03T11:16:53.313</time></trkpt><trkpt lat="55.9406267" lon="49.2266550"><time>2023-06-03T11:16:55.320</time></trkpt><trkpt lat="55.9406317" lon="49.2267700"><time>2023-06-03T11:16:57.317</time></trkpt><trkpt lat="55.9406267" lon="49.2268700"><time>2023-06-03T11:16:59.323</time></trkpt><trkpt lat="55.9405867" lon="49.2269750"><time>2023-06-03T11:17:01.287</time></trkpt><trkpt lat="55.9405533" lon="49.2271000"><time>2023-06-03T11:17:03.313</time></trkpt><trkpt lat="55.9405200" lon="49.2272217"><time>2023-06-03T11:17:05.320</time></trkpt><trkpt lat="55.9405000" lon="49.2273200"><time>2023-06-03T11:17:07.323</time></trkpt><trkpt lat="55.9404883" lon="49.2274283"><time>2023-06-03T11:17:09.327</time></trkpt><trkpt lat="55.9404783" lon="49.2275483"><time>2023-06-03T11:17:11.320</time></trkpt><trkpt lat="55.9404633" lon="49.2276717"><time>2023-06-03T11:17:13.317</time></trkpt><trkpt lat="55.9404333" lon="49.2277883"><time>2023-06-03T11:17:15.347</time></trkpt><trkpt lat="55.9404133" lon="49.2278633"><time>2023-06-03T11:17:16.277</time></trkpt><trkpt lat="55.9403917" lon="49.2279433"><time>2023-06-03T11:17:17.313</time></trkpt><trkpt lat="55.9403683" lon="49.2280183"><time>2023-06-03T11:17:18.283</time></trkpt><trkpt lat="55.9403450" lon="49.2281017"><time>2023-06-03T11:17:19.290</time></trkpt><trkpt lat="55.9403217" lon="49.2281800"><time>2023-06-03T11:17:20.277</time></trkpt><trkpt lat="55.9402883" lon="49.2283317"><time>2023-06-03T11:17:22.283</time></trkpt><trkpt lat="55.9402667" lon="49.2284117"><time>2023-06-03T11:17:23.313</time></trkpt><trkpt lat="55.9402167" lon="49.2285550"><time>2023-06-03T11:17:25.327</time></trkpt><trkpt lat="55.9401733" lon="49.2286783"><time>2023-06-03T11:17:27.337</time></trkpt><trkpt lat="55.9401300" lon="49.2288133"><time>2023-06-03T11:17:29.323</time></trkpt><trkpt lat="55.9401117" lon="49.2288883"><time>2023-06-03T11:17:30.320</time></trkpt><trkpt lat="55.9400883" lon="49.2289683"><time>2023-06-03T11:17:31.323</time></trkpt><trkpt lat="55.9400633" lon="49.2290400"><time>2023-06-03T11:17:32.327</time></trkpt><trkpt lat="55.9400217" lon="49.2291517"><time>2023-06-03T11:17:34.327</time></trkpt><trkpt lat="55.9399817" lon="49.2292567"><time>2023-06-03T11:17:36.327</time></trkpt><trkpt lat="55.9399433" lon="49.2293733"><time>2023-06-03T11:17:38.320</time></trkpt><trkpt lat="55.9399083" lon="49.2294883"><time>2023-06-03T11:17:40.317</time></trkpt><trkpt lat="55.9398733" lon="49.2296167"><time>2023-06-03T11:17:42.330</time></trkpt><trkpt lat="55.9398383" lon="49.2297400"><time>2023-06-03T11:17:44.333</time></trkpt><trkpt lat="55.9398017" lon="49.2298717"><time>2023-06-03T11:17:46.327</time></trkpt><trkpt lat="55.9397700" lon="49.2300017"><time>2023-06-03T11:17:48.327</time></trkpt><trkpt lat="55.9397367" lon="49.2301383"><time>2023-06-03T11:17:50.327</time></trkpt><trkpt lat="55.9397050" lon="49.2302833"><time>2023-06-03T11:17:52.323</time></trkpt><trkpt lat="55.9396883" lon="49.2303617"><time>2023-06-03T11:17:53.320</time></trkpt><trkpt lat="55.9396717" lon="49.2304400"><time>2023-06-03T11:17:54.327</time></trkpt><trkpt lat="55.9396550" lon="49.2305233"><time>2023-06-03T11:17:55.327</time></trkpt><trkpt lat="55.9396267" lon="49.2306667"><time>2023-06-03T11:17:57.323</time></trkpt><trkpt lat="55.9395967" lon="49.2307950"><time>2023-06-03T11:17:59.327</time></trkpt><trkpt lat="55.9395700" lon="49.2309083"><time>2023-06-03T11:18:01.323</time></trkpt><trkpt lat="55.9395467" lon="49.2310133"><time>2023-06-03T11:18:03.327</time></trkpt><trkpt lat="55.9395233" lon="49.2311267"><time>2023-06-03T11:18:05.327</time></trkpt><trkpt lat="55.9394950" lon="49.2312450"><time>2023-06-03T11:18:07.323</time></trkpt><trkpt lat="55.9394667" lon="49.2313833"><time>2023-06-03T11:18:09.327</time></trkpt><trkpt lat="55.9394367" lon="49.2315267"><time>2023-06-03T11:18:11.327</time></trkpt><trkpt lat="55.9394083" lon="49.2316700"><time>2023-06-03T11:18:13.327</time></trkpt><trkpt lat="55.9393917" lon="49.2317450"><time>2023-06-03T11:18:14.327</time></trkpt><trkpt lat="55.9393733" lon="49.2318267"><time>2023-06-03T11:18:15.323</time></trkpt><trkpt lat="55.9393567" lon="49.2319117"><time>2023-06-03T11:18:16.327</time></trkpt><trkpt lat="55.9393383" lon="49.2320017"><time>2023-06-03T11:18:17.330</time></trkpt><trkpt lat="55.9393200" lon="49.2320867"><time>2023-06-03T11:18:18.323</time></trkpt><trkpt lat="55.9392983" lon="49.2321667"><time>2023-06-03T11:18:19.327</time></trkpt><trkpt lat="55.9392817" lon="49.2322433"><time>2023-06-03T11:18:20.333</time></trkpt><trkpt lat="55.9392633" lon="49.2323183"><time>2023-06-03T11:18:21.323</time></trkpt><trkpt lat="55.9392450" lon="49.2324000"><time>2023-06-03T11:18:22.313</time></trkpt><trkpt lat="55.9392250" lon="49.2324750"><time>2023-06-03T11:18:23.327</time></trkpt><trkpt lat="55.9392067" lon="49.2325483"><time>2023-06-03T11:18:24.323</time></trkpt><trkpt lat="55.9391867" lon="49.2326217"><time>2023-06-03T11:18:25.300</time></trkpt><trkpt lat="55.9391667" lon="49.2327050"><time>2023-06-03T11:18:26.280</time></trkpt><trkpt lat="55.9391483" lon="49.2327833"><time>2023-06-03T11:18:27.287</time></trkpt><trkpt lat="55.9391283" lon="49.2328567"><time>2023-06-03T11:18:28.273</time></trkpt><trkpt lat="55.9391067" lon="49.2329317"><time>2023-06-03T11:18:29.310</time></trkpt><trkpt lat="55.9390817" lon="49.2330017"><time>2023-06-03T11:18:30.277</time></trkpt><trkpt lat="55.9390550" lon="49.2330683"><time>2023-06-03T11:18:31.287</time></trkpt><trkpt lat="55.9390117" lon="49.2332133"><time>2023-06-03T11:18:33.283</time></trkpt><trkpt lat="55.9389700" lon="49.2333117"><time>2023-06-03T11:18:35.317</time></trkpt><trkpt lat="55.9389333" lon="49.2334350"><time>2023-06-03T11:18:37.283</time></trkpt><trkpt lat="55.9388933" lon="49.2335667"><time>2023-06-03T11:18:39.293</time></trkpt><trkpt lat="55.9388483" lon="49.2336917"><time>2023-06-03T11:18:41.320</time></trkpt><trkpt lat="55.9387983" lon="49.2338100"><time>2023-06-03T11:18:43.317</time></trkpt><trkpt lat="55.9387500" lon="49.2339350"><time>2023-06-03T11:18:45.290</time></trkpt><trkpt lat="55.9387250" lon="49.2340017"><time>2023-06-03T11:18:46.317</time></trkpt><trkpt lat="55.9386767" lon="49.2341233"><time>2023-06-03T11:18:48.317</time></trkpt><trkpt lat="55.9386233" lon="49.2342333"><time>2023-06-03T11:18:50.323</time></trkpt><trkpt lat="55.9385767" lon="49.2343417"><time>2023-06-03T11:18:52.313</time></trkpt><trkpt lat="55.9385300" lon="49.2344567"><time>2023-06-03T11:18:54.320</time></trkpt><trkpt lat="55.9384783" lon="49.2345767"><time>2023-06-03T11:18:56.323</time></trkpt><trkpt lat="55.9384483" lon="49.2346383"><time>2023-06-03T11:18:57.317</time></trkpt><trkpt lat="55.9383967" lon="49.2347567"><time>2023-06-03T11:18:59.320</time></trkpt><trkpt lat="55.9383650" lon="49.2348200"><time>2023-06-03T11:19:00.323</time></trkpt><trkpt lat="55.9383350" lon="49.2348833"><time>2023-06-03T11:19:01.313</time></trkpt><trkpt lat="55.9383000" lon="49.2349400"><time>2023-06-03T11:19:02.320</time></trkpt><trkpt lat="55.9382667" lon="49.2349967"><time>2023-06-03T11:19:03.320</time></trkpt><trkpt lat="55.9382300" lon="49.2350550"><time>2023-06-03T11:19:04.317</time></trkpt><trkpt lat="55.9381867" lon="49.2351200"><time>2023-06-03T11:19:05.323</time></trkpt><trkpt lat="55.9381483" lon="49.2351883"><time>2023-06-03T11:19:06.320</time></trkpt><trkpt lat="55.9381083" lon="49.2352567"><time>2023-06-03T11:19:07.320</time></trkpt><trkpt lat="55.9380800" lon="49.2353267"><time>2023-06-03T11:19:08.317</time></trkpt><trkpt lat="55.9380433" lon="49.2354617"><time>2023-06-03T11:19:10.317</time></trkpt><trkpt lat="55.9380033" lon="49.2355833"><time>2023-06-03T11:19:12.320</time></trkpt><trkpt lat="55.9379683" lon="49.2357083"><time>2023-06-03T11:19:14.320</time></trkpt><trkpt lat="55.9379533" lon="49.2358183"><time>2023-06-03T11:19:16.317</time></trkpt><trkpt lat="55.9379433" lon="49.2359400"><time>2023-06-03T11:19:18.317</time></trkpt><trkpt lat="55.9379450" lon="49.2360350"><time>2023-06-03T11:19:20.317</time></trkpt><trkpt lat="55.9379567" lon="49.2361467"><time>2023-06-03T11:19:23.317</time></trkpt><trkpt lat="55.9379667" lon="49.2362350"><time>2023-06-03T11:19:25.323</time></trkpt><trkpt lat="55.9379750" lon="49.2363350"><time>2023-06-03T11:19:27.310</time></trkpt><trkpt lat="55.9379983" lon="49.2364450"><time>2023-06-03T11:19:29.303</time></trkpt><trkpt lat="55.9380083" lon="49.2365750"><time>2023-06-03T11:19:31.297</time></trkpt><trkpt lat="55.9380200" lon="49.2366733"><time>2023-06-03T11:19:33.307</time></trkpt><trkpt lat="55.9380400" lon="49.2367717"><time>2023-06-03T11:19:35.323</time></trkpt><trkpt lat="55.9380517" lon="49.2369000"><time>2023-06-03T11:19:37.323</time></trkpt><trkpt lat="55.9380583" lon="49.2370233"><time>2023-06-03T11:19:39.320</time></trkpt><trkpt lat="55.9380650" lon="49.2371283"><time>2023-06-03T11:19:41.317</time></trkpt><trkpt lat="55.9380650" lon="49.2372267"><time>2023-06-03T11:19:43.327</time></trkpt><trkpt lat="55.9380667" lon="49.2373300"><time>2023-06-03T11:19:45.323</time></trkpt><trkpt lat="55.9380683" lon="49.2374333"><time>2023-06-03T11:19:47.320</time></trkpt><trkpt lat="55.9380750" lon="49.2375467"><time>2023-06-03T11:19:49.320</time></trkpt><trkpt lat="55.9380783" lon="49.2376700"><time>2023-06-03T11:19:51.323</time></trkpt><trkpt lat="55.9380833" lon="49.2377933"><time>2023-06-03T11:19:53.317</time></trkpt><trkpt lat="55.9380850" lon="49.2379200"><time>2023-06-03T11:19:55.317</time></trkpt><trkpt lat="55.9380883" lon="49.2380100"><time>2023-06-03T11:19:57.317</time></trkpt><trkpt lat="55.9380900" lon="49.2381033"><time>2023-06-03T11:19:59.313</time></trkpt><trkpt lat="55.9380850" lon="49.2382050"><time>2023-06-03T11:20:02.327</time></trkpt><trkpt lat="55.9381050" lon="49.2382783"><time>2023-06-03T11:20:36.320</time></trkpt><trkpt lat="55.9381167" lon="49.2383717"><time>2023-06-03T11:20:39.323</time></trkpt><trkpt lat="55.9381300" lon="49.2384700"><time>2023-06-03T11:20:42.323</time></trkpt><trkpt lat="55.9381417" lon="49.2385650"><time>2023-06-03T11:20:44.313</time></trkpt><trkpt lat="55.9381550" lon="49.2386617"><time>2023-06-03T11:20:46.320</time></trkpt><trkpt lat="55.9381650" lon="49.2387850"><time>2023-06-03T11:20:48.323</time></trkpt><trkpt lat="55.9381667" lon="49.2389083"><time>2023-06-03T11:20:50.323</time></trkpt><trkpt lat="55.9381700" lon="49.2390217"><time>2023-06-03T11:20:52.320</time></trkpt><trkpt lat="55.9381867" lon="49.2391517"><time>2023-06-03T11:20:54.327</time></trkpt><trkpt lat="55.9382017" lon="49.2392933"><time>2023-06-03T11:20:56.323</time></trkpt><trkpt lat="55.9382167" lon="49.2394500"><time>2023-06-03T11:20:58.320</time></trkpt><trkpt lat="55.9382300" lon="49.2396100"><time>2023-06-03T11:21:00.323</time></trkpt><trkpt lat="55.9382383" lon="49.2397633"><time>2023-06-03T11:21:02.320</time></trkpt><trkpt lat="55.9382450" lon="49.2399067"><time>2023-06-03T11:21:04.320</time></trkpt><trkpt lat="55.9382500" lon="49.2400517"><time>2023-06-03T11:21:06.327</time></trkpt><trkpt lat="55.9382600" lon="49.2402033"><time>2023-06-03T11:21:08.317</time></trkpt><trkpt lat="55.9382750" lon="49.2403533"><time>2023-06-03T11:21:10.320</time></trkpt><trkpt lat="55.9382933" lon="49.2405017"><time>2023-06-03T11:21:12.320</time></trkpt><trkpt lat="55.9383133" lon="49.2406467"><time>2023-06-03T11:21:14.313</time></trkpt><trkpt lat="55.9383300" lon="49.2407883"><time>2023-06-03T11:21:16.327</time></trkpt><trkpt lat="55.9383433" lon="49.2409333"><time>2023-06-03T11:21:18.297</time></trkpt><trkpt lat="55.9383533" lon="49.2410933"><time>2023-06-03T11:21:20.320</time></trkpt><trkpt lat="55.9383583" lon="49.2411733"><time>2023-06-03T11:21:21.320</time></trkpt><trkpt lat="55.9383617" lon="49.2412550"><time>2023-06-03T11:21:22.327</time></trkpt><trkpt lat="55.9383717" lon="49.2413933"><time>2023-06-03T11:21:24.323</time></trkpt><trkpt lat="55.9383783" lon="49.2415233"><time>2023-06-03T11:21:26.323</time></trkpt><trkpt lat="55.9383867" lon="49.2416483"><time>2023-06-03T11:21:28.327</time></trkpt><trkpt lat="55.9383950" lon="49.2417733"><time>2023-06-03T11:21:30.327</time></trkpt><trkpt lat="55.9383967" lon="49.2418833"><time>2023-06-03T11:21:32.327</time></trkpt><trkpt lat="55.9384083" lon="49.2419900"><time>2023-06-03T11:21:34.320</time></trkpt><trkpt lat="55.9384283" lon="49.2420967"><time>2023-06-03T11:21:36.323</time></trkpt><trkpt lat="55.9384367" lon="49.2422017"><time>2023-06-03T11:21:38.310</time></trkpt><trkpt lat="55.9384400" lon="49.2423183"><time>2023-06-03T11:21:41.313</time></trkpt><trkpt lat="55.9384417" lon="49.2424133"><time>2023-06-03T11:21:43.323</time></trkpt><trkpt lat="55.9384450" lon="49.2425067"><time>2023-06-03T11:21:45.327</time></trkpt><trkpt lat="55.9384433" lon="49.2426067"><time>2023-06-03T11:21:47.320</time></trkpt><trkpt lat="55.9384433" lon="49.2427100"><time>2023-06-03T11:21:49.320</time></trkpt><trkpt lat="55.9384433" lon="49.2428133"><time>2023-06-03T11:21:51.323</time></trkpt><trkpt lat="55.9384433" lon="49.2429133"><time>2023-06-03T11:21:53.323</time></trkpt><trkpt lat="55.9384400" lon="49.2430267"><time>2023-06-03T11:21:56.317</time></trkpt><trkpt lat="55.9384417" lon="49.2431367"><time>2023-06-03T11:21:59.323</time></trkpt><trkpt lat="55.9384900" lon="49.2431733"><time>2023-06-03T11:22:05.320</time></trkpt><trkpt lat="55.9385433" lon="49.2431450"><time>2023-06-03T11:22:09.327</time></trkpt><trkpt lat="55.9385900" lon="49.2431133"><time>2023-06-03T11:22:13.320</time></trkpt><trkpt lat="55.9386350" lon="49.2431100"><time>2023-06-03T11:22:17.320</time></trkpt><trkpt lat="55.9386633" lon="49.2430333"><time>2023-06-03T11:22:23.323</time></trkpt><trkpt lat="55.9386233" lon="49.2430833"><time>2023-06-03T11:22:35.323</time></trkpt><trkpt lat="55.9385750" lon="49.2430833"><time>2023-06-03T11:22:39.320</time></trkpt><trkpt lat="55.9385283" lon="49.2430933"><time>2023-06-03T11:22:43.320</time></trkpt><trkpt lat="55.9384783" lon="49.2431367"><time>2023-06-03T11:22:48.287</time></trkpt><trkpt lat="55.9384367" lon="49.2431867"><time>2023-06-03T11:23:13.323</time></trkpt><trkpt lat="55.9384117" lon="49.2431167"><time>2023-06-03T11:23:17.320</time></trkpt><trkpt lat="55.9384217" lon="49.2430350"><time>2023-06-03T11:23:25.307</time></trkpt><trkpt lat="55.9384367" lon="49.2429467"><time>2023-06-03T11:23:31.327</time></trkpt><trkpt lat="55.9384300" lon="49.2428650"><time>2023-06-03T11:23:39.320</time></trkpt><trkpt lat="55.9384433" lon="49.2427500"><time>2023-06-03T11:23:42.323</time></trkpt><trkpt lat="55.9384467" lon="49.2426650"><time>2023-06-03T11:23:44.327</time></trkpt><trkpt lat="55.9384517" lon="49.2425683"><time>2023-06-03T11:23:46.327</time></trkpt><trkpt lat="55.9384517" lon="49.2424750"><time>2023-06-03T11:23:48.320</time></trkpt><trkpt lat="55.9384500" lon="49.2423800"><time>2023-06-03T11:23:50.317</time></trkpt><trkpt lat="55.9384500" lon="49.2422867"><time>2023-06-03T11:23:52.320</time></trkpt><trkpt lat="55.9384433" lon="49.2421900"><time>2023-06-03T11:23:54.323</time></trkpt><trkpt lat="55.9384317" lon="49.2420783"><time>2023-06-03T11:23:56.323</time></trkpt><trkpt lat="55.9384133" lon="49.2419733"><time>2023-06-03T11:23:58.320</time></trkpt><trkpt lat="55.9384050" lon="49.2418750"><time>2023-06-03T11:24:00.323</time></trkpt><trkpt lat="55.9383950" lon="49.2417633"><time>2023-06-03T11:24:02.327</time></trkpt><trkpt lat="55.9383833" lon="49.2416267"><time>2023-06-03T11:24:04.323</time></trkpt><trkpt lat="55.9383683" lon="49.2414900"><time>2023-06-03T11:24:06.320</time></trkpt><trkpt lat="55.9383567" lon="49.2413633"><time>2023-06-03T11:24:08.327</time></trkpt><trkpt lat="55.9383417" lon="49.2412317"><time>2023-06-03T11:24:10.320</time></trkpt><trkpt lat="55.9383317" lon="49.2410867"><time>2023-06-03T11:24:12.317</time></trkpt><trkpt lat="55.9383200" lon="49.2409517"><time>2023-06-03T11:24:14.320</time></trkpt><trkpt lat="55.9383083" lon="49.2408417"><time>2023-06-03T11:24:16.327</time></trkpt><trkpt lat="55.9382933" lon="49.2407350"><time>2023-06-03T11:24:18.320</time></trkpt><trkpt lat="55.9382833" lon="49.2406233"><time>2023-06-03T11:24:20.327</time></trkpt><trkpt lat="55.9382683" lon="49.2405150"><time>2023-06-03T11:24:22.320</time></trkpt><trkpt lat="55.9382550" lon="49.2404067"><time>2023-06-03T11:24:24.327</time></trkpt><trkpt lat="55.9382400" lon="49.2402967"><time>2023-06-03T11:24:26.327</time></trkpt><trkpt lat="55.9382250" lon="49.2401817"><time>2023-06-03T11:24:28.323</time></trkpt><trkpt lat="55.9382133" lon="49.2400600"><time>2023-06-03T11:24:30.320</time></trkpt><trkpt lat="55.9382083" lon="49.2399433"><time>2023-06-03T11:24:32.323</time></trkpt><trkpt lat="55.9382050" lon="49.2398300"><time>2023-06-03T11:24:34.323</time></trkpt><trkpt lat="55.9382033" lon="49.2397083"><time>2023-06-03T11:24:36.327</time></trkpt><trkpt lat="55.9381967" lon="49.2395833"><time>2023-06-03T11:24:38.320</time></trkpt><trkpt lat="55.9381850" lon="49.2394467"><time>2023-06-03T11:24:40.323</time></trkpt><trkpt lat="55.9381717" lon="49.2393200"><time>2023-06-03T11:24:42.317</time></trkpt><trkpt lat="55.9381633" lon="49.2392117"><time>2023-06-03T11:24:44.327</time></trkpt><trkpt lat="55.9381500" lon="49.2390950"><time>2023-06-03T11:24:46.313</time></trkpt><trkpt lat="55.9381367" lon="49.2389767"><time>2023-06-03T11:24:48.317</time></trkpt><trkpt lat="55.9381283" lon="49.2388817"><time>2023-06-03T11:24:50.327</time></trkpt><trkpt lat="55.9381167" lon="49.2387700"><time>2023-06-03T11:24:53.323</time></trkpt><trkpt lat="55.9381117" lon="49.2386817"><time>2023-06-03T11:24:55.320</time></trkpt><trkpt lat="55.9380967" lon="49.2385783"><time>2023-06-03T11:24:57.317</time></trkpt><trkpt lat="55.9380783" lon="49.2384717"><time>2023-06-03T11:24:59.297</time></trkpt><trkpt lat="55.9380717" lon="49.2383733"><time>2023-06-03T11:25:01.327</time></trkpt><trkpt lat="55.9380617" lon="49.2382600"><time>2023-06-03T11:25:03.303</time></trkpt><trkpt lat="55.9380583" lon="49.2381300"><time>2023-06-03T11:25:05.327</time></trkpt><trkpt lat="55.9380517" lon="49.2379983"><time>2023-06-03T11:25:07.323</time></trkpt><trkpt lat="55.9380483" lon="49.2378800"><time>2023-06-03T11:25:09.323</time></trkpt><trkpt lat="55.9380433" lon="49.2377750"><time>2023-06-03T11:25:11.320</time></trkpt><trkpt lat="55.9380417" lon="49.2376700"><time>2023-06-03T11:25:13.320</time></trkpt><trkpt lat="55.9380433" lon="49.2375717"><time>2023-06-03T11:25:15.313</time></trkpt><trkpt lat="55.9380467" lon="49.2374700"><time>2023-06-03T11:25:17.323</time></trkpt><trkpt lat="55.9380467" lon="49.2373633"><time>2023-06-03T11:25:19.323</time></trkpt><trkpt lat="55.9380450" lon="49.2372583"><time>2023-06-03T11:25:21.320</time></trkpt><trkpt lat="55.9380417" lon="49.2371583"><time>2023-06-03T11:25:23.317</time></trkpt><trkpt lat="55.9380333" lon="49.2370683"><time>2023-06-03T11:25:25.320</time></trkpt><trkpt lat="55.9380367" lon="49.2369733"><time>2023-06-03T11:25:27.323</time></trkpt><trkpt lat="55.9380317" lon="49.2368850"><time>2023-06-03T11:25:29.320</time></trkpt><trkpt lat="55.9380250" lon="49.2367683"><time>2023-06-03T11:25:31.320</time></trkpt><trkpt lat="55.9380150" lon="49.2366500"><time>2023-06-03T11:25:33.323</time></trkpt><trkpt lat="55.9379950" lon="49.2365383"><time>2023-06-03T11:25:35.323</time></trkpt><trkpt lat="55.9379800" lon="49.2364350"><time>2023-06-03T11:25:37.323</time></trkpt><trkpt lat="55.9379667" lon="49.2363300"><time>2023-06-03T11:25:39.323</time></trkpt><trkpt lat="55.9379383" lon="49.2362017"><time>2023-06-03T11:25:41.323</time></trkpt><trkpt lat="55.9379300" lon="49.2360950"><time>2023-06-03T11:25:43.327</time></trkpt><trkpt lat="55.9379100" lon="49.2359950"><time>2023-06-03T11:25:45.317</time></trkpt><trkpt lat="55.9378783" lon="49.2358900"><time>2023-06-03T11:25:47.317</time></trkpt><trkpt lat="55.9378433" lon="49.2357683"><time>2023-06-03T11:25:49.317</time></trkpt><trkpt lat="55.9378150" lon="49.2356250"><time>2023-06-03T11:25:51.327</time></trkpt><trkpt lat="55.9377917" lon="49.2355050"><time>2023-06-03T11:25:53.320</time></trkpt><trkpt lat="55.9377750" lon="49.2354000"><time>2023-06-03T11:25:55.317</time></trkpt><trkpt lat="55.9377650" lon="49.2353117"><time>2023-06-03T11:25:57.320</time></trkpt><trkpt lat="55.9377517" lon="49.2352083"><time>2023-06-03T11:25:59.323</time></trkpt><trkpt lat="55.9377333" lon="49.2350983"><time>2023-06-03T11:26:01.323</time></trkpt><trkpt lat="55.9377183" lon="49.2349917"><time>2023-06-03T11:26:03.313</time></trkpt><trkpt lat="55.9377067" lon="49.2348917"><time>2023-06-03T11:26:05.323</time></trkpt><trkpt lat="55.9376817" lon="49.2347783"><time>2023-06-03T11:26:07.323</time></trkpt><trkpt lat="55.9376683" lon="49.2346633"><time>2023-06-03T11:26:09.323</time></trkpt><trkpt lat="55.9376417" lon="49.2345650"><time>2023-06-03T11:26:11.323</time></trkpt><trkpt lat="55.9376083" lon="49.2344500"><time>2023-06-03T11:26:13.307</time></trkpt><trkpt lat="55.9375733" lon="49.2343400"><time>2023-06-03T11:26:15.320</time></trkpt><trkpt lat="55.9375433" lon="49.2342267"><time>2023-06-03T11:26:17.327</time></trkpt><trkpt lat="55.9375133" lon="49.2341217"><time>2023-06-03T11:26:19.323</time></trkpt><trkpt lat="55.9374783" lon="49.2340233"><time>2023-06-03T11:26:21.313</time></trkpt><trkpt lat="55.9374517" lon="49.2339233"><time>2023-06-03T11:26:23.320</time></trkpt><trkpt lat="55.9374250" lon="49.2338233"><time>2023-06-03T11:26:25.327</time></trkpt><trkpt lat="55.9373917" lon="49.2337283"><time>2023-06-03T11:26:27.330</time></trkpt><trkpt lat="55.9373550" lon="49.2336433"><time>2023-06-03T11:26:29.297</time></trkpt><trkpt lat="55.9373100" lon="49.2335583"><time>2023-06-03T11:26:31.323</time></trkpt><trkpt lat="55.9372583" lon="49.2334833"><time>2023-06-03T11:26:33.313</time></trkpt><trkpt lat="55.9372117" lon="49.2334150"><time>2023-06-03T11:26:35.320</time></trkpt><trkpt lat="55.9371650" lon="49.2333567"><time>2023-06-03T11:26:37.310</time></trkpt><trkpt lat="55.9371267" lon="49.2332950"><time>2023-06-03T11:26:40.320</time></trkpt><trkpt lat="55.9371733" lon="49.2333350"><time>2023-06-03T11:28:19.317</time></trkpt><trkpt lat="55.9372117" lon="49.2333917"><time>2023-06-03T11:28:21.317</time></trkpt><trkpt lat="55.9372600" lon="49.2334733"><time>2023-06-03T11:28:23.320</time></trkpt><trkpt lat="55.9373083" lon="49.2335600"><time>2023-06-03T11:28:25.317</time></trkpt><trkpt lat="55.9373600" lon="49.2336683"><time>2023-06-03T11:28:27.317</time></trkpt><trkpt lat="55.9374100" lon="49.2337817"><time>2023-06-03T11:28:29.323</time></trkpt><trkpt lat="55.9374467" lon="49.2339050"><time>2023-06-03T11:28:31.323</time></trkpt><trkpt lat="55.9374817" lon="49.2340383"><time>2023-06-03T11:28:33.313</time></trkpt><trkpt lat="55.9375167" lon="49.2341717"><time>2023-06-03T11:28:35.323</time></trkpt><trkpt lat="55.9375567" lon="49.2343000"><time>2023-06-03T11:28:37.323</time></trkpt><trkpt lat="55.9375933" lon="49.2344333"><time>2023-06-03T11:28:39.323</time></trkpt><trkpt lat="55.9376300" lon="49.2345683"><time>2023-06-03T11:28:41.323</time></trkpt><trkpt lat="55.9376583" lon="49.2346950"><time>2023-06-03T11:28:43.300</time></trkpt><trkpt lat="55.9376800" lon="49.2348183"><time>2023-06-03T11:28:45.317</time></trkpt><trkpt lat="55.9376983" lon="49.2349417"><time>2023-06-03T11:28:47.323</time></trkpt><trkpt lat="55.9377150" lon="49.2350633"><time>2023-06-03T11:28:49.323</time></trkpt><trkpt lat="55.9377317" lon="49.2351867"><time>2023-06-03T11:28:51.320</time></trkpt><trkpt lat="55.9377483" lon="49.2353150"><time>2023-06-03T11:28:53.323</time></trkpt><trkpt lat="55.9377667" lon="49.2354517"><time>2023-06-03T11:28:55.323</time></trkpt><trkpt lat="55.9377883" lon="49.2355717"><time>2023-06-03T11:28:57.320</time></trkpt><trkpt lat="55.9378267" lon="49.2356150"><time>2023-06-03T11:28:59.317</time></trkpt><trkpt lat="55.9378817" lon="49.2356017"><time>2023-06-03T11:29:01.320</time></trkpt><trkpt lat="55.9379500" lon="49.2355500"><time>2023-06-03T11:29:03.320</time></trkpt><trkpt lat="55.9379950" lon="49.2354600"><time>2023-06-03T11:29:05.323</time></trkpt><trkpt lat="55.9380483" lon="49.2353683"><time>2023-06-03T11:29:07.323</time></trkpt><trkpt lat="55.9381050" lon="49.2352600"><time>2023-06-03T11:29:09.310</time></trkpt><trkpt lat="55.9381667" lon="49.2351433"><time>2023-06-03T11:29:11.323</time></trkpt><trkpt lat="55.9382000" lon="49.2350883"><time>2023-06-03T11:29:12.330</time></trkpt><trkpt lat="55.9382317" lon="49.2350300"><time>2023-06-03T11:29:13.323</time></trkpt><trkpt lat="55.9382633" lon="49.2349700"><time>2023-06-03T11:29:14.317</time></trkpt><trkpt lat="55.9382983" lon="49.2349133"><time>2023-06-03T11:29:15.320</time></trkpt><trkpt lat="55.9383333" lon="49.2348583"><time>2023-06-03T11:29:16.307</time></trkpt><trkpt lat="55.9383983" lon="49.2347483"><time>2023-06-03T11:29:18.317</time></trkpt><trkpt lat="55.9384300" lon="49.2346900"><time>2023-06-03T11:29:19.317</time></trkpt><trkpt lat="55.9384967" lon="49.2345817"><time>2023-06-03T11:29:21.320</time></trkpt><trkpt lat="55.9385300" lon="49.2345233"><time>2023-06-03T11:29:22.320</time></trkpt><trkpt lat="55.9385617" lon="49.2344633"><time>2023-06-03T11:29:23.313</time></trkpt><trkpt lat="55.9385917" lon="49.2343983"><time>2023-06-03T11:29:24.317</time></trkpt><trkpt lat="55.9386200" lon="49.2343317"><time>2023-06-03T11:29:25.310</time></trkpt><trkpt lat="55.9386383" lon="49.2342450"><time>2023-06-03T11:29:26.317</time></trkpt><trkpt lat="55.9386600" lon="49.2341617"><time>2023-06-03T11:29:27.317</time></trkpt><trkpt lat="55.9386817" lon="49.2340833"><time>2023-06-03T11:29:28.310</time></trkpt><trkpt lat="55.9387100" lon="49.2340033"><time>2023-06-03T11:29:29.323</time></trkpt><trkpt lat="55.9387350" lon="49.2339317"><time>2023-06-03T11:29:30.327</time></trkpt><trkpt lat="55.9387617" lon="49.2338583"><time>2023-06-03T11:29:31.320</time></trkpt><trkpt lat="55.9387850" lon="49.2337867"><time>2023-06-03T11:29:32.317</time></trkpt><trkpt lat="55.9388117" lon="49.2337167"><time>2023-06-03T11:29:33.313</time></trkpt><trkpt lat="55.9388383" lon="49.2336433"><time>2023-06-03T11:29:34.320</time></trkpt><trkpt lat="55.9388650" lon="49.2335683"><time>2023-06-03T11:29:35.320</time></trkpt><trkpt lat="55.9388900" lon="49.2334950"><time>2023-06-03T11:29:36.320</time></trkpt><trkpt lat="55.9389133" lon="49.2334250"><time>2023-06-03T11:29:37.323</time></trkpt><trkpt lat="55.9389583" lon="49.2332900"><time>2023-06-03T11:29:39.317</time></trkpt><trkpt lat="55.9389817" lon="49.2332200"><time>2023-06-03T11:29:40.320</time></trkpt><trkpt lat="55.9390033" lon="49.2331483"><time>2023-06-03T11:29:41.323</time></trkpt><trkpt lat="55.9390250" lon="49.2330750"><time>2023-06-03T11:29:42.323</time></trkpt><trkpt lat="55.9390483" lon="49.2330000"><time>2023-06-03T11:29:43.323</time></trkpt><trkpt lat="55.9390683" lon="49.2329283"><time>2023-06-03T11:29:44.323</time></trkpt><trkpt lat="55.9390917" lon="49.2328550"><time>2023-06-03T11:29:45.323</time></trkpt><trkpt lat="55.9391117" lon="49.2327833"><time>2023-06-03T11:29:46.323</time></trkpt><trkpt lat="55.9391317" lon="49.2327083"><time>2023-06-03T11:29:47.317</time></trkpt><trkpt lat="55.9391517" lon="49.2326350"><time>2023-06-03T11:29:48.313</time></trkpt><trkpt lat="55.9391700" lon="49.2325617"><time>2023-06-03T11:29:49.317</time></trkpt><trkpt lat="55.9392117" lon="49.2324233"><time>2023-06-03T11:29:51.320</time></trkpt><trkpt lat="55.9392317" lon="49.2323500"><time>2023-06-03T11:29:52.313</time></trkpt><trkpt lat="55.9392733" lon="49.2322117"><time>2023-06-03T11:29:54.323</time></trkpt><trkpt lat="55.9392933" lon="49.2321400"><time>2023-06-03T11:29:55.320</time></trkpt><trkpt lat="55.9393133" lon="49.2320667"><time>2023-06-03T11:29:56.323</time></trkpt><trkpt lat="55.9393483" lon="49.2319200"><time>2023-06-03T11:29:58.320</time></trkpt><trkpt lat="55.9393650" lon="49.2318450"><time>2023-06-03T11:29:59.323</time></trkpt><trkpt lat="55.9393817" lon="49.2317683"><time>2023-06-03T11:30:00.327</time></trkpt><trkpt lat="55.9394000" lon="49.2316950"><time>2023-06-03T11:30:01.313</time></trkpt><trkpt lat="55.9394317" lon="49.2315617"><time>2023-06-03T11:30:03.317</time></trkpt><trkpt lat="55.9394650" lon="49.2314333"><time>2023-06-03T11:30:05.323</time></trkpt><trkpt lat="55.9394983" lon="49.2313033"><time>2023-06-03T11:30:07.323</time></trkpt><trkpt lat="55.9395250" lon="49.2311833"><time>2023-06-03T11:30:09.313</time></trkpt><trkpt lat="55.9395467" lon="49.2310700"><time>2023-06-03T11:30:11.317</time></trkpt><trkpt lat="55.9395800" lon="49.2309450"><time>2023-06-03T11:30:13.323</time></trkpt><trkpt lat="55.9396167" lon="49.2307967"><time>2023-06-03T11:30:15.323</time></trkpt><trkpt lat="55.9396383" lon="49.2307217"><time>2023-06-03T11:30:16.323</time></trkpt><trkpt lat="55.9396567" lon="49.2306383"><time>2023-06-03T11:30:17.320</time></trkpt><trkpt lat="55.9396733" lon="49.2305500"><time>2023-06-03T11:30:18.317</time></trkpt><trkpt lat="55.9396950" lon="49.2304650"><time>2023-06-03T11:30:19.327</time></trkpt><trkpt lat="55.9397117" lon="49.2303817"><time>2023-06-03T11:30:20.317</time></trkpt><trkpt lat="55.9397283" lon="49.2302917"><time>2023-06-03T11:30:21.310</time></trkpt><trkpt lat="55.9397467" lon="49.2302150"><time>2023-06-03T11:30:22.317</time></trkpt><trkpt lat="55.9397633" lon="49.2301400"><time>2023-06-03T11:30:23.313</time></trkpt><trkpt lat="55.9398000" lon="49.2300050"><time>2023-06-03T11:30:25.320</time></trkpt><trkpt lat="55.9398333" lon="49.2298783"><time>2023-06-03T11:30:27.320</time></trkpt><trkpt lat="55.9398600" lon="49.2297633"><time>2023-06-03T11:30:29.317</time></trkpt><trkpt lat="55.9398933" lon="49.2296533"><time>2023-06-03T11:30:31.297</time></trkpt><trkpt lat="55.9399300" lon="49.2295383"><time>2023-06-03T11:30:33.313</time></trkpt><trkpt lat="55.9399683" lon="49.2294133"><time>2023-06-03T11:30:35.313</time></trkpt><trkpt lat="55.9400100" lon="49.2292900"><time>2023-06-03T11:30:37.317</time></trkpt><trkpt lat="55.9400450" lon="49.2291567"><time>2023-06-03T11:30:39.317</time></trkpt><trkpt lat="55.9400817" lon="49.2290350"><time>2023-06-03T11:30:41.320</time></trkpt><trkpt lat="55.9401167" lon="49.2289283"><time>2023-06-03T11:30:43.320</time></trkpt><trkpt lat="55.9401550" lon="49.2288150"><time>2023-06-03T11:30:45.320</time></trkpt><trkpt lat="55.9401933" lon="49.2286900"><time>2023-06-03T11:30:47.317</time></trkpt><trkpt lat="55.9402317" lon="49.2285600"><time>2023-06-03T11:30:49.317</time></trkpt><trkpt lat="55.9402717" lon="49.2284267"><time>2023-06-03T11:30:51.317</time></trkpt><trkpt lat="55.9403100" lon="49.2283000"><time>2023-06-03T11:30:53.317</time></trkpt><trkpt lat="55.9403550" lon="49.2281767"><time>2023-06-03T11:30:55.317</time></trkpt><trkpt lat="55.9403883" lon="49.2280450"><time>2023-06-03T11:30:57.317</time></trkpt><trkpt lat="55.9404183" lon="49.2279200"><time>2023-06-03T11:30:59.317</time></trkpt><trkpt lat="55.9404483" lon="49.2277900"><time>2023-06-03T11:31:01.313</time></trkpt><trkpt lat="55.9404733" lon="49.2276700"><time>2023-06-03T11:31:03.317</time></trkpt><trkpt lat="55.9405000" lon="49.2275383"><time>2023-06-03T11:31:05.317</time></trkpt><trkpt lat="55.9405367" lon="49.2273933"><time>2023-06-03T11:31:07.317</time></trkpt><trkpt lat="55.9405567" lon="49.2273150"><time>2023-06-03T11:31:08.320</time></trkpt><trkpt lat="55.9405767" lon="49.2272417"><time>2023-06-03T11:31:09.313</time></trkpt><trkpt lat="55.9406067" lon="49.2271217"><time>2023-06-03T11:31:11.287</time></trkpt><trkpt lat="55.9406250" lon="49.2270283"><time>2023-06-03T11:31:13.307</time></trkpt><trkpt lat="55.9406250" lon="49.2269300"><time>2023-06-03T11:31:15.313</time></trkpt><trkpt lat="55.9406167" lon="49.2268267"><time>2023-06-03T11:31:17.310</time></trkpt><trkpt lat="55.9406183" lon="49.2267100"><time>2023-06-03T11:31:19.310</time></trkpt><trkpt lat="55.9406350" lon="49.2265967"><time>2023-06-03T11:31:21.313</time></trkpt><trkpt lat="55.9406650" lon="49.2265067"><time>2023-06-03T11:31:23.317</time></trkpt><trkpt lat="55.9407050" lon="49.2263983"><time>2023-06-03T11:31:26.307</time></trkpt><trkpt lat="55.9407467" lon="49.2262917"><time>2023-06-03T11:31:28.313</time></trkpt><trkpt lat="55.9407933" lon="49.2261683"><time>2023-06-03T11:31:30.317</time></trkpt><trkpt lat="55.9408283" lon="49.2260400"><time>2023-06-03T11:31:32.293</time></trkpt><trkpt lat="55.9408417" lon="49.2259300"><time>2023-06-03T11:31:34.320</time></trkpt><trkpt lat="55.9408483" lon="49.2258133"><time>2023-06-03T11:31:36.317</time></trkpt><trkpt lat="55.9408600" lon="49.2256767"><time>2023-06-03T11:31:38.317</time></trkpt><trkpt lat="55.9408783" lon="49.2255317"><time>2023-06-03T11:31:40.320</time></trkpt><trkpt lat="55.9409133" lon="49.2254050"><time>2023-06-03T11:31:42.317</time></trkpt><trkpt lat="55.9409517" lon="49.2252750"><time>2023-06-03T11:31:44.320</time></trkpt><trkpt lat="55.9409883" lon="49.2251517"><time>2023-06-03T11:31:46.320</time></trkpt><trkpt lat="55.9410233" lon="49.2250350"><time>2023-06-03T11:31:48.323</time></trkpt><trkpt lat="55.9410583" lon="49.2249150"><time>2023-06-03T11:31:50.320</time></trkpt><trkpt lat="55.9410967" lon="49.2248000"><time>2023-06-03T11:31:52.320</time></trkpt><trkpt lat="55.9411350" lon="49.2246967"><time>2023-06-03T11:31:54.313</time></trkpt><trkpt lat="55.9411733" lon="49.2245967"><time>2023-06-03T11:31:56.317</time></trkpt><trkpt lat="55.9412100" lon="49.2244800"><time>2023-06-03T11:31:58.320</time></trkpt><trkpt lat="55.9412433" lon="49.2243750"><time>2023-06-03T11:32:00.300</time></trkpt><trkpt lat="55.9412667" lon="49.2242900"><time>2023-06-03T11:32:02.317</time></trkpt><trkpt lat="55.9412883" lon="49.2241950"><time>2023-06-03T11:32:04.320</time></trkpt><trkpt lat="55.9413050" lon="49.2240917"><time>2023-06-03T11:32:06.320</time></trkpt><trkpt lat="55.9413117" lon="49.2239717"><time>2023-06-03T11:32:08.320</time></trkpt><trkpt lat="55.9413367" lon="49.2238450"><time>2023-06-03T11:32:10.317</time></trkpt><trkpt lat="55.9413767" lon="49.2237267"><time>2023-06-03T11:32:12.290</time></trkpt><trkpt lat="55.9414200" lon="49.2236217"><time>2023-06-03T11:32:14.320</time></trkpt><trkpt lat="55.9414600" lon="49.2235250"><time>2023-06-03T11:32:16.320</time></trkpt><trkpt lat="55.9415083" lon="49.2234500"><time>2023-06-03T11:32:18.310</time></trkpt><trkpt lat="55.9415650" lon="49.2233683"><time>2023-06-03T11:32:20.313</time></trkpt><trkpt lat="55.9416183" lon="49.2232683"><time>2023-06-03T11:32:22.320</time></trkpt><trkpt lat="55.9416733" lon="49.2231567"><time>2023-06-03T11:32:24.313</time></trkpt><trkpt lat="55.9417167" lon="49.2230567"><time>2023-06-03T11:32:26.317</time></trkpt><trkpt lat="55.9417667" lon="49.2229550"><time>2023-06-03T11:32:28.303</time></trkpt><trkpt lat="55.9418083" lon="49.2228667"><time>2023-06-03T11:32:30.317</time></trkpt><trkpt lat="55.9418600" lon="49.2227600"><time>2023-06-03T11:32:32.283</time></trkpt><trkpt lat="55.9418933" lon="49.2226700"><time>2023-06-03T11:32:34.317</time></trkpt><trkpt lat="55.9419217" lon="49.2225783"><time>2023-06-03T11:32:36.317</time></trkpt><trkpt lat="55.9419633" lon="49.2224617"><time>2023-06-03T11:32:38.323</time></trkpt><trkpt lat="55.9419883" lon="49.2223950"><time>2023-06-03T11:32:39.317</time></trkpt><trkpt lat="55.9420167" lon="49.2223167"><time>2023-06-03T11:32:40.320</time></trkpt><trkpt lat="55.9420467" lon="49.2222483"><time>2023-06-03T11:32:41.320</time></trkpt><trkpt lat="55.9420850" lon="49.2221750"><time>2023-06-03T11:32:42.320</time></trkpt><trkpt lat="55.9421500" lon="49.2220600"><time>2023-06-03T11:32:44.320</time></trkpt><trkpt lat="55.9421867" lon="49.2220033"><time>2023-06-03T11:32:45.317</time></trkpt><trkpt lat="55.9422417" lon="49.2219383"><time>2023-06-03T11:32:47.320</time></trkpt><trkpt lat="55.9423117" lon="49.2218433"><time>2023-06-03T11:32:49.327</time></trkpt><trkpt lat="55.9423800" lon="49.2217433"><time>2023-06-03T11:32:51.323</time></trkpt><trkpt lat="55.9424150" lon="49.2216900"><time>2023-06-03T11:32:52.317</time></trkpt><trkpt lat="55.9424533" lon="49.2216367"><time>2023-06-03T11:32:53.317</time></trkpt><trkpt lat="55.9425000" lon="49.2215800"><time>2023-06-03T11:32:54.320</time></trkpt><trkpt lat="55.9425417" lon="49.2215317"><time>2023-06-03T11:32:55.323</time></trkpt><trkpt lat="55.9425800" lon="49.2214800"><time>2023-06-03T11:32:56.323</time></trkpt><trkpt lat="55.9426167" lon="49.2214233"><time>2023-06-03T11:32:57.327</time></trkpt><trkpt lat="55.9426800" lon="49.2213233"><time>2023-06-03T11:32:59.320</time></trkpt><trkpt lat="55.9427450" lon="49.2212233"><time>2023-06-03T11:33:01.317</time></trkpt><trkpt lat="55.9427967" lon="49.2211283"><time>2023-06-03T11:33:03.320</time></trkpt><trkpt lat="55.9428350" lon="49.2210250"><time>2023-06-03T11:33:05.323</time></trkpt><trkpt lat="55.9428700" lon="49.2209083"><time>2023-06-03T11:33:07.323</time></trkpt><trkpt lat="55.9429133" lon="49.2208000"><time>2023-06-03T11:33:09.320</time></trkpt><trkpt lat="55.9429650" lon="49.2207183"><time>2023-06-03T11:33:11.317</time></trkpt><trkpt lat="55.9430183" lon="49.2206450"><time>2023-06-03T11:33:13.323</time></trkpt><trkpt lat="55.9430717" lon="49.2205650"><time>2023-06-03T11:33:15.320</time></trkpt><trkpt lat="55.9431233" lon="49.2204700"><time>2023-06-03T11:33:17.317</time></trkpt><trkpt lat="55.9431733" lon="49.2203700"><time>2023-06-03T11:33:19.313</time></trkpt><trkpt lat="55.9432233" lon="49.2202650"><time>2023-06-03T11:33:21.320</time></trkpt><trkpt lat="55.9432733" lon="49.2201933"><time>2023-06-03T11:33:23.320</time></trkpt><trkpt lat="55.9433233" lon="49.2201417"><time>2023-06-03T11:33:25.323</time></trkpt><trkpt lat="55.9433750" lon="49.2200667"><time>2023-06-03T11:33:27.317</time></trkpt><trkpt lat="55.9434250" lon="49.2199667"><time>2023-06-03T11:33:29.300</time></trkpt><trkpt lat="55.9434717" lon="49.2198650"><time>2023-06-03T11:33:31.320</time></trkpt><trkpt lat="55.9435250" lon="49.2197550"><time>2023-06-03T11:33:33.320</time></trkpt><trkpt lat="55.9435733" lon="49.2196417"><time>2023-06-03T11:33:35.310</time></trkpt><trkpt lat="55.9436217" lon="49.2195267"><time>2023-06-03T11:33:37.317</time></trkpt><trkpt lat="55.9436767" lon="49.2194133"><time>2023-06-03T11:33:39.320</time></trkpt><trkpt lat="55.9437300" lon="49.2193283"><time>2023-06-03T11:33:41.313</time></trkpt><trkpt lat="55.9437800" lon="49.2192233"><time>2023-06-03T11:33:43.313</time></trkpt><trkpt lat="55.9438233" lon="49.2191200"><time>2023-06-03T11:33:45.323</time></trkpt><trkpt lat="55.9438667" lon="49.2190300"><time>2023-06-03T11:33:47.310</time></trkpt><trkpt lat="55.9439033" lon="49.2189517"><time>2023-06-03T11:33:49.317</time></trkpt><trkpt lat="55.9439333" lon="49.2188667"><time>2023-06-03T11:33:51.320</time></trkpt><trkpt lat="55.9439517" lon="49.2187700"><time>2023-06-03T11:33:53.317</time></trkpt><trkpt lat="55.9439717" lon="49.2186550"><time>2023-06-03T11:33:55.313</time></trkpt><trkpt lat="55.9439917" lon="49.2185283"><time>2023-06-03T11:33:57.317</time></trkpt><trkpt lat="55.9440117" lon="49.2184467"><time>2023-06-03T11:33:59.323</time></trkpt><trkpt lat="55.9440300" lon="49.2183650"><time>2023-06-03T11:34:01.323</time></trkpt><trkpt lat="55.9440417" lon="49.2182850"><time>2023-06-03T11:34:03.323</time></trkpt><trkpt lat="55.9440533" lon="49.2181883"><time>2023-06-03T11:34:05.313</time></trkpt><trkpt lat="55.9440683" lon="49.2180700"><time>2023-06-03T11:34:07.317</time></trkpt><trkpt lat="55.9440850" lon="49.2179600"><time>2023-06-03T11:34:09.320</time></trkpt><trkpt lat="55.9441000" lon="49.2178300"><time>2023-06-03T11:34:11.323</time></trkpt><trkpt lat="55.9441050" lon="49.2177150"><time>2023-06-03T11:34:13.317</time></trkpt><trkpt lat="55.9441083" lon="49.2175983"><time>2023-06-03T11:34:15.317</time></trkpt><trkpt lat="55.9441017" lon="49.2174967"><time>2023-06-03T11:34:17.323</time></trkpt><trkpt lat="55.9440850" lon="49.2173700"><time>2023-06-03T11:34:19.317</time></trkpt><trkpt lat="55.9440667" lon="49.2172317"><time>2023-06-03T11:34:21.333</time></trkpt><trkpt lat="55.9440667" lon="49.2172300"><time>2023-06-03T11:34:22.833</time></trkpt><trkpt lat="55.9440733" lon="49.2170917"><time>2023-06-03T11:34:25.313</time></trkpt><trkpt lat="55.9440800" lon="49.2169667"><time>2023-06-03T11:34:27.300</time></trkpt><trkpt lat="55.9440883" lon="49.2168267"><time>2023-06-03T11:34:29.277</time></trkpt><trkpt lat="55.9440800" lon="49.2167417"><time>2023-06-03T11:34:30.287</time></trkpt><trkpt lat="55.9440700" lon="49.2165900"><time>2023-06-03T11:34:32.303</time></trkpt><trkpt lat="55.9441033" lon="49.2164817"><time>2023-06-03T11:34:34.290</time></trkpt><trkpt lat="55.9441300" lon="49.2163367"><time>2023-06-03T11:34:36.310</time></trkpt><trkpt lat="55.9441550" lon="49.2162700"><time>2023-06-03T11:34:37.310</time></trkpt><trkpt lat="55.9441917" lon="49.2161583"><time>2023-06-03T11:34:39.307</time></trkpt><trkpt lat="55.9442050" lon="49.2160333"><time>2023-06-03T11:34:41.307</time></trkpt><trkpt lat="55.9442150" lon="49.2158900"><time>2023-06-03T11:34:43.313</time></trkpt><trkpt lat="55.9442233" lon="49.2157550"><time>2023-06-03T11:34:45.320</time></trkpt><trkpt lat="55.9442233" lon="49.2157517"><time>2023-06-03T11:34:46.260</time></trkpt><trkpt lat="55.9442233" lon="49.2156700"><time>2023-06-03T11:34:47.773</time></trkpt><trkpt lat="55.9442117" lon="49.2155917"><time>2023-06-03T11:34:48.790</time></trkpt><trkpt lat="55.9441767" lon="49.2154267"><time>2023-06-03T11:34:50.303</time></trkpt><trkpt lat="55.9441533" lon="49.2153483"><time>2023-06-03T11:34:51.283</time></trkpt><trkpt lat="55.9441317" lon="49.2152650"><time>2023-06-03T11:34:53.307</time></trkpt><trkpt lat="55.9440833" lon="49.2150700"><time>2023-06-03T11:34:55.307</time></trkpt><trkpt lat="55.9440500" lon="49.2149950"><time>2023-06-03T11:34:56.290</time></trkpt><trkpt lat="55.9440450" lon="49.2148867"><time>2023-06-03T11:34:59.313</time></trkpt><trkpt lat="55.9440667" lon="49.2147917"><time>2023-06-03T11:35:02.320</time></trkpt><trkpt lat="55.9440667" lon="49.2147917"><time>2023-06-03T11:35:03.307</time></trkpt><trkpt lat="55.9440950" lon="49.2147183"><time>2023-06-03T11:35:07.313</time></trkpt><trkpt lat="55.9441300" lon="49.2146600"><time>2023-06-03T11:35:12.310</time></trkpt><trkpt lat="55.9441550" lon="49.2145717"><time>2023-06-03T11:35:16.317</time></trkpt><trkpt lat="55.9441683" lon="49.2144783"><time>2023-06-03T11:35:20.310</time></trkpt><trkpt lat="55.9442000" lon="49.2144050"><time>2023-06-03T11:35:24.333</time></trkpt><trkpt lat="55.9442000" lon="49.2144050"><time>2023-06-03T11:35:24.403</time></trkpt><trkpt lat="55.9441783" lon="49.2145017"><time>2023-06-03T11:35:32.323</time></trkpt><trkpt lat="55.9441783" lon="49.2145017"><time>2023-06-03T11:35:33.307</time></trkpt><trkpt lat="55.9441667" lon="49.2145950"><time>2023-06-03T11:35:37.313</time></trkpt><trkpt lat="55.9441317" lon="49.2146733"><time>2023-06-03T11:35:41.317</time></trkpt><trkpt lat="55.9440967" lon="49.2147400"><time>2023-06-03T11:35:44.313</time></trkpt><trkpt lat="55.9440583" lon="49.2147967"><time>2023-06-03T11:35:48.310</time></trkpt><trkpt lat="55.9440383" lon="49.2148767"><time>2023-06-03T11:35:52.313</time></trkpt><trkpt lat="55.9440217" lon="49.2149550"><time>2023-06-03T11:36:00.313</time></trkpt><trkpt lat="55.9440583" lon="49.2150050"><time>2023-06-03T11:36:20.323</time></trkpt><trkpt lat="55.9440750" lon="49.2151050"><time>2023-06-03T11:36:23.310</time></trkpt><trkpt lat="55.9440800" lon="49.2151900"><time>2023-06-03T11:36:25.327</time></trkpt><trkpt lat="55.9440733" lon="49.2152983"><time>2023-06-03T11:36:27.320</time></trkpt><trkpt lat="55.9440633" lon="49.2154183"><time>2023-06-03T11:36:29.323</time></trkpt><trkpt lat="55.9440450" lon="49.2155350"><time>2023-06-03T11:36:31.307</time></trkpt><trkpt lat="55.9440233" lon="49.2156400"><time>2023-06-03T11:36:33.323</time></trkpt><trkpt lat="55.9440033" lon="49.2157300"><time>2023-06-03T11:36:35.320</time></trkpt><trkpt lat="55.9439867" lon="49.2158233"><time>2023-06-03T11:36:37.323</time></trkpt><trkpt lat="55.9439817" lon="49.2159383"><time>2023-06-03T11:36:39.320</time></trkpt><trkpt lat="55.9439833" lon="49.2160633"><time>2023-06-03T11:36:41.320</time></trkpt><trkpt lat="55.9439883" lon="49.2161950"><time>2023-06-03T11:36:43.320</time></trkpt><trkpt lat="55.9439917" lon="49.2163217"><time>2023-06-03T11:36:45.323</time></trkpt><trkpt lat="55.9440000" lon="49.2164533"><time>2023-06-03T11:36:47.317</time></trkpt><trkpt lat="55.9440100" lon="49.2165483"><time>2023-06-03T11:36:49.317</time></trkpt><trkpt lat="55.9440317" lon="49.2166300"><time>2023-06-03T11:36:51.320</time></trkpt><trkpt lat="55.9440450" lon="49.2167167"><time>2023-06-03T11:36:53.320</time></trkpt><trkpt lat="55.9440450" lon="49.2168283"><time>2023-06-03T11:36:55.307</time></trkpt><trkpt lat="55.9440433" lon="49.2169400"><time>2023-06-03T11:36:58.317</time></trkpt><trkpt lat="55.9440350" lon="49.2170450"><time>2023-06-03T11:37:00.320</time></trkpt><trkpt lat="55.9440283" lon="49.2171600"><time>2023-06-03T11:37:02.320</time></trkpt><trkpt lat="55.9440133" lon="49.2172633"><time>2023-06-03T11:37:04.317</time></trkpt><trkpt lat="55.9440050" lon="49.2173617"><time>2023-06-03T11:37:06.317</time></trkpt><trkpt lat="55.9440033" lon="49.2174417"><time>2023-06-03T11:37:07.287</time></trkpt><trkpt lat="55.9440017" lon="49.2175217"><time>2023-06-03T11:37:08.310</time></trkpt><trkpt lat="55.9439983" lon="49.2176017"><time>2023-06-03T11:37:09.320</time></trkpt><trkpt lat="55.9439967" lon="49.2176967"><time>2023-06-03T11:37:10.317</time></trkpt><trkpt lat="55.9439867" lon="49.2177883"><time>2023-06-03T11:37:12.317</time></trkpt><trkpt lat="55.9439450" lon="49.2178783"><time>2023-06-03T11:37:15.317</time></trkpt><trkpt lat="55.9439667" lon="49.2179850"><time>2023-06-03T11:37:18.310</time></trkpt><trkpt lat="55.9439817" lon="49.2180700"><time>2023-06-03T11:37:19.317</time></trkpt><trkpt lat="55.9439767" lon="49.2182000"><time>2023-06-03T11:37:21.320</time></trkpt><trkpt lat="55.9439683" lon="49.2182983"><time>2023-06-03T11:37:23.320</time></trkpt><trkpt lat="55.9439383" lon="49.2184167"><time>2023-06-03T11:37:26.320</time></trkpt><trkpt lat="55.9439033" lon="49.2184983"><time>2023-06-03T11:37:28.320</time></trkpt><trkpt lat="55.9438883" lon="49.2185800"><time>2023-06-03T11:37:30.320</time></trkpt><trkpt lat="55.9438633" lon="49.2186467"><time>2023-06-03T11:37:31.320</time></trkpt><trkpt lat="55.9438183" lon="49.2188000"><time>2023-06-03T11:37:33.323</time></trkpt><trkpt lat="55.9437983" lon="49.2188817"><time>2023-06-03T11:37:34.323</time></trkpt><trkpt lat="55.9437750" lon="49.2189567"><time>2023-06-03T11:37:35.320</time></trkpt><trkpt lat="55.9437433" lon="49.2190417"><time>2023-06-03T11:37:36.323</time></trkpt><trkpt lat="55.9437150" lon="49.2191050"><time>2023-06-03T11:37:37.323</time></trkpt><trkpt lat="55.9436900" lon="49.2191717"><time>2023-06-03T11:37:38.323</time></trkpt><trkpt lat="55.9436600" lon="49.2192450"><time>2023-06-03T11:37:39.320</time></trkpt><trkpt lat="55.9436283" lon="49.2193117"><time>2023-06-03T11:37:40.323</time></trkpt><trkpt lat="55.9436017" lon="49.2193817"><time>2023-06-03T11:37:41.317</time></trkpt><trkpt lat="55.9435650" lon="49.2194533"><time>2023-06-03T11:37:42.320</time></trkpt><trkpt lat="55.9435367" lon="49.2195167"><time>2023-06-03T11:37:43.300</time></trkpt><trkpt lat="55.9434933" lon="49.2196300"><time>2023-06-03T11:37:45.317</time></trkpt><trkpt lat="55.9434567" lon="49.2197117"><time>2023-06-03T11:37:47.320</time></trkpt><trkpt lat="55.9434083" lon="49.2198183"><time>2023-06-03T11:37:49.320</time></trkpt><trkpt lat="55.9433467" lon="49.2199000"><time>2023-06-03T11:37:51.320</time></trkpt><trkpt lat="55.9432883" lon="49.2199917"><time>2023-06-03T11:37:53.317</time></trkpt><trkpt lat="55.9432400" lon="49.2201117"><time>2023-06-03T11:37:55.320</time></trkpt><trkpt lat="55.9431850" lon="49.2202150"><time>2023-06-03T11:37:57.317</time></trkpt><trkpt lat="55.9431233" lon="49.2203150"><time>2023-06-03T11:37:59.317</time></trkpt><trkpt lat="55.9430567" lon="49.2204117"><time>2023-06-03T11:38:01.317</time></trkpt><trkpt lat="55.9430183" lon="49.2204550"><time>2023-06-03T11:38:02.320</time></trkpt><trkpt lat="55.9429467" lon="49.2205600"><time>2023-06-03T11:38:04.317</time></trkpt><trkpt lat="55.9429200" lon="49.2206367"><time>2023-06-03T11:38:05.317</time></trkpt><trkpt lat="55.9429017" lon="49.2207167"><time>2023-06-03T11:38:06.320</time></trkpt><trkpt lat="55.9428817" lon="49.2208317"><time>2023-06-03T11:38:08.317</time></trkpt><trkpt lat="55.9428433" lon="49.2209283"><time>2023-06-03T11:38:10.280</time></trkpt><trkpt lat="55.9427883" lon="49.2210267"><time>2023-06-03T11:38:12.317</time></trkpt><trkpt lat="55.9427400" lon="49.2211217"><time>2023-06-03T11:38:14.320</time></trkpt><trkpt lat="55.9426917" lon="49.2212017"><time>2023-06-03T11:38:16.317</time></trkpt><trkpt lat="55.9426383" lon="49.2212750"><time>2023-06-03T11:38:18.317</time></trkpt><trkpt lat="55.9425983" lon="49.2213417"><time>2023-06-03T11:38:20.320</time></trkpt><trkpt lat="55.9425383" lon="49.2214217"><time>2023-06-03T11:38:22.320</time></trkpt><trkpt lat="55.9424850" lon="49.2214900"><time>2023-06-03T11:38:24.317</time></trkpt><trkpt lat="55.9424383" lon="49.2215417"><time>2023-06-03T11:38:26.320</time></trkpt><trkpt lat="55.9424033" lon="49.2215933"><time>2023-06-03T11:38:28.313</time></trkpt><trkpt lat="55.9423717" lon="49.2216533"><time>2023-06-03T11:38:30.317</time></trkpt><trkpt lat="55.9423083" lon="49.2217183"><time>2023-06-03T11:38:32.307</time></trkpt><trkpt lat="55.9422567" lon="49.2218083"><time>2023-06-03T11:38:34.323</time></trkpt><trkpt lat="55.9422183" lon="49.2218667"><time>2023-06-03T11:38:35.320</time></trkpt><trkpt lat="55.9421667" lon="49.2219567"><time>2023-06-03T11:38:37.320</time></trkpt><trkpt lat="55.9421067" lon="49.2220050"><time>2023-06-03T11:38:39.323</time></trkpt><trkpt lat="55.9420433" lon="49.2220683"><time>2023-06-03T11:38:41.320</time></trkpt><trkpt lat="55.9419883" lon="49.2221717"><time>2023-06-03T11:38:43.313</time></trkpt><trkpt lat="55.9419517" lon="49.2222500"><time>2023-06-03T11:38:45.323</time></trkpt><trkpt lat="55.9419150" lon="49.2223267"><time>2023-06-03T11:38:47.300</time></trkpt><trkpt lat="55.9418783" lon="49.2224483"><time>2023-06-03T11:38:49.313</time></trkpt><trkpt lat="55.9418533" lon="49.2225217"><time>2023-06-03T11:38:50.313</time></trkpt><trkpt lat="55.9418200" lon="49.2225767"><time>2023-06-03T11:38:51.313</time></trkpt><trkpt lat="55.9417700" lon="49.2226617"><time>2023-06-03T11:38:53.323</time></trkpt><trkpt lat="55.9417317" lon="49.2227233"><time>2023-06-03T11:38:55.320</time></trkpt><trkpt lat="55.9416967" lon="49.2227967"><time>2023-06-03T11:38:57.320</time></trkpt><trkpt lat="55.9416600" lon="49.2228717"><time>2023-06-03T11:38:59.323</time></trkpt><trkpt lat="55.9416300" lon="49.2229550"><time>2023-06-03T11:39:01.323</time></trkpt><trkpt lat="55.9415850" lon="49.2230950"><time>2023-06-03T11:39:03.320</time></trkpt><trkpt lat="55.9415667" lon="49.2231767"><time>2023-06-03T11:39:04.317</time></trkpt><trkpt lat="55.9415633" lon="49.2233150"><time>2023-06-03T11:39:06.323</time></trkpt><trkpt lat="55.9415517" lon="49.2234833"><time>2023-06-03T11:39:08.327</time></trkpt><trkpt lat="55.9415317" lon="49.2236117"><time>2023-06-03T11:39:10.317</time></trkpt><trkpt lat="55.9415000" lon="49.2237683"><time>2023-06-03T11:39:12.320</time></trkpt><trkpt lat="55.9414700" lon="49.2238933"><time>2023-06-03T11:39:14.320</time></trkpt><trkpt lat="55.9414233" lon="49.2239650"><time>2023-06-03T11:39:15.327</time></trkpt><trkpt lat="55.9413833" lon="49.2240350"><time>2023-06-03T11:39:16.320</time></trkpt><trkpt lat="55.9413517" lon="49.2241167"><time>2023-06-03T11:39:17.320</time></trkpt><trkpt lat="55.9413050" lon="49.2242467"><time>2023-06-03T11:39:19.327</time></trkpt><trkpt lat="55.9412767" lon="49.2243167"><time>2023-06-03T11:39:20.320</time></trkpt><trkpt lat="55.9412450" lon="49.2243950"><time>2023-06-03T11:39:21.320</time></trkpt><trkpt lat="55.9412167" lon="49.2244667"><time>2023-06-03T11:39:22.280</time></trkpt><trkpt lat="55.9411617" lon="49.2246033"><time>2023-06-03T11:39:24.307</time></trkpt><trkpt lat="55.9411367" lon="49.2246733"><time>2023-06-03T11:39:25.307</time></trkpt><trkpt lat="55.9411150" lon="49.2247467"><time>2023-06-03T11:39:26.323</time></trkpt><trkpt lat="55.9410733" lon="49.2248583"><time>2023-06-03T11:39:28.323</time></trkpt><trkpt lat="55.9410217" lon="49.2248500"><time>2023-06-03T11:39:31.317</time></trkpt><trkpt lat="55.9409817" lon="49.2247717"><time>2023-06-03T11:39:34.290</time></trkpt><trkpt lat="55.9409550" lon="49.2246767"><time>2023-06-03T11:39:36.280</time></trkpt><trkpt lat="55.9409283" lon="49.2245800"><time>2023-06-03T11:39:38.307</time></trkpt><trkpt lat="55.9408883" lon="49.2244850"><time>2023-06-03T11:39:40.287</time></trkpt><trkpt lat="55.9408500" lon="49.2244017"><time>2023-06-03T11:39:42.303</time></trkpt><trkpt lat="55.9407883" lon="49.2243517"><time>2023-06-03T11:39:45.293</time></trkpt><trkpt lat="55.9407467" lon="49.2243217"><time>2023-06-03T11:39:46.300</time></trkpt><trkpt lat="55.9407017" lon="49.2242850"><time>2023-06-03T11:39:47.307</time></trkpt><trkpt lat="55.9406383" lon="49.2242167"><time>2023-06-03T11:39:49.313</time></trkpt><trkpt lat="55.9405683" lon="49.2241650"><time>2023-06-03T11:39:51.317</time></trkpt><trkpt lat="55.9404933" lon="49.2241117"><time>2023-06-03T11:39:53.317</time></trkpt><trkpt lat="55.9404233" lon="49.2240483"><time>2023-06-03T11:39:55.307</time></trkpt><trkpt lat="55.9403650" lon="49.2239933"><time>2023-06-03T11:39:57.317</time></trkpt><trkpt lat="55.9403033" lon="49.2239350"><time>2023-06-03T11:39:59.313</time></trkpt><trkpt lat="55.9402333" lon="49.2238817"><time>2023-06-03T11:40:01.313</time></trkpt><trkpt lat="55.9401617" lon="49.2238183"><time>2023-06-03T11:40:03.280</time></trkpt><trkpt lat="55.9401217" lon="49.2237800"><time>2023-06-03T11:40:04.287</time></trkpt><trkpt lat="55.9400633" lon="49.2236933"><time>2023-06-03T11:40:06.307</time></trkpt><trkpt lat="55.9400100" lon="49.2236050"><time>2023-06-03T11:40:08.280</time></trkpt><trkpt lat="55.9399517" lon="49.2235117"><time>2023-06-03T11:40:10.317</time></trkpt><trkpt lat="55.9399017" lon="49.2234183"><time>2023-06-03T11:40:12.317</time></trkpt><trkpt lat="55.9398567" lon="49.2233133"><time>2023-06-03T11:40:14.317</time></trkpt><trkpt lat="55.9398167" lon="49.2232117"><time>2023-06-03T11:40:16.317</time></trkpt><trkpt lat="55.9397867" lon="49.2231517"><time>2023-06-03T11:40:18.313</time></trkpt><trkpt lat="55.9397383" lon="49.2231050"><time>2023-06-03T11:40:21.313</time></trkpt><trkpt lat="55.9397000" lon="49.2230517"><time>2023-06-03T11:40:23.317</time></trkpt><trkpt lat="55.9396550" lon="49.2229917"><time>2023-06-03T11:40:25.317</time></trkpt><trkpt lat="55.9396033" lon="49.2229567"><time>2023-06-03T11:40:27.317</time></trkpt><trkpt lat="55.9395517" lon="49.2229467"><time>2023-06-03T11:40:29.317</time></trkpt><trkpt lat="55.9395017" lon="49.2229700"><time>2023-06-03T11:40:31.317</time></trkpt><trkpt lat="55.9394483" lon="49.2230117"><time>2023-06-03T11:40:33.307</time></trkpt><trkpt lat="55.9393883" lon="49.2230467"><time>2023-06-03T11:40:35.283</time></trkpt><trkpt lat="55.9393233" lon="49.2230717"><time>2023-06-03T11:40:37.313</time></trkpt><trkpt lat="55.9392683" lon="49.2230800"><time>2023-06-03T11:40:39.313</time></trkpt><trkpt lat="55.9392067" lon="49.2231133"><time>2023-06-03T11:40:41.313</time></trkpt><trkpt lat="55.9391583" lon="49.2231433"><time>2023-06-03T11:40:43.317</time></trkpt><trkpt lat="55.9391100" lon="49.2231550"><time>2023-06-03T11:40:45.317</time></trkpt><trkpt lat="55.9390600" lon="49.2231717"><time>2023-06-03T11:40:47.317</time></trkpt><trkpt lat="55.9390117" lon="49.2231800"><time>2023-06-03T11:40:49.317</time></trkpt><trkpt lat="55.9389567" lon="49.2231867"><time>2023-06-03T11:40:51.313</time></trkpt><trkpt lat="55.9388983" lon="49.2231467"><time>2023-06-03T11:40:54.317</time></trkpt><trkpt lat="55.9388533" lon="49.2231033"><time>2023-06-03T11:40:56.317</time></trkpt><trkpt lat="55.9388033" lon="49.2230650"><time>2023-06-03T11:40:58.313</time></trkpt><trkpt lat="55.9387467" lon="49.2230283"><time>2023-06-03T11:41:00.317</time></trkpt><trkpt lat="55.9387000" lon="49.2229683"><time>2023-06-03T11:41:02.313</time></trkpt><trkpt lat="55.9386417" lon="49.2229000"><time>2023-06-03T11:41:04.317</time></trkpt><trkpt lat="55.9385867" lon="49.2228400"><time>2023-06-03T11:41:06.317</time></trkpt><trkpt lat="55.9385450" lon="49.2227733"><time>2023-06-03T11:41:08.317</time></trkpt><trkpt lat="55.9384850" lon="49.2227000"><time>2023-06-03T11:41:10.317</time></trkpt><trkpt lat="55.9384533" lon="49.2226017"><time>2023-06-03T11:41:12.317</time></trkpt><trkpt lat="55.9384000" lon="49.2225050"><time>2023-06-03T11:41:14.317</time></trkpt><trkpt lat="55.9383483" lon="49.2224117"><time>2023-06-03T11:41:16.317</time></trkpt><trkpt lat="55.9382967" lon="49.2223250"><time>2023-06-03T11:41:18.317</time></trkpt><trkpt lat="55.9382583" lon="49.2222300"><time>2023-06-03T11:41:20.317</time></trkpt><trkpt lat="55.9382150" lon="49.2221583"><time>2023-06-03T11:41:22.317</time></trkpt><trkpt lat="55.9381533" lon="49.2220800"><time>2023-06-03T11:41:24.317</time></trkpt><trkpt lat="55.9381100" lon="49.2220233"><time>2023-06-03T11:41:26.313</time></trkpt><trkpt lat="55.9380667" lon="49.2219600"><time>2023-06-03T11:41:28.313</time></trkpt><trkpt lat="55.9380000" lon="49.2218667"><time>2023-06-03T11:41:30.317</time></trkpt><trkpt lat="55.9379367" lon="49.2217867"><time>2023-06-03T11:41:32.317</time></trkpt><trkpt lat="55.9378833" lon="49.2217200"><time>2023-06-03T11:41:34.303</time></trkpt><trkpt lat="55.9378300" lon="49.2216350"><time>2023-06-03T11:41:36.317</time></trkpt><trkpt lat="55.9377733" lon="49.2215067"><time>2023-06-03T11:41:38.317</time></trkpt><trkpt lat="55.9377433" lon="49.2214267"><time>2023-06-03T11:41:39.313</time></trkpt><trkpt lat="55.9377167" lon="49.2213483"><time>2023-06-03T11:41:40.313</time></trkpt><trkpt lat="55.9376850" lon="49.2212883"><time>2023-06-03T11:41:41.317</time></trkpt><trkpt lat="55.9376333" lon="49.2211850"><time>2023-06-03T11:41:43.313</time></trkpt><trkpt lat="55.9376050" lon="49.2210900"><time>2023-06-03T11:41:45.317</time></trkpt><trkpt lat="55.9375883" lon="49.2210083"><time>2023-06-03T11:41:47.317</time></trkpt><trkpt lat="55.9375650" lon="49.2209233"><time>2023-06-03T11:41:50.317</time></trkpt><trkpt lat="55.9375367" lon="49.2208250"><time>2023-06-03T11:41:52.317</time></trkpt><trkpt lat="55.9375117" lon="49.2207133"><time>2023-06-03T11:41:54.300</time></trkpt><trkpt lat="55.9375100" lon="49.2205933"><time>2023-06-03T11:41:56.317</time></trkpt><trkpt lat="55.9375100" lon="49.2204900"><time>2023-06-03T11:41:58.317</time></trkpt><trkpt lat="55.9374850" lon="49.2203983"><time>2023-06-03T11:42:00.317</time></trkpt><trkpt lat="55.9374517" lon="49.2203050"><time>2023-06-03T11:42:02.317</time></trkpt><trkpt lat="55.9374083" lon="49.2202050"><time>2023-06-03T11:42:04.310</time></trkpt><trkpt lat="55.9373800" lon="49.2201417"><time>2023-06-03T11:42:05.317</time></trkpt><trkpt lat="55.9373200" lon="49.2200150"><time>2023-06-03T11:42:07.313</time></trkpt><trkpt lat="55.9372783" lon="49.2198800"><time>2023-06-03T11:42:09.317</time></trkpt><trkpt lat="55.9372233" lon="49.2197683"><time>2023-06-03T11:42:11.317</time></trkpt><trkpt lat="55.9371850" lon="49.2196800"><time>2023-06-03T11:42:13.297</time></trkpt><trkpt lat="55.9371500" lon="49.2195667"><time>2023-06-03T11:42:15.317</time></trkpt><trkpt lat="55.9371250" lon="49.2194667"><time>2023-06-03T11:42:17.317</time></trkpt><trkpt lat="55.9370983" lon="49.2193650"><time>2023-06-03T11:42:19.317</time></trkpt><trkpt lat="55.9370683" lon="49.2192317"><time>2023-06-03T11:42:21.307</time></trkpt><trkpt lat="55.9370300" lon="49.2191000"><time>2023-06-03T11:42:23.317</time></trkpt><trkpt lat="55.9370050" lon="49.2189883"><time>2023-06-03T11:42:25.280</time></trkpt><trkpt lat="55.9369833" lon="49.2188683"><time>2023-06-03T11:42:27.317</time></trkpt><trkpt lat="55.9369700" lon="49.2187567"><time>2023-06-03T11:42:29.317</time></trkpt><trkpt lat="55.9369317" lon="49.2186000"><time>2023-06-03T11:42:31.320</time></trkpt><trkpt lat="55.9368967" lon="49.2184567"><time>2023-06-03T11:42:33.317</time></trkpt><trkpt lat="55.9368667" lon="49.2183867"><time>2023-06-03T11:42:34.320</time></trkpt><trkpt lat="55.9368383" lon="49.2182517"><time>2023-06-03T11:42:36.317</time></trkpt><trkpt lat="55.9368200" lon="49.2181333"><time>2023-06-03T11:42:38.317</time></trkpt><trkpt lat="55.9368050" lon="49.2180033"><time>2023-06-03T11:42:40.313</time></trkpt><trkpt lat="55.9367900" lon="49.2178817"><time>2023-06-03T11:42:42.320</time></trkpt><trkpt lat="55.9367667" lon="49.2177883"><time>2023-06-03T11:42:44.317</time></trkpt><trkpt lat="55.9367300" lon="49.2176383"><time>2023-06-03T11:42:46.317</time></trkpt><trkpt lat="55.9367017" lon="49.2175250"><time>2023-06-03T11:42:48.317</time></trkpt><trkpt lat="55.9366950" lon="49.2173950"><time>2023-06-03T11:42:50.313</time></trkpt><trkpt lat="55.9366967" lon="49.2172667"><time>2023-06-03T11:42:52.317</time></trkpt><trkpt lat="55.9366517" lon="49.2171517"><time>2023-06-03T11:42:54.320</time></trkpt><trkpt lat="55.9366250" lon="49.2170800"><time>2023-06-03T11:42:55.303</time></trkpt><trkpt lat="55.9365750" lon="49.2169450"><time>2023-06-03T11:42:57.317</time></trkpt><trkpt lat="55.9365467" lon="49.2168700"><time>2023-06-03T11:42:58.317</time></trkpt><trkpt lat="55.9365233" lon="49.2167983"><time>2023-06-03T11:42:59.320</time></trkpt><trkpt lat="55.9365017" lon="49.2166500"><time>2023-06-03T11:43:01.327</time></trkpt><trkpt lat="55.9364917" lon="49.2165067"><time>2023-06-03T11:43:03.320</time></trkpt><trkpt lat="55.9364900" lon="49.2163833"><time>2023-06-03T11:43:05.317</time></trkpt><trkpt lat="55.9364567" lon="49.2162617"><time>2023-06-03T11:43:07.303</time></trkpt><trkpt lat="55.9364300" lon="49.2161950"><time>2023-06-03T11:43:08.320</time></trkpt><trkpt lat="55.9363967" lon="49.2161317"><time>2023-06-03T11:43:09.320</time></trkpt><trkpt lat="55.9363600" lon="49.2160600"><time>2023-06-03T11:43:10.317</time></trkpt><trkpt lat="55.9363250" lon="49.2159900"><time>2023-06-03T11:43:11.320</time></trkpt><trkpt lat="55.9362683" lon="49.2158750"><time>2023-06-03T11:43:13.317</time></trkpt><trkpt lat="55.9362217" lon="49.2157550"><time>2023-06-03T11:43:15.320</time></trkpt><trkpt lat="55.9362000" lon="49.2156017"><time>2023-06-03T11:43:17.320</time></trkpt><trkpt lat="55.9362000" lon="49.2155117"><time>2023-06-03T11:43:18.320</time></trkpt><trkpt lat="55.9361850" lon="49.2153867"><time>2023-06-03T11:43:19.317</time></trkpt><trkpt lat="55.9361717" lon="49.2152800"><time>2023-06-03T11:43:20.323</time></trkpt><trkpt lat="55.9361550" lon="49.2151717"><time>2023-06-03T11:43:21.327</time></trkpt><trkpt lat="55.9361383" lon="49.2150767"><time>2023-06-03T11:43:22.320</time></trkpt><trkpt lat="55.9361200" lon="49.2149917"><time>2023-06-03T11:43:23.320</time></trkpt><trkpt lat="55.9361033" lon="49.2149067"><time>2023-06-03T11:43:24.320</time></trkpt><trkpt lat="55.9360800" lon="49.2148133"><time>2023-06-03T11:43:25.320</time></trkpt><trkpt lat="55.9360483" lon="49.2147283"><time>2023-06-03T11:43:26.320</time></trkpt><trkpt lat="55.9360100" lon="49.2146467"><time>2023-06-03T11:43:27.320</time></trkpt><trkpt lat="55.9359700" lon="49.2145733"><time>2023-06-03T11:43:28.320</time></trkpt><trkpt lat="55.9359283" lon="49.2145217"><time>2023-06-03T11:43:29.320</time></trkpt><trkpt lat="55.9358567" lon="49.2144633"><time>2023-06-03T11:43:31.320</time></trkpt><trkpt lat="55.9357867" lon="49.2143983"><time>2023-06-03T11:43:33.320</time></trkpt><trkpt lat="55.9357383" lon="49.2143167"><time>2023-06-03T11:43:35.320</time></trkpt><trkpt lat="55.9357150" lon="49.2142050"><time>2023-06-03T11:43:37.320</time></trkpt><trkpt lat="55.9356783" lon="49.2140850"><time>2023-06-03T11:43:39.320</time></trkpt><trkpt lat="55.9356350" lon="49.2139767"><time>2023-06-03T11:43:41.320</time></trkpt><trkpt lat="55.9355950" lon="49.2138850"><time>2023-06-03T11:43:43.317</time></trkpt><trkpt lat="55.9355333" lon="49.2137967"><time>2023-06-03T11:43:45.320</time></trkpt><trkpt lat="55.9354683" lon="49.2137033"><time>2023-06-03T11:43:47.320</time></trkpt><trkpt lat="55.9354283" lon="49.2136050"><time>2023-06-03T11:43:49.317</time></trkpt><trkpt lat="55.9354117" lon="49.2134867"><time>2023-06-03T11:43:51.317</time></trkpt><trkpt lat="55.9354000" lon="49.2133650"><time>2023-06-03T11:43:53.320</time></trkpt><trkpt lat="55.9353867" lon="49.2132633"><time>2023-06-03T11:43:55.320</time></trkpt><trkpt lat="55.9353683" lon="49.2131283"><time>2023-06-03T11:43:57.320</time></trkpt><trkpt lat="55.9353650" lon="49.2130350"><time>2023-06-03T11:43:59.320</time></trkpt><trkpt lat="55.9353633" lon="49.2129383"><time>2023-06-03T11:44:01.320</time></trkpt><trkpt lat="55.9353500" lon="49.2128383"><time>2023-06-03T11:44:04.320</time></trkpt><trkpt lat="55.9353083" lon="49.2127133"><time>2023-06-03T11:44:06.317</time></trkpt><trkpt lat="55.9352733" lon="49.2125783"><time>2023-06-03T11:44:08.317</time></trkpt><trkpt lat="55.9352300" lon="49.2124550"><time>2023-06-03T11:44:10.290</time></trkpt><trkpt lat="55.9352000" lon="49.2123283"><time>2023-06-03T11:44:12.317</time></trkpt><trkpt lat="55.9351750" lon="49.2122200"><time>2023-06-03T11:44:14.320</time></trkpt><trkpt lat="55.9351717" lon="49.2121100"><time>2023-06-03T11:44:17.320</time></trkpt><trkpt lat="55.9351617" lon="49.2119950"><time>2023-06-03T11:44:19.317</time></trkpt><trkpt lat="55.9351950" lon="49.2118617"><time>2023-06-03T11:44:21.320</time></trkpt><trkpt lat="55.9352250" lon="49.2117967"><time>2023-06-03T11:44:22.313</time></trkpt><trkpt lat="55.9352683" lon="49.2116767"><time>2023-06-03T11:44:24.320</time></trkpt><trkpt lat="55.9352950" lon="49.2115567"><time>2023-06-03T11:44:26.320</time></trkpt><trkpt lat="55.9353450" lon="49.2114183"><time>2023-06-03T11:44:28.317</time></trkpt><trkpt lat="55.9353650" lon="49.2113183"><time>2023-06-03T11:44:30.317</time></trkpt><trkpt lat="55.9353950" lon="49.2111917"><time>2023-06-03T11:44:32.310</time></trkpt><trkpt lat="55.9354200" lon="49.2110750"><time>2023-06-03T11:44:34.320</time></trkpt><trkpt lat="55.9354250" lon="49.2109733"><time>2023-06-03T11:44:36.320</time></trkpt><trkpt lat="55.9354133" lon="49.2108700"><time>2023-06-03T11:44:39.320</time></trkpt><trkpt lat="55.9354100" lon="49.2107817"><time>2023-06-03T11:44:42.320</time></trkpt><trkpt lat="55.9354250" lon="49.2106733"><time>2023-06-03T11:44:47.317</time></trkpt><trkpt lat="55.9354250" lon="49.2105667"><time>2023-06-03T11:44:50.320</time></trkpt><trkpt lat="55.9354367" lon="49.2104450"><time>2023-06-03T11:44:53.320</time></trkpt><trkpt lat="55.9354333" lon="49.2103550"><time>2023-06-03T11:44:55.320</time></trkpt><trkpt lat="55.9354417" lon="49.2102567"><time>2023-06-03T11:44:58.320</time></trkpt><trkpt lat="55.9354617" lon="49.2101683"><time>2023-06-03T11:45:01.320</time></trkpt><trkpt lat="55.9354750" lon="49.2100783"><time>2023-06-03T11:45:04.323</time></trkpt><trkpt lat="55.9354917" lon="49.2099817"><time>2023-06-03T11:45:07.323</time></trkpt><trkpt lat="55.9355117" lon="49.2098867"><time>2023-06-03T11:45:11.317</time></trkpt><trkpt lat="55.9355267" lon="49.2098100"><time>2023-06-03T11:45:14.323</time></trkpt><trkpt lat="55.9355467" lon="49.2097300"><time>2023-06-03T11:45:17.813</time></trkpt><trkpt lat="55.9355733" lon="49.2096650"><time>2023-06-03T11:45:21.320</time></trkpt><trkpt lat="55.9356033" lon="49.2095883"><time>2023-06-03T11:45:26.323</time></trkpt><trkpt lat="55.9356033" lon="49.2094983"><time>2023-06-03T11:45:37.323</time></trkpt><trkpt lat="55.9356367" lon="49.2094183"><time>2023-06-03T11:45:43.317</time></trkpt><trkpt lat="55.9356850" lon="49.2093900"><time>2023-06-03T11:45:47.323</time></trkpt><trkpt lat="55.9357300" lon="49.2093600"><time>2023-06-03T11:45:52.317</time></trkpt><trkpt lat="55.9357700" lon="49.2092950"><time>2023-06-03T11:45:57.290</time></trkpt><trkpt lat="55.9357850" lon="49.2091633"><time>2023-06-03T11:46:00.293</time></trkpt><trkpt lat="55.9358033" lon="49.2090650"><time>2023-06-03T11:46:02.310</time></trkpt><trkpt lat="55.9358283" lon="49.2089883"><time>2023-06-03T11:46:04.320</time></trkpt><trkpt lat="55.9358583" lon="49.2089167"><time>2023-06-03T11:46:06.313</time></trkpt><trkpt lat="55.9359033" lon="49.2088350"><time>2023-06-03T11:46:09.317</time></trkpt><trkpt lat="55.9359450" lon="49.2087450"><time>2023-06-03T11:46:12.320</time></trkpt><trkpt lat="55.9359800" lon="49.2086683"><time>2023-06-03T11:46:14.320</time></trkpt><trkpt lat="55.9360233" lon="49.2085650"><time>2023-06-03T11:46:16.320</time></trkpt><trkpt lat="55.9360550" lon="49.2084533"><time>2023-06-03T11:46:18.323</time></trkpt><trkpt lat="55.9360717" lon="49.2083500"><time>2023-06-03T11:46:20.323</time></trkpt><trkpt lat="55.9360800" lon="49.2082633"><time>2023-06-03T11:46:22.320</time></trkpt><trkpt lat="55.9360800" lon="49.2081583"><time>2023-06-03T11:46:24.323</time></trkpt><trkpt lat="55.9360850" lon="49.2080517"><time>2023-06-03T11:46:26.323</time></trkpt><trkpt lat="55.9361017" lon="49.2079617"><time>2023-06-03T11:46:28.323</time></trkpt><trkpt lat="55.9361350" lon="49.2078850"><time>2023-06-03T11:46:30.323</time></trkpt><trkpt lat="55.9361650" lon="49.2077983"><time>2023-06-03T11:46:33.323</time></trkpt><trkpt lat="55.9361883" lon="49.2077100"><time>2023-06-03T11:46:35.320</time></trkpt><trkpt lat="55.9362183" lon="49.2076117"><time>2023-06-03T11:46:37.320</time></trkpt><trkpt lat="55.9362550" lon="49.2075167"><time>2023-06-03T11:46:39.320</time></trkpt><trkpt lat="55.9362783" lon="49.2074300"><time>2023-06-03T11:46:41.320</time></trkpt><trkpt lat="55.9363083" lon="49.2073650"><time>2023-06-03T11:46:43.317</time></trkpt><trkpt lat="55.9363567" lon="49.2073100"><time>2023-06-03T11:46:45.317</time></trkpt><trkpt lat="55.9364083" lon="49.2072550"><time>2023-06-03T11:46:47.317</time></trkpt><trkpt lat="55.9364617" lon="49.2072100"><time>2023-06-03T11:46:49.317</time></trkpt><trkpt lat="55.9365100" lon="49.2071700"><time>2023-06-03T11:46:51.320</time></trkpt><trkpt lat="55.9365650" lon="49.2071300"><time>2023-06-03T11:46:54.320</time></trkpt><trkpt lat="55.9366167" lon="49.2071083"><time>2023-06-03T11:46:58.320</time></trkpt><trkpt lat="55.9366550" lon="49.2070583"><time>2023-06-03T11:47:01.310</time></trkpt><trkpt lat="55.9366900" lon="49.2070017"><time>2023-06-03T11:47:07.310</time></trkpt><trkpt lat="55.9367250" lon="49.2069450"><time>2023-06-03T11:47:11.320</time></trkpt><trkpt lat="55.9367500" lon="49.2068667"><time>2023-06-03T11:47:14.320</time></trkpt><trkpt lat="55.9367767" lon="49.2068000"><time>2023-06-03T11:47:16.320</time></trkpt><trkpt lat="55.9368133" lon="49.2067383"><time>2023-06-03T11:47:18.320</time></trkpt><trkpt lat="55.9368550" lon="49.2066783"><time>2023-06-03T11:47:20.320</time></trkpt><trkpt lat="55.9368950" lon="49.2066283"><time>2023-06-03T11:47:22.320</time></trkpt><trkpt lat="55.9369400" lon="49.2065850"><time>2023-06-03T11:47:24.320</time></trkpt><trkpt lat="55.9369933" lon="49.2065433"><time>2023-06-03T11:47:26.307</time></trkpt><trkpt lat="55.9370550" lon="49.2065383"><time>2023-06-03T11:47:28.320</time></trkpt><trkpt lat="55.9371033" lon="49.2065317"><time>2023-06-03T11:47:30.323</time></trkpt><trkpt lat="55.9371700" lon="49.2065100"><time>2023-06-03T11:47:33.323</time></trkpt><trkpt lat="55.9372183" lon="49.2064717"><time>2023-06-03T11:47:35.320</time></trkpt><trkpt lat="55.9372783" lon="49.2064350"><time>2023-06-03T11:47:38.320</time></trkpt><trkpt lat="55.9373367" lon="49.2064283"><time>2023-06-03T11:47:40.320</time></trkpt><trkpt lat="55.9373933" lon="49.2064217"><time>2023-06-03T11:47:42.327</time></trkpt><trkpt lat="55.9374467" lon="49.2064083"><time>2023-06-03T11:47:44.320</time></trkpt><trkpt lat="55.9374983" lon="49.2063950"><time>2023-06-03T11:47:46.327</time></trkpt><trkpt lat="55.9375550" lon="49.2063333"><time>2023-06-03T11:47:49.320</time></trkpt><trkpt lat="55.9376017" lon="49.2062683"><time>2023-06-03T11:47:52.320</time></trkpt><trkpt lat="55.9376350" lon="49.2062133"><time>2023-06-03T11:48:29.313</time></trkpt><trkpt lat="55.9376283" lon="49.2062967"><time>2023-06-03T11:48:51.323</time></trkpt><trkpt lat="55.9376083" lon="49.2062250"><time>2023-06-03T11:49:39.320</time></trkpt><trkpt lat="55.9376567" lon="49.2062067"><time>2023-06-03T11:50:09.320</time></trkpt><trkpt lat="55.9377067" lon="49.2061600"><time>2023-06-03T11:50:14.327</time></trkpt><trkpt lat="55.9377450" lon="49.2061000"><time>2023-06-03T11:50:17.323</time></trkpt><trkpt lat="55.9377800" lon="49.2060300"><time>2023-06-03T11:50:22.320</time></trkpt><trkpt lat="55.9378117" lon="49.2059567"><time>2023-06-03T11:50:27.320</time></trkpt><trkpt lat="55.9378567" lon="49.2059650"><time>2023-06-03T11:50:38.320</time></trkpt><trkpt lat="55.9379100" lon="49.2059467"><time>2023-06-03T11:50:43.323</time></trkpt><trkpt lat="55.9379600" lon="49.2059167"><time>2023-06-03T11:50:46.320</time></trkpt><trkpt lat="55.9380217" lon="49.2059067"><time>2023-06-03T11:50:49.317</time></trkpt><trkpt lat="55.9380667" lon="49.2058950"><time>2023-06-03T11:50:51.317</time></trkpt><trkpt lat="55.9381183" lon="49.2059050"><time>2023-06-03T11:50:53.320</time></trkpt><trkpt lat="55.9381867" lon="49.2059300"><time>2023-06-03T11:50:55.303</time></trkpt><trkpt lat="55.9382483" lon="49.2059417"><time>2023-06-03T11:50:57.313</time></trkpt><trkpt lat="55.9383133" lon="49.2059783"><time>2023-06-03T11:50:59.320</time></trkpt><trkpt lat="55.9383700" lon="49.2059950"><time>2023-06-03T11:51:01.323</time></trkpt><trkpt lat="55.9384350" lon="49.2060200"><time>2023-06-03T11:51:03.307</time></trkpt><trkpt lat="55.9385117" lon="49.2060400"><time>2023-06-03T11:51:05.317</time></trkpt><trkpt lat="55.9385633" lon="49.2060617"><time>2023-06-03T11:51:06.317</time></trkpt><trkpt lat="55.9386133" lon="49.2060783"><time>2023-06-03T11:51:07.317</time></trkpt><trkpt lat="55.9386667" lon="49.2061033"><time>2023-06-03T11:51:08.320</time></trkpt><trkpt lat="55.9387150" lon="49.2061283"><time>2023-06-03T11:51:09.320</time></trkpt><trkpt lat="55.9387650" lon="49.2061467"><time>2023-06-03T11:51:10.320</time></trkpt><trkpt lat="55.9388167" lon="49.2061533"><time>2023-06-03T11:51:11.320</time></trkpt><trkpt lat="55.9388700" lon="49.2061550"><time>2023-06-03T11:51:12.323</time></trkpt><trkpt lat="55.9389233" lon="49.2061600"><time>2023-06-03T11:51:13.323</time></trkpt><trkpt lat="55.9389750" lon="49.2061733"><time>2023-06-03T11:51:14.320</time></trkpt><trkpt lat="55.9390633" lon="49.2061967"><time>2023-06-03T11:51:16.317</time></trkpt><trkpt lat="55.9391117" lon="49.2061967"><time>2023-06-03T11:51:17.320</time></trkpt><trkpt lat="55.9391617" lon="49.2061833"><time>2023-06-03T11:51:18.323</time></trkpt><trkpt lat="55.9392083" lon="49.2061583"><time>2023-06-03T11:51:19.320</time></trkpt><trkpt lat="55.9392883" lon="49.2061117"><time>2023-06-03T11:51:21.323</time></trkpt><trkpt lat="55.9393700" lon="49.2060950"><time>2023-06-03T11:51:23.323</time></trkpt><trkpt lat="55.9394317" lon="49.2060717"><time>2023-06-03T11:51:25.323</time></trkpt><trkpt lat="55.9394900" lon="49.2060550"><time>2023-06-03T11:51:27.320</time></trkpt><trkpt lat="55.9395383" lon="49.2060467"><time>2023-06-03T11:51:29.320</time></trkpt><trkpt lat="55.9395850" lon="49.2060500"><time>2023-06-03T11:51:31.320</time></trkpt><trkpt lat="55.9396483" lon="49.2060667"><time>2023-06-03T11:51:33.323</time></trkpt><trkpt lat="55.9397250" lon="49.2060833"><time>2023-06-03T11:51:35.320</time></trkpt><trkpt lat="55.9398050" lon="49.2061067"><time>2023-06-03T11:51:37.323</time></trkpt><trkpt lat="55.9398733" lon="49.2061283"><time>2023-06-03T11:51:39.320</time></trkpt><trkpt lat="55.9399400" lon="49.2061533"><time>2023-06-03T11:51:41.323</time></trkpt><trkpt lat="55.9400217" lon="49.2061900"><time>2023-06-03T11:51:43.323</time></trkpt><trkpt lat="55.9401083" lon="49.2062083"><time>2023-06-03T11:51:45.320</time></trkpt><trkpt lat="55.9401817" lon="49.2062250"><time>2023-06-03T11:51:47.323</time></trkpt><trkpt lat="55.9402500" lon="49.2062350"><time>2023-06-03T11:51:49.323</time></trkpt><trkpt lat="55.9403200" lon="49.2062550"><time>2023-06-03T11:51:51.320</time></trkpt><trkpt lat="55.9403783" lon="49.2062883"><time>2023-06-03T11:51:53.320</time></trkpt><trkpt lat="55.9404450" lon="49.2063317"><time>2023-06-03T11:51:55.320</time></trkpt><trkpt lat="55.9405117" lon="49.2063667"><time>2023-06-03T11:51:57.323</time></trkpt><trkpt lat="55.9405900" lon="49.2063967"><time>2023-06-03T11:51:59.320</time></trkpt><trkpt lat="55.9406717" lon="49.2064233"><time>2023-06-03T11:52:01.320</time></trkpt><trkpt lat="55.9407183" lon="49.2064400"><time>2023-06-03T11:52:02.323</time></trkpt><trkpt lat="55.9407650" lon="49.2064683"><time>2023-06-03T11:52:03.317</time></trkpt><trkpt lat="55.9408083" lon="49.2064917"><time>2023-06-03T11:52:04.310</time></trkpt><trkpt lat="55.9408550" lon="49.2064967"><time>2023-06-03T11:52:05.310</time></trkpt><trkpt lat="55.9409250" lon="49.2065067"><time>2023-06-03T11:52:06.320</time></trkpt><trkpt lat="55.9409817" lon="49.2065267"><time>2023-06-03T11:52:07.320</time></trkpt><trkpt lat="55.9410283" lon="49.2065500"><time>2023-06-03T11:52:08.323</time></trkpt><trkpt lat="55.9410817" lon="49.2065650"><time>2023-06-03T11:52:09.320</time></trkpt><trkpt lat="55.9411333" lon="49.2065667"><time>2023-06-03T11:52:10.297</time></trkpt><trkpt lat="55.9411850" lon="49.2065767"><time>2023-06-03T11:52:11.307</time></trkpt><trkpt lat="55.9412350" lon="49.2065783"><time>2023-06-03T11:52:12.303</time></trkpt><trkpt lat="55.9412800" lon="49.2065800"><time>2023-06-03T11:52:13.317</time></trkpt><trkpt lat="55.9413617" lon="49.2065800"><time>2023-06-03T11:52:15.320</time></trkpt><trkpt lat="55.9414467" lon="49.2065883"><time>2023-06-03T11:52:17.320</time></trkpt><trkpt lat="55.9415333" lon="49.2066083"><time>2023-06-03T11:52:19.317</time></trkpt><trkpt lat="55.9415783" lon="49.2066217"><time>2023-06-03T11:52:20.317</time></trkpt><trkpt lat="55.9416300" lon="49.2066367"><time>2023-06-03T11:52:21.317</time></trkpt><trkpt lat="55.9416783" lon="49.2066567"><time>2023-06-03T11:52:22.317</time></trkpt><trkpt lat="55.9417300" lon="49.2066783"><time>2023-06-03T11:52:23.310</time></trkpt><trkpt lat="55.9418167" lon="49.2067183"><time>2023-06-03T11:52:25.323</time></trkpt><trkpt lat="55.9418617" lon="49.2067267"><time>2023-06-03T11:52:26.327</time></trkpt><trkpt lat="55.9419467" lon="49.2067517"><time>2023-06-03T11:52:28.310</time></trkpt><trkpt lat="55.9420350" lon="49.2067733"><time>2023-06-03T11:52:30.317</time></trkpt><trkpt lat="55.9420833" lon="49.2068000"><time>2023-06-03T11:52:31.317</time></trkpt><trkpt lat="55.9421367" lon="49.2068133"><time>2023-06-03T11:52:32.323</time></trkpt><trkpt lat="55.9421833" lon="49.2068300"><time>2023-06-03T11:52:33.320</time></trkpt><trkpt lat="55.9422267" lon="49.2068567"><time>2023-06-03T11:52:34.317</time></trkpt><trkpt lat="55.9423033" lon="49.2068933"><time>2023-06-03T11:52:36.317</time></trkpt><trkpt lat="55.9423717" lon="49.2068867"><time>2023-06-03T11:52:38.320</time></trkpt><trkpt lat="55.9424617" lon="49.2068883"><time>2023-06-03T11:52:40.323</time></trkpt><trkpt lat="55.9425183" lon="49.2068900"><time>2023-06-03T11:52:41.320</time></trkpt><trkpt lat="55.9425650" lon="49.2068967"><time>2023-06-03T11:52:42.320</time></trkpt><trkpt lat="55.9426100" lon="49.2069183"><time>2023-06-03T11:52:43.320</time></trkpt><trkpt lat="55.9426983" lon="49.2069500"><time>2023-06-03T11:52:45.320</time></trkpt><trkpt lat="55.9427517" lon="49.2069633"><time>2023-06-03T11:52:46.320</time></trkpt><trkpt lat="55.9428017" lon="49.2069900"><time>2023-06-03T11:52:47.320</time></trkpt><trkpt lat="55.9428517" lon="49.2070183"><time>2023-06-03T11:52:48.320</time></trkpt><trkpt lat="55.9429300" lon="49.2070583"><time>2023-06-03T11:52:50.323</time></trkpt><trkpt lat="55.9429950" lon="49.2070550"><time>2023-06-03T11:52:52.320</time></trkpt><trkpt lat="55.9430467" lon="49.2070717"><time>2023-06-03T11:52:54.323</time></trkpt><trkpt lat="55.9430983" lon="49.2070717"><time>2023-06-03T11:52:56.320</time></trkpt><trkpt lat="55.9431583" lon="49.2070933"><time>2023-06-03T11:52:58.323</time></trkpt><trkpt lat="55.9432183" lon="49.2071250"><time>2023-06-03T11:53:00.323</time></trkpt><trkpt lat="55.9432783" lon="49.2071467"><time>2023-06-03T11:53:02.327</time></trkpt><trkpt lat="55.9433417" lon="49.2071450"><time>2023-06-03T11:53:04.323</time></trkpt><trkpt lat="55.9434183" lon="49.2071367"><time>2023-06-03T11:53:06.327</time></trkpt><trkpt lat="55.9434967" lon="49.2071133"><time>2023-06-03T11:53:08.323</time></trkpt><trkpt lat="55.9435750" lon="49.2070850"><time>2023-06-03T11:53:10.320</time></trkpt><trkpt lat="55.9436450" lon="49.2070567"><time>2023-06-03T11:53:12.320</time></trkpt><trkpt lat="55.9437067" lon="49.2070367"><time>2023-06-03T11:53:14.320</time></trkpt><trkpt lat="55.9437533" lon="49.2070133"><time>2023-06-03T11:53:16.320</time></trkpt><trkpt lat="55.9438283" lon="49.2069750"><time>2023-06-03T11:53:19.323</time></trkpt><trkpt lat="55.9438850" lon="49.2069350"><time>2023-06-03T11:53:21.320</time></trkpt><trkpt lat="55.9439300" lon="49.2069017"><time>2023-06-03T11:53:23.323</time></trkpt><trkpt lat="55.9439817" lon="49.2068533"><time>2023-06-03T11:53:25.320</time></trkpt><trkpt lat="55.9440367" lon="49.2068250"><time>2023-06-03T11:53:28.320</time></trkpt><trkpt lat="55.9441050" lon="49.2068183"><time>2023-06-03T11:53:30.320</time></trkpt><trkpt lat="55.9441750" lon="49.2068050"><time>2023-06-03T11:53:32.320</time></trkpt><trkpt lat="55.9442417" lon="49.2067667"><time>2023-06-03T11:53:34.283</time></trkpt><trkpt lat="55.9442850" lon="49.2067433"><time>2023-06-03T11:53:35.307</time></trkpt><trkpt lat="55.9443483" lon="49.2067217"><time>2023-06-03T11:53:37.313</time></trkpt><trkpt lat="55.9444017" lon="49.2067067"><time>2023-06-03T11:53:39.320</time></trkpt><trkpt lat="55.9444633" lon="49.2067083"><time>2023-06-03T11:53:41.320</time></trkpt><trkpt lat="55.9445283" lon="49.2067117"><time>2023-06-03T11:53:43.310</time></trkpt><trkpt lat="55.9446033" lon="49.2067333"><time>2023-06-03T11:53:45.317</time></trkpt><trkpt lat="55.9446617" lon="49.2067500"><time>2023-06-03T11:53:47.323</time></trkpt><trkpt lat="55.9447300" lon="49.2067767"><time>2023-06-03T11:53:49.320</time></trkpt><trkpt lat="55.9447983" lon="49.2067950"><time>2023-06-03T11:53:51.320</time></trkpt><trkpt lat="55.9448683" lon="49.2068300"><time>2023-06-03T11:53:53.317</time></trkpt><trkpt lat="55.9449283" lon="49.2068300"><time>2023-06-03T11:53:55.320</time></trkpt><trkpt lat="55.9450017" lon="49.2068700"><time>2023-06-03T11:53:57.323</time></trkpt><trkpt lat="55.9450683" lon="49.2068883"><time>2023-06-03T11:53:59.320</time></trkpt><trkpt lat="55.9451317" lon="49.2068900"><time>2023-06-03T11:54:01.320</time></trkpt><trkpt lat="55.9451867" lon="49.2068900"><time>2023-06-03T11:54:03.320</time></trkpt><trkpt lat="55.9452467" lon="49.2068867"><time>2023-06-03T11:54:05.320</time></trkpt><trkpt lat="55.9452933" lon="49.2069100"><time>2023-06-03T11:54:07.320</time></trkpt><trkpt lat="55.9453467" lon="49.2069617"><time>2023-06-03T11:54:09.320</time></trkpt><trkpt lat="55.9454000" lon="49.2070017"><time>2023-06-03T11:54:12.323</time></trkpt><trkpt lat="55.9454350" lon="49.2070850"><time>2023-06-03T11:54:42.323</time></trkpt><trkpt lat="55.9454933" lon="49.2071233"><time>2023-06-03T11:54:46.320</time></trkpt><trkpt lat="55.9455417" lon="49.2071833"><time>2023-06-03T11:54:49.320</time></trkpt><trkpt lat="55.9455817" lon="49.2072533"><time>2023-06-03T11:54:51.323</time></trkpt><trkpt lat="55.9456317" lon="49.2073250"><time>2023-06-03T11:54:53.300</time></trkpt><trkpt lat="55.9456833" lon="49.2073850"><time>2023-06-03T11:54:55.317</time></trkpt><trkpt lat="55.9457333" lon="49.2074450"><time>2023-06-03T11:54:57.323</time></trkpt><trkpt lat="55.9457833" lon="49.2075000"><time>2023-06-03T11:54:59.323</time></trkpt><trkpt lat="55.9458483" lon="49.2075600"><time>2023-06-03T11:55:01.310</time></trkpt><trkpt lat="55.9459050" lon="49.2076267"><time>2023-06-03T11:55:03.320</time></trkpt><trkpt lat="55.9459600" lon="49.2076883"><time>2023-06-03T11:55:05.327</time></trkpt><trkpt lat="55.9460183" lon="49.2077167"><time>2023-06-03T11:55:07.320</time></trkpt><trkpt lat="55.9460883" lon="49.2077867"><time>2023-06-03T11:55:09.320</time></trkpt><trkpt lat="55.9461567" lon="49.2078767"><time>2023-06-03T11:55:11.317</time></trkpt><trkpt lat="55.9462117" lon="49.2079750"><time>2023-06-03T11:55:13.313</time></trkpt><trkpt lat="55.9462667" lon="49.2080517"><time>2023-06-03T11:55:15.323</time></trkpt><trkpt lat="55.9463133" lon="49.2081233"><time>2023-06-03T11:55:17.303</time></trkpt><trkpt lat="55.9463650" lon="49.2081983"><time>2023-06-03T11:55:19.320</time></trkpt><trkpt lat="55.9464133" lon="49.2082983"><time>2023-06-03T11:55:21.320</time></trkpt><trkpt lat="55.9464533" lon="49.2084317"><time>2023-06-03T11:55:23.317</time></trkpt><trkpt lat="55.9464800" lon="49.2085033"><time>2023-06-03T11:55:24.323</time></trkpt><trkpt lat="55.9465100" lon="49.2085767"><time>2023-06-03T11:55:25.323</time></trkpt><trkpt lat="55.9465433" lon="49.2086433"><time>2023-06-03T11:55:26.313</time></trkpt><trkpt lat="55.9465767" lon="49.2087033"><time>2023-06-03T11:55:27.310</time></trkpt><trkpt lat="55.9466133" lon="49.2087783"><time>2023-06-03T11:55:28.317</time></trkpt><trkpt lat="55.9466483" lon="49.2088350"><time>2023-06-03T11:55:29.317</time></trkpt><trkpt lat="55.9467217" lon="49.2089283"><time>2023-06-03T11:55:31.320</time></trkpt><trkpt lat="55.9467583" lon="49.2089983"><time>2023-06-03T11:55:32.320</time></trkpt><trkpt lat="55.9467900" lon="49.2090683"><time>2023-06-03T11:55:33.320</time></trkpt><trkpt lat="55.9468217" lon="49.2091300"><time>2023-06-03T11:55:34.320</time></trkpt><trkpt lat="55.9468900" lon="49.2092233"><time>2023-06-03T11:55:36.323</time></trkpt><trkpt lat="55.9469283" lon="49.2092717"><time>2023-06-03T11:55:37.323</time></trkpt><trkpt lat="55.9469967" lon="49.2093500"><time>2023-06-03T11:55:39.320</time></trkpt><trkpt lat="55.9470683" lon="49.2094367"><time>2023-06-03T11:55:41.317</time></trkpt><trkpt lat="55.9471050" lon="49.2094900"><time>2023-06-03T11:55:42.317</time></trkpt><trkpt lat="55.9471700" lon="49.2095817"><time>2023-06-03T11:55:44.323</time></trkpt><trkpt lat="55.9472350" lon="49.2096783"><time>2023-06-03T11:55:46.323</time></trkpt><trkpt lat="55.9472967" lon="49.2097833"><time>2023-06-03T11:55:48.327</time></trkpt><trkpt lat="55.9473650" lon="49.2099117"><time>2023-06-03T11:55:50.320</time></trkpt><trkpt lat="55.9474033" lon="49.2099667"><time>2023-06-03T11:55:51.323</time></trkpt><trkpt lat="55.9474400" lon="49.2100150"><time>2023-06-03T11:55:52.330</time></trkpt><trkpt lat="55.9474933" lon="49.2100867"><time>2023-06-03T11:55:54.320</time></trkpt><trkpt lat="55.9475417" lon="49.2100567"><time>2023-06-03T11:56:14.320</time></trkpt><trkpt lat="55.9475950" lon="49.2101167"><time>2023-06-03T11:56:16.320</time></trkpt><trkpt lat="55.9476433" lon="49.2101917"><time>2023-06-03T11:56:18.317</time></trkpt><trkpt lat="55.9476950" lon="49.2102450"><time>2023-06-03T11:56:20.323</time></trkpt><trkpt lat="55.9477567" lon="49.2102983"><time>2023-06-03T11:56:22.317</time></trkpt><trkpt lat="55.9478217" lon="49.2103500"><time>2023-06-03T11:56:24.320</time></trkpt><trkpt lat="55.9478900" lon="49.2103950"><time>2023-06-03T11:56:26.320</time></trkpt><trkpt lat="55.9479483" lon="49.2104233"><time>2023-06-03T11:56:28.323</time></trkpt><trkpt lat="55.9480067" lon="49.2104683"><time>2023-06-03T11:56:30.320</time></trkpt><trkpt lat="55.9480650" lon="49.2105317"><time>2023-06-03T11:56:32.320</time></trkpt><trkpt lat="55.9481233" lon="49.2105933"><time>2023-06-03T11:56:34.317</time></trkpt><trkpt lat="55.9481733" lon="49.2106233"><time>2023-06-03T11:56:36.317</time></trkpt><trkpt lat="55.9482333" lon="49.2106767"><time>2023-06-03T11:56:38.323</time></trkpt><trkpt lat="55.9483050" lon="49.2107617"><time>2023-06-03T11:56:40.323</time></trkpt><trkpt lat="55.9483417" lon="49.2108117"><time>2023-06-03T11:56:41.320</time></trkpt><trkpt lat="55.9484200" lon="49.2108933"><time>2023-06-03T11:56:43.323</time></trkpt><trkpt lat="55.9484633" lon="49.2109350"><time>2023-06-03T11:56:44.327</time></trkpt><trkpt lat="55.9485100" lon="49.2109600"><time>2023-06-03T11:56:45.320</time></trkpt><trkpt lat="55.9485850" lon="49.2109933"><time>2023-06-03T11:56:47.323</time></trkpt><trkpt lat="55.9486600" lon="49.2110417"><time>2023-06-03T11:56:49.327</time></trkpt><trkpt lat="55.9487267" lon="49.2110900"><time>2023-06-03T11:56:51.323</time></trkpt><trkpt lat="55.9487933" lon="49.2111650"><time>2023-06-03T11:56:53.317</time></trkpt><trkpt lat="55.9488567" lon="49.2112500"><time>2023-06-03T11:56:55.327</time></trkpt><trkpt lat="55.9489067" lon="49.2113400"><time>2023-06-03T11:56:57.317</time></trkpt><trkpt lat="55.9489617" lon="49.2114200"><time>2023-06-03T11:56:59.320</time></trkpt><trkpt lat="55.9490150" lon="49.2115067"><time>2023-06-03T11:57:01.327</time></trkpt><trkpt lat="55.9490717" lon="49.2116000"><time>2023-06-03T11:57:03.323</time></trkpt><trkpt lat="55.9491217" lon="49.2116733"><time>2023-06-03T11:57:05.323</time></trkpt><trkpt lat="55.9491700" lon="49.2117433"><time>2023-06-03T11:57:07.323</time></trkpt><trkpt lat="55.9492100" lon="49.2117900"><time>2023-06-03T11:57:09.323</time></trkpt><trkpt lat="55.9492517" lon="49.2118367"><time>2023-06-03T11:57:12.327</time></trkpt><trkpt lat="55.9491950" lon="49.2118683"><time>2023-06-03T11:57:17.323</time></trkpt><trkpt lat="55.9491400" lon="49.2119100"><time>2023-06-03T11:57:19.327</time></trkpt><trkpt lat="55.9490700" lon="49.2119267"><time>2023-06-03T11:57:21.327</time></trkpt><trkpt lat="55.9489950" lon="49.2119417"><time>2023-06-03T11:57:23.323</time></trkpt><trkpt lat="55.9489117" lon="49.2119500"><time>2023-06-03T11:57:25.327</time></trkpt><trkpt lat="55.9488333" lon="49.2119700"><time>2023-06-03T11:57:27.323</time></trkpt><trkpt lat="55.9487533" lon="49.2120033"><time>2023-06-03T11:57:29.320</time></trkpt><trkpt lat="55.9487100" lon="49.2120300"><time>2023-06-03T11:57:30.323</time></trkpt><trkpt lat="55.9486283" lon="49.2120767"><time>2023-06-03T11:57:32.327</time></trkpt><trkpt lat="55.9485533" lon="49.2121317"><time>2023-06-03T11:57:34.327</time></trkpt><trkpt lat="55.9484817" lon="49.2122117"><time>2023-06-03T11:57:36.320</time></trkpt><trkpt lat="55.9484133" lon="49.2123033"><time>2023-06-03T11:57:38.327</time></trkpt><trkpt lat="55.9483417" lon="49.2123900"><time>2023-06-03T11:57:40.340</time></trkpt><trkpt lat="55.9483400" lon="49.2123900"><time>2023-06-03T11:57:41.840</time></trkpt><trkpt lat="55.9482933" lon="49.2124333"><time>2023-06-03T11:57:43.790</time></trkpt><trkpt lat="55.9481800" lon="49.2125683"><time>2023-06-03T11:57:46.303</time></trkpt><trkpt lat="55.9481350" lon="49.2126183"><time>2023-06-03T11:57:47.313</time></trkpt><trkpt lat="55.9480900" lon="49.2126800"><time>2023-06-03T11:57:48.310</time></trkpt><trkpt lat="55.9480433" lon="49.2127467"><time>2023-06-03T11:57:49.307</time></trkpt><trkpt lat="55.9479883" lon="49.2128583"><time>2023-06-03T11:57:51.300</time></trkpt><trkpt lat="55.9479417" lon="49.2129617"><time>2023-06-03T11:57:53.303</time></trkpt><trkpt lat="55.9478950" lon="49.2130583"><time>2023-06-03T11:57:55.317</time></trkpt><trkpt lat="55.9478583" lon="49.2131283"><time>2023-06-03T11:57:57.313</time></trkpt><trkpt lat="55.9478200" lon="49.2132267"><time>2023-06-03T11:57:59.317</time></trkpt><trkpt lat="55.9477867" lon="49.2133450"><time>2023-06-03T11:58:01.317</time></trkpt><trkpt lat="55.9477600" lon="49.2134783"><time>2023-06-03T11:58:03.317</time></trkpt><trkpt lat="55.9477417" lon="49.2136150"><time>2023-06-03T11:58:05.320</time></trkpt><trkpt lat="55.9477250" lon="49.2137517"><time>2023-06-03T11:58:07.337</time></trkpt><trkpt lat="55.9477250" lon="49.2137517"><time>2023-06-03T11:58:08.310</time></trkpt><trkpt lat="55.9477067" lon="49.2138367"><time>2023-06-03T11:58:09.817</time></trkpt><trkpt lat="55.9477033" lon="49.2139650"><time>2023-06-03T11:58:11.313</time></trkpt><trkpt lat="55.9477000" lon="49.2140933"><time>2023-06-03T11:58:13.310</time></trkpt><trkpt lat="55.9477050" lon="49.2142633"><time>2023-06-03T11:58:15.313</time></trkpt><trkpt lat="55.9477083" lon="49.2143500"><time>2023-06-03T11:58:16.313</time></trkpt><trkpt lat="55.9477133" lon="49.2144433"><time>2023-06-03T11:58:17.313</time></trkpt><trkpt lat="55.9477200" lon="49.2145233"><time>2023-06-03T11:58:18.330</time></trkpt><trkpt lat="55.9477200" lon="49.2145250"><time>2023-06-03T11:58:19.307</time></trkpt><trkpt lat="55.9476983" lon="49.2146050"><time>2023-06-03T11:58:21.813</time></trkpt><trkpt lat="55.9477000" lon="49.2147483"><time>2023-06-03T11:58:24.313</time></trkpt><trkpt lat="55.9476817" lon="49.2149183"><time>2023-06-03T11:58:26.313</time></trkpt><trkpt lat="55.9476633" lon="49.2150400"><time>2023-06-03T11:58:28.327</time></trkpt><trkpt lat="55.9476633" lon="49.2150400"><time>2023-06-03T11:58:28.417</time></trkpt><trkpt lat="55.9476500" lon="49.2151733"><time>2023-06-03T11:58:30.323</time></trkpt><trkpt lat="55.9476500" lon="49.2151733"><time>2023-06-03T11:58:31.313</time></trkpt><trkpt lat="55.9476333" lon="49.2150933"><time>2023-06-03T11:59:53.327</time></trkpt><trkpt lat="55.9476533" lon="49.2150167"><time>2023-06-03T11:59:55.320</time></trkpt><trkpt lat="55.9476767" lon="49.2149200"><time>2023-06-03T11:59:57.323</time></trkpt><trkpt lat="55.9477067" lon="49.2148383"><time>2023-06-03T11:59:59.323</time></trkpt><trkpt lat="55.9477267" lon="49.2147367"><time>2023-06-03T12:00:01.320</time></trkpt><trkpt lat="55.9477283" lon="49.2146133"><time>2023-06-03T12:00:03.320</time></trkpt><trkpt lat="55.9477283" lon="49.2144917"><time>2023-06-03T12:00:05.320</time></trkpt><trkpt lat="55.9477300" lon="49.2143700"><time>2023-06-03T12:00:07.323</time></trkpt><trkpt lat="55.9477267" lon="49.2142417"><time>2023-06-03T12:00:09.320</time></trkpt><trkpt lat="55.9477250" lon="49.2141250"><time>2023-06-03T12:00:11.327</time></trkpt><trkpt lat="55.9477250" lon="49.2140117"><time>2023-06-03T12:00:13.323</time></trkpt><trkpt lat="55.9477233" lon="49.2138900"><time>2023-06-03T12:00:15.323</time></trkpt><trkpt lat="55.9477267" lon="49.2137650"><time>2023-06-03T12:00:17.323</time></trkpt><trkpt lat="55.9477383" lon="49.2136333"><time>2023-06-03T12:00:19.323</time></trkpt><trkpt lat="55.9477617" lon="49.2135167"><time>2023-06-03T12:00:21.323</time></trkpt><trkpt lat="55.9477883" lon="49.2133933"><time>2023-06-03T12:00:23.327</time></trkpt><trkpt lat="55.9478200" lon="49.2132717"><time>2023-06-03T12:00:25.323</time></trkpt><trkpt lat="55.9478567" lon="49.2131633"><time>2023-06-03T12:00:27.323</time></trkpt><trkpt lat="55.9479000" lon="49.2130533"><time>2023-06-03T12:00:29.320</time></trkpt><trkpt lat="55.9479467" lon="49.2129450"><time>2023-06-03T12:00:31.323</time></trkpt><trkpt lat="55.9479883" lon="49.2128267"><time>2023-06-03T12:00:33.323</time></trkpt><trkpt lat="55.9480300" lon="49.2127350"><time>2023-06-03T12:00:35.317</time></trkpt><trkpt lat="55.9480717" lon="49.2126550"><time>2023-06-03T12:00:37.323</time></trkpt><trkpt lat="55.9481300" lon="49.2125850"><time>2023-06-03T12:00:39.320</time></trkpt><trkpt lat="55.9481850" lon="49.2125250"><time>2023-06-03T12:00:41.323</time></trkpt><trkpt lat="55.9482350" lon="49.2124717"><time>2023-06-03T12:00:43.323</time></trkpt><trkpt lat="55.9482850" lon="49.2124167"><time>2023-06-03T12:00:45.323</time></trkpt><trkpt lat="55.9483400" lon="49.2123633"><time>2023-06-03T12:00:47.323</time></trkpt><trkpt lat="55.9483950" lon="49.2123033"><time>2023-06-03T12:00:49.323</time></trkpt><trkpt lat="55.9484500" lon="49.2122383"><time>2023-06-03T12:00:51.320</time></trkpt><trkpt lat="55.9485067" lon="49.2121550"><time>2023-06-03T12:00:53.323</time></trkpt><trkpt lat="55.9485617" lon="49.2120900"><time>2023-06-03T12:00:55.327</time></trkpt><trkpt lat="55.9486167" lon="49.2120483"><time>2023-06-03T12:00:57.323</time></trkpt><trkpt lat="55.9486817" lon="49.2120100"><time>2023-06-03T12:00:59.320</time></trkpt><trkpt lat="55.9487483" lon="49.2119800"><time>2023-06-03T12:01:01.323</time></trkpt><trkpt lat="55.9488150" lon="49.2119483"><time>2023-06-03T12:01:03.320</time></trkpt><trkpt lat="55.9488800" lon="49.2119283"><time>2023-06-03T12:01:05.320</time></trkpt><trkpt lat="55.9489500" lon="49.2119250"><time>2023-06-03T12:01:07.323</time></trkpt><trkpt lat="55.9490083" lon="49.2119217"><time>2023-06-03T12:01:09.287</time></trkpt><trkpt lat="55.9490617" lon="49.2119117"><time>2023-06-03T12:01:11.317</time></trkpt><trkpt lat="55.9491083" lon="49.2119017"><time>2023-06-03T12:01:13.323</time></trkpt><trkpt lat="55.9491533" lon="49.2118833"><time>2023-06-03T12:01:16.280</time></trkpt><trkpt lat="55.9491983" lon="49.2118783"><time>2023-06-03T12:01:18.287</time></trkpt><trkpt lat="55.9492500" lon="49.2118567"><time>2023-06-03T12:01:21.317</time></trkpt><trkpt lat="55.9492950" lon="49.2118783"><time>2023-06-03T12:01:23.313</time></trkpt><trkpt lat="55.9493517" lon="49.2119200"><time>2023-06-03T12:01:25.317</time></trkpt><trkpt lat="55.9494233" lon="49.2119933"><time>2023-06-03T12:01:27.310</time></trkpt><trkpt lat="55.9494800" lon="49.2120433"><time>2023-06-03T12:01:29.313</time></trkpt><trkpt lat="55.9495450" lon="49.2121150"><time>2023-06-03T12:01:31.317</time></trkpt><trkpt lat="55.9496000" lon="49.2121600"><time>2023-06-03T12:01:33.317</time></trkpt><trkpt lat="55.9496450" lon="49.2121933"><time>2023-06-03T12:01:34.317</time></trkpt><trkpt lat="55.9496950" lon="49.2122250"><time>2023-06-03T12:01:36.313</time></trkpt><trkpt lat="55.9497383" lon="49.2123067"><time>2023-06-03T12:01:38.320</time></trkpt><trkpt lat="55.9497867" lon="49.2123817"><time>2023-06-03T12:01:40.317</time></trkpt><trkpt lat="55.9498300" lon="49.2124550"><time>2023-06-03T12:01:42.317</time></trkpt><trkpt lat="55.9498717" lon="49.2125533"><time>2023-06-03T12:01:44.317</time></trkpt><trkpt lat="55.9499167" lon="49.2126517"><time>2023-06-03T12:01:46.313</time></trkpt><trkpt lat="55.9499600" lon="49.2127650"><time>2023-06-03T12:01:48.317</time></trkpt><trkpt lat="55.9499833" lon="49.2128617"><time>2023-06-03T12:01:50.317</time></trkpt><trkpt lat="55.9499967" lon="49.2129917"><time>2023-06-03T12:02:02.317</time></trkpt><trkpt lat="55.9500033" lon="49.2130750"><time>2023-06-03T12:02:05.317</time></trkpt><trkpt lat="55.9500217" lon="49.2131600"><time>2023-06-03T12:02:07.317</time></trkpt><trkpt lat="55.9500367" lon="49.2132817"><time>2023-06-03T12:02:10.320</time></trkpt><trkpt lat="55.9500250" lon="49.2133700"><time>2023-06-03T12:02:12.317</time></trkpt><trkpt lat="55.9499967" lon="49.2134517"><time>2023-06-03T12:02:14.317</time></trkpt><trkpt lat="55.9499767" lon="49.2135317"><time>2023-06-03T12:02:16.317</time></trkpt><trkpt lat="55.9499617" lon="49.2136250"><time>2023-06-03T12:02:18.320</time></trkpt><trkpt lat="55.9499633" lon="49.2137317"><time>2023-06-03T12:02:21.317</time></trkpt><trkpt lat="55.9499750" lon="49.2138233"><time>2023-06-03T12:02:23.317</time></trkpt><trkpt lat="55.9500017" lon="49.2139033"><time>2023-06-03T12:02:25.313</time></trkpt><trkpt lat="55.9500217" lon="49.2140117"><time>2023-06-03T12:02:27.317</time></trkpt><trkpt lat="55.9500367" lon="49.2141667"><time>2023-06-03T12:02:29.320</time></trkpt><trkpt lat="55.9500383" lon="49.2142617"><time>2023-06-03T12:02:30.317</time></trkpt><trkpt lat="55.9500367" lon="49.2143533"><time>2023-06-03T12:02:31.317</time></trkpt><trkpt lat="55.9500450" lon="49.2144367"><time>2023-06-03T12:02:32.317</time></trkpt><trkpt lat="55.9500533" lon="49.2145283"><time>2023-06-03T12:02:33.280</time></trkpt><trkpt lat="55.9500617" lon="49.2146300"><time>2023-06-03T12:02:34.273</time></trkpt><trkpt lat="55.9500800" lon="49.2147250"><time>2023-06-03T12:02:35.287</time></trkpt><trkpt lat="55.9500600" lon="49.2148267"><time>2023-06-03T12:02:37.290</time></trkpt><trkpt lat="55.9500283" lon="49.2149017"><time>2023-06-03T12:02:39.303</time></trkpt><trkpt lat="55.9500333" lon="49.2150617"><time>2023-06-03T12:02:41.280</time></trkpt><trkpt lat="55.9500317" lon="49.2151583"><time>2023-06-03T12:02:42.310</time></trkpt><trkpt lat="55.9500267" lon="49.2152417"><time>2023-06-03T12:02:43.290</time></trkpt><trkpt lat="55.9500100" lon="49.2154017"><time>2023-06-03T12:02:45.293</time></trkpt><trkpt lat="55.9500033" lon="49.2154900"><time>2023-06-03T12:02:46.313</time></trkpt><trkpt lat="55.9500033" lon="49.2155767"><time>2023-06-03T12:02:47.300</time></trkpt><trkpt lat="55.9500050" lon="49.2156600"><time>2023-06-03T12:02:48.310</time></trkpt><trkpt lat="55.9499933" lon="49.2157517"><time>2023-06-03T12:02:49.310</time></trkpt><trkpt lat="55.9499850" lon="49.2158417"><time>2023-06-03T12:02:50.313</time></trkpt><trkpt lat="55.9499750" lon="49.2159233"><time>2023-06-03T12:02:51.300</time></trkpt><trkpt lat="55.9499800" lon="49.2160450"><time>2023-06-03T12:02:53.277</time></trkpt><trkpt lat="55.9499833" lon="49.2161767"><time>2023-06-03T12:02:55.307</time></trkpt><trkpt lat="55.9499900" lon="49.2162767"><time>2023-06-03T12:02:57.317</time></trkpt><trkpt lat="55.9499867" lon="49.2163933"><time>2023-06-03T12:02:59.313</time></trkpt><trkpt lat="55.9499983" lon="49.2164883"><time>2023-06-03T12:03:01.313</time></trkpt><trkpt lat="55.9499917" lon="49.2166200"><time>2023-06-03T12:03:03.310</time></trkpt><trkpt lat="55.9500083" lon="49.2167717"><time>2023-06-03T12:03:05.290</time></trkpt><trkpt lat="55.9500283" lon="49.2169133"><time>2023-06-03T12:03:07.307</time></trkpt><trkpt lat="55.9500617" lon="49.2170400"><time>2023-06-03T12:03:09.317</time></trkpt><trkpt lat="55.9500950" lon="49.2171867"><time>2023-06-03T12:03:11.313</time></trkpt><trkpt lat="55.9501100" lon="49.2173133"><time>2023-06-03T12:03:13.317</time></trkpt><trkpt lat="55.9501217" lon="49.2174200"><time>2023-06-03T12:03:15.317</time></trkpt><trkpt lat="55.9501233" lon="49.2175183"><time>2023-06-03T12:03:17.317</time></trkpt><trkpt lat="55.9501267" lon="49.2176350"><time>2023-06-03T12:03:19.313</time></trkpt><trkpt lat="55.9501300" lon="49.2177367"><time>2023-06-03T12:03:21.313</time></trkpt><trkpt lat="55.9501300" lon="49.2178417"><time>2023-06-03T12:03:23.313</time></trkpt><trkpt lat="55.9501367" lon="49.2179433"><time>2023-06-03T12:03:25.303</time></trkpt><trkpt lat="55.9501417" lon="49.2180717"><time>2023-06-03T12:03:27.317</time></trkpt><trkpt lat="55.9501500" lon="49.2182100"><time>2023-06-03T12:03:29.313</time></trkpt><trkpt lat="55.9501583" lon="49.2183433"><time>2023-06-03T12:03:31.317</time></trkpt><trkpt lat="55.9501633" lon="49.2184967"><time>2023-06-03T12:03:33.317</time></trkpt><trkpt lat="55.9501767" lon="49.2185917"><time>2023-06-03T12:03:34.317</time></trkpt><trkpt lat="55.9502000" lon="49.2186917"><time>2023-06-03T12:03:35.317</time></trkpt><trkpt lat="55.9502383" lon="49.2187683"><time>2023-06-03T12:03:36.293</time></trkpt><trkpt lat="55.9502733" lon="49.2188233"><time>2023-06-03T12:03:37.310</time></trkpt><trkpt lat="55.9503017" lon="49.2189183"><time>2023-06-03T12:03:39.320</time></trkpt><trkpt lat="55.9503133" lon="49.2190233"><time>2023-06-03T12:03:41.317</time></trkpt><trkpt lat="55.9503233" lon="49.2191650"><time>2023-06-03T12:03:43.317</time></trkpt><trkpt lat="55.9503367" lon="49.2192533"><time>2023-06-03T12:03:44.317</time></trkpt><trkpt lat="55.9503533" lon="49.2193433"><time>2023-06-03T12:03:45.320</time></trkpt><trkpt lat="55.9503700" lon="49.2194283"><time>2023-06-03T12:03:46.303</time></trkpt><trkpt lat="55.9503883" lon="49.2195067"><time>2023-06-03T12:03:47.303</time></trkpt><trkpt lat="55.9504100" lon="49.2195833"><time>2023-06-03T12:03:48.317</time></trkpt><trkpt lat="55.9504300" lon="49.2196567"><time>2023-06-03T12:03:49.323</time></trkpt><trkpt lat="55.9504667" lon="49.2197850"><time>2023-06-03T12:03:51.310</time></trkpt><trkpt lat="55.9505067" lon="49.2199083"><time>2023-06-03T12:03:53.307</time></trkpt><trkpt lat="55.9505350" lon="49.2199883"><time>2023-06-03T12:03:55.317</time></trkpt><trkpt lat="55.9505700" lon="49.2200667"><time>2023-06-03T12:03:57.313</time></trkpt><trkpt lat="55.9506000" lon="49.2201483"><time>2023-06-03T12:03:59.317</time></trkpt><trkpt lat="55.9506200" lon="49.2202317"><time>2023-06-03T12:04:01.320</time></trkpt><trkpt lat="55.9506450" lon="49.2203200"><time>2023-06-03T12:04:03.317</time></trkpt><trkpt lat="55.9506800" lon="49.2203767"><time>2023-06-03T12:04:05.317</time></trkpt><trkpt lat="55.9507267" lon="49.2204633"><time>2023-06-03T12:04:07.310</time></trkpt><trkpt lat="55.9507683" lon="49.2205767"><time>2023-06-03T12:04:09.320</time></trkpt><trkpt lat="55.9508083" lon="49.2206883"><time>2023-06-03T12:04:11.307</time></trkpt><trkpt lat="55.9508467" lon="49.2207750"><time>2023-06-03T12:04:13.317</time></trkpt><trkpt lat="55.9508817" lon="49.2208500"><time>2023-06-03T12:04:15.317</time></trkpt><trkpt lat="55.9509200" lon="49.2209133"><time>2023-06-03T12:04:17.317</time></trkpt><trkpt lat="55.9509650" lon="49.2209783"><time>2023-06-03T12:04:19.317</time></trkpt><trkpt lat="55.9510017" lon="49.2210583"><time>2023-06-03T12:04:21.317</time></trkpt><trkpt lat="55.9510350" lon="49.2211267"><time>2023-06-03T12:04:23.320</time></trkpt><trkpt lat="55.9510700" lon="49.2212117"><time>2023-06-03T12:04:25.317</time></trkpt><trkpt lat="55.9511167" lon="49.2212933"><time>2023-06-03T12:04:27.317</time></trkpt><trkpt lat="55.9511667" lon="49.2213950"><time>2023-06-03T12:04:29.320</time></trkpt><trkpt lat="55.9512167" lon="49.2214767"><time>2023-06-03T12:04:31.320</time></trkpt><trkpt lat="55.9512550" lon="49.2215283"><time>2023-06-03T12:04:33.317</time></trkpt><trkpt lat="55.9513000" lon="49.2216017"><time>2023-06-03T12:04:36.303</time></trkpt><trkpt lat="55.9513350" lon="49.2216533"><time>2023-06-03T12:04:41.317</time></trkpt><trkpt lat="55.9513567" lon="49.2217383"><time>2023-06-03T12:05:21.320</time></trkpt><trkpt lat="55.9513867" lon="49.2218117"><time>2023-06-03T12:05:24.323</time></trkpt><trkpt lat="55.9514083" lon="49.2219350"><time>2023-06-03T12:05:27.317</time></trkpt><trkpt lat="55.9514233" lon="49.2220200"><time>2023-06-03T12:05:29.323</time></trkpt><trkpt lat="55.9514300" lon="49.2221167"><time>2023-06-03T12:05:31.327</time></trkpt><trkpt lat="55.9514333" lon="49.2222100"><time>2023-06-03T12:05:33.313</time></trkpt><trkpt lat="55.9514400" lon="49.2223317"><time>2023-06-03T12:05:35.317</time></trkpt><trkpt lat="55.9514500" lon="49.2224550"><time>2023-06-03T12:05:37.323</time></trkpt><trkpt lat="55.9514683" lon="49.2225467"><time>2023-06-03T12:05:39.323</time></trkpt><trkpt lat="55.9514817" lon="49.2226283"><time>2023-06-03T12:05:41.323</time></trkpt><trkpt lat="55.9514967" lon="49.2227100"><time>2023-06-03T12:05:43.323</time></trkpt><trkpt lat="55.9515167" lon="49.2227883"><time>2023-06-03T12:05:45.320</time></trkpt><trkpt lat="55.9515500" lon="49.2228433"><time>2023-06-03T12:05:47.320</time></trkpt><trkpt lat="55.9515967" lon="49.2228400"><time>2023-06-03T12:05:49.320</time></trkpt><trkpt lat="55.9516667" lon="49.2228300"><time>2023-06-03T12:05:52.317</time></trkpt><trkpt lat="55.9517117" lon="49.2228100"><time>2023-06-03T12:05:54.327</time></trkpt><trkpt lat="55.9517633" lon="49.2228000"><time>2023-06-03T12:06:02.323</time></trkpt><trkpt lat="55.9518117" lon="49.2228100"><time>2023-06-03T12:06:06.330</time></trkpt><trkpt lat="55.9518583" lon="49.2227650"><time>2023-06-03T12:06:29.323</time></trkpt><trkpt lat="55.9519100" lon="49.2227700"><time>2023-06-03T12:06:34.317</time></trkpt><trkpt lat="55.9519650" lon="49.2227500"><time>2023-06-03T12:06:39.323</time></trkpt><trkpt lat="55.9520067" lon="49.2227200"><time>2023-06-03T12:06:42.317</time></trkpt><trkpt lat="55.9520617" lon="49.2226900"><time>2023-06-03T12:06:46.323</time></trkpt><trkpt lat="55.9521117" lon="49.2226683"><time>2023-06-03T12:06:50.323</time></trkpt><trkpt lat="55.9521583" lon="49.2226533"><time>2023-06-03T12:06:54.323</time></trkpt><trkpt lat="55.9522067" lon="49.2226683"><time>2023-06-03T12:07:13.327</time></trkpt><trkpt lat="55.9522533" lon="49.2226667"><time>2023-06-03T12:07:16.310</time></trkpt><trkpt lat="55.9522983" lon="49.2226400"><time>2023-06-03T12:07:23.327</time></trkpt><trkpt lat="55.9523483" lon="49.2226367"><time>2023-06-03T12:07:30.323</time></trkpt><trkpt lat="55.9524133" lon="49.2226117"><time>2023-06-03T12:07:33.323</time></trkpt><trkpt lat="55.9524650" lon="49.2226017"><time>2023-06-03T12:07:35.320</time></trkpt><trkpt lat="55.9525150" lon="49.2225950"><time>2023-06-03T12:07:37.323</time></trkpt><trkpt lat="55.9525683" lon="49.2225783"><time>2023-06-03T12:07:39.323</time></trkpt><trkpt lat="55.9526233" lon="49.2225867"><time>2023-06-03T12:07:41.323</time></trkpt><trkpt lat="55.9526700" lon="49.2225950"><time>2023-06-03T12:07:43.310</time></trkpt><trkpt lat="55.9527167" lon="49.2226050"><time>2023-06-03T12:07:45.320</time></trkpt><trkpt lat="55.9527633" lon="49.2226133"><time>2023-06-03T12:07:47.317</time></trkpt><trkpt lat="55.9528183" lon="49.2226467"><time>2023-06-03T12:07:50.327</time></trkpt><trkpt lat="55.9528800" lon="49.2226967"><time>2023-06-03T12:07:53.310</time></trkpt><trkpt lat="55.9529217" lon="49.2227417"><time>2023-06-03T12:07:55.320</time></trkpt><trkpt lat="55.9529650" lon="49.2227833"><time>2023-06-03T12:07:57.303</time></trkpt><trkpt lat="55.9530033" lon="49.2228300"><time>2023-06-03T12:07:59.317</time></trkpt><trkpt lat="55.9530600" lon="49.2228867"><time>2023-06-03T12:08:02.320</time></trkpt><trkpt lat="55.9531033" lon="49.2229233"><time>2023-06-03T12:08:05.323</time></trkpt><trkpt lat="55.9531533" lon="49.2229733"><time>2023-06-03T12:08:11.323</time></trkpt><trkpt lat="55.9531983" lon="49.2229250"><time>2023-06-03T12:08:16.323</time></trkpt><trkpt lat="55.9532417" lon="49.2228900"><time>2023-06-03T12:08:32.327</time></trkpt><trkpt lat="55.9532950" lon="49.2228200"><time>2023-06-03T12:08:35.320</time></trkpt><trkpt lat="55.9533417" lon="49.2227750"><time>2023-06-03T12:08:37.323</time></trkpt><trkpt lat="55.9533917" lon="49.2227400"><time>2023-06-03T12:08:39.317</time></trkpt><trkpt lat="55.9534317" lon="49.2227000"><time>2023-06-03T12:08:41.327</time></trkpt><trkpt lat="55.9534933" lon="49.2226400"><time>2023-06-03T12:08:44.320</time></trkpt><trkpt lat="55.9535400" lon="49.2225933"><time>2023-06-03T12:08:46.323</time></trkpt><trkpt lat="55.9535983" lon="49.2225250"><time>2023-06-03T12:08:49.323</time></trkpt><trkpt lat="55.9536350" lon="49.2224733"><time>2023-06-03T12:08:51.320</time></trkpt><trkpt lat="55.9536700" lon="49.2224133"><time>2023-06-03T12:08:53.323</time></trkpt><trkpt lat="55.9537050" lon="49.2223617"><time>2023-06-03T12:08:55.320</time></trkpt><trkpt lat="55.9537617" lon="49.2223200"><time>2023-06-03T12:08:58.323</time></trkpt><trkpt lat="55.9538167" lon="49.2222950"><time>2023-06-03T12:09:01.327</time></trkpt><trkpt lat="55.9538700" lon="49.2222483"><time>2023-06-03T12:09:05.323</time></trkpt><trkpt lat="55.9539183" lon="49.2222017"><time>2023-06-03T12:09:08.323</time></trkpt><trkpt lat="55.9539650" lon="49.2221500"><time>2023-06-03T12:09:11.317</time></trkpt><trkpt lat="55.9540100" lon="49.2220800"><time>2023-06-03T12:09:14.327</time></trkpt><trkpt lat="55.9540600" lon="49.2220233"><time>2023-06-03T12:09:17.323</time></trkpt><trkpt lat="55.9541000" lon="49.2219833"><time>2023-06-03T12:09:19.317</time></trkpt><trkpt lat="55.9541533" lon="49.2219333"><time>2023-06-03T12:09:22.317</time></trkpt><trkpt lat="55.9542067" lon="49.2218633"><time>2023-06-03T12:09:25.320</time></trkpt><trkpt lat="55.9542617" lon="49.2217967"><time>2023-06-03T12:09:28.320</time></trkpt><trkpt lat="55.9543150" lon="49.2217333"><time>2023-06-03T12:09:31.320</time></trkpt><trkpt lat="55.9543667" lon="49.2216783"><time>2023-06-03T12:09:34.323</time></trkpt><trkpt lat="55.9544233" lon="49.2216200"><time>2023-06-03T12:09:37.327</time></trkpt><trkpt lat="55.9544583" lon="49.2215650"><time>2023-06-03T12:09:39.320</time></trkpt><trkpt lat="55.9545050" lon="49.2214850"><time>2023-06-03T12:09:42.327</time></trkpt><trkpt lat="55.9545350" lon="49.2214050"><time>2023-06-03T12:09:44.327</time></trkpt><trkpt lat="55.9545733" lon="49.2213067"><time>2023-06-03T12:09:47.323</time></trkpt><trkpt lat="55.9545817" lon="49.2212067"><time>2023-06-03T12:09:49.320</time></trkpt><trkpt lat="55.9546000" lon="49.2211233"><time>2023-06-03T12:09:51.323</time></trkpt><trkpt lat="55.9546267" lon="49.2210200"><time>2023-06-03T12:09:54.323</time></trkpt><trkpt lat="55.9546450" lon="49.2209417"><time>2023-06-03T12:09:56.323</time></trkpt><trkpt lat="55.9546700" lon="49.2208533"><time>2023-06-03T12:09:58.323</time></trkpt><trkpt lat="55.9546883" lon="49.2207667"><time>2023-06-03T12:10:00.327</time></trkpt><trkpt lat="55.9546933" lon="49.2206450"><time>2023-06-03T12:10:03.323</time></trkpt><trkpt lat="55.9546767" lon="49.2205350"><time>2023-06-03T12:10:05.323</time></trkpt><trkpt lat="55.9546500" lon="49.2204450"><time>2023-06-03T12:10:07.327</time></trkpt><trkpt lat="55.9546250" lon="49.2203600"><time>2023-06-03T12:10:09.327</time></trkpt><trkpt lat="55.9546133" lon="49.2202683"><time>2023-06-03T12:10:11.330</time></trkpt><trkpt lat="55.9546100" lon="49.2201867"><time>2023-06-03T12:10:13.327</time></trkpt><trkpt lat="55.9546167" lon="49.2200900"><time>2023-06-03T12:10:15.327</time></trkpt><trkpt lat="55.9546233" lon="49.2200000"><time>2023-06-03T12:10:17.323</time></trkpt><trkpt lat="55.9546367" lon="49.2199100"><time>2023-06-03T12:10:19.320</time></trkpt><trkpt lat="55.9546400" lon="49.2198167"><time>2023-06-03T12:10:21.323</time></trkpt><trkpt lat="55.9546467" lon="49.2197283"><time>2023-06-03T12:10:23.323</time></trkpt><trkpt lat="55.9546550" lon="49.2196400"><time>2023-06-03T12:10:25.320</time></trkpt><trkpt lat="55.9546783" lon="49.2195300"><time>2023-06-03T12:10:28.320</time></trkpt><trkpt lat="55.9546950" lon="49.2194317"><time>2023-06-03T12:10:31.320</time></trkpt><trkpt lat="55.9547167" lon="49.2193350"><time>2023-06-03T12:10:36.323</time></trkpt><trkpt lat="55.9547317" lon="49.2192550"><time>2023-06-03T12:10:40.323</time></trkpt><trkpt lat="55.9547400" lon="49.2191583"><time>2023-06-03T12:10:45.323</time></trkpt><trkpt lat="55.9547533" lon="49.2190733"><time>2023-06-03T12:10:49.323</time></trkpt><trkpt lat="55.9547783" lon="49.2189783"><time>2023-06-03T12:10:53.323</time></trkpt><trkpt lat="55.9547833" lon="49.2188917"><time>2023-06-03T12:10:57.323</time></trkpt><trkpt lat="55.9547967" lon="49.2188100"><time>2023-06-03T12:11:01.320</time></trkpt><trkpt lat="55.9548250" lon="49.2187383"><time>2023-06-03T12:11:05.323</time></trkpt><trkpt lat="55.9548417" lon="49.2186367"><time>2023-06-03T12:11:09.323</time></trkpt><trkpt lat="55.9548433" lon="49.2185417"><time>2023-06-03T12:11:13.323</time></trkpt><trkpt lat="55.9548567" lon="49.2184500"><time>2023-06-03T12:11:17.323</time></trkpt><trkpt lat="55.9548650" lon="49.2183600"><time>2023-06-03T12:11:21.323</time></trkpt><trkpt lat="55.9548733" lon="49.2182633"><time>2023-06-03T12:11:25.323</time></trkpt><trkpt lat="55.9548867" lon="49.2181683"><time>2023-06-03T12:11:29.327</time></trkpt><trkpt lat="55.9549000" lon="49.2180800"><time>2023-06-03T12:11:34.323</time></trkpt><trkpt lat="55.9549150" lon="49.2179900"><time>2023-06-03T12:11:38.323</time></trkpt><trkpt lat="55.9549300" lon="49.2178883"><time>2023-06-03T12:11:42.327</time></trkpt><trkpt lat="55.9549450" lon="49.2178067"><time>2023-06-03T12:11:46.320</time></trkpt><trkpt lat="55.9549550" lon="49.2177217"><time>2023-06-03T12:11:50.313</time></trkpt><trkpt lat="55.9549600" lon="49.2176233"><time>2023-06-03T12:11:54.310</time></trkpt><trkpt lat="55.9549750" lon="49.2175250"><time>2023-06-03T12:11:59.320</time></trkpt><trkpt lat="55.9549917" lon="49.2174433"><time>2023-06-03T12:12:03.323</time></trkpt><trkpt lat="55.9550083" lon="49.2173583"><time>2023-06-03T12:12:07.327</time></trkpt><trkpt lat="55.9550233" lon="49.2172567"><time>2023-06-03T12:12:12.323</time></trkpt><trkpt lat="55.9550367" lon="49.2171733"><time>2023-06-03T12:12:16.323</time></trkpt><trkpt lat="55.9550517" lon="49.2170817"><time>2023-06-03T12:12:20.327</time></trkpt><trkpt lat="55.9550683" lon="49.2169850"><time>2023-06-03T12:12:24.323</time></trkpt><trkpt lat="55.9550783" lon="49.2168933"><time>2023-06-03T12:12:29.323</time></trkpt><trkpt lat="55.9550933" lon="49.2168017"><time>2023-06-03T12:12:33.323</time></trkpt><trkpt lat="55.9551000" lon="49.2167217"><time>2023-06-03T12:12:37.323</time></trkpt><trkpt lat="55.9551117" lon="49.2166283"><time>2023-06-03T12:12:41.323</time></trkpt><trkpt lat="55.9551250" lon="49.2165450"><time>2023-06-03T12:12:45.323</time></trkpt><trkpt lat="55.9551350" lon="49.2164583"><time>2023-06-03T12:12:49.323</time></trkpt><trkpt lat="55.9551467" lon="49.2163650"><time>2023-06-03T12:12:53.327</time></trkpt><trkpt lat="55.9551650" lon="49.2162733"><time>2023-06-03T12:12:57.323</time></trkpt><trkpt lat="55.9551717" lon="49.2161783"><time>2023-06-03T12:13:01.320</time></trkpt><trkpt lat="55.9551833" lon="49.2160867"><time>2023-06-03T12:13:05.323</time></trkpt><trkpt lat="55.9551950" lon="49.2160050"><time>2023-06-03T12:13:09.317</time></trkpt><trkpt lat="55.9552033" lon="49.2159233"><time>2023-06-03T12:13:13.320</time></trkpt><trkpt lat="55.9552100" lon="49.2158350"><time>2023-06-03T12:13:17.323</time></trkpt><trkpt lat="55.9552183" lon="49.2157533"><time>2023-06-03T12:13:21.300</time></trkpt><trkpt lat="55.9552267" lon="49.2156683"><time>2023-06-03T12:13:25.327</time></trkpt><trkpt lat="55.9552350" lon="49.2155750"><time>2023-06-03T12:13:29.323</time></trkpt><trkpt lat="55.9552500" lon="49.2154917"><time>2023-06-03T12:13:33.320</time></trkpt><trkpt lat="55.9552517" lon="49.2154067"><time>2023-06-03T12:13:37.313</time></trkpt><trkpt lat="55.9552633" lon="49.2153167"><time>2023-06-03T12:13:41.320</time></trkpt><trkpt lat="55.9552683" lon="49.2152167"><time>2023-06-03T12:13:45.323</time></trkpt><trkpt lat="55.9552717" lon="49.2151350"><time>2023-06-03T12:13:49.327</time></trkpt><trkpt lat="55.9552817" lon="49.2150533"><time>2023-06-03T12:13:53.323</time></trkpt><trkpt lat="55.9552917" lon="49.2149567"><time>2023-06-03T12:13:57.317</time></trkpt><trkpt lat="55.9552950" lon="49.2148517"><time>2023-06-03T12:14:02.323</time></trkpt><trkpt lat="55.9553033" lon="49.2147700"><time>2023-06-03T12:14:06.320</time></trkpt><trkpt lat="55.9553133" lon="49.2146850"><time>2023-06-03T12:14:10.320</time></trkpt><trkpt lat="55.9553233" lon="49.2146050"><time>2023-06-03T12:14:14.323</time></trkpt><trkpt lat="55.9553367" lon="49.2145283"><time>2023-06-03T12:14:18.323</time></trkpt><trkpt lat="55.9553500" lon="49.2144333"><time>2023-06-03T12:14:23.327</time></trkpt><trkpt lat="55.9553650" lon="49.2143467"><time>2023-06-03T12:15:29.320</time></trkpt><trkpt lat="55.9553717" lon="49.2142467"><time>2023-06-03T12:15:34.320</time></trkpt><trkpt lat="55.9553733" lon="49.2141617"><time>2023-06-03T12:15:41.323</time></trkpt><trkpt lat="55.9553850" lon="49.2140483"><time>2023-06-03T12:15:44.317</time></trkpt><trkpt lat="55.9553867" lon="49.2139517"><time>2023-06-03T12:15:46.317</time></trkpt><trkpt lat="55.9553817" lon="49.2138600"><time>2023-06-03T12:15:48.337</time></trkpt><trkpt lat="55.9553817" lon="49.2138600"><time>2023-06-03T12:15:49.303</time></trkpt><trkpt lat="55.9553783" lon="49.2137767"><time>2023-06-03T12:15:50.810</time></trkpt><trkpt lat="55.9553667" lon="49.2136933"><time>2023-06-03T12:15:51.810</time></trkpt><trkpt lat="55.9553733" lon="49.2135667"><time>2023-06-03T12:15:54.293</time></trkpt><trkpt lat="55.9553900" lon="49.2134500"><time>2023-06-03T12:15:56.307</time></trkpt><trkpt lat="55.9554017" lon="49.2133533"><time>2023-06-03T12:15:58.307</time></trkpt><trkpt lat="55.9554150" lon="49.2132700"><time>2023-06-03T12:16:00.307</time></trkpt><trkpt lat="55.9554283" lon="49.2131867"><time>2023-06-03T12:16:02.313</time></trkpt><trkpt lat="55.9554450" lon="49.2131117"><time>2023-06-03T12:16:04.310</time></trkpt><trkpt lat="55.9554600" lon="49.2130283"><time>2023-06-03T12:16:06.310</time></trkpt><trkpt lat="55.9554733" lon="49.2129417"><time>2023-06-03T12:16:08.313</time></trkpt><trkpt lat="55.9554867" lon="49.2128550"><time>2023-06-03T12:16:10.313</time></trkpt><trkpt lat="55.9554950" lon="49.2127750"><time>2023-06-03T12:16:12.307</time></trkpt><trkpt lat="55.9554983" lon="49.2126867"><time>2023-06-03T12:16:14.310</time></trkpt><trkpt lat="55.9555083" lon="49.2125983"><time>2023-06-03T12:16:16.310</time></trkpt><trkpt lat="55.9555217" lon="49.2125167"><time>2023-06-03T12:16:18.317</time></trkpt><trkpt lat="55.9555233" lon="49.2124367"><time>2023-06-03T12:16:20.320</time></trkpt><trkpt lat="55.9555267" lon="49.2123483"><time>2023-06-03T12:16:22.320</time></trkpt><trkpt lat="55.9555350" lon="49.2122667"><time>2023-06-03T12:16:24.340</time></trkpt><trkpt lat="55.9555350" lon="49.2122667"><time>2023-06-03T12:16:25.323</time></trkpt><trkpt lat="55.9555650" lon="49.2122017"><time>2023-06-03T12:16:27.317</time></trkpt><trkpt lat="55.9555717" lon="49.2121183"><time>2023-06-03T12:16:28.810</time></trkpt><trkpt lat="55.9555700" lon="49.2120083"><time>2023-06-03T12:16:31.307</time></trkpt><trkpt lat="55.9555683" lon="49.2119050"><time>2023-06-03T12:16:33.307</time></trkpt><trkpt lat="55.9555650" lon="49.2118233"><time>2023-06-03T12:16:35.307</time></trkpt><trkpt lat="55.9555783" lon="49.2117250"><time>2023-06-03T12:16:38.310</time></trkpt><trkpt lat="55.9555750" lon="49.2116250"><time>2023-06-03T12:16:41.313</time></trkpt><trkpt lat="55.9555750" lon="49.2115317"><time>2023-06-03T12:16:44.307</time></trkpt><trkpt lat="55.9555833" lon="49.2114350"><time>2023-06-03T12:16:47.310</time></trkpt><trkpt lat="55.9555767" lon="49.2113417"><time>2023-06-03T12:16:50.323</time></trkpt><trkpt lat="55.9555767" lon="49.2113417"><time>2023-06-03T12:16:51.297</time></trkpt><trkpt lat="55.9555550" lon="49.2112667"><time>2023-06-03T12:16:54.310</time></trkpt><trkpt lat="55.9555467" lon="49.2111867"><time>2023-06-03T12:16:56.310</time></trkpt><trkpt lat="55.9555583" lon="49.2111050"><time>2023-06-03T12:16:59.310</time></trkpt><trkpt lat="55.9555583" lon="49.2110217"><time>2023-06-03T12:17:04.307</time></trkpt><trkpt lat="55.9555750" lon="49.2109433"><time>2023-06-03T12:17:11.310</time></trkpt><trkpt lat="55.9556233" lon="49.2109200"><time>2023-06-03T12:17:16.307</time></trkpt><trkpt lat="55.9556750" lon="49.2109017"><time>2023-06-03T12:17:20.313</time></trkpt><trkpt lat="55.9557217" lon="49.2108683"><time>2023-06-03T12:17:27.330</time></trkpt><trkpt lat="55.9557217" lon="49.2108683"><time>2023-06-03T12:17:27.383</time></trkpt><trkpt lat="55.9556483" lon="49.2108700"><time>2023-06-03T12:17:38.337</time></trkpt><trkpt lat="55.9556483" lon="49.2108700"><time>2023-06-03T12:17:39.317</time></trkpt><trkpt lat="55.9555983" lon="49.2108583"><time>2023-06-03T12:17:44.310</time></trkpt><trkpt lat="55.9555583" lon="49.2108950"><time>2023-06-03T12:17:53.313</time></trkpt><trkpt lat="55.9555450" lon="49.2109767"><time>2023-06-03T12:17:57.307</time></trkpt><trkpt lat="55.9555283" lon="49.2108833"><time>2023-06-03T12:18:25.320</time></trkpt><trkpt lat="55.9555033" lon="49.2107967"><time>2023-06-03T12:18:27.320</time></trkpt><trkpt lat="55.9554783" lon="49.2106983"><time>2023-06-03T12:18:29.320</time></trkpt><trkpt lat="55.9554517" lon="49.2106017"><time>2023-06-03T12:18:31.320</time></trkpt><trkpt lat="55.9554217" lon="49.2105067"><time>2023-06-03T12:18:33.323</time></trkpt><trkpt lat="55.9553950" lon="49.2104117"><time>2023-06-03T12:18:35.320</time></trkpt><trkpt lat="55.9553700" lon="49.2103167"><time>2023-06-03T12:18:37.323</time></trkpt><trkpt lat="55.9553383" lon="49.2102100"><time>2023-06-03T12:18:39.320</time></trkpt><trkpt lat="55.9553067" lon="49.2101033"><time>2023-06-03T12:18:41.323</time></trkpt><trkpt lat="55.9552833" lon="49.2099933"><time>2023-06-03T12:18:43.323</time></trkpt><trkpt lat="55.9552550" lon="49.2098767"><time>2023-06-03T12:18:45.320</time></trkpt><trkpt lat="55.9552283" lon="49.2097667"><time>2023-06-03T12:18:47.347</time></trkpt><trkpt lat="55.9551967" lon="49.2096517"><time>2023-06-03T12:18:49.320</time></trkpt><trkpt lat="55.9551550" lon="49.2095433"><time>2023-06-03T12:18:51.320</time></trkpt><trkpt lat="55.9551133" lon="49.2094417"><time>2023-06-03T12:18:53.323</time></trkpt><trkpt lat="55.9550833" lon="49.2093350"><time>2023-06-03T12:18:55.320</time></trkpt><trkpt lat="55.9550550" lon="49.2092250"><time>2023-06-03T12:18:57.327</time></trkpt><trkpt lat="55.9550150" lon="49.2091117"><time>2023-06-03T12:18:59.323</time></trkpt><trkpt lat="55.9550033" lon="49.2090100"><time>2023-06-03T12:19:01.320</time></trkpt><trkpt lat="55.9549700" lon="49.2088983"><time>2023-06-03T12:19:03.323</time></trkpt><trkpt lat="55.9549283" lon="49.2087967"><time>2023-06-03T12:19:05.323</time></trkpt><trkpt lat="55.9548850" lon="49.2086883"><time>2023-06-03T12:19:07.313</time></trkpt><trkpt lat="55.9548417" lon="49.2085800"><time>2023-06-03T12:19:09.323</time></trkpt><trkpt lat="55.9547933" lon="49.2084600"><time>2023-06-03T12:19:11.310</time></trkpt><trkpt lat="55.9547533" lon="49.2083433"><time>2023-06-03T12:19:13.320</time></trkpt><trkpt lat="55.9547300" lon="49.2082483"><time>2023-06-03T12:19:15.323</time></trkpt><trkpt lat="55.9546883" lon="49.2081283"><time>2023-06-03T12:19:17.327</time></trkpt><trkpt lat="55.9546500" lon="49.2080167"><time>2023-06-03T12:19:19.317</time></trkpt><trkpt lat="55.9546267" lon="49.2079183"><time>2023-06-03T12:19:21.323</time></trkpt><trkpt lat="55.9545800" lon="49.2078067"><time>2023-06-03T12:19:23.323</time></trkpt><trkpt lat="55.9545450" lon="49.2076983"><time>2023-06-03T12:19:25.320</time></trkpt><trkpt lat="55.9545167" lon="49.2075950"><time>2023-06-03T12:19:27.313</time></trkpt><trkpt lat="55.9544883" lon="49.2074900"><time>2023-06-03T12:19:29.317</time></trkpt><trkpt lat="55.9544533" lon="49.2073833"><time>2023-06-03T12:19:31.317</time></trkpt><trkpt lat="55.9544183" lon="49.2072650"><time>2023-06-03T12:19:33.323</time></trkpt><trkpt lat="55.9543817" lon="49.2071517"><time>2023-06-03T12:19:35.320</time></trkpt><trkpt lat="55.9543483" lon="49.2070383"><time>2023-06-03T12:19:37.300</time></trkpt><trkpt lat="55.9543100" lon="49.2069333"><time>2023-06-03T12:19:39.320</time></trkpt><trkpt lat="55.9542800" lon="49.2068300"><time>2023-06-03T12:19:41.323</time></trkpt><trkpt lat="55.9542517" lon="49.2067150"><time>2023-06-03T12:19:43.320</time></trkpt><trkpt lat="55.9542183" lon="49.2066017"><time>2023-06-03T12:19:45.323</time></trkpt><trkpt lat="55.9541800" lon="49.2064883"><time>2023-06-03T12:19:47.320</time></trkpt><trkpt lat="55.9541467" lon="49.2063867"><time>2023-06-03T12:19:49.320</time></trkpt><trkpt lat="55.9541100" lon="49.2062850"><time>2023-06-03T12:19:51.320</time></trkpt><trkpt lat="55.9540700" lon="49.2061833"><time>2023-06-03T12:19:53.323</time></trkpt><trkpt lat="55.9540283" lon="49.2060867"><time>2023-06-03T12:19:55.320</time></trkpt><trkpt lat="55.9539867" lon="49.2059983"><time>2023-06-03T12:19:57.320</time></trkpt><trkpt lat="55.9539467" lon="49.2059017"><time>2023-06-03T12:19:59.317</time></trkpt><trkpt lat="55.9539067" lon="49.2058000"><time>2023-06-03T12:20:01.320</time></trkpt><trkpt lat="55.9538733" lon="49.2056967"><time>2023-06-03T12:20:03.323</time></trkpt><trkpt lat="55.9538450" lon="49.2055917"><time>2023-06-03T12:20:05.317</time></trkpt><trkpt lat="55.9538233" lon="49.2054883"><time>2023-06-03T12:20:07.323</time></trkpt><trkpt lat="55.9538000" lon="49.2053833"><time>2023-06-03T12:20:09.320</time></trkpt><trkpt lat="55.9537733" lon="49.2052767"><time>2023-06-03T12:20:11.320</time></trkpt><trkpt lat="55.9537533" lon="49.2051683"><time>2023-06-03T12:20:13.323</time></trkpt><trkpt lat="55.9537267" lon="49.2050567"><time>2023-06-03T12:20:15.320</time></trkpt><trkpt lat="55.9536917" lon="49.2049533"><time>2023-06-03T12:20:17.327</time></trkpt><trkpt lat="55.9536517" lon="49.2048567"><time>2023-06-03T12:20:19.320</time></trkpt><trkpt lat="55.9536117" lon="49.2047550"><time>2023-06-03T12:20:21.323</time></trkpt><trkpt lat="55.9535733" lon="49.2046550"><time>2023-06-03T12:20:23.323</time></trkpt><trkpt lat="55.9535400" lon="49.2045600"><time>2023-06-03T12:20:25.320</time></trkpt><trkpt lat="55.9535117" lon="49.2044617"><time>2023-06-03T12:20:27.320</time></trkpt><trkpt lat="55.9534850" lon="49.2043650"><time>2023-06-03T12:20:29.317</time></trkpt><trkpt lat="55.9534533" lon="49.2042667"><time>2023-06-03T12:20:31.320</time></trkpt><trkpt lat="55.9534167" lon="49.2041700"><time>2023-06-03T12:20:33.323</time></trkpt><trkpt lat="55.9533883" lon="49.2040833"><time>2023-06-03T12:20:35.303</time></trkpt><trkpt lat="55.9533617" lon="49.2040000"><time>2023-06-03T12:20:37.320</time></trkpt><trkpt lat="55.9533250" lon="49.2038883"><time>2023-06-03T12:20:39.323</time></trkpt><trkpt lat="55.9533033" lon="49.2037883"><time>2023-06-03T12:20:41.323</time></trkpt><trkpt lat="55.9532750" lon="49.2036717"><time>2023-06-03T12:20:43.317</time></trkpt><trkpt lat="55.9532383" lon="49.2035633"><time>2023-06-03T12:20:45.317</time></trkpt><trkpt lat="55.9532167" lon="49.2034700"><time>2023-06-03T12:20:47.313</time></trkpt><trkpt lat="55.9531917" lon="49.2033600"><time>2023-06-03T12:20:49.323</time></trkpt><trkpt lat="55.9531633" lon="49.2032667"><time>2023-06-03T12:20:51.317</time></trkpt><trkpt lat="55.9531417" lon="49.2031700"><time>2023-06-03T12:20:53.317</time></trkpt><trkpt lat="55.9531150" lon="49.2030750"><time>2023-06-03T12:20:55.323</time></trkpt><trkpt lat="55.9530867" lon="49.2029783"><time>2023-06-03T12:20:57.320</time></trkpt><trkpt lat="55.9530500" lon="49.2028717"><time>2023-06-03T12:20:59.320</time></trkpt><trkpt lat="55.9530167" lon="49.2027700"><time>2023-06-03T12:21:01.303</time></trkpt><trkpt lat="55.9529850" lon="49.2026683"><time>2023-06-03T12:21:03.323</time></trkpt><trkpt lat="55.9529567" lon="49.2025800"><time>2023-06-03T12:21:05.323</time></trkpt><trkpt lat="55.9529267" lon="49.2024867"><time>2023-06-03T12:21:07.323</time></trkpt><trkpt lat="55.9528950" lon="49.2023917"><time>2023-06-03T12:21:09.323</time></trkpt><trkpt lat="55.9528650" lon="49.2023067"><time>2023-06-03T12:21:11.320</time></trkpt><trkpt lat="55.9528317" lon="49.2022150"><time>2023-06-03T12:21:13.323</time></trkpt><trkpt lat="55.9528017" lon="49.2021383"><time>2023-06-03T12:21:15.320</time></trkpt><trkpt lat="55.9527733" lon="49.2020483"><time>2023-06-03T12:21:17.320</time></trkpt><trkpt lat="55.9527533" lon="49.2019650"><time>2023-06-03T12:21:19.320</time></trkpt><trkpt lat="55.9527250" lon="49.2018783"><time>2023-06-03T12:21:21.323</time></trkpt><trkpt lat="55.9526967" lon="49.2017867"><time>2023-06-03T12:21:23.320</time></trkpt><trkpt lat="55.9526767" lon="49.2017033"><time>2023-06-03T12:21:25.317</time></trkpt><trkpt lat="55.9526550" lon="49.2016183"><time>2023-06-03T12:21:27.320</time></trkpt><trkpt lat="55.9526417" lon="49.2015383"><time>2023-06-03T12:21:29.323</time></trkpt><trkpt lat="55.9526183" lon="49.2014417"><time>2023-06-03T12:21:31.320</time></trkpt><trkpt lat="55.9525967" lon="49.2013383"><time>2023-06-03T12:21:34.323</time></trkpt><trkpt lat="55.9525750" lon="49.2012550"><time>2023-06-03T12:21:36.320</time></trkpt><trkpt lat="55.9525583" lon="49.2011650"><time>2023-06-03T12:21:38.320</time></trkpt><trkpt lat="55.9525667" lon="49.2010717"><time>2023-06-03T12:21:45.320</time></trkpt><trkpt lat="55.9525583" lon="49.2009700"><time>2023-06-03T12:21:50.317</time></trkpt><trkpt lat="55.9525550" lon="49.2008783"><time>2023-06-03T12:21:53.323</time></trkpt><trkpt lat="55.9525533" lon="49.2007950"><time>2023-06-03T12:21:57.317</time></trkpt><trkpt lat="55.9525533" lon="49.2007033"><time>2023-06-03T12:22:02.317</time></trkpt><trkpt lat="55.9525767" lon="49.2006117"><time>2023-06-03T12:22:07.297</time></trkpt><trkpt lat="55.9526200" lon="49.2005800"><time>2023-06-03T12:22:15.320</time></trkpt><trkpt lat="55.9525817" lon="49.2006250"><time>2023-06-03T12:24:22.323</time></trkpt><trkpt lat="55.9525550" lon="49.2005450"><time>2023-06-03T12:24:33.320</time></trkpt><trkpt lat="55.9525550" lon="49.2004450"><time>2023-06-03T12:24:36.277</time></trkpt><trkpt lat="55.9525750" lon="49.2003533"><time>2023-06-03T12:24:41.273</time></trkpt><trkpt lat="55.9526150" lon="49.2002850"><time>2023-06-03T12:24:46.283</time></trkpt><trkpt lat="55.9526567" lon="49.2002250"><time>2023-06-03T12:24:50.283</time></trkpt><trkpt lat="55.9526733" lon="49.2001433"><time>2023-06-03T12:25:02.317</time></trkpt><trkpt lat="55.9526983" lon="49.2000750"><time>2023-06-03T12:25:13.317</time></trkpt><trkpt lat="55.9527283" lon="49.1999900"><time>2023-06-03T12:25:16.317</time></trkpt><trkpt lat="55.9527650" lon="49.1999017"><time>2023-06-03T12:25:19.317</time></trkpt><trkpt lat="55.9527900" lon="49.1998167"><time>2023-06-03T12:25:21.287</time></trkpt><trkpt lat="55.9528067" lon="49.1997367"><time>2023-06-03T12:25:23.317</time></trkpt><trkpt lat="55.9528167" lon="49.1996233"><time>2023-06-03T12:25:26.320</time></trkpt><trkpt lat="55.9528200" lon="49.1995350"><time>2023-06-03T12:25:28.320</time></trkpt><trkpt lat="55.9528233" lon="49.1994467"><time>2023-06-03T12:25:30.290</time></trkpt><trkpt lat="55.9528167" lon="49.1993650"><time>2023-06-03T12:25:32.310</time></trkpt><trkpt lat="55.9528033" lon="49.1992867"><time>2023-06-03T12:25:34.317</time></trkpt><trkpt lat="55.9527883" lon="49.1991917"><time>2023-06-03T12:25:36.313</time></trkpt><trkpt lat="55.9527817" lon="49.1990983"><time>2023-06-03T12:25:38.313</time></trkpt><trkpt lat="55.9527700" lon="49.1989950"><time>2023-06-03T12:25:40.317</time></trkpt><trkpt lat="55.9527617" lon="49.1988933"><time>2023-06-03T12:25:42.317</time></trkpt><trkpt lat="55.9527600" lon="49.1987900"><time>2023-06-03T12:25:44.317</time></trkpt><trkpt lat="55.9527500" lon="49.1986817"><time>2023-06-03T12:25:46.317</time></trkpt><trkpt lat="55.9527417" lon="49.1985783"><time>2023-06-03T12:25:48.310</time></trkpt><trkpt lat="55.9527317" lon="49.1984683"><time>2023-06-03T12:25:50.313</time></trkpt><trkpt lat="55.9527417" lon="49.1983867"><time>2023-06-03T12:25:52.317</time></trkpt><trkpt lat="55.9527517" lon="49.1982917"><time>2023-06-03T12:25:54.317</time></trkpt><trkpt lat="55.9527483" lon="49.1981783"><time>2023-06-03T12:25:56.320</time></trkpt><trkpt lat="55.9527383" lon="49.1980617"><time>2023-06-03T12:25:58.317</time></trkpt><trkpt lat="55.9527300" lon="49.1979683"><time>2023-06-03T12:26:00.307</time></trkpt><trkpt lat="55.9527200" lon="49.1978667"><time>2023-06-03T12:26:02.320</time></trkpt><trkpt lat="55.9527167" lon="49.1977633"><time>2023-06-03T12:26:04.313</time></trkpt><trkpt lat="55.9527167" lon="49.1976633"><time>2023-06-03T12:26:06.317</time></trkpt><trkpt lat="55.9527183" lon="49.1975683"><time>2023-06-03T12:26:08.310</time></trkpt><trkpt lat="55.9527183" lon="49.1974650"><time>2023-06-03T12:26:10.317</time></trkpt><trkpt lat="55.9527200" lon="49.1973667"><time>2023-06-03T12:26:12.317</time></trkpt><trkpt lat="55.9527183" lon="49.1972700"><time>2023-06-03T12:26:14.317</time></trkpt><trkpt lat="55.9527117" lon="49.1971767"><time>2023-06-03T12:26:16.313</time></trkpt><trkpt lat="55.9527083" lon="49.1970867"><time>2023-06-03T12:26:18.317</time></trkpt><trkpt lat="55.9526950" lon="49.1969600"><time>2023-06-03T12:26:20.317</time></trkpt><trkpt lat="55.9526833" lon="49.1968350"><time>2023-06-03T12:26:22.317</time></trkpt><trkpt lat="55.9526817" lon="49.1967467"><time>2023-06-03T12:26:24.317</time></trkpt><trkpt lat="55.9526717" lon="49.1966350"><time>2023-06-03T12:26:26.320</time></trkpt><trkpt lat="55.9526733" lon="49.1965500"><time>2023-06-03T12:26:28.320</time></trkpt><trkpt lat="55.9526733" lon="49.1964617"><time>2023-06-03T12:26:30.317</time></trkpt><trkpt lat="55.9526617" lon="49.1963633"><time>2023-06-03T12:26:32.317</time></trkpt><trkpt lat="55.9526367" lon="49.1962550"><time>2023-06-03T12:26:34.317</time></trkpt><trkpt lat="55.9526133" lon="49.1961583"><time>2023-06-03T12:26:36.317</time></trkpt><trkpt lat="55.9525817" lon="49.1960400"><time>2023-06-03T12:26:38.293</time></trkpt><trkpt lat="55.9525733" lon="49.1959183"><time>2023-06-03T12:26:40.317</time></trkpt><trkpt lat="55.9525717" lon="49.1958067"><time>2023-06-03T12:26:43.317</time></trkpt><trkpt lat="55.9525683" lon="49.1957183"><time>2023-06-03T12:26:45.317</time></trkpt><trkpt lat="55.9525600" lon="49.1956233"><time>2023-06-03T12:26:47.317</time></trkpt><trkpt lat="55.9525583" lon="49.1955267"><time>2023-06-03T12:26:49.310</time></trkpt><trkpt lat="55.9525583" lon="49.1954133"><time>2023-06-03T12:26:51.317</time></trkpt><trkpt lat="55.9525733" lon="49.1952733"><time>2023-06-03T12:26:53.317</time></trkpt><trkpt lat="55.9525933" lon="49.1951483"><time>2023-06-03T12:26:55.317</time></trkpt><trkpt lat="55.9526067" lon="49.1950100"><time>2023-06-03T12:26:57.317</time></trkpt><trkpt lat="55.9526100" lon="49.1949217"><time>2023-06-03T12:26:58.317</time></trkpt><trkpt lat="55.9526083" lon="49.1947817"><time>2023-06-03T12:27:00.320</time></trkpt><trkpt lat="55.9525900" lon="49.1946733"><time>2023-06-03T12:27:02.300</time></trkpt><trkpt lat="55.9525567" lon="49.1946000"><time>2023-06-03T12:27:03.317</time></trkpt><trkpt lat="55.9525100" lon="49.1944700"><time>2023-06-03T12:27:05.313</time></trkpt><trkpt lat="55.9524717" lon="49.1943517"><time>2023-06-03T12:27:07.313</time></trkpt><trkpt lat="55.9524567" lon="49.1942267"><time>2023-06-03T12:27:09.307</time></trkpt><trkpt lat="55.9524567" lon="49.1941050"><time>2023-06-03T12:27:11.317</time></trkpt><trkpt lat="55.9524500" lon="49.1939733"><time>2023-06-03T12:27:13.317</time></trkpt><trkpt lat="55.9524317" lon="49.1938633"><time>2023-06-03T12:27:15.317</time></trkpt><trkpt lat="55.9524150" lon="49.1937533"><time>2023-06-03T12:27:17.320</time></trkpt><trkpt lat="55.9523983" lon="49.1936350"><time>2023-06-03T12:27:19.317</time></trkpt><trkpt lat="55.9523800" lon="49.1935117"><time>2023-06-03T12:27:21.317</time></trkpt><trkpt lat="55.9523667" lon="49.1933917"><time>2023-06-03T12:27:23.320</time></trkpt><trkpt lat="55.9523583" lon="49.1932717"><time>2023-06-03T12:27:25.317</time></trkpt><trkpt lat="55.9523583" lon="49.1931400"><time>2023-06-03T12:27:27.313</time></trkpt><trkpt lat="55.9523583" lon="49.1930100"><time>2023-06-03T12:27:29.320</time></trkpt><trkpt lat="55.9523617" lon="49.1928933"><time>2023-06-03T12:27:31.317</time></trkpt><trkpt lat="55.9523600" lon="49.1927567"><time>2023-06-03T12:27:33.320</time></trkpt><trkpt lat="55.9523650" lon="49.1926433"><time>2023-06-03T12:27:35.317</time></trkpt><trkpt lat="55.9523717" lon="49.1925183"><time>2023-06-03T12:27:37.320</time></trkpt><trkpt lat="55.9523833" lon="49.1923950"><time>2023-06-03T12:27:39.317</time></trkpt><trkpt lat="55.9524133" lon="49.1922950"><time>2023-06-03T12:27:41.320</time></trkpt><trkpt lat="55.9524367" lon="49.1921883"><time>2023-06-03T12:27:43.317</time></trkpt><trkpt lat="55.9524617" lon="49.1920717"><time>2023-06-03T12:27:45.320</time></trkpt><trkpt lat="55.9524867" lon="49.1919467"><time>2023-06-03T12:27:47.317</time></trkpt><trkpt lat="55.9525117" lon="49.1918350"><time>2023-06-03T12:27:49.323</time></trkpt><trkpt lat="55.9525350" lon="49.1917217"><time>2023-06-03T12:27:51.320</time></trkpt><trkpt lat="55.9525600" lon="49.1916050"><time>2023-06-03T12:27:53.330</time></trkpt><trkpt lat="55.9525750" lon="49.1914867"><time>2023-06-03T12:27:55.320</time></trkpt><trkpt lat="55.9525950" lon="49.1913800"><time>2023-06-03T12:27:57.323</time></trkpt><trkpt lat="55.9526217" lon="49.1912650"><time>2023-06-03T12:27:59.323</time></trkpt><trkpt lat="55.9526467" lon="49.1911417"><time>2023-06-03T12:28:01.323</time></trkpt><trkpt lat="55.9526667" lon="49.1910167"><time>2023-06-03T12:28:03.320</time></trkpt><trkpt lat="55.9526817" lon="49.1908967"><time>2023-06-03T12:28:05.320</time></trkpt><trkpt lat="55.9526983" lon="49.1907800"><time>2023-06-03T12:28:07.320</time></trkpt><trkpt lat="55.9527150" lon="49.1906617"><time>2023-06-03T12:28:09.323</time></trkpt><trkpt lat="55.9527333" lon="49.1905417"><time>2023-06-03T12:28:11.323</time></trkpt><trkpt lat="55.9527500" lon="49.1904333"><time>2023-06-03T12:28:13.320</time></trkpt><trkpt lat="55.9527733" lon="49.1903317"><time>2023-06-03T12:28:15.320</time></trkpt><trkpt lat="55.9528000" lon="49.1902133"><time>2023-06-03T12:28:17.323</time></trkpt><trkpt lat="55.9528200" lon="49.1900933"><time>2023-06-03T12:28:19.323</time></trkpt><trkpt lat="55.9528333" lon="49.1899800"><time>2023-06-03T12:28:21.323</time></trkpt><trkpt lat="55.9528467" lon="49.1898750"><time>2023-06-03T12:28:23.323</time></trkpt><trkpt lat="55.9528533" lon="49.1897667"><time>2023-06-03T12:28:25.317</time></trkpt><trkpt lat="55.9528600" lon="49.1896600"><time>2023-06-03T12:28:27.317</time></trkpt><trkpt lat="55.9528633" lon="49.1895533"><time>2023-06-03T12:28:29.320</time></trkpt><trkpt lat="55.9528683" lon="49.1894467"><time>2023-06-03T12:28:31.300</time></trkpt><trkpt lat="55.9528733" lon="49.1893400"><time>2023-06-03T12:28:33.320</time></trkpt><trkpt lat="55.9528767" lon="49.1892300"><time>2023-06-03T12:28:35.320</time></trkpt><trkpt lat="55.9528733" lon="49.1891150"><time>2023-06-03T12:28:37.323</time></trkpt><trkpt lat="55.9528733" lon="49.1890000"><time>2023-06-03T12:28:39.320</time></trkpt><trkpt lat="55.9528717" lon="49.1888883"><time>2023-06-03T12:28:41.323</time></trkpt><trkpt lat="55.9528750" lon="49.1887767"><time>2023-06-03T12:28:43.317</time></trkpt><trkpt lat="55.9528733" lon="49.1886583"><time>2023-06-03T12:28:45.317</time></trkpt><trkpt lat="55.9528733" lon="49.1885367"><time>2023-06-03T12:28:47.327</time></trkpt><trkpt lat="55.9528800" lon="49.1884250"><time>2023-06-03T12:28:49.323</time></trkpt><trkpt lat="55.9528950" lon="49.1883183"><time>2023-06-03T12:28:51.323</time></trkpt><trkpt lat="55.9529200" lon="49.1882050"><time>2023-06-03T12:28:53.323</time></trkpt><trkpt lat="55.9529450" lon="49.1880767"><time>2023-06-03T12:28:55.320</time></trkpt><trkpt lat="55.9529783" lon="49.1879650"><time>2023-06-03T12:28:57.327</time></trkpt><trkpt lat="55.9530167" lon="49.1878600"><time>2023-06-03T12:28:59.323</time></trkpt><trkpt lat="55.9530533" lon="49.1877517"><time>2023-06-03T12:29:01.323</time></trkpt><trkpt lat="55.9530917" lon="49.1876400"><time>2023-06-03T12:29:03.317</time></trkpt><trkpt lat="55.9531300" lon="49.1875283"><time>2023-06-03T12:29:05.323</time></trkpt><trkpt lat="55.9531733" lon="49.1874267"><time>2023-06-03T12:29:07.323</time></trkpt><trkpt lat="55.9532167" lon="49.1873100"><time>2023-06-03T12:29:09.323</time></trkpt><trkpt lat="55.9532683" lon="49.1872050"><time>2023-06-03T12:29:11.320</time></trkpt><trkpt lat="55.9533217" lon="49.1871000"><time>2023-06-03T12:29:13.327</time></trkpt><trkpt lat="55.9533733" lon="49.1869817"><time>2023-06-03T12:29:15.323</time></trkpt><trkpt lat="55.9534233" lon="49.1868583"><time>2023-06-03T12:29:17.323</time></trkpt><trkpt lat="55.9534617" lon="49.1867333"><time>2023-06-03T12:29:19.347</time></trkpt><trkpt lat="55.9534633" lon="49.1867350"><time>2023-06-03T12:29:20.343</time></trkpt><trkpt lat="55.9534900" lon="49.1866067"><time>2023-06-03T12:29:21.800</time></trkpt><trkpt lat="55.9535000" lon="49.1865050"><time>2023-06-03T12:29:22.807</time></trkpt><trkpt lat="55.9535483" lon="49.1863733"><time>2023-06-03T12:29:25.300</time></trkpt><trkpt lat="55.9535733" lon="49.1863033"><time>2023-06-03T12:29:26.310</time></trkpt><trkpt lat="55.9536400" lon="49.1861783"><time>2023-06-03T12:29:28.310</time></trkpt><trkpt lat="55.9536733" lon="49.1861150"><time>2023-06-03T12:29:29.310</time></trkpt><trkpt lat="55.9537050" lon="49.1860533"><time>2023-06-03T12:29:30.293</time></trkpt><trkpt lat="55.9537433" lon="49.1859950"><time>2023-06-03T12:29:31.300</time></trkpt><trkpt lat="55.9537783" lon="49.1859367"><time>2023-06-03T12:29:32.310</time></trkpt><trkpt lat="55.9538100" lon="49.1858783"><time>2023-06-03T12:29:33.313</time></trkpt><trkpt lat="55.9538450" lon="49.1858183"><time>2023-06-03T12:29:34.310</time></trkpt><trkpt lat="55.9539050" lon="49.1857017"><time>2023-06-03T12:29:36.310</time></trkpt><trkpt lat="55.9539633" lon="49.1855833"><time>2023-06-03T12:29:38.313</time></trkpt><trkpt lat="55.9540183" lon="49.1854683"><time>2023-06-03T12:29:40.313</time></trkpt><trkpt lat="55.9540783" lon="49.1853550"><time>2023-06-03T12:29:42.313</time></trkpt><trkpt lat="55.9541367" lon="49.1852450"><time>2023-06-03T12:29:44.313</time></trkpt><trkpt lat="55.9541900" lon="49.1851317"><time>2023-06-03T12:29:46.310</time></trkpt><trkpt lat="55.9542167" lon="49.1850650"><time>2023-06-03T12:29:47.313</time></trkpt><trkpt lat="55.9542367" lon="49.1849917"><time>2023-06-03T12:29:48.310</time></trkpt><trkpt lat="55.9542700" lon="49.1848450"><time>2023-06-03T12:29:50.320</time></trkpt><trkpt lat="55.9542950" lon="49.1847083"><time>2023-06-03T12:29:52.323</time></trkpt><trkpt lat="55.9543067" lon="49.1845617"><time>2023-06-03T12:29:54.313</time></trkpt><trkpt lat="55.9543100" lon="49.1844200"><time>2023-06-03T12:29:56.327</time></trkpt><trkpt lat="55.9543233" lon="49.1842917"><time>2023-06-03T12:29:58.320</time></trkpt><trkpt lat="55.9543317" lon="49.1841567"><time>2023-06-03T12:30:00.317</time></trkpt><trkpt lat="55.9543400" lon="49.1840283"><time>2023-06-03T12:30:02.327</time></trkpt><trkpt lat="55.9543617" lon="49.1839083"><time>2023-06-03T12:30:04.320</time></trkpt><trkpt lat="55.9543833" lon="49.1837917"><time>2023-06-03T12:30:06.320</time></trkpt><trkpt lat="55.9543933" lon="49.1836867"><time>2023-06-03T12:30:08.320</time></trkpt><trkpt lat="55.9544050" lon="49.1835883"><time>2023-06-03T12:30:10.323</time></trkpt><trkpt lat="55.9544150" lon="49.1834767"><time>2023-06-03T12:30:12.323</time></trkpt><trkpt lat="55.9544250" lon="49.1833767"><time>2023-06-03T12:30:14.323</time></trkpt><trkpt lat="55.9544283" lon="49.1832783"><time>2023-06-03T12:30:16.320</time></trkpt><trkpt lat="55.9544300" lon="49.1831833"><time>2023-06-03T12:30:18.323</time></trkpt><trkpt lat="55.9544283" lon="49.1830867"><time>2023-06-03T12:30:20.323</time></trkpt><trkpt lat="55.9544200" lon="49.1829917"><time>2023-06-03T12:30:23.323</time></trkpt><trkpt lat="55.9544033" lon="49.1829167"><time>2023-06-03T12:30:25.327</time></trkpt><trkpt lat="55.9543983" lon="49.1828350"><time>2023-06-03T12:30:27.323</time></trkpt><trkpt lat="55.9544083" lon="49.1827283"><time>2023-06-03T12:30:30.323</time></trkpt><trkpt lat="55.9544167" lon="49.1826333"><time>2023-06-03T12:30:32.337</time></trkpt><trkpt lat="55.9544167" lon="49.1826317"><time>2023-06-03T12:30:33.333</time></trkpt><trkpt lat="55.9544083" lon="49.1824950"><time>2023-06-03T12:30:35.807</time></trkpt><trkpt lat="55.9544050" lon="49.1824083"><time>2023-06-03T12:30:36.307</time></trkpt><trkpt lat="55.9543750" lon="49.1822500"><time>2023-06-03T12:30:38.313</time></trkpt><trkpt lat="55.9543483" lon="49.1821500"><time>2023-06-03T12:30:40.310</time></trkpt><trkpt lat="55.9542950" lon="49.1820967"><time>2023-06-03T12:30:44.313</time></trkpt><trkpt lat="55.9542317" lon="49.1820950"><time>2023-06-03T12:30:47.327</time></trkpt><trkpt lat="55.9542300" lon="49.1820950"><time>2023-06-03T12:30:48.790</time></trkpt><trkpt lat="55.9541750" lon="49.1821133"><time>2023-06-03T12:30:51.287</time></trkpt><trkpt lat="55.9541167" lon="49.1821167"><time>2023-06-03T12:30:53.280</time></trkpt><trkpt lat="55.9540383" lon="49.1821417"><time>2023-06-03T12:30:55.287</time></trkpt><trkpt lat="55.9539917" lon="49.1821700"><time>2023-06-03T12:30:57.287</time></trkpt><trkpt lat="55.9539383" lon="49.1822050"><time>2023-06-03T12:30:59.290</time></trkpt><trkpt lat="55.9539200" lon="49.1822867"><time>2023-06-03T12:31:01.317</time></trkpt><trkpt lat="55.9538933" lon="49.1823633"><time>2023-06-03T12:31:04.310</time></trkpt><trkpt lat="55.9538517" lon="49.1824250"><time>2023-06-03T12:31:07.313</time></trkpt><trkpt lat="55.9538067" lon="49.1824933"><time>2023-06-03T12:31:10.310</time></trkpt><trkpt lat="55.9537617" lon="49.1825467"><time>2023-06-03T12:31:13.313</time></trkpt><trkpt lat="55.9537183" lon="49.1826283"><time>2023-06-03T12:31:16.313</time></trkpt><trkpt lat="55.9536817" lon="49.1826917"><time>2023-06-03T12:31:18.317</time></trkpt><trkpt lat="55.9536483" lon="49.1827483"><time>2023-06-03T12:31:20.320</time></trkpt><trkpt lat="55.9536233" lon="49.1828150"><time>2023-06-03T12:31:22.317</time></trkpt><trkpt lat="55.9535917" lon="49.1828750"><time>2023-06-03T12:31:24.317</time></trkpt><trkpt lat="55.9535400" lon="49.1829350"><time>2023-06-03T12:31:27.320</time></trkpt><trkpt lat="55.9534933" lon="49.1829983"><time>2023-06-03T12:31:30.330</time></trkpt><trkpt lat="55.9534933" lon="49.1830000"><time>2023-06-03T12:31:32.280</time></trkpt><trkpt lat="55.9534433" lon="49.1830517"><time>2023-06-03T12:31:37.307</time></trkpt><trkpt lat="55.9534000" lon="49.1830750"><time>2023-06-03T12:31:40.300</time></trkpt><trkpt lat="55.9533500" lon="49.1831000"><time>2023-06-03T12:31:44.313</time></trkpt><trkpt lat="55.9533133" lon="49.1832250"><time>2023-06-03T12:31:48.317</time></trkpt><trkpt lat="55.9532883" lon="49.1833167"><time>2023-06-03T12:31:50.310</time></trkpt><trkpt lat="55.9532417" lon="49.1833950"><time>2023-06-03T12:31:54.313</time></trkpt><trkpt lat="55.9532133" lon="49.1834683"><time>2023-06-03T12:31:57.313</time></trkpt><trkpt lat="55.9531600" lon="49.1835083"><time>2023-06-03T12:32:00.313</time></trkpt><trkpt lat="55.9531050" lon="49.1835200"><time>2023-06-03T12:32:04.337</time></trkpt><trkpt lat="55.9531033" lon="49.1835200"><time>2023-06-03T12:32:05.793</time></trkpt><trkpt lat="55.9530800" lon="49.1836000"><time>2023-06-03T12:32:09.310</time></trkpt><trkpt lat="55.9530233" lon="49.1836200"><time>2023-06-03T12:32:17.313</time></trkpt><trkpt lat="55.9529850" lon="49.1836733"><time>2023-06-03T12:32:20.310</time></trkpt><trkpt lat="55.9529350" lon="49.1837133"><time>2023-06-03T12:32:24.307</time></trkpt><trkpt lat="55.9528867" lon="49.1836750"><time>2023-06-03T12:32:30.333</time></trkpt><trkpt lat="55.9528867" lon="49.1836750"><time>2023-06-03T12:32:30.397</time></trkpt><trkpt lat="55.9529317" lon="49.1837117"><time>2023-06-03T12:32:43.340</time></trkpt><trkpt lat="55.9529317" lon="49.1837117"><time>2023-06-03T12:32:45.297</time></trkpt><trkpt lat="55.9529767" lon="49.1836650"><time>2023-06-03T12:32:53.307</time></trkpt><trkpt lat="55.9530233" lon="49.1836283"><time>2023-06-03T12:32:59.313</time></trkpt><trkpt lat="55.9530767" lon="49.1836167"><time>2023-06-03T12:33:10.310</time></trkpt><trkpt lat="55.9531267" lon="49.1836417"><time>2023-06-03T12:33:15.317</time></trkpt><trkpt lat="55.9531800" lon="49.1836017"><time>2023-06-03T12:33:19.323</time></trkpt><trkpt lat="55.9532317" lon="49.1835200"><time>2023-06-03T12:33:22.323</time></trkpt><trkpt lat="55.9532833" lon="49.1834467"><time>2023-06-03T12:33:25.323</time></trkpt><trkpt lat="55.9533217" lon="49.1833867"><time>2023-06-03T12:33:27.323</time></trkpt><trkpt lat="55.9533667" lon="49.1833200"><time>2023-06-03T12:33:29.323</time></trkpt><trkpt lat="55.9534067" lon="49.1832633"><time>2023-06-03T12:33:31.323</time></trkpt><trkpt lat="55.9534433" lon="49.1831883"><time>2023-06-03T12:33:33.323</time></trkpt><trkpt lat="55.9534817" lon="49.1831017"><time>2023-06-03T12:33:35.323</time></trkpt><trkpt lat="55.9535200" lon="49.1830250"><time>2023-06-03T12:33:37.320</time></trkpt><trkpt lat="55.9535517" lon="49.1829367"><time>2023-06-03T12:33:39.320</time></trkpt><trkpt lat="55.9535850" lon="49.1828700"><time>2023-06-03T12:33:41.320</time></trkpt><trkpt lat="55.9536167" lon="49.1827917"><time>2023-06-03T12:33:43.323</time></trkpt><trkpt lat="55.9536567" lon="49.1826967"><time>2023-06-03T12:33:45.320</time></trkpt><trkpt lat="55.9536933" lon="49.1826200"><time>2023-06-03T12:33:47.323</time></trkpt><trkpt lat="55.9537417" lon="49.1825300"><time>2023-06-03T12:33:49.320</time></trkpt><trkpt lat="55.9537733" lon="49.1824567"><time>2023-06-03T12:33:51.323</time></trkpt><trkpt lat="55.9538067" lon="49.1823750"><time>2023-06-03T12:33:53.320</time></trkpt><trkpt lat="55.9538450" lon="49.1822733"><time>2023-06-03T12:33:55.290</time></trkpt><trkpt lat="55.9538583" lon="49.1821950"><time>2023-06-03T12:33:59.287</time></trkpt><trkpt lat="55.9538150" lon="49.1821133"><time>2023-06-03T12:34:03.320</time></trkpt><trkpt lat="55.9537717" lon="49.1820667"><time>2023-06-03T12:34:05.323</time></trkpt><trkpt lat="55.9537250" lon="49.1819900"><time>2023-06-03T12:34:07.323</time></trkpt><trkpt lat="55.9536817" lon="49.1819217"><time>2023-06-03T12:34:09.320</time></trkpt><trkpt lat="55.9536433" lon="49.1818683"><time>2023-06-03T12:34:11.323</time></trkpt><trkpt lat="55.9536217" lon="49.1817833"><time>2023-06-03T12:34:28.323</time></trkpt><trkpt lat="55.9535883" lon="49.1816900"><time>2023-06-03T12:34:31.320</time></trkpt><trkpt lat="55.9535583" lon="49.1816250"><time>2023-06-03T12:34:33.320</time></trkpt><trkpt lat="55.9535300" lon="49.1815383"><time>2023-06-03T12:34:35.323</time></trkpt><trkpt lat="55.9535050" lon="49.1814633"><time>2023-06-03T12:34:37.323</time></trkpt><trkpt lat="55.9534750" lon="49.1813833"><time>2023-06-03T12:34:39.320</time></trkpt><trkpt lat="55.9534417" lon="49.1812867"><time>2023-06-03T12:34:41.320</time></trkpt><trkpt lat="55.9534133" lon="49.1811967"><time>2023-06-03T12:34:43.323</time></trkpt><trkpt lat="55.9533850" lon="49.1811133"><time>2023-06-03T12:34:45.317</time></trkpt><trkpt lat="55.9533617" lon="49.1810133"><time>2023-06-03T12:34:47.320</time></trkpt><trkpt lat="55.9533400" lon="49.1809267"><time>2023-06-03T12:34:49.323</time></trkpt><trkpt lat="55.9533150" lon="49.1808300"><time>2023-06-03T12:34:51.320</time></trkpt><trkpt lat="55.9532867" lon="49.1807233"><time>2023-06-03T12:34:53.323</time></trkpt><trkpt lat="55.9532600" lon="49.1806233"><time>2023-06-03T12:34:55.323</time></trkpt><trkpt lat="55.9532367" lon="49.1805233"><time>2023-06-03T12:34:57.320</time></trkpt><trkpt lat="55.9532083" lon="49.1804217"><time>2023-06-03T12:34:59.320</time></trkpt><trkpt lat="55.9531783" lon="49.1803267"><time>2023-06-03T12:35:01.320</time></trkpt><trkpt lat="55.9531533" lon="49.1802233"><time>2023-06-03T12:35:03.320</time></trkpt><trkpt lat="55.9531233" lon="49.1801317"><time>2023-06-03T12:35:05.320</time></trkpt><trkpt lat="55.9530950" lon="49.1800433"><time>2023-06-03T12:35:07.320</time></trkpt><trkpt lat="55.9530617" lon="49.1799550"><time>2023-06-03T12:35:09.320</time></trkpt><trkpt lat="55.9530367" lon="49.1798750"><time>2023-06-03T12:35:11.317</time></trkpt><trkpt lat="55.9530083" lon="49.1797850"><time>2023-06-03T12:35:14.317</time></trkpt><trkpt lat="55.9529700" lon="49.1797000"><time>2023-06-03T12:35:17.320</time></trkpt><trkpt lat="55.9529183" lon="49.1796600"><time>2023-06-03T12:35:20.323</time></trkpt><trkpt lat="55.9528717" lon="49.1796750"><time>2023-06-03T12:35:23.317</time></trkpt><trkpt lat="55.9528133" lon="49.1796617"><time>2023-06-03T12:35:26.317</time></trkpt><trkpt lat="55.9527650" lon="49.1796167"><time>2023-06-03T12:35:29.327</time></trkpt><trkpt lat="55.9527317" lon="49.1795400"><time>2023-06-03T12:35:32.307</time></trkpt><trkpt lat="55.9527267" lon="49.1794583"><time>2023-06-03T12:35:35.323</time></trkpt><trkpt lat="55.9527167" lon="49.1793533"><time>2023-06-03T12:35:38.297</time></trkpt><trkpt lat="55.9527217" lon="49.1792433"><time>2023-06-03T12:35:41.320</time></trkpt><trkpt lat="55.9527250" lon="49.1791200"><time>2023-06-03T12:35:44.313</time></trkpt><trkpt lat="55.9527250" lon="49.1790267"><time>2023-06-03T12:35:46.320</time></trkpt><trkpt lat="55.9527233" lon="49.1789200"><time>2023-06-03T12:35:48.323</time></trkpt><trkpt lat="55.9527250" lon="49.1788250"><time>2023-06-03T12:35:50.323</time></trkpt><trkpt lat="55.9527067" lon="49.1787400"><time>2023-06-03T12:35:52.323</time></trkpt><trkpt lat="55.9526817" lon="49.1786450"><time>2023-06-03T12:35:54.320</time></trkpt><trkpt lat="55.9526567" lon="49.1785400"><time>2023-06-03T12:35:56.323</time></trkpt><trkpt lat="55.9526417" lon="49.1784583"><time>2023-06-03T12:35:58.320</time></trkpt><trkpt lat="55.9526333" lon="49.1783750"><time>2023-06-03T12:36:00.323</time></trkpt><trkpt lat="55.9526283" lon="49.1782883"><time>2023-06-03T12:36:02.323</time></trkpt><trkpt lat="55.9526200" lon="49.1781767"><time>2023-06-03T12:36:05.320</time></trkpt><trkpt lat="55.9525917" lon="49.1780950"><time>2023-06-03T12:36:07.320</time></trkpt><trkpt lat="55.9525517" lon="49.1780017"><time>2023-06-03T12:36:09.320</time></trkpt><trkpt lat="55.9525033" lon="49.1779167"><time>2023-06-03T12:36:11.320</time></trkpt><trkpt lat="55.9524500" lon="49.1778367"><time>2023-06-03T12:36:13.320</time></trkpt><trkpt lat="55.9523983" lon="49.1777717"><time>2023-06-03T12:36:15.320</time></trkpt><trkpt lat="55.9523400" lon="49.1777083"><time>2023-06-03T12:36:17.323</time></trkpt><trkpt lat="55.9522933" lon="49.1776783"><time>2023-06-03T12:36:19.320</time></trkpt><trkpt lat="55.9522367" lon="49.1776583"><time>2023-06-03T12:36:21.320</time></trkpt><trkpt lat="55.9521800" lon="49.1776283"><time>2023-06-03T12:36:23.317</time></trkpt><trkpt lat="55.9521267" lon="49.1776250"><time>2023-06-03T12:36:25.320</time></trkpt><trkpt lat="55.9520600" lon="49.1776517"><time>2023-06-03T12:36:28.307</time></trkpt><trkpt lat="55.9520067" lon="49.1776700"><time>2023-06-03T12:36:30.320</time></trkpt><trkpt lat="55.9519433" lon="49.1776883"><time>2023-06-03T12:36:32.320</time></trkpt><trkpt lat="55.9518817" lon="49.1777000"><time>2023-06-03T12:36:34.323</time></trkpt><trkpt lat="55.9518150" lon="49.1777167"><time>2023-06-03T12:36:36.320</time></trkpt><trkpt lat="55.9517600" lon="49.1777533"><time>2023-06-03T12:36:38.313</time></trkpt><trkpt lat="55.9516967" lon="49.1777883"><time>2023-06-03T12:36:41.323</time></trkpt><trkpt lat="55.9516483" lon="49.1778067"><time>2023-06-03T12:36:43.317</time></trkpt><trkpt lat="55.9516000" lon="49.1778267"><time>2023-06-03T12:36:45.320</time></trkpt><trkpt lat="55.9515517" lon="49.1778483"><time>2023-06-03T12:36:47.317</time></trkpt><trkpt lat="55.9515033" lon="49.1778667"><time>2023-06-03T12:36:49.323</time></trkpt><trkpt lat="55.9514467" lon="49.1779000"><time>2023-06-03T12:36:51.323</time></trkpt><trkpt lat="55.9513750" lon="49.1779467"><time>2023-06-03T12:36:54.303</time></trkpt><trkpt lat="55.9513100" lon="49.1780033"><time>2023-06-03T12:36:56.317</time></trkpt><trkpt lat="55.9512633" lon="49.1780283"><time>2023-06-03T12:36:58.323</time></trkpt><trkpt lat="55.9512083" lon="49.1780500"><time>2023-06-03T12:37:00.320</time></trkpt><trkpt lat="55.9511550" lon="49.1780867"><time>2023-06-03T12:37:02.317</time></trkpt><trkpt lat="55.9510900" lon="49.1781367"><time>2023-06-03T12:37:04.317</time></trkpt><trkpt lat="55.9510267" lon="49.1782183"><time>2023-06-03T12:37:06.307</time></trkpt><trkpt lat="55.9509700" lon="49.1782717"><time>2023-06-03T12:37:08.320</time></trkpt><trkpt lat="55.9509117" lon="49.1783250"><time>2023-06-03T12:37:10.320</time></trkpt><trkpt lat="55.9508483" lon="49.1783750"><time>2023-06-03T12:37:12.320</time></trkpt><trkpt lat="55.9507850" lon="49.1784100"><time>2023-06-03T12:37:14.317</time></trkpt><trkpt lat="55.9507333" lon="49.1784333"><time>2023-06-03T12:37:16.320</time></trkpt><trkpt lat="55.9506833" lon="49.1784617"><time>2023-06-03T12:37:18.320</time></trkpt><trkpt lat="55.9506150" lon="49.1784850"><time>2023-06-03T12:37:21.323</time></trkpt><trkpt lat="55.9505650" lon="49.1785100"><time>2023-06-03T12:37:23.320</time></trkpt><trkpt lat="55.9505233" lon="49.1785400"><time>2023-06-03T12:37:25.323</time></trkpt><trkpt lat="55.9504633" lon="49.1785667"><time>2023-06-03T12:37:28.320</time></trkpt><trkpt lat="55.9504067" lon="49.1785900"><time>2023-06-03T12:37:31.320</time></trkpt><trkpt lat="55.9503583" lon="49.1786217"><time>2023-06-03T12:37:34.320</time></trkpt><trkpt lat="55.9503000" lon="49.1786450"><time>2023-06-03T12:37:38.323</time></trkpt><trkpt lat="55.9502533" lon="49.1786233"><time>2023-06-03T12:37:43.320</time></trkpt><trkpt lat="55.9502067" lon="49.1786550"><time>2023-06-03T12:37:48.320</time></trkpt><trkpt lat="55.9501633" lon="49.1786850"><time>2023-06-03T12:37:51.323</time></trkpt><trkpt lat="55.9501233" lon="49.1787267"><time>2023-06-03T12:37:53.320</time></trkpt><trkpt lat="55.9500767" lon="49.1787967"><time>2023-06-03T12:37:55.320</time></trkpt><trkpt lat="55.9500233" lon="49.1788900"><time>2023-06-03T12:37:57.323</time></trkpt><trkpt lat="55.9499800" lon="49.1789450"><time>2023-06-03T12:37:59.320</time></trkpt><trkpt lat="55.9499367" lon="49.1789783"><time>2023-06-03T12:38:01.320</time></trkpt><trkpt lat="55.9498833" lon="49.1790100"><time>2023-06-03T12:38:03.320</time></trkpt><trkpt lat="55.9498350" lon="49.1790400"><time>2023-06-03T12:38:05.323</time></trkpt><trkpt lat="55.9497850" lon="49.1790717"><time>2023-06-03T12:38:07.317</time></trkpt><trkpt lat="55.9497300" lon="49.1790833"><time>2023-06-03T12:38:09.317</time></trkpt><trkpt lat="55.9496800" lon="49.1790833"><time>2023-06-03T12:38:11.317</time></trkpt><trkpt lat="55.9496183" lon="49.1791250"><time>2023-06-03T12:38:14.323</time></trkpt><trkpt lat="55.9495750" lon="49.1791533"><time>2023-06-03T12:38:16.320</time></trkpt><trkpt lat="55.9495017" lon="49.1792017"><time>2023-06-03T12:38:19.320</time></trkpt><trkpt lat="55.9494400" lon="49.1792117"><time>2023-06-03T12:38:21.320</time></trkpt><trkpt lat="55.9493783" lon="49.1792317"><time>2023-06-03T12:38:23.320</time></trkpt><trkpt lat="55.9493150" lon="49.1792567"><time>2023-06-03T12:38:25.313</time></trkpt><trkpt lat="55.9492383" lon="49.1793067"><time>2023-06-03T12:38:27.317</time></trkpt><trkpt lat="55.9491767" lon="49.1793800"><time>2023-06-03T12:38:29.323</time></trkpt><trkpt lat="55.9491200" lon="49.1794667"><time>2023-06-03T12:38:31.320</time></trkpt><trkpt lat="55.9490700" lon="49.1795283"><time>2023-06-03T12:38:33.320</time></trkpt><trkpt lat="55.9490117" lon="49.1795600"><time>2023-06-03T12:38:35.310</time></trkpt><trkpt lat="55.9489617" lon="49.1795750"><time>2023-06-03T12:38:37.323</time></trkpt><trkpt lat="55.9489100" lon="49.1796117"><time>2023-06-03T12:38:39.323</time></trkpt><trkpt lat="55.9488483" lon="49.1796500"><time>2023-06-03T12:38:41.320</time></trkpt><trkpt lat="55.9487783" lon="49.1797117"><time>2023-06-03T12:38:43.320</time></trkpt><trkpt lat="55.9487083" lon="49.1797733"><time>2023-06-03T12:38:45.317</time></trkpt><trkpt lat="55.9486383" lon="49.1798300"><time>2023-06-03T12:38:47.320</time></trkpt><trkpt lat="55.9485700" lon="49.1798817"><time>2023-06-03T12:38:49.323</time></trkpt><trkpt lat="55.9484983" lon="49.1799083"><time>2023-06-03T12:38:51.320</time></trkpt><trkpt lat="55.9484367" lon="49.1799283"><time>2023-06-03T12:38:53.320</time></trkpt><trkpt lat="55.9483850" lon="49.1799700"><time>2023-06-03T12:38:55.317</time></trkpt><trkpt lat="55.9483267" lon="49.1800083"><time>2023-06-03T12:38:57.320</time></trkpt><trkpt lat="55.9482533" lon="49.1800400"><time>2023-06-03T12:38:59.320</time></trkpt><trkpt lat="55.9481767" lon="49.1800583"><time>2023-06-03T12:39:01.320</time></trkpt><trkpt lat="55.9481033" lon="49.1800950"><time>2023-06-03T12:39:03.320</time></trkpt><trkpt lat="55.9480317" lon="49.1801450"><time>2023-06-03T12:39:05.323</time></trkpt><trkpt lat="55.9479533" lon="49.1801917"><time>2023-06-03T12:39:07.323</time></trkpt><trkpt lat="55.9479100" lon="49.1802183"><time>2023-06-03T12:39:08.320</time></trkpt><trkpt lat="55.9478650" lon="49.1802450"><time>2023-06-03T12:39:09.320</time></trkpt><trkpt lat="55.9477817" lon="49.1803000"><time>2023-06-03T12:39:11.320</time></trkpt><trkpt lat="55.9477017" lon="49.1803650"><time>2023-06-03T12:39:13.320</time></trkpt><trkpt lat="55.9476267" lon="49.1804183"><time>2023-06-03T12:39:15.323</time></trkpt><trkpt lat="55.9475567" lon="49.1804717"><time>2023-06-03T12:39:17.320</time></trkpt><trkpt lat="55.9474850" lon="49.1805200"><time>2023-06-03T12:39:19.323</time></trkpt><trkpt lat="55.9474317" lon="49.1805367"><time>2023-06-03T12:39:21.320</time></trkpt><trkpt lat="55.9473683" lon="49.1805600"><time>2023-06-03T12:39:24.317</time></trkpt><trkpt lat="55.9473100" lon="49.1806050"><time>2023-06-03T12:39:27.320</time></trkpt><trkpt lat="55.9472433" lon="49.1806417"><time>2023-06-03T12:39:30.310</time></trkpt><trkpt lat="55.9471967" lon="49.1806717"><time>2023-06-03T12:39:32.320</time></trkpt><trkpt lat="55.9471567" lon="49.1807183"><time>2023-06-03T12:39:33.317</time></trkpt><trkpt lat="55.9470833" lon="49.1807950"><time>2023-06-03T12:39:35.317</time></trkpt><trkpt lat="55.9470267" lon="49.1808483"><time>2023-06-03T12:39:37.317</time></trkpt><trkpt lat="55.9469650" lon="49.1808983"><time>2023-06-03T12:39:39.317</time></trkpt><trkpt lat="55.9469067" lon="49.1809367"><time>2023-06-03T12:39:41.317</time></trkpt><trkpt lat="55.9468550" lon="49.1809700"><time>2023-06-03T12:39:43.313</time></trkpt><trkpt lat="55.9467867" lon="49.1810050"><time>2023-06-03T12:39:45.317</time></trkpt><trkpt lat="55.9467133" lon="49.1810717"><time>2023-06-03T12:39:47.310</time></trkpt><trkpt lat="55.9466550" lon="49.1811133"><time>2023-06-03T12:39:49.317</time></trkpt><trkpt lat="55.9465917" lon="49.1811467"><time>2023-06-03T12:39:51.313</time></trkpt><trkpt lat="55.9465167" lon="49.1811850"><time>2023-06-03T12:39:53.320</time></trkpt><trkpt lat="55.9464467" lon="49.1812283"><time>2023-06-03T12:39:55.320</time></trkpt><trkpt lat="55.9463733" lon="49.1812817"><time>2023-06-03T12:39:57.320</time></trkpt><trkpt lat="55.9462917" lon="49.1813367"><time>2023-06-03T12:39:59.317</time></trkpt><trkpt lat="55.9462500" lon="49.1813683"><time>2023-06-03T12:40:00.320</time></trkpt><trkpt lat="55.9461767" lon="49.1814350"><time>2023-06-03T12:40:02.317</time></trkpt><trkpt lat="55.9461183" lon="49.1814833"><time>2023-06-03T12:40:04.320</time></trkpt><trkpt lat="55.9460667" lon="49.1815067"><time>2023-06-03T12:40:06.317</time></trkpt><trkpt lat="55.9460150" lon="49.1815283"><time>2023-06-03T12:40:08.323</time></trkpt><trkpt lat="55.9459733" lon="49.1815767"><time>2023-06-03T12:40:10.320</time></trkpt><trkpt lat="55.9459400" lon="49.1816533"><time>2023-06-03T12:40:12.317</time></trkpt><trkpt lat="55.9459167" lon="49.1817317"><time>2023-06-03T12:40:14.320</time></trkpt><trkpt lat="55.9459033" lon="49.1818133"><time>2023-06-03T12:40:16.320</time></trkpt><trkpt lat="55.9458967" lon="49.1819133"><time>2023-06-03T12:40:18.323</time></trkpt><trkpt lat="55.9458983" lon="49.1820267"><time>2023-06-03T12:40:20.327</time></trkpt><trkpt lat="55.9458983" lon="49.1821350"><time>2023-06-03T12:40:22.317</time></trkpt><trkpt lat="55.9458983" lon="49.1822300"><time>2023-06-03T12:40:24.320</time></trkpt><trkpt lat="55.9459133" lon="49.1823517"><time>2023-06-03T12:40:26.317</time></trkpt><trkpt lat="55.9459367" lon="49.1824600"><time>2023-06-03T12:40:28.320</time></trkpt><trkpt lat="55.9459533" lon="49.1825500"><time>2023-06-03T12:40:30.320</time></trkpt><trkpt lat="55.9459750" lon="49.1826350"><time>2023-06-03T12:40:32.320</time></trkpt><trkpt lat="55.9459867" lon="49.1827200"><time>2023-06-03T12:40:34.307</time></trkpt><trkpt lat="55.9460050" lon="49.1828333"><time>2023-06-03T12:40:36.327</time></trkpt><trkpt lat="55.9460050" lon="49.1828350"><time>2023-06-03T12:40:37.797</time></trkpt><trkpt lat="55.9460200" lon="49.1829300"><time>2023-06-03T12:40:41.303</time></trkpt><trkpt lat="55.9460283" lon="49.1830133"><time>2023-06-03T12:40:43.307</time></trkpt><trkpt lat="55.9460383" lon="49.1831167"><time>2023-06-03T12:40:45.313</time></trkpt><trkpt lat="55.9460467" lon="49.1832083"><time>2023-06-03T12:40:47.310</time></trkpt><trkpt lat="55.9460783" lon="49.1833133"><time>2023-06-03T12:40:50.310</time></trkpt><trkpt lat="55.9461017" lon="49.1833967"><time>2023-06-03T12:40:53.300</time></trkpt><trkpt lat="55.9461083" lon="49.1834867"><time>2023-06-03T12:40:58.307</time></trkpt><trkpt lat="55.9461317" lon="49.1835767"><time>2023-06-03T12:41:02.307</time></trkpt><trkpt lat="55.9461650" lon="49.1836467"><time>2023-06-03T12:41:06.307</time></trkpt><trkpt lat="55.9461800" lon="49.1837250"><time>2023-06-03T12:41:09.310</time></trkpt><trkpt lat="55.9461967" lon="49.1838283"><time>2023-06-03T12:41:13.310</time></trkpt><trkpt lat="55.9462117" lon="49.1839100"><time>2023-06-03T12:41:15.310</time></trkpt><trkpt lat="55.9462250" lon="49.1840367"><time>2023-06-03T12:41:17.310</time></trkpt><trkpt lat="55.9462433" lon="49.1841333"><time>2023-06-03T12:41:19.317</time></trkpt><trkpt lat="55.9462650" lon="49.1842183"><time>2023-06-03T12:41:21.317</time></trkpt><trkpt lat="55.9462850" lon="49.1843267"><time>2023-06-03T12:41:24.310</time></trkpt><trkpt lat="55.9463050" lon="49.1844650"><time>2023-06-03T12:41:27.327</time></trkpt><trkpt lat="55.9463033" lon="49.1844683"><time>2023-06-03T12:41:29.270</time></trkpt><trkpt lat="55.9463200" lon="49.1845483"><time>2023-06-03T12:41:31.307</time></trkpt><trkpt lat="55.9463183" lon="49.1846333"><time>2023-06-03T12:41:33.307</time></trkpt><trkpt lat="55.9463417" lon="49.1847067"><time>2023-06-03T12:41:36.310</time></trkpt><trkpt lat="55.9463433" lon="49.1848083"><time>2023-06-03T12:41:38.310</time></trkpt><trkpt lat="55.9463617" lon="49.1848967"><time>2023-06-03T12:41:40.307</time></trkpt><trkpt lat="55.9463650" lon="49.1850083"><time>2023-06-03T12:41:43.310</time></trkpt><trkpt lat="55.9463750" lon="49.1851050"><time>2023-06-03T12:41:45.313</time></trkpt><trkpt lat="55.9463917" lon="49.1852000"><time>2023-06-03T12:41:49.327</time></trkpt><trkpt lat="55.9463900" lon="49.1852167"><time>2023-06-03T12:41:51.793</time></trkpt><trkpt lat="55.9464117" lon="49.1853367"><time>2023-06-03T12:41:54.303</time></trkpt><trkpt lat="55.9464133" lon="49.1854300"><time>2023-06-03T12:41:56.310</time></trkpt><trkpt lat="55.9464117" lon="49.1855133"><time>2023-06-03T12:41:58.307</time></trkpt><trkpt lat="55.9464367" lon="49.1856150"><time>2023-06-03T12:42:00.310</time></trkpt><trkpt lat="55.9464667" lon="49.1856833"><time>2023-06-03T12:42:01.317</time></trkpt><trkpt lat="55.9464667" lon="49.1856833"><time>2023-06-03T12:42:01.353</time></trkpt><trkpt lat="55.9464983" lon="49.1857483"><time>2023-06-03T12:42:03.317</time></trkpt><trkpt lat="55.9464983" lon="49.1857483"><time>2023-06-03T12:42:05.273</time></trkpt><trkpt lat="55.9464900" lon="49.1856650"><time>2023-06-03T12:42:12.303</time></trkpt><trkpt lat="55.9465250" lon="49.1856067"><time>2023-06-03T12:42:21.297</time></trkpt><trkpt lat="55.9465450" lon="49.1855233"><time>2023-06-03T12:43:23.317</time></trkpt><trkpt lat="55.9465450" lon="49.1854200"><time>2023-06-03T12:43:26.317</time></trkpt><trkpt lat="55.9465333" lon="49.1853133"><time>2023-06-03T12:43:29.320</time></trkpt><trkpt lat="55.9465150" lon="49.1852200"><time>2023-06-03T12:43:32.317</time></trkpt><trkpt lat="55.9465067" lon="49.1851183"><time>2023-06-03T12:43:35.320</time></trkpt><trkpt lat="55.9464900" lon="49.1850367"><time>2023-06-03T12:43:37.320</time></trkpt><trkpt lat="55.9464817" lon="49.1849383"><time>2023-06-03T12:43:39.320</time></trkpt><trkpt lat="55.9464683" lon="49.1848567"><time>2023-06-03T12:43:41.317</time></trkpt><trkpt lat="55.9464417" lon="49.1847533"><time>2023-06-03T12:43:44.317</time></trkpt><trkpt lat="55.9464283" lon="49.1846750"><time>2023-06-03T12:43:46.317</time></trkpt><trkpt lat="55.9464033" lon="49.1845633"><time>2023-06-03T12:43:49.320</time></trkpt><trkpt lat="55.9463867" lon="49.1844550"><time>2023-06-03T12:43:52.317</time></trkpt><trkpt lat="55.9463533" lon="49.1843517"><time>2023-06-03T12:43:54.317</time></trkpt><trkpt lat="55.9463183" lon="49.1842567"><time>2023-06-03T12:43:56.317</time></trkpt><trkpt lat="55.9462867" lon="49.1841517"><time>2023-06-03T12:43:58.310</time></trkpt><trkpt lat="55.9462633" lon="49.1840667"><time>2023-06-03T12:44:00.313</time></trkpt><trkpt lat="55.9462500" lon="49.1839833"><time>2023-06-03T12:44:02.313</time></trkpt><trkpt lat="55.9462233" lon="49.1838683"><time>2023-06-03T12:44:05.320</time></trkpt><trkpt lat="55.9462033" lon="49.1837883"><time>2023-06-03T12:44:07.320</time></trkpt><trkpt lat="55.9461900" lon="49.1837017"><time>2023-06-03T12:44:09.320</time></trkpt><trkpt lat="55.9461783" lon="49.1836067"><time>2023-06-03T12:44:11.313</time></trkpt><trkpt lat="55.9461567" lon="49.1835050"><time>2023-06-03T12:44:13.300</time></trkpt><trkpt lat="55.9461317" lon="49.1833867"><time>2023-06-03T12:44:15.320</time></trkpt><trkpt lat="55.9461033" lon="49.1832800"><time>2023-06-03T12:44:17.320</time></trkpt><trkpt lat="55.9460850" lon="49.1831983"><time>2023-06-03T12:44:19.320</time></trkpt><trkpt lat="55.9460683" lon="49.1830850"><time>2023-06-03T12:44:22.313</time></trkpt><trkpt lat="55.9460517" lon="49.1830050"><time>2023-06-03T12:44:24.317</time></trkpt><trkpt lat="55.9460233" lon="49.1828967"><time>2023-06-03T12:44:27.320</time></trkpt><trkpt lat="55.9460033" lon="49.1827983"><time>2023-06-03T12:44:29.317</time></trkpt><trkpt lat="55.9459883" lon="49.1827050"><time>2023-06-03T12:44:31.320</time></trkpt><trkpt lat="55.9459750" lon="49.1826233"><time>2023-06-03T12:44:33.320</time></trkpt><trkpt lat="55.9459633" lon="49.1825150"><time>2023-06-03T12:44:36.320</time></trkpt><trkpt lat="55.9459533" lon="49.1824200"><time>2023-06-03T12:44:38.320</time></trkpt><trkpt lat="55.9459400" lon="49.1823167"><time>2023-06-03T12:44:40.323</time></trkpt><trkpt lat="55.9459233" lon="49.1822217"><time>2023-06-03T12:44:42.320</time></trkpt><trkpt lat="55.9459017" lon="49.1821183"><time>2023-06-03T12:44:45.320</time></trkpt><trkpt lat="55.9458767" lon="49.1820317"><time>2023-06-03T12:44:48.320</time></trkpt><trkpt lat="55.9458450" lon="49.1819533"><time>2023-06-03T12:44:51.323</time></trkpt><trkpt lat="55.9458117" lon="49.1818783"><time>2023-06-03T12:44:59.317</time></trkpt><trkpt lat="55.9457650" lon="49.1818300"><time>2023-06-03T12:45:03.317</time></trkpt><trkpt lat="55.9457200" lon="49.1818350"><time>2023-06-03T12:45:06.320</time></trkpt><trkpt lat="55.9456717" lon="49.1818483"><time>2023-06-03T12:45:08.320</time></trkpt><trkpt lat="55.9456167" lon="49.1818967"><time>2023-06-03T12:45:10.320</time></trkpt><trkpt lat="55.9455633" lon="49.1819267"><time>2023-06-03T12:45:12.317</time></trkpt><trkpt lat="55.9455000" lon="49.1819700"><time>2023-06-03T12:45:15.320</time></trkpt><trkpt lat="55.9454533" lon="49.1819917"><time>2023-06-03T12:45:17.317</time></trkpt><trkpt lat="55.9454133" lon="49.1820283"><time>2023-06-03T12:45:19.317</time></trkpt><trkpt lat="55.9453483" lon="49.1820683"><time>2023-06-03T12:45:22.320</time></trkpt><trkpt lat="55.9452883" lon="49.1820983"><time>2023-06-03T12:45:24.320</time></trkpt><trkpt lat="55.9452300" lon="49.1821317"><time>2023-06-03T12:45:26.317</time></trkpt><trkpt lat="55.9451683" lon="49.1821700"><time>2023-06-03T12:45:28.317</time></trkpt><trkpt lat="55.9451133" lon="49.1821850"><time>2023-06-03T12:45:30.317</time></trkpt><trkpt lat="55.9450533" lon="49.1821833"><time>2023-06-03T12:45:33.317</time></trkpt><trkpt lat="55.9449917" lon="49.1821733"><time>2023-06-03T12:45:36.317</time></trkpt><trkpt lat="55.9449500" lon="49.1822167"><time>2023-06-03T12:45:40.320</time></trkpt><trkpt lat="55.9449133" lon="49.1822817"><time>2023-06-03T12:45:43.317</time></trkpt><trkpt lat="55.9448533" lon="49.1823400"><time>2023-06-03T12:45:45.320</time></trkpt><trkpt lat="55.9448000" lon="49.1823867"><time>2023-06-03T12:45:47.317</time></trkpt><trkpt lat="55.9447200" lon="49.1824450"><time>2023-06-03T12:45:49.317</time></trkpt><trkpt lat="55.9446500" lon="49.1825017"><time>2023-06-03T12:45:51.320</time></trkpt><trkpt lat="55.9445850" lon="49.1825467"><time>2023-06-03T12:45:53.317</time></trkpt><trkpt lat="55.9445217" lon="49.1825900"><time>2023-06-03T12:45:55.323</time></trkpt><trkpt lat="55.9444500" lon="49.1826383"><time>2023-06-03T12:45:57.320</time></trkpt><trkpt lat="55.9443717" lon="49.1826933"><time>2023-06-03T12:45:59.323</time></trkpt><trkpt lat="55.9442967" lon="49.1827350"><time>2023-06-03T12:46:01.320</time></trkpt><trkpt lat="55.9442150" lon="49.1827817"><time>2023-06-03T12:46:03.320</time></trkpt><trkpt lat="55.9441717" lon="49.1828083"><time>2023-06-03T12:46:04.317</time></trkpt><trkpt lat="55.9440900" lon="49.1828583"><time>2023-06-03T12:46:06.320</time></trkpt><trkpt lat="55.9440300" lon="49.1829183"><time>2023-06-03T12:46:08.320</time></trkpt><trkpt lat="55.9439733" lon="49.1829583"><time>2023-06-03T12:46:10.320</time></trkpt><trkpt lat="55.9439033" lon="49.1829883"><time>2023-06-03T12:46:12.323</time></trkpt><trkpt lat="55.9438300" lon="49.1830217"><time>2023-06-03T12:46:14.320</time></trkpt><trkpt lat="55.9437550" lon="49.1830700"><time>2023-06-03T12:46:16.317</time></trkpt><trkpt lat="55.9437150" lon="49.1831067"><time>2023-06-03T12:46:17.320</time></trkpt><trkpt lat="55.9436467" lon="49.1831583"><time>2023-06-03T12:46:19.317</time></trkpt><trkpt lat="55.9435800" lon="49.1831917"><time>2023-06-03T12:46:21.317</time></trkpt><trkpt lat="55.9435150" lon="49.1832300"><time>2023-06-03T12:46:23.317</time></trkpt><trkpt lat="55.9434467" lon="49.1832467"><time>2023-06-03T12:46:25.320</time></trkpt><trkpt lat="55.9433800" lon="49.1832700"><time>2023-06-03T12:46:27.317</time></trkpt><trkpt lat="55.9433183" lon="49.1833183"><time>2023-06-03T12:46:29.317</time></trkpt><trkpt lat="55.9432517" lon="49.1833817"><time>2023-06-03T12:46:31.320</time></trkpt><trkpt lat="55.9431883" lon="49.1834583"><time>2023-06-03T12:46:33.317</time></trkpt><trkpt lat="55.9431333" lon="49.1835233"><time>2023-06-03T12:46:35.320</time></trkpt><trkpt lat="55.9430750" lon="49.1835683"><time>2023-06-03T12:46:37.317</time></trkpt><trkpt lat="55.9430067" lon="49.1836267"><time>2023-06-03T12:46:39.317</time></trkpt><trkpt lat="55.9429317" lon="49.1836933"><time>2023-06-03T12:46:41.317</time></trkpt><trkpt lat="55.9428567" lon="49.1837517"><time>2023-06-03T12:46:43.313</time></trkpt><trkpt lat="55.9427767" lon="49.1838133"><time>2023-06-03T12:46:45.320</time></trkpt><trkpt lat="55.9427350" lon="49.1838450"><time>2023-06-03T12:46:46.313</time></trkpt><trkpt lat="55.9426833" lon="49.1838900"><time>2023-06-03T12:46:47.307</time></trkpt><trkpt lat="55.9426017" lon="49.1839533"><time>2023-06-03T12:46:49.317</time></trkpt><trkpt lat="55.9425183" lon="49.1840083"><time>2023-06-03T12:46:51.317</time></trkpt><trkpt lat="55.9424317" lon="49.1840650"><time>2023-06-03T12:46:53.317</time></trkpt><trkpt lat="55.9423533" lon="49.1841300"><time>2023-06-03T12:46:55.317</time></trkpt><trkpt lat="55.9423067" lon="49.1841683"><time>2023-06-03T12:46:56.320</time></trkpt><trkpt lat="55.9422300" lon="49.1842233"><time>2023-06-03T12:46:58.297</time></trkpt><trkpt lat="55.9421583" lon="49.1842667"><time>2023-06-03T12:47:00.320</time></trkpt><trkpt lat="55.9420967" lon="49.1843100"><time>2023-06-03T12:47:02.320</time></trkpt><trkpt lat="55.9420433" lon="49.1843500"><time>2023-06-03T12:47:04.317</time></trkpt><trkpt lat="55.9419867" lon="49.1843850"><time>2023-06-03T12:47:06.320</time></trkpt><trkpt lat="55.9419267" lon="49.1844150"><time>2023-06-03T12:47:08.320</time></trkpt><trkpt lat="55.9418817" lon="49.1844250"><time>2023-06-03T12:47:10.317</time></trkpt><trkpt lat="55.9418200" lon="49.1844200"><time>2023-06-03T12:47:13.317</time></trkpt><trkpt lat="55.9417683" lon="49.1844550"><time>2023-06-03T12:47:17.320</time></trkpt><trkpt lat="55.9417217" lon="49.1845133"><time>2023-06-03T12:47:19.317</time></trkpt><trkpt lat="55.9416750" lon="49.1845667"><time>2023-06-03T12:47:21.320</time></trkpt><trkpt lat="55.9416283" lon="49.1846033"><time>2023-06-03T12:47:23.317</time></trkpt><trkpt lat="55.9415767" lon="49.1846300"><time>2023-06-03T12:47:25.317</time></trkpt><trkpt lat="55.9415200" lon="49.1846533"><time>2023-06-03T12:47:27.320</time></trkpt><trkpt lat="55.9414667" lon="49.1846917"><time>2023-06-03T12:47:29.320</time></trkpt><trkpt lat="55.9414033" lon="49.1847500"><time>2023-06-03T12:47:31.320</time></trkpt><trkpt lat="55.9413283" lon="49.1848033"><time>2023-06-03T12:47:33.320</time></trkpt><trkpt lat="55.9412600" lon="49.1848533"><time>2023-06-03T12:47:35.310</time></trkpt><trkpt lat="55.9411917" lon="49.1849067"><time>2023-06-03T12:47:37.317</time></trkpt><trkpt lat="55.9411333" lon="49.1849467"><time>2023-06-03T12:47:39.317</time></trkpt><trkpt lat="55.9410583" lon="49.1849717"><time>2023-06-03T12:47:41.317</time></trkpt><trkpt lat="55.9410033" lon="49.1849983"><time>2023-06-03T12:47:43.317</time></trkpt><trkpt lat="55.9409483" lon="49.1850333"><time>2023-06-03T12:47:45.320</time></trkpt><trkpt lat="55.9408900" lon="49.1850800"><time>2023-06-03T12:47:47.317</time></trkpt><trkpt lat="55.9408217" lon="49.1851250"><time>2023-06-03T12:47:49.317</time></trkpt><trkpt lat="55.9407483" lon="49.1851817"><time>2023-06-03T12:47:51.317</time></trkpt><trkpt lat="55.9406750" lon="49.1852383"><time>2023-06-03T12:47:53.317</time></trkpt><trkpt lat="55.9406083" lon="49.1852833"><time>2023-06-03T12:47:55.317</time></trkpt><trkpt lat="55.9405317" lon="49.1853367"><time>2023-06-03T12:47:57.320</time></trkpt><trkpt lat="55.9404467" lon="49.1854100"><time>2023-06-03T12:47:59.317</time></trkpt><trkpt lat="55.9403717" lon="49.1854517"><time>2023-06-03T12:48:01.310</time></trkpt><trkpt lat="55.9402983" lon="49.1855117"><time>2023-06-03T12:48:03.317</time></trkpt><trkpt lat="55.9402217" lon="49.1855717"><time>2023-06-03T12:48:05.317</time></trkpt><trkpt lat="55.9401467" lon="49.1856350"><time>2023-06-03T12:48:07.320</time></trkpt><trkpt lat="55.9400733" lon="49.1856933"><time>2023-06-03T12:48:09.313</time></trkpt><trkpt lat="55.9400000" lon="49.1857400"><time>2023-06-03T12:48:11.310</time></trkpt><trkpt lat="55.9399233" lon="49.1857867"><time>2023-06-03T12:48:13.317</time></trkpt><trkpt lat="55.9398483" lon="49.1858283"><time>2023-06-03T12:48:15.320</time></trkpt><trkpt lat="55.9397767" lon="49.1858683"><time>2023-06-03T12:48:17.320</time></trkpt><trkpt lat="55.9397133" lon="49.1859300"><time>2023-06-03T12:48:19.307</time></trkpt><trkpt lat="55.9396550" lon="49.1859583"><time>2023-06-03T12:48:21.317</time></trkpt><trkpt lat="55.9396100" lon="49.1859917"><time>2023-06-03T12:48:23.317</time></trkpt><trkpt lat="55.9395567" lon="49.1860267"><time>2023-06-03T12:48:25.317</time></trkpt><trkpt lat="55.9395017" lon="49.1860633"><time>2023-06-03T12:48:27.317</time></trkpt><trkpt lat="55.9394400" lon="49.1861000"><time>2023-06-03T12:48:29.317</time></trkpt><trkpt lat="55.9393633" lon="49.1861300"><time>2023-06-03T12:48:31.317</time></trkpt><trkpt lat="55.9393117" lon="49.1861617"><time>2023-06-03T12:48:32.317</time></trkpt><trkpt lat="55.9392650" lon="49.1861883"><time>2023-06-03T12:48:33.323</time></trkpt><trkpt lat="55.9392250" lon="49.1862250"><time>2023-06-03T12:48:34.320</time></trkpt><trkpt lat="55.9391417" lon="49.1862650"><time>2023-06-03T12:48:36.317</time></trkpt><trkpt lat="55.9390617" lon="49.1863117"><time>2023-06-03T12:48:38.317</time></trkpt><trkpt lat="55.9389917" lon="49.1863517"><time>2023-06-03T12:48:40.307</time></trkpt><trkpt lat="55.9389067" lon="49.1864083"><time>2023-06-03T12:48:42.317</time></trkpt><trkpt lat="55.9388633" lon="49.1864400"><time>2023-06-03T12:48:43.317</time></trkpt><trkpt lat="55.9387650" lon="49.1864967"><time>2023-06-03T12:48:45.317</time></trkpt><trkpt lat="55.9387183" lon="49.1865217"><time>2023-06-03T12:48:46.317</time></trkpt><trkpt lat="55.9386717" lon="49.1865533"><time>2023-06-03T12:48:47.317</time></trkpt><trkpt lat="55.9386233" lon="49.1865817"><time>2023-06-03T12:48:48.317</time></trkpt><trkpt lat="55.9385733" lon="49.1866150"><time>2023-06-03T12:48:49.317</time></trkpt><trkpt lat="55.9384850" lon="49.1866633"><time>2023-06-03T12:48:51.317</time></trkpt><trkpt lat="55.9384433" lon="49.1866950"><time>2023-06-03T12:48:52.320</time></trkpt><trkpt lat="55.9383667" lon="49.1867283"><time>2023-06-03T12:48:54.317</time></trkpt><trkpt lat="55.9382867" lon="49.1867800"><time>2023-06-03T12:48:56.317</time></trkpt><trkpt lat="55.9382433" lon="49.1868150"><time>2023-06-03T12:48:57.317</time></trkpt><trkpt lat="55.9381983" lon="49.1868517"><time>2023-06-03T12:48:58.317</time></trkpt><trkpt lat="55.9381133" lon="49.1869150"><time>2023-06-03T12:49:00.317</time></trkpt><trkpt lat="55.9380700" lon="49.1869483"><time>2023-06-03T12:49:01.320</time></trkpt><trkpt lat="55.9379883" lon="49.1870017"><time>2023-06-03T12:49:03.320</time></trkpt><trkpt lat="55.9379417" lon="49.1870217"><time>2023-06-03T12:49:04.320</time></trkpt><trkpt lat="55.9378983" lon="49.1870450"><time>2023-06-03T12:49:05.317</time></trkpt><trkpt lat="55.9378267" lon="49.1871000"><time>2023-06-03T12:49:07.317</time></trkpt><trkpt lat="55.9377767" lon="49.1871667"><time>2023-06-03T12:49:09.317</time></trkpt><trkpt lat="55.9377400" lon="49.1872167"><time>2023-06-03T12:49:10.317</time></trkpt><trkpt lat="55.9376650" lon="49.1873050"><time>2023-06-03T12:49:12.317</time></trkpt><trkpt lat="55.9376233" lon="49.1873517"><time>2023-06-03T12:49:13.317</time></trkpt><trkpt lat="55.9375767" lon="49.1873967"><time>2023-06-03T12:49:14.317</time></trkpt><trkpt lat="55.9375267" lon="49.1874333"><time>2023-06-03T12:49:15.317</time></trkpt><trkpt lat="55.9374750" lon="49.1874600"><time>2023-06-03T12:49:16.317</time></trkpt><trkpt lat="55.9374267" lon="49.1874850"><time>2023-06-03T12:49:17.320</time></trkpt><trkpt lat="55.9373800" lon="49.1875083"><time>2023-06-03T12:49:18.317</time></trkpt><trkpt lat="55.9373067" lon="49.1875583"><time>2023-06-03T12:49:20.317</time></trkpt><trkpt lat="55.9372217" lon="49.1875967"><time>2023-06-03T12:49:22.317</time></trkpt><trkpt lat="55.9371483" lon="49.1876250"><time>2023-06-03T12:49:24.313</time></trkpt><trkpt lat="55.9370833" lon="49.1876350"><time>2023-06-03T12:49:26.317</time></trkpt><trkpt lat="55.9370250" lon="49.1876183"><time>2023-06-03T12:49:28.317</time></trkpt><trkpt lat="55.9369683" lon="49.1875983"><time>2023-06-03T12:49:30.317</time></trkpt><trkpt lat="55.9369367" lon="49.1875350"><time>2023-06-03T12:49:33.317</time></trkpt><trkpt lat="55.9369083" lon="49.1874583"><time>2023-06-03T12:49:35.317</time></trkpt><trkpt lat="55.9368817" lon="49.1873867"><time>2023-06-03T12:49:37.320</time></trkpt><trkpt lat="55.9368567" lon="49.1873133"><time>2023-06-03T12:49:39.317</time></trkpt><trkpt lat="55.9368317" lon="49.1872367"><time>2023-06-03T12:49:41.317</time></trkpt><trkpt lat="55.9367983" lon="49.1871767"><time>2023-06-03T12:49:43.317</time></trkpt><trkpt lat="55.9367600" lon="49.1870900"><time>2023-06-03T12:49:45.320</time></trkpt><trkpt lat="55.9367167" lon="49.1869983"><time>2023-06-03T12:49:48.317</time></trkpt><trkpt lat="55.9366800" lon="49.1869250"><time>2023-06-03T12:49:50.320</time></trkpt><trkpt lat="55.9366517" lon="49.1868417"><time>2023-06-03T12:49:52.320</time></trkpt><trkpt lat="55.9366200" lon="49.1867333"><time>2023-06-03T12:49:54.317</time></trkpt><trkpt lat="55.9365767" lon="49.1866200"><time>2023-06-03T12:49:56.317</time></trkpt><trkpt lat="55.9365517" lon="49.1865283"><time>2023-06-03T12:49:58.317</time></trkpt><trkpt lat="55.9365183" lon="49.1864350"><time>2023-06-03T12:50:00.317</time></trkpt><trkpt lat="55.9365050" lon="49.1863333"><time>2023-06-03T12:50:02.320</time></trkpt><trkpt lat="55.9364850" lon="49.1862267"><time>2023-06-03T12:50:04.317</time></trkpt><trkpt lat="55.9364600" lon="49.1861167"><time>2023-06-03T12:50:06.317</time></trkpt><trkpt lat="55.9364333" lon="49.1860067"><time>2023-06-03T12:50:08.317</time></trkpt><trkpt lat="55.9364133" lon="49.1858867"><time>2023-06-03T12:50:11.313</time></trkpt><trkpt lat="55.9363867" lon="49.1857817"><time>2023-06-03T12:50:13.320</time></trkpt><trkpt lat="55.9363617" lon="49.1856900"><time>2023-06-03T12:50:15.317</time></trkpt><trkpt lat="55.9363417" lon="49.1856050"><time>2023-06-03T12:50:17.320</time></trkpt><trkpt lat="55.9363167" lon="49.1855117"><time>2023-06-03T12:50:19.317</time></trkpt><trkpt lat="55.9362883" lon="49.1853867"><time>2023-06-03T12:50:22.317</time></trkpt><trkpt lat="55.9362633" lon="49.1852900"><time>2023-06-03T12:50:24.303</time></trkpt><trkpt lat="55.9362333" lon="49.1851850"><time>2023-06-03T12:50:26.320</time></trkpt><trkpt lat="55.9361983" lon="49.1850800"><time>2023-06-03T12:50:28.317</time></trkpt><trkpt lat="55.9361783" lon="49.1849767"><time>2023-06-03T12:50:30.317</time></trkpt><trkpt lat="55.9361583" lon="49.1848983"><time>2023-06-03T12:50:32.317</time></trkpt><trkpt lat="55.9361333" lon="49.1848133"><time>2023-06-03T12:50:35.320</time></trkpt><trkpt lat="55.9361117" lon="49.1847350"><time>2023-06-03T12:50:40.313</time></trkpt><trkpt lat="55.9360917" lon="49.1846367"><time>2023-06-03T12:50:45.317</time></trkpt><trkpt lat="55.9360733" lon="49.1845367"><time>2023-06-03T12:50:48.317</time></trkpt><trkpt lat="55.9360567" lon="49.1844500"><time>2023-06-03T12:50:50.317</time></trkpt><trkpt lat="55.9360333" lon="49.1843583"><time>2023-06-03T12:50:52.317</time></trkpt><trkpt lat="55.9360100" lon="49.1842467"><time>2023-06-03T12:50:54.320</time></trkpt><trkpt lat="55.9359833" lon="49.1841467"><time>2023-06-03T12:50:56.313</time></trkpt><trkpt lat="55.9359633" lon="49.1840567"><time>2023-06-03T12:50:58.290</time></trkpt><trkpt lat="55.9359367" lon="49.1839500"><time>2023-06-03T12:51:00.320</time></trkpt><trkpt lat="55.9359183" lon="49.1838550"><time>2023-06-03T12:51:02.317</time></trkpt><trkpt lat="55.9358950" lon="49.1837467"><time>2023-06-03T12:51:04.317</time></trkpt><trkpt lat="55.9358767" lon="49.1836550"><time>2023-06-03T12:51:06.320</time></trkpt><trkpt lat="55.9358633" lon="49.1835400"><time>2023-06-03T12:51:09.317</time></trkpt><trkpt lat="55.9358483" lon="49.1834267"><time>2023-06-03T12:51:12.320</time></trkpt><trkpt lat="55.9358083" lon="49.1832950"><time>2023-06-03T12:51:14.317</time></trkpt><trkpt lat="55.9357883" lon="49.1832167"><time>2023-06-03T12:51:15.317</time></trkpt><trkpt lat="55.9357700" lon="49.1831350"><time>2023-06-03T12:51:16.317</time></trkpt><trkpt lat="55.9357500" lon="49.1830100"><time>2023-06-03T12:51:18.320</time></trkpt><trkpt lat="55.9357250" lon="49.1828817"><time>2023-06-03T12:51:20.317</time></trkpt><trkpt lat="55.9357083" lon="49.1827933"><time>2023-06-03T12:51:22.317</time></trkpt><trkpt lat="55.9356867" lon="49.1827000"><time>2023-06-03T12:51:24.320</time></trkpt><trkpt lat="55.9356550" lon="49.1825750"><time>2023-06-03T12:51:26.317</time></trkpt><trkpt lat="55.9356217" lon="49.1824467"><time>2023-06-03T12:51:28.320</time></trkpt><trkpt lat="55.9355950" lon="49.1823400"><time>2023-06-03T12:51:30.317</time></trkpt><trkpt lat="55.9355700" lon="49.1822300"><time>2023-06-03T12:51:32.317</time></trkpt><trkpt lat="55.9355550" lon="49.1821350"><time>2023-06-03T12:51:34.317</time></trkpt><trkpt lat="55.9355417" lon="49.1820567"><time>2023-06-03T12:51:36.317</time></trkpt><trkpt lat="55.9355283" lon="49.1819767"><time>2023-06-03T12:51:38.297</time></trkpt><trkpt lat="55.9355083" lon="49.1818650"><time>2023-06-03T12:51:40.320</time></trkpt><trkpt lat="55.9354933" lon="49.1817633"><time>2023-06-03T12:51:42.323</time></trkpt><trkpt lat="55.9354783" lon="49.1816767"><time>2023-06-03T12:51:44.320</time></trkpt><trkpt lat="55.9354517" lon="49.1815650"><time>2023-06-03T12:51:46.323</time></trkpt><trkpt lat="55.9354167" lon="49.1814233"><time>2023-06-03T12:51:48.320</time></trkpt><trkpt lat="55.9353917" lon="49.1813450"><time>2023-06-03T12:51:49.317</time></trkpt><trkpt lat="55.9353717" lon="49.1812717"><time>2023-06-03T12:51:50.320</time></trkpt><trkpt lat="55.9353367" lon="49.1811317"><time>2023-06-03T12:51:52.317</time></trkpt><trkpt lat="55.9353183" lon="49.1810567"><time>2023-06-03T12:51:53.317</time></trkpt><trkpt lat="55.9352933" lon="49.1809517"><time>2023-06-03T12:51:55.320</time></trkpt><trkpt lat="55.9352700" lon="49.1808433"><time>2023-06-03T12:51:57.320</time></trkpt><trkpt lat="55.9352450" lon="49.1807083"><time>2023-06-03T12:51:59.317</time></trkpt><trkpt lat="55.9352333" lon="49.1806300"><time>2023-06-03T12:52:00.323</time></trkpt><trkpt lat="55.9352067" lon="49.1804850"><time>2023-06-03T12:52:02.313</time></trkpt><trkpt lat="55.9351750" lon="49.1803467"><time>2023-06-03T12:52:04.317</time></trkpt><trkpt lat="55.9351450" lon="49.1802467"><time>2023-06-03T12:52:06.320</time></trkpt><trkpt lat="55.9351183" lon="49.1801433"><time>2023-06-03T12:52:08.337</time></trkpt><trkpt lat="55.9351183" lon="49.1801433"><time>2023-06-03T12:52:09.303</time></trkpt><trkpt lat="55.9351317" lon="49.1800517"><time>2023-06-03T12:52:13.307</time></trkpt><trkpt lat="55.9351300" lon="49.1799700"><time>2023-06-03T12:52:17.307</time></trkpt><trkpt lat="55.9351133" lon="49.1798900"><time>2023-06-03T12:52:19.307</time></trkpt><trkpt lat="55.9350900" lon="49.1798100"><time>2023-06-03T12:52:22.287</time></trkpt><trkpt lat="55.9350550" lon="49.1796867"><time>2023-06-03T12:52:26.307</time></trkpt><trkpt lat="55.9350217" lon="49.1795833"><time>2023-06-03T12:52:28.310</time></trkpt><trkpt lat="55.9349933" lon="49.1794767"><time>2023-06-03T12:52:33.303</time></trkpt><trkpt lat="55.9349617" lon="49.1793917"><time>2023-06-03T12:52:34.310</time></trkpt><trkpt lat="55.9349333" lon="49.1793067"><time>2023-06-03T12:52:36.310</time></trkpt><trkpt lat="55.9349000" lon="49.1792167"><time>2023-06-03T12:52:38.313</time></trkpt><trkpt lat="55.9348683" lon="49.1791583"><time>2023-06-03T12:52:42.313</time></trkpt><trkpt lat="55.9348250" lon="49.1790867"><time>2023-06-03T12:52:45.310</time></trkpt><trkpt lat="55.9348133" lon="49.1789983"><time>2023-06-03T12:52:48.317</time></trkpt><trkpt lat="55.9348083" lon="49.1789117"><time>2023-06-03T12:52:52.307</time></trkpt><trkpt lat="55.9348133" lon="49.1788183"><time>2023-06-03T12:53:00.320</time></trkpt><trkpt lat="55.9347983" lon="49.1787417"><time>2023-06-03T12:53:06.317</time></trkpt><trkpt lat="55.9348017" lon="49.1786583"><time>2023-06-03T12:53:18.317</time></trkpt><trkpt lat="55.9347650" lon="49.1785750"><time>2023-06-03T12:53:32.323</time></trkpt><trkpt lat="55.9346867" lon="49.1783983"><time>2023-06-03T12:54:05.320</time></trkpt><trkpt lat="55.9346933" lon="49.1782617"><time>2023-06-03T12:54:20.277</time></trkpt><trkpt lat="55.9346617" lon="49.1782017"><time>2023-06-03T12:54:27.313</time></trkpt><trkpt lat="55.9346267" lon="49.1781450"><time>2023-06-03T12:54:34.317</time></trkpt><trkpt lat="55.9346083" lon="49.1780517"><time>2023-06-03T12:54:41.317</time></trkpt><trkpt lat="55.9345883" lon="49.1779750"><time>2023-06-03T12:54:48.317</time></trkpt><trkpt lat="55.9345967" lon="49.1778867"><time>2023-06-03T12:54:57.317</time></trkpt><trkpt lat="55.9346333" lon="49.1777983"><time>2023-06-03T12:55:00.310</time></trkpt><trkpt lat="55.9346617" lon="49.1777250"><time>2023-06-03T12:55:02.317</time></trkpt><trkpt lat="55.9346917" lon="49.1776517"><time>2023-06-03T12:55:04.317</time></trkpt><trkpt lat="55.9347217" lon="49.1775800"><time>2023-06-03T12:55:06.313</time></trkpt><trkpt lat="55.9347483" lon="49.1774983"><time>2023-06-03T12:55:08.307</time></trkpt><trkpt lat="55.9347750" lon="49.1774083"><time>2023-06-03T12:55:10.290</time></trkpt><trkpt lat="55.9348067" lon="49.1773133"><time>2023-06-03T12:55:12.310</time></trkpt><trkpt lat="55.9348300" lon="49.1772433"><time>2023-06-03T12:55:14.287</time></trkpt><trkpt lat="55.9348733" lon="49.1772100"><time>2023-06-03T12:55:19.320</time></trkpt><trkpt lat="55.9349233" lon="49.1772550"><time>2023-06-03T12:55:23.320</time></trkpt><trkpt lat="55.9349833" lon="49.1772533"><time>2023-06-03T12:55:26.320</time></trkpt><trkpt lat="55.9350367" lon="49.1772567"><time>2023-06-03T12:55:29.317</time></trkpt><trkpt lat="55.9350867" lon="49.1772767"><time>2023-06-03T12:55:36.317</time></trkpt><trkpt lat="55.9351350" lon="49.1772833"><time>2023-06-03T12:55:42.320</time></trkpt><trkpt lat="55.9351850" lon="49.1773017"><time>2023-06-03T12:55:45.320</time></trkpt><trkpt lat="55.9352467" lon="49.1773283"><time>2023-06-03T12:55:48.317</time></trkpt><trkpt lat="55.9353000" lon="49.1773433"><time>2023-06-03T12:55:50.317</time></trkpt><trkpt lat="55.9353667" lon="49.1773650"><time>2023-06-03T12:55:52.337</time></trkpt><trkpt lat="55.9353683" lon="49.1773667"><time>2023-06-03T12:55:54.310</time></trkpt><trkpt lat="55.9354117" lon="49.1773950"><time>2023-06-03T12:55:56.307</time></trkpt><trkpt lat="55.9354700" lon="49.1774150"><time>2023-06-03T12:55:59.310</time></trkpt><trkpt lat="55.9355200" lon="49.1774567"><time>2023-06-03T12:56:02.293</time></trkpt><trkpt lat="55.9355750" lon="49.1774617"><time>2023-06-03T12:56:06.303</time></trkpt><trkpt lat="55.9356317" lon="49.1774783"><time>2023-06-03T12:56:10.307</time></trkpt><trkpt lat="55.9356783" lon="49.1774650"><time>2023-06-03T12:56:12.307</time></trkpt><trkpt lat="55.9357200" lon="49.1775017"><time>2023-06-03T12:56:16.307</time></trkpt><trkpt lat="55.9357750" lon="49.1775233"><time>2023-06-03T12:56:19.303</time></trkpt><trkpt lat="55.9358667" lon="49.1775317"><time>2023-06-03T12:56:21.323</time></trkpt><trkpt lat="55.9358617" lon="49.1775683"><time>2023-06-03T12:56:23.280</time></trkpt><trkpt lat="55.9358983" lon="49.1776383"><time>2023-06-03T12:56:24.813</time></trkpt><trkpt lat="55.9359117" lon="49.1777217"><time>2023-06-03T12:56:27.307</time></trkpt><trkpt lat="55.9359850" lon="49.1776467"><time>2023-06-03T12:56:30.280</time></trkpt><trkpt lat="55.9360350" lon="49.1776300"><time>2023-06-03T12:56:35.313</time></trkpt><trkpt lat="55.9360867" lon="49.1776167"><time>2023-06-03T12:56:42.317</time></trkpt><trkpt lat="55.9360867" lon="49.1776167"><time>2023-06-03T12:56:42.357</time></trkpt><trkpt lat="55.9361383" lon="49.1776433"><time>2023-06-03T12:56:45.320</time></trkpt><trkpt lat="55.9361383" lon="49.1776433"><time>2023-06-03T12:56:46.803</time></trkpt><trkpt lat="55.9361817" lon="49.1776083"><time>2023-06-03T12:57:03.313</time></trkpt><trkpt lat="55.9362033" lon="49.1775300"><time>2023-06-03T12:57:07.307</time></trkpt><trkpt lat="55.9361967" lon="49.1774300"><time>2023-06-03T12:57:11.310</time></trkpt><trkpt lat="55.9361550" lon="49.1773767"><time>2023-06-03T12:57:14.310</time></trkpt><trkpt lat="55.9360900" lon="49.1773750"><time>2023-06-03T12:57:17.317</time></trkpt><trkpt lat="55.9360433" lon="49.1773733"><time>2023-06-03T12:57:19.317</time></trkpt><trkpt lat="55.9359867" lon="49.1773667"><time>2023-06-03T12:57:21.310</time></trkpt><trkpt lat="55.9359317" lon="49.1773567"><time>2023-06-03T12:57:23.317</time></trkpt><trkpt lat="55.9358733" lon="49.1773467"><time>2023-06-03T12:57:25.320</time></trkpt><trkpt lat="55.9358217" lon="49.1773300"><time>2023-06-03T12:57:27.313</time></trkpt><trkpt lat="55.9357633" lon="49.1773183"><time>2023-06-03T12:57:29.313</time></trkpt><trkpt lat="55.9356950" lon="49.1772900"><time>2023-06-03T12:57:31.320</time></trkpt><trkpt lat="55.9356200" lon="49.1772600"><time>2023-06-03T12:57:33.277</time></trkpt><trkpt lat="55.9355617" lon="49.1772400"><time>2023-06-03T12:57:35.317</time></trkpt><trkpt lat="55.9354983" lon="49.1772283"><time>2023-06-03T12:57:37.310</time></trkpt><trkpt lat="55.9354417" lon="49.1772117"><time>2023-06-03T12:57:39.317</time></trkpt><trkpt lat="55.9353617" lon="49.1772067"><time>2023-06-03T12:57:41.317</time></trkpt><trkpt lat="55.9353167" lon="49.1771967"><time>2023-06-03T12:57:42.313</time></trkpt><trkpt lat="55.9352650" lon="49.1771850"><time>2023-06-03T12:57:43.313</time></trkpt><trkpt lat="55.9352083" lon="49.1771700"><time>2023-06-03T12:57:45.317</time></trkpt><trkpt lat="55.9351350" lon="49.1771867"><time>2023-06-03T12:57:47.317</time></trkpt><trkpt lat="55.9350600" lon="49.1771850"><time>2023-06-03T12:57:49.313</time></trkpt><trkpt lat="55.9350050" lon="49.1771650"><time>2023-06-03T12:57:51.317</time></trkpt><trkpt lat="55.9349517" lon="49.1771267"><time>2023-06-03T12:57:53.313</time></trkpt><trkpt lat="55.9348950" lon="49.1771117"><time>2023-06-03T12:57:57.313</time></trkpt><trkpt lat="55.9348433" lon="49.1771217"><time>2023-06-03T12:58:00.313</time></trkpt><trkpt lat="55.9347800" lon="49.1771750"><time>2023-06-03T12:58:03.317</time></trkpt><trkpt lat="55.9347400" lon="49.1772817"><time>2023-06-03T12:58:05.317</time></trkpt><trkpt lat="55.9346967" lon="49.1774250"><time>2023-06-03T12:58:07.320</time></trkpt><trkpt lat="55.9346533" lon="49.1775600"><time>2023-06-03T12:58:09.317</time></trkpt><trkpt lat="55.9346283" lon="49.1776383"><time>2023-06-03T12:58:10.313</time></trkpt><trkpt lat="55.9346067" lon="49.1777183"><time>2023-06-03T12:58:11.317</time></trkpt><trkpt lat="55.9345650" lon="49.1778600"><time>2023-06-03T12:58:13.317</time></trkpt><trkpt lat="55.9345417" lon="49.1779383"><time>2023-06-03T12:58:14.317</time></trkpt><trkpt lat="55.9345200" lon="49.1780100"><time>2023-06-03T12:58:15.320</time></trkpt><trkpt lat="55.9345033" lon="49.1780883"><time>2023-06-03T12:58:16.317</time></trkpt><trkpt lat="55.9344917" lon="49.1781733"><time>2023-06-03T12:58:17.317</time></trkpt><trkpt lat="55.9344733" lon="49.1782533"><time>2023-06-03T12:58:18.317</time></trkpt><trkpt lat="55.9344533" lon="49.1783267"><time>2023-06-03T12:58:19.317</time></trkpt><trkpt lat="55.9344350" lon="49.1784033"><time>2023-06-03T12:58:20.317</time></trkpt><trkpt lat="55.9344150" lon="49.1784800"><time>2023-06-03T12:58:21.317</time></trkpt><trkpt lat="55.9343950" lon="49.1785567"><time>2023-06-03T12:58:22.313</time></trkpt><trkpt lat="55.9343733" lon="49.1786433"><time>2023-06-03T12:58:23.310</time></trkpt><trkpt lat="55.9343533" lon="49.1787283"><time>2023-06-03T12:58:24.317</time></trkpt><trkpt lat="55.9343317" lon="49.1788100"><time>2023-06-03T12:58:25.313</time></trkpt><trkpt lat="55.9343117" lon="49.1788933"><time>2023-06-03T12:58:26.317</time></trkpt><trkpt lat="55.9342900" lon="49.1789800"><time>2023-06-03T12:58:27.317</time></trkpt><trkpt lat="55.9342633" lon="49.1790650"><time>2023-06-03T12:58:28.313</time></trkpt><trkpt lat="55.9342383" lon="49.1791467"><time>2023-06-03T12:58:29.317</time></trkpt><trkpt lat="55.9342117" lon="49.1792317"><time>2023-06-03T12:58:30.317</time></trkpt><trkpt lat="55.9341917" lon="49.1793150"><time>2023-06-03T12:58:31.307</time></trkpt><trkpt lat="55.9341683" lon="49.1794050"><time>2023-06-03T12:58:32.317</time></trkpt><trkpt lat="55.9341467" lon="49.1794900"><time>2023-06-03T12:58:33.317</time></trkpt><trkpt lat="55.9341267" lon="49.1795750"><time>2023-06-03T12:58:34.317</time></trkpt><trkpt lat="55.9341067" lon="49.1796583"><time>2023-06-03T12:58:35.320</time></trkpt><trkpt lat="55.9340850" lon="49.1797383"><time>2023-06-03T12:58:36.317</time></trkpt><trkpt lat="55.9340600" lon="49.1798183"><time>2023-06-03T12:58:37.317</time></trkpt><trkpt lat="55.9340367" lon="49.1799000"><time>2023-06-03T12:58:38.317</time></trkpt><trkpt lat="55.9340133" lon="49.1799817"><time>2023-06-03T12:58:39.317</time></trkpt><trkpt lat="55.9339850" lon="49.1800567"><time>2023-06-03T12:58:40.320</time></trkpt><trkpt lat="55.9339633" lon="49.1801283"><time>2023-06-03T12:58:41.313</time></trkpt><trkpt lat="55.9339250" lon="49.1802733"><time>2023-06-03T12:58:43.313</time></trkpt><trkpt lat="55.9339050" lon="49.1803483"><time>2023-06-03T12:58:44.317</time></trkpt><trkpt lat="55.9338817" lon="49.1804233"><time>2023-06-03T12:58:45.313</time></trkpt><trkpt lat="55.9338617" lon="49.1805050"><time>2023-06-03T12:58:46.280</time></trkpt><trkpt lat="55.9338350" lon="49.1805883"><time>2023-06-03T12:58:47.310</time></trkpt><trkpt lat="55.9338100" lon="49.1806833"><time>2023-06-03T12:58:48.313</time></trkpt><trkpt lat="55.9337900" lon="49.1808317"><time>2023-06-03T12:58:50.303</time></trkpt><trkpt lat="55.9337817" lon="49.1809317"><time>2023-06-03T12:58:51.310</time></trkpt><trkpt lat="55.9337650" lon="49.1810150"><time>2023-06-03T12:58:52.317</time></trkpt><trkpt lat="55.9337467" lon="49.1811100"><time>2023-06-03T12:58:53.317</time></trkpt><trkpt lat="55.9337217" lon="49.1812083"><time>2023-06-03T12:58:54.317</time></trkpt><trkpt lat="55.9336967" lon="49.1813067"><time>2023-06-03T12:58:55.320</time></trkpt><trkpt lat="55.9336817" lon="49.1814017"><time>2023-06-03T12:58:56.310</time></trkpt><trkpt lat="55.9336600" lon="49.1814917"><time>2023-06-03T12:58:57.317</time></trkpt><trkpt lat="55.9336333" lon="49.1815900"><time>2023-06-03T12:58:58.313</time></trkpt><trkpt lat="55.9336050" lon="49.1816917"><time>2023-06-03T12:58:59.317</time></trkpt><trkpt lat="55.9335767" lon="49.1817967"><time>2023-06-03T12:59:00.320</time></trkpt><trkpt lat="55.9335517" lon="49.1819033"><time>2023-06-03T12:59:01.317</time></trkpt><trkpt lat="55.9335267" lon="49.1820117"><time>2023-06-03T12:59:02.317</time></trkpt><trkpt lat="55.9334983" lon="49.1821233"><time>2023-06-03T12:59:03.320</time></trkpt><trkpt lat="55.9334717" lon="49.1822333"><time>2023-06-03T12:59:04.317</time></trkpt><trkpt lat="55.9334433" lon="49.1823467"><time>2023-06-03T12:59:05.310</time></trkpt><trkpt lat="55.9334150" lon="49.1824567"><time>2023-06-03T12:59:06.313</time></trkpt><trkpt lat="55.9333850" lon="49.1825683"><time>2023-06-03T12:59:07.317</time></trkpt><trkpt lat="55.9333567" lon="49.1826867"><time>2023-06-03T12:59:08.313</time></trkpt><trkpt lat="55.9333250" lon="49.1827983"><time>2023-06-03T12:59:09.317</time></trkpt><trkpt lat="55.9332917" lon="49.1829050"><time>2023-06-03T12:59:10.310</time></trkpt><trkpt lat="55.9332717" lon="49.1829933"><time>2023-06-03T12:59:11.317</time></trkpt><trkpt lat="55.9332517" lon="49.1830800"><time>2023-06-03T12:59:12.317</time></trkpt><trkpt lat="55.9332283" lon="49.1831717"><time>2023-06-03T12:59:13.317</time></trkpt><trkpt lat="55.9332000" lon="49.1832700"><time>2023-06-03T12:59:14.317</time></trkpt><trkpt lat="55.9331833" lon="49.1833700"><time>2023-06-03T12:59:15.317</time></trkpt><trkpt lat="55.9331700" lon="49.1834667"><time>2023-06-03T12:59:16.317</time></trkpt><trkpt lat="55.9331533" lon="49.1835583"><time>2023-06-03T12:59:17.317</time></trkpt><trkpt lat="55.9331317" lon="49.1836617"><time>2023-06-03T12:59:18.317</time></trkpt><trkpt lat="55.9331100" lon="49.1837717"><time>2023-06-03T12:59:19.323</time></trkpt><trkpt lat="55.9330900" lon="49.1838850"><time>2023-06-03T12:59:20.317</time></trkpt><trkpt lat="55.9330633" lon="49.1839883"><time>2023-06-03T12:59:21.320</time></trkpt><trkpt lat="55.9330367" lon="49.1840917"><time>2023-06-03T12:59:22.317</time></trkpt><trkpt lat="55.9330117" lon="49.1842050"><time>2023-06-03T12:59:23.320</time></trkpt><trkpt lat="55.9329833" lon="49.1843133"><time>2023-06-03T12:59:24.317</time></trkpt><trkpt lat="55.9329533" lon="49.1844167"><time>2023-06-03T12:59:25.317</time></trkpt><trkpt lat="55.9329233" lon="49.1845083"><time>2023-06-03T12:59:26.317</time></trkpt><trkpt lat="55.9328983" lon="49.1846100"><time>2023-06-03T12:59:27.317</time></trkpt><trkpt lat="55.9328767" lon="49.1847217"><time>2023-06-03T12:59:28.317</time></trkpt><trkpt lat="55.9328483" lon="49.1848167"><time>2023-06-03T12:59:29.317</time></trkpt><trkpt lat="55.9328217" lon="49.1849217"><time>2023-06-03T12:59:30.317</time></trkpt><trkpt lat="55.9327983" lon="49.1850267"><time>2023-06-03T12:59:31.317</time></trkpt><trkpt lat="55.9327783" lon="49.1851250"><time>2023-06-03T12:59:32.313</time></trkpt><trkpt lat="55.9327617" lon="49.1852183"><time>2023-06-03T12:59:33.317</time></trkpt><trkpt lat="55.9327467" lon="49.1853133"><time>2023-06-03T12:59:34.317</time></trkpt><trkpt lat="55.9327283" lon="49.1854200"><time>2023-06-03T12:59:35.317</time></trkpt><trkpt lat="55.9327083" lon="49.1855283"><time>2023-06-03T12:59:36.317</time></trkpt><trkpt lat="55.9326867" lon="49.1856200"><time>2023-06-03T12:59:37.320</time></trkpt><trkpt lat="55.9326600" lon="49.1857100"><time>2023-06-03T12:59:38.307</time></trkpt><trkpt lat="55.9326417" lon="49.1858100"><time>2023-06-03T12:59:39.317</time></trkpt><trkpt lat="55.9326217" lon="49.1859133"><time>2023-06-03T12:59:40.313</time></trkpt><trkpt lat="55.9325967" lon="49.1860200"><time>2023-06-03T12:59:41.317</time></trkpt><trkpt lat="55.9325750" lon="49.1861267"><time>2023-06-03T12:59:42.317</time></trkpt><trkpt lat="55.9325500" lon="49.1862300"><time>2023-06-03T12:59:43.320</time></trkpt><trkpt lat="55.9325267" lon="49.1863350"><time>2023-06-03T12:59:44.317</time></trkpt><trkpt lat="55.9324967" lon="49.1864317"><time>2023-06-03T12:59:45.320</time></trkpt><trkpt lat="55.9324800" lon="49.1865200"><time>2023-06-03T12:59:46.317</time></trkpt><trkpt lat="55.9324517" lon="49.1866083"><time>2023-06-03T12:59:47.320</time></trkpt><trkpt lat="55.9324250" lon="49.1866883"><time>2023-06-03T12:59:48.317</time></trkpt><trkpt lat="55.9323967" lon="49.1867700"><time>2023-06-03T12:59:49.317</time></trkpt><trkpt lat="55.9323683" lon="49.1868567"><time>2023-06-03T12:59:50.317</time></trkpt><trkpt lat="55.9323433" lon="49.1869533"><time>2023-06-03T12:59:51.317</time></trkpt><trkpt lat="55.9323183" lon="49.1870600"><time>2023-06-03T12:59:52.317</time></trkpt><trkpt lat="55.9322950" lon="49.1871783"><time>2023-06-03T12:59:53.313</time></trkpt><trkpt lat="55.9322717" lon="49.1872967"><time>2023-06-03T12:59:54.317</time></trkpt><trkpt lat="55.9322483" lon="49.1874067"><time>2023-06-03T12:59:55.317</time></trkpt><trkpt lat="55.9322250" lon="49.1875233"><time>2023-06-03T12:59:56.320</time></trkpt><trkpt lat="55.9322033" lon="49.1876483"><time>2023-06-03T12:59:57.317</time></trkpt><trkpt lat="55.9321833" lon="49.1877750"><time>2023-06-03T12:59:58.317</time></trkpt><trkpt lat="55.9321633" lon="49.1878900"><time>2023-06-03T12:59:59.317</time></trkpt><trkpt lat="55.9321400" lon="49.1879850"><time>2023-06-03T13:00:00.320</time></trkpt><trkpt lat="55.9321167" lon="49.1880683"><time>2023-06-03T13:00:01.320</time></trkpt><trkpt lat="55.9320950" lon="49.1881583"><time>2023-06-03T13:00:02.317</time></trkpt><trkpt lat="55.9320633" lon="49.1882367"><time>2023-06-03T13:00:03.320</time></trkpt><trkpt lat="55.9320333" lon="49.1883817"><time>2023-06-03T13:00:04.317</time></trkpt><trkpt lat="55.9319983" lon="49.1884883"><time>2023-06-03T13:00:05.317</time></trkpt><trkpt lat="55.9319833" lon="49.1885833"><time>2023-06-03T13:00:06.317</time></trkpt><trkpt lat="55.9319600" lon="49.1886967"><time>2023-06-03T13:00:07.317</time></trkpt><trkpt lat="55.9319367" lon="49.1888000"><time>2023-06-03T13:00:08.320</time></trkpt><trkpt lat="55.9319150" lon="49.1888950"><time>2023-06-03T13:00:09.317</time></trkpt><trkpt lat="55.9318900" lon="49.1890233"><time>2023-06-03T13:00:10.310</time></trkpt><trkpt lat="55.9318700" lon="49.1891533"><time>2023-06-03T13:00:11.310</time></trkpt><trkpt lat="55.9318533" lon="49.1892683"><time>2023-06-03T13:00:12.313</time></trkpt><trkpt lat="55.9318367" lon="49.1893867"><time>2023-06-03T13:00:13.313</time></trkpt><trkpt lat="55.9318133" lon="49.1894983"><time>2023-06-03T13:00:14.317</time></trkpt><trkpt lat="55.9317850" lon="49.1896133"><time>2023-06-03T13:00:15.320</time></trkpt><trkpt lat="55.9317667" lon="49.1897283"><time>2023-06-03T13:00:16.320</time></trkpt><trkpt lat="55.9317500" lon="49.1898517"><time>2023-06-03T13:00:17.317</time></trkpt><trkpt lat="55.9317183" lon="49.1899667"><time>2023-06-03T13:00:18.303</time></trkpt><trkpt lat="55.9316817" lon="49.1900283"><time>2023-06-03T13:00:19.313</time></trkpt><trkpt lat="55.9316700" lon="49.1901117"><time>2023-06-03T13:00:20.313</time></trkpt><trkpt lat="55.9316400" lon="49.1901883"><time>2023-06-03T13:00:21.310</time></trkpt><trkpt lat="55.9316150" lon="49.1902733"><time>2023-06-03T13:00:22.317</time></trkpt><trkpt lat="55.9315833" lon="49.1903683"><time>2023-06-03T13:00:23.317</time></trkpt><trkpt lat="55.9315550" lon="49.1904650"><time>2023-06-03T13:00:24.317</time></trkpt><trkpt lat="55.9315200" lon="49.1905500"><time>2023-06-03T13:00:25.317</time></trkpt><trkpt lat="55.9314867" lon="49.1906367"><time>2023-06-03T13:00:26.317</time></trkpt><trkpt lat="55.9314483" lon="49.1907217"><time>2023-06-03T13:00:27.313</time></trkpt><trkpt lat="55.9314183" lon="49.1908017"><time>2023-06-03T13:00:28.313</time></trkpt><trkpt lat="55.9313867" lon="49.1908717"><time>2023-06-03T13:00:29.313</time></trkpt><trkpt lat="55.9313500" lon="49.1909617"><time>2023-06-03T13:00:30.297</time></trkpt><trkpt lat="55.9313183" lon="49.1910267"><time>2023-06-03T13:00:31.317</time></trkpt><trkpt lat="55.9312817" lon="49.1910933"><time>2023-06-03T13:00:32.317</time></trkpt><trkpt lat="55.9312433" lon="49.1911683"><time>2023-06-03T13:00:33.317</time></trkpt><trkpt lat="55.9312033" lon="49.1912533"><time>2023-06-03T13:00:34.303</time></trkpt><trkpt lat="55.9311683" lon="49.1913450"><time>2023-06-03T13:00:35.310</time></trkpt><trkpt lat="55.9311283" lon="49.1914350"><time>2023-06-03T13:00:36.317</time></trkpt><trkpt lat="55.9310783" lon="49.1915567"><time>2023-06-03T13:00:37.317</time></trkpt><trkpt lat="55.9310250" lon="49.1916567"><time>2023-06-03T13:00:38.307</time></trkpt><trkpt lat="55.9309800" lon="49.1917550"><time>2023-06-03T13:00:39.317</time></trkpt><trkpt lat="55.9309117" lon="49.1918833"><time>2023-06-03T13:00:41.317</time></trkpt><trkpt lat="55.9308783" lon="49.1919700"><time>2023-06-03T13:00:42.317</time></trkpt><trkpt lat="55.9308317" lon="49.1920417"><time>2023-06-03T13:00:43.313</time></trkpt><trkpt lat="55.9307900" lon="49.1921133"><time>2023-06-03T13:00:44.317</time></trkpt><trkpt lat="55.9307417" lon="49.1921650"><time>2023-06-03T13:00:45.317</time></trkpt><trkpt lat="55.9306850" lon="49.1922083"><time>2023-06-03T13:00:46.313</time></trkpt><trkpt lat="55.9306133" lon="49.1922900"><time>2023-06-03T13:00:47.317</time></trkpt><trkpt lat="55.9305467" lon="49.1923167"><time>2023-06-03T13:00:48.313</time></trkpt><trkpt lat="55.9304817" lon="49.1923650"><time>2023-06-03T13:00:49.317</time></trkpt><trkpt lat="55.9304117" lon="49.1924017"><time>2023-06-03T13:00:50.310</time></trkpt><trkpt lat="55.9303500" lon="49.1924400"><time>2023-06-03T13:00:51.317</time></trkpt><trkpt lat="55.9302867" lon="49.1924967"><time>2023-06-03T13:00:52.317</time></trkpt><trkpt lat="55.9302350" lon="49.1925400"><time>2023-06-03T13:00:53.317</time></trkpt><trkpt lat="55.9301800" lon="49.1925917"><time>2023-06-03T13:00:54.317</time></trkpt><trkpt lat="55.9301133" lon="49.1926317"><time>2023-06-03T13:00:55.317</time></trkpt><trkpt lat="55.9300450" lon="49.1926717"><time>2023-06-03T13:00:56.317</time></trkpt><trkpt lat="55.9299800" lon="49.1927133"><time>2023-06-03T13:00:57.320</time></trkpt><trkpt lat="55.9299133" lon="49.1927633"><time>2023-06-03T13:00:58.317</time></trkpt><trkpt lat="55.9298400" lon="49.1928133"><time>2023-06-03T13:00:59.317</time></trkpt><trkpt lat="55.9297633" lon="49.1928683"><time>2023-06-03T13:01:00.317</time></trkpt><trkpt lat="55.9296817" lon="49.1929267"><time>2023-06-03T13:01:01.317</time></trkpt><trkpt lat="55.9295900" lon="49.1929800"><time>2023-06-03T13:01:02.317</time></trkpt><trkpt lat="55.9295017" lon="49.1930317"><time>2023-06-03T13:01:03.317</time></trkpt><trkpt lat="55.9294100" lon="49.1930917"><time>2023-06-03T13:01:04.317</time></trkpt><trkpt lat="55.9293400" lon="49.1931217"><time>2023-06-03T13:01:05.317</time></trkpt><trkpt lat="55.9292617" lon="49.1931683"><time>2023-06-03T13:01:06.320</time></trkpt><trkpt lat="55.9291800" lon="49.1932100"><time>2023-06-03T13:01:07.317</time></trkpt><trkpt lat="55.9290950" lon="49.1932500"><time>2023-06-03T13:01:08.317</time></trkpt><trkpt lat="55.9290100" lon="49.1933000"><time>2023-06-03T13:01:09.313</time></trkpt><trkpt lat="55.9289267" lon="49.1933550"><time>2023-06-03T13:01:10.313</time></trkpt><trkpt lat="55.9288483" lon="49.1934033"><time>2023-06-03T13:01:11.320</time></trkpt><trkpt lat="55.9287700" lon="49.1934483"><time>2023-06-03T13:01:12.317</time></trkpt><trkpt lat="55.9286917" lon="49.1935050"><time>2023-06-03T13:01:13.317</time></trkpt><trkpt lat="55.9286150" lon="49.1935600"><time>2023-06-03T13:01:14.313</time></trkpt><trkpt lat="55.9285533" lon="49.1935950"><time>2023-06-03T13:01:15.317</time></trkpt><trkpt lat="55.9284800" lon="49.1936450"><time>2023-06-03T13:01:16.317</time></trkpt><trkpt lat="55.9284033" lon="49.1936967"><time>2023-06-03T13:01:17.317</time></trkpt><trkpt lat="55.9283233" lon="49.1937500"><time>2023-06-03T13:01:18.317</time></trkpt><trkpt lat="55.9282467" lon="49.1938017"><time>2023-06-03T13:01:19.313</time></trkpt><trkpt lat="55.9281717" lon="49.1938567"><time>2023-06-03T13:01:20.313</time></trkpt><trkpt lat="55.9281017" lon="49.1939133"><time>2023-06-03T13:01:21.317</time></trkpt><trkpt lat="55.9280333" lon="49.1939733"><time>2023-06-03T13:01:22.317</time></trkpt><trkpt lat="55.9279517" lon="49.1940450"><time>2023-06-03T13:01:23.310</time></trkpt><trkpt lat="55.9278683" lon="49.1941450"><time>2023-06-03T13:01:24.313</time></trkpt><trkpt lat="55.9277800" lon="49.1942317"><time>2023-06-03T13:01:25.313</time></trkpt><trkpt lat="55.9277033" lon="49.1942900"><time>2023-06-03T13:01:26.317</time></trkpt><trkpt lat="55.9276383" lon="49.1943150"><time>2023-06-03T13:01:27.317</time></trkpt><trkpt lat="55.9275850" lon="49.1943333"><time>2023-06-03T13:01:28.317</time></trkpt><trkpt lat="55.9275300" lon="49.1943533"><time>2023-06-03T13:01:29.317</time></trkpt><trkpt lat="55.9274750" lon="49.1943783"><time>2023-06-03T13:01:30.320</time></trkpt><trkpt lat="55.9274267" lon="49.1944133"><time>2023-06-03T13:01:31.317</time></trkpt><trkpt lat="55.9273833" lon="49.1944583"><time>2023-06-03T13:01:32.317</time></trkpt><trkpt lat="55.9273383" lon="49.1945150"><time>2023-06-03T13:01:33.283</time></trkpt><trkpt lat="55.9272850" lon="49.1945817"><time>2023-06-03T13:01:34.303</time></trkpt><trkpt lat="55.9272400" lon="49.1946250"><time>2023-06-03T13:01:35.313</time></trkpt><trkpt lat="55.9271967" lon="49.1946633"><time>2023-06-03T13:01:36.317</time></trkpt><trkpt lat="55.9271517" lon="49.1947067"><time>2023-06-03T13:01:37.313</time></trkpt><trkpt lat="55.9271067" lon="49.1947517"><time>2023-06-03T13:01:38.317</time></trkpt><trkpt lat="55.9270600" lon="49.1947850"><time>2023-06-03T13:01:39.317</time></trkpt><trkpt lat="55.9269883" lon="49.1948117"><time>2023-06-03T13:01:41.320</time></trkpt><trkpt lat="55.9269150" lon="49.1948550"><time>2023-06-03T13:01:43.313</time></trkpt><trkpt lat="55.9268400" lon="49.1948917"><time>2023-06-03T13:01:45.313</time></trkpt><trkpt lat="55.9267650" lon="49.1949450"><time>2023-06-03T13:01:47.300</time></trkpt><trkpt lat="55.9267250" lon="49.1949850"><time>2023-06-03T13:01:48.313</time></trkpt><trkpt lat="55.9266817" lon="49.1950200"><time>2023-06-03T13:01:49.317</time></trkpt><trkpt lat="55.9266383" lon="49.1950567"><time>2023-06-03T13:01:50.303</time></trkpt><trkpt lat="55.9265900" lon="49.1950933"><time>2023-06-03T13:01:51.313</time></trkpt><trkpt lat="55.9265383" lon="49.1951283"><time>2023-06-03T13:01:52.313</time></trkpt><trkpt lat="55.9264917" lon="49.1951583"><time>2023-06-03T13:01:53.313</time></trkpt><trkpt lat="55.9264267" lon="49.1951617"><time>2023-06-03T13:01:55.317</time></trkpt><trkpt lat="55.9263817" lon="49.1951883"><time>2023-06-03T13:01:56.317</time></trkpt><trkpt lat="55.9263133" lon="49.1952133"><time>2023-06-03T13:01:58.317</time></trkpt><trkpt lat="55.9262417" lon="49.1952567"><time>2023-06-03T13:02:00.317</time></trkpt><trkpt lat="55.9261617" lon="49.1952950"><time>2023-06-03T13:02:02.317</time></trkpt><trkpt lat="55.9261117" lon="49.1953217"><time>2023-06-03T13:02:03.320</time></trkpt><trkpt lat="55.9260600" lon="49.1953483"><time>2023-06-03T13:02:04.320</time></trkpt><trkpt lat="55.9260150" lon="49.1953550"><time>2023-06-03T13:02:05.317</time></trkpt><trkpt lat="55.9259433" lon="49.1953317"><time>2023-06-03T13:02:07.317</time></trkpt><trkpt lat="55.9258967" lon="49.1952800"><time>2023-06-03T13:02:09.320</time></trkpt><trkpt lat="55.9258233" lon="49.1952267"><time>2023-06-03T13:02:11.320</time></trkpt><trkpt lat="55.9257483" lon="49.1951700"><time>2023-06-03T13:02:13.317</time></trkpt><trkpt lat="55.9256817" lon="49.1951083"><time>2023-06-03T13:02:15.317</time></trkpt><trkpt lat="55.9256317" lon="49.1950500"><time>2023-06-03T13:02:17.317</time></trkpt><trkpt lat="55.9255867" lon="49.1949800"><time>2023-06-03T13:02:19.317</time></trkpt><trkpt lat="55.9255483" lon="49.1948883"><time>2023-06-03T13:02:21.317</time></trkpt><trkpt lat="55.9254933" lon="49.1948200"><time>2023-06-03T13:02:23.317</time></trkpt><trkpt lat="55.9254467" lon="49.1947650"><time>2023-06-03T13:02:25.317</time></trkpt><trkpt lat="55.9253867" lon="49.1947067"><time>2023-06-03T13:02:27.320</time></trkpt><trkpt lat="55.9253033" lon="49.1946600"><time>2023-06-03T13:02:29.320</time></trkpt><trkpt lat="55.9252600" lon="49.1946083"><time>2023-06-03T13:02:31.320</time></trkpt><trkpt lat="55.9252183" lon="49.1945583"><time>2023-06-03T13:02:34.320</time></trkpt><trkpt lat="55.9251633" lon="49.1945000"><time>2023-06-03T13:02:36.313</time></trkpt><trkpt lat="55.9251383" lon="49.1944250"><time>2023-06-03T13:02:38.317</time></trkpt><trkpt lat="55.9251617" lon="49.1943300"><time>2023-06-03T13:02:40.317</time></trkpt><trkpt lat="55.9251617" lon="49.1942367"><time>2023-06-03T13:02:42.320</time></trkpt><trkpt lat="55.9251683" lon="49.1941533"><time>2023-06-03T13:02:44.320</time></trkpt><trkpt lat="55.9251767" lon="49.1940533"><time>2023-06-03T13:02:46.320</time></trkpt><trkpt lat="55.9251867" lon="49.1939450"><time>2023-06-03T13:02:48.317</time></trkpt><trkpt lat="55.9251900" lon="49.1938467"><time>2023-06-03T13:02:50.317</time></trkpt><trkpt lat="55.9251933" lon="49.1937533"><time>2023-06-03T13:02:52.317</time></trkpt><trkpt lat="55.9251983" lon="49.1936717"><time>2023-06-03T13:02:54.323</time></trkpt><trkpt lat="55.9252000" lon="49.1935683"><time>2023-06-03T13:02:56.317</time></trkpt><trkpt lat="55.9252117" lon="49.1934600"><time>2023-06-03T13:02:58.313</time></trkpt><trkpt lat="55.9252367" lon="49.1933317"><time>2023-06-03T13:03:00.317</time></trkpt><trkpt lat="55.9252433" lon="49.1932167"><time>2023-06-03T13:03:02.317</time></trkpt><trkpt lat="55.9252317" lon="49.1931100"><time>2023-06-03T13:03:04.317</time></trkpt><trkpt lat="55.9252250" lon="49.1929917"><time>2023-06-03T13:03:06.313</time></trkpt><trkpt lat="55.9252117" lon="49.1928850"><time>2023-06-03T13:03:08.317</time></trkpt><trkpt lat="55.9252050" lon="49.1927933"><time>2023-06-03T13:03:10.317</time></trkpt><trkpt lat="55.9251983" lon="49.1927017"><time>2023-06-03T13:03:12.320</time></trkpt><trkpt lat="55.9252100" lon="49.1925750"><time>2023-06-03T13:03:14.313</time></trkpt><trkpt lat="55.9252167" lon="49.1924483"><time>2023-06-03T13:03:16.313</time></trkpt><trkpt lat="55.9252133" lon="49.1923017"><time>2023-06-03T13:03:19.320</time></trkpt><trkpt lat="55.9252200" lon="49.1922117"><time>2023-06-03T13:03:21.317</time></trkpt><trkpt lat="55.9252400" lon="49.1920767"><time>2023-06-03T13:03:24.317</time></trkpt><trkpt lat="55.9252483" lon="49.1919817"><time>2023-06-03T13:03:26.317</time></trkpt><trkpt lat="55.9252517" lon="49.1919017"><time>2023-06-03T13:03:28.317</time></trkpt><trkpt lat="55.9252583" lon="49.1918083"><time>2023-06-03T13:03:30.317</time></trkpt><trkpt lat="55.9252750" lon="49.1917033"><time>2023-06-03T13:03:32.317</time></trkpt><trkpt lat="55.9252833" lon="49.1916083"><time>2023-06-03T13:03:34.317</time></trkpt><trkpt lat="55.9253000" lon="49.1915183"><time>2023-06-03T13:03:36.317</time></trkpt><trkpt lat="55.9253033" lon="49.1914283"><time>2023-06-03T13:03:38.317</time></trkpt><trkpt lat="55.9252867" lon="49.1913317"><time>2023-06-03T13:03:40.317</time></trkpt><trkpt lat="55.9252900" lon="49.1912467"><time>2023-06-03T13:03:42.320</time></trkpt><trkpt lat="55.9253033" lon="49.1911650"><time>2023-06-03T13:03:44.300</time></trkpt><trkpt lat="55.9253083" lon="49.1910567"><time>2023-06-03T13:03:47.337</time></trkpt><trkpt lat="55.9253050" lon="49.1910983"><time>2023-06-03T13:03:48.833</time></trkpt><trkpt lat="55.9253217" lon="49.1910000"><time>2023-06-03T13:03:50.247</time></trkpt><trkpt lat="55.9252900" lon="49.1908933"><time>2023-06-03T13:03:51.730</time></trkpt><trkpt lat="55.9252467" lon="49.1907533"><time>2023-06-03T13:03:52.200</time></trkpt><trkpt lat="55.9252600" lon="49.1906500"><time>2023-06-03T13:03:54.307</time></trkpt><trkpt lat="55.9253150" lon="49.1906617"><time>2023-06-03T13:03:55.307</time></trkpt><trkpt lat="55.9253133" lon="49.1905767"><time>2023-06-03T13:03:57.307</time></trkpt><trkpt lat="55.9253050" lon="49.1904600"><time>2023-06-03T13:03:59.307</time></trkpt><trkpt lat="55.9253033" lon="49.1903650"><time>2023-06-03T13:04:02.307</time></trkpt><trkpt lat="55.9253067" lon="49.1902583"><time>2023-06-03T13:04:05.287</time></trkpt><trkpt lat="55.9253200" lon="49.1901817"><time>2023-06-03T13:04:07.307</time></trkpt><trkpt lat="55.9253067" lon="49.1900767"><time>2023-06-03T13:04:14.310</time></trkpt><trkpt lat="55.9253150" lon="49.1899867"><time>2023-06-03T13:04:26.320</time></trkpt><trkpt lat="55.9253233" lon="49.1898950"><time>2023-06-03T13:04:30.313</time></trkpt><trkpt lat="55.9253467" lon="49.1898167"><time>2023-06-03T13:04:36.310</time></trkpt><trkpt lat="55.9253350" lon="49.1897233"><time>2023-06-03T13:04:41.310</time></trkpt><trkpt lat="55.9253383" lon="49.1896367"><time>2023-06-03T13:04:46.317</time></trkpt><trkpt lat="55.9253450" lon="49.1895383"><time>2023-06-03T13:04:51.320</time></trkpt><trkpt lat="55.9253667" lon="49.1894433"><time>2023-06-03T13:04:56.327</time></trkpt><trkpt lat="55.9253633" lon="49.1894050"><time>2023-06-03T13:04:59.810</time></trkpt><trkpt lat="55.9253367" lon="49.1893133"><time>2023-06-03T13:05:04.307</time></trkpt><trkpt lat="55.9253417" lon="49.1892333"><time>2023-06-03T13:05:06.303</time></trkpt><trkpt lat="55.9253683" lon="49.1891583"><time>2023-06-03T13:05:14.307</time></trkpt><trkpt lat="55.9253267" lon="49.1890700"><time>2023-06-03T13:05:19.310</time></trkpt><trkpt lat="55.9253483" lon="49.1889983"><time>2023-06-03T13:05:28.313</time></trkpt><trkpt lat="55.9253750" lon="49.1889117"><time>2023-06-03T13:05:33.317</time></trkpt><trkpt lat="55.9254000" lon="49.1888283"><time>2023-06-03T13:05:36.317</time></trkpt><trkpt lat="55.9254167" lon="49.1887517"><time>2023-06-03T13:05:39.317</time></trkpt><trkpt lat="55.9254267" lon="49.1886517"><time>2023-06-03T13:05:42.337</time></trkpt><trkpt lat="55.9254250" lon="49.1886467"><time>2023-06-03T13:05:44.317</time></trkpt><trkpt lat="55.9254267" lon="49.1885550"><time>2023-06-03T13:05:49.323</time></trkpt><trkpt lat="55.9254450" lon="49.1884717"><time>2023-06-03T13:05:52.280</time></trkpt><trkpt lat="55.9254383" lon="49.1883783"><time>2023-06-03T13:05:55.303</time></trkpt><trkpt lat="55.9254467" lon="49.1882867"><time>2023-06-03T13:05:59.307</time></trkpt><trkpt lat="55.9254667" lon="49.1881100"><time>2023-06-03T13:06:03.323</time></trkpt><trkpt lat="55.9254667" lon="49.1881100"><time>2023-06-03T13:06:03.357</time></trkpt><trkpt lat="55.9254300" lon="49.1880033"><time>2023-06-03T13:06:05.327</time></trkpt><trkpt lat="55.9254300" lon="49.1880033"><time>2023-06-03T13:06:06.297</time></trkpt><trkpt lat="55.9254233" lon="49.1881017"><time>2023-06-03T13:06:17.310</time></trkpt><trkpt lat="55.9254183" lon="49.1881917"><time>2023-06-03T13:06:23.303</time></trkpt><trkpt lat="55.9254150" lon="49.1882750"><time>2023-06-03T13:06:26.300</time></trkpt><trkpt lat="55.9254117" lon="49.1883683"><time>2023-06-03T13:06:29.310</time></trkpt><trkpt lat="55.9254150" lon="49.1884833"><time>2023-06-03T13:06:32.310</time></trkpt><trkpt lat="55.9254133" lon="49.1885733"><time>2023-06-03T13:06:34.317</time></trkpt><trkpt lat="55.9254117" lon="49.1886533"><time>2023-06-03T13:06:36.320</time></trkpt><trkpt lat="55.9254100" lon="49.1887400"><time>2023-06-03T13:06:38.307</time></trkpt><trkpt lat="55.9254133" lon="49.1888267"><time>2023-06-03T13:06:40.317</time></trkpt><trkpt lat="55.9254083" lon="49.1889100"><time>2023-06-03T13:06:42.317</time></trkpt><trkpt lat="55.9254033" lon="49.1890067"><time>2023-06-03T13:06:44.317</time></trkpt><trkpt lat="55.9253917" lon="49.1891217"><time>2023-06-03T13:06:46.320</time></trkpt><trkpt lat="55.9253850" lon="49.1892333"><time>2023-06-03T13:06:48.320</time></trkpt><trkpt lat="55.9253800" lon="49.1893400"><time>2023-06-03T13:06:50.317</time></trkpt><trkpt lat="55.9253700" lon="49.1894250"><time>2023-06-03T13:06:52.320</time></trkpt><trkpt lat="55.9253633" lon="49.1895217"><time>2023-06-03T13:06:54.320</time></trkpt><trkpt lat="55.9253583" lon="49.1896050"><time>2023-06-03T13:06:56.317</time></trkpt><trkpt lat="55.9253517" lon="49.1896883"><time>2023-06-03T13:06:59.320</time></trkpt><trkpt lat="55.9253133" lon="49.1897633"><time>2023-06-03T13:07:04.320</time></trkpt><trkpt lat="55.9253000" lon="49.1898450"><time>2023-06-03T13:07:07.320</time></trkpt><trkpt lat="55.9252917" lon="49.1899250"><time>2023-06-03T13:07:10.320</time></trkpt><trkpt lat="55.9252933" lon="49.1900083"><time>2023-06-03T13:07:13.317</time></trkpt><trkpt lat="55.9252917" lon="49.1901017"><time>2023-06-03T13:07:18.317</time></trkpt><trkpt lat="55.9253050" lon="49.1902317"><time>2023-06-03T13:07:49.317</time></trkpt><trkpt lat="55.9252917" lon="49.1903317"><time>2023-06-03T13:07:53.320</time></trkpt><trkpt lat="55.9252783" lon="49.1904200"><time>2023-06-03T13:07:55.320</time></trkpt><trkpt lat="55.9252650" lon="49.1905283"><time>2023-06-03T13:07:58.323</time></trkpt><trkpt lat="55.9252583" lon="49.1906367"><time>2023-06-03T13:08:01.320</time></trkpt><trkpt lat="55.9252583" lon="49.1907217"><time>2023-06-03T13:08:03.317</time></trkpt><trkpt lat="55.9252583" lon="49.1908183"><time>2023-06-03T13:08:05.320</time></trkpt><trkpt lat="55.9252533" lon="49.1909167"><time>2023-06-03T13:08:07.320</time></trkpt><trkpt lat="55.9252483" lon="49.1910017"><time>2023-06-03T13:08:09.320</time></trkpt><trkpt lat="55.9252500" lon="49.1910933"><time>2023-06-03T13:08:11.323</time></trkpt><trkpt lat="55.9252550" lon="49.1911750"><time>2023-06-03T13:08:13.323</time></trkpt><trkpt lat="55.9252483" lon="49.1912650"><time>2023-06-03T13:08:15.320</time></trkpt><trkpt lat="55.9252483" lon="49.1913733"><time>2023-06-03T13:08:17.320</time></trkpt><trkpt lat="55.9252450" lon="49.1914567"><time>2023-06-03T13:08:19.310</time></trkpt><trkpt lat="55.9252300" lon="49.1915450"><time>2023-06-03T13:08:21.320</time></trkpt><trkpt lat="55.9252217" lon="49.1916417"><time>2023-06-03T13:08:23.317</time></trkpt><trkpt lat="55.9252150" lon="49.1917333"><time>2023-06-03T13:08:25.323</time></trkpt><trkpt lat="55.9252133" lon="49.1918400"><time>2023-06-03T13:08:27.317</time></trkpt><trkpt lat="55.9252033" lon="49.1919817"><time>2023-06-03T13:08:29.317</time></trkpt><trkpt lat="55.9251967" lon="49.1921133"><time>2023-06-03T13:08:31.317</time></trkpt><trkpt lat="55.9251883" lon="49.1922283"><time>2023-06-03T13:08:33.320</time></trkpt><trkpt lat="55.9251800" lon="49.1923333"><time>2023-06-03T13:08:35.320</time></trkpt><trkpt lat="55.9251700" lon="49.1924433"><time>2023-06-03T13:08:37.317</time></trkpt><trkpt lat="55.9251717" lon="49.1925367"><time>2023-06-03T13:08:39.323</time></trkpt><trkpt lat="55.9251750" lon="49.1926417"><time>2023-06-03T13:08:41.320</time></trkpt><trkpt lat="55.9251783" lon="49.1927683"><time>2023-06-03T13:08:43.320</time></trkpt><trkpt lat="55.9251850" lon="49.1929217"><time>2023-06-03T13:08:45.317</time></trkpt><trkpt lat="55.9251800" lon="49.1930383"><time>2023-06-03T13:08:47.317</time></trkpt><trkpt lat="55.9251767" lon="49.1931567"><time>2023-06-03T13:08:49.320</time></trkpt><trkpt lat="55.9251667" lon="49.1932583"><time>2023-06-03T13:08:51.310</time></trkpt><trkpt lat="55.9251550" lon="49.1933700"><time>2023-06-03T13:08:53.317</time></trkpt><trkpt lat="55.9251500" lon="49.1935067"><time>2023-06-03T13:08:55.317</time></trkpt><trkpt lat="55.9251550" lon="49.1936083"><time>2023-06-03T13:08:57.323</time></trkpt><trkpt lat="55.9251467" lon="49.1937117"><time>2023-06-03T13:08:59.320</time></trkpt><trkpt lat="55.9251400" lon="49.1938150"><time>2023-06-03T13:09:01.320</time></trkpt><trkpt lat="55.9251350" lon="49.1939517"><time>2023-06-03T13:09:03.320</time></trkpt><trkpt lat="55.9251183" lon="49.1940783"><time>2023-06-03T13:09:05.320</time></trkpt><trkpt lat="55.9250950" lon="49.1941517"><time>2023-06-03T13:09:07.320</time></trkpt><trkpt lat="55.9250333" lon="49.1942050"><time>2023-06-03T13:09:09.317</time></trkpt><trkpt lat="55.9249783" lon="49.1942150"><time>2023-06-03T13:09:11.320</time></trkpt><trkpt lat="55.9249050" lon="49.1942233"><time>2023-06-03T13:09:13.320</time></trkpt><trkpt lat="55.9248567" lon="49.1942250"><time>2023-06-03T13:09:14.320</time></trkpt><trkpt lat="55.9247767" lon="49.1942100"><time>2023-06-03T13:09:16.320</time></trkpt><trkpt lat="55.9247317" lon="49.1942050"><time>2023-06-03T13:09:17.320</time></trkpt><trkpt lat="55.9246450" lon="49.1942117"><time>2023-06-03T13:09:19.320</time></trkpt><trkpt lat="55.9246000" lon="49.1942167"><time>2023-06-03T13:09:20.320</time></trkpt><trkpt lat="55.9245550" lon="49.1942233"><time>2023-06-03T13:09:21.320</time></trkpt><trkpt lat="55.9245083" lon="49.1942317"><time>2023-06-03T13:09:22.313</time></trkpt><trkpt lat="55.9244417" lon="49.1942467"><time>2023-06-03T13:09:23.317</time></trkpt><trkpt lat="55.9243850" lon="49.1942700"><time>2023-06-03T13:09:24.320</time></trkpt><trkpt lat="55.9243317" lon="49.1942933"><time>2023-06-03T13:09:25.323</time></trkpt><trkpt lat="55.9242767" lon="49.1943200"><time>2023-06-03T13:09:26.320</time></trkpt><trkpt lat="55.9242217" lon="49.1943383"><time>2023-06-03T13:09:27.320</time></trkpt><trkpt lat="55.9241683" lon="49.1943417"><time>2023-06-03T13:09:28.323</time></trkpt><trkpt lat="55.9241167" lon="49.1943500"><time>2023-06-03T13:09:29.327</time></trkpt><trkpt lat="55.9240700" lon="49.1943500"><time>2023-06-03T13:09:30.320</time></trkpt><trkpt lat="55.9240250" lon="49.1943433"><time>2023-06-03T13:09:31.320</time></trkpt><trkpt lat="55.9239700" lon="49.1943350"><time>2023-06-03T13:09:32.320</time></trkpt><trkpt lat="55.9239150" lon="49.1943167"><time>2023-06-03T13:09:33.320</time></trkpt><trkpt lat="55.9238717" lon="49.1942933"><time>2023-06-03T13:09:34.320</time></trkpt><trkpt lat="55.9238267" lon="49.1942550"><time>2023-06-03T13:09:35.317</time></trkpt><trkpt lat="55.9237733" lon="49.1942033"><time>2023-06-03T13:09:36.317</time></trkpt><trkpt lat="55.9237200" lon="49.1941617"><time>2023-06-03T13:09:37.323</time></trkpt><trkpt lat="55.9236600" lon="49.1941183"><time>2023-06-03T13:09:38.317</time></trkpt><trkpt lat="55.9235983" lon="49.1940867"><time>2023-06-03T13:09:39.320</time></trkpt><trkpt lat="55.9235317" lon="49.1940667"><time>2023-06-03T13:09:40.317</time></trkpt><trkpt lat="55.9234750" lon="49.1940617"><time>2023-06-03T13:09:41.320</time></trkpt><trkpt lat="55.9234250" lon="49.1940433"><time>2023-06-03T13:09:42.317</time></trkpt><trkpt lat="55.9233733" lon="49.1940233"><time>2023-06-03T13:09:43.317</time></trkpt><trkpt lat="55.9233183" lon="49.1939983"><time>2023-06-03T13:09:44.317</time></trkpt><trkpt lat="55.9232650" lon="49.1939650"><time>2023-06-03T13:09:45.323</time></trkpt><trkpt lat="55.9232083" lon="49.1939350"><time>2023-06-03T13:09:46.317</time></trkpt><trkpt lat="55.9231100" lon="49.1938783"><time>2023-06-03T13:09:48.317</time></trkpt><trkpt lat="55.9230667" lon="49.1938517"><time>2023-06-03T13:09:49.317</time></trkpt><trkpt lat="55.9229917" lon="49.1938150"><time>2023-06-03T13:09:51.307</time></trkpt><trkpt lat="55.9229233" lon="49.1937900"><time>2023-06-03T13:09:53.320</time></trkpt><trkpt lat="55.9228367" lon="49.1937917"><time>2023-06-03T13:09:55.320</time></trkpt><trkpt lat="55.9227633" lon="49.1937517"><time>2023-06-03T13:09:57.310</time></trkpt><trkpt lat="55.9227050" lon="49.1936967"><time>2023-06-03T13:09:59.317</time></trkpt><trkpt lat="55.9226583" lon="49.1936717"><time>2023-06-03T13:10:00.317</time></trkpt><trkpt lat="55.9226133" lon="49.1936533"><time>2023-06-03T13:10:01.320</time></trkpt><trkpt lat="55.9225633" lon="49.1936333"><time>2023-06-03T13:10:02.317</time></trkpt><trkpt lat="55.9225150" lon="49.1936167"><time>2023-06-03T13:10:03.320</time></trkpt><trkpt lat="55.9224650" lon="49.1936067"><time>2023-06-03T13:10:04.317</time></trkpt><trkpt lat="55.9224200" lon="49.1935833"><time>2023-06-03T13:10:05.317</time></trkpt><trkpt lat="55.9223700" lon="49.1935567"><time>2023-06-03T13:10:06.317</time></trkpt><trkpt lat="55.9223250" lon="49.1935383"><time>2023-06-03T13:10:07.317</time></trkpt><trkpt lat="55.9222667" lon="49.1935317"><time>2023-06-03T13:10:08.317</time></trkpt><trkpt lat="55.9222167" lon="49.1935317"><time>2023-06-03T13:10:09.287</time></trkpt><trkpt lat="55.9221617" lon="49.1935300"><time>2023-06-03T13:10:10.313</time></trkpt><trkpt lat="55.9221033" lon="49.1935267"><time>2023-06-03T13:10:11.320</time></trkpt><trkpt lat="55.9220533" lon="49.1935200"><time>2023-06-03T13:10:12.320</time></trkpt><trkpt lat="55.9220050" lon="49.1934950"><time>2023-06-03T13:10:13.320</time></trkpt><trkpt lat="55.9219367" lon="49.1934050"><time>2023-06-03T13:10:15.307</time></trkpt><trkpt lat="55.9218917" lon="49.1933317"><time>2023-06-03T13:10:17.317</time></trkpt><trkpt lat="55.9218500" lon="49.1932417"><time>2023-06-03T13:10:19.317</time></trkpt><trkpt lat="55.9218217" lon="49.1931667"><time>2023-06-03T13:10:20.317</time></trkpt><trkpt lat="55.9218167" lon="49.1930600"><time>2023-06-03T13:10:22.317</time></trkpt><trkpt lat="55.9218017" lon="49.1929350"><time>2023-06-03T13:10:24.313</time></trkpt><trkpt lat="55.9217567" lon="49.1928133"><time>2023-06-03T13:10:26.320</time></trkpt><trkpt lat="55.9216833" lon="49.1926933"><time>2023-06-03T13:10:28.320</time></trkpt><trkpt lat="55.9216483" lon="49.1926333"><time>2023-06-03T13:10:29.317</time></trkpt><trkpt lat="55.9216067" lon="49.1925933"><time>2023-06-03T13:10:30.320</time></trkpt><trkpt lat="55.9215450" lon="49.1925200"><time>2023-06-03T13:10:31.323</time></trkpt><trkpt lat="55.9214783" lon="49.1924417"><time>2023-06-03T13:10:32.320</time></trkpt><trkpt lat="55.9214083" lon="49.1923667"><time>2023-06-03T13:10:33.317</time></trkpt><trkpt lat="55.9213500" lon="49.1923083"><time>2023-06-03T13:10:34.313</time></trkpt><trkpt lat="55.9212850" lon="49.1922433"><time>2023-06-03T13:10:35.320</time></trkpt><trkpt lat="55.9212250" lon="49.1921733"><time>2023-06-03T13:10:36.317</time></trkpt><trkpt lat="55.9211717" lon="49.1921033"><time>2023-06-03T13:10:37.320</time></trkpt><trkpt lat="55.9211200" lon="49.1920383"><time>2023-06-03T13:10:38.313</time></trkpt><trkpt lat="55.9210733" lon="49.1919683"><time>2023-06-03T13:10:39.317</time></trkpt><trkpt lat="55.9210050" lon="49.1918767"><time>2023-06-03T13:10:41.320</time></trkpt><trkpt lat="55.9209283" lon="49.1917783"><time>2023-06-03T13:10:43.320</time></trkpt><trkpt lat="55.9208783" lon="49.1917183"><time>2023-06-03T13:10:44.323</time></trkpt><trkpt lat="55.9208250" lon="49.1916483"><time>2023-06-03T13:10:45.323</time></trkpt><trkpt lat="55.9207717" lon="49.1915900"><time>2023-06-03T13:10:46.320</time></trkpt><trkpt lat="55.9207267" lon="49.1915233"><time>2023-06-03T13:10:47.323</time></trkpt><trkpt lat="55.9206833" lon="49.1914467"><time>2023-06-03T13:10:48.323</time></trkpt><trkpt lat="55.9206283" lon="49.1913650"><time>2023-06-03T13:10:49.323</time></trkpt><trkpt lat="55.9205800" lon="49.1912917"><time>2023-06-03T13:10:50.323</time></trkpt><trkpt lat="55.9205433" lon="49.1912267"><time>2023-06-03T13:10:51.327</time></trkpt><trkpt lat="55.9205067" lon="49.1911567"><time>2023-06-03T13:10:52.323</time></trkpt><trkpt lat="55.9204783" lon="49.1910850"><time>2023-06-03T13:10:53.327</time></trkpt><trkpt lat="55.9204550" lon="49.1910167"><time>2023-06-03T13:10:54.327</time></trkpt><trkpt lat="55.9204200" lon="49.1908817"><time>2023-06-03T13:10:56.327</time></trkpt><trkpt lat="55.9203917" lon="49.1907683"><time>2023-06-03T13:10:58.323</time></trkpt><trkpt lat="55.9203617" lon="49.1906633"><time>2023-06-03T13:11:00.323</time></trkpt><trkpt lat="55.9203317" lon="49.1905733"><time>2023-06-03T13:11:02.327</time></trkpt><trkpt lat="55.9202817" lon="49.1904950"><time>2023-06-03T13:11:04.320</time></trkpt><trkpt lat="55.9202167" lon="49.1904500"><time>2023-06-03T13:11:06.320</time></trkpt><trkpt lat="55.9201283" lon="49.1904017"><time>2023-06-03T13:11:08.327</time></trkpt><trkpt lat="55.9200767" lon="49.1903733"><time>2023-06-03T13:11:09.327</time></trkpt><trkpt lat="55.9200283" lon="49.1903400"><time>2023-06-03T13:11:10.320</time></trkpt><trkpt lat="55.9199833" lon="49.1903017"><time>2023-06-03T13:11:11.320</time></trkpt><trkpt lat="55.9199367" lon="49.1902667"><time>2023-06-03T13:11:12.290</time></trkpt><trkpt lat="55.9198917" lon="49.1902233"><time>2023-06-03T13:11:13.317</time></trkpt><trkpt lat="55.9198517" lon="49.1901817"><time>2023-06-03T13:11:14.317</time></trkpt><trkpt lat="55.9198100" lon="49.1901450"><time>2023-06-03T13:11:15.320</time></trkpt><trkpt lat="55.9197500" lon="49.1900950"><time>2023-06-03T13:11:17.323</time></trkpt><trkpt lat="55.9196783" lon="49.1900433"><time>2023-06-03T13:11:19.320</time></trkpt><trkpt lat="55.9196000" lon="49.1899917"><time>2023-06-03T13:11:21.317</time></trkpt><trkpt lat="55.9195567" lon="49.1899633"><time>2023-06-03T13:11:22.317</time></trkpt><trkpt lat="55.9194783" lon="49.1899150"><time>2023-06-03T13:11:24.320</time></trkpt><trkpt lat="55.9193967" lon="49.1898717"><time>2023-06-03T13:11:26.317</time></trkpt><trkpt lat="55.9193533" lon="49.1898467"><time>2023-06-03T13:11:27.320</time></trkpt><trkpt lat="55.9193000" lon="49.1898200"><time>2023-06-03T13:11:28.327</time></trkpt><trkpt lat="55.9192517" lon="49.1897900"><time>2023-06-03T13:11:29.313</time></trkpt><trkpt lat="55.9192067" lon="49.1897600"><time>2023-06-03T13:11:30.320</time></trkpt><trkpt lat="55.9191283" lon="49.1896900"><time>2023-06-03T13:11:32.310</time></trkpt><trkpt lat="55.9190567" lon="49.1896117"><time>2023-06-03T13:11:34.323</time></trkpt><trkpt lat="55.9190167" lon="49.1895633"><time>2023-06-03T13:11:35.323</time></trkpt><trkpt lat="55.9189833" lon="49.1895083"><time>2023-06-03T13:11:36.320</time></trkpt><trkpt lat="55.9189183" lon="49.1894150"><time>2023-06-03T13:11:38.320</time></trkpt><trkpt lat="55.9188817" lon="49.1893533"><time>2023-06-03T13:11:39.323</time></trkpt><trkpt lat="55.9188450" lon="49.1892983"><time>2023-06-03T13:11:40.323</time></trkpt><trkpt lat="55.9187783" lon="49.1892133"><time>2023-06-03T13:11:42.327</time></trkpt><trkpt lat="55.9187083" lon="49.1891183"><time>2023-06-03T13:11:44.320</time></trkpt><trkpt lat="55.9186550" lon="49.1890067"><time>2023-06-03T13:11:46.320</time></trkpt><trkpt lat="55.9186233" lon="49.1888867"><time>2023-06-03T13:11:48.320</time></trkpt><trkpt lat="55.9185983" lon="49.1887300"><time>2023-06-03T13:11:50.320</time></trkpt><trkpt lat="55.9185817" lon="49.1886283"><time>2023-06-03T13:11:51.300</time></trkpt><trkpt lat="55.9185667" lon="49.1885517"><time>2023-06-03T13:11:52.320</time></trkpt><trkpt lat="55.9185433" lon="49.1883983"><time>2023-06-03T13:11:54.320</time></trkpt><trkpt lat="55.9184933" lon="49.1882567"><time>2023-06-03T13:11:56.320</time></trkpt><trkpt lat="55.9184717" lon="49.1881817"><time>2023-06-03T13:11:57.323</time></trkpt><trkpt lat="55.9184400" lon="49.1881133"><time>2023-06-03T13:11:58.320</time></trkpt><trkpt lat="55.9184083" lon="49.1880350"><time>2023-06-03T13:11:59.320</time></trkpt><trkpt lat="55.9183733" lon="49.1879633"><time>2023-06-03T13:12:00.323</time></trkpt><trkpt lat="55.9183400" lon="49.1878933"><time>2023-06-03T13:12:01.323</time></trkpt><trkpt lat="55.9183117" lon="49.1878133"><time>2023-06-03T13:12:03.323</time></trkpt><trkpt lat="55.9182617" lon="49.1877350"><time>2023-06-03T13:12:06.323</time></trkpt><trkpt lat="55.9182083" lon="49.1876883"><time>2023-06-03T13:12:08.320</time></trkpt><trkpt lat="55.9181633" lon="49.1876167"><time>2023-06-03T13:12:10.323</time></trkpt><trkpt lat="55.9181200" lon="49.1875367"><time>2023-06-03T13:12:12.320</time></trkpt><trkpt lat="55.9180933" lon="49.1874550"><time>2023-06-03T13:12:14.323</time></trkpt><trkpt lat="55.9180550" lon="49.1873783"><time>2023-06-03T13:12:16.323</time></trkpt><trkpt lat="55.9180067" lon="49.1873150"><time>2023-06-03T13:12:18.307</time></trkpt><trkpt lat="55.9179667" lon="49.1872700"><time>2023-06-03T13:12:20.320</time></trkpt><trkpt lat="55.9179150" lon="49.1872533"><time>2023-06-03T13:12:22.320</time></trkpt><trkpt lat="55.9178600" lon="49.1872617"><time>2023-06-03T13:12:24.320</time></trkpt><trkpt lat="55.9177900" lon="49.1872600"><time>2023-06-03T13:12:26.323</time></trkpt><trkpt lat="55.9177200" lon="49.1872733"><time>2023-06-03T13:12:28.323</time></trkpt><trkpt lat="55.9176500" lon="49.1872917"><time>2023-06-03T13:12:30.317</time></trkpt><trkpt lat="55.9175800" lon="49.1873083"><time>2023-06-03T13:12:32.337</time></trkpt><trkpt lat="55.9175700" lon="49.1873117"><time>2023-06-03T13:12:34.307</time></trkpt><trkpt lat="55.9175217" lon="49.1873050"><time>2023-06-03T13:12:36.313</time></trkpt><trkpt lat="55.9174600" lon="49.1872750"><time>2023-06-03T13:12:38.310</time></trkpt><trkpt lat="55.9173617" lon="49.1872600"><time>2023-06-03T13:12:41.310</time></trkpt><trkpt lat="55.9173100" lon="49.1872233"><time>2023-06-03T13:12:42.310</time></trkpt><trkpt lat="55.9172583" lon="49.1871867"><time>2023-06-03T13:12:44.310</time></trkpt><trkpt lat="55.9172183" lon="49.1871383"><time>2023-06-03T13:12:45.287</time></trkpt><trkpt lat="55.9171750" lon="49.1871017"><time>2023-06-03T13:12:46.297</time></trkpt><trkpt lat="55.9171217" lon="49.1871333"><time>2023-06-03T13:12:47.310</time></trkpt><trkpt lat="55.9170383" lon="49.1871300"><time>2023-06-03T13:12:49.310</time></trkpt><trkpt lat="55.9169933" lon="49.1872100"><time>2023-06-03T13:12:52.307</time></trkpt><trkpt lat="55.9169650" lon="49.1873017"><time>2023-06-03T13:12:54.310</time></trkpt><trkpt lat="55.9169267" lon="49.1873783"><time>2023-06-03T13:12:57.307</time></trkpt><trkpt lat="55.9168983" lon="49.1874600"><time>2023-06-03T13:12:59.310</time></trkpt><trkpt lat="55.9168683" lon="49.1875267"><time>2023-06-03T13:13:00.313</time></trkpt><trkpt lat="55.9168183" lon="49.1876100"><time>2023-06-03T13:13:02.313</time></trkpt><trkpt lat="55.9167867" lon="49.1876733"><time>2023-06-03T13:13:03.310</time></trkpt><trkpt lat="55.9167283" lon="49.1876967"><time>2023-06-03T13:13:04.313</time></trkpt><trkpt lat="55.9166767" lon="49.1877300"><time>2023-06-03T13:13:05.307</time></trkpt><trkpt lat="55.9166350" lon="49.1877733"><time>2023-06-03T13:13:06.310</time></trkpt><trkpt lat="55.9165967" lon="49.1878183"><time>2023-06-03T13:13:07.310</time></trkpt><trkpt lat="55.9165583" lon="49.1878633"><time>2023-06-03T13:13:08.297</time></trkpt><trkpt lat="55.9165617" lon="49.1878600"><time>2023-06-03T13:13:10.767</time></trkpt><trkpt lat="55.9165167" lon="49.1879500"><time>2023-06-03T13:13:13.307</time></trkpt><trkpt lat="55.9164700" lon="49.1880133"><time>2023-06-03T13:13:15.307</time></trkpt><trkpt lat="55.9164567" lon="49.1881033"><time>2023-06-03T13:13:16.310</time></trkpt><trkpt lat="55.9164300" lon="49.1881683"><time>2023-06-03T13:13:17.310</time></trkpt><trkpt lat="55.9164050" lon="49.1882733"><time>2023-06-03T13:13:19.310</time></trkpt><trkpt lat="55.9163467" lon="49.1883267"><time>2023-06-03T13:13:21.293</time></trkpt><trkpt lat="55.9163133" lon="49.1883983"><time>2023-06-03T13:13:24.313</time></trkpt><trkpt lat="55.9162817" lon="49.1885500"><time>2023-06-03T13:13:27.323</time></trkpt><trkpt lat="55.9171100" lon="49.1870717"><time>2023-06-03T13:13:28.817</time></trkpt><trkpt lat="55.9171150" lon="49.1870683"><time>2023-06-03T13:13:30.710</time></trkpt><trkpt lat="55.9163200" lon="49.1886517"><time>2023-06-03T13:13:32.823</time></trkpt><trkpt lat="55.9171250" lon="49.1871033"><time>2023-06-03T13:13:34.823</time></trkpt><trkpt lat="55.9171283" lon="49.1871050"><time>2023-06-03T13:13:36.300</time></trkpt><trkpt lat="55.9163533" lon="49.1887000"><time>2023-06-03T13:13:36.787</time></trkpt><trkpt lat="55.9171283" lon="49.1871033"><time>2023-06-03T13:13:38.293</time></trkpt><trkpt lat="55.9163850" lon="49.1887233"><time>2023-06-03T13:13:40.283</time></trkpt><trkpt lat="55.9171383" lon="49.1871283"><time>2023-06-03T13:13:41.780</time></trkpt><trkpt lat="55.9171450" lon="49.1871233"><time>2023-06-03T13:13:43.263</time></trkpt><trkpt lat="55.9164017" lon="49.1889833"><time>2023-06-03T13:13:45.323</time></trkpt><trkpt lat="55.9163700" lon="49.1889967"><time>2023-06-03T13:13:47.787</time></trkpt><trkpt lat="55.9171167" lon="49.1872100"><time>2023-06-03T13:13:48.280</time></trkpt><trkpt lat="55.9171217" lon="49.1872017"><time>2023-06-03T13:13:49.257</time></trkpt><trkpt lat="55.9163483" lon="49.1891433"><time>2023-06-03T13:13:50.323</time></trkpt><trkpt lat="55.9163583" lon="49.1891317"><time>2023-06-03T13:13:51.717</time></trkpt><trkpt lat="55.9163083" lon="49.1891750"><time>2023-06-03T13:13:52.813</time></trkpt><trkpt lat="55.9163083" lon="49.1891750"><time>2023-06-03T13:13:52.850</time></trkpt><trkpt lat="55.9162650" lon="49.1892000"><time>2023-06-03T13:13:54.343</time></trkpt><trkpt lat="55.9162667" lon="49.1891950"><time>2023-06-03T13:13:55.310</time></trkpt><trkpt lat="55.9162700" lon="49.1892850"><time>2023-06-03T13:13:59.307</time></trkpt><trkpt lat="55.9162233" lon="49.1893417"><time>2023-06-03T13:14:04.307</time></trkpt><trkpt lat="55.9161817" lon="49.1893117"><time>2023-06-03T13:14:07.310</time></trkpt><trkpt lat="55.9161533" lon="49.1892400"><time>2023-06-03T13:14:11.303</time></trkpt><trkpt lat="55.9161183" lon="49.1891583"><time>2023-06-03T13:14:42.320</time></trkpt><trkpt lat="55.9160717" lon="49.1890983"><time>2023-06-03T13:14:47.320</time></trkpt><trkpt lat="55.9160217" lon="49.1890683"><time>2023-06-03T13:14:59.320</time></trkpt><trkpt lat="55.9159700" lon="49.1891600"><time>2023-06-03T13:15:02.310</time></trkpt><trkpt lat="55.9159350" lon="49.1892200"><time>2023-06-03T13:15:03.320</time></trkpt><trkpt lat="55.9158750" lon="49.1893200"><time>2023-06-03T13:15:05.323</time></trkpt><trkpt lat="55.9158417" lon="49.1894317"><time>2023-06-03T13:15:07.320</time></trkpt><trkpt lat="55.9158100" lon="49.1895433"><time>2023-06-03T13:15:09.320</time></trkpt><trkpt lat="55.9157617" lon="49.1896467"><time>2023-06-03T13:15:11.323</time></trkpt><trkpt lat="55.9157033" lon="49.1897167"><time>2023-06-03T13:15:13.323</time></trkpt><trkpt lat="55.9156333" lon="49.1898017"><time>2023-06-03T13:15:15.323</time></trkpt><trkpt lat="55.9155950" lon="49.1898467"><time>2023-06-03T13:15:16.320</time></trkpt><trkpt lat="55.9155483" lon="49.1898883"><time>2023-06-03T13:15:17.320</time></trkpt><trkpt lat="55.9154883" lon="49.1899233"><time>2023-06-03T13:15:18.323</time></trkpt><trkpt lat="55.9154383" lon="49.1899250"><time>2023-06-03T13:15:19.323</time></trkpt><trkpt lat="55.9153767" lon="49.1899300"><time>2023-06-03T13:15:20.320</time></trkpt><trkpt lat="55.9152833" lon="49.1899250"><time>2023-06-03T13:15:22.323</time></trkpt><trkpt lat="55.9151983" lon="49.1899517"><time>2023-06-03T13:15:24.323</time></trkpt><trkpt lat="55.9151367" lon="49.1900017"><time>2023-06-03T13:15:26.280</time></trkpt><trkpt lat="55.9150633" lon="49.1900283"><time>2023-06-03T13:15:28.290</time></trkpt><trkpt lat="55.9150150" lon="49.1900117"><time>2023-06-03T13:15:30.280</time></trkpt><trkpt lat="55.9149550" lon="49.1899483"><time>2023-06-03T13:15:33.303</time></trkpt><trkpt lat="55.9148833" lon="49.1899200"><time>2023-06-03T13:15:35.300</time></trkpt><trkpt lat="55.9148200" lon="49.1899583"><time>2023-06-03T13:15:37.293</time></trkpt><trkpt lat="55.9147800" lon="49.1900350"><time>2023-06-03T13:15:39.313</time></trkpt><trkpt lat="55.9147533" lon="49.1901283"><time>2023-06-03T13:15:41.317</time></trkpt><trkpt lat="55.9147167" lon="49.1902350"><time>2023-06-03T13:15:43.317</time></trkpt><trkpt lat="55.9146867" lon="49.1903433"><time>2023-06-03T13:15:45.317</time></trkpt><trkpt lat="55.9146717" lon="49.1904267"><time>2023-06-03T13:15:47.317</time></trkpt><trkpt lat="55.9146417" lon="49.1904917"><time>2023-06-03T13:15:52.317</time></trkpt><trkpt lat="55.9146083" lon="49.1905717"><time>2023-06-03T13:16:01.317</time></trkpt><trkpt lat="55.9145950" lon="49.1906533"><time>2023-06-03T13:16:03.307</time></trkpt><trkpt lat="55.9145767" lon="49.1907567"><time>2023-06-03T13:16:05.317</time></trkpt><trkpt lat="55.9145500" lon="49.1908667"><time>2023-06-03T13:16:07.310</time></trkpt><trkpt lat="55.9145367" lon="49.1909633"><time>2023-06-03T13:16:09.317</time></trkpt><trkpt lat="55.9145333" lon="49.1910700"><time>2023-06-03T13:16:11.320</time></trkpt><trkpt lat="55.9145367" lon="49.1911800"><time>2023-06-03T13:16:13.317</time></trkpt><trkpt lat="55.9145350" lon="49.1912933"><time>2023-06-03T13:16:15.317</time></trkpt><trkpt lat="55.9145350" lon="49.1914383"><time>2023-06-03T13:16:17.320</time></trkpt><trkpt lat="55.9145417" lon="49.1915500"><time>2023-06-03T13:16:19.317</time></trkpt><trkpt lat="55.9145583" lon="49.1916433"><time>2023-06-03T13:16:21.317</time></trkpt><trkpt lat="55.9145533" lon="49.1917550"><time>2023-06-03T13:16:23.320</time></trkpt><trkpt lat="55.9145283" lon="49.1918750"><time>2023-06-03T13:16:25.317</time></trkpt><trkpt lat="55.9145050" lon="49.1920067"><time>2023-06-03T13:16:27.317</time></trkpt><trkpt lat="55.9144817" lon="49.1921517"><time>2023-06-03T13:16:29.290</time></trkpt><trkpt lat="55.9144583" lon="49.1922867"><time>2023-06-03T13:16:31.307</time></trkpt><trkpt lat="55.9144317" lon="49.1924300"><time>2023-06-03T13:16:33.317</time></trkpt><trkpt lat="55.9144067" lon="49.1925850"><time>2023-06-03T13:16:35.307</time></trkpt><trkpt lat="55.9143917" lon="49.1926700"><time>2023-06-03T13:16:36.327</time></trkpt><trkpt lat="55.9143783" lon="49.1927517"><time>2023-06-03T13:16:37.320</time></trkpt><trkpt lat="55.9143667" lon="49.1928333"><time>2023-06-03T13:16:38.320</time></trkpt><trkpt lat="55.9143317" lon="49.1929833"><time>2023-06-03T13:16:40.317</time></trkpt><trkpt lat="55.9143150" lon="49.1930583"><time>2023-06-03T13:16:41.317</time></trkpt><trkpt lat="55.9142833" lon="49.1931583"><time>2023-06-03T13:16:42.317</time></trkpt><trkpt lat="55.9142633" lon="49.1932433"><time>2023-06-03T13:16:43.320</time></trkpt><trkpt lat="55.9142317" lon="49.1933717"><time>2023-06-03T13:16:45.317</time></trkpt><trkpt lat="55.9141783" lon="49.1934967"><time>2023-06-03T13:16:47.317</time></trkpt><trkpt lat="55.9141217" lon="49.1936017"><time>2023-06-03T13:16:49.320</time></trkpt><trkpt lat="55.9140600" lon="49.1937017"><time>2023-06-03T13:16:51.310</time></trkpt><trkpt lat="55.9140033" lon="49.1937817"><time>2023-06-03T13:16:53.317</time></trkpt><trkpt lat="55.9139500" lon="49.1938583"><time>2023-06-03T13:16:55.303</time></trkpt><trkpt lat="55.9138917" lon="49.1939400"><time>2023-06-03T13:16:57.297</time></trkpt><trkpt lat="55.9138233" lon="49.1940050"><time>2023-06-03T13:16:59.313</time></trkpt><trkpt lat="55.9137700" lon="49.1939883"><time>2023-06-03T13:17:01.320</time></trkpt><trkpt lat="55.9137200" lon="49.1939550"><time>2023-06-03T13:17:03.307</time></trkpt><trkpt lat="55.9136633" lon="49.1939217"><time>2023-06-03T13:17:05.320</time></trkpt><trkpt lat="55.9136083" lon="49.1939083"><time>2023-06-03T13:17:08.317</time></trkpt><trkpt lat="55.9135783" lon="49.1939700"><time>2023-06-03T13:17:10.317</time></trkpt><trkpt lat="55.9135783" lon="49.1940833"><time>2023-06-03T13:17:13.307</time></trkpt><trkpt lat="55.9135717" lon="49.1941750"><time>2023-06-03T13:17:15.320</time></trkpt><trkpt lat="55.9135683" lon="49.1942783"><time>2023-06-03T13:17:17.320</time></trkpt><trkpt lat="55.9135533" lon="49.1943683"><time>2023-06-03T13:17:20.317</time></trkpt><trkpt lat="55.9135233" lon="49.1944533"><time>2023-06-03T13:17:22.320</time></trkpt><trkpt lat="55.9134967" lon="49.1945433"><time>2023-06-03T13:17:24.317</time></trkpt><trkpt lat="55.9134600" lon="49.1946467"><time>2023-06-03T13:17:26.320</time></trkpt><trkpt lat="55.9134233" lon="49.1947550"><time>2023-06-03T13:17:28.320</time></trkpt><trkpt lat="55.9133883" lon="49.1948633"><time>2023-06-03T13:17:30.310</time></trkpt><trkpt lat="55.9133600" lon="49.1949717"><time>2023-06-03T13:17:32.317</time></trkpt><trkpt lat="55.9133250" lon="49.1950933"><time>2023-06-03T13:17:34.320</time></trkpt><trkpt lat="55.9133017" lon="49.1952033"><time>2023-06-03T13:17:36.320</time></trkpt><trkpt lat="55.9132817" lon="49.1953283"><time>2023-06-03T13:17:38.317</time></trkpt><trkpt lat="55.9132750" lon="49.1954483"><time>2023-06-03T13:17:40.317</time></trkpt><trkpt lat="55.9132733" lon="49.1955300"><time>2023-06-03T13:17:41.317</time></trkpt><trkpt lat="55.9132717" lon="49.1956650"><time>2023-06-03T13:17:43.320</time></trkpt><trkpt lat="55.9132783" lon="49.1958100"><time>2023-06-03T13:17:45.293</time></trkpt><trkpt lat="55.9132917" lon="49.1959517"><time>2023-06-03T13:17:47.317</time></trkpt><trkpt lat="55.9133067" lon="49.1960967"><time>2023-06-03T13:17:49.320</time></trkpt><trkpt lat="55.9133217" lon="49.1962383"><time>2023-06-03T13:17:51.300</time></trkpt><trkpt lat="55.9133350" lon="49.1963733"><time>2023-06-03T13:17:53.323</time></trkpt><trkpt lat="55.9133417" lon="49.1964817"><time>2023-06-03T13:17:55.317</time></trkpt><trkpt lat="55.9133467" lon="49.1965883"><time>2023-06-03T13:17:57.320</time></trkpt><trkpt lat="55.9133533" lon="49.1966817"><time>2023-06-03T13:17:59.317</time></trkpt><trkpt lat="55.9133500" lon="49.1967700"><time>2023-06-03T13:18:01.317</time></trkpt><trkpt lat="55.9133033" lon="49.1967983"><time>2023-06-03T13:18:04.313</time></trkpt><trkpt lat="55.9132550" lon="49.1967450"><time>2023-06-03T13:18:06.297</time></trkpt><trkpt lat="55.9132017" lon="49.1967183"><time>2023-06-03T13:18:08.320</time></trkpt><trkpt lat="55.9131467" lon="49.1966983"><time>2023-06-03T13:18:10.317</time></trkpt><trkpt lat="55.9130817" lon="49.1966883"><time>2023-06-03T13:18:12.320</time></trkpt><trkpt lat="55.9130217" lon="49.1966833"><time>2023-06-03T13:18:14.317</time></trkpt><trkpt lat="55.9129583" lon="49.1966817"><time>2023-06-03T13:18:16.317</time></trkpt><trkpt lat="55.9128850" lon="49.1966800"><time>2023-06-03T13:18:18.287</time></trkpt><trkpt lat="55.9128033" lon="49.1966583"><time>2023-06-03T13:18:20.320</time></trkpt><trkpt lat="55.9127333" lon="49.1966050"><time>2023-06-03T13:18:22.310</time></trkpt><trkpt lat="55.9126733" lon="49.1965117"><time>2023-06-03T13:18:24.320</time></trkpt><trkpt lat="55.9126283" lon="49.1964083"><time>2023-06-03T13:18:26.317</time></trkpt><trkpt lat="55.9125883" lon="49.1963083"><time>2023-06-03T13:18:28.320</time></trkpt><trkpt lat="55.9125483" lon="49.1962083"><time>2023-06-03T13:18:30.317</time></trkpt><trkpt lat="55.9125100" lon="49.1961167"><time>2023-06-03T13:18:32.323</time></trkpt><trkpt lat="55.9124650" lon="49.1960200"><time>2023-06-03T13:18:34.310</time></trkpt><trkpt lat="55.9124183" lon="49.1959183"><time>2023-06-03T13:18:36.323</time></trkpt><trkpt lat="55.9123700" lon="49.1958167"><time>2023-06-03T13:18:38.323</time></trkpt><trkpt lat="55.9123267" lon="49.1957233"><time>2023-06-03T13:18:40.323</time></trkpt><trkpt lat="55.9122867" lon="49.1956317"><time>2023-06-03T13:18:42.323</time></trkpt><trkpt lat="55.9122500" lon="49.1955433"><time>2023-06-03T13:18:44.323</time></trkpt><trkpt lat="55.9122083" lon="49.1954533"><time>2023-06-03T13:18:46.323</time></trkpt><trkpt lat="55.9121700" lon="49.1953550"><time>2023-06-03T13:18:48.327</time></trkpt><trkpt lat="55.9121267" lon="49.1952600"><time>2023-06-03T13:18:50.323</time></trkpt><trkpt lat="55.9120867" lon="49.1951750"><time>2023-06-03T13:18:52.323</time></trkpt><trkpt lat="55.9120433" lon="49.1950900"><time>2023-06-03T13:18:54.327</time></trkpt><trkpt lat="55.9119950" lon="49.1949883"><time>2023-06-03T13:18:56.327</time></trkpt><trkpt lat="55.9119517" lon="49.1948867"><time>2023-06-03T13:18:58.323</time></trkpt><trkpt lat="55.9119100" lon="49.1947900"><time>2023-06-03T13:19:00.327</time></trkpt><trkpt lat="55.9118700" lon="49.1946917"><time>2023-06-03T13:19:02.320</time></trkpt><trkpt lat="55.9118350" lon="49.1945967"><time>2023-06-03T13:19:04.323</time></trkpt><trkpt lat="55.9118050" lon="49.1945033"><time>2023-06-03T13:19:06.327</time></trkpt><trkpt lat="55.9117817" lon="49.1944167"><time>2023-06-03T13:19:08.327</time></trkpt><trkpt lat="55.9117567" lon="49.1943350"><time>2023-06-03T13:19:10.327</time></trkpt><trkpt lat="55.9117017" lon="49.1942867"><time>2023-06-03T13:19:13.327</time></trkpt><trkpt lat="55.9116400" lon="49.1943150"><time>2023-06-03T13:19:16.327</time></trkpt><trkpt lat="55.9115933" lon="49.1943283"><time>2023-06-03T13:19:18.327</time></trkpt><trkpt lat="55.9115383" lon="49.1943483"><time>2023-06-03T13:19:20.327</time></trkpt><trkpt lat="55.9114917" lon="49.1943717"><time>2023-06-03T13:19:23.323</time></trkpt><trkpt lat="55.9114433" lon="49.1944067"><time>2023-06-03T13:19:38.320</time></trkpt><trkpt lat="55.9114000" lon="49.1943817"><time>2023-06-03T13:19:43.327</time></trkpt><trkpt lat="55.9113383" lon="49.1944000"><time>2023-06-03T13:19:51.327</time></trkpt><trkpt lat="55.9112900" lon="49.1944067"><time>2023-06-03T13:19:53.327</time></trkpt><trkpt lat="55.9112283" lon="49.1944133"><time>2023-06-03T13:19:55.330</time></trkpt><trkpt lat="55.9111750" lon="49.1944183"><time>2023-06-03T13:19:57.317</time></trkpt><trkpt lat="55.9111283" lon="49.1944217"><time>2023-06-03T13:19:59.327</time></trkpt><trkpt lat="55.9110683" lon="49.1944283"><time>2023-06-03T13:20:01.313</time></trkpt><trkpt lat="55.9110100" lon="49.1944467"><time>2023-06-03T13:20:03.327</time></trkpt><trkpt lat="55.9109617" lon="49.1944717"><time>2023-06-03T13:20:05.327</time></trkpt><trkpt lat="55.9108983" lon="49.1945150"><time>2023-06-03T13:20:08.327</time></trkpt><trkpt lat="55.9108583" lon="49.1945733"><time>2023-06-03T13:20:30.323</time></trkpt><trkpt lat="55.9108117" lon="49.1946133"><time>2023-06-03T13:20:33.327</time></trkpt><trkpt lat="55.9107717" lon="49.1946583"><time>2023-06-03T13:20:35.313</time></trkpt><trkpt lat="55.9107317" lon="49.1947233"><time>2023-06-03T13:20:38.323</time></trkpt><trkpt lat="55.9107100" lon="49.1948050"><time>2023-06-03T13:20:46.317</time></trkpt><trkpt lat="55.9106717" lon="49.1948650"><time>2023-06-03T13:20:50.327</time></trkpt><trkpt lat="55.9106317" lon="49.1949100"><time>2023-06-03T13:20:55.330</time></trkpt><trkpt lat="55.9105917" lon="49.1949550"><time>2023-06-03T13:21:00.330</time></trkpt><trkpt lat="55.9105483" lon="49.1949217"><time>2023-06-03T13:21:05.330</time></trkpt><trkpt lat="55.9105467" lon="49.1948333"><time>2023-06-03T13:21:21.327</time></trkpt><trkpt lat="55.9105383" lon="49.1947517"><time>2023-06-03T13:21:23.327</time></trkpt><trkpt lat="55.9105200" lon="49.1946383"><time>2023-06-03T13:21:25.327</time></trkpt><trkpt lat="55.9105067" lon="49.1945233"><time>2023-06-03T13:21:27.320</time></trkpt><trkpt lat="55.9104900" lon="49.1944017"><time>2023-06-03T13:21:29.327</time></trkpt><trkpt lat="55.9104767" lon="49.1942817"><time>2023-06-03T13:21:31.330</time></trkpt><trkpt lat="55.9104783" lon="49.1941650"><time>2023-06-03T13:21:33.327</time></trkpt><trkpt lat="55.9104800" lon="49.1940433"><time>2023-06-03T13:21:35.323</time></trkpt><trkpt lat="55.9104817" lon="49.1939167"><time>2023-06-03T13:21:37.330</time></trkpt><trkpt lat="55.9104900" lon="49.1937983"><time>2023-06-03T13:21:39.327</time></trkpt><trkpt lat="55.9104900" lon="49.1936583"><time>2023-06-03T13:21:41.327</time></trkpt><trkpt lat="55.9104883" lon="49.1935100"><time>2023-06-03T13:21:43.327</time></trkpt><trkpt lat="55.9105050" lon="49.1933800"><time>2023-06-03T13:21:45.330</time></trkpt><trkpt lat="55.9105100" lon="49.1932250"><time>2023-06-03T13:21:47.327</time></trkpt><trkpt lat="55.9105250" lon="49.1931250"><time>2023-06-03T13:21:49.327</time></trkpt><trkpt lat="55.9105233" lon="49.1930083"><time>2023-06-03T13:21:51.327</time></trkpt><trkpt lat="55.9105050" lon="49.1929183"><time>2023-06-03T13:21:53.327</time></trkpt><trkpt lat="55.9104633" lon="49.1928517"><time>2023-06-03T13:21:55.327</time></trkpt><trkpt lat="55.9104200" lon="49.1928033"><time>2023-06-03T13:21:57.323</time></trkpt><trkpt lat="55.9103717" lon="49.1927400"><time>2023-06-03T13:21:59.320</time></trkpt><trkpt lat="55.9103433" lon="49.1926517"><time>2023-06-03T13:22:01.313</time></trkpt><trkpt lat="55.9103383" lon="49.1925433"><time>2023-06-03T13:22:03.327</time></trkpt><trkpt lat="55.9103667" lon="49.1924600"><time>2023-06-03T13:22:05.327</time></trkpt><trkpt lat="55.9104250" lon="49.1924200"><time>2023-06-03T13:22:07.313</time></trkpt><trkpt lat="55.9104833" lon="49.1923750"><time>2023-06-03T13:22:09.317</time></trkpt><trkpt lat="55.9105167" lon="49.1922817"><time>2023-06-03T13:22:11.327</time></trkpt><trkpt lat="55.9105317" lon="49.1921700"><time>2023-06-03T13:22:13.327</time></trkpt><trkpt lat="55.9105417" lon="49.1920583"><time>2023-06-03T13:22:15.323</time></trkpt><trkpt lat="55.9105517" lon="49.1919533"><time>2023-06-03T13:22:17.323</time></trkpt><trkpt lat="55.9105583" lon="49.1918417"><time>2023-06-03T13:22:19.327</time></trkpt><trkpt lat="55.9105667" lon="49.1917200"><time>2023-06-03T13:22:21.327</time></trkpt><trkpt lat="55.9105767" lon="49.1916000"><time>2023-06-03T13:22:23.330</time></trkpt><trkpt lat="55.9105867" lon="49.1914850"><time>2023-06-03T13:22:25.317</time></trkpt><trkpt lat="55.9105900" lon="49.1913850"><time>2023-06-03T13:22:27.327</time></trkpt><trkpt lat="55.9105867" lon="49.1912700"><time>2023-06-03T13:22:29.327</time></trkpt><trkpt lat="55.9105967" lon="49.1911700"><time>2023-06-03T13:22:31.330</time></trkpt><trkpt lat="55.9106017" lon="49.1910650"><time>2023-06-03T13:22:33.327</time></trkpt><trkpt lat="55.9106017" lon="49.1909533"><time>2023-06-03T13:22:35.317</time></trkpt><trkpt lat="55.9106117" lon="49.1908283"><time>2023-06-03T13:22:37.323</time></trkpt><trkpt lat="55.9106250" lon="49.1907100"><time>2023-06-03T13:22:39.327</time></trkpt><trkpt lat="55.9106317" lon="49.1905833"><time>2023-06-03T13:22:41.327</time></trkpt><trkpt lat="55.9106400" lon="49.1904517"><time>2023-06-03T13:22:43.320</time></trkpt><trkpt lat="55.9106517" lon="49.1902950"><time>2023-06-03T13:22:45.300</time></trkpt><trkpt lat="55.9106567" lon="49.1901517"><time>2023-06-03T13:22:47.327</time></trkpt><trkpt lat="55.9106600" lon="49.1900183"><time>2023-06-03T13:22:49.327</time></trkpt><trkpt lat="55.9106617" lon="49.1898917"><time>2023-06-03T13:22:51.320</time></trkpt><trkpt lat="55.9106567" lon="49.1897950"><time>2023-06-03T13:22:53.320</time></trkpt><trkpt lat="55.9106433" lon="49.1897083"><time>2023-06-03T13:22:55.297</time></trkpt><trkpt lat="55.9106300" lon="49.1896300"><time>2023-06-03T13:23:04.323</time></trkpt><trkpt lat="55.9106317" lon="49.1895467"><time>2023-06-03T13:23:08.327</time></trkpt><trkpt lat="55.9106350" lon="49.1894500"><time>2023-06-03T13:23:10.323</time></trkpt><trkpt lat="55.9106450" lon="49.1893517"><time>2023-06-03T13:23:12.320</time></trkpt><trkpt lat="55.9106633" lon="49.1892550"><time>2023-06-03T13:23:14.323</time></trkpt><trkpt lat="55.9106733" lon="49.1891683"><time>2023-06-03T13:23:16.327</time></trkpt><trkpt lat="55.9106683" lon="49.1890767"><time>2023-06-03T13:24:03.327</time></trkpt><trkpt lat="55.9106850" lon="49.1889767"><time>2023-06-03T13:24:06.303</time></trkpt><trkpt lat="55.9106900" lon="49.1888750"><time>2023-06-03T13:24:08.327</time></trkpt><trkpt lat="55.9106983" lon="49.1887750"><time>2023-06-03T13:24:10.323</time></trkpt><trkpt lat="55.9107067" lon="49.1886667"><time>2023-06-03T13:24:12.327</time></trkpt><trkpt lat="55.9107167" lon="49.1885500"><time>2023-06-03T13:24:14.327</time></trkpt><trkpt lat="55.9107367" lon="49.1884483"><time>2023-06-03T13:24:16.320</time></trkpt><trkpt lat="55.9107350" lon="49.1883533"><time>2023-06-03T13:24:17.323</time></trkpt><trkpt lat="55.9107383" lon="49.1882550"><time>2023-06-03T13:24:18.300</time></trkpt><trkpt lat="55.9107533" lon="49.1881783"><time>2023-06-03T13:24:19.327</time></trkpt><trkpt lat="55.9107750" lon="49.1880583"><time>2023-06-03T13:24:21.313</time></trkpt><trkpt lat="55.9107900" lon="49.1879600"><time>2023-06-03T13:24:23.323</time></trkpt><trkpt lat="55.9108133" lon="49.1878883"><time>2023-06-03T13:24:25.323</time></trkpt><trkpt lat="55.9108283" lon="49.1877733"><time>2023-06-03T13:24:27.317</time></trkpt><trkpt lat="55.9108383" lon="49.1876433"><time>2023-06-03T13:24:29.323</time></trkpt><trkpt lat="55.9108567" lon="49.1875283"><time>2023-06-03T13:24:31.320</time></trkpt><trkpt lat="55.9108833" lon="49.1874300"><time>2023-06-03T13:24:33.323</time></trkpt><trkpt lat="55.9109167" lon="49.1873150"><time>2023-06-03T13:24:35.320</time></trkpt><trkpt lat="55.9109433" lon="49.1871767"><time>2023-06-03T13:24:37.323</time></trkpt><trkpt lat="55.9109667" lon="49.1871050"><time>2023-06-03T13:24:38.323</time></trkpt><trkpt lat="55.9109900" lon="49.1870100"><time>2023-06-03T13:24:39.327</time></trkpt><trkpt lat="55.9110517" lon="49.1868950"><time>2023-06-03T13:24:41.327</time></trkpt><trkpt lat="55.9111300" lon="49.1868217"><time>2023-06-03T13:24:43.287</time></trkpt><trkpt lat="55.9111700" lon="49.1867833"><time>2023-06-03T13:24:44.323</time></trkpt><trkpt lat="55.9112350" lon="49.1866967"><time>2023-06-03T13:24:46.320</time></trkpt><trkpt lat="55.9112800" lon="49.1865600"><time>2023-06-03T13:24:48.323</time></trkpt><trkpt lat="55.9113183" lon="49.1864667"><time>2023-06-03T13:24:50.323</time></trkpt><trkpt lat="55.9113600" lon="49.1863783"><time>2023-06-03T13:24:52.323</time></trkpt><trkpt lat="55.9114083" lon="49.1862867"><time>2023-06-03T13:24:54.323</time></trkpt><trkpt lat="55.9114567" lon="49.1862033"><time>2023-06-03T13:24:56.317</time></trkpt><trkpt lat="55.9115067" lon="49.1861267"><time>2023-06-03T13:24:58.320</time></trkpt><trkpt lat="55.9115483" lon="49.1860450"><time>2023-06-03T13:25:00.320</time></trkpt><trkpt lat="55.9115833" lon="49.1859400"><time>2023-06-03T13:25:02.323</time></trkpt><trkpt lat="55.9116183" lon="49.1858317"><time>2023-06-03T13:25:04.320</time></trkpt><trkpt lat="55.9116617" lon="49.1857283"><time>2023-06-03T13:25:06.320</time></trkpt><trkpt lat="55.9117067" lon="49.1856550"><time>2023-06-03T13:25:08.323</time></trkpt><trkpt lat="55.9117567" lon="49.1856583"><time>2023-06-03T13:25:10.323</time></trkpt><trkpt lat="55.9118233" lon="49.1856233"><time>2023-06-03T13:25:12.323</time></trkpt><trkpt lat="55.9118983" lon="49.1855933"><time>2023-06-03T13:25:14.320</time></trkpt><trkpt lat="55.9119633" lon="49.1855367"><time>2023-06-03T13:25:16.323</time></trkpt><trkpt lat="55.9120350" lon="49.1854867"><time>2023-06-03T13:25:18.323</time></trkpt><trkpt lat="55.9121117" lon="49.1854333"><time>2023-06-03T13:25:20.323</time></trkpt><trkpt lat="55.9121883" lon="49.1853717"><time>2023-06-03T13:25:22.317</time></trkpt><trkpt lat="55.9122267" lon="49.1853300"><time>2023-06-03T13:25:23.317</time></trkpt><trkpt lat="55.9122950" lon="49.1852333"><time>2023-06-03T13:25:25.287</time></trkpt><trkpt lat="55.9123583" lon="49.1851233"><time>2023-06-03T13:25:27.313</time></trkpt><trkpt lat="55.9124217" lon="49.1850100"><time>2023-06-03T13:25:29.320</time></trkpt><trkpt lat="55.9124533" lon="49.1849500"><time>2023-06-03T13:25:30.323</time></trkpt><trkpt lat="55.9125100" lon="49.1848417"><time>2023-06-03T13:25:32.320</time></trkpt><trkpt lat="55.9125633" lon="49.1847350"><time>2023-06-03T13:25:34.323</time></trkpt><trkpt lat="55.9126067" lon="49.1846350"><time>2023-06-03T13:25:36.320</time></trkpt><trkpt lat="55.9126400" lon="49.1845500"><time>2023-06-03T13:25:38.297</time></trkpt><trkpt lat="55.9126617" lon="49.1844783"><time>2023-06-03T13:25:39.313</time></trkpt><trkpt lat="55.9126950" lon="49.1843667"><time>2023-06-03T13:25:41.303</time></trkpt><trkpt lat="55.9127300" lon="49.1842700"><time>2023-06-03T13:25:43.327</time></trkpt><trkpt lat="55.9127667" lon="49.1841750"><time>2023-06-03T13:25:45.323</time></trkpt><trkpt lat="55.9128100" lon="49.1840700"><time>2023-06-03T13:25:47.327</time></trkpt><trkpt lat="55.9128633" lon="49.1839650"><time>2023-06-03T13:25:49.327</time></trkpt><trkpt lat="55.9129183" lon="49.1838667"><time>2023-06-03T13:25:51.323</time></trkpt><trkpt lat="55.9129750" lon="49.1837767"><time>2023-06-03T13:25:53.327</time></trkpt><trkpt lat="55.9130300" lon="49.1836983"><time>2023-06-03T13:25:55.323</time></trkpt><trkpt lat="55.9130783" lon="49.1835950"><time>2023-06-03T13:25:57.317</time></trkpt><trkpt lat="55.9131283" lon="49.1835083"><time>2023-06-03T13:25:59.323</time></trkpt><trkpt lat="55.9131850" lon="49.1835033"><time>2023-06-03T13:26:01.320</time></trkpt><trkpt lat="55.9132483" lon="49.1835217"><time>2023-06-03T13:26:03.320</time></trkpt><trkpt lat="55.9133167" lon="49.1835200"><time>2023-06-03T13:26:05.323</time></trkpt><trkpt lat="55.9133867" lon="49.1835150"><time>2023-06-03T13:26:07.323</time></trkpt><trkpt lat="55.9134717" lon="49.1835200"><time>2023-06-03T13:26:09.320</time></trkpt><trkpt lat="55.9135500" lon="49.1835267"><time>2023-06-03T13:26:11.320</time></trkpt><trkpt lat="55.9136283" lon="49.1835583"><time>2023-06-03T13:26:13.320</time></trkpt><trkpt lat="55.9136867" lon="49.1836367"><time>2023-06-03T13:26:15.320</time></trkpt><trkpt lat="55.9137400" lon="49.1837567"><time>2023-06-03T13:26:17.320</time></trkpt><trkpt lat="55.9137917" lon="49.1838633"><time>2023-06-03T13:26:19.320</time></trkpt><trkpt lat="55.9138567" lon="49.1839650"><time>2023-06-03T13:26:21.320</time></trkpt><trkpt lat="55.9139167" lon="49.1840450"><time>2023-06-03T13:26:23.320</time></trkpt><trkpt lat="55.9139733" lon="49.1841133"><time>2023-06-03T13:26:25.323</time></trkpt><trkpt lat="55.9140400" lon="49.1841483"><time>2023-06-03T13:26:27.327</time></trkpt><trkpt lat="55.9141083" lon="49.1841417"><time>2023-06-03T13:26:29.323</time></trkpt><trkpt lat="55.9141767" lon="49.1841250"><time>2023-06-03T13:26:31.323</time></trkpt><trkpt lat="55.9142350" lon="49.1841150"><time>2023-06-03T13:26:33.320</time></trkpt><trkpt lat="55.9143000" lon="49.1841117"><time>2023-06-03T13:26:35.317</time></trkpt><trkpt lat="55.9143767" lon="49.1840983"><time>2023-06-03T13:26:37.320</time></trkpt><trkpt lat="55.9144450" lon="49.1840800"><time>2023-06-03T13:26:39.310</time></trkpt><trkpt lat="55.9145067" lon="49.1840683"><time>2023-06-03T13:26:41.323</time></trkpt><trkpt lat="55.9145617" lon="49.1840733"><time>2023-06-03T13:26:43.317</time></trkpt><trkpt lat="55.9146183" lon="49.1840883"><time>2023-06-03T13:26:45.317</time></trkpt><trkpt lat="55.9146817" lon="49.1840867"><time>2023-06-03T13:26:47.320</time></trkpt><trkpt lat="55.9147567" lon="49.1840633"><time>2023-06-03T13:26:49.323</time></trkpt><trkpt lat="55.9148283" lon="49.1840217"><time>2023-06-03T13:26:51.323</time></trkpt><trkpt lat="55.9148950" lon="49.1839883"><time>2023-06-03T13:26:53.317</time></trkpt><trkpt lat="55.9149533" lon="49.1839583"><time>2023-06-03T13:26:55.320</time></trkpt><trkpt lat="55.9150117" lon="49.1839083"><time>2023-06-03T13:26:57.323</time></trkpt><trkpt lat="55.9150650" lon="49.1838617"><time>2023-06-03T13:26:59.323</time></trkpt><trkpt lat="55.9151217" lon="49.1838200"><time>2023-06-03T13:27:01.323</time></trkpt><trkpt lat="55.9151767" lon="49.1837817"><time>2023-06-03T13:27:03.320</time></trkpt><trkpt lat="55.9152383" lon="49.1837500"><time>2023-06-03T13:27:05.320</time></trkpt><trkpt lat="55.9152967" lon="49.1837300"><time>2023-06-03T13:27:07.320</time></trkpt><trkpt lat="55.9153683" lon="49.1837150"><time>2023-06-03T13:27:09.320</time></trkpt><trkpt lat="55.9154250" lon="49.1836683"><time>2023-06-03T13:27:11.320</time></trkpt><trkpt lat="55.9154750" lon="49.1836150"><time>2023-06-03T13:27:13.320</time></trkpt><trkpt lat="55.9155167" lon="49.1835750"><time>2023-06-03T13:27:14.317</time></trkpt><trkpt lat="55.9155650" lon="49.1835300"><time>2023-06-03T13:27:15.320</time></trkpt><trkpt lat="55.9156267" lon="49.1834250"><time>2023-06-03T13:27:17.320</time></trkpt><trkpt lat="55.9156733" lon="49.1833117"><time>2023-06-03T13:27:19.317</time></trkpt><trkpt lat="55.9157117" lon="49.1832233"><time>2023-06-03T13:27:21.320</time></trkpt><trkpt lat="55.9157567" lon="49.1831433"><time>2023-06-03T13:27:23.317</time></trkpt><trkpt lat="55.9158050" lon="49.1830333"><time>2023-06-03T13:27:25.323</time></trkpt><trkpt lat="55.9158600" lon="49.1829367"><time>2023-06-03T13:27:27.317</time></trkpt><trkpt lat="55.9159033" lon="49.1828633"><time>2023-06-03T13:27:29.320</time></trkpt><trkpt lat="55.9159383" lon="49.1828067"><time>2023-06-03T13:27:31.320</time></trkpt><trkpt lat="55.9159717" lon="49.1827350"><time>2023-06-03T13:27:34.317</time></trkpt><trkpt lat="55.9159733" lon="49.1826400"><time>2023-06-03T13:27:36.297</time></trkpt><trkpt lat="55.9159867" lon="49.1825433"><time>2023-06-03T13:27:38.320</time></trkpt><trkpt lat="55.9160150" lon="49.1824367"><time>2023-06-03T13:27:40.320</time></trkpt><trkpt lat="55.9160433" lon="49.1823633"><time>2023-06-03T13:27:41.320</time></trkpt><trkpt lat="55.9160950" lon="49.1822483"><time>2023-06-03T13:27:43.300</time></trkpt><trkpt lat="55.9161433" lon="49.1821467"><time>2023-06-03T13:27:45.320</time></trkpt><trkpt lat="55.9161900" lon="49.1820317"><time>2023-06-03T13:27:47.317</time></trkpt><trkpt lat="55.9162350" lon="49.1819117"><time>2023-06-03T13:27:49.320</time></trkpt><trkpt lat="55.9162683" lon="49.1817817"><time>2023-06-03T13:27:51.320</time></trkpt><trkpt lat="55.9162983" lon="49.1816333"><time>2023-06-03T13:27:53.320</time></trkpt><trkpt lat="55.9163283" lon="49.1814883"><time>2023-06-03T13:27:55.320</time></trkpt><trkpt lat="55.9163600" lon="49.1813583"><time>2023-06-03T13:27:57.320</time></trkpt><trkpt lat="55.9163867" lon="49.1812200"><time>2023-06-03T13:27:59.317</time></trkpt><trkpt lat="55.9164167" lon="49.1810983"><time>2023-06-03T13:28:01.310</time></trkpt><trkpt lat="55.9164517" lon="49.1809617"><time>2023-06-03T13:28:03.320</time></trkpt><trkpt lat="55.9164717" lon="49.1808850"><time>2023-06-03T13:28:04.320</time></trkpt><trkpt lat="55.9164867" lon="49.1808017"><time>2023-06-03T13:28:05.317</time></trkpt><trkpt lat="55.9164967" lon="49.1807183"><time>2023-06-03T13:28:06.320</time></trkpt><trkpt lat="55.9165167" lon="49.1805817"><time>2023-06-03T13:28:08.317</time></trkpt><trkpt lat="55.9165383" lon="49.1804467"><time>2023-06-03T13:28:10.317</time></trkpt><trkpt lat="55.9165633" lon="49.1803167"><time>2023-06-03T13:28:12.320</time></trkpt><trkpt lat="55.9165883" lon="49.1802100"><time>2023-06-03T13:28:14.320</time></trkpt><trkpt lat="55.9166067" lon="49.1801100"><time>2023-06-03T13:28:16.320</time></trkpt><trkpt lat="55.9166217" lon="49.1800067"><time>2023-06-03T13:28:18.307</time></trkpt><trkpt lat="55.9166350" lon="49.1799150"><time>2023-06-03T13:28:20.320</time></trkpt><trkpt lat="55.9166600" lon="49.1798233"><time>2023-06-03T13:28:22.323</time></trkpt><trkpt lat="55.9166800" lon="49.1797033"><time>2023-06-03T13:28:24.320</time></trkpt><trkpt lat="55.9167100" lon="49.1795667"><time>2023-06-03T13:28:26.320</time></trkpt><trkpt lat="55.9167417" lon="49.1794933"><time>2023-06-03T13:28:28.323</time></trkpt><trkpt lat="55.9167917" lon="49.1794367"><time>2023-06-03T13:28:30.320</time></trkpt><trkpt lat="55.9168233" lon="49.1793517"><time>2023-06-03T13:28:32.317</time></trkpt><trkpt lat="55.9168567" lon="49.1792567"><time>2023-06-03T13:28:34.320</time></trkpt><trkpt lat="55.9169050" lon="49.1791717"><time>2023-06-03T13:28:36.320</time></trkpt><trkpt lat="55.9169367" lon="49.1790583"><time>2023-06-03T13:28:38.320</time></trkpt><trkpt lat="55.9169833" lon="49.1789833"><time>2023-06-03T13:28:40.320</time></trkpt><trkpt lat="55.9170400" lon="49.1789650"><time>2023-06-03T13:28:43.320</time></trkpt><trkpt lat="55.9171033" lon="49.1789550"><time>2023-06-03T13:28:45.317</time></trkpt><trkpt lat="55.9171517" lon="49.1789083"><time>2023-06-03T13:28:47.317</time></trkpt><trkpt lat="55.9171767" lon="49.1788217"><time>2023-06-03T13:28:49.317</time></trkpt><trkpt lat="55.9172200" lon="49.1787317"><time>2023-06-03T13:28:51.317</time></trkpt><trkpt lat="55.9172717" lon="49.1786467"><time>2023-06-03T13:28:53.317</time></trkpt><trkpt lat="55.9172883" lon="49.1785717"><time>2023-06-03T13:28:54.317</time></trkpt><trkpt lat="55.9173017" lon="49.1784917"><time>2023-06-03T13:28:55.310</time></trkpt><trkpt lat="55.9173083" lon="49.1784067"><time>2023-06-03T13:28:56.317</time></trkpt><trkpt lat="55.9173050" lon="49.1782950"><time>2023-06-03T13:28:57.317</time></trkpt><trkpt lat="55.9172950" lon="49.1781700"><time>2023-06-03T13:28:58.320</time></trkpt><trkpt lat="55.9172767" lon="49.1780300"><time>2023-06-03T13:28:59.317</time></trkpt><trkpt lat="55.9172617" lon="49.1778967"><time>2023-06-03T13:29:00.317</time></trkpt><trkpt lat="55.9172467" lon="49.1777883"><time>2023-06-03T13:29:01.320</time></trkpt><trkpt lat="55.9172233" lon="49.1776733"><time>2023-06-03T13:29:02.317</time></trkpt><trkpt lat="55.9171667" lon="49.1775567"><time>2023-06-03T13:29:04.320</time></trkpt><trkpt lat="55.9171050" lon="49.1774433"><time>2023-06-03T13:29:06.320</time></trkpt><trkpt lat="55.9170333" lon="49.1773333"><time>2023-06-03T13:29:08.317</time></trkpt><trkpt lat="55.9169567" lon="49.1772033"><time>2023-06-03T13:29:10.320</time></trkpt><trkpt lat="55.9169267" lon="49.1771250"><time>2023-06-03T13:29:11.320</time></trkpt><trkpt lat="55.9169083" lon="49.1770250"><time>2023-06-03T13:29:13.317</time></trkpt><trkpt lat="55.9169083" lon="49.1769400"><time>2023-06-03T13:29:15.317</time></trkpt><trkpt lat="55.9168917" lon="49.1768517"><time>2023-06-03T13:29:17.317</time></trkpt><trkpt lat="55.9168883" lon="49.1767517"><time>2023-06-03T13:29:19.320</time></trkpt><trkpt lat="55.9168967" lon="49.1766417"><time>2023-06-03T13:29:21.297</time></trkpt><trkpt lat="55.9169100" lon="49.1765350"><time>2023-06-03T13:29:23.317</time></trkpt><trkpt lat="55.9169083" lon="49.1764283"><time>2023-06-03T13:29:25.340</time></trkpt><trkpt lat="55.9169100" lon="49.1764267"><time>2023-06-03T13:29:26.807</time></trkpt><trkpt lat="55.9168733" lon="49.1763633"><time>2023-06-03T13:29:30.307</time></trkpt><trkpt lat="55.9168650" lon="49.1762800"><time>2023-06-03T13:29:33.303</time></trkpt><trkpt lat="55.9168900" lon="49.1761900"><time>2023-06-03T13:29:36.310</time></trkpt><trkpt lat="55.9169033" lon="49.1761133"><time>2023-06-03T13:29:38.297</time></trkpt><trkpt lat="55.9169150" lon="49.1760333"><time>2023-06-03T13:29:40.307</time></trkpt><trkpt lat="55.9169517" lon="49.1759383"><time>2023-06-03T13:29:43.307</time></trkpt><trkpt lat="55.9169233" lon="49.1757767"><time>2023-06-03T13:29:45.307</time></trkpt><trkpt lat="55.9169150" lon="49.1756733"><time>2023-06-03T13:29:47.310</time></trkpt><trkpt lat="55.9169017" lon="49.1755833"><time>2023-06-03T13:29:49.310</time></trkpt><trkpt lat="55.9168583" lon="49.1754600"><time>2023-06-03T13:29:51.313</time></trkpt><trkpt lat="55.9168383" lon="49.1753750"><time>2023-06-03T13:29:52.310</time></trkpt><trkpt lat="55.9168167" lon="49.1752650"><time>2023-06-03T13:29:54.307</time></trkpt><trkpt lat="55.9167833" lon="49.1751500"><time>2023-06-03T13:29:56.307</time></trkpt><trkpt lat="55.9167533" lon="49.1749900"><time>2023-06-03T13:29:58.310</time></trkpt><trkpt lat="55.9167433" lon="49.1748967"><time>2023-06-03T13:29:59.327</time></trkpt><trkpt lat="55.9167417" lon="49.1748933"><time>2023-06-03T13:30:00.810</time></trkpt><trkpt lat="55.9167217" lon="49.1748133"><time>2023-06-03T13:30:03.307</time></trkpt><trkpt lat="55.9166933" lon="49.1747433"><time>2023-06-03T13:30:05.307</time></trkpt><trkpt lat="55.9166883" lon="49.1746617"><time>2023-06-03T13:30:06.307</time></trkpt><trkpt lat="55.9166717" lon="49.1745000"><time>2023-06-03T13:30:09.307</time></trkpt><trkpt lat="55.9166533" lon="49.1744233"><time>2023-06-03T13:30:11.310</time></trkpt><trkpt lat="55.9166183" lon="49.1743583"><time>2023-06-03T13:30:15.303</time></trkpt><trkpt lat="55.9165067" lon="49.1740467"><time>2023-06-03T13:30:20.320</time></trkpt><trkpt lat="55.9165050" lon="49.1740300"><time>2023-06-03T13:30:22.303</time></trkpt><trkpt lat="55.9165000" lon="49.1739333"><time>2023-06-03T13:30:24.307</time></trkpt><trkpt lat="55.9165100" lon="49.1737783"><time>2023-06-03T13:30:29.300</time></trkpt><trkpt lat="55.9165083" lon="49.1736983"><time>2023-06-03T13:30:31.297</time></trkpt><trkpt lat="55.9164667" lon="49.1736400"><time>2023-06-03T13:30:44.440</time></trkpt></trkseg></trk></gpx>